<?xml version="1.0" encoding="UTF-8"?>
<gpx version="1.1" creator="https://www.youtrack.es" xsi:schemaLocation="http://www.topografix.com/GPX/1/1 http://www.topografix.com/GPX/1/1/gpx.xsd http://www.garmin.com/xmlschemas/GpxExtensions/v3 http://www.garmin.com/xmlschemas/GpxExtensionsv3.xsd http://www.garmin.com/xmlschemas/TrackPointExtension/v1 http://www.garmin.com/xmlschemas/TrackPointExtensionv1.xsd" xmlns:gpxtpx="http://www.garmin.com/xmlschemas/TrackPointExtension/v1" xmlns:gpxx="http://www.garmin.com/xmlschemas/GpxExtensions/v3" xmlns:xsi="http://www.w3.org/2001/XMLSchema-instance">
  <metadata>
    <link href="https://www.youtrack.es">
      <text>YouTrack.es</text>
    </link>
    <time>2026-05-08T18:51:38Z</time>
  </metadata>
  <trk>
    <src>https://www.youtrack.es</src>
    <link href="https://www.youtrack.es/ruta/18139-bukmekerli-uqkt">
      <text>YouTrack.es</text>
    </link>
    <trkseg>
      <trkpt lat="41.662951" lon="-4.730914">
        <ele>696.675</ele>
        <time>2017-09-19T08:25:22Z</time>
      </trkpt>
      <trkpt lat="41.662943" lon="-4.730941">
        <ele>696.628</ele>
        <time>2017-09-19T08:25:23Z</time>
      </trkpt>
      <trkpt lat="41.662870" lon="-4.731027">
        <ele>697.020</ele>
        <time>2017-09-19T08:25:27Z</time>
      </trkpt>
      <trkpt lat="41.662461" lon="-4.731367">
        <ele>699.508</ele>
        <time>2017-09-19T08:25:41Z</time>
      </trkpt>
      <trkpt lat="41.662024" lon="-4.731721">
        <ele>700.498</ele>
        <time>2017-09-19T08:25:55Z</time>
      </trkpt>
      <trkpt lat="41.661384" lon="-4.732286">
        <ele>699.996</ele>
        <time>2017-09-19T08:26:13Z</time>
      </trkpt>
      <trkpt lat="41.661381" lon="-4.732531">
        <ele>697.536</ele>
        <time>2017-09-19T08:26:22Z</time>
      </trkpt>
      <trkpt lat="41.661370" lon="-4.732495">
        <ele>695.140</ele>
        <time>2017-09-19T08:26:33Z</time>
      </trkpt>
      <trkpt lat="41.661399" lon="-4.732471">
        <ele>697.568</ele>
        <time>2017-09-19T08:26:51Z</time>
      </trkpt>
      <trkpt lat="41.661435" lon="-4.732457">
        <ele>701.437</ele>
        <time>2017-09-19T08:27:11Z</time>
      </trkpt>
      <trkpt lat="41.661436" lon="-4.732462">
        <ele>704.337</ele>
        <time>2017-09-19T08:27:37Z</time>
      </trkpt>
      <trkpt lat="41.661469" lon="-4.732477">
        <ele>708.179</ele>
        <time>2017-09-19T08:28:07Z</time>
      </trkpt>
      <trkpt lat="41.661460" lon="-4.732458">
        <ele>707.169</ele>
        <time>2017-09-19T08:28:34Z</time>
      </trkpt>
      <trkpt lat="41.661455" lon="-4.732446">
        <ele>707.104</ele>
        <time>2017-09-19T08:28:35Z</time>
      </trkpt>
      <trkpt lat="41.661445" lon="-4.732430">
        <ele>707.624</ele>
        <time>2017-09-19T08:28:36Z</time>
      </trkpt>
      <trkpt lat="41.661428" lon="-4.732418">
        <ele>707.108</ele>
        <time>2017-09-19T08:28:37Z</time>
      </trkpt>
      <trkpt lat="41.661408" lon="-4.732406">
        <ele>707.137</ele>
        <time>2017-09-19T08:28:38Z</time>
      </trkpt>
      <trkpt lat="41.661391" lon="-4.732407">
        <ele>707.175</ele>
        <time>2017-09-19T08:28:39Z</time>
      </trkpt>
      <trkpt lat="41.661368" lon="-4.732425">
        <ele>707.165</ele>
        <time>2017-09-19T08:28:40Z</time>
      </trkpt>
      <trkpt lat="41.661346" lon="-4.732451">
        <ele>706.789</ele>
        <time>2017-09-19T08:28:41Z</time>
      </trkpt>
      <trkpt lat="41.661244" lon="-4.732527">
        <ele>705.757</ele>
        <time>2017-09-19T08:28:44Z</time>
      </trkpt>
      <trkpt lat="41.661196" lon="-4.732565">
        <ele>705.266</ele>
        <time>2017-09-19T08:28:45Z</time>
      </trkpt>
      <trkpt lat="41.660644" lon="-4.733011">
        <ele>704.736</ele>
        <time>2017-09-19T08:28:58Z</time>
      </trkpt>
      <trkpt lat="41.660603" lon="-4.733068">
        <ele>704.728</ele>
        <time>2017-09-19T08:28:59Z</time>
      </trkpt>
      <trkpt lat="41.660578" lon="-4.733111">
        <ele>704.778</ele>
        <time>2017-09-19T08:29:00Z</time>
      </trkpt>
      <trkpt lat="41.660375" lon="-4.733453">
        <ele>703.833</ele>
        <time>2017-09-19T08:29:11Z</time>
      </trkpt>
      <trkpt lat="41.660351" lon="-4.733490">
        <ele>699.926</ele>
        <time>2017-09-19T08:29:26Z</time>
      </trkpt>
      <trkpt lat="41.660345" lon="-4.733490">
        <ele>700.408</ele>
        <time>2017-09-19T08:29:41Z</time>
      </trkpt>
      <trkpt lat="41.660333" lon="-4.733502">
        <ele>700.448</ele>
        <time>2017-09-19T08:29:42Z</time>
      </trkpt>
      <trkpt lat="41.660101" lon="-4.733840">
        <ele>699.946</ele>
        <time>2017-09-19T08:29:53Z</time>
      </trkpt>
      <trkpt lat="41.659887" lon="-4.734211">
        <ele>700.446</ele>
        <time>2017-09-19T08:30:03Z</time>
      </trkpt>
      <trkpt lat="41.659171" lon="-4.734629">
        <ele>699.550</ele>
        <time>2017-09-19T08:30:21Z</time>
      </trkpt>
      <trkpt lat="41.659006" lon="-4.734688">
        <ele>698.578</ele>
        <time>2017-09-19T08:30:25Z</time>
      </trkpt>
      <trkpt lat="41.658959" lon="-4.734700">
        <ele>699.057</ele>
        <time>2017-09-19T08:30:26Z</time>
      </trkpt>
      <trkpt lat="41.658916" lon="-4.734717">
        <ele>699.587</ele>
        <time>2017-09-19T08:30:27Z</time>
      </trkpt>
      <trkpt lat="41.658228" lon="-4.735034">
        <ele>699.589</ele>
        <time>2017-09-19T08:30:43Z</time>
      </trkpt>
      <trkpt lat="41.657311" lon="-4.735455">
        <ele>699.046</ele>
        <time>2017-09-19T08:31:05Z</time>
      </trkpt>
      <trkpt lat="41.656673" lon="-4.735744">
        <ele>700.488</ele>
        <time>2017-09-19T08:31:22Z</time>
      </trkpt>
      <trkpt lat="41.656631" lon="-4.735762">
        <ele>700.916</ele>
        <time>2017-09-19T08:31:23Z</time>
      </trkpt>
      <trkpt lat="41.655883" lon="-4.736113">
        <ele>700.908</ele>
        <time>2017-09-19T08:31:41Z</time>
      </trkpt>
      <trkpt lat="41.655144" lon="-4.736521">
        <ele>700.485</ele>
        <time>2017-09-19T08:31:58Z</time>
      </trkpt>
      <trkpt lat="41.654320" lon="-4.737001">
        <ele>699.533</ele>
        <time>2017-09-19T08:32:18Z</time>
      </trkpt>
      <trkpt lat="41.653960" lon="-4.737200">
        <ele>699.053</ele>
        <time>2017-09-19T08:32:27Z</time>
      </trkpt>
      <trkpt lat="41.653917" lon="-4.737206">
        <ele>699.047</ele>
        <time>2017-09-19T08:32:28Z</time>
      </trkpt>
      <trkpt lat="41.653873" lon="-4.737203">
        <ele>699.055</ele>
        <time>2017-09-19T08:32:29Z</time>
      </trkpt>
      <trkpt lat="41.653831" lon="-4.737193">
        <ele>699.064</ele>
        <time>2017-09-19T08:32:30Z</time>
      </trkpt>
      <trkpt lat="41.653792" lon="-4.737177">
        <ele>698.514</ele>
        <time>2017-09-19T08:32:31Z</time>
      </trkpt>
      <trkpt lat="41.653596" lon="-4.737094">
        <ele>698.046</ele>
        <time>2017-09-19T08:32:37Z</time>
      </trkpt>
      <trkpt lat="41.653458" lon="-4.737102">
        <ele>699.591</ele>
        <time>2017-09-19T08:32:41Z</time>
      </trkpt>
      <trkpt lat="41.653437" lon="-4.737126">
        <ele>699.581</ele>
        <time>2017-09-19T08:32:42Z</time>
      </trkpt>
      <trkpt lat="41.653421" lon="-4.737167">
        <ele>699.919</ele>
        <time>2017-09-19T08:32:43Z</time>
      </trkpt>
      <trkpt lat="41.653363" lon="-4.737355">
        <ele>699.908</ele>
        <time>2017-09-19T08:32:47Z</time>
      </trkpt>
      <trkpt lat="41.653316" lon="-4.737447">
        <ele>699.970</ele>
        <time>2017-09-19T08:32:49Z</time>
      </trkpt>
      <trkpt lat="41.653259" lon="-4.737532">
        <ele>700.458</ele>
        <time>2017-09-19T08:32:51Z</time>
      </trkpt>
      <trkpt lat="41.653226" lon="-4.737569">
        <ele>700.448</ele>
        <time>2017-09-19T08:32:52Z</time>
      </trkpt>
      <trkpt lat="41.653192" lon="-4.737603">
        <ele>700.962</ele>
        <time>2017-09-19T08:32:53Z</time>
      </trkpt>
      <trkpt lat="41.652581" lon="-4.738018">
        <ele>700.420</ele>
        <time>2017-09-19T08:33:08Z</time>
      </trkpt>
      <trkpt lat="41.651863" lon="-4.738489">
        <ele>699.579</ele>
        <time>2017-09-19T08:33:25Z</time>
      </trkpt>
      <trkpt lat="41.651226" lon="-4.738840">
        <ele>699.099</ele>
        <time>2017-09-19T08:33:40Z</time>
      </trkpt>
      <trkpt lat="41.651183" lon="-4.738844">
        <ele>699.011</ele>
        <time>2017-09-19T08:33:41Z</time>
      </trkpt>
      <trkpt lat="41.651144" lon="-4.738842">
        <ele>699.576</ele>
        <time>2017-09-19T08:33:42Z</time>
      </trkpt>
      <trkpt lat="41.650896" lon="-4.738733">
        <ele>699.590</ele>
        <time>2017-09-19T08:33:50Z</time>
      </trkpt>
      <trkpt lat="41.650864" lon="-4.738738">
        <ele>699.919</ele>
        <time>2017-09-19T08:33:51Z</time>
      </trkpt>
      <trkpt lat="41.650836" lon="-4.738759">
        <ele>700.408</ele>
        <time>2017-09-19T08:33:52Z</time>
      </trkpt>
      <trkpt lat="41.650688" lon="-4.738851">
        <ele>700.928</ele>
        <time>2017-09-19T08:33:57Z</time>
      </trkpt>
      <trkpt lat="41.650672" lon="-4.738888">
        <ele>701.466</ele>
        <time>2017-09-19T08:33:58Z</time>
      </trkpt>
      <trkpt lat="41.650665" lon="-4.738918">
        <ele>701.456</ele>
        <time>2017-09-19T08:33:59Z</time>
      </trkpt>
      <trkpt lat="41.650540" lon="-4.739209">
        <ele>703.860</ele>
        <time>2017-09-19T08:34:09Z</time>
      </trkpt>
      <trkpt lat="41.650511" lon="-4.739211">
        <ele>704.378</ele>
        <time>2017-09-19T08:34:18Z</time>
      </trkpt>
      <trkpt lat="41.650498" lon="-4.739223">
        <ele>704.327</ele>
        <time>2017-09-19T08:34:19Z</time>
      </trkpt>
      <trkpt lat="41.650483" lon="-4.739234">
        <ele>704.337</ele>
        <time>2017-09-19T08:34:20Z</time>
      </trkpt>
      <trkpt lat="41.650465" lon="-4.739236">
        <ele>704.729</ele>
        <time>2017-09-19T08:34:21Z</time>
      </trkpt>
      <trkpt lat="41.650444" lon="-4.739228">
        <ele>704.328</ele>
        <time>2017-09-19T08:34:22Z</time>
      </trkpt>
      <trkpt lat="41.650430" lon="-4.739210">
        <ele>704.389</ele>
        <time>2017-09-19T08:34:23Z</time>
      </trkpt>
      <trkpt lat="41.650416" lon="-4.739186">
        <ele>704.317</ele>
        <time>2017-09-19T08:34:24Z</time>
      </trkpt>
      <trkpt lat="41.650400" lon="-4.739164">
        <ele>704.308</ele>
        <time>2017-09-19T08:34:25Z</time>
      </trkpt>
      <trkpt lat="41.650384" lon="-4.739145">
        <ele>704.353</ele>
        <time>2017-09-19T08:34:26Z</time>
      </trkpt>
      <trkpt lat="41.650364" lon="-4.739131">
        <ele>704.321</ele>
        <time>2017-09-19T08:34:27Z</time>
      </trkpt>
      <trkpt lat="41.650342" lon="-4.739126">
        <ele>703.841</ele>
        <time>2017-09-19T08:34:28Z</time>
      </trkpt>
      <trkpt lat="41.650317" lon="-4.739126">
        <ele>703.895</ele>
        <time>2017-09-19T08:34:29Z</time>
      </trkpt>
      <trkpt lat="41.650289" lon="-4.739128">
        <ele>703.353</ele>
        <time>2017-09-19T08:34:30Z</time>
      </trkpt>
      <trkpt lat="41.650006" lon="-4.739310">
        <ele>710.572</ele>
        <time>2017-09-19T08:34:41Z</time>
      </trkpt>
      <trkpt lat="41.649687" lon="-4.739501">
        <ele>711.922</ele>
        <time>2017-09-19T08:34:52Z</time>
      </trkpt>
      <trkpt lat="41.649549" lon="-4.739770">
        <ele>711.014</ele>
        <time>2017-09-19T08:35:03Z</time>
      </trkpt>
      <trkpt lat="41.649259" lon="-4.739997">
        <ele>708.699</ele>
        <time>2017-09-19T08:35:13Z</time>
      </trkpt>
      <trkpt lat="41.648697" lon="-4.740332">
        <ele>706.207</ele>
        <time>2017-09-19T08:35:29Z</time>
      </trkpt>
      <trkpt lat="41.648580" lon="-4.740420">
        <ele>705.227</ele>
        <time>2017-09-19T08:35:36Z</time>
      </trkpt>
      <trkpt lat="41.648568" lon="-4.740415">
        <ele>705.208</ele>
        <time>2017-09-19T08:35:37Z</time>
      </trkpt>
      <trkpt lat="41.648559" lon="-4.740404">
        <ele>704.730</ele>
        <time>2017-09-19T08:35:38Z</time>
      </trkpt>
      <trkpt lat="41.648516" lon="-4.740325">
        <ele>703.368</ele>
        <time>2017-09-19T08:35:45Z</time>
      </trkpt>
      <trkpt lat="41.648497" lon="-4.740327">
        <ele>702.848</ele>
        <time>2017-09-19T08:35:46Z</time>
      </trkpt>
      <trkpt lat="41.648466" lon="-4.740343">
        <ele>702.352</ele>
        <time>2017-09-19T08:35:48Z</time>
      </trkpt>
      <trkpt lat="41.648150" lon="-4.740398">
        <ele>701.960</ele>
        <time>2017-09-19T08:36:00Z</time>
      </trkpt>
      <trkpt lat="41.647928" lon="-4.740342">
        <ele>701.989</ele>
        <time>2017-09-19T08:36:10Z</time>
      </trkpt>
      <trkpt lat="41.647874" lon="-4.740339">
        <ele>700.969</ele>
        <time>2017-09-19T08:36:24Z</time>
      </trkpt>
      <trkpt lat="41.647876" lon="-4.740351">
        <ele>700.471</ele>
        <time>2017-09-19T08:36:49Z</time>
      </trkpt>
      <trkpt lat="41.647861" lon="-4.740363">
        <ele>700.499</ele>
        <time>2017-09-19T08:36:50Z</time>
      </trkpt>
      <trkpt lat="41.647842" lon="-4.740380">
        <ele>700.407</ele>
        <time>2017-09-19T08:36:51Z</time>
      </trkpt>
      <trkpt lat="41.647825" lon="-4.740404">
        <ele>700.927</ele>
        <time>2017-09-19T08:36:52Z</time>
      </trkpt>
      <trkpt lat="41.647803" lon="-4.740438">
        <ele>700.908</ele>
        <time>2017-09-19T08:36:53Z</time>
      </trkpt>
      <trkpt lat="41.647716" lon="-4.740557">
        <ele>700.920</ele>
        <time>2017-09-19T08:36:57Z</time>
      </trkpt>
      <trkpt lat="41.647707" lon="-4.740596">
        <ele>700.958</ele>
        <time>2017-09-19T08:36:58Z</time>
      </trkpt>
      <trkpt lat="41.647709" lon="-4.740635">
        <ele>700.918</ele>
        <time>2017-09-19T08:36:59Z</time>
      </trkpt>
      <trkpt lat="41.647714" lon="-4.740675">
        <ele>700.922</ele>
        <time>2017-09-19T08:37:00Z</time>
      </trkpt>
      <trkpt lat="41.647716" lon="-4.740718">
        <ele>700.930</ele>
        <time>2017-09-19T08:37:01Z</time>
      </trkpt>
      <trkpt lat="41.647713" lon="-4.740760">
        <ele>700.419</ele>
        <time>2017-09-19T08:37:02Z</time>
      </trkpt>
      <trkpt lat="41.647702" lon="-4.740800">
        <ele>700.479</ele>
        <time>2017-09-19T08:37:03Z</time>
      </trkpt>
      <trkpt lat="41.647657" lon="-4.740880">
        <ele>700.481</ele>
        <time>2017-09-19T08:37:05Z</time>
      </trkpt>
      <trkpt lat="41.647622" lon="-4.740920">
        <ele>700.413</ele>
        <time>2017-09-19T08:37:06Z</time>
      </trkpt>
      <trkpt lat="41.647597" lon="-4.740942">
        <ele>700.443</ele>
        <time>2017-09-19T08:37:07Z</time>
      </trkpt>
      <trkpt lat="41.647559" lon="-4.740968">
        <ele>700.407</ele>
        <time>2017-09-19T08:37:08Z</time>
      </trkpt>
      <trkpt lat="41.647520" lon="-4.740991">
        <ele>700.408</ele>
        <time>2017-09-19T08:37:09Z</time>
      </trkpt>
      <trkpt lat="41.647409" lon="-4.741060">
        <ele>700.482</ele>
        <time>2017-09-19T08:37:12Z</time>
      </trkpt>
      <trkpt lat="41.646786" lon="-4.741471">
        <ele>699.940</ele>
        <time>2017-09-19T08:37:28Z</time>
      </trkpt>
      <trkpt lat="41.646062" lon="-4.741965">
        <ele>699.530</ele>
        <time>2017-09-19T08:37:44Z</time>
      </trkpt>
      <trkpt lat="41.645969" lon="-4.742017">
        <ele>699.534</ele>
        <time>2017-09-19T08:37:46Z</time>
      </trkpt>
      <trkpt lat="41.645924" lon="-4.742047">
        <ele>699.562</ele>
        <time>2017-09-19T08:37:47Z</time>
      </trkpt>
      <trkpt lat="41.645145" lon="-4.742506">
        <ele>699.981</ele>
        <time>2017-09-19T08:38:04Z</time>
      </trkpt>
      <trkpt lat="41.644913" lon="-4.742649">
        <ele>699.981</ele>
        <time>2017-09-19T08:38:14Z</time>
      </trkpt>
      <trkpt lat="41.644903" lon="-4.742623">
        <ele>699.923</ele>
        <time>2017-09-19T08:38:44Z</time>
      </trkpt>
      <trkpt lat="41.644885" lon="-4.742656">
        <ele>700.445</ele>
        <time>2017-09-19T08:38:54Z</time>
      </trkpt>
      <trkpt lat="41.644878" lon="-4.742675">
        <ele>700.947</ele>
        <time>2017-09-19T08:38:55Z</time>
      </trkpt>
      <trkpt lat="41.644873" lon="-4.742700">
        <ele>700.911</ele>
        <time>2017-09-19T08:38:56Z</time>
      </trkpt>
      <trkpt lat="41.644871" lon="-4.742726">
        <ele>701.408</ele>
        <time>2017-09-19T08:38:57Z</time>
      </trkpt>
      <trkpt lat="41.644876" lon="-4.742752">
        <ele>701.445</ele>
        <time>2017-09-19T08:38:58Z</time>
      </trkpt>
      <trkpt lat="41.644899" lon="-4.742879">
        <ele>700.973</ele>
        <time>2017-09-19T08:39:02Z</time>
      </trkpt>
      <trkpt lat="41.644878" lon="-4.742913">
        <ele>700.983</ele>
        <time>2017-09-19T08:39:03Z</time>
      </trkpt>
      <trkpt lat="41.644854" lon="-4.742939">
        <ele>700.447</ele>
        <time>2017-09-19T08:39:04Z</time>
      </trkpt>
      <trkpt lat="41.644828" lon="-4.742969">
        <ele>700.445</ele>
        <time>2017-09-19T08:39:05Z</time>
      </trkpt>
      <trkpt lat="41.644805" lon="-4.743001">
        <ele>700.434</ele>
        <time>2017-09-19T08:39:06Z</time>
      </trkpt>
      <trkpt lat="41.644786" lon="-4.743036">
        <ele>700.454</ele>
        <time>2017-09-19T08:39:07Z</time>
      </trkpt>
      <trkpt lat="41.644769" lon="-4.743075">
        <ele>699.916</ele>
        <time>2017-09-19T08:39:08Z</time>
      </trkpt>
      <trkpt lat="41.644731" lon="-4.743327">
        <ele>699.965</ele>
        <time>2017-09-19T08:39:16Z</time>
      </trkpt>
      <trkpt lat="41.644717" lon="-4.743347">
        <ele>699.968</ele>
        <time>2017-09-19T08:39:17Z</time>
      </trkpt>
      <trkpt lat="41.644698" lon="-4.743361">
        <ele>699.914</ele>
        <time>2017-09-19T08:39:18Z</time>
      </trkpt>
      <trkpt lat="41.644676" lon="-4.743370">
        <ele>699.908</ele>
        <time>2017-09-19T08:39:19Z</time>
      </trkpt>
      <trkpt lat="41.644652" lon="-4.743378">
        <ele>699.977</ele>
        <time>2017-09-19T08:39:20Z</time>
      </trkpt>
      <trkpt lat="41.644629" lon="-4.743391">
        <ele>699.985</ele>
        <time>2017-09-19T08:39:21Z</time>
      </trkpt>
      <trkpt lat="41.644606" lon="-4.743410">
        <ele>699.925</ele>
        <time>2017-09-19T08:39:22Z</time>
      </trkpt>
      <trkpt lat="41.644581" lon="-4.743428">
        <ele>699.989</ele>
        <time>2017-09-19T08:39:23Z</time>
      </trkpt>
      <trkpt lat="41.644549" lon="-4.743438">
        <ele>699.927</ele>
        <time>2017-09-19T08:39:24Z</time>
      </trkpt>
      <trkpt lat="41.644515" lon="-4.743431">
        <ele>699.976</ele>
        <time>2017-09-19T08:39:25Z</time>
      </trkpt>
      <trkpt lat="41.644485" lon="-4.743411">
        <ele>699.946</ele>
        <time>2017-09-19T08:39:26Z</time>
      </trkpt>
      <trkpt lat="41.644456" lon="-4.743384">
        <ele>699.938</ele>
        <time>2017-09-19T08:39:27Z</time>
      </trkpt>
      <trkpt lat="41.644092" lon="-4.743327">
        <ele>699.552</ele>
        <time>2017-09-19T08:39:37Z</time>
      </trkpt>
      <trkpt lat="41.644056" lon="-4.743347">
        <ele>699.553</ele>
        <time>2017-09-19T08:39:38Z</time>
      </trkpt>
      <trkpt lat="41.643378" lon="-4.743752">
        <ele>698.008</ele>
        <time>2017-09-19T08:39:54Z</time>
      </trkpt>
      <trkpt lat="41.642585" lon="-4.744155">
        <ele>697.508</ele>
        <time>2017-09-19T08:40:11Z</time>
      </trkpt>
      <trkpt lat="41.642496" lon="-4.744204">
        <ele>698.076</ele>
        <time>2017-09-19T08:40:13Z</time>
      </trkpt>
      <trkpt lat="41.642441" lon="-4.744224">
        <ele>698.074</ele>
        <time>2017-09-19T08:40:14Z</time>
      </trkpt>
      <trkpt lat="41.641774" lon="-4.744473">
        <ele>698.044</ele>
        <time>2017-09-19T08:40:30Z</time>
      </trkpt>
      <trkpt lat="41.641594" lon="-4.744780">
        <ele>698.088</ele>
        <time>2017-09-19T08:40:39Z</time>
      </trkpt>
      <trkpt lat="41.641588" lon="-4.744799">
        <ele>698.086</ele>
        <time>2017-09-19T08:40:40Z</time>
      </trkpt>
      <trkpt lat="41.641501" lon="-4.744859">
        <ele>699.035</ele>
        <time>2017-09-19T08:40:50Z</time>
      </trkpt>
      <trkpt lat="41.641376" lon="-4.744887">
        <ele>699.045</ele>
        <time>2017-09-19T08:40:56Z</time>
      </trkpt>
      <trkpt lat="41.641351" lon="-4.744866">
        <ele>699.027</ele>
        <time>2017-09-19T08:40:57Z</time>
      </trkpt>
      <trkpt lat="41.641328" lon="-4.744831">
        <ele>699.033</ele>
        <time>2017-09-19T08:40:58Z</time>
      </trkpt>
      <trkpt lat="41.641305" lon="-4.744793">
        <ele>699.023</ele>
        <time>2017-09-19T08:40:59Z</time>
      </trkpt>
      <trkpt lat="41.641283" lon="-4.744767">
        <ele>699.015</ele>
        <time>2017-09-19T08:41:00Z</time>
      </trkpt>
      <trkpt lat="41.641252" lon="-4.744738">
        <ele>699.008</ele>
        <time>2017-09-19T08:41:01Z</time>
      </trkpt>
      <trkpt lat="41.641214" lon="-4.744713">
        <ele>699.014</ele>
        <time>2017-09-19T08:41:02Z</time>
      </trkpt>
      <trkpt lat="41.641177" lon="-4.744699">
        <ele>699.062</ele>
        <time>2017-09-19T08:41:03Z</time>
      </trkpt>
      <trkpt lat="41.641142" lon="-4.744696">
        <ele>699.022</ele>
        <time>2017-09-19T08:41:04Z</time>
      </trkpt>
      <trkpt lat="41.641110" lon="-4.744699">
        <ele>699.036</ele>
        <time>2017-09-19T08:41:05Z</time>
      </trkpt>
      <trkpt lat="41.640646" lon="-4.744883">
        <ele>699.594</ele>
        <time>2017-09-19T08:41:17Z</time>
      </trkpt>
      <trkpt lat="41.639903" lon="-4.745336">
        <ele>699.023</ele>
        <time>2017-09-19T08:41:36Z</time>
      </trkpt>
      <trkpt lat="41.639828" lon="-4.745384">
        <ele>699.093</ele>
        <time>2017-09-19T08:41:38Z</time>
      </trkpt>
      <trkpt lat="41.639794" lon="-4.745412">
        <ele>699.095</ele>
        <time>2017-09-19T08:41:39Z</time>
      </trkpt>
      <trkpt lat="41.639762" lon="-4.745448">
        <ele>699.083</ele>
        <time>2017-09-19T08:41:40Z</time>
      </trkpt>
      <trkpt lat="41.639734" lon="-4.745485">
        <ele>698.525</ele>
        <time>2017-09-19T08:41:41Z</time>
      </trkpt>
      <trkpt lat="41.639707" lon="-4.745527">
        <ele>698.517</ele>
        <time>2017-09-19T08:41:42Z</time>
      </trkpt>
      <trkpt lat="41.639682" lon="-4.745571">
        <ele>698.508</ele>
        <time>2017-09-19T08:41:43Z</time>
      </trkpt>
      <trkpt lat="41.639431" lon="-4.746038">
        <ele>701.419</ele>
        <time>2017-09-19T08:41:57Z</time>
      </trkpt>
      <trkpt lat="41.639403" lon="-4.746069">
        <ele>700.997</ele>
        <time>2017-09-19T08:42:11Z</time>
      </trkpt>
      <trkpt lat="41.639389" lon="-4.746090">
        <ele>699.597</ele>
        <time>2017-09-19T08:42:34Z</time>
      </trkpt>
      <trkpt lat="41.639381" lon="-4.746102">
        <ele>699.541</ele>
        <time>2017-09-19T08:42:35Z</time>
      </trkpt>
      <trkpt lat="41.639369" lon="-4.746106">
        <ele>699.999</ele>
        <time>2017-09-19T08:42:36Z</time>
      </trkpt>
      <trkpt lat="41.639351" lon="-4.746101">
        <ele>699.968</ele>
        <time>2017-09-19T08:42:37Z</time>
      </trkpt>
      <trkpt lat="41.639335" lon="-4.746087">
        <ele>700.418</ele>
        <time>2017-09-19T08:42:38Z</time>
      </trkpt>
      <trkpt lat="41.639316" lon="-4.746072">
        <ele>700.470</ele>
        <time>2017-09-19T08:42:39Z</time>
      </trkpt>
      <trkpt lat="41.639297" lon="-4.746066">
        <ele>700.438</ele>
        <time>2017-09-19T08:42:40Z</time>
      </trkpt>
      <trkpt lat="41.639273" lon="-4.746062">
        <ele>700.470</ele>
        <time>2017-09-19T08:42:41Z</time>
      </trkpt>
      <trkpt lat="41.639248" lon="-4.746059">
        <ele>700.417</ele>
        <time>2017-09-19T08:42:42Z</time>
      </trkpt>
      <trkpt lat="41.639221" lon="-4.746057">
        <ele>700.408</ele>
        <time>2017-09-19T08:42:43Z</time>
      </trkpt>
      <trkpt lat="41.639159" lon="-4.746019">
        <ele>699.544</ele>
        <time>2017-09-19T08:42:45Z</time>
      </trkpt>
      <trkpt lat="41.639100" lon="-4.745943">
        <ele>699.532</ele>
        <time>2017-09-19T08:42:47Z</time>
      </trkpt>
      <trkpt lat="41.639060" lon="-4.745919">
        <ele>699.582</ele>
        <time>2017-09-19T08:42:48Z</time>
      </trkpt>
      <trkpt lat="41.639025" lon="-4.745923">
        <ele>699.536</ele>
        <time>2017-09-19T08:42:49Z</time>
      </trkpt>
      <trkpt lat="41.638994" lon="-4.745940">
        <ele>699.094</ele>
        <time>2017-09-19T08:42:50Z</time>
      </trkpt>
      <trkpt lat="41.638963" lon="-4.745961">
        <ele>699.033</ele>
        <time>2017-09-19T08:42:51Z</time>
      </trkpt>
      <trkpt lat="41.638932" lon="-4.745982">
        <ele>699.013</ele>
        <time>2017-09-19T08:42:52Z</time>
      </trkpt>
      <trkpt lat="41.638751" lon="-4.746079">
        <ele>699.035</ele>
        <time>2017-09-19T08:42:59Z</time>
      </trkpt>
      <trkpt lat="41.638681" lon="-4.746071">
        <ele>699.578</ele>
        <time>2017-09-19T08:43:02Z</time>
      </trkpt>
      <trkpt lat="41.638649" lon="-4.746089">
        <ele>699.033</ele>
        <time>2017-09-19T08:43:03Z</time>
      </trkpt>
      <trkpt lat="41.638039" lon="-4.746460">
        <ele>699.926</ele>
        <time>2017-09-19T08:43:18Z</time>
      </trkpt>
      <trkpt lat="41.637174" lon="-4.746992">
        <ele>699.908</ele>
        <time>2017-09-19T08:43:36Z</time>
      </trkpt>
      <trkpt lat="41.637135" lon="-4.747015">
        <ele>699.968</ele>
        <time>2017-09-19T08:43:37Z</time>
      </trkpt>
      <trkpt lat="41.637092" lon="-4.747040">
        <ele>700.416</ele>
        <time>2017-09-19T08:43:38Z</time>
      </trkpt>
      <trkpt lat="41.636440" lon="-4.747612">
        <ele>700.936</ele>
        <time>2017-09-19T08:43:55Z</time>
      </trkpt>
      <trkpt lat="41.635814" lon="-4.748232">
        <ele>700.920</ele>
        <time>2017-09-19T08:44:12Z</time>
      </trkpt>
      <trkpt lat="41.635182" lon="-4.748849">
        <ele>701.438</ele>
        <time>2017-09-19T08:44:28Z</time>
      </trkpt>
      <trkpt lat="41.634529" lon="-4.749414">
        <ele>699.047</ele>
        <time>2017-09-19T08:44:45Z</time>
      </trkpt>
      <trkpt lat="41.634363" lon="-4.749534">
        <ele>699.537</ele>
        <time>2017-09-19T08:44:49Z</time>
      </trkpt>
      <trkpt lat="41.634327" lon="-4.749575">
        <ele>699.089</ele>
        <time>2017-09-19T08:44:50Z</time>
      </trkpt>
      <trkpt lat="41.634294" lon="-4.749624">
        <ele>699.085</ele>
        <time>2017-09-19T08:44:51Z</time>
      </trkpt>
      <trkpt lat="41.634269" lon="-4.749677">
        <ele>699.089</ele>
        <time>2017-09-19T08:44:52Z</time>
      </trkpt>
      <trkpt lat="41.634246" lon="-4.749738">
        <ele>699.017</ele>
        <time>2017-09-19T08:44:53Z</time>
      </trkpt>
      <trkpt lat="41.634228" lon="-4.749798">
        <ele>699.008</ele>
        <time>2017-09-19T08:44:54Z</time>
      </trkpt>
      <trkpt lat="41.634211" lon="-4.749845">
        <ele>699.099</ele>
        <time>2017-09-19T08:44:55Z</time>
      </trkpt>
      <trkpt lat="41.634187" lon="-4.749896">
        <ele>699.557</ele>
        <time>2017-09-19T08:44:56Z</time>
      </trkpt>
      <trkpt lat="41.634158" lon="-4.749944">
        <ele>699.547</ele>
        <time>2017-09-19T08:44:57Z</time>
      </trkpt>
      <trkpt lat="41.634125" lon="-4.749986">
        <ele>699.531</ele>
        <time>2017-09-19T08:44:58Z</time>
      </trkpt>
      <trkpt lat="41.634091" lon="-4.750021">
        <ele>699.519</ele>
        <time>2017-09-19T08:44:59Z</time>
      </trkpt>
      <trkpt lat="41.634052" lon="-4.750052">
        <ele>699.998</ele>
        <time>2017-09-19T08:45:00Z</time>
      </trkpt>
      <trkpt lat="41.634010" lon="-4.750076">
        <ele>699.968</ele>
        <time>2017-09-19T08:45:01Z</time>
      </trkpt>
      <trkpt lat="41.633966" lon="-4.750093">
        <ele>699.990</ele>
        <time>2017-09-19T08:45:02Z</time>
      </trkpt>
      <trkpt lat="41.633919" lon="-4.750100">
        <ele>699.964</ele>
        <time>2017-09-19T08:45:03Z</time>
      </trkpt>
      <trkpt lat="41.633874" lon="-4.750101">
        <ele>699.906</ele>
        <time>2017-09-19T08:45:04Z</time>
      </trkpt>
      <trkpt lat="41.633829" lon="-4.750097">
        <ele>700.416</ele>
        <time>2017-09-19T08:45:05Z</time>
      </trkpt>
      <trkpt lat="41.633788" lon="-4.750090">
        <ele>700.408</ele>
        <time>2017-09-19T08:45:06Z</time>
      </trkpt>
      <trkpt lat="41.633748" lon="-4.750085">
        <ele>700.467</ele>
        <time>2017-09-19T08:45:07Z</time>
      </trkpt>
      <trkpt lat="41.633708" lon="-4.750091">
        <ele>700.425</ele>
        <time>2017-09-19T08:45:08Z</time>
      </trkpt>
      <trkpt lat="41.633670" lon="-4.750115">
        <ele>699.935</ele>
        <time>2017-09-19T08:45:09Z</time>
      </trkpt>
      <trkpt lat="41.633641" lon="-4.750144">
        <ele>699.949</ele>
        <time>2017-09-19T08:45:10Z</time>
      </trkpt>
      <trkpt lat="41.633611" lon="-4.750179">
        <ele>700.417</ele>
        <time>2017-09-19T08:45:11Z</time>
      </trkpt>
      <trkpt lat="41.633119" lon="-4.750836">
        <ele>701.926</ele>
        <time>2017-09-19T08:45:26Z</time>
      </trkpt>
      <trkpt lat="41.632433" lon="-4.751609">
        <ele>704.316</ele>
        <time>2017-09-19T08:45:46Z</time>
      </trkpt>
      <trkpt lat="41.631801" lon="-4.752246">
        <ele>702.848</ele>
        <time>2017-09-19T08:46:04Z</time>
      </trkpt>
      <trkpt lat="41.631112" lon="-4.752929">
        <ele>702.888</ele>
        <time>2017-09-19T08:46:23Z</time>
      </trkpt>
      <trkpt lat="41.630436" lon="-4.753606">
        <ele>702.824</ele>
        <time>2017-09-19T08:46:43Z</time>
      </trkpt>
      <trkpt lat="41.629767" lon="-4.754314">
        <ele>702.326</ele>
        <time>2017-09-19T08:47:04Z</time>
      </trkpt>
      <trkpt lat="41.629540" lon="-4.754609">
        <ele>702.308</ele>
        <time>2017-09-19T08:47:12Z</time>
      </trkpt>
      <trkpt lat="41.628973" lon="-4.755528">
        <ele>702.849</ele>
        <time>2017-09-19T08:47:33Z</time>
      </trkpt>
      <trkpt lat="41.628603" lon="-4.756376">
        <ele>702.317</ele>
        <time>2017-09-19T08:47:49Z</time>
      </trkpt>
      <trkpt lat="41.628221" lon="-4.757448">
        <ele>702.857</ele>
        <time>2017-09-19T08:48:05Z</time>
      </trkpt>
      <trkpt lat="41.628002" lon="-4.758377">
        <ele>701.461</ele>
        <time>2017-09-19T08:48:19Z</time>
      </trkpt>
      <trkpt lat="41.628072" lon="-4.758824">
        <ele>702.359</ele>
        <time>2017-09-19T08:48:29Z</time>
      </trkpt>
      <trkpt lat="41.628060" lon="-4.758881">
        <ele>702.348</ele>
        <time>2017-09-19T08:48:45Z</time>
      </trkpt>
      <trkpt lat="41.627990" lon="-4.759081">
        <ele>703.368</ele>
        <time>2017-09-19T08:48:50Z</time>
      </trkpt>
      <trkpt lat="41.627971" lon="-4.759131">
        <ele>703.350</ele>
        <time>2017-09-19T08:48:51Z</time>
      </trkpt>
      <trkpt lat="41.627877" lon="-4.759391">
        <ele>702.854</ele>
        <time>2017-09-19T08:48:56Z</time>
      </trkpt>
      <trkpt lat="41.627844" lon="-4.759432">
        <ele>702.856</ele>
        <time>2017-09-19T08:48:57Z</time>
      </trkpt>
      <trkpt lat="41.627540" lon="-4.759702">
        <ele>702.311</ele>
        <time>2017-09-19T08:49:09Z</time>
      </trkpt>
      <trkpt lat="41.627526" lon="-4.759702">
        <ele>702.308</ele>
        <time>2017-09-19T08:49:25Z</time>
      </trkpt>
      <trkpt lat="41.627488" lon="-4.759680">
        <ele>701.986</ele>
        <time>2017-09-19T08:49:30Z</time>
      </trkpt>
      <trkpt lat="41.627475" lon="-4.759671">
        <ele>701.924</ele>
        <time>2017-09-19T08:49:31Z</time>
      </trkpt>
      <trkpt lat="41.627454" lon="-4.759661">
        <ele>701.964</ele>
        <time>2017-09-19T08:49:32Z</time>
      </trkpt>
      <trkpt lat="41.627426" lon="-4.759646">
        <ele>701.938</ele>
        <time>2017-09-19T08:49:33Z</time>
      </trkpt>
      <trkpt lat="41.627400" lon="-4.759623">
        <ele>701.986</ele>
        <time>2017-09-19T08:49:34Z</time>
      </trkpt>
      <trkpt lat="41.627372" lon="-4.759597">
        <ele>701.935</ele>
        <time>2017-09-19T08:49:35Z</time>
      </trkpt>
      <trkpt lat="41.627228" lon="-4.759513">
        <ele>701.995</ele>
        <time>2017-09-19T08:49:40Z</time>
      </trkpt>
      <trkpt lat="41.627191" lon="-4.759310">
        <ele>702.357</ele>
        <time>2017-09-19T08:49:45Z</time>
      </trkpt>
      <trkpt lat="41.627189" lon="-4.759260">
        <ele>702.361</ele>
        <time>2017-09-19T08:49:46Z</time>
      </trkpt>
      <trkpt lat="41.627079" lon="-4.758622">
        <ele>702.321</ele>
        <time>2017-09-19T08:49:59Z</time>
      </trkpt>
      <trkpt lat="41.627042" lon="-4.758523">
        <ele>702.313</ele>
        <time>2017-09-19T08:50:01Z</time>
      </trkpt>
      <trkpt lat="41.626961" lon="-4.758379">
        <ele>701.908</ele>
        <time>2017-09-19T08:50:04Z</time>
      </trkpt>
      <trkpt lat="41.626337" lon="-4.757614">
        <ele>699.937</ele>
        <time>2017-09-19T08:50:21Z</time>
      </trkpt>
      <trkpt lat="41.625705" lon="-4.756825">
        <ele>699.515</ele>
        <time>2017-09-19T08:50:38Z</time>
      </trkpt>
      <trkpt lat="41.625304" lon="-4.756366">
        <ele>699.035</ele>
        <time>2017-09-19T08:50:49Z</time>
      </trkpt>
      <trkpt lat="41.625161" lon="-4.756310">
        <ele>699.049</ele>
        <time>2017-09-19T08:50:53Z</time>
      </trkpt>
      <trkpt lat="41.625045" lon="-4.756283">
        <ele>699.037</ele>
        <time>2017-09-19T08:50:57Z</time>
      </trkpt>
      <trkpt lat="41.625027" lon="-4.756245">
        <ele>699.066</ele>
        <time>2017-09-19T08:50:58Z</time>
      </trkpt>
      <trkpt lat="41.625016" lon="-4.756199">
        <ele>699.076</ele>
        <time>2017-09-19T08:50:59Z</time>
      </trkpt>
      <trkpt lat="41.625004" lon="-4.756151">
        <ele>699.078</ele>
        <time>2017-09-19T08:51:00Z</time>
      </trkpt>
      <trkpt lat="41.624993" lon="-4.756105">
        <ele>699.081</ele>
        <time>2017-09-19T08:51:01Z</time>
      </trkpt>
      <trkpt lat="41.624918" lon="-4.755928">
        <ele>699.561</ele>
        <time>2017-09-19T08:51:05Z</time>
      </trkpt>
      <trkpt lat="41.624529" lon="-4.755443">
        <ele>699.017</ele>
        <time>2017-09-19T08:51:17Z</time>
      </trkpt>
      <trkpt lat="41.623987" lon="-4.754700">
        <ele>698.008</ele>
        <time>2017-09-19T08:51:32Z</time>
      </trkpt>
      <trkpt lat="41.623535" lon="-4.753877">
        <ele>697.539</ele>
        <time>2017-09-19T08:51:49Z</time>
      </trkpt>
      <trkpt lat="41.623252" lon="-4.753389">
        <ele>697.547</ele>
        <time>2017-09-19T08:52:01Z</time>
      </trkpt>
      <trkpt lat="41.623046" lon="-4.753429">
        <ele>696.617</ele>
        <time>2017-09-19T08:52:08Z</time>
      </trkpt>
      <trkpt lat="41.623025" lon="-4.753417">
        <ele>696.181</ele>
        <time>2017-09-19T08:52:09Z</time>
      </trkpt>
      <trkpt lat="41.623006" lon="-4.753400">
        <ele>696.119</ele>
        <time>2017-09-19T08:52:10Z</time>
      </trkpt>
      <trkpt lat="41.622988" lon="-4.753372">
        <ele>696.138</ele>
        <time>2017-09-19T08:52:11Z</time>
      </trkpt>
      <trkpt lat="41.622976" lon="-4.753340">
        <ele>696.188</ele>
        <time>2017-09-19T08:52:12Z</time>
      </trkpt>
      <trkpt lat="41.622976" lon="-4.753306">
        <ele>696.190</ele>
        <time>2017-09-19T08:52:13Z</time>
      </trkpt>
      <trkpt lat="41.622985" lon="-4.753270">
        <ele>696.195</ele>
        <time>2017-09-19T08:52:14Z</time>
      </trkpt>
      <trkpt lat="41.622997" lon="-4.753231">
        <ele>696.649</ele>
        <time>2017-09-19T08:52:15Z</time>
      </trkpt>
      <trkpt lat="41.623035" lon="-4.752727">
        <ele>696.123</ele>
        <time>2017-09-19T08:52:26Z</time>
      </trkpt>
      <trkpt lat="41.622951" lon="-4.752303">
        <ele>697.008</ele>
        <time>2017-09-19T08:52:37Z</time>
      </trkpt>
      <trkpt lat="41.622817" lon="-4.751753">
        <ele>697.030</ele>
        <time>2017-09-19T08:52:49Z</time>
      </trkpt>
      <trkpt lat="41.622790" lon="-4.751726">
        <ele>697.038</ele>
        <time>2017-09-19T08:52:50Z</time>
      </trkpt>
      <trkpt lat="41.622762" lon="-4.751698">
        <ele>697.028</ele>
        <time>2017-09-19T08:52:51Z</time>
      </trkpt>
      <trkpt lat="41.622737" lon="-4.751665">
        <ele>697.512</ele>
        <time>2017-09-19T08:52:52Z</time>
      </trkpt>
      <trkpt lat="41.622713" lon="-4.751627">
        <ele>697.570</ele>
        <time>2017-09-19T08:52:53Z</time>
      </trkpt>
      <trkpt lat="41.622694" lon="-4.751584">
        <ele>697.579</ele>
        <time>2017-09-19T08:52:54Z</time>
      </trkpt>
      <trkpt lat="41.622680" lon="-4.751539">
        <ele>697.589</ele>
        <time>2017-09-19T08:52:55Z</time>
      </trkpt>
      <trkpt lat="41.622669" lon="-4.751491">
        <ele>697.511</ele>
        <time>2017-09-19T08:52:56Z</time>
      </trkpt>
      <trkpt lat="41.622662" lon="-4.751442">
        <ele>697.591</ele>
        <time>2017-09-19T08:52:57Z</time>
      </trkpt>
      <trkpt lat="41.622655" lon="-4.751390">
        <ele>698.081</ele>
        <time>2017-09-19T08:52:58Z</time>
      </trkpt>
      <trkpt lat="41.622570" lon="-4.750531">
        <ele>697.019</ele>
        <time>2017-09-19T08:53:14Z</time>
      </trkpt>
      <trkpt lat="41.622563" lon="-4.750421">
        <ele>697.008</ele>
        <time>2017-09-19T08:53:16Z</time>
      </trkpt>
      <trkpt lat="41.622483" lon="-4.749549">
        <ele>698.040</ele>
        <time>2017-09-19T08:53:32Z</time>
      </trkpt>
      <trkpt lat="41.622386" lon="-4.748931">
        <ele>698.028</ele>
        <time>2017-09-19T08:53:45Z</time>
      </trkpt>
      <trkpt lat="41.622204" lon="-4.748539">
        <ele>698.048</ele>
        <time>2017-09-19T08:53:56Z</time>
      </trkpt>
      <trkpt lat="41.622085" lon="-4.748454">
        <ele>698.062</ele>
        <time>2017-09-19T08:54:05Z</time>
      </trkpt>
      <trkpt lat="41.621749" lon="-4.748142">
        <ele>698.540</ele>
        <time>2017-09-19T08:54:17Z</time>
      </trkpt>
      <trkpt lat="41.621598" lon="-4.748113">
        <ele>699.069</ele>
        <time>2017-09-19T08:54:21Z</time>
      </trkpt>
      <trkpt lat="41.621560" lon="-4.748120">
        <ele>699.519</ele>
        <time>2017-09-19T08:54:22Z</time>
      </trkpt>
      <trkpt lat="41.621108" lon="-4.748188">
        <ele>701.411</ele>
        <time>2017-09-19T08:54:34Z</time>
      </trkpt>
      <trkpt lat="41.620764" lon="-4.748201">
        <ele>703.386</ele>
        <time>2017-09-19T08:54:44Z</time>
      </trkpt>
      <trkpt lat="41.620123" lon="-4.748276">
        <ele>705.760</ele>
        <time>2017-09-19T08:55:00Z</time>
      </trkpt>
      <trkpt lat="41.619656" lon="-4.748293">
        <ele>705.226</ele>
        <time>2017-09-19T08:55:11Z</time>
      </trkpt>
      <trkpt lat="41.619232" lon="-4.748323">
        <ele>705.208</ele>
        <time>2017-09-19T08:55:24Z</time>
      </trkpt>
      <trkpt lat="41.619198" lon="-4.748354">
        <ele>702.819</ele>
        <time>2017-09-19T08:55:27Z</time>
      </trkpt>
      <trkpt lat="41.619125" lon="-4.748376">
        <ele>702.857</ele>
        <time>2017-09-19T08:55:42Z</time>
      </trkpt>
      <trkpt lat="41.619090" lon="-4.748393">
        <ele>702.897</ele>
        <time>2017-09-19T08:55:46Z</time>
      </trkpt>
      <trkpt lat="41.619068" lon="-4.748393">
        <ele>702.861</ele>
        <time>2017-09-19T08:55:47Z</time>
      </trkpt>
      <trkpt lat="41.619043" lon="-4.748398">
        <ele>702.839</ele>
        <time>2017-09-19T08:55:48Z</time>
      </trkpt>
      <trkpt lat="41.619017" lon="-4.748407">
        <ele>702.348</ele>
        <time>2017-09-19T08:55:49Z</time>
      </trkpt>
      <trkpt lat="41.618988" lon="-4.748410">
        <ele>702.348</ele>
        <time>2017-09-19T08:55:50Z</time>
      </trkpt>
      <trkpt lat="41.618960" lon="-4.748406">
        <ele>701.910</ele>
        <time>2017-09-19T08:55:51Z</time>
      </trkpt>
      <trkpt lat="41.618934" lon="-4.748397">
        <ele>701.959</ele>
        <time>2017-09-19T08:55:52Z</time>
      </trkpt>
      <trkpt lat="41.618909" lon="-4.748382">
        <ele>701.903</ele>
        <time>2017-09-19T08:55:53Z</time>
      </trkpt>
      <trkpt lat="41.618883" lon="-4.748369">
        <ele>702.323</ele>
        <time>2017-09-19T08:55:54Z</time>
      </trkpt>
      <trkpt lat="41.618854" lon="-4.748362">
        <ele>702.308</ele>
        <time>2017-09-19T08:55:55Z</time>
      </trkpt>
      <trkpt lat="41.618826" lon="-4.748361">
        <ele>702.836</ele>
        <time>2017-09-19T08:55:56Z</time>
      </trkpt>
      <trkpt lat="41.618288" lon="-4.748409">
        <ele>703.854</ele>
        <time>2017-09-19T08:56:10Z</time>
      </trkpt>
      <trkpt lat="41.617742" lon="-4.748471">
        <ele>705.244</ele>
        <time>2017-09-19T08:56:24Z</time>
      </trkpt>
      <trkpt lat="41.617391" lon="-4.748474">
        <ele>708.188</ele>
        <time>2017-09-19T08:56:34Z</time>
      </trkpt>
      <trkpt lat="41.616737" lon="-4.748535">
        <ele>710.096</ele>
        <time>2017-09-19T08:56:51Z</time>
      </trkpt>
      <trkpt lat="41.616611" lon="-4.748550">
        <ele>709.595</ele>
        <time>2017-09-19T08:56:57Z</time>
      </trkpt>
      <trkpt lat="41.616591" lon="-4.748552">
        <ele>709.145</ele>
        <time>2017-09-19T08:56:58Z</time>
      </trkpt>
      <trkpt lat="41.616319" lon="-4.748593">
        <ele>709.177</ele>
        <time>2017-09-19T08:57:11Z</time>
      </trkpt>
      <trkpt lat="41.615860" lon="-4.748620">
        <ele>709.548</ele>
        <time>2017-09-19T08:57:23Z</time>
      </trkpt>
      <trkpt lat="41.615331" lon="-4.748677">
        <ele>708.661</ele>
        <time>2017-09-19T08:57:35Z</time>
      </trkpt>
      <trkpt lat="41.615061" lon="-4.748685">
        <ele>706.717</ele>
        <time>2017-09-19T08:57:41Z</time>
      </trkpt>
      <trkpt lat="41.615015" lon="-4.748683">
        <ele>706.708</ele>
        <time>2017-09-19T08:57:42Z</time>
      </trkpt>
      <trkpt lat="41.614975" lon="-4.748680">
        <ele>706.235</ele>
        <time>2017-09-19T08:57:43Z</time>
      </trkpt>
      <trkpt lat="41.614736" lon="-4.748666">
        <ele>705.243</ele>
        <time>2017-09-19T08:57:49Z</time>
      </trkpt>
      <trkpt lat="41.614696" lon="-4.748672">
        <ele>705.263</ele>
        <time>2017-09-19T08:57:50Z</time>
      </trkpt>
      <trkpt lat="41.614653" lon="-4.748687">
        <ele>705.717</ele>
        <time>2017-09-19T08:57:51Z</time>
      </trkpt>
      <trkpt lat="41.614619" lon="-4.748714">
        <ele>705.285</ele>
        <time>2017-09-19T08:57:52Z</time>
      </trkpt>
      <trkpt lat="41.614586" lon="-4.748754">
        <ele>705.294</ele>
        <time>2017-09-19T08:57:53Z</time>
      </trkpt>
      <trkpt lat="41.614555" lon="-4.748800">
        <ele>704.784</ele>
        <time>2017-09-19T08:57:54Z</time>
      </trkpt>
      <trkpt lat="41.614527" lon="-4.748838">
        <ele>704.766</ele>
        <time>2017-09-19T08:57:55Z</time>
      </trkpt>
      <trkpt lat="41.614493" lon="-4.748879">
        <ele>704.396</ele>
        <time>2017-09-19T08:57:56Z</time>
      </trkpt>
      <trkpt lat="41.614168" lon="-4.749125">
        <ele>703.831</ele>
        <time>2017-09-19T08:58:06Z</time>
      </trkpt>
      <trkpt lat="41.614139" lon="-4.749103">
        <ele>703.824</ele>
        <time>2017-09-19T08:58:07Z</time>
      </trkpt>
      <trkpt lat="41.614112" lon="-4.749070">
        <ele>703.808</ele>
        <time>2017-09-19T08:58:08Z</time>
      </trkpt>
      <trkpt lat="41.614032" lon="-4.748994">
        <ele>703.860</ele>
        <time>2017-09-19T08:58:11Z</time>
      </trkpt>
      <trkpt lat="41.614006" lon="-4.749001">
        <ele>703.348</ele>
        <time>2017-09-19T08:58:12Z</time>
      </trkpt>
      <trkpt lat="41.613980" lon="-4.749029">
        <ele>703.398</ele>
        <time>2017-09-19T08:58:13Z</time>
      </trkpt>
      <trkpt lat="41.613458" lon="-4.749629">
        <ele>699.032</ele>
        <time>2017-09-19T08:58:29Z</time>
      </trkpt>
      <trkpt lat="41.613049" lon="-4.750145">
        <ele>697.520</ele>
        <time>2017-09-19T08:58:42Z</time>
      </trkpt>
      <trkpt lat="41.613048" lon="-4.750188">
        <ele>697.089</ele>
        <time>2017-09-19T08:58:43Z</time>
      </trkpt>
      <trkpt lat="41.613049" lon="-4.750221">
        <ele>697.039</ele>
        <time>2017-09-19T08:58:44Z</time>
      </trkpt>
      <trkpt lat="41.613037" lon="-4.750251">
        <ele>697.051</ele>
        <time>2017-09-19T08:58:45Z</time>
      </trkpt>
      <trkpt lat="41.613015" lon="-4.750272">
        <ele>697.523</ele>
        <time>2017-09-19T08:58:46Z</time>
      </trkpt>
      <trkpt lat="41.612992" lon="-4.750284">
        <ele>698.083</ele>
        <time>2017-09-19T08:58:47Z</time>
      </trkpt>
      <trkpt lat="41.612967" lon="-4.750284">
        <ele>698.511</ele>
        <time>2017-09-19T08:58:48Z</time>
      </trkpt>
      <trkpt lat="41.612924" lon="-4.750258">
        <ele>698.008</ele>
        <time>2017-09-19T08:58:50Z</time>
      </trkpt>
      <trkpt lat="41.612899" lon="-4.750258">
        <ele>698.013</ele>
        <time>2017-09-19T08:58:51Z</time>
      </trkpt>
      <trkpt lat="41.612873" lon="-4.750271">
        <ele>698.031</ele>
        <time>2017-09-19T08:58:52Z</time>
      </trkpt>
      <trkpt lat="41.612849" lon="-4.750298">
        <ele>698.091</ele>
        <time>2017-09-19T08:58:53Z</time>
      </trkpt>
      <trkpt lat="41.612822" lon="-4.750330">
        <ele>698.095</ele>
        <time>2017-09-19T08:58:54Z</time>
      </trkpt>
      <trkpt lat="41.612793" lon="-4.750366">
        <ele>698.063</ele>
        <time>2017-09-19T08:58:55Z</time>
      </trkpt>
      <trkpt lat="41.612764" lon="-4.750404">
        <ele>698.032</ele>
        <time>2017-09-19T08:58:56Z</time>
      </trkpt>
      <trkpt lat="41.612731" lon="-4.750442">
        <ele>698.042</ele>
        <time>2017-09-19T08:58:57Z</time>
      </trkpt>
      <trkpt lat="41.612698" lon="-4.750473">
        <ele>698.044</ele>
        <time>2017-09-19T08:58:58Z</time>
      </trkpt>
      <trkpt lat="41.612666" lon="-4.750503">
        <ele>698.063</ele>
        <time>2017-09-19T08:58:59Z</time>
      </trkpt>
      <trkpt lat="41.612073" lon="-4.750916">
        <ele>699.044</ele>
        <time>2017-09-19T08:59:13Z</time>
      </trkpt>
      <trkpt lat="41.611408" lon="-4.751284">
        <ele>698.018</ele>
        <time>2017-09-19T08:59:28Z</time>
      </trkpt>
      <trkpt lat="41.610839" lon="-4.751591">
        <ele>697.008</ele>
        <time>2017-09-19T08:59:42Z</time>
      </trkpt>
      <trkpt lat="41.610539" lon="-4.751935">
        <ele>700.487</ele>
        <time>2017-09-19T08:59:53Z</time>
      </trkpt>
      <trkpt lat="41.610398" lon="-4.752154">
        <ele>703.865</ele>
        <time>2017-09-19T09:00:06Z</time>
      </trkpt>
      <trkpt lat="41.610389" lon="-4.752151">
        <ele>703.845</ele>
        <time>2017-09-19T09:00:37Z</time>
      </trkpt>
      <trkpt lat="41.610377" lon="-4.752170">
        <ele>703.869</ele>
        <time>2017-09-19T09:00:51Z</time>
      </trkpt>
      <trkpt lat="41.610362" lon="-4.752180">
        <ele>703.867</ele>
        <time>2017-09-19T09:00:52Z</time>
      </trkpt>
      <trkpt lat="41.610343" lon="-4.752195">
        <ele>704.376</ele>
        <time>2017-09-19T09:00:53Z</time>
      </trkpt>
      <trkpt lat="41.610321" lon="-4.752210">
        <ele>704.366</ele>
        <time>2017-09-19T09:00:54Z</time>
      </trkpt>
      <trkpt lat="41.610297" lon="-4.752227">
        <ele>704.358</ele>
        <time>2017-09-19T09:00:55Z</time>
      </trkpt>
      <trkpt lat="41.610272" lon="-4.752246">
        <ele>703.867</ele>
        <time>2017-09-19T09:00:56Z</time>
      </trkpt>
      <trkpt lat="41.610245" lon="-4.752258">
        <ele>703.881</ele>
        <time>2017-09-19T09:00:57Z</time>
      </trkpt>
      <trkpt lat="41.610217" lon="-4.752257">
        <ele>703.319</ele>
        <time>2017-09-19T09:00:58Z</time>
      </trkpt>
      <trkpt lat="41.610190" lon="-4.752243">
        <ele>703.308</ele>
        <time>2017-09-19T09:00:59Z</time>
      </trkpt>
      <trkpt lat="41.610159" lon="-4.752228">
        <ele>703.377</ele>
        <time>2017-09-19T09:01:00Z</time>
      </trkpt>
      <trkpt lat="41.610126" lon="-4.752215">
        <ele>703.385</ele>
        <time>2017-09-19T09:01:01Z</time>
      </trkpt>
      <trkpt lat="41.609718" lon="-4.752195">
        <ele>704.355</ele>
        <time>2017-09-19T09:01:13Z</time>
      </trkpt>
      <trkpt lat="41.609133" lon="-4.752478">
        <ele>705.769</ele>
        <time>2017-09-19T09:01:27Z</time>
      </trkpt>
      <trkpt lat="41.608454" lon="-4.752834">
        <ele>704.717</ele>
        <time>2017-09-19T09:01:43Z</time>
      </trkpt>
      <trkpt lat="41.608188" lon="-4.753226">
        <ele>702.876</ele>
        <time>2017-09-19T09:01:54Z</time>
      </trkpt>
      <trkpt lat="41.608126" lon="-4.753382">
        <ele>701.966</ele>
        <time>2017-09-19T09:01:59Z</time>
      </trkpt>
      <trkpt lat="41.607819" lon="-4.753603">
        <ele>698.098</ele>
        <time>2017-09-19T09:02:10Z</time>
      </trkpt>
      <trkpt lat="41.607541" lon="-4.753566">
        <ele>696.684</ele>
        <time>2017-09-19T09:02:19Z</time>
      </trkpt>
      <trkpt lat="41.607384" lon="-4.753454">
        <ele>696.607</ele>
        <time>2017-09-19T09:02:23Z</time>
      </trkpt>
      <trkpt lat="41.607346" lon="-4.753437">
        <ele>696.617</ele>
        <time>2017-09-19T09:02:24Z</time>
      </trkpt>
      <trkpt lat="41.607304" lon="-4.753423">
        <ele>696.608</ele>
        <time>2017-09-19T09:02:25Z</time>
      </trkpt>
      <trkpt lat="41.607262" lon="-4.753418">
        <ele>696.629</ele>
        <time>2017-09-19T09:02:26Z</time>
      </trkpt>
      <trkpt lat="41.607218" lon="-4.753419">
        <ele>696.647</ele>
        <time>2017-09-19T09:02:27Z</time>
      </trkpt>
      <trkpt lat="41.607172" lon="-4.753426">
        <ele>696.687</ele>
        <time>2017-09-19T09:02:28Z</time>
      </trkpt>
      <trkpt lat="41.607125" lon="-4.753436">
        <ele>696.691</ele>
        <time>2017-09-19T09:02:29Z</time>
      </trkpt>
      <trkpt lat="41.606202" lon="-4.753785">
        <ele>695.639</ele>
        <time>2017-09-19T09:02:48Z</time>
      </trkpt>
      <trkpt lat="41.605294" lon="-4.754180">
        <ele>694.298</ele>
        <time>2017-09-19T09:03:07Z</time>
      </trkpt>
      <trkpt lat="41.604519" lon="-4.754608">
        <ele>694.688</ele>
        <time>2017-09-19T09:03:24Z</time>
      </trkpt>
      <trkpt lat="41.604292" lon="-4.754773">
        <ele>695.170</ele>
        <time>2017-09-19T09:03:29Z</time>
      </trkpt>
      <trkpt lat="41.604242" lon="-4.754796">
        <ele>695.195</ele>
        <time>2017-09-19T09:03:30Z</time>
      </trkpt>
      <trkpt lat="41.604192" lon="-4.754815">
        <ele>695.649</ele>
        <time>2017-09-19T09:03:31Z</time>
      </trkpt>
      <trkpt lat="41.603108" lon="-4.755215">
        <ele>694.623</ele>
        <time>2017-09-19T09:03:52Z</time>
      </trkpt>
      <trkpt lat="41.602830" lon="-4.755403">
        <ele>694.608</ele>
        <time>2017-09-19T09:03:58Z</time>
      </trkpt>
      <trkpt lat="41.602782" lon="-4.755413">
        <ele>694.680</ele>
        <time>2017-09-19T09:03:59Z</time>
      </trkpt>
      <trkpt lat="41.602732" lon="-4.755409">
        <ele>694.678</ele>
        <time>2017-09-19T09:04:00Z</time>
      </trkpt>
      <trkpt lat="41.602637" lon="-4.755390">
        <ele>694.668</ele>
        <time>2017-09-19T09:04:02Z</time>
      </trkpt>
      <trkpt lat="41.602588" lon="-4.755393">
        <ele>695.192</ele>
        <time>2017-09-19T09:04:03Z</time>
      </trkpt>
      <trkpt lat="41.602541" lon="-4.755403">
        <ele>695.180</ele>
        <time>2017-09-19T09:04:04Z</time>
      </trkpt>
      <trkpt lat="41.602495" lon="-4.755421">
        <ele>694.639</ele>
        <time>2017-09-19T09:04:05Z</time>
      </trkpt>
      <trkpt lat="41.602452" lon="-4.755441">
        <ele>694.629</ele>
        <time>2017-09-19T09:04:06Z</time>
      </trkpt>
      <trkpt lat="41.601919" lon="-4.755598">
        <ele>694.281</ele>
        <time>2017-09-19T09:04:20Z</time>
      </trkpt>
      <trkpt lat="41.601103" lon="-4.755749">
        <ele>695.177</ele>
        <time>2017-09-19T09:04:40Z</time>
      </trkpt>
      <trkpt lat="41.600370" lon="-4.755854">
        <ele>694.661</ele>
        <time>2017-09-19T09:04:58Z</time>
      </trkpt>
      <trkpt lat="41.600329" lon="-4.755860">
        <ele>694.627</ele>
        <time>2017-09-19T09:04:59Z</time>
      </trkpt>
      <trkpt lat="41.599777" lon="-4.755899">
        <ele>696.608</ele>
        <time>2017-09-19T09:05:13Z</time>
      </trkpt>
      <trkpt lat="41.599587" lon="-4.755943">
        <ele>696.688</ele>
        <time>2017-09-19T09:05:18Z</time>
      </trkpt>
      <trkpt lat="41.599545" lon="-4.755948">
        <ele>696.656</ele>
        <time>2017-09-19T09:05:19Z</time>
      </trkpt>
      <trkpt lat="41.598973" lon="-4.756120">
        <ele>699.526</ele>
        <time>2017-09-19T09:05:36Z</time>
      </trkpt>
      <trkpt lat="41.598449" lon="-4.756372">
        <ele>702.340</ele>
        <time>2017-09-19T09:05:50Z</time>
      </trkpt>
      <trkpt lat="41.597830" lon="-4.756676">
        <ele>704.728</ele>
        <time>2017-09-19T09:06:06Z</time>
      </trkpt>
      <trkpt lat="41.597027" lon="-4.757073">
        <ele>705.787</ele>
        <time>2017-09-19T09:06:26Z</time>
      </trkpt>
      <trkpt lat="41.596914" lon="-4.757138">
        <ele>705.787</ele>
        <time>2017-09-19T09:06:29Z</time>
      </trkpt>
      <trkpt lat="41.596758" lon="-4.757247">
        <ele>706.299</ele>
        <time>2017-09-19T09:06:33Z</time>
      </trkpt>
      <trkpt lat="41.596715" lon="-4.757266">
        <ele>705.763</ele>
        <time>2017-09-19T09:06:34Z</time>
      </trkpt>
      <trkpt lat="41.596670" lon="-4.757279">
        <ele>706.244</ele>
        <time>2017-09-19T09:06:35Z</time>
      </trkpt>
      <trkpt lat="41.595833" lon="-4.757670">
        <ele>706.218</ele>
        <time>2017-09-19T09:06:53Z</time>
      </trkpt>
      <trkpt lat="41.595341" lon="-4.757939">
        <ele>705.208</ele>
        <time>2017-09-19T09:07:03Z</time>
      </trkpt>
      <trkpt lat="41.595202" lon="-4.758014">
        <ele>704.777</ele>
        <time>2017-09-19T09:07:06Z</time>
      </trkpt>
      <trkpt lat="41.595159" lon="-4.758062">
        <ele>705.295</ele>
        <time>2017-09-19T09:07:07Z</time>
      </trkpt>
      <trkpt lat="41.595132" lon="-4.758106">
        <ele>705.245</ele>
        <time>2017-09-19T09:07:08Z</time>
      </trkpt>
      <trkpt lat="41.595073" lon="-4.758201">
        <ele>705.269</ele>
        <time>2017-09-19T09:07:10Z</time>
      </trkpt>
      <trkpt lat="41.595037" lon="-4.758232">
        <ele>705.237</ele>
        <time>2017-09-19T09:07:11Z</time>
      </trkpt>
      <trkpt lat="41.594994" lon="-4.758253">
        <ele>705.286</ele>
        <time>2017-09-19T09:07:12Z</time>
      </trkpt>
      <trkpt lat="41.594947" lon="-4.758269">
        <ele>705.236</ele>
        <time>2017-09-19T09:07:13Z</time>
      </trkpt>
      <trkpt lat="41.594898" lon="-4.758276">
        <ele>705.228</ele>
        <time>2017-09-19T09:07:14Z</time>
      </trkpt>
      <trkpt lat="41.594847" lon="-4.758274">
        <ele>705.215</ele>
        <time>2017-09-19T09:07:15Z</time>
      </trkpt>
      <trkpt lat="41.594792" lon="-4.758267">
        <ele>705.265</ele>
        <time>2017-09-19T09:07:16Z</time>
      </trkpt>
      <trkpt lat="41.594739" lon="-4.758263">
        <ele>705.211</ele>
        <time>2017-09-19T09:07:17Z</time>
      </trkpt>
      <trkpt lat="41.594675" lon="-4.758272">
        <ele>705.208</ele>
        <time>2017-09-19T09:07:18Z</time>
      </trkpt>
      <trkpt lat="41.594635" lon="-4.758287">
        <ele>704.732</ele>
        <time>2017-09-19T09:07:19Z</time>
      </trkpt>
      <trkpt lat="41.593776" lon="-4.758535">
        <ele>704.390</ele>
        <time>2017-09-19T09:07:34Z</time>
      </trkpt>
      <trkpt lat="41.592610" lon="-4.758728">
        <ele>704.340</ele>
        <time>2017-09-19T09:07:53Z</time>
      </trkpt>
      <trkpt lat="41.591531" lon="-4.758725">
        <ele>705.744</ele>
        <time>2017-09-19T09:08:12Z</time>
      </trkpt>
      <trkpt lat="41.590478" lon="-4.758555">
        <ele>706.272</ele>
        <time>2017-09-19T09:08:31Z</time>
      </trkpt>
      <trkpt lat="41.589479" lon="-4.758540">
        <ele>707.111</ele>
        <time>2017-09-19T09:08:49Z</time>
      </trkpt>
      <trkpt lat="41.588684" lon="-4.758603">
        <ele>708.191</ele>
        <time>2017-09-19T09:09:04Z</time>
      </trkpt>
      <trkpt lat="41.588430" lon="-4.758732">
        <ele>708.113</ele>
        <time>2017-09-19T09:09:10Z</time>
      </trkpt>
      <trkpt lat="41.588390" lon="-4.758743">
        <ele>707.692</ele>
        <time>2017-09-19T09:09:11Z</time>
      </trkpt>
      <trkpt lat="41.588342" lon="-4.758745">
        <ele>707.673</ele>
        <time>2017-09-19T09:09:12Z</time>
      </trkpt>
      <trkpt lat="41.588250" lon="-4.758731">
        <ele>707.620</ele>
        <time>2017-09-19T09:09:14Z</time>
      </trkpt>
      <trkpt lat="41.588203" lon="-4.758716">
        <ele>707.108</ele>
        <time>2017-09-19T09:09:15Z</time>
      </trkpt>
      <trkpt lat="41.588156" lon="-4.758695">
        <ele>707.140</ele>
        <time>2017-09-19T09:09:16Z</time>
      </trkpt>
      <trkpt lat="41.588107" lon="-4.758671">
        <ele>707.138</ele>
        <time>2017-09-19T09:09:17Z</time>
      </trkpt>
      <trkpt lat="41.588061" lon="-4.758656">
        <ele>707.158</ele>
        <time>2017-09-19T09:09:18Z</time>
      </trkpt>
      <trkpt lat="41.588011" lon="-4.758648">
        <ele>707.142</ele>
        <time>2017-09-19T09:09:19Z</time>
      </trkpt>
      <trkpt lat="41.587959" lon="-4.758648">
        <ele>706.760</ele>
        <time>2017-09-19T09:09:20Z</time>
      </trkpt>
      <trkpt lat="41.587640" lon="-4.758686">
        <ele>706.739</ele>
        <time>2017-09-19T09:09:26Z</time>
      </trkpt>
      <trkpt lat="41.587586" lon="-4.758689">
        <ele>706.759</ele>
        <time>2017-09-19T09:09:27Z</time>
      </trkpt>
      <trkpt lat="41.587531" lon="-4.758698">
        <ele>706.771</ele>
        <time>2017-09-19T09:09:28Z</time>
      </trkpt>
      <trkpt lat="41.586447" lon="-4.759106">
        <ele>705.738</ele>
        <time>2017-09-19T09:09:49Z</time>
      </trkpt>
      <trkpt lat="41.585651" lon="-4.759656">
        <ele>707.170</ele>
        <time>2017-09-19T09:10:06Z</time>
      </trkpt>
      <trkpt lat="41.584764" lon="-4.760557">
        <ele>706.217</ele>
        <time>2017-09-19T09:10:26Z</time>
      </trkpt>
      <trkpt lat="41.583851" lon="-4.761465">
        <ele>706.208</ele>
        <time>2017-09-19T09:10:46Z</time>
      </trkpt>
      <trkpt lat="41.582948" lon="-4.762083">
        <ele>706.784</ele>
        <time>2017-09-19T09:11:04Z</time>
      </trkpt>
      <trkpt lat="41.582133" lon="-4.762783">
        <ele>705.742</ele>
        <time>2017-09-19T09:11:21Z</time>
      </trkpt>
      <trkpt lat="41.581836" lon="-4.763079">
        <ele>705.722</ele>
        <time>2017-09-19T09:11:28Z</time>
      </trkpt>
      <trkpt lat="41.581791" lon="-4.763103">
        <ele>705.796</ele>
        <time>2017-09-19T09:11:29Z</time>
      </trkpt>
      <trkpt lat="41.581744" lon="-4.763120">
        <ele>705.264</ele>
        <time>2017-09-19T09:11:30Z</time>
      </trkpt>
      <trkpt lat="41.581694" lon="-4.763127">
        <ele>705.273</ele>
        <time>2017-09-19T09:11:31Z</time>
      </trkpt>
      <trkpt lat="41.581640" lon="-4.763133">
        <ele>705.793</ele>
        <time>2017-09-19T09:11:32Z</time>
      </trkpt>
      <trkpt lat="41.580906" lon="-4.763494">
        <ele>705.735</ele>
        <time>2017-09-19T09:11:47Z</time>
      </trkpt>
      <trkpt lat="41.580764" lon="-4.763599">
        <ele>705.778</ele>
        <time>2017-09-19T09:11:50Z</time>
      </trkpt>
      <trkpt lat="41.580082" lon="-4.764262">
        <ele>706.233</ele>
        <time>2017-09-19T09:12:06Z</time>
      </trkpt>
      <trkpt lat="41.580001" lon="-4.764359">
        <ele>707.126</ele>
        <time>2017-09-19T09:12:08Z</time>
      </trkpt>
      <trkpt lat="41.579685" lon="-4.764861">
        <ele>708.108</ele>
        <time>2017-09-19T09:12:17Z</time>
      </trkpt>
      <trkpt lat="41.579600" lon="-4.764954">
        <ele>708.168</ele>
        <time>2017-09-19T09:12:19Z</time>
      </trkpt>
      <trkpt lat="41.579552" lon="-4.764993">
        <ele>708.696</ele>
        <time>2017-09-19T09:12:20Z</time>
      </trkpt>
      <trkpt lat="41.579404" lon="-4.765101">
        <ele>708.126</ele>
        <time>2017-09-19T09:12:23Z</time>
      </trkpt>
      <trkpt lat="41.579363" lon="-4.765144">
        <ele>708.180</ele>
        <time>2017-09-19T09:12:24Z</time>
      </trkpt>
      <trkpt lat="41.578757" lon="-4.765987">
        <ele>710.058</ele>
        <time>2017-09-19T09:12:40Z</time>
      </trkpt>
      <trkpt lat="41.578158" lon="-4.766836">
        <ele>708.647</ele>
        <time>2017-09-19T09:12:56Z</time>
      </trkpt>
      <trkpt lat="41.577441" lon="-4.767880">
        <ele>708.167</ele>
        <time>2017-09-19T09:13:15Z</time>
      </trkpt>
      <trkpt lat="41.576688" lon="-4.768974">
        <ele>706.769</ele>
        <time>2017-09-19T09:13:35Z</time>
      </trkpt>
      <trkpt lat="41.575979" lon="-4.769981">
        <ele>706.775</ele>
        <time>2017-09-19T09:13:54Z</time>
      </trkpt>
      <trkpt lat="41.575407" lon="-4.770803">
        <ele>706.228</ele>
        <time>2017-09-19T09:14:09Z</time>
      </trkpt>
      <trkpt lat="41.574965" lon="-4.771461">
        <ele>706.220</ele>
        <time>2017-09-19T09:14:21Z</time>
      </trkpt>
      <trkpt lat="41.574423" lon="-4.772240">
        <ele>706.708</ele>
        <time>2017-09-19T09:14:36Z</time>
      </trkpt>
      <trkpt lat="41.573811" lon="-4.773140">
        <ele>708.118</ele>
        <time>2017-09-19T09:14:53Z</time>
      </trkpt>
      <trkpt lat="41.573361" lon="-4.773825">
        <ele>707.666</ele>
        <time>2017-09-19T09:15:06Z</time>
      </trkpt>
      <trkpt lat="41.572728" lon="-4.774711">
        <ele>707.176</ele>
        <time>2017-09-19T09:15:23Z</time>
      </trkpt>
      <trkpt lat="41.572151" lon="-4.775558">
        <ele>705.750</ele>
        <time>2017-09-19T09:15:39Z</time>
      </trkpt>
      <trkpt lat="41.571561" lon="-4.776426">
        <ele>705.218</ele>
        <time>2017-09-19T09:15:55Z</time>
      </trkpt>
      <trkpt lat="41.570949" lon="-4.777340">
        <ele>703.897</ele>
        <time>2017-09-19T09:16:11Z</time>
      </trkpt>
      <trkpt lat="41.570321" lon="-4.778241">
        <ele>702.347</ele>
        <time>2017-09-19T09:16:26Z</time>
      </trkpt>
      <trkpt lat="41.569913" lon="-4.778899">
        <ele>700.979</ele>
        <time>2017-09-19T09:16:37Z</time>
      </trkpt>
      <trkpt lat="41.569866" lon="-4.778955">
        <ele>700.911</ele>
        <time>2017-09-19T09:16:38Z</time>
      </trkpt>
      <trkpt lat="41.569787" lon="-4.779044">
        <ele>700.921</ele>
        <time>2017-09-19T09:16:40Z</time>
      </trkpt>
      <trkpt lat="41.569750" lon="-4.779101">
        <ele>700.403</ele>
        <time>2017-09-19T09:16:41Z</time>
      </trkpt>
      <trkpt lat="41.569673" lon="-4.779223">
        <ele>699.908</ele>
        <time>2017-09-19T09:16:43Z</time>
      </trkpt>
      <trkpt lat="41.569017" lon="-4.780173">
        <ele>698.562</ele>
        <time>2017-09-19T09:16:59Z</time>
      </trkpt>
      <trkpt lat="41.568509" lon="-4.780927">
        <ele>698.510</ele>
        <time>2017-09-19T09:17:12Z</time>
      </trkpt>
      <trkpt lat="41.567892" lon="-4.781820">
        <ele>698.510</ele>
        <time>2017-09-19T09:17:28Z</time>
      </trkpt>
      <trkpt lat="41.567297" lon="-4.782641">
        <ele>698.084</ele>
        <time>2017-09-19T09:17:44Z</time>
      </trkpt>
      <trkpt lat="41.566405" lon="-4.783464">
        <ele>696.662</ele>
        <time>2017-09-19T09:18:04Z</time>
      </trkpt>
      <trkpt lat="41.566322" lon="-4.783526">
        <ele>696.661</ele>
        <time>2017-09-19T09:18:06Z</time>
      </trkpt>
      <trkpt lat="41.566241" lon="-4.783591">
        <ele>696.611</ele>
        <time>2017-09-19T09:18:08Z</time>
      </trkpt>
      <trkpt lat="41.566200" lon="-4.783623">
        <ele>696.653</ele>
        <time>2017-09-19T09:18:09Z</time>
      </trkpt>
      <trkpt lat="41.565939" lon="-4.783821">
        <ele>696.146</ele>
        <time>2017-09-19T09:18:15Z</time>
      </trkpt>
      <trkpt lat="41.565512" lon="-4.784177">
        <ele>696.188</ele>
        <time>2017-09-19T09:18:24Z</time>
      </trkpt>
      <trkpt lat="41.565132" lon="-4.784611">
        <ele>696.116</ele>
        <time>2017-09-19T09:18:33Z</time>
      </trkpt>
      <trkpt lat="41.565083" lon="-4.784651">
        <ele>696.108</ele>
        <time>2017-09-19T09:18:34Z</time>
      </trkpt>
      <trkpt lat="41.564379" lon="-4.785216">
        <ele>695.155</ele>
        <time>2017-09-19T09:18:49Z</time>
      </trkpt>
      <trkpt lat="41.563518" lon="-4.785912">
        <ele>693.223</ele>
        <time>2017-09-19T09:19:06Z</time>
      </trkpt>
      <trkpt lat="41.563128" lon="-4.786222">
        <ele>693.783</ele>
        <time>2017-09-19T09:19:14Z</time>
      </trkpt>
      <trkpt lat="41.563087" lon="-4.786263">
        <ele>693.777</ele>
        <time>2017-09-19T09:19:15Z</time>
      </trkpt>
      <trkpt lat="41.562551" lon="-4.787116">
        <ele>693.225</ele>
        <time>2017-09-19T09:19:30Z</time>
      </trkpt>
      <trkpt lat="41.562459" lon="-4.787381">
        <ele>693.294</ele>
        <time>2017-09-19T09:19:34Z</time>
      </trkpt>
      <trkpt lat="41.562429" lon="-4.787515">
        <ele>693.234</ele>
        <time>2017-09-19T09:19:36Z</time>
      </trkpt>
      <trkpt lat="41.562418" lon="-4.787580">
        <ele>693.246</ele>
        <time>2017-09-19T09:19:37Z</time>
      </trkpt>
      <trkpt lat="41.562373" lon="-4.788500">
        <ele>693.713</ele>
        <time>2017-09-19T09:19:52Z</time>
      </trkpt>
      <trkpt lat="41.562408" lon="-4.788956">
        <ele>692.743</ele>
        <time>2017-09-19T09:20:04Z</time>
      </trkpt>
      <trkpt lat="41.562393" lon="-4.788973">
        <ele>692.207</ele>
        <time>2017-09-19T09:20:10Z</time>
      </trkpt>
      <trkpt lat="41.562378" lon="-4.788983">
        <ele>692.208</ele>
        <time>2017-09-19T09:20:11Z</time>
      </trkpt>
      <trkpt lat="41.562354" lon="-4.788997">
        <ele>692.222</ele>
        <time>2017-09-19T09:20:12Z</time>
      </trkpt>
      <trkpt lat="41.562323" lon="-4.789002">
        <ele>692.220</ele>
        <time>2017-09-19T09:20:13Z</time>
      </trkpt>
      <trkpt lat="41.562291" lon="-4.788995">
        <ele>692.250</ele>
        <time>2017-09-19T09:20:14Z</time>
      </trkpt>
      <trkpt lat="41.561791" lon="-4.788955">
        <ele>692.794</ele>
        <time>2017-09-19T09:20:28Z</time>
      </trkpt>
      <trkpt lat="41.561206" lon="-4.788880">
        <ele>692.772</ele>
        <time>2017-09-19T09:20:44Z</time>
      </trkpt>
      <trkpt lat="41.560422" lon="-4.788861">
        <ele>692.261</ele>
        <time>2017-09-19T09:21:04Z</time>
      </trkpt>
      <trkpt lat="41.560382" lon="-4.788868">
        <ele>692.231</ele>
        <time>2017-09-19T09:21:05Z</time>
      </trkpt>
      <trkpt lat="41.560342" lon="-4.788880">
        <ele>692.773</ele>
        <time>2017-09-19T09:21:06Z</time>
      </trkpt>
      <trkpt lat="41.559837" lon="-4.788918">
        <ele>694.237</ele>
        <time>2017-09-19T09:21:21Z</time>
      </trkpt>
      <trkpt lat="41.559369" lon="-4.788865">
        <ele>693.249</ele>
        <time>2017-09-19T09:21:36Z</time>
      </trkpt>
      <trkpt lat="41.558993" lon="-4.788681">
        <ele>693.213</ele>
        <time>2017-09-19T09:21:48Z</time>
      </trkpt>
      <trkpt lat="41.558808" lon="-4.788658">
        <ele>692.708</ele>
        <time>2017-09-19T09:21:54Z</time>
      </trkpt>
      <trkpt lat="41.558773" lon="-4.788674">
        <ele>692.714</ele>
        <time>2017-09-19T09:21:55Z</time>
      </trkpt>
      <trkpt lat="41.558741" lon="-4.788696">
        <ele>692.742</ele>
        <time>2017-09-19T09:21:56Z</time>
      </trkpt>
      <trkpt lat="41.558040" lon="-4.789128">
        <ele>692.252</ele>
        <time>2017-09-19T09:22:13Z</time>
      </trkpt>
      <trkpt lat="41.557876" lon="-4.789211">
        <ele>691.876</ele>
        <time>2017-09-19T09:22:17Z</time>
      </trkpt>
      <trkpt lat="41.557844" lon="-4.789241">
        <ele>691.824</ele>
        <time>2017-09-19T09:22:18Z</time>
      </trkpt>
      <trkpt lat="41.557825" lon="-4.789292">
        <ele>691.853</ele>
        <time>2017-09-19T09:22:19Z</time>
      </trkpt>
      <trkpt lat="41.557820" lon="-4.789334">
        <ele>691.833</ele>
        <time>2017-09-19T09:22:20Z</time>
      </trkpt>
      <trkpt lat="41.557820" lon="-4.789384">
        <ele>691.885</ele>
        <time>2017-09-19T09:22:21Z</time>
      </trkpt>
      <trkpt lat="41.557820" lon="-4.789432">
        <ele>692.295</ele>
        <time>2017-09-19T09:22:22Z</time>
      </trkpt>
      <trkpt lat="41.557603" lon="-4.789648">
        <ele>692.249</ele>
        <time>2017-09-19T09:22:30Z</time>
      </trkpt>
      <trkpt lat="41.557539" lon="-4.789642">
        <ele>691.823</ele>
        <time>2017-09-19T09:22:32Z</time>
      </trkpt>
      <trkpt lat="41.557506" lon="-4.789620">
        <ele>691.808</ele>
        <time>2017-09-19T09:22:33Z</time>
      </trkpt>
      <trkpt lat="41.557476" lon="-4.789601">
        <ele>691.320</ele>
        <time>2017-09-19T09:22:34Z</time>
      </trkpt>
      <trkpt lat="41.557440" lon="-4.789591">
        <ele>691.368</ele>
        <time>2017-09-19T09:22:35Z</time>
      </trkpt>
      <trkpt lat="41.557396" lon="-4.789594">
        <ele>691.388</ele>
        <time>2017-09-19T09:22:36Z</time>
      </trkpt>
      <trkpt lat="41.557354" lon="-4.789604">
        <ele>691.332</ele>
        <time>2017-09-19T09:22:37Z</time>
      </trkpt>
      <trkpt lat="41.557307" lon="-4.789617">
        <ele>691.330</ele>
        <time>2017-09-19T09:22:38Z</time>
      </trkpt>
      <trkpt lat="41.556570" lon="-4.789884">
        <ele>690.849</ele>
        <time>2017-09-19T09:22:53Z</time>
      </trkpt>
      <trkpt lat="41.556353" lon="-4.790001">
        <ele>690.859</ele>
        <time>2017-09-19T09:22:58Z</time>
      </trkpt>
      <trkpt lat="41.556143" lon="-4.790134">
        <ele>690.361</ele>
        <time>2017-09-19T09:23:03Z</time>
      </trkpt>
      <trkpt lat="41.556101" lon="-4.790144">
        <ele>690.351</ele>
        <time>2017-09-19T09:23:04Z</time>
      </trkpt>
      <trkpt lat="41.556058" lon="-4.790144">
        <ele>690.301</ele>
        <time>2017-09-19T09:23:05Z</time>
      </trkpt>
      <trkpt lat="41.555903" lon="-4.790180">
        <ele>689.811</ele>
        <time>2017-09-19T09:23:09Z</time>
      </trkpt>
      <trkpt lat="41.555866" lon="-4.790204">
        <ele>689.808</ele>
        <time>2017-09-19T09:23:10Z</time>
      </trkpt>
      <trkpt lat="41.555825" lon="-4.790223">
        <ele>689.876</ele>
        <time>2017-09-19T09:23:11Z</time>
      </trkpt>
      <trkpt lat="41.555781" lon="-4.790235">
        <ele>689.884</ele>
        <time>2017-09-19T09:23:12Z</time>
      </trkpt>
      <trkpt lat="41.555735" lon="-4.790243">
        <ele>689.894</ele>
        <time>2017-09-19T09:23:13Z</time>
      </trkpt>
      <trkpt lat="41.555552" lon="-4.790272">
        <ele>689.838</ele>
        <time>2017-09-19T09:23:17Z</time>
      </trkpt>
      <trkpt lat="41.555509" lon="-4.790291">
        <ele>689.876</ele>
        <time>2017-09-19T09:23:18Z</time>
      </trkpt>
      <trkpt lat="41.554881" lon="-4.790647">
        <ele>690.835</ele>
        <time>2017-09-19T09:23:33Z</time>
      </trkpt>
      <trkpt lat="41.554841" lon="-4.790678">
        <ele>690.835</ele>
        <time>2017-09-19T09:23:34Z</time>
      </trkpt>
      <trkpt lat="41.554802" lon="-4.790713">
        <ele>690.867</ele>
        <time>2017-09-19T09:23:35Z</time>
      </trkpt>
      <trkpt lat="41.554763" lon="-4.790748">
        <ele>690.892</ele>
        <time>2017-09-19T09:23:36Z</time>
      </trkpt>
      <trkpt lat="41.554722" lon="-4.790781">
        <ele>690.873</ele>
        <time>2017-09-19T09:23:37Z</time>
      </trkpt>
      <trkpt lat="41.554681" lon="-4.790811">
        <ele>690.820</ele>
        <time>2017-09-19T09:23:38Z</time>
      </trkpt>
      <trkpt lat="41.554125" lon="-4.791168">
        <ele>690.808</ele>
        <time>2017-09-19T09:23:53Z</time>
      </trkpt>
      <trkpt lat="41.554020" lon="-4.791235">
        <ele>690.850</ele>
        <time>2017-09-19T09:23:56Z</time>
      </trkpt>
      <trkpt lat="41.553423" lon="-4.791576">
        <ele>690.868</ele>
        <time>2017-09-19T09:24:12Z</time>
      </trkpt>
      <trkpt lat="41.553405" lon="-4.791614">
        <ele>690.818</ele>
        <time>2017-09-19T09:24:13Z</time>
      </trkpt>
      <trkpt lat="41.553399" lon="-4.791657">
        <ele>690.812</ele>
        <time>2017-09-19T09:24:14Z</time>
      </trkpt>
      <trkpt lat="41.553390" lon="-4.791693">
        <ele>690.310</ele>
        <time>2017-09-19T09:24:15Z</time>
      </trkpt>
      <trkpt lat="41.553369" lon="-4.791721">
        <ele>690.329</ele>
        <time>2017-09-19T09:24:16Z</time>
      </trkpt>
      <trkpt lat="41.553345" lon="-4.791740">
        <ele>690.319</ele>
        <time>2017-09-19T09:24:17Z</time>
      </trkpt>
      <trkpt lat="41.553317" lon="-4.791758">
        <ele>690.361</ele>
        <time>2017-09-19T09:24:18Z</time>
      </trkpt>
      <trkpt lat="41.553009" lon="-4.791662">
        <ele>690.342</ele>
        <time>2017-09-19T09:24:28Z</time>
      </trkpt>
      <trkpt lat="41.552719" lon="-4.791676">
        <ele>692.222</ele>
        <time>2017-09-19T09:24:36Z</time>
      </trkpt>
      <trkpt lat="41.552681" lon="-4.791700">
        <ele>692.714</ele>
        <time>2017-09-19T09:24:37Z</time>
      </trkpt>
      <trkpt lat="41.552643" lon="-4.791731">
        <ele>692.708</ele>
        <time>2017-09-19T09:24:38Z</time>
      </trkpt>
      <trkpt lat="41.552001" lon="-4.792162">
        <ele>693.785</ele>
        <time>2017-09-19T09:24:52Z</time>
      </trkpt>
      <trkpt lat="41.551721" lon="-4.792336">
        <ele>691.853</ele>
        <time>2017-09-19T09:24:57Z</time>
      </trkpt>
      <trkpt lat="41.551680" lon="-4.792379">
        <ele>691.373</ele>
        <time>2017-09-19T09:24:58Z</time>
      </trkpt>
      <trkpt lat="41.551649" lon="-4.792432">
        <ele>690.857</ele>
        <time>2017-09-19T09:24:59Z</time>
      </trkpt>
      <trkpt lat="41.551632" lon="-4.792478">
        <ele>690.325</ele>
        <time>2017-09-19T09:25:00Z</time>
      </trkpt>
      <trkpt lat="41.551629" lon="-4.792521">
        <ele>689.824</ele>
        <time>2017-09-19T09:25:01Z</time>
      </trkpt>
      <trkpt lat="41.551636" lon="-4.792559">
        <ele>689.884</ele>
        <time>2017-09-19T09:25:02Z</time>
      </trkpt>
      <trkpt lat="41.551652" lon="-4.792591">
        <ele>689.496</ele>
        <time>2017-09-19T09:25:03Z</time>
      </trkpt>
      <trkpt lat="41.551677" lon="-4.792611">
        <ele>689.462</ele>
        <time>2017-09-19T09:25:04Z</time>
      </trkpt>
      <trkpt lat="41.551726" lon="-4.792555">
        <ele>689.483</ele>
        <time>2017-09-19T09:25:07Z</time>
      </trkpt>
      <trkpt lat="41.551716" lon="-4.792528">
        <ele>689.811</ele>
        <time>2017-09-19T09:25:08Z</time>
      </trkpt>
      <trkpt lat="41.551701" lon="-4.792507">
        <ele>689.408</ele>
        <time>2017-09-19T09:25:09Z</time>
      </trkpt>
      <trkpt lat="41.551689" lon="-4.792495">
        <ele>689.837</ele>
        <time>2017-09-19T09:25:10Z</time>
      </trkpt>
      <trkpt lat="41.551670" lon="-4.792487">
        <ele>690.815</ele>
        <time>2017-09-19T09:25:23Z</time>
      </trkpt>
      <trkpt lat="41.551663" lon="-4.792477">
        <ele>694.295</ele>
        <time>2017-09-19T09:26:29Z</time>
      </trkpt>
      <trkpt lat="41.551662" lon="-4.792464">
        <ele>693.279</ele>
        <time>2017-09-19T09:26:36Z</time>
      </trkpt>
      <trkpt lat="41.551678" lon="-4.792448">
        <ele>692.777</ele>
        <time>2017-09-19T09:26:38Z</time>
      </trkpt>
      <trkpt lat="41.551688" lon="-4.792452">
        <ele>692.796</ele>
        <time>2017-09-19T09:26:39Z</time>
      </trkpt>
      <trkpt lat="41.551697" lon="-4.792464">
        <ele>692.746</ele>
        <time>2017-09-19T09:26:40Z</time>
      </trkpt>
      <trkpt lat="41.551930" lon="-4.792818">
        <ele>689.898</ele>
        <time>2017-09-19T09:26:52Z</time>
      </trkpt>
      <trkpt lat="41.552015" lon="-4.792939">
        <ele>689.465</ele>
        <time>2017-09-19T09:26:55Z</time>
      </trkpt>
      <trkpt lat="41.552046" lon="-4.792979">
        <ele>688.968</ele>
        <time>2017-09-19T09:26:56Z</time>
      </trkpt>
      <trkpt lat="41.552074" lon="-4.793023">
        <ele>688.914</ele>
        <time>2017-09-19T09:26:57Z</time>
      </trkpt>
      <trkpt lat="41.552268" lon="-4.793328">
        <ele>687.908</ele>
        <time>2017-09-19T09:27:04Z</time>
      </trkpt>
      <trkpt lat="41.552713" lon="-4.794101">
        <ele>686.537</ele>
        <time>2017-09-19T09:27:22Z</time>
      </trkpt>
      <trkpt lat="41.553048" lon="-4.794429">
        <ele>685.585</ele>
        <time>2017-09-19T09:27:34Z</time>
      </trkpt>
      <trkpt lat="41.553156" lon="-4.794508">
        <ele>685.035</ele>
        <time>2017-09-19T09:27:37Z</time>
      </trkpt>
      <trkpt lat="41.553462" lon="-4.794666">
        <ele>685.059</ele>
        <time>2017-09-19T09:27:49Z</time>
      </trkpt>
      <trkpt lat="41.553482" lon="-4.794706">
        <ele>685.057</ele>
        <time>2017-09-19T09:27:52Z</time>
      </trkpt>
      <trkpt lat="41.553460" lon="-4.794712">
        <ele>685.526</ele>
        <time>2017-09-19T09:27:55Z</time>
      </trkpt>
      <trkpt lat="41.553450" lon="-4.794705">
        <ele>685.516</ele>
        <time>2017-09-19T09:27:56Z</time>
      </trkpt>
      <trkpt lat="41.553151" lon="-4.794494">
        <ele>686.588</ele>
        <time>2017-09-19T09:28:10Z</time>
      </trkpt>
      <trkpt lat="41.552953" lon="-4.794409">
        <ele>687.031</ele>
        <time>2017-09-19T09:28:20Z</time>
      </trkpt>
      <trkpt lat="41.552936" lon="-4.794426">
        <ele>687.061</ele>
        <time>2017-09-19T09:28:21Z</time>
      </trkpt>
      <trkpt lat="41.552922" lon="-4.794451">
        <ele>687.407</ele>
        <time>2017-09-19T09:28:22Z</time>
      </trkpt>
      <trkpt lat="41.552913" lon="-4.794475">
        <ele>687.408</ele>
        <time>2017-09-19T09:28:23Z</time>
      </trkpt>
      <trkpt lat="41.552905" lon="-4.794506">
        <ele>687.414</ele>
        <time>2017-09-19T09:28:24Z</time>
      </trkpt>
      <trkpt lat="41.552899" lon="-4.794532">
        <ele>687.912</ele>
        <time>2017-09-19T09:28:25Z</time>
      </trkpt>
      <trkpt lat="41.552892" lon="-4.794555">
        <ele>687.982</ele>
        <time>2017-09-19T09:28:26Z</time>
      </trkpt>
      <trkpt lat="41.552882" lon="-4.794577">
        <ele>688.426</ele>
        <time>2017-09-19T09:28:27Z</time>
      </trkpt>
      <trkpt lat="41.552683" lon="-4.794912">
        <ele>688.494</ele>
        <time>2017-09-19T09:28:40Z</time>
      </trkpt>
      <trkpt lat="41.552530" lon="-4.795255">
        <ele>688.943</ele>
        <time>2017-09-19T09:28:50Z</time>
      </trkpt>
      <trkpt lat="41.552328" lon="-4.795512">
        <ele>691.333</ele>
        <time>2017-09-19T09:29:01Z</time>
      </trkpt>
      <trkpt lat="41.552294" lon="-4.795526">
        <ele>691.385</ele>
        <time>2017-09-19T09:29:03Z</time>
      </trkpt>
      <trkpt lat="41.552244" lon="-4.795524">
        <ele>689.882</ele>
        <time>2017-09-19T09:29:17Z</time>
      </trkpt>
      <trkpt lat="41.552220" lon="-4.795532">
        <ele>690.343</ele>
        <time>2017-09-19T09:29:28Z</time>
      </trkpt>
      <trkpt lat="41.552178" lon="-4.795631">
        <ele>690.817</ele>
        <time>2017-09-19T09:29:32Z</time>
      </trkpt>
      <trkpt lat="41.552179" lon="-4.795670">
        <ele>691.308</ele>
        <time>2017-09-19T09:29:33Z</time>
      </trkpt>
      <trkpt lat="41.552217" lon="-4.796194">
        <ele>691.829</ele>
        <time>2017-09-19T09:29:47Z</time>
      </trkpt>
      <trkpt lat="41.552312" lon="-4.796848">
        <ele>691.857</ele>
        <time>2017-09-19T09:30:02Z</time>
      </trkpt>
      <trkpt lat="41.552396" lon="-4.797714">
        <ele>692.277</ele>
        <time>2017-09-19T09:30:19Z</time>
      </trkpt>
      <trkpt lat="41.552511" lon="-4.798586">
        <ele>691.861</ele>
        <time>2017-09-19T09:30:36Z</time>
      </trkpt>
      <trkpt lat="41.552563" lon="-4.799179">
        <ele>691.859</ele>
        <time>2017-09-19T09:30:49Z</time>
      </trkpt>
      <trkpt lat="41.552592" lon="-4.799383">
        <ele>692.278</ele>
        <time>2017-09-19T09:30:53Z</time>
      </trkpt>
      <trkpt lat="41.552693" lon="-4.800243">
        <ele>692.768</ele>
        <time>2017-09-19T09:31:10Z</time>
      </trkpt>
      <trkpt lat="41.552737" lon="-4.800621">
        <ele>693.290</ele>
        <time>2017-09-19T09:31:17Z</time>
      </trkpt>
      <trkpt lat="41.552840" lon="-4.801516">
        <ele>692.245</ele>
        <time>2017-09-19T09:31:32Z</time>
      </trkpt>
      <trkpt lat="41.552896" lon="-4.801985">
        <ele>692.747</ele>
        <time>2017-09-19T09:31:40Z</time>
      </trkpt>
      <trkpt lat="41.552905" lon="-4.802040">
        <ele>692.711</ele>
        <time>2017-09-19T09:31:41Z</time>
      </trkpt>
      <trkpt lat="41.552982" lon="-4.802723">
        <ele>691.308</ele>
        <time>2017-09-19T09:31:53Z</time>
      </trkpt>
      <trkpt lat="41.553008" lon="-4.803060">
        <ele>690.855</ele>
        <time>2017-09-19T09:31:59Z</time>
      </trkpt>
      <trkpt lat="41.553035" lon="-4.803231">
        <ele>690.393</ele>
        <time>2017-09-19T09:32:02Z</time>
      </trkpt>
      <trkpt lat="41.553113" lon="-4.803849">
        <ele>690.873</ele>
        <time>2017-09-19T09:32:13Z</time>
      </trkpt>
      <trkpt lat="41.553167" lon="-4.804825">
        <ele>689.457</ele>
        <time>2017-09-19T09:32:30Z</time>
      </trkpt>
      <trkpt lat="41.553031" lon="-4.805681">
        <ele>691.335</ele>
        <time>2017-09-19T09:32:46Z</time>
      </trkpt>
      <trkpt lat="41.552869" lon="-4.806568">
        <ele>691.844</ele>
        <time>2017-09-19T09:33:03Z</time>
      </trkpt>
      <trkpt lat="41.552765" lon="-4.807166">
        <ele>691.314</ele>
        <time>2017-09-19T09:33:14Z</time>
      </trkpt>
      <trkpt lat="41.552604" lon="-4.808100">
        <ele>691.356</ele>
        <time>2017-09-19T09:33:31Z</time>
      </trkpt>
      <trkpt lat="41.552482" lon="-4.808863">
        <ele>690.388</ele>
        <time>2017-09-19T09:33:45Z</time>
      </trkpt>
      <trkpt lat="41.552291" lon="-4.809953">
        <ele>690.824</ele>
        <time>2017-09-19T09:34:04Z</time>
      </trkpt>
      <trkpt lat="41.552113" lon="-4.810971">
        <ele>690.326</ele>
        <time>2017-09-19T09:34:22Z</time>
      </trkpt>
      <trkpt lat="41.551896" lon="-4.812064">
        <ele>688.908</ele>
        <time>2017-09-19T09:34:41Z</time>
      </trkpt>
      <trkpt lat="41.551888" lon="-4.812122">
        <ele>688.989</ele>
        <time>2017-09-19T09:34:42Z</time>
      </trkpt>
      <trkpt lat="41.551884" lon="-4.812180">
        <ele>688.987</ele>
        <time>2017-09-19T09:34:43Z</time>
      </trkpt>
      <trkpt lat="41.551881" lon="-4.812240">
        <ele>688.977</ele>
        <time>2017-09-19T09:34:44Z</time>
      </trkpt>
      <trkpt lat="41.551779" lon="-4.812871">
        <ele>688.481</ele>
        <time>2017-09-19T09:34:55Z</time>
      </trkpt>
      <trkpt lat="41.551725" lon="-4.813191">
        <ele>688.459</ele>
        <time>2017-09-19T09:35:01Z</time>
      </trkpt>
      <trkpt lat="41.551606" lon="-4.813903">
        <ele>690.878</ele>
        <time>2017-09-19T09:35:16Z</time>
      </trkpt>
      <trkpt lat="41.551532" lon="-4.814731">
        <ele>691.358</ele>
        <time>2017-09-19T09:35:31Z</time>
      </trkpt>
      <trkpt lat="41.551494" lon="-4.815208">
        <ele>691.370</ele>
        <time>2017-09-19T09:35:39Z</time>
      </trkpt>
      <trkpt lat="41.551489" lon="-4.815318">
        <ele>691.845</ele>
        <time>2017-09-19T09:35:41Z</time>
      </trkpt>
      <trkpt lat="41.551448" lon="-4.815699">
        <ele>692.747</ele>
        <time>2017-09-19T09:35:48Z</time>
      </trkpt>
      <trkpt lat="41.551396" lon="-4.816275">
        <ele>692.711</ele>
        <time>2017-09-19T09:35:58Z</time>
      </trkpt>
      <trkpt lat="41.551349" lon="-4.817125">
        <ele>692.708</ele>
        <time>2017-09-19T09:36:13Z</time>
      </trkpt>
      <trkpt lat="41.551280" lon="-4.818019">
        <ele>692.725</ele>
        <time>2017-09-19T09:36:28Z</time>
      </trkpt>
      <trkpt lat="41.551280" lon="-4.818074">
        <ele>692.793</ele>
        <time>2017-09-19T09:36:29Z</time>
      </trkpt>
      <trkpt lat="41.551277" lon="-4.818130">
        <ele>692.793</ele>
        <time>2017-09-19T09:36:30Z</time>
      </trkpt>
      <trkpt lat="41.551273" lon="-4.818187">
        <ele>692.717</ele>
        <time>2017-09-19T09:36:31Z</time>
      </trkpt>
      <trkpt lat="41.551269" lon="-4.818243">
        <ele>692.725</ele>
        <time>2017-09-19T09:36:32Z</time>
      </trkpt>
      <trkpt lat="41.551263" lon="-4.818301">
        <ele>692.284</ele>
        <time>2017-09-19T09:36:33Z</time>
      </trkpt>
      <trkpt lat="41.551256" lon="-4.818356">
        <ele>692.214</ele>
        <time>2017-09-19T09:36:34Z</time>
      </trkpt>
      <trkpt lat="41.551250" lon="-4.818414">
        <ele>692.276</ele>
        <time>2017-09-19T09:36:35Z</time>
      </trkpt>
      <trkpt lat="41.551229" lon="-4.818828">
        <ele>691.887</ele>
        <time>2017-09-19T09:36:42Z</time>
      </trkpt>
      <trkpt lat="41.551174" lon="-4.819811">
        <ele>691.842</ele>
        <time>2017-09-19T09:36:59Z</time>
      </trkpt>
      <trkpt lat="41.551127" lon="-4.820411">
        <ele>690.826</ele>
        <time>2017-09-19T09:37:09Z</time>
      </trkpt>
      <trkpt lat="41.551125" lon="-4.820468">
        <ele>690.808</ele>
        <time>2017-09-19T09:37:10Z</time>
      </trkpt>
      <trkpt lat="41.551112" lon="-4.820642">
        <ele>690.339</ele>
        <time>2017-09-19T09:37:13Z</time>
      </trkpt>
      <trkpt lat="41.551029" lon="-4.821656">
        <ele>689.457</ele>
        <time>2017-09-19T09:37:30Z</time>
      </trkpt>
      <trkpt lat="41.550993" lon="-4.822123">
        <ele>689.827</ele>
        <time>2017-09-19T09:37:38Z</time>
      </trkpt>
      <trkpt lat="41.550990" lon="-4.822179">
        <ele>689.831</ele>
        <time>2017-09-19T09:37:39Z</time>
      </trkpt>
      <trkpt lat="41.550927" lon="-4.822754">
        <ele>688.979</ele>
        <time>2017-09-19T09:37:49Z</time>
      </trkpt>
      <trkpt lat="41.550789" lon="-4.823627">
        <ele>688.918</ele>
        <time>2017-09-19T09:38:04Z</time>
      </trkpt>
      <trkpt lat="41.550639" lon="-4.824443">
        <ele>691.828</ele>
        <time>2017-09-19T09:38:19Z</time>
      </trkpt>
      <trkpt lat="41.550451" lon="-4.825352">
        <ele>690.370</ele>
        <time>2017-09-19T09:38:35Z</time>
      </trkpt>
      <trkpt lat="41.550371" lon="-4.825758">
        <ele>690.856</ele>
        <time>2017-09-19T09:38:42Z</time>
      </trkpt>
      <trkpt lat="41.550352" lon="-4.825872">
        <ele>690.859</ele>
        <time>2017-09-19T09:38:44Z</time>
      </trkpt>
      <trkpt lat="41.550264" lon="-4.826320">
        <ele>690.814</ele>
        <time>2017-09-19T09:38:52Z</time>
      </trkpt>
      <trkpt lat="41.550254" lon="-4.826375">
        <ele>690.808</ele>
        <time>2017-09-19T09:38:53Z</time>
      </trkpt>
      <trkpt lat="41.550087" lon="-4.827298">
        <ele>689.846</ele>
        <time>2017-09-19T09:39:10Z</time>
      </trkpt>
      <trkpt lat="41.549896" lon="-4.828237">
        <ele>690.364</ele>
        <time>2017-09-19T09:39:27Z</time>
      </trkpt>
      <trkpt lat="41.549726" lon="-4.829136">
        <ele>690.324</ele>
        <time>2017-09-19T09:39:43Z</time>
      </trkpt>
      <trkpt lat="41.549544" lon="-4.830077">
        <ele>690.358</ele>
        <time>2017-09-19T09:39:59Z</time>
      </trkpt>
      <trkpt lat="41.549356" lon="-4.831072">
        <ele>690.396</ele>
        <time>2017-09-19T09:40:16Z</time>
      </trkpt>
      <trkpt lat="41.549171" lon="-4.831997">
        <ele>689.895</ele>
        <time>2017-09-19T09:40:33Z</time>
      </trkpt>
      <trkpt lat="41.549111" lon="-4.832424">
        <ele>689.845</ele>
        <time>2017-09-19T09:40:41Z</time>
      </trkpt>
      <trkpt lat="41.549113" lon="-4.832480">
        <ele>689.497</ele>
        <time>2017-09-19T09:40:42Z</time>
      </trkpt>
      <trkpt lat="41.549120" lon="-4.832538">
        <ele>689.489</ele>
        <time>2017-09-19T09:40:43Z</time>
      </trkpt>
      <trkpt lat="41.549442" lon="-4.833278">
        <ele>687.906</ele>
        <time>2017-09-19T09:40:58Z</time>
      </trkpt>
      <trkpt lat="41.549923" lon="-4.834205">
        <ele>686.526</ele>
        <time>2017-09-19T09:41:18Z</time>
      </trkpt>
      <trkpt lat="41.549953" lon="-4.834243">
        <ele>686.508</ele>
        <time>2017-09-19T09:41:19Z</time>
      </trkpt>
      <trkpt lat="41.550058" lon="-4.834345">
        <ele>685.529</ele>
        <time>2017-09-19T09:41:22Z</time>
      </trkpt>
      <trkpt lat="41.550136" lon="-4.834399">
        <ele>685.017</ele>
        <time>2017-09-19T09:41:24Z</time>
      </trkpt>
      <trkpt lat="41.550559" lon="-4.834552">
        <ele>684.617</ele>
        <time>2017-09-19T09:41:34Z</time>
      </trkpt>
      <trkpt lat="41.550682" lon="-4.834589">
        <ele>684.151</ele>
        <time>2017-09-19T09:41:37Z</time>
      </trkpt>
      <trkpt lat="41.550764" lon="-4.834603">
        <ele>684.189</ele>
        <time>2017-09-19T09:41:39Z</time>
      </trkpt>
      <trkpt lat="41.550962" lon="-4.834664">
        <ele>684.698</ele>
        <time>2017-09-19T09:41:44Z</time>
      </trkpt>
      <trkpt lat="41.551002" lon="-4.834675">
        <ele>685.058</ele>
        <time>2017-09-19T09:41:45Z</time>
      </trkpt>
      <trkpt lat="41.551289" lon="-4.834764">
        <ele>685.030</ele>
        <time>2017-09-19T09:41:52Z</time>
      </trkpt>
      <trkpt lat="41.551561" lon="-4.834847">
        <ele>684.618</ele>
        <time>2017-09-19T09:41:59Z</time>
      </trkpt>
      <trkpt lat="41.552193" lon="-4.835050">
        <ele>683.698</ele>
        <time>2017-09-19T09:42:14Z</time>
      </trkpt>
      <trkpt lat="41.552270" lon="-4.835082">
        <ele>683.617</ele>
        <time>2017-09-19T09:42:16Z</time>
      </trkpt>
      <trkpt lat="41.553016" lon="-4.835303">
        <ele>683.108</ele>
        <time>2017-09-19T09:42:35Z</time>
      </trkpt>
      <trkpt lat="41.553662" lon="-4.835504">
        <ele>681.772</ele>
        <time>2017-09-19T09:42:53Z</time>
      </trkpt>
      <trkpt lat="41.554342" lon="-4.835715">
        <ele>681.240</ele>
        <time>2017-09-19T09:43:12Z</time>
      </trkpt>
      <trkpt lat="41.554837" lon="-4.835871">
        <ele>680.720</ele>
        <time>2017-09-19T09:43:24Z</time>
      </trkpt>
      <trkpt lat="41.555338" lon="-4.836026">
        <ele>681.724</ele>
        <time>2017-09-19T09:43:37Z</time>
      </trkpt>
      <trkpt lat="41.555974" lon="-4.836225">
        <ele>683.172</ele>
        <time>2017-09-19T09:43:54Z</time>
      </trkpt>
      <trkpt lat="41.556197" lon="-4.836409">
        <ele>683.611</ele>
        <time>2017-09-19T09:44:02Z</time>
      </trkpt>
      <trkpt lat="41.556199" lon="-4.836457">
        <ele>683.181</ele>
        <time>2017-09-19T09:44:03Z</time>
      </trkpt>
      <trkpt lat="41.556217" lon="-4.837004">
        <ele>681.243</ele>
        <time>2017-09-19T09:44:13Z</time>
      </trkpt>
      <trkpt lat="41.556236" lon="-4.837119">
        <ele>681.787</ele>
        <time>2017-09-19T09:44:15Z</time>
      </trkpt>
      <trkpt lat="41.556248" lon="-4.837177">
        <ele>681.742</ele>
        <time>2017-09-19T09:44:16Z</time>
      </trkpt>
      <trkpt lat="41.556257" lon="-4.837236">
        <ele>681.726</ele>
        <time>2017-09-19T09:44:17Z</time>
      </trkpt>
      <trkpt lat="41.556388" lon="-4.838268">
        <ele>682.608</ele>
        <time>2017-09-19T09:44:35Z</time>
      </trkpt>
      <trkpt lat="41.556411" lon="-4.838729">
        <ele>682.179</ele>
        <time>2017-09-19T09:44:43Z</time>
      </trkpt>
      <trkpt lat="41.556411" lon="-4.838789">
        <ele>682.147</ele>
        <time>2017-09-19T09:44:44Z</time>
      </trkpt>
      <trkpt lat="41.556411" lon="-4.838849">
        <ele>681.737</ele>
        <time>2017-09-19T09:44:45Z</time>
      </trkpt>
      <trkpt lat="41.556412" lon="-4.839093">
        <ele>681.771</ele>
        <time>2017-09-19T09:44:49Z</time>
      </trkpt>
      <trkpt lat="41.556411" lon="-4.839506">
        <ele>680.719</ele>
        <time>2017-09-19T09:44:56Z</time>
      </trkpt>
      <trkpt lat="41.556515" lon="-4.840231">
        <ele>681.218</ele>
        <time>2017-09-19T09:45:09Z</time>
      </trkpt>
      <trkpt lat="41.556513" lon="-4.840288">
        <ele>681.288</ele>
        <time>2017-09-19T09:45:10Z</time>
      </trkpt>
      <trkpt lat="41.556507" lon="-4.840346">
        <ele>681.270</ele>
        <time>2017-09-19T09:45:11Z</time>
      </trkpt>
      <trkpt lat="41.556502" lon="-4.840404">
        <ele>680.776</ele>
        <time>2017-09-19T09:45:12Z</time>
      </trkpt>
      <trkpt lat="41.556498" lon="-4.840461">
        <ele>680.790</ele>
        <time>2017-09-19T09:45:13Z</time>
      </trkpt>
      <trkpt lat="41.556467" lon="-4.840686">
        <ele>680.719</ele>
        <time>2017-09-19T09:45:17Z</time>
      </trkpt>
      <trkpt lat="41.556464" lon="-4.840744">
        <ele>680.708</ele>
        <time>2017-09-19T09:45:18Z</time>
      </trkpt>
      <trkpt lat="41.556474" lon="-4.841257">
        <ele>680.278</ele>
        <time>2017-09-19T09:45:27Z</time>
      </trkpt>
      <trkpt lat="41.556434" lon="-4.841757">
        <ele>679.376</ele>
        <time>2017-09-19T09:45:36Z</time>
      </trkpt>
      <trkpt lat="41.556309" lon="-4.842602">
        <ele>681.276</ele>
        <time>2017-09-19T09:45:51Z</time>
      </trkpt>
      <trkpt lat="41.556196" lon="-4.843171">
        <ele>683.120</ele>
        <time>2017-09-19T09:46:02Z</time>
      </trkpt>
      <trkpt lat="41.556063" lon="-4.843846">
        <ele>682.188</ele>
        <time>2017-09-19T09:46:15Z</time>
      </trkpt>
      <trkpt lat="41.555988" lon="-4.844578">
        <ele>681.717</ele>
        <time>2017-09-19T09:46:30Z</time>
      </trkpt>
      <trkpt lat="41.556051" lon="-4.845311">
        <ele>678.817</ele>
        <time>2017-09-19T09:46:45Z</time>
      </trkpt>
      <trkpt lat="41.556134" lon="-4.846048">
        <ele>676.439</ele>
        <time>2017-09-19T09:46:59Z</time>
      </trkpt>
      <trkpt lat="41.556176" lon="-4.846383">
        <ele>676.919</ele>
        <time>2017-09-19T09:47:05Z</time>
      </trkpt>
      <trkpt lat="41.556183" lon="-4.846549">
        <ele>676.409</ele>
        <time>2017-09-19T09:47:08Z</time>
      </trkpt>
      <trkpt lat="41.556161" lon="-4.847005">
        <ele>675.419</ele>
        <time>2017-09-19T09:47:16Z</time>
      </trkpt>
      <trkpt lat="41.556158" lon="-4.847060">
        <ele>675.408</ele>
        <time>2017-09-19T09:47:17Z</time>
      </trkpt>
      <trkpt lat="41.556154" lon="-4.847116">
        <ele>675.462</ele>
        <time>2017-09-19T09:47:18Z</time>
      </trkpt>
      <trkpt lat="41.556150" lon="-4.847763">
        <ele>673.020</ele>
        <time>2017-09-19T09:47:31Z</time>
      </trkpt>
      <trkpt lat="41.556037" lon="-4.848274">
        <ele>671.610</ele>
        <time>2017-09-19T09:47:42Z</time>
      </trkpt>
      <trkpt lat="41.555848" lon="-4.848985">
        <ele>670.644</ele>
        <time>2017-09-19T09:47:56Z</time>
      </trkpt>
      <trkpt lat="41.555802" lon="-4.849152">
        <ele>671.192</ele>
        <time>2017-09-19T09:47:59Z</time>
      </trkpt>
      <trkpt lat="41.555791" lon="-4.849210">
        <ele>671.651</ele>
        <time>2017-09-19T09:48:00Z</time>
      </trkpt>
      <trkpt lat="41.555775" lon="-4.849272">
        <ele>672.141</ele>
        <time>2017-09-19T09:48:01Z</time>
      </trkpt>
      <trkpt lat="41.555735" lon="-4.849382">
        <ele>673.563</ele>
        <time>2017-09-19T09:48:03Z</time>
      </trkpt>
      <trkpt lat="41.555545" lon="-4.849727">
        <ele>676.417</ele>
        <time>2017-09-19T09:48:10Z</time>
      </trkpt>
      <trkpt lat="41.555355" lon="-4.849937">
        <ele>677.887</ele>
        <time>2017-09-19T09:48:16Z</time>
      </trkpt>
      <trkpt lat="41.554946" lon="-4.850397">
        <ele>679.715</ele>
        <time>2017-09-19T09:48:30Z</time>
      </trkpt>
      <trkpt lat="41.554486" lon="-4.850901">
        <ele>681.208</ele>
        <time>2017-09-19T09:48:45Z</time>
      </trkpt>
      <trkpt lat="41.554020" lon="-4.851408">
        <ele>680.712</ele>
        <time>2017-09-19T09:49:00Z</time>
      </trkpt>
      <trkpt lat="41.553749" lon="-4.851740">
        <ele>681.280</ele>
        <time>2017-09-19T09:49:09Z</time>
      </trkpt>
      <trkpt lat="41.553604" lon="-4.851869">
        <ele>681.250</ele>
        <time>2017-09-19T09:49:13Z</time>
      </trkpt>
      <trkpt lat="41.553569" lon="-4.851907">
        <ele>681.264</ele>
        <time>2017-09-19T09:49:14Z</time>
      </trkpt>
      <trkpt lat="41.553538" lon="-4.851947">
        <ele>681.232</ele>
        <time>2017-09-19T09:49:15Z</time>
      </trkpt>
      <trkpt lat="41.553420" lon="-4.852112">
        <ele>680.731</ele>
        <time>2017-09-19T09:49:19Z</time>
      </trkpt>
      <trkpt lat="41.553330" lon="-4.852297">
        <ele>680.711</ele>
        <time>2017-09-19T09:49:23Z</time>
      </trkpt>
      <trkpt lat="41.553084" lon="-4.852665">
        <ele>681.263</ele>
        <time>2017-09-19T09:49:34Z</time>
      </trkpt>
      <trkpt lat="41.552735" lon="-4.853213">
        <ele>680.714</ele>
        <time>2017-09-19T09:49:49Z</time>
      </trkpt>
      <trkpt lat="41.552665" lon="-4.853337">
        <ele>680.754</ele>
        <time>2017-09-19T09:49:52Z</time>
      </trkpt>
      <trkpt lat="41.552222" lon="-4.853736">
        <ele>681.709</ele>
        <time>2017-09-19T09:50:06Z</time>
      </trkpt>
      <trkpt lat="41.551711" lon="-4.854213">
        <ele>681.208</ele>
        <time>2017-09-19T09:50:22Z</time>
      </trkpt>
      <trkpt lat="41.551229" lon="-4.854501">
        <ele>680.742</ele>
        <time>2017-09-19T09:50:36Z</time>
      </trkpt>
      <trkpt lat="41.550736" lon="-4.854610">
        <ele>680.730</ele>
        <time>2017-09-19T09:50:50Z</time>
      </trkpt>
      <trkpt lat="41.550274" lon="-4.854547">
        <ele>680.790</ele>
        <time>2017-09-19T09:51:03Z</time>
      </trkpt>
      <trkpt lat="41.549826" lon="-4.854590">
        <ele>680.234</ele>
        <time>2017-09-19T09:51:17Z</time>
      </trkpt>
      <trkpt lat="41.549415" lon="-4.854647">
        <ele>679.742</ele>
        <time>2017-09-19T09:51:29Z</time>
      </trkpt>
      <trkpt lat="41.548928" lon="-4.854563">
        <ele>679.791</ele>
        <time>2017-09-19T09:51:43Z</time>
      </trkpt>
      <trkpt lat="41.548400" lon="-4.854542">
        <ele>679.741</ele>
        <time>2017-09-19T09:51:58Z</time>
      </trkpt>
      <trkpt lat="41.547882" lon="-4.854497">
        <ele>678.893</ele>
        <time>2017-09-19T09:52:13Z</time>
      </trkpt>
      <trkpt lat="41.547284" lon="-4.854416">
        <ele>678.392</ele>
        <time>2017-09-19T09:52:30Z</time>
      </trkpt>
      <trkpt lat="41.546881" lon="-4.854247">
        <ele>679.373</ele>
        <time>2017-09-19T09:52:43Z</time>
      </trkpt>
      <trkpt lat="41.546656" lon="-4.853922">
        <ele>681.720</ele>
        <time>2017-09-19T09:52:56Z</time>
      </trkpt>
      <trkpt lat="41.546432" lon="-4.853805">
        <ele>681.708</ele>
        <time>2017-09-19T09:53:07Z</time>
      </trkpt>
      <trkpt lat="41.546005" lon="-4.853850">
        <ele>681.740</ele>
        <time>2017-09-19T09:53:22Z</time>
      </trkpt>
      <trkpt lat="41.545563" lon="-4.853878">
        <ele>680.728</ele>
        <time>2017-09-19T09:53:35Z</time>
      </trkpt>
      <trkpt lat="41.545105" lon="-4.853930">
        <ele>680.228</ele>
        <time>2017-09-19T09:53:49Z</time>
      </trkpt>
      <trkpt lat="41.544690" lon="-4.853965">
        <ele>680.222</ele>
        <time>2017-09-19T09:54:02Z</time>
      </trkpt>
      <trkpt lat="41.544295" lon="-4.853984">
        <ele>680.240</ele>
        <time>2017-09-19T09:54:15Z</time>
      </trkpt>
      <trkpt lat="41.543842" lon="-4.854043">
        <ele>681.739</ele>
        <time>2017-09-19T09:54:30Z</time>
      </trkpt>
      <trkpt lat="41.543352" lon="-4.854055">
        <ele>681.259</ele>
        <time>2017-09-19T09:54:45Z</time>
      </trkpt>
      <trkpt lat="41.542779" lon="-4.854076">
        <ele>680.231</ele>
        <time>2017-09-19T09:55:01Z</time>
      </trkpt>
      <trkpt lat="41.542259" lon="-4.854071">
        <ele>680.255</ele>
        <time>2017-09-19T09:55:16Z</time>
      </trkpt>
      <trkpt lat="41.541667" lon="-4.854150">
        <ele>680.707</ele>
        <time>2017-09-19T09:55:33Z</time>
      </trkpt>
      <trkpt lat="41.541291" lon="-4.854225">
        <ele>680.717</ele>
        <time>2017-09-19T09:55:46Z</time>
      </trkpt>
      <trkpt lat="41.540796" lon="-4.854232">
        <ele>680.708</ele>
        <time>2017-09-19T09:56:02Z</time>
      </trkpt>
      <trkpt lat="41.540339" lon="-4.854250">
        <ele>681.786</ele>
        <time>2017-09-19T09:56:18Z</time>
      </trkpt>
      <trkpt lat="41.539898" lon="-4.854276">
        <ele>681.254</ele>
        <time>2017-09-19T09:56:33Z</time>
      </trkpt>
      <trkpt lat="41.539435" lon="-4.854317">
        <ele>682.144</ele>
        <time>2017-09-19T09:56:48Z</time>
      </trkpt>
      <trkpt lat="41.539027" lon="-4.854384">
        <ele>681.728</ele>
        <time>2017-09-19T09:57:01Z</time>
      </trkpt>
      <trkpt lat="41.538572" lon="-4.854434">
        <ele>681.796</ele>
        <time>2017-09-19T09:57:15Z</time>
      </trkpt>
      <trkpt lat="41.538028" lon="-4.854476">
        <ele>680.755</ele>
        <time>2017-09-19T09:57:32Z</time>
      </trkpt>
      <trkpt lat="41.537527" lon="-4.854530">
        <ele>680.265</ele>
        <time>2017-09-19T09:57:47Z</time>
      </trkpt>
      <trkpt lat="41.537014" lon="-4.854551">
        <ele>679.717</ele>
        <time>2017-09-19T09:58:03Z</time>
      </trkpt>
      <trkpt lat="41.536607" lon="-4.854579">
        <ele>680.736</ele>
        <time>2017-09-19T09:58:16Z</time>
      </trkpt>
      <trkpt lat="41.536013" lon="-4.854618">
        <ele>681.717</ele>
        <time>2017-09-19T09:58:33Z</time>
      </trkpt>
      <trkpt lat="41.535493" lon="-4.854648">
        <ele>683.118</ele>
        <time>2017-09-19T09:58:47Z</time>
      </trkpt>
      <trkpt lat="41.534890" lon="-4.854605">
        <ele>681.708</ele>
        <time>2017-09-19T09:59:04Z</time>
      </trkpt>
      <trkpt lat="41.534360" lon="-4.854635">
        <ele>682.634</ele>
        <time>2017-09-19T09:59:19Z</time>
      </trkpt>
      <trkpt lat="41.534029" lon="-4.854224">
        <ele>682.692</ele>
        <time>2017-09-19T09:59:33Z</time>
      </trkpt>
      <trkpt lat="41.533880" lon="-4.853660">
        <ele>682.122</ele>
        <time>2017-09-19T09:59:47Z</time>
      </trkpt>
      <trkpt lat="41.533689" lon="-4.852970">
        <ele>681.776</ele>
        <time>2017-09-19T10:00:03Z</time>
      </trkpt>
      <trkpt lat="41.533496" lon="-4.852283">
        <ele>681.254</ele>
        <time>2017-09-19T10:00:19Z</time>
      </trkpt>
      <trkpt lat="41.533331" lon="-4.851698">
        <ele>681.713</ele>
        <time>2017-09-19T10:00:33Z</time>
      </trkpt>
      <trkpt lat="41.533143" lon="-4.851069">
        <ele>681.763</ele>
        <time>2017-09-19T10:00:49Z</time>
      </trkpt>
      <trkpt lat="41.533021" lon="-4.850671">
        <ele>681.215</ele>
        <time>2017-09-19T10:01:00Z</time>
      </trkpt>
      <trkpt lat="41.532850" lon="-4.850043">
        <ele>681.299</ele>
        <time>2017-09-19T10:01:16Z</time>
      </trkpt>
      <trkpt lat="41.532655" lon="-4.849350">
        <ele>681.707</ele>
        <time>2017-09-19T10:01:33Z</time>
      </trkpt>
      <trkpt lat="41.532498" lon="-4.848723">
        <ele>682.127</ele>
        <time>2017-09-19T10:01:48Z</time>
      </trkpt>
      <trkpt lat="41.532329" lon="-4.848119">
        <ele>682.108</ele>
        <time>2017-09-19T10:02:03Z</time>
      </trkpt>
      <trkpt lat="41.532129" lon="-4.847489">
        <ele>682.650</ele>
        <time>2017-09-19T10:02:19Z</time>
      </trkpt>
      <trkpt lat="41.531887" lon="-4.846632">
        <ele>682.198</ele>
        <time>2017-09-19T10:02:39Z</time>
      </trkpt>
      <trkpt lat="41.531710" lon="-4.846009">
        <ele>682.198</ele>
        <time>2017-09-19T10:02:55Z</time>
      </trkpt>
      <trkpt lat="41.531553" lon="-4.845424">
        <ele>682.652</ele>
        <time>2017-09-19T10:03:11Z</time>
      </trkpt>
      <trkpt lat="41.531405" lon="-4.844881">
        <ele>682.610</ele>
        <time>2017-09-19T10:03:26Z</time>
      </trkpt>
      <trkpt lat="41.531291" lon="-4.844472">
        <ele>682.179</ele>
        <time>2017-09-19T10:03:39Z</time>
      </trkpt>
      <trkpt lat="41.531161" lon="-4.844003">
        <ele>682.129</ele>
        <time>2017-09-19T10:03:53Z</time>
      </trkpt>
      <trkpt lat="41.530980" lon="-4.843336">
        <ele>683.181</ele>
        <time>2017-09-19T10:04:12Z</time>
      </trkpt>
      <trkpt lat="41.530797" lon="-4.842684">
        <ele>683.176</ele>
        <time>2017-09-19T10:04:30Z</time>
      </trkpt>
      <trkpt lat="41.530666" lon="-4.842229">
        <ele>683.690</ele>
        <time>2017-09-19T10:04:43Z</time>
      </trkpt>
      <trkpt lat="41.530521" lon="-4.841683">
        <ele>684.119</ele>
        <time>2017-09-19T10:04:59Z</time>
      </trkpt>
      <trkpt lat="41.530381" lon="-4.841194">
        <ele>684.108</ele>
        <time>2017-09-19T10:05:15Z</time>
      </trkpt>
      <trkpt lat="41.530259" lon="-4.840741">
        <ele>684.168</ele>
        <time>2017-09-19T10:05:30Z</time>
      </trkpt>
      <trkpt lat="41.530189" lon="-4.840614">
        <ele>683.626</ele>
        <time>2017-09-19T10:05:35Z</time>
      </trkpt>
      <trkpt lat="41.530162" lon="-4.840606">
        <ele>683.616</ele>
        <time>2017-09-19T10:05:36Z</time>
      </trkpt>
      <trkpt lat="41.530131" lon="-4.840615">
        <ele>683.670</ele>
        <time>2017-09-19T10:05:37Z</time>
      </trkpt>
      <trkpt lat="41.530111" lon="-4.840647">
        <ele>683.638</ele>
        <time>2017-09-19T10:05:38Z</time>
      </trkpt>
      <trkpt lat="41.530100" lon="-4.840684">
        <ele>683.697</ele>
        <time>2017-09-19T10:05:39Z</time>
      </trkpt>
      <trkpt lat="41.530088" lon="-4.840730">
        <ele>683.657</ele>
        <time>2017-09-19T10:05:40Z</time>
      </trkpt>
      <trkpt lat="41.530081" lon="-4.840776">
        <ele>683.619</ele>
        <time>2017-09-19T10:05:41Z</time>
      </trkpt>
      <trkpt lat="41.530061" lon="-4.840886">
        <ele>683.616</ele>
        <time>2017-09-19T10:05:43Z</time>
      </trkpt>
      <trkpt lat="41.530063" lon="-4.841841">
        <ele>684.176</ele>
        <time>2017-09-19T10:05:57Z</time>
      </trkpt>
      <trkpt lat="41.530195" lon="-4.842997">
        <ele>684.113</ele>
        <time>2017-09-19T10:06:15Z</time>
      </trkpt>
      <trkpt lat="41.530138" lon="-4.842951">
        <ele>684.108</ele>
        <time>2017-09-19T10:06:19Z</time>
      </trkpt>
      <trkpt lat="41.530133" lon="-4.842918">
        <ele>684.152</ele>
        <time>2017-09-19T10:06:20Z</time>
      </trkpt>
      <trkpt lat="41.530131" lon="-4.842885">
        <ele>684.120</ele>
        <time>2017-09-19T10:06:21Z</time>
      </trkpt>
      <trkpt lat="41.530026" lon="-4.842224">
        <ele>684.610</ele>
        <time>2017-09-19T10:06:34Z</time>
      </trkpt>
      <trkpt lat="41.529985" lon="-4.841006">
        <ele>684.644</ele>
        <time>2017-09-19T10:06:53Z</time>
      </trkpt>
      <trkpt lat="41.530136" lon="-4.840300">
        <ele>684.172</ele>
        <time>2017-09-19T10:07:05Z</time>
      </trkpt>
      <trkpt lat="41.530232" lon="-4.840027">
        <ele>683.621</ele>
        <time>2017-09-19T10:07:11Z</time>
      </trkpt>
      <trkpt lat="41.530222" lon="-4.839994">
        <ele>683.671</ele>
        <time>2017-09-19T10:07:12Z</time>
      </trkpt>
      <trkpt lat="41.530193" lon="-4.839972">
        <ele>683.673</ele>
        <time>2017-09-19T10:07:13Z</time>
      </trkpt>
      <trkpt lat="41.530178" lon="-4.839976">
        <ele>683.699</ele>
        <time>2017-09-19T10:07:14Z</time>
      </trkpt>
      <trkpt lat="41.530161" lon="-4.839996">
        <ele>683.607</ele>
        <time>2017-09-19T10:07:15Z</time>
      </trkpt>
      <trkpt lat="41.530147" lon="-4.840027">
        <ele>683.627</ele>
        <time>2017-09-19T10:07:16Z</time>
      </trkpt>
      <trkpt lat="41.530136" lon="-4.840066">
        <ele>683.608</ele>
        <time>2017-09-19T10:07:17Z</time>
      </trkpt>
      <trkpt lat="41.530130" lon="-4.840112">
        <ele>683.620</ele>
        <time>2017-09-19T10:07:18Z</time>
      </trkpt>
      <trkpt lat="41.530126" lon="-4.840154">
        <ele>683.698</ele>
        <time>2017-09-19T10:07:19Z</time>
      </trkpt>
      <trkpt lat="41.530112" lon="-4.840203">
        <ele>684.178</ele>
        <time>2017-09-19T10:07:20Z</time>
      </trkpt>
      <trkpt lat="41.530097" lon="-4.840234">
        <ele>683.622</ele>
        <time>2017-09-19T10:07:21Z</time>
      </trkpt>
      <trkpt lat="41.530005" lon="-4.840566">
        <ele>683.130</ele>
        <time>2017-09-19T10:07:28Z</time>
      </trkpt>
      <trkpt lat="41.529966" lon="-4.840667">
        <ele>683.159</ele>
        <time>2017-09-19T10:07:30Z</time>
      </trkpt>
      <trkpt lat="41.529953" lon="-4.840722">
        <ele>683.169</ele>
        <time>2017-09-19T10:07:31Z</time>
      </trkpt>
      <trkpt lat="41.529946" lon="-4.840781">
        <ele>683.131</ele>
        <time>2017-09-19T10:07:32Z</time>
      </trkpt>
      <trkpt lat="41.529740" lon="-4.841734">
        <ele>681.786</ele>
        <time>2017-09-19T10:07:46Z</time>
      </trkpt>
      <trkpt lat="41.529629" lon="-4.842040">
        <ele>681.760</ele>
        <time>2017-09-19T10:07:51Z</time>
      </trkpt>
      <trkpt lat="41.529614" lon="-4.842102">
        <ele>681.726</ele>
        <time>2017-09-19T10:07:52Z</time>
      </trkpt>
      <trkpt lat="41.529591" lon="-4.842228">
        <ele>681.708</ele>
        <time>2017-09-19T10:07:54Z</time>
      </trkpt>
      <trkpt lat="41.529462" lon="-4.842597">
        <ele>682.129</ele>
        <time>2017-09-19T10:08:00Z</time>
      </trkpt>
      <trkpt lat="41.529277" lon="-4.842872">
        <ele>683.137</ele>
        <time>2017-09-19T10:08:06Z</time>
      </trkpt>
      <trkpt lat="41.528705" lon="-4.843199">
        <ele>683.157</ele>
        <time>2017-09-19T10:08:21Z</time>
      </trkpt>
      <trkpt lat="41.528639" lon="-4.843533">
        <ele>683.151</ele>
        <time>2017-09-19T10:08:29Z</time>
      </trkpt>
      <trkpt lat="41.528682" lon="-4.843624">
        <ele>682.619</ele>
        <time>2017-09-19T10:08:31Z</time>
      </trkpt>
      <trkpt lat="41.528706" lon="-4.843664">
        <ele>682.618</ele>
        <time>2017-09-19T10:08:32Z</time>
      </trkpt>
      <trkpt lat="41.528725" lon="-4.843699">
        <ele>682.648</ele>
        <time>2017-09-19T10:08:33Z</time>
      </trkpt>
      <trkpt lat="41.528737" lon="-4.843730">
        <ele>682.170</ele>
        <time>2017-09-19T10:08:34Z</time>
      </trkpt>
      <trkpt lat="41.528740" lon="-4.843755">
        <ele>682.195</ele>
        <time>2017-09-19T10:08:35Z</time>
      </trkpt>
      <trkpt lat="41.528734" lon="-4.843775">
        <ele>682.149</ele>
        <time>2017-09-19T10:08:36Z</time>
      </trkpt>
      <trkpt lat="41.528721" lon="-4.843775">
        <ele>682.123</ele>
        <time>2017-09-19T10:08:37Z</time>
      </trkpt>
      <trkpt lat="41.528705" lon="-4.843758">
        <ele>682.108</ele>
        <time>2017-09-19T10:08:38Z</time>
      </trkpt>
      <trkpt lat="41.528693" lon="-4.843742">
        <ele>682.160</ele>
        <time>2017-09-19T10:08:39Z</time>
      </trkpt>
      <trkpt lat="41.528680" lon="-4.843720">
        <ele>682.688</ele>
        <time>2017-09-19T10:08:40Z</time>
      </trkpt>
      <trkpt lat="41.528669" lon="-4.843696">
        <ele>682.698</ele>
        <time>2017-09-19T10:08:41Z</time>
      </trkpt>
      <trkpt lat="41.528489" lon="-4.843290">
        <ele>684.142</ele>
        <time>2017-09-19T10:08:55Z</time>
      </trkpt>
      <trkpt lat="41.528317" lon="-4.842691">
        <ele>683.180</ele>
        <time>2017-09-19T10:09:07Z</time>
      </trkpt>
      <trkpt lat="41.528109" lon="-4.842416">
        <ele>685.049</ele>
        <time>2017-09-19T10:09:19Z</time>
      </trkpt>
      <trkpt lat="41.527865" lon="-4.842588">
        <ele>687.489</ele>
        <time>2017-09-19T10:09:33Z</time>
      </trkpt>
      <trkpt lat="41.527693" lon="-4.842987">
        <ele>689.481</ele>
        <time>2017-09-19T10:09:48Z</time>
      </trkpt>
      <trkpt lat="41.527553" lon="-4.843380">
        <ele>690.884</ele>
        <time>2017-09-19T10:10:03Z</time>
      </trkpt>
      <trkpt lat="41.527444" lon="-4.843690">
        <ele>689.807</ele>
        <time>2017-09-19T10:10:16Z</time>
      </trkpt>
      <trkpt lat="41.527310" lon="-4.844096">
        <ele>691.317</ele>
        <time>2017-09-19T10:10:30Z</time>
      </trkpt>
      <trkpt lat="41.527131" lon="-4.844579">
        <ele>690.808</ele>
        <time>2017-09-19T10:10:46Z</time>
      </trkpt>
      <trkpt lat="41.527025" lon="-4.844900">
        <ele>690.399</ele>
        <time>2017-09-19T10:10:56Z</time>
      </trkpt>
      <trkpt lat="41.526847" lon="-4.845329">
        <ele>693.257</ele>
        <time>2017-09-19T10:11:09Z</time>
      </trkpt>
      <trkpt lat="41.526588" lon="-4.845904">
        <ele>695.667</ele>
        <time>2017-09-19T10:11:25Z</time>
      </trkpt>
      <trkpt lat="41.526280" lon="-4.846417">
        <ele>695.661</ele>
        <time>2017-09-19T10:11:39Z</time>
      </trkpt>
      <trkpt lat="41.525847" lon="-4.847114">
        <ele>693.279</ele>
        <time>2017-09-19T10:11:57Z</time>
      </trkpt>
      <trkpt lat="41.525319" lon="-4.847803">
        <ele>692.248</ele>
        <time>2017-09-19T10:12:14Z</time>
      </trkpt>
      <trkpt lat="41.524920" lon="-4.848260">
        <ele>692.778</ele>
        <time>2017-09-19T10:12:28Z</time>
      </trkpt>
      <trkpt lat="41.524422" lon="-4.848871">
        <ele>691.850</ele>
        <time>2017-09-19T10:12:46Z</time>
      </trkpt>
      <trkpt lat="41.524008" lon="-4.849404">
        <ele>692.794</ele>
        <time>2017-09-19T10:13:02Z</time>
      </trkpt>
      <trkpt lat="41.523637" lon="-4.849857">
        <ele>693.757</ele>
        <time>2017-09-19T10:13:16Z</time>
      </trkpt>
      <trkpt lat="41.523262" lon="-4.850274">
        <ele>693.722</ele>
        <time>2017-09-19T10:13:30Z</time>
      </trkpt>
      <trkpt lat="41.522953" lon="-4.850644">
        <ele>693.708</ele>
        <time>2017-09-19T10:13:43Z</time>
      </trkpt>
      <trkpt lat="41.522667" lon="-4.851005">
        <ele>693.790</ele>
        <time>2017-09-19T10:13:55Z</time>
      </trkpt>
      <trkpt lat="41.522450" lon="-4.851314">
        <ele>693.758</ele>
        <time>2017-09-19T10:14:07Z</time>
      </trkpt>
      <trkpt lat="41.522182" lon="-4.851656">
        <ele>694.638</ele>
        <time>2017-09-19T10:14:21Z</time>
      </trkpt>
      <trkpt lat="41.521876" lon="-4.852094">
        <ele>694.222</ele>
        <time>2017-09-19T10:14:35Z</time>
      </trkpt>
      <trkpt lat="41.521331" lon="-4.852772">
        <ele>693.740</ele>
        <time>2017-09-19T10:14:57Z</time>
      </trkpt>
      <trkpt lat="41.520735" lon="-4.853414">
        <ele>693.769</ele>
        <time>2017-09-19T10:15:18Z</time>
      </trkpt>
      <trkpt lat="41.520364" lon="-4.853938">
        <ele>693.779</ele>
        <time>2017-09-19T10:15:34Z</time>
      </trkpt>
      <trkpt lat="41.519962" lon="-4.854622">
        <ele>693.241</ele>
        <time>2017-09-19T10:15:52Z</time>
      </trkpt>
      <trkpt lat="41.519604" lon="-4.855231">
        <ele>693.222</ele>
        <time>2017-09-19T10:16:08Z</time>
      </trkpt>
      <trkpt lat="41.519204" lon="-4.855785">
        <ele>693.262</ele>
        <time>2017-09-19T10:16:24Z</time>
      </trkpt>
      <trkpt lat="41.518696" lon="-4.856395">
        <ele>693.208</ele>
        <time>2017-09-19T10:16:42Z</time>
      </trkpt>
      <trkpt lat="41.518284" lon="-4.856885">
        <ele>693.708</ele>
        <time>2017-09-19T10:16:59Z</time>
      </trkpt>
      <trkpt lat="41.518000" lon="-4.857232">
        <ele>693.773</ele>
        <time>2017-09-19T10:17:16Z</time>
      </trkpt>
      <trkpt lat="41.517901" lon="-4.857685">
        <ele>693.741</ele>
        <time>2017-09-19T10:17:30Z</time>
      </trkpt>
      <trkpt lat="41.517840" lon="-4.858221">
        <ele>693.241</ele>
        <time>2017-09-19T10:17:45Z</time>
      </trkpt>
      <trkpt lat="41.517810" lon="-4.858683">
        <ele>693.245</ele>
        <time>2017-09-19T10:17:59Z</time>
      </trkpt>
      <trkpt lat="41.517771" lon="-4.859265">
        <ele>693.793</ele>
        <time>2017-09-19T10:18:15Z</time>
      </trkpt>
      <trkpt lat="41.517754" lon="-4.859843">
        <ele>693.272</ele>
        <time>2017-09-19T10:18:29Z</time>
      </trkpt>
      <trkpt lat="41.517794" lon="-4.860486">
        <ele>692.292</ele>
        <time>2017-09-19T10:18:44Z</time>
      </trkpt>
      <trkpt lat="41.517788" lon="-4.861169">
        <ele>691.884</ele>
        <time>2017-09-19T10:19:00Z</time>
      </trkpt>
      <trkpt lat="41.517774" lon="-4.861916">
        <ele>692.248</ele>
        <time>2017-09-19T10:19:18Z</time>
      </trkpt>
      <trkpt lat="41.517773" lon="-4.862439">
        <ele>692.261</ele>
        <time>2017-09-19T10:19:31Z</time>
      </trkpt>
      <trkpt lat="41.517772" lon="-4.862961">
        <ele>692.717</ele>
        <time>2017-09-19T10:19:44Z</time>
      </trkpt>
      <trkpt lat="41.517780" lon="-4.863509">
        <ele>691.808</ele>
        <time>2017-09-19T10:19:57Z</time>
      </trkpt>
      <trkpt lat="41.517766" lon="-4.864146">
        <ele>691.825</ele>
        <time>2017-09-19T10:20:11Z</time>
      </trkpt>
      <trkpt lat="41.517778" lon="-4.864730">
        <ele>691.823</ele>
        <time>2017-09-19T10:20:24Z</time>
      </trkpt>
      <trkpt lat="41.517737" lon="-4.865421">
        <ele>692.783</ele>
        <time>2017-09-19T10:20:39Z</time>
      </trkpt>
      <trkpt lat="41.517567" lon="-4.866241">
        <ele>693.227</ele>
        <time>2017-09-19T10:20:57Z</time>
      </trkpt>
      <trkpt lat="41.517541" lon="-4.866340">
        <ele>693.225</ele>
        <time>2017-09-19T10:20:59Z</time>
      </trkpt>
      <trkpt lat="41.517304" lon="-4.867217">
        <ele>691.384</ele>
        <time>2017-09-19T10:21:14Z</time>
      </trkpt>
      <trkpt lat="41.517284" lon="-4.867272">
        <ele>690.894</ele>
        <time>2017-09-19T10:21:15Z</time>
      </trkpt>
      <trkpt lat="41.517263" lon="-4.867340">
        <ele>690.846</ele>
        <time>2017-09-19T10:21:16Z</time>
      </trkpt>
      <trkpt lat="41.517220" lon="-4.867471">
        <ele>690.357</ele>
        <time>2017-09-19T10:21:18Z</time>
      </trkpt>
      <trkpt lat="41.517096" lon="-4.867777">
        <ele>690.800</ele>
        <time>2017-09-19T10:21:23Z</time>
      </trkpt>
      <trkpt lat="41.517021" lon="-4.867937">
        <ele>690.820</ele>
        <time>2017-09-19T10:21:26Z</time>
      </trkpt>
      <trkpt lat="41.516952" lon="-4.868117">
        <ele>690.308</ele>
        <time>2017-09-19T10:21:35Z</time>
      </trkpt>
      <trkpt lat="41.516894" lon="-4.868223">
        <ele>691.326</ele>
        <time>2017-09-19T10:21:43Z</time>
      </trkpt>
      <trkpt lat="41.516805" lon="-4.868360">
        <ele>690.844</ele>
        <time>2017-09-19T10:21:47Z</time>
      </trkpt>
      <trkpt lat="41.516772" lon="-4.868401">
        <ele>690.844</ele>
        <time>2017-09-19T10:21:48Z</time>
      </trkpt>
      <trkpt lat="41.516442" lon="-4.868715">
        <ele>688.988</ele>
        <time>2017-09-19T10:21:59Z</time>
      </trkpt>
      <trkpt lat="41.516010" lon="-4.869199">
        <ele>686.076</ele>
        <time>2017-09-19T10:22:13Z</time>
      </trkpt>
      <trkpt lat="41.516018" lon="-4.869646">
        <ele>685.565</ele>
        <time>2017-09-19T10:22:24Z</time>
      </trkpt>
      <trkpt lat="41.516053" lon="-4.870287">
        <ele>685.035</ele>
        <time>2017-09-19T10:22:38Z</time>
      </trkpt>
      <trkpt lat="41.515732" lon="-4.870691">
        <ele>685.517</ele>
        <time>2017-09-19T10:22:51Z</time>
      </trkpt>
      <trkpt lat="41.515344" lon="-4.871163">
        <ele>686.079</ele>
        <time>2017-09-19T10:23:06Z</time>
      </trkpt>
      <trkpt lat="41.514987" lon="-4.871544">
        <ele>685.505</ele>
        <time>2017-09-19T10:23:19Z</time>
      </trkpt>
      <trkpt lat="41.514500" lon="-4.872022">
        <ele>685.525</ele>
        <time>2017-09-19T10:23:35Z</time>
      </trkpt>
      <trkpt lat="41.514039" lon="-4.872560">
        <ele>685.508</ele>
        <time>2017-09-19T10:23:53Z</time>
      </trkpt>
      <trkpt lat="41.514096" lon="-4.873018">
        <ele>686.088</ele>
        <time>2017-09-19T10:24:04Z</time>
      </trkpt>
      <trkpt lat="41.514501" lon="-4.873560">
        <ele>684.666</ele>
        <time>2017-09-19T10:24:21Z</time>
      </trkpt>
      <trkpt lat="41.514756" lon="-4.873944">
        <ele>685.086</ele>
        <time>2017-09-19T10:24:37Z</time>
      </trkpt>
      <trkpt lat="41.514773" lon="-4.873966">
        <ele>685.090</ele>
        <time>2017-09-19T10:24:39Z</time>
      </trkpt>
      <trkpt lat="41.514789" lon="-4.874030">
        <ele>685.018</ele>
        <time>2017-09-19T10:24:51Z</time>
      </trkpt>
      <trkpt lat="41.514813" lon="-4.874097">
        <ele>685.537</ele>
        <time>2017-09-19T10:25:04Z</time>
      </trkpt>
      <trkpt lat="41.514827" lon="-4.874110">
        <ele>685.537</ele>
        <time>2017-09-19T10:25:10Z</time>
      </trkpt>
      <trkpt lat="41.514837" lon="-4.874119">
        <ele>685.589</ele>
        <time>2017-09-19T10:25:11Z</time>
      </trkpt>
      <trkpt lat="41.514848" lon="-4.874131">
        <ele>685.045</ele>
        <time>2017-09-19T10:25:12Z</time>
      </trkpt>
      <trkpt lat="41.514856" lon="-4.874142">
        <ele>685.047</ele>
        <time>2017-09-19T10:25:13Z</time>
      </trkpt>
      <trkpt lat="41.514865" lon="-4.874151">
        <ele>685.511</ele>
        <time>2017-09-19T10:25:14Z</time>
      </trkpt>
      <trkpt lat="41.514875" lon="-4.874156">
        <ele>685.508</ele>
        <time>2017-09-19T10:25:15Z</time>
      </trkpt>
      <trkpt lat="41.514899" lon="-4.874162">
        <ele>685.065</ele>
        <time>2017-09-19T10:25:27Z</time>
      </trkpt>
      <trkpt lat="41.514908" lon="-4.874174">
        <ele>685.013</ele>
        <time>2017-09-19T10:25:28Z</time>
      </trkpt>
      <trkpt lat="41.514920" lon="-4.874186">
        <ele>685.543</ele>
        <time>2017-09-19T10:25:29Z</time>
      </trkpt>
      <trkpt lat="41.514935" lon="-4.874198">
        <ele>685.537</ele>
        <time>2017-09-19T10:25:30Z</time>
      </trkpt>
      <trkpt lat="41.514952" lon="-4.874214">
        <ele>685.045</ele>
        <time>2017-09-19T10:25:31Z</time>
      </trkpt>
      <trkpt lat="41.514971" lon="-4.874235">
        <ele>685.084</ele>
        <time>2017-09-19T10:25:32Z</time>
      </trkpt>
      <trkpt lat="41.515400" lon="-4.874621">
        <ele>683.684</ele>
        <time>2017-09-19T10:25:50Z</time>
      </trkpt>
      <trkpt lat="41.515792" lon="-4.874720">
        <ele>683.636</ele>
        <time>2017-09-19T10:26:03Z</time>
      </trkpt>
      <trkpt lat="41.515944" lon="-4.874768">
        <ele>683.645</ele>
        <time>2017-09-19T10:26:11Z</time>
      </trkpt>
      <trkpt lat="41.515948" lon="-4.874783">
        <ele>683.147</ele>
        <time>2017-09-19T10:26:12Z</time>
      </trkpt>
      <trkpt lat="41.515954" lon="-4.874825">
        <ele>683.111</ele>
        <time>2017-09-19T10:26:25Z</time>
      </trkpt>
      <trkpt lat="41.515966" lon="-4.874836">
        <ele>684.108</ele>
        <time>2017-09-19T10:26:41Z</time>
      </trkpt>
      <trkpt lat="41.515972" lon="-4.874866">
        <ele>684.645</ele>
        <time>2017-09-19T10:26:49Z</time>
      </trkpt>
      <trkpt lat="41.515964" lon="-4.874922">
        <ele>684.683</ele>
        <time>2017-09-19T10:26:54Z</time>
      </trkpt>
      <trkpt lat="41.515923" lon="-4.874979">
        <ele>684.193</ele>
        <time>2017-09-19T10:27:09Z</time>
      </trkpt>
      <trkpt lat="41.515708" lon="-4.875367">
        <ele>684.137</ele>
        <time>2017-09-19T10:27:23Z</time>
      </trkpt>
      <trkpt lat="41.515457" lon="-4.875928">
        <ele>685.055</ele>
        <time>2017-09-19T10:27:39Z</time>
      </trkpt>
      <trkpt lat="41.515192" lon="-4.876547">
        <ele>685.574</ele>
        <time>2017-09-19T10:27:57Z</time>
      </trkpt>
      <trkpt lat="41.514910" lon="-4.877101">
        <ele>685.564</ele>
        <time>2017-09-19T10:28:13Z</time>
      </trkpt>
      <trkpt lat="41.514608" lon="-4.877662">
        <ele>684.686</ele>
        <time>2017-09-19T10:28:30Z</time>
      </trkpt>
      <trkpt lat="41.514291" lon="-4.878136">
        <ele>685.052</ele>
        <time>2017-09-19T10:28:46Z</time>
      </trkpt>
      <trkpt lat="41.513850" lon="-4.878649">
        <ele>682.653</ele>
        <time>2017-09-19T10:29:01Z</time>
      </trkpt>
      <trkpt lat="41.513504" lon="-4.879079">
        <ele>683.608</ele>
        <time>2017-09-19T10:29:16Z</time>
      </trkpt>
      <trkpt lat="41.513198" lon="-4.879582">
        <ele>683.108</ele>
        <time>2017-09-19T10:29:34Z</time>
      </trkpt>
      <trkpt lat="41.512952" lon="-4.879951">
        <ele>683.116</ele>
        <time>2017-09-19T10:29:47Z</time>
      </trkpt>
      <trkpt lat="41.512637" lon="-4.880496">
        <ele>682.114</ele>
        <time>2017-09-19T10:30:05Z</time>
      </trkpt>
      <trkpt lat="41.512324" lon="-4.880996">
        <ele>682.644</ele>
        <time>2017-09-19T10:30:20Z</time>
      </trkpt>
      <trkpt lat="41.511993" lon="-4.881430">
        <ele>683.198</ele>
        <time>2017-09-19T10:30:35Z</time>
      </trkpt>
      <trkpt lat="41.511692" lon="-4.881890">
        <ele>683.196</ele>
        <time>2017-09-19T10:30:50Z</time>
      </trkpt>
      <trkpt lat="41.511332" lon="-4.882396">
        <ele>683.175</ele>
        <time>2017-09-19T10:31:07Z</time>
      </trkpt>
      <trkpt lat="41.511041" lon="-4.882831">
        <ele>682.695</ele>
        <time>2017-09-19T10:31:23Z</time>
      </trkpt>
      <trkpt lat="41.510770" lon="-4.883365">
        <ele>685.077</ele>
        <time>2017-09-19T10:31:39Z</time>
      </trkpt>
      <trkpt lat="41.510454" lon="-4.883731">
        <ele>684.647</ele>
        <time>2017-09-19T10:31:53Z</time>
      </trkpt>
      <trkpt lat="41.509979" lon="-4.884310">
        <ele>683.629</ele>
        <time>2017-09-19T10:32:12Z</time>
      </trkpt>
      <trkpt lat="41.509545" lon="-4.884763">
        <ele>684.121</ele>
        <time>2017-09-19T10:32:29Z</time>
      </trkpt>
      <trkpt lat="41.509115" lon="-4.885068">
        <ele>683.608</ele>
        <time>2017-09-19T10:32:45Z</time>
      </trkpt>
      <trkpt lat="41.508632" lon="-4.885419">
        <ele>682.645</ele>
        <time>2017-09-19T10:32:59Z</time>
      </trkpt>
      <trkpt lat="41.508139" lon="-4.885798">
        <ele>684.183</ele>
        <time>2017-09-19T10:33:15Z</time>
      </trkpt>
      <trkpt lat="41.507905" lon="-4.886145">
        <ele>685.563</ele>
        <time>2017-09-19T10:33:29Z</time>
      </trkpt>
      <trkpt lat="41.507682" lon="-4.886583">
        <ele>686.557</ele>
        <time>2017-09-19T10:33:44Z</time>
      </trkpt>
      <trkpt lat="41.507547" lon="-4.886880">
        <ele>684.695</ele>
        <time>2017-09-19T10:33:56Z</time>
      </trkpt>
      <trkpt lat="41.507346" lon="-4.887364">
        <ele>684.684</ele>
        <time>2017-09-19T10:34:09Z</time>
      </trkpt>
      <trkpt lat="41.507222" lon="-4.887864">
        <ele>682.134</ele>
        <time>2017-09-19T10:34:22Z</time>
      </trkpt>
      <trkpt lat="41.507178" lon="-4.888023">
        <ele>681.216</ele>
        <time>2017-09-19T10:34:25Z</time>
      </trkpt>
      <trkpt lat="41.507160" lon="-4.888077">
        <ele>680.746</ele>
        <time>2017-09-19T10:34:26Z</time>
      </trkpt>
      <trkpt lat="41.506851" lon="-4.888912">
        <ele>679.388</ele>
        <time>2017-09-19T10:34:42Z</time>
      </trkpt>
      <trkpt lat="41.506539" lon="-4.889548">
        <ele>678.316</ele>
        <time>2017-09-19T10:34:57Z</time>
      </trkpt>
      <trkpt lat="41.506331" lon="-4.889876">
        <ele>680.708</ele>
        <time>2017-09-19T10:35:10Z</time>
      </trkpt>
      <trkpt lat="41.506159" lon="-4.890202">
        <ele>681.785</ele>
        <time>2017-09-19T10:35:23Z</time>
      </trkpt>
      <trkpt lat="41.505953" lon="-4.890524">
        <ele>681.213</ele>
        <time>2017-09-19T10:35:36Z</time>
      </trkpt>
      <trkpt lat="41.505737" lon="-4.890842">
        <ele>682.133</ele>
        <time>2017-09-19T10:35:49Z</time>
      </trkpt>
      <trkpt lat="41.505600" lon="-4.891108">
        <ele>682.677</ele>
        <time>2017-09-19T10:35:59Z</time>
      </trkpt>
      <trkpt lat="41.505416" lon="-4.891575">
        <ele>682.125</ele>
        <time>2017-09-19T10:36:13Z</time>
      </trkpt>
      <trkpt lat="41.505273" lon="-4.891958">
        <ele>681.264</ele>
        <time>2017-09-19T10:36:25Z</time>
      </trkpt>
      <trkpt lat="41.505041" lon="-4.892508">
        <ele>681.724</ele>
        <time>2017-09-19T10:36:40Z</time>
      </trkpt>
      <trkpt lat="41.504776" lon="-4.893022">
        <ele>680.276</ele>
        <time>2017-09-19T10:36:54Z</time>
      </trkpt>
      <trkpt lat="41.504587" lon="-4.893325">
        <ele>680.778</ele>
        <time>2017-09-19T10:37:05Z</time>
      </trkpt>
      <trkpt lat="41.504320" lon="-4.893752">
        <ele>680.233</ele>
        <time>2017-09-19T10:37:20Z</time>
      </trkpt>
      <trkpt lat="41.504029" lon="-4.894156">
        <ele>680.226</ele>
        <time>2017-09-19T10:37:36Z</time>
      </trkpt>
      <trkpt lat="41.503893" lon="-4.894478">
        <ele>681.208</ele>
        <time>2017-09-19T10:37:51Z</time>
      </trkpt>
      <trkpt lat="41.503916" lon="-4.894513">
        <ele>680.768</ele>
        <time>2017-09-19T10:38:05Z</time>
      </trkpt>
      <trkpt lat="41.503930" lon="-4.894512">
        <ele>680.766</ele>
        <time>2017-09-19T10:38:07Z</time>
      </trkpt>
      <trkpt lat="41.503966" lon="-4.894517">
        <ele>680.236</ele>
        <time>2017-09-19T10:38:11Z</time>
      </trkpt>
      <trkpt lat="41.503977" lon="-4.894520">
        <ele>680.270</ele>
        <time>2017-09-19T10:38:12Z</time>
      </trkpt>
      <trkpt lat="41.503988" lon="-4.894526">
        <ele>680.288</ele>
        <time>2017-09-19T10:38:13Z</time>
      </trkpt>
      <trkpt lat="41.504016" lon="-4.894528">
        <ele>680.287</ele>
        <time>2017-09-19T10:38:26Z</time>
      </trkpt>
      <trkpt lat="41.504012" lon="-4.894507">
        <ele>682.647</ele>
        <time>2017-09-19T10:38:59Z</time>
      </trkpt>
      <trkpt lat="41.503989" lon="-4.894560">
        <ele>681.719</ele>
        <time>2017-09-19T10:39:59Z</time>
      </trkpt>
      <trkpt lat="41.504000" lon="-4.894528">
        <ele>683.674</ele>
        <time>2017-09-19T10:40:58Z</time>
      </trkpt>
      <trkpt lat="41.504011" lon="-4.894571">
        <ele>685.556</ele>
        <time>2017-09-19T10:41:54Z</time>
      </trkpt>
      <trkpt lat="41.503991" lon="-4.894534">
        <ele>682.121</ele>
        <time>2017-09-19T10:42:41Z</time>
      </trkpt>
      <trkpt lat="41.504013" lon="-4.894534">
        <ele>683.108</ele>
        <time>2017-09-19T10:43:24Z</time>
      </trkpt>
      <trkpt lat="41.504011" lon="-4.894552">
        <ele>686.048</ele>
        <time>2017-09-19T10:44:10Z</time>
      </trkpt>
      <trkpt lat="41.503982" lon="-4.894576">
        <ele>684.116</ele>
        <time>2017-09-19T10:44:45Z</time>
      </trkpt>
      <trkpt lat="41.503982" lon="-4.894579">
        <ele>682.136</ele>
        <time>2017-09-19T10:45:25Z</time>
      </trkpt>
      <trkpt lat="41.504000" lon="-4.894557">
        <ele>681.240</ele>
        <time>2017-09-19T10:46:03Z</time>
      </trkpt>
      <trkpt lat="41.503995" lon="-4.894536">
        <ele>685.588</ele>
        <time>2017-09-19T10:46:41Z</time>
      </trkpt>
      <trkpt lat="41.504003" lon="-4.894534">
        <ele>683.677</ele>
        <time>2017-09-19T10:47:28Z</time>
      </trkpt>
      <trkpt lat="41.504006" lon="-4.894528">
        <ele>681.297</ele>
        <time>2017-09-19T10:48:19Z</time>
      </trkpt>
      <trkpt lat="41.504016" lon="-4.894519">
        <ele>681.299</ele>
        <time>2017-09-19T10:48:57Z</time>
      </trkpt>
      <trkpt lat="41.504008" lon="-4.894534">
        <ele>684.191</ele>
        <time>2017-09-19T10:49:39Z</time>
      </trkpt>
      <trkpt lat="41.504019" lon="-4.894536">
        <ele>683.681</ele>
        <time>2017-09-19T10:49:43Z</time>
      </trkpt>
      <trkpt lat="41.504066" lon="-4.894473">
        <ele>683.119</ele>
        <time>2017-09-19T10:49:49Z</time>
      </trkpt>
      <trkpt lat="41.504051" lon="-4.894412">
        <ele>683.108</ele>
        <time>2017-09-19T10:49:53Z</time>
      </trkpt>
      <trkpt lat="41.504060" lon="-4.894293">
        <ele>681.720</ele>
        <time>2017-09-19T10:50:00Z</time>
      </trkpt>
      <trkpt lat="41.503976" lon="-4.894291">
        <ele>681.738</ele>
        <time>2017-09-19T10:50:15Z</time>
      </trkpt>
      <trkpt lat="41.503953" lon="-4.894318">
        <ele>681.228</ele>
        <time>2017-09-19T10:50:22Z</time>
      </trkpt>
      <trkpt lat="41.503868" lon="-4.894483">
        <ele>681.292</ele>
        <time>2017-09-19T10:50:30Z</time>
      </trkpt>
      <trkpt lat="41.503672" lon="-4.894959">
        <ele>680.760</ele>
        <time>2017-09-19T10:50:46Z</time>
      </trkpt>
      <trkpt lat="41.503497" lon="-4.895426">
        <ele>679.739</ele>
        <time>2017-09-19T10:51:01Z</time>
      </trkpt>
      <trkpt lat="41.503354" lon="-4.895788">
        <ele>679.359</ele>
        <time>2017-09-19T10:51:15Z</time>
      </trkpt>
      <trkpt lat="41.503152" lon="-4.896129">
        <ele>678.341</ele>
        <time>2017-09-19T10:51:32Z</time>
      </trkpt>
      <trkpt lat="41.502944" lon="-4.896455">
        <ele>678.355</ele>
        <time>2017-09-19T10:51:49Z</time>
      </trkpt>
      <trkpt lat="41.502738" lon="-4.896752">
        <ele>677.807</ele>
        <time>2017-09-19T10:52:04Z</time>
      </trkpt>
      <trkpt lat="41.502531" lon="-4.897237">
        <ele>678.817</ele>
        <time>2017-09-19T10:52:21Z</time>
      </trkpt>
      <trkpt lat="41.502353" lon="-4.897777">
        <ele>679.308</ele>
        <time>2017-09-19T10:52:35Z</time>
      </trkpt>
      <trkpt lat="41.502152" lon="-4.898278">
        <ele>678.846</ele>
        <time>2017-09-19T10:52:49Z</time>
      </trkpt>
      <trkpt lat="41.501895" lon="-4.898795">
        <ele>678.314</ele>
        <time>2017-09-19T10:53:03Z</time>
      </trkpt>
      <trkpt lat="41.501712" lon="-4.899365">
        <ele>677.814</ele>
        <time>2017-09-19T10:53:19Z</time>
      </trkpt>
      <trkpt lat="41.501750" lon="-4.899824">
        <ele>677.378</ele>
        <time>2017-09-19T10:53:33Z</time>
      </trkpt>
      <trkpt lat="41.501813" lon="-4.900286">
        <ele>676.966</ele>
        <time>2017-09-19T10:53:48Z</time>
      </trkpt>
      <trkpt lat="41.501818" lon="-4.900751">
        <ele>677.355</ele>
        <time>2017-09-19T10:54:00Z</time>
      </trkpt>
      <trkpt lat="41.501734" lon="-4.901438">
        <ele>677.865</ele>
        <time>2017-09-19T10:54:16Z</time>
      </trkpt>
      <trkpt lat="41.501682" lon="-4.901990">
        <ele>675.947</ele>
        <time>2017-09-19T10:54:26Z</time>
      </trkpt>
      <trkpt lat="41.501692" lon="-4.902736">
        <ele>675.959</ele>
        <time>2017-09-19T10:54:40Z</time>
      </trkpt>
      <trkpt lat="41.501576" lon="-4.903432">
        <ele>675.903</ele>
        <time>2017-09-19T10:54:55Z</time>
      </trkpt>
      <trkpt lat="41.501474" lon="-4.904235">
        <ele>675.923</ele>
        <time>2017-09-19T10:55:13Z</time>
      </trkpt>
      <trkpt lat="41.501317" lon="-4.904817">
        <ele>675.408</ele>
        <time>2017-09-19T10:55:29Z</time>
      </trkpt>
      <trkpt lat="41.501078" lon="-4.905172">
        <ele>674.546</ele>
        <time>2017-09-19T10:55:41Z</time>
      </trkpt>
      <trkpt lat="41.501025" lon="-4.905714">
        <ele>674.914</ele>
        <time>2017-09-19T10:55:54Z</time>
      </trkpt>
      <trkpt lat="41.500931" lon="-4.906334">
        <ele>675.414</ele>
        <time>2017-09-19T10:56:10Z</time>
      </trkpt>
      <trkpt lat="41.500843" lon="-4.906758">
        <ele>676.958</ele>
        <time>2017-09-19T10:56:23Z</time>
      </trkpt>
      <trkpt lat="41.500804" lon="-4.907332">
        <ele>676.436</ele>
        <time>2017-09-19T10:56:39Z</time>
      </trkpt>
      <trkpt lat="41.500746" lon="-4.908027">
        <ele>676.485</ele>
        <time>2017-09-19T10:56:55Z</time>
      </trkpt>
      <trkpt lat="41.500739" lon="-4.908836">
        <ele>677.385</ele>
        <time>2017-09-19T10:57:14Z</time>
      </trkpt>
      <trkpt lat="41.500688" lon="-4.909565">
        <ele>676.927</ele>
        <time>2017-09-19T10:57:32Z</time>
      </trkpt>
      <trkpt lat="41.500689" lon="-4.910230">
        <ele>677.331</ele>
        <time>2017-09-19T10:57:49Z</time>
      </trkpt>
      <trkpt lat="41.500595" lon="-4.911025">
        <ele>677.861</ele>
        <time>2017-09-19T10:58:05Z</time>
      </trkpt>
      <trkpt lat="41.500395" lon="-4.911902">
        <ele>676.907</ele>
        <time>2017-09-19T10:58:23Z</time>
      </trkpt>
      <trkpt lat="41.500212" lon="-4.912764">
        <ele>675.408</ele>
        <time>2017-09-19T10:58:40Z</time>
      </trkpt>
      <trkpt lat="41.500013" lon="-4.913505">
        <ele>675.924</ele>
        <time>2017-09-19T10:58:57Z</time>
      </trkpt>
      <trkpt lat="41.499861" lon="-4.913727">
        <ele>676.442</ele>
        <time>2017-09-19T10:59:07Z</time>
      </trkpt>
      <trkpt lat="41.499691" lon="-4.914107">
        <ele>676.482</ele>
        <time>2017-09-19T10:59:20Z</time>
      </trkpt>
      <trkpt lat="41.499592" lon="-4.914498">
        <ele>676.496</ele>
        <time>2017-09-19T10:59:31Z</time>
      </trkpt>
      <trkpt lat="41.499314" lon="-4.914886">
        <ele>675.934</ele>
        <time>2017-09-19T10:59:45Z</time>
      </trkpt>
      <trkpt lat="41.499035" lon="-4.915344">
        <ele>675.423</ele>
        <time>2017-09-19T11:00:00Z</time>
      </trkpt>
      <trkpt lat="41.498816" lon="-4.915761">
        <ele>676.423</ele>
        <time>2017-09-19T11:00:13Z</time>
      </trkpt>
      <trkpt lat="41.498749" lon="-4.916315">
        <ele>675.415</ele>
        <time>2017-09-19T11:00:27Z</time>
      </trkpt>
      <trkpt lat="41.498627" lon="-4.916849">
        <ele>673.538</ele>
        <time>2017-09-19T11:00:41Z</time>
      </trkpt>
      <trkpt lat="41.498529" lon="-4.917381">
        <ele>674.970</ele>
        <time>2017-09-19T11:00:54Z</time>
      </trkpt>
      <trkpt lat="41.498394" lon="-4.918048">
        <ele>675.917</ele>
        <time>2017-09-19T11:01:09Z</time>
      </trkpt>
      <trkpt lat="41.498206" lon="-4.918721">
        <ele>675.908</ele>
        <time>2017-09-19T11:01:25Z</time>
      </trkpt>
      <trkpt lat="41.498022" lon="-4.919298">
        <ele>675.994</ele>
        <time>2017-09-19T11:01:40Z</time>
      </trkpt>
      <trkpt lat="41.497773" lon="-4.919900">
        <ele>674.972</ele>
        <time>2017-09-19T11:01:57Z</time>
      </trkpt>
      <trkpt lat="41.497529" lon="-4.920564">
        <ele>674.962</ele>
        <time>2017-09-19T11:02:14Z</time>
      </trkpt>
      <trkpt lat="41.497352" lon="-4.921118">
        <ele>674.566</ele>
        <time>2017-09-19T11:02:30Z</time>
      </trkpt>
      <trkpt lat="41.497069" lon="-4.921520">
        <ele>674.554</ele>
        <time>2017-09-19T11:02:46Z</time>
      </trkpt>
      <trkpt lat="41.496685" lon="-4.921899">
        <ele>674.943</ele>
        <time>2017-09-19T11:03:03Z</time>
      </trkpt>
      <trkpt lat="41.496355" lon="-4.922258">
        <ele>674.533</ele>
        <time>2017-09-19T11:03:20Z</time>
      </trkpt>
      <trkpt lat="41.496046" lon="-4.922567">
        <ele>674.575</ele>
        <time>2017-09-19T11:03:37Z</time>
      </trkpt>
      <trkpt lat="41.495858" lon="-4.922870">
        <ele>674.044</ele>
        <time>2017-09-19T11:03:52Z</time>
      </trkpt>
      <trkpt lat="41.495771" lon="-4.923015">
        <ele>674.005</ele>
        <time>2017-09-19T11:04:04Z</time>
      </trkpt>
      <trkpt lat="41.495757" lon="-4.923034">
        <ele>674.515</ele>
        <time>2017-09-19T11:04:10Z</time>
      </trkpt>
      <trkpt lat="41.495748" lon="-4.923050">
        <ele>674.508</ele>
        <time>2017-09-19T11:04:11Z</time>
      </trkpt>
      <trkpt lat="41.495739" lon="-4.923070">
        <ele>674.985</ele>
        <time>2017-09-19T11:04:12Z</time>
      </trkpt>
      <trkpt lat="41.495597" lon="-4.923282">
        <ele>674.573</ele>
        <time>2017-09-19T11:04:21Z</time>
      </trkpt>
      <trkpt lat="41.495585" lon="-4.923304">
        <ele>674.573</ele>
        <time>2017-09-19T11:04:22Z</time>
      </trkpt>
      <trkpt lat="41.495411" lon="-4.923595">
        <ele>674.527</ele>
        <time>2017-09-19T11:04:35Z</time>
      </trkpt>
      <trkpt lat="41.495210" lon="-4.923957">
        <ele>674.965</ele>
        <time>2017-09-19T11:04:48Z</time>
      </trkpt>
      <trkpt lat="41.494843" lon="-4.924560">
        <ele>674.974</ele>
        <time>2017-09-19T11:05:06Z</time>
      </trkpt>
      <trkpt lat="41.494664" lon="-4.924861">
        <ele>674.964</ele>
        <time>2017-09-19T11:05:18Z</time>
      </trkpt>
      <trkpt lat="41.494507" lon="-4.925116">
        <ele>674.586</ele>
        <time>2017-09-19T11:05:30Z</time>
      </trkpt>
      <trkpt lat="41.494311" lon="-4.925449">
        <ele>674.016</ele>
        <time>2017-09-19T11:05:44Z</time>
      </trkpt>
      <trkpt lat="41.494153" lon="-4.925689">
        <ele>674.076</ele>
        <time>2017-09-19T11:05:55Z</time>
      </trkpt>
      <trkpt lat="41.493873" lon="-4.926149">
        <ele>674.513</ele>
        <time>2017-09-19T11:06:12Z</time>
      </trkpt>
      <trkpt lat="41.493693" lon="-4.926477">
        <ele>674.508</ele>
        <time>2017-09-19T11:06:25Z</time>
      </trkpt>
      <trkpt lat="41.493486" lon="-4.926815">
        <ele>674.032</ele>
        <time>2017-09-19T11:06:38Z</time>
      </trkpt>
      <trkpt lat="41.493186" lon="-4.927318">
        <ele>673.010</ele>
        <time>2017-09-19T11:06:55Z</time>
      </trkpt>
      <trkpt lat="41.492928" lon="-4.927748">
        <ele>673.540</ele>
        <time>2017-09-19T11:07:10Z</time>
      </trkpt>
      <trkpt lat="41.492589" lon="-4.928310">
        <ele>673.554</ele>
        <time>2017-09-19T11:07:28Z</time>
      </trkpt>
      <trkpt lat="41.492279" lon="-4.928827">
        <ele>673.592</ele>
        <time>2017-09-19T11:07:45Z</time>
      </trkpt>
      <trkpt lat="41.492138" lon="-4.929054">
        <ele>673.041</ele>
        <time>2017-09-19T11:07:56Z</time>
      </trkpt>
      <trkpt lat="41.491925" lon="-4.929402">
        <ele>673.031</ele>
        <time>2017-09-19T11:08:10Z</time>
      </trkpt>
      <trkpt lat="41.491659" lon="-4.929844">
        <ele>674.033</ele>
        <time>2017-09-19T11:08:26Z</time>
      </trkpt>
      <trkpt lat="41.491431" lon="-4.930185">
        <ele>673.566</ele>
        <time>2017-09-19T11:08:41Z</time>
      </trkpt>
      <trkpt lat="41.491426" lon="-4.930198">
        <ele>673.529</ele>
        <time>2017-09-19T11:08:42Z</time>
      </trkpt>
      <trkpt lat="41.491420" lon="-4.930213">
        <ele>673.521</ele>
        <time>2017-09-19T11:08:43Z</time>
      </trkpt>
      <trkpt lat="41.491412" lon="-4.930231">
        <ele>673.508</ele>
        <time>2017-09-19T11:08:44Z</time>
      </trkpt>
      <trkpt lat="41.491405" lon="-4.930250">
        <ele>673.597</ele>
        <time>2017-09-19T11:08:45Z</time>
      </trkpt>
      <trkpt lat="41.491396" lon="-4.930261">
        <ele>673.575</ele>
        <time>2017-09-19T11:08:46Z</time>
      </trkpt>
      <trkpt lat="41.491386" lon="-4.930276">
        <ele>673.535</ele>
        <time>2017-09-19T11:08:47Z</time>
      </trkpt>
      <trkpt lat="41.491377" lon="-4.930295">
        <ele>673.519</ele>
        <time>2017-09-19T11:08:48Z</time>
      </trkpt>
      <trkpt lat="41.491172" lon="-4.930640">
        <ele>673.567</ele>
        <time>2017-09-19T11:09:02Z</time>
      </trkpt>
      <trkpt lat="41.490921" lon="-4.931080">
        <ele>673.516</ele>
        <time>2017-09-19T11:09:18Z</time>
      </trkpt>
      <trkpt lat="41.490715" lon="-4.931481">
        <ele>673.566</ele>
        <time>2017-09-19T11:09:34Z</time>
      </trkpt>
      <trkpt lat="41.490505" lon="-4.931831">
        <ele>673.578</ele>
        <time>2017-09-19T11:09:49Z</time>
      </trkpt>
      <trkpt lat="41.490216" lon="-4.932327">
        <ele>674.038</ele>
        <time>2017-09-19T11:10:06Z</time>
      </trkpt>
      <trkpt lat="41.489919" lon="-4.932863">
        <ele>674.070</ele>
        <time>2017-09-19T11:10:24Z</time>
      </trkpt>
      <trkpt lat="41.489748" lon="-4.933192">
        <ele>673.517</ele>
        <time>2017-09-19T11:10:37Z</time>
      </trkpt>
      <trkpt lat="41.489736" lon="-4.933221">
        <ele>674.008</ele>
        <time>2017-09-19T11:10:39Z</time>
      </trkpt>
      <trkpt lat="41.489734" lon="-4.933237">
        <ele>674.054</ele>
        <time>2017-09-19T11:10:40Z</time>
      </trkpt>
      <trkpt lat="41.489729" lon="-4.933255">
        <ele>674.042</ele>
        <time>2017-09-19T11:10:41Z</time>
      </trkpt>
      <trkpt lat="41.489722" lon="-4.933273">
        <ele>674.072</ele>
        <time>2017-09-19T11:10:42Z</time>
      </trkpt>
      <trkpt lat="41.489713" lon="-4.933294">
        <ele>674.026</ele>
        <time>2017-09-19T11:10:43Z</time>
      </trkpt>
      <trkpt lat="41.489704" lon="-4.933319">
        <ele>674.084</ele>
        <time>2017-09-19T11:10:44Z</time>
      </trkpt>
      <trkpt lat="41.489487" lon="-4.933796">
        <ele>674.573</ele>
        <time>2017-09-19T11:10:59Z</time>
      </trkpt>
      <trkpt lat="41.489184" lon="-4.934467">
        <ele>674.583</ele>
        <time>2017-09-19T11:11:16Z</time>
      </trkpt>
      <trkpt lat="41.488946" lon="-4.935016">
        <ele>674.515</ele>
        <time>2017-09-19T11:11:30Z</time>
      </trkpt>
      <trkpt lat="41.488660" lon="-4.935637">
        <ele>674.522</ele>
        <time>2017-09-19T11:11:46Z</time>
      </trkpt>
      <trkpt lat="41.488332" lon="-4.936317">
        <ele>674.062</ele>
        <time>2017-09-19T11:12:03Z</time>
      </trkpt>
      <trkpt lat="41.488077" lon="-4.936863">
        <ele>674.008</ele>
        <time>2017-09-19T11:12:16Z</time>
      </trkpt>
      <trkpt lat="41.487725" lon="-4.937620">
        <ele>673.508</ele>
        <time>2017-09-19T11:12:34Z</time>
      </trkpt>
      <trkpt lat="41.487444" lon="-4.938227">
        <ele>674.063</ele>
        <time>2017-09-19T11:12:50Z</time>
      </trkpt>
      <trkpt lat="41.487218" lon="-4.938829">
        <ele>674.011</ele>
        <time>2017-09-19T11:13:04Z</time>
      </trkpt>
      <trkpt lat="41.486969" lon="-4.939547">
        <ele>674.561</ele>
        <time>2017-09-19T11:13:21Z</time>
      </trkpt>
      <trkpt lat="41.486720" lon="-4.940254">
        <ele>674.045</ele>
        <time>2017-09-19T11:13:37Z</time>
      </trkpt>
      <trkpt lat="41.486404" lon="-4.941122">
        <ele>674.563</ele>
        <time>2017-09-19T11:13:57Z</time>
      </trkpt>
      <trkpt lat="41.486110" lon="-4.941941">
        <ele>674.082</ele>
        <time>2017-09-19T11:14:16Z</time>
      </trkpt>
      <trkpt lat="41.485873" lon="-4.942601">
        <ele>673.582</ele>
        <time>2017-09-19T11:14:32Z</time>
      </trkpt>
      <trkpt lat="41.485598" lon="-4.943280">
        <ele>673.524</ele>
        <time>2017-09-19T11:14:49Z</time>
      </trkpt>
      <trkpt lat="41.485263" lon="-4.943925">
        <ele>673.553</ele>
        <time>2017-09-19T11:15:06Z</time>
      </trkpt>
      <trkpt lat="41.484938" lon="-4.944508">
        <ele>673.504</ele>
        <time>2017-09-19T11:15:22Z</time>
      </trkpt>
      <trkpt lat="41.484644" lon="-4.945016">
        <ele>674.014</ele>
        <time>2017-09-19T11:15:37Z</time>
      </trkpt>
      <trkpt lat="41.484287" lon="-4.945650">
        <ele>674.508</ele>
        <time>2017-09-19T11:15:56Z</time>
      </trkpt>
      <trkpt lat="41.483905" lon="-4.946329">
        <ele>674.576</ele>
        <time>2017-09-19T11:16:16Z</time>
      </trkpt>
      <trkpt lat="41.483564" lon="-4.946936">
        <ele>674.014</ele>
        <time>2017-09-19T11:16:33Z</time>
      </trkpt>
      <trkpt lat="41.483217" lon="-4.947543">
        <ele>673.044</ele>
        <time>2017-09-19T11:16:50Z</time>
      </trkpt>
      <trkpt lat="41.482957" lon="-4.948030">
        <ele>673.548</ele>
        <time>2017-09-19T11:17:04Z</time>
      </trkpt>
      <trkpt lat="41.482712" lon="-4.948440">
        <ele>673.516</ele>
        <time>2017-09-19T11:17:16Z</time>
      </trkpt>
      <trkpt lat="41.482391" lon="-4.949026">
        <ele>673.565</ele>
        <time>2017-09-19T11:17:32Z</time>
      </trkpt>
      <trkpt lat="41.482035" lon="-4.949663">
        <ele>673.555</ele>
        <time>2017-09-19T11:17:48Z</time>
      </trkpt>
      <trkpt lat="41.481632" lon="-4.950376">
        <ele>673.577</ele>
        <time>2017-09-19T11:18:06Z</time>
      </trkpt>
      <trkpt lat="41.481215" lon="-4.951146">
        <ele>674.041</ele>
        <time>2017-09-19T11:18:25Z</time>
      </trkpt>
      <trkpt lat="41.481165" lon="-4.951648">
        <ele>675.481</ele>
        <time>2017-09-19T11:18:38Z</time>
      </trkpt>
      <trkpt lat="41.481251" lon="-4.952104">
        <ele>675.409</ele>
        <time>2017-09-19T11:18:51Z</time>
      </trkpt>
      <trkpt lat="41.481143" lon="-4.952474">
        <ele>676.408</ele>
        <time>2017-09-19T11:19:02Z</time>
      </trkpt>
      <trkpt lat="41.480908" lon="-4.953056">
        <ele>678.395</ele>
        <time>2017-09-19T11:19:20Z</time>
      </trkpt>
      <trkpt lat="41.480685" lon="-4.953550">
        <ele>679.733</ele>
        <time>2017-09-19T11:19:37Z</time>
      </trkpt>
      <trkpt lat="41.480462" lon="-4.954080">
        <ele>681.763</ele>
        <time>2017-09-19T11:19:56Z</time>
      </trkpt>
      <trkpt lat="41.480209" lon="-4.954571">
        <ele>681.717</ele>
        <time>2017-09-19T11:20:12Z</time>
      </trkpt>
      <trkpt lat="41.479931" lon="-4.955259">
        <ele>682.155</ele>
        <time>2017-09-19T11:20:31Z</time>
      </trkpt>
      <trkpt lat="41.479846" lon="-4.955860">
        <ele>684.174</ele>
        <time>2017-09-19T11:20:48Z</time>
      </trkpt>
      <trkpt lat="41.479774" lon="-4.956312">
        <ele>685.064</ele>
        <time>2017-09-19T11:21:01Z</time>
      </trkpt>
      <trkpt lat="41.479658" lon="-4.956847">
        <ele>685.526</ele>
        <time>2017-09-19T11:21:17Z</time>
      </trkpt>
      <trkpt lat="41.479512" lon="-4.957529">
        <ele>686.025</ele>
        <time>2017-09-19T11:21:36Z</time>
      </trkpt>
      <trkpt lat="41.479384" lon="-4.958000">
        <ele>686.026</ele>
        <time>2017-09-19T11:21:50Z</time>
      </trkpt>
      <trkpt lat="41.479288" lon="-4.958441">
        <ele>686.008</ele>
        <time>2017-09-19T11:22:03Z</time>
      </trkpt>
      <trkpt lat="41.479211" lon="-4.958861">
        <ele>686.008</ele>
        <time>2017-09-19T11:22:16Z</time>
      </trkpt>
      <trkpt lat="41.479144" lon="-4.959329">
        <ele>685.533</ele>
        <time>2017-09-19T11:22:29Z</time>
      </trkpt>
      <trkpt lat="41.479282" lon="-4.960277">
        <ele>685.071</ele>
        <time>2017-09-19T11:22:44Z</time>
      </trkpt>
      <trkpt lat="41.479587" lon="-4.961872">
        <ele>684.681</ele>
        <time>2017-09-19T11:23:04Z</time>
      </trkpt>
      <trkpt lat="41.479842" lon="-4.963222">
        <ele>684.165</ele>
        <time>2017-09-19T11:23:22Z</time>
      </trkpt>
      <trkpt lat="41.479999" lon="-4.964665">
        <ele>681.243</ele>
        <time>2017-09-19T11:23:39Z</time>
      </trkpt>
      <trkpt lat="41.480140" lon="-4.966342">
        <ele>676.992</ele>
        <time>2017-09-19T11:23:55Z</time>
      </trkpt>
      <trkpt lat="41.480273" lon="-4.967743">
        <ele>675.962</ele>
        <time>2017-09-19T11:24:10Z</time>
      </trkpt>
      <trkpt lat="41.480593" lon="-4.969809">
        <ele>675.964</ele>
        <time>2017-09-19T11:24:33Z</time>
      </trkpt>
      <trkpt lat="41.481003" lon="-4.971480">
        <ele>676.479</ele>
        <time>2017-09-19T11:24:53Z</time>
      </trkpt>
      <trkpt lat="41.481413" lon="-4.972578">
        <ele>676.405</ele>
        <time>2017-09-19T11:25:09Z</time>
      </trkpt>
      <trkpt lat="41.481973" lon="-4.973908">
        <ele>675.925</ele>
        <time>2017-09-19T11:25:29Z</time>
      </trkpt>
      <trkpt lat="41.482253" lon="-4.974605">
        <ele>676.908</ele>
        <time>2017-09-19T11:25:41Z</time>
      </trkpt>
      <trkpt lat="41.482277" lon="-4.974654">
        <ele>676.988</ele>
        <time>2017-09-19T11:25:42Z</time>
      </trkpt>
      <trkpt lat="41.482702" lon="-4.975544">
        <ele>676.926</ele>
        <time>2017-09-19T11:25:57Z</time>
      </trkpt>
      <trkpt lat="41.483221" lon="-4.976488">
        <ele>675.486</ele>
        <time>2017-09-19T11:26:12Z</time>
      </trkpt>
      <trkpt lat="41.483801" lon="-4.977383">
        <ele>674.580</ele>
        <time>2017-09-19T11:26:28Z</time>
      </trkpt>
      <trkpt lat="41.484166" lon="-4.977965">
        <ele>674.578</ele>
        <time>2017-09-19T11:26:40Z</time>
      </trkpt>
      <trkpt lat="41.484160" lon="-4.977981">
        <ele>674.517</ele>
        <time>2017-09-19T11:26:41Z</time>
      </trkpt>
      <trkpt lat="41.484147" lon="-4.977984">
        <ele>674.517</ele>
        <time>2017-09-19T11:26:42Z</time>
      </trkpt>
      <trkpt lat="41.484130" lon="-4.977981">
        <ele>674.569</ele>
        <time>2017-09-19T11:26:43Z</time>
      </trkpt>
      <trkpt lat="41.484115" lon="-4.977987">
        <ele>674.952</ele>
        <time>2017-09-19T11:26:44Z</time>
      </trkpt>
      <trkpt lat="41.484102" lon="-4.977997">
        <ele>674.953</ele>
        <time>2017-09-19T11:26:45Z</time>
      </trkpt>
      <trkpt lat="41.484091" lon="-4.978019">
        <ele>674.908</ele>
        <time>2017-09-19T11:26:46Z</time>
      </trkpt>
      <trkpt lat="41.484083" lon="-4.978045">
        <ele>674.908</ele>
        <time>2017-09-19T11:26:47Z</time>
      </trkpt>
      <trkpt lat="41.484081" lon="-4.978074">
        <ele>675.436</ele>
        <time>2017-09-19T11:26:48Z</time>
      </trkpt>
      <trkpt lat="41.484084" lon="-4.978104">
        <ele>675.484</ele>
        <time>2017-09-19T11:26:49Z</time>
      </trkpt>
      <trkpt lat="41.484090" lon="-4.978135">
        <ele>675.474</ele>
        <time>2017-09-19T11:26:50Z</time>
      </trkpt>
      <trkpt lat="41.484096" lon="-4.978168">
        <ele>675.428</ele>
        <time>2017-09-19T11:26:51Z</time>
      </trkpt>
      <trkpt lat="41.484204" lon="-4.978824">
        <ele>676.416</ele>
        <time>2017-09-19T11:27:09Z</time>
      </trkpt>
      <trkpt lat="41.484320" lon="-4.979556">
        <ele>676.975</ele>
        <time>2017-09-19T11:27:26Z</time>
      </trkpt>
      <trkpt lat="41.484446" lon="-4.980480">
        <ele>676.465</ele>
        <time>2017-09-19T11:27:47Z</time>
      </trkpt>
      <trkpt lat="41.484502" lon="-4.981339">
        <ele>674.957</ele>
        <time>2017-09-19T11:28:05Z</time>
      </trkpt>
      <trkpt lat="41.484623" lon="-4.982022">
        <ele>675.486</ele>
        <time>2017-09-19T11:28:20Z</time>
      </trkpt>
      <trkpt lat="41.484821" lon="-4.982550">
        <ele>675.460</ele>
        <time>2017-09-19T11:28:33Z</time>
      </trkpt>
      <trkpt lat="41.485122" lon="-4.983309">
        <ele>676.426</ele>
        <time>2017-09-19T11:28:51Z</time>
      </trkpt>
      <trkpt lat="41.485462" lon="-4.984033">
        <ele>675.908</ele>
        <time>2017-09-19T11:29:08Z</time>
      </trkpt>
      <trkpt lat="41.485837" lon="-4.984772">
        <ele>675.419</ele>
        <time>2017-09-19T11:29:26Z</time>
      </trkpt>
      <trkpt lat="41.486140" lon="-4.985206">
        <ele>675.447</ele>
        <time>2017-09-19T11:29:40Z</time>
      </trkpt>
      <trkpt lat="41.486318" lon="-4.985490">
        <ele>675.497</ele>
        <time>2017-09-19T11:29:50Z</time>
      </trkpt>
      <trkpt lat="41.486315" lon="-4.985521">
        <ele>675.441</ele>
        <time>2017-09-19T11:29:51Z</time>
      </trkpt>
      <trkpt lat="41.486299" lon="-4.985549">
        <ele>675.469</ele>
        <time>2017-09-19T11:29:52Z</time>
      </trkpt>
      <trkpt lat="41.486278" lon="-4.985565">
        <ele>675.998</ele>
        <time>2017-09-19T11:29:53Z</time>
      </trkpt>
      <trkpt lat="41.486248" lon="-4.985584">
        <ele>675.988</ele>
        <time>2017-09-19T11:29:54Z</time>
      </trkpt>
      <trkpt lat="41.486084" lon="-4.985717">
        <ele>675.970</ele>
        <time>2017-09-19T11:30:00Z</time>
      </trkpt>
      <trkpt lat="41.486077" lon="-4.985752">
        <ele>675.443</ele>
        <time>2017-09-19T11:30:01Z</time>
      </trkpt>
      <trkpt lat="41.486079" lon="-4.985786">
        <ele>675.464</ele>
        <time>2017-09-19T11:30:02Z</time>
      </trkpt>
      <trkpt lat="41.486089" lon="-4.985824">
        <ele>674.910</ele>
        <time>2017-09-19T11:30:03Z</time>
      </trkpt>
      <trkpt lat="41.486106" lon="-4.985859">
        <ele>674.908</ele>
        <time>2017-09-19T11:30:04Z</time>
      </trkpt>
      <trkpt lat="41.486125" lon="-4.985893">
        <ele>674.935</ele>
        <time>2017-09-19T11:30:05Z</time>
      </trkpt>
      <trkpt lat="41.486285" lon="-4.986443">
        <ele>675.963</ele>
        <time>2017-09-19T11:30:20Z</time>
      </trkpt>
      <trkpt lat="41.486271" lon="-4.986474">
        <ele>675.993</ele>
        <time>2017-09-19T11:30:21Z</time>
      </trkpt>
      <trkpt lat="41.485957" lon="-4.986750">
        <ele>675.957</ele>
        <time>2017-09-19T11:30:34Z</time>
      </trkpt>
      <trkpt lat="41.485367" lon="-4.987201">
        <ele>674.985</ele>
        <time>2017-09-19T11:30:52Z</time>
      </trkpt>
      <trkpt lat="41.484898" lon="-4.987629">
        <ele>675.464</ele>
        <time>2017-09-19T11:31:07Z</time>
      </trkpt>
      <trkpt lat="41.484865" lon="-4.987722">
        <ele>675.434</ele>
        <time>2017-09-19T11:31:09Z</time>
      </trkpt>
      <trkpt lat="41.484854" lon="-4.987774">
        <ele>675.456</ele>
        <time>2017-09-19T11:31:10Z</time>
      </trkpt>
      <trkpt lat="41.484843" lon="-4.987827">
        <ele>675.411</ele>
        <time>2017-09-19T11:31:11Z</time>
      </trkpt>
      <trkpt lat="41.484830" lon="-4.987880">
        <ele>675.421</ele>
        <time>2017-09-19T11:31:12Z</time>
      </trkpt>
      <trkpt lat="41.484816" lon="-4.987931">
        <ele>675.403</ele>
        <time>2017-09-19T11:31:13Z</time>
      </trkpt>
      <trkpt lat="41.484609" lon="-4.988744">
        <ele>674.908</ele>
        <time>2017-09-19T11:31:31Z</time>
      </trkpt>
      <trkpt lat="41.484493" lon="-4.989264">
        <ele>674.942</ele>
        <time>2017-09-19T11:31:45Z</time>
      </trkpt>
      <trkpt lat="41.484353" lon="-4.989644">
        <ele>674.530</ele>
        <time>2017-09-19T11:31:57Z</time>
      </trkpt>
      <trkpt lat="41.484360" lon="-4.989673">
        <ele>674.570</ele>
        <time>2017-09-19T11:31:58Z</time>
      </trkpt>
      <trkpt lat="41.484375" lon="-4.989700">
        <ele>674.544</ele>
        <time>2017-09-19T11:31:59Z</time>
      </trkpt>
      <trkpt lat="41.484392" lon="-4.989715">
        <ele>674.522</ele>
        <time>2017-09-19T11:32:00Z</time>
      </trkpt>
      <trkpt lat="41.484414" lon="-4.989728">
        <ele>674.551</ele>
        <time>2017-09-19T11:32:01Z</time>
      </trkpt>
      <trkpt lat="41.484438" lon="-4.989739">
        <ele>674.561</ele>
        <time>2017-09-19T11:32:02Z</time>
      </trkpt>
      <trkpt lat="41.484459" lon="-4.989753">
        <ele>674.543</ele>
        <time>2017-09-19T11:32:03Z</time>
      </trkpt>
      <trkpt lat="41.484479" lon="-4.989771">
        <ele>674.593</ele>
        <time>2017-09-19T11:32:04Z</time>
      </trkpt>
      <trkpt lat="41.484758" lon="-4.990003">
        <ele>674.065</ele>
        <time>2017-09-19T11:32:18Z</time>
      </trkpt>
      <trkpt lat="41.484756" lon="-4.989998">
        <ele>674.921</ele>
        <time>2017-09-19T11:32:46Z</time>
      </trkpt>
      <trkpt lat="41.484756" lon="-4.989997">
        <ele>674.008</ele>
        <time>2017-09-19T11:33:19Z</time>
      </trkpt>
      <trkpt lat="41.484748" lon="-4.989982">
        <ele>673.520</ele>
        <time>2017-09-19T11:33:37Z</time>
      </trkpt>
      <trkpt lat="41.484755" lon="-4.989986">
        <ele>673.028</ele>
        <time>2017-09-19T11:34:14Z</time>
      </trkpt>
      <trkpt lat="41.484760" lon="-4.989994">
        <ele>673.028</ele>
        <time>2017-09-19T11:34:38Z</time>
      </trkpt>
      <trkpt lat="41.484756" lon="-4.989996">
        <ele>672.552</ele>
        <time>2017-09-19T11:35:09Z</time>
      </trkpt>
      <trkpt lat="41.484895" lon="-4.990072">
        <ele>673.030</ele>
        <time>2017-09-19T11:35:22Z</time>
      </trkpt>
      <trkpt lat="41.485215" lon="-4.990346">
        <ele>673.059</ele>
        <time>2017-09-19T11:35:36Z</time>
      </trkpt>
      <trkpt lat="41.485694" lon="-4.990713">
        <ele>673.079</ele>
        <time>2017-09-19T11:35:53Z</time>
      </trkpt>
      <trkpt lat="41.486154" lon="-4.991064">
        <ele>672.521</ele>
        <time>2017-09-19T11:36:09Z</time>
      </trkpt>
      <trkpt lat="41.486489" lon="-4.991299">
        <ele>672.557</ele>
        <time>2017-09-19T11:36:22Z</time>
      </trkpt>
      <trkpt lat="41.486921" lon="-4.991629">
        <ele>672.500</ele>
        <time>2017-09-19T11:36:37Z</time>
      </trkpt>
      <trkpt lat="41.487402" lon="-4.991999">
        <ele>672.520</ele>
        <time>2017-09-19T11:36:53Z</time>
      </trkpt>
      <trkpt lat="41.487854" lon="-4.992344">
        <ele>672.108</ele>
        <time>2017-09-19T11:37:09Z</time>
      </trkpt>
      <trkpt lat="41.488281" lon="-4.992672">
        <ele>672.546</ele>
        <time>2017-09-19T11:37:24Z</time>
      </trkpt>
      <trkpt lat="41.488764" lon="-4.993042">
        <ele>672.184</ele>
        <time>2017-09-19T11:37:41Z</time>
      </trkpt>
      <trkpt lat="41.489207" lon="-4.993337">
        <ele>672.524</ele>
        <time>2017-09-19T11:37:58Z</time>
      </trkpt>
      <trkpt lat="41.489290" lon="-4.993420">
        <ele>672.178</ele>
        <time>2017-09-19T11:38:10Z</time>
      </trkpt>
      <trkpt lat="41.489293" lon="-4.993424">
        <ele>672.596</ele>
        <time>2017-09-19T11:38:44Z</time>
      </trkpt>
      <trkpt lat="41.489271" lon="-4.993416">
        <ele>673.095</ele>
        <time>2017-09-19T11:39:07Z</time>
      </trkpt>
      <trkpt lat="41.489265" lon="-4.993409">
        <ele>673.055</ele>
        <time>2017-09-19T11:39:10Z</time>
      </trkpt>
      <trkpt lat="41.488991" lon="-4.993178">
        <ele>673.037</ele>
        <time>2017-09-19T11:39:23Z</time>
      </trkpt>
      <trkpt lat="41.488572" lon="-4.992880">
        <ele>673.574</ele>
        <time>2017-09-19T11:39:39Z</time>
      </trkpt>
      <trkpt lat="41.488036" lon="-4.992466">
        <ele>674.056</ele>
        <time>2017-09-19T11:39:58Z</time>
      </trkpt>
      <trkpt lat="41.487670" lon="-4.992202">
        <ele>674.021</ele>
        <time>2017-09-19T11:40:12Z</time>
      </trkpt>
      <trkpt lat="41.487155" lon="-4.991810">
        <ele>674.008</ele>
        <time>2017-09-19T11:40:29Z</time>
      </trkpt>
      <trkpt lat="41.486783" lon="-4.991531">
        <ele>674.568</ele>
        <time>2017-09-19T11:40:44Z</time>
      </trkpt>
      <trkpt lat="41.486372" lon="-4.991220">
        <ele>674.046</ele>
        <time>2017-09-19T11:40:59Z</time>
      </trkpt>
      <trkpt lat="41.486023" lon="-4.990961">
        <ele>674.076</ele>
        <time>2017-09-19T11:41:12Z</time>
      </trkpt>
      <trkpt lat="41.485582" lon="-4.990614">
        <ele>674.520</ele>
        <time>2017-09-19T11:41:26Z</time>
      </trkpt>
      <trkpt lat="41.484939" lon="-4.990118">
        <ele>674.018</ele>
        <time>2017-09-19T11:41:47Z</time>
      </trkpt>
      <trkpt lat="41.484464" lon="-4.989744">
        <ele>674.027</ele>
        <time>2017-09-19T11:42:04Z</time>
      </trkpt>
      <trkpt lat="41.484298" lon="-4.989633">
        <ele>674.097</ele>
        <time>2017-09-19T11:42:17Z</time>
      </trkpt>
      <trkpt lat="41.484299" lon="-4.989639">
        <ele>672.549</ele>
        <time>2017-09-19T11:43:00Z</time>
      </trkpt>
      <trkpt lat="41.484322" lon="-4.989625">
        <ele>674.081</ele>
        <time>2017-09-19T11:43:32Z</time>
      </trkpt>
      <trkpt lat="41.484320" lon="-4.989640">
        <ele>674.961</ele>
        <time>2017-09-19T11:44:02Z</time>
      </trkpt>
      <trkpt lat="41.484315" lon="-4.989655">
        <ele>675.417</ele>
        <time>2017-09-19T11:44:03Z</time>
      </trkpt>
      <trkpt lat="41.484246" lon="-4.989815">
        <ele>674.908</ele>
        <time>2017-09-19T11:44:13Z</time>
      </trkpt>
      <trkpt lat="41.484190" lon="-4.989940">
        <ele>674.969</ele>
        <time>2017-09-19T11:44:20Z</time>
      </trkpt>
      <trkpt lat="41.484187" lon="-4.989954">
        <ele>674.917</ele>
        <time>2017-09-19T11:44:21Z</time>
      </trkpt>
      <trkpt lat="41.484206" lon="-4.989984">
        <ele>674.927</ele>
        <time>2017-09-19T11:44:33Z</time>
      </trkpt>
      <trkpt lat="41.484219" lon="-4.989966">
        <ele>674.571</ele>
        <time>2017-09-19T11:44:35Z</time>
      </trkpt>
      <trkpt lat="41.484224" lon="-4.989949">
        <ele>674.569</ele>
        <time>2017-09-19T11:44:36Z</time>
      </trkpt>
      <trkpt lat="41.484335" lon="-4.989708">
        <ele>674.028</ele>
        <time>2017-09-19T11:44:48Z</time>
      </trkpt>
      <trkpt lat="41.484357" lon="-4.989712">
        <ele>674.078</ele>
        <time>2017-09-19T11:44:49Z</time>
      </trkpt>
      <trkpt lat="41.484721" lon="-4.989950">
        <ele>674.010</ele>
        <time>2017-09-19T11:45:04Z</time>
      </trkpt>
      <trkpt lat="41.485114" lon="-4.990262">
        <ele>674.527</ele>
        <time>2017-09-19T11:45:18Z</time>
      </trkpt>
      <trkpt lat="41.485634" lon="-4.990661">
        <ele>674.068</ele>
        <time>2017-09-19T11:45:35Z</time>
      </trkpt>
      <trkpt lat="41.486077" lon="-4.990998">
        <ele>674.014</ele>
        <time>2017-09-19T11:45:50Z</time>
      </trkpt>
      <trkpt lat="41.486669" lon="-4.991455">
        <ele>674.008</ele>
        <time>2017-09-19T11:46:09Z</time>
      </trkpt>
      <trkpt lat="41.487131" lon="-4.991790">
        <ele>674.043</ele>
        <time>2017-09-19T11:46:24Z</time>
      </trkpt>
      <trkpt lat="41.487626" lon="-4.992166">
        <ele>674.011</ele>
        <time>2017-09-19T11:46:41Z</time>
      </trkpt>
      <trkpt lat="41.488202" lon="-4.992574">
        <ele>674.031</ele>
        <time>2017-09-19T11:47:01Z</time>
      </trkpt>
      <trkpt lat="41.488742" lon="-4.992984">
        <ele>673.595</ele>
        <time>2017-09-19T11:47:20Z</time>
      </trkpt>
      <trkpt lat="41.489267" lon="-4.993375">
        <ele>674.083</ele>
        <time>2017-09-19T11:47:38Z</time>
      </trkpt>
      <trkpt lat="41.489992" lon="-4.993922">
        <ele>674.012</ele>
        <time>2017-09-19T11:47:59Z</time>
      </trkpt>
      <trkpt lat="41.490627" lon="-4.994392">
        <ele>674.072</ele>
        <time>2017-09-19T11:48:19Z</time>
      </trkpt>
      <trkpt lat="41.491109" lon="-4.994746">
        <ele>673.584</ele>
        <time>2017-09-19T11:48:35Z</time>
      </trkpt>
      <trkpt lat="41.491567" lon="-4.995072">
        <ele>672.595</ele>
        <time>2017-09-19T11:48:49Z</time>
      </trkpt>
      <trkpt lat="41.492008" lon="-4.995431">
        <ele>672.149</ele>
        <time>2017-09-19T11:49:03Z</time>
      </trkpt>
      <trkpt lat="41.492493" lon="-4.995784">
        <ele>672.123</ele>
        <time>2017-09-19T11:49:18Z</time>
      </trkpt>
      <trkpt lat="41.493015" lon="-4.996222">
        <ele>672.108</ele>
        <time>2017-09-19T11:49:35Z</time>
      </trkpt>
      <trkpt lat="41.493534" lon="-4.996740">
        <ele>672.550</ele>
        <time>2017-09-19T11:49:52Z</time>
      </trkpt>
      <trkpt lat="41.494054" lon="-4.997218">
        <ele>673.578</ele>
        <time>2017-09-19T11:50:10Z</time>
      </trkpt>
      <trkpt lat="41.494441" lon="-4.997696">
        <ele>672.568</ele>
        <time>2017-09-19T11:50:26Z</time>
      </trkpt>
      <trkpt lat="41.494917" lon="-4.998201">
        <ele>672.152</ele>
        <time>2017-09-19T11:50:43Z</time>
      </trkpt>
      <trkpt lat="41.495249" lon="-4.998519">
        <ele>672.560</ele>
        <time>2017-09-19T11:50:57Z</time>
      </trkpt>
      <trkpt lat="41.495652" lon="-4.998882">
        <ele>671.699</ele>
        <time>2017-09-19T11:51:13Z</time>
      </trkpt>
      <trkpt lat="41.495992" lon="-4.999260">
        <ele>672.589</ele>
        <time>2017-09-19T11:51:28Z</time>
      </trkpt>
      <trkpt lat="41.496288" lon="-4.999574">
        <ele>672.131</ele>
        <time>2017-09-19T11:51:41Z</time>
      </trkpt>
      <trkpt lat="41.496691" lon="-4.999861">
        <ele>673.081</ele>
        <time>2017-09-19T11:51:59Z</time>
      </trkpt>
      <trkpt lat="41.496717" lon="-4.999865">
        <ele>673.061</ele>
        <time>2017-09-19T11:52:01Z</time>
      </trkpt>
      <trkpt lat="41.496729" lon="-4.999867">
        <ele>672.517</ele>
        <time>2017-09-19T11:52:13Z</time>
      </trkpt>
      <trkpt lat="41.496748" lon="-4.999874">
        <ele>672.508</ele>
        <time>2017-09-19T11:52:19Z</time>
      </trkpt>
      <trkpt lat="41.496894" lon="-4.999947">
        <ele>673.059</ele>
        <time>2017-09-19T11:52:28Z</time>
      </trkpt>
      <trkpt lat="41.496906" lon="-4.999973">
        <ele>673.027</ele>
        <time>2017-09-19T11:52:29Z</time>
      </trkpt>
      <trkpt lat="41.496915" lon="-4.999999">
        <ele>673.557</ele>
        <time>2017-09-19T11:52:30Z</time>
      </trkpt>
      <trkpt lat="41.497148" lon="-5.000481">
        <ele>674.041</ele>
        <time>2017-09-19T11:52:42Z</time>
      </trkpt>
      <trkpt lat="41.497223" lon="-5.000549">
        <ele>674.019</ele>
        <time>2017-09-19T11:52:44Z</time>
      </trkpt>
      <trkpt lat="41.497263" lon="-5.000577">
        <ele>674.518</ele>
        <time>2017-09-19T11:52:45Z</time>
      </trkpt>
      <trkpt lat="41.497387" lon="-5.000645">
        <ele>674.938</ele>
        <time>2017-09-19T11:52:48Z</time>
      </trkpt>
      <trkpt lat="41.498034" lon="-5.000841">
        <ele>677.390</ele>
        <time>2017-09-19T11:53:04Z</time>
      </trkpt>
      <trkpt lat="41.498690" lon="-5.001031">
        <ele>680.791</ele>
        <time>2017-09-19T11:53:23Z</time>
      </trkpt>
      <trkpt lat="41.499100" lon="-5.001256">
        <ele>684.181</ele>
        <time>2017-09-19T11:53:38Z</time>
      </trkpt>
      <trkpt lat="41.499308" lon="-5.001647">
        <ele>686.519</ele>
        <time>2017-09-19T11:53:51Z</time>
      </trkpt>
      <trkpt lat="41.499392" lon="-5.002058">
        <ele>688.908</ele>
        <time>2017-09-19T11:54:04Z</time>
      </trkpt>
      <trkpt lat="41.499500" lon="-5.002495">
        <ele>690.330</ele>
        <time>2017-09-19T11:54:20Z</time>
      </trkpt>
      <trkpt lat="41.499787" lon="-5.002924">
        <ele>691.828</ele>
        <time>2017-09-19T11:54:39Z</time>
      </trkpt>
      <trkpt lat="41.500105" lon="-5.003161">
        <ele>692.738</ele>
        <time>2017-09-19T11:54:55Z</time>
      </trkpt>
      <trkpt lat="41.500380" lon="-5.003372">
        <ele>693.752</ele>
        <time>2017-09-19T11:55:09Z</time>
      </trkpt>
      <trkpt lat="41.500709" lon="-5.003599">
        <ele>694.630</ele>
        <time>2017-09-19T11:55:24Z</time>
      </trkpt>
      <trkpt lat="41.501135" lon="-5.003914">
        <ele>695.119</ele>
        <time>2017-09-19T11:55:41Z</time>
      </trkpt>
      <trkpt lat="41.501415" lon="-5.004126">
        <ele>695.159</ele>
        <time>2017-09-19T11:55:56Z</time>
      </trkpt>
      <trkpt lat="41.501428" lon="-5.004141">
        <ele>695.181</ele>
        <time>2017-09-19T11:55:57Z</time>
      </trkpt>
      <trkpt lat="41.501443" lon="-5.004152">
        <ele>695.135</ele>
        <time>2017-09-19T11:55:58Z</time>
      </trkpt>
      <trkpt lat="41.501589" lon="-5.004233">
        <ele>695.686</ele>
        <time>2017-09-19T11:56:09Z</time>
      </trkpt>
      <trkpt lat="41.501606" lon="-5.004230">
        <ele>695.614</ele>
        <time>2017-09-19T11:56:10Z</time>
      </trkpt>
      <trkpt lat="41.501621" lon="-5.004226">
        <ele>696.108</ele>
        <time>2017-09-19T11:56:11Z</time>
      </trkpt>
      <trkpt lat="41.501637" lon="-5.004219">
        <ele>696.174</ele>
        <time>2017-09-19T11:56:12Z</time>
      </trkpt>
      <trkpt lat="41.501651" lon="-5.004207">
        <ele>696.192</ele>
        <time>2017-09-19T11:56:13Z</time>
      </trkpt>
      <trkpt lat="41.501665" lon="-5.004199">
        <ele>696.152</ele>
        <time>2017-09-19T11:56:14Z</time>
      </trkpt>
      <trkpt lat="41.501675" lon="-5.004197">
        <ele>696.126</ele>
        <time>2017-09-19T11:56:15Z</time>
      </trkpt>
      <trkpt lat="41.501689" lon="-5.004193">
        <ele>696.174</ele>
        <time>2017-09-19T11:56:16Z</time>
      </trkpt>
      <trkpt lat="41.501703" lon="-5.004194">
        <ele>696.123</ele>
        <time>2017-09-19T11:56:17Z</time>
      </trkpt>
      <trkpt lat="41.501723" lon="-5.004205">
        <ele>696.673</ele>
        <time>2017-09-19T11:56:18Z</time>
      </trkpt>
      <trkpt lat="41.501748" lon="-5.004223">
        <ele>696.625</ele>
        <time>2017-09-19T11:56:19Z</time>
      </trkpt>
      <trkpt lat="41.501774" lon="-5.004252">
        <ele>696.657</ele>
        <time>2017-09-19T11:56:20Z</time>
      </trkpt>
      <trkpt lat="41.501798" lon="-5.004292">
        <ele>696.600</ele>
        <time>2017-09-19T11:56:21Z</time>
      </trkpt>
      <trkpt lat="41.501821" lon="-5.004340">
        <ele>696.120</ele>
        <time>2017-09-19T11:56:22Z</time>
      </trkpt>
      <trkpt lat="41.501838" lon="-5.004388">
        <ele>696.108</ele>
        <time>2017-09-19T11:56:23Z</time>
      </trkpt>
      <trkpt lat="41.501850" lon="-5.004443">
        <ele>696.116</ele>
        <time>2017-09-19T11:56:24Z</time>
      </trkpt>
      <trkpt lat="41.501847" lon="-5.004498">
        <ele>696.184</ele>
        <time>2017-09-19T11:56:25Z</time>
      </trkpt>
      <trkpt lat="41.501829" lon="-5.004545">
        <ele>696.114</ele>
        <time>2017-09-19T11:56:26Z</time>
      </trkpt>
      <trkpt lat="41.501797" lon="-5.004578">
        <ele>696.158</ele>
        <time>2017-09-19T11:56:27Z</time>
      </trkpt>
      <trkpt lat="41.501755" lon="-5.004593">
        <ele>695.676</ele>
        <time>2017-09-19T11:56:28Z</time>
      </trkpt>
      <trkpt lat="41.501710" lon="-5.004587">
        <ele>695.625</ele>
        <time>2017-09-19T11:56:29Z</time>
      </trkpt>
      <trkpt lat="41.501668" lon="-5.004569">
        <ele>695.635</ele>
        <time>2017-09-19T11:56:30Z</time>
      </trkpt>
      <trkpt lat="41.501625" lon="-5.004552">
        <ele>695.677</ele>
        <time>2017-09-19T11:56:31Z</time>
      </trkpt>
      <trkpt lat="41.501581" lon="-5.004547">
        <ele>695.692</ele>
        <time>2017-09-19T11:56:32Z</time>
      </trkpt>
      <trkpt lat="41.501545" lon="-5.004560">
        <ele>695.673</ele>
        <time>2017-09-19T11:56:33Z</time>
      </trkpt>
      <trkpt lat="41.501502" lon="-5.004588">
        <ele>695.120</ele>
        <time>2017-09-19T11:56:34Z</time>
      </trkpt>
      <trkpt lat="41.501462" lon="-5.004624">
        <ele>695.108</ele>
        <time>2017-09-19T11:56:35Z</time>
      </trkpt>
      <trkpt lat="41.501420" lon="-5.004666">
        <ele>694.610</ele>
        <time>2017-09-19T11:56:36Z</time>
      </trkpt>
      <trkpt lat="41.501301" lon="-5.004852">
        <ele>693.788</ele>
        <time>2017-09-19T11:56:43Z</time>
      </trkpt>
      <trkpt lat="41.501281" lon="-5.004849">
        <ele>695.678</ele>
        <time>2017-09-19T11:56:48Z</time>
      </trkpt>
      <trkpt lat="41.501276" lon="-5.004835">
        <ele>696.112</ele>
        <time>2017-09-19T11:56:49Z</time>
      </trkpt>
      <trkpt lat="41.501284" lon="-5.004808">
        <ele>696.610</ele>
        <time>2017-09-19T11:56:51Z</time>
      </trkpt>
      <trkpt lat="41.501295" lon="-5.004794">
        <ele>696.639</ele>
        <time>2017-09-19T11:56:52Z</time>
      </trkpt>
      <trkpt lat="41.501308" lon="-5.004774">
        <ele>696.629</ele>
        <time>2017-09-19T11:56:53Z</time>
      </trkpt>
      <trkpt lat="41.501322" lon="-5.004756">
        <ele>696.661</ele>
        <time>2017-09-19T11:56:54Z</time>
      </trkpt>
      <trkpt lat="41.501343" lon="-5.004736">
        <ele>697.095</ele>
        <time>2017-09-19T11:56:55Z</time>
      </trkpt>
      <trkpt lat="41.501502" lon="-5.004553">
        <ele>699.549</ele>
        <time>2017-09-19T11:57:03Z</time>
      </trkpt>
      <trkpt lat="41.501517" lon="-5.004556">
        <ele>699.523</ele>
        <time>2017-09-19T11:57:04Z</time>
      </trkpt>
      <trkpt lat="41.501522" lon="-5.004571">
        <ele>699.508</ele>
        <time>2017-09-19T11:57:05Z</time>
      </trkpt>
      <trkpt lat="41.501517" lon="-5.004590">
        <ele>699.550</ele>
        <time>2017-09-19T11:57:06Z</time>
      </trkpt>
      <trkpt lat="41.501502" lon="-5.004610">
        <ele>699.538</ele>
        <time>2017-09-19T11:57:07Z</time>
      </trkpt>
      <trkpt lat="41.501482" lon="-5.004626">
        <ele>699.578</ele>
        <time>2017-09-19T11:57:08Z</time>
      </trkpt>
      <trkpt lat="41.501459" lon="-5.004644">
        <ele>699.522</ele>
        <time>2017-09-19T11:57:09Z</time>
      </trkpt>
      <trkpt lat="41.501086" lon="-5.005041">
        <ele>696.650</ele>
        <time>2017-09-19T11:57:19Z</time>
      </trkpt>
      <trkpt lat="41.500864" lon="-5.005346">
        <ele>693.259</ele>
        <time>2017-09-19T11:57:26Z</time>
      </trkpt>
      <trkpt lat="41.500780" lon="-5.005546">
        <ele>692.799</ele>
        <time>2017-09-19T11:57:29Z</time>
      </trkpt>
      <trkpt lat="41.500763" lon="-5.005627">
        <ele>692.761</ele>
        <time>2017-09-19T11:57:30Z</time>
      </trkpt>
      <trkpt lat="41.500676" lon="-5.006414">
        <ele>690.847</ele>
        <time>2017-09-19T11:57:43Z</time>
      </trkpt>
      <trkpt lat="41.500661" lon="-5.006515">
        <ele>690.829</ele>
        <time>2017-09-19T11:57:45Z</time>
      </trkpt>
      <trkpt lat="41.500648" lon="-5.006569">
        <ele>690.821</ele>
        <time>2017-09-19T11:57:46Z</time>
      </trkpt>
      <trkpt lat="41.500586" lon="-5.006789">
        <ele>690.808</ele>
        <time>2017-09-19T11:57:50Z</time>
      </trkpt>
      <trkpt lat="41.500547" lon="-5.006974">
        <ele>690.825</ele>
        <time>2017-09-19T11:57:53Z</time>
      </trkpt>
      <trkpt lat="41.500512" lon="-5.007099">
        <ele>691.393</ele>
        <time>2017-09-19T11:57:55Z</time>
      </trkpt>
      <trkpt lat="41.500494" lon="-5.007162">
        <ele>691.313</ele>
        <time>2017-09-19T11:57:56Z</time>
      </trkpt>
      <trkpt lat="41.500425" lon="-5.007336">
        <ele>690.817</ele>
        <time>2017-09-19T11:57:59Z</time>
      </trkpt>
      <trkpt lat="41.500395" lon="-5.007398">
        <ele>690.385</ele>
        <time>2017-09-19T11:58:00Z</time>
      </trkpt>
      <trkpt lat="41.500206" lon="-5.007957">
        <ele>690.344</ele>
        <time>2017-09-19T11:58:09Z</time>
      </trkpt>
      <trkpt lat="41.500190" lon="-5.008020">
        <ele>690.834</ele>
        <time>2017-09-19T11:58:10Z</time>
      </trkpt>
      <trkpt lat="41.499975" lon="-5.008773">
        <ele>693.736</ele>
        <time>2017-09-19T11:58:24Z</time>
      </trkpt>
      <trkpt lat="41.499764" lon="-5.009523">
        <ele>695.178</ele>
        <time>2017-09-19T11:58:40Z</time>
      </trkpt>
      <trkpt lat="41.499574" lon="-5.010175">
        <ele>694.633</ele>
        <time>2017-09-19T11:58:57Z</time>
      </trkpt>
      <trkpt lat="41.499255" lon="-5.010870">
        <ele>690.826</ele>
        <time>2017-09-19T11:59:10Z</time>
      </trkpt>
      <trkpt lat="41.498681" lon="-5.012090">
        <ele>682.608</ele>
        <time>2017-09-19T11:59:23Z</time>
      </trkpt>
      <trkpt lat="41.498361" lon="-5.012570">
        <ele>680.728</ele>
        <time>2017-09-19T11:59:30Z</time>
      </trkpt>
      <trkpt lat="41.498332" lon="-5.012636">
        <ele>680.746</ele>
        <time>2017-09-19T11:59:31Z</time>
      </trkpt>
      <trkpt lat="41.498311" lon="-5.012705">
        <ele>680.246</ele>
        <time>2017-09-19T11:59:32Z</time>
      </trkpt>
      <trkpt lat="41.498294" lon="-5.012779">
        <ele>680.280</ele>
        <time>2017-09-19T11:59:33Z</time>
      </trkpt>
      <trkpt lat="41.498279" lon="-5.012854">
        <ele>680.268</ele>
        <time>2017-09-19T11:59:34Z</time>
      </trkpt>
      <trkpt lat="41.498097" lon="-5.014082">
        <ele>677.827</ele>
        <time>2017-09-19T11:59:49Z</time>
      </trkpt>
      <trkpt lat="41.497835" lon="-5.015264">
        <ele>675.447</ele>
        <time>2017-09-19T12:00:03Z</time>
      </trkpt>
      <trkpt lat="41.497441" lon="-5.016671">
        <ele>674.069</ele>
        <time>2017-09-19T12:00:20Z</time>
      </trkpt>
      <trkpt lat="41.497124" lon="-5.017745">
        <ele>674.018</ele>
        <time>2017-09-19T12:00:34Z</time>
      </trkpt>
      <trkpt lat="41.496747" lon="-5.018981">
        <ele>673.098</ele>
        <time>2017-09-19T12:00:51Z</time>
      </trkpt>
      <trkpt lat="41.496362" lon="-5.020219">
        <ele>672.117</ele>
        <time>2017-09-19T12:01:09Z</time>
      </trkpt>
      <trkpt lat="41.496236" lon="-5.021035">
        <ele>672.508</ele>
        <time>2017-09-19T12:01:21Z</time>
      </trkpt>
      <trkpt lat="41.496228" lon="-5.021096">
        <ele>672.552</ele>
        <time>2017-09-19T12:01:22Z</time>
      </trkpt>
      <trkpt lat="41.496216" lon="-5.021162">
        <ele>672.570</ele>
        <time>2017-09-19T12:01:23Z</time>
      </trkpt>
      <trkpt lat="41.496203" lon="-5.021225">
        <ele>672.550</ele>
        <time>2017-09-19T12:01:24Z</time>
      </trkpt>
      <trkpt lat="41.496191" lon="-5.021293">
        <ele>672.514</ele>
        <time>2017-09-19T12:01:25Z</time>
      </trkpt>
      <trkpt lat="41.496013" lon="-5.021878">
        <ele>672.562</ele>
        <time>2017-09-19T12:01:35Z</time>
      </trkpt>
      <trkpt lat="41.496001" lon="-5.021940">
        <ele>672.521</ele>
        <time>2017-09-19T12:01:36Z</time>
      </trkpt>
      <trkpt lat="41.495988" lon="-5.021999">
        <ele>672.561</ele>
        <time>2017-09-19T12:01:37Z</time>
      </trkpt>
      <trkpt lat="41.495971" lon="-5.022055">
        <ele>673.063</ele>
        <time>2017-09-19T12:01:38Z</time>
      </trkpt>
      <trkpt lat="41.495954" lon="-5.022102">
        <ele>673.038</ele>
        <time>2017-09-19T12:01:39Z</time>
      </trkpt>
      <trkpt lat="41.495940" lon="-5.022149">
        <ele>673.070</ele>
        <time>2017-09-19T12:01:40Z</time>
      </trkpt>
      <trkpt lat="41.495926" lon="-5.022193">
        <ele>673.017</ele>
        <time>2017-09-19T12:01:41Z</time>
      </trkpt>
      <trkpt lat="41.495917" lon="-5.022237">
        <ele>673.508</ele>
        <time>2017-09-19T12:01:42Z</time>
      </trkpt>
      <trkpt lat="41.495909" lon="-5.022291">
        <ele>673.514</ele>
        <time>2017-09-19T12:01:43Z</time>
      </trkpt>
      <trkpt lat="41.495701" lon="-5.023163">
        <ele>673.012</ele>
        <time>2017-09-19T12:01:57Z</time>
      </trkpt>
      <trkpt lat="41.495694" lon="-5.023230">
        <ele>673.052</ele>
        <time>2017-09-19T12:01:58Z</time>
      </trkpt>
      <trkpt lat="41.495557" lon="-5.024299">
        <ele>672.146</ele>
        <time>2017-09-19T12:02:14Z</time>
      </trkpt>
      <trkpt lat="41.495542" lon="-5.024360">
        <ele>672.134</ele>
        <time>2017-09-19T12:02:15Z</time>
      </trkpt>
      <trkpt lat="41.495522" lon="-5.024421">
        <ele>672.133</ele>
        <time>2017-09-19T12:02:16Z</time>
      </trkpt>
      <trkpt lat="41.495505" lon="-5.024483">
        <ele>672.193</ele>
        <time>2017-09-19T12:02:17Z</time>
      </trkpt>
      <trkpt lat="41.495280" lon="-5.025709">
        <ele>672.525</ele>
        <time>2017-09-19T12:02:36Z</time>
      </trkpt>
      <trkpt lat="41.495097" lon="-5.026968">
        <ele>672.136</ele>
        <time>2017-09-19T12:02:55Z</time>
      </trkpt>
      <trkpt lat="41.494872" lon="-5.028237">
        <ele>671.617</ele>
        <time>2017-09-19T12:03:14Z</time>
      </trkpt>
      <trkpt lat="41.494787" lon="-5.028682">
        <ele>671.618</ele>
        <time>2017-09-19T12:03:21Z</time>
      </trkpt>
      <trkpt lat="41.494689" lon="-5.029334">
        <ele>671.108</ele>
        <time>2017-09-19T12:03:31Z</time>
      </trkpt>
      <trkpt lat="41.494673" lon="-5.029394">
        <ele>671.164</ele>
        <time>2017-09-19T12:03:32Z</time>
      </trkpt>
      <trkpt lat="41.494658" lon="-5.029455">
        <ele>671.632</ele>
        <time>2017-09-19T12:03:33Z</time>
      </trkpt>
      <trkpt lat="41.494484" lon="-5.030633">
        <ele>672.122</ele>
        <time>2017-09-19T12:03:51Z</time>
      </trkpt>
      <trkpt lat="41.494437" lon="-5.031028">
        <ele>672.156</ele>
        <time>2017-09-19T12:03:57Z</time>
      </trkpt>
      <trkpt lat="41.494284" lon="-5.032255">
        <ele>672.184</ele>
        <time>2017-09-19T12:04:16Z</time>
      </trkpt>
      <trkpt lat="41.494120" lon="-5.033403">
        <ele>672.523</ele>
        <time>2017-09-19T12:04:34Z</time>
      </trkpt>
      <trkpt lat="41.494105" lon="-5.033464">
        <ele>672.553</ele>
        <time>2017-09-19T12:04:35Z</time>
      </trkpt>
      <trkpt lat="41.493851" lon="-5.034485">
        <ele>672.595</ele>
        <time>2017-09-19T12:04:52Z</time>
      </trkpt>
      <trkpt lat="41.493787" lon="-5.034722">
        <ele>672.516</ele>
        <time>2017-09-19T12:04:56Z</time>
      </trkpt>
      <trkpt lat="41.493754" lon="-5.034836">
        <ele>672.576</ele>
        <time>2017-09-19T12:04:58Z</time>
      </trkpt>
      <trkpt lat="41.493740" lon="-5.034893">
        <ele>672.513</ele>
        <time>2017-09-19T12:04:59Z</time>
      </trkpt>
      <trkpt lat="41.493722" lon="-5.034950">
        <ele>672.508</ele>
        <time>2017-09-19T12:05:00Z</time>
      </trkpt>
      <trkpt lat="41.493573" lon="-5.035403">
        <ele>672.172</ele>
        <time>2017-09-19T12:05:08Z</time>
      </trkpt>
      <trkpt lat="41.493452" lon="-5.035792">
        <ele>671.650</ele>
        <time>2017-09-19T12:05:15Z</time>
      </trkpt>
      <trkpt lat="41.493437" lon="-5.035853">
        <ele>672.190</ele>
        <time>2017-09-19T12:05:16Z</time>
      </trkpt>
      <trkpt lat="41.493420" lon="-5.035911">
        <ele>671.684</ele>
        <time>2017-09-19T12:05:17Z</time>
      </trkpt>
      <trkpt lat="41.493401" lon="-5.035970">
        <ele>671.632</ele>
        <time>2017-09-19T12:05:18Z</time>
      </trkpt>
      <trkpt lat="41.493385" lon="-5.036028">
        <ele>671.151</ele>
        <time>2017-09-19T12:05:19Z</time>
      </trkpt>
      <trkpt lat="41.493326" lon="-5.036327">
        <ele>671.191</ele>
        <time>2017-09-19T12:05:24Z</time>
      </trkpt>
      <trkpt lat="41.493173" lon="-5.037316">
        <ele>671.623</ele>
        <time>2017-09-19T12:05:39Z</time>
      </trkpt>
      <trkpt lat="41.492993" lon="-5.038468">
        <ele>671.625</ele>
        <time>2017-09-19T12:05:56Z</time>
      </trkpt>
      <trkpt lat="41.492776" lon="-5.039475">
        <ele>670.126</ele>
        <time>2017-09-19T12:06:12Z</time>
      </trkpt>
      <trkpt lat="41.492456" lon="-5.040630">
        <ele>669.708</ele>
        <time>2017-09-19T12:06:30Z</time>
      </trkpt>
      <trkpt lat="41.492429" lon="-5.040691">
        <ele>669.708</ele>
        <time>2017-09-19T12:06:31Z</time>
      </trkpt>
      <trkpt lat="41.492402" lon="-5.040751">
        <ele>669.733</ele>
        <time>2017-09-19T12:06:32Z</time>
      </trkpt>
      <trkpt lat="41.492146" lon="-5.041868">
        <ele>670.171</ele>
        <time>2017-09-19T12:06:48Z</time>
      </trkpt>
      <trkpt lat="41.491847" lon="-5.043241">
        <ele>671.181</ele>
        <time>2017-09-19T12:07:08Z</time>
      </trkpt>
      <trkpt lat="41.491739" lon="-5.043740">
        <ele>670.685</ele>
        <time>2017-09-19T12:07:16Z</time>
      </trkpt>
      <trkpt lat="41.491729" lon="-5.043798">
        <ele>670.663</ele>
        <time>2017-09-19T12:07:17Z</time>
      </trkpt>
      <trkpt lat="41.491441" lon="-5.044848">
        <ele>670.632</ele>
        <time>2017-09-19T12:07:33Z</time>
      </trkpt>
      <trkpt lat="41.491286" lon="-5.045379">
        <ele>671.152</ele>
        <time>2017-09-19T12:07:41Z</time>
      </trkpt>
      <trkpt lat="41.490858" lon="-5.046697">
        <ele>670.164</ele>
        <time>2017-09-19T12:08:02Z</time>
      </trkpt>
      <trkpt lat="41.490764" lon="-5.047159">
        <ele>670.193</ele>
        <time>2017-09-19T12:08:09Z</time>
      </trkpt>
      <trkpt lat="41.490606" lon="-5.048106">
        <ele>669.765</ele>
        <time>2017-09-19T12:08:24Z</time>
      </trkpt>
      <trkpt lat="41.490386" lon="-5.049464">
        <ele>669.721</ele>
        <time>2017-09-19T12:08:46Z</time>
      </trkpt>
      <trkpt lat="41.490260" lon="-5.050596">
        <ele>669.208</ele>
        <time>2017-09-19T12:09:04Z</time>
      </trkpt>
      <trkpt lat="41.490099" lon="-5.051636">
        <ele>669.210</ele>
        <time>2017-09-19T12:09:21Z</time>
      </trkpt>
      <trkpt lat="41.490084" lon="-5.051694">
        <ele>669.258</ele>
        <time>2017-09-19T12:09:22Z</time>
      </trkpt>
      <trkpt lat="41.490057" lon="-5.051807">
        <ele>669.298</ele>
        <time>2017-09-19T12:09:24Z</time>
      </trkpt>
      <trkpt lat="41.490051" lon="-5.051866">
        <ele>668.732</ele>
        <time>2017-09-19T12:09:25Z</time>
      </trkpt>
      <trkpt lat="41.490040" lon="-5.052129">
        <ele>668.760</ele>
        <time>2017-09-19T12:09:29Z</time>
      </trkpt>
      <trkpt lat="41.489936" lon="-5.053114">
        <ele>668.749</ele>
        <time>2017-09-19T12:09:44Z</time>
      </trkpt>
      <trkpt lat="41.489907" lon="-5.054013">
        <ele>669.749</ele>
        <time>2017-09-19T12:09:59Z</time>
      </trkpt>
      <trkpt lat="41.489852" lon="-5.054804">
        <ele>671.661</ele>
        <time>2017-09-19T12:10:15Z</time>
      </trkpt>
      <trkpt lat="41.489881" lon="-5.055383">
        <ele>672.181</ele>
        <time>2017-09-19T12:10:27Z</time>
      </trkpt>
      <trkpt lat="41.489858" lon="-5.056436">
        <ele>671.661</ele>
        <time>2017-09-19T12:10:44Z</time>
      </trkpt>
      <trkpt lat="41.489841" lon="-5.057548">
        <ele>672.517</ele>
        <time>2017-09-19T12:11:02Z</time>
      </trkpt>
      <trkpt lat="41.489838" lon="-5.058459">
        <ele>671.608</ele>
        <time>2017-09-19T12:11:16Z</time>
      </trkpt>
      <trkpt lat="41.489816" lon="-5.060034">
        <ele>671.689</ele>
        <time>2017-09-19T12:11:37Z</time>
      </trkpt>
      <trkpt lat="41.489796" lon="-5.061366">
        <ele>671.627</ele>
        <time>2017-09-19T12:11:55Z</time>
      </trkpt>
      <trkpt lat="41.489777" lon="-5.062679">
        <ele>672.117</ele>
        <time>2017-09-19T12:12:14Z</time>
      </trkpt>
      <trkpt lat="41.489766" lon="-5.063993">
        <ele>672.151</ele>
        <time>2017-09-19T12:12:34Z</time>
      </trkpt>
      <trkpt lat="41.489758" lon="-5.064388">
        <ele>672.199</ele>
        <time>2017-09-19T12:12:40Z</time>
      </trkpt>
      <trkpt lat="41.489749" lon="-5.065592">
        <ele>670.628</ele>
        <time>2017-09-19T12:12:58Z</time>
      </trkpt>
      <trkpt lat="41.489726" lon="-5.066941">
        <ele>670.678</ele>
        <time>2017-09-19T12:13:16Z</time>
      </trkpt>
      <trkpt lat="41.489592" lon="-5.068145">
        <ele>671.170</ele>
        <time>2017-09-19T12:13:34Z</time>
      </trkpt>
      <trkpt lat="41.489547" lon="-5.068329">
        <ele>671.165</ele>
        <time>2017-09-19T12:13:37Z</time>
      </trkpt>
      <trkpt lat="41.489305" lon="-5.069050">
        <ele>670.168</ele>
        <time>2017-09-19T12:13:49Z</time>
      </trkpt>
      <trkpt lat="41.488802" lon="-5.070191">
        <ele>669.214</ele>
        <time>2017-09-19T12:14:08Z</time>
      </trkpt>
      <trkpt lat="41.488372" lon="-5.071171">
        <ele>670.108</ele>
        <time>2017-09-19T12:14:25Z</time>
      </trkpt>
      <trkpt lat="41.487835" lon="-5.072379">
        <ele>669.717</ele>
        <time>2017-09-19T12:14:45Z</time>
      </trkpt>
      <trkpt lat="41.487326" lon="-5.073534">
        <ele>671.195</ele>
        <time>2017-09-19T12:15:05Z</time>
      </trkpt>
      <trkpt lat="41.486902" lon="-5.074497">
        <ele>671.175</ele>
        <time>2017-09-19T12:15:23Z</time>
      </trkpt>
      <trkpt lat="41.486582" lon="-5.075555">
        <ele>670.139</ele>
        <time>2017-09-19T12:15:39Z</time>
      </trkpt>
      <trkpt lat="41.486314" lon="-5.076994">
        <ele>669.787</ele>
        <time>2017-09-19T12:15:58Z</time>
      </trkpt>
      <trkpt lat="41.486210" lon="-5.077534">
        <ele>670.176</ele>
        <time>2017-09-19T12:16:06Z</time>
      </trkpt>
      <trkpt lat="41.486197" lon="-5.077593">
        <ele>670.156</ele>
        <time>2017-09-19T12:16:07Z</time>
      </trkpt>
      <trkpt lat="41.486187" lon="-5.077654">
        <ele>669.738</ele>
        <time>2017-09-19T12:16:08Z</time>
      </trkpt>
      <trkpt lat="41.485963" lon="-5.078912">
        <ele>669.226</ele>
        <time>2017-09-19T12:16:26Z</time>
      </trkpt>
      <trkpt lat="41.485751" lon="-5.080082">
        <ele>669.247</ele>
        <time>2017-09-19T12:16:42Z</time>
      </trkpt>
      <trkpt lat="41.485524" lon="-5.081294">
        <ele>668.711</ele>
        <time>2017-09-19T12:17:01Z</time>
      </trkpt>
      <trkpt lat="41.485490" lon="-5.081483">
        <ele>668.708</ele>
        <time>2017-09-19T12:17:04Z</time>
      </trkpt>
      <trkpt lat="41.485291" lon="-5.082567">
        <ele>670.143</ele>
        <time>2017-09-19T12:17:22Z</time>
      </trkpt>
      <trkpt lat="41.485173" lon="-5.083146">
        <ele>670.181</ele>
        <time>2017-09-19T12:17:33Z</time>
      </trkpt>
      <trkpt lat="41.484893" lon="-5.083927">
        <ele>670.641</ele>
        <time>2017-09-19T12:17:48Z</time>
      </trkpt>
      <trkpt lat="41.484674" lon="-5.084447">
        <ele>670.665</ele>
        <time>2017-09-19T12:17:58Z</time>
      </trkpt>
      <trkpt lat="41.484622" lon="-5.084541">
        <ele>670.123</ele>
        <time>2017-09-19T12:18:00Z</time>
      </trkpt>
      <trkpt lat="41.484460" lon="-5.084844">
        <ele>669.752</ele>
        <time>2017-09-19T12:18:07Z</time>
      </trkpt>
      <trkpt lat="41.484443" lon="-5.084886">
        <ele>669.792</ele>
        <time>2017-09-19T12:18:08Z</time>
      </trkpt>
      <trkpt lat="41.484417" lon="-5.084934">
        <ele>670.144</ele>
        <time>2017-09-19T12:18:09Z</time>
      </trkpt>
      <trkpt lat="41.484022" lon="-5.085720">
        <ele>672.572</ele>
        <time>2017-09-19T12:18:26Z</time>
      </trkpt>
      <trkpt lat="41.483961" lon="-5.085859">
        <ele>673.013</ele>
        <time>2017-09-19T12:18:29Z</time>
      </trkpt>
      <trkpt lat="41.483946" lon="-5.085919">
        <ele>672.514</ele>
        <time>2017-09-19T12:18:30Z</time>
      </trkpt>
      <trkpt lat="41.483937" lon="-5.085970">
        <ele>672.508</ele>
        <time>2017-09-19T12:18:31Z</time>
      </trkpt>
      <trkpt lat="41.483932" lon="-5.086036">
        <ele>672.128</ele>
        <time>2017-09-19T12:18:32Z</time>
      </trkpt>
      <trkpt lat="41.483928" lon="-5.086104">
        <ele>672.166</ele>
        <time>2017-09-19T12:18:33Z</time>
      </trkpt>
      <trkpt lat="41.483888" lon="-5.086466">
        <ele>673.036</ele>
        <time>2017-09-19T12:18:39Z</time>
      </trkpt>
      <trkpt lat="41.483695" lon="-5.087279">
        <ele>674.060</ele>
        <time>2017-09-19T12:18:54Z</time>
      </trkpt>
      <trkpt lat="41.483669" lon="-5.087400">
        <ele>673.518</ele>
        <time>2017-09-19T12:18:56Z</time>
      </trkpt>
      <trkpt lat="41.483660" lon="-5.087460">
        <ele>673.587</ele>
        <time>2017-09-19T12:18:57Z</time>
      </trkpt>
      <trkpt lat="41.483546" lon="-5.088334">
        <ele>674.017</ele>
        <time>2017-09-19T12:19:13Z</time>
      </trkpt>
      <trkpt lat="41.483332" lon="-5.089309">
        <ele>674.569</ele>
        <time>2017-09-19T12:19:30Z</time>
      </trkpt>
      <trkpt lat="41.483018" lon="-5.090229">
        <ele>674.085</ele>
        <time>2017-09-19T12:19:47Z</time>
      </trkpt>
      <trkpt lat="41.482923" lon="-5.090484">
        <ele>673.089</ele>
        <time>2017-09-19T12:19:52Z</time>
      </trkpt>
      <trkpt lat="41.482633" lon="-5.091323">
        <ele>671.617</ele>
        <time>2017-09-19T12:20:06Z</time>
      </trkpt>
      <trkpt lat="41.482270" lon="-5.092331">
        <ele>671.108</ele>
        <time>2017-09-19T12:20:23Z</time>
      </trkpt>
      <trkpt lat="41.481883" lon="-5.093406">
        <ele>670.659</ele>
        <time>2017-09-19T12:20:42Z</time>
      </trkpt>
      <trkpt lat="41.481866" lon="-5.093462">
        <ele>670.687</ele>
        <time>2017-09-19T12:20:43Z</time>
      </trkpt>
      <trkpt lat="41.481509" lon="-5.094537">
        <ele>671.167</ele>
        <time>2017-09-19T12:21:01Z</time>
      </trkpt>
      <trkpt lat="41.481140" lon="-5.095559">
        <ele>670.661</ele>
        <time>2017-09-19T12:21:18Z</time>
      </trkpt>
      <trkpt lat="41.480821" lon="-5.096374">
        <ele>669.759</ele>
        <time>2017-09-19T12:21:31Z</time>
      </trkpt>
      <trkpt lat="41.480404" lon="-5.097415">
        <ele>670.118</ele>
        <time>2017-09-19T12:21:48Z</time>
      </trkpt>
      <trkpt lat="41.479946" lon="-5.098559">
        <ele>670.168</ele>
        <time>2017-09-19T12:22:08Z</time>
      </trkpt>
      <trkpt lat="41.479463" lon="-5.099758">
        <ele>670.120</ele>
        <time>2017-09-19T12:22:28Z</time>
      </trkpt>
      <trkpt lat="41.479254" lon="-5.100242">
        <ele>670.137</ele>
        <time>2017-09-19T12:22:36Z</time>
      </trkpt>
      <trkpt lat="41.478779" lon="-5.101466">
        <ele>669.749</ele>
        <time>2017-09-19T12:22:56Z</time>
      </trkpt>
      <trkpt lat="41.478609" lon="-5.101976">
        <ele>669.713</ele>
        <time>2017-09-19T12:23:05Z</time>
      </trkpt>
      <trkpt lat="41.478519" lon="-5.102383">
        <ele>669.708</ele>
        <time>2017-09-19T12:23:12Z</time>
      </trkpt>
      <trkpt lat="41.478507" lon="-5.102443">
        <ele>669.774</ele>
        <time>2017-09-19T12:23:13Z</time>
      </trkpt>
      <trkpt lat="41.478491" lon="-5.102503">
        <ele>670.162</ele>
        <time>2017-09-19T12:23:14Z</time>
      </trkpt>
      <trkpt lat="41.478474" lon="-5.102562">
        <ele>670.182</ele>
        <time>2017-09-19T12:23:15Z</time>
      </trkpt>
      <trkpt lat="41.478459" lon="-5.102620">
        <ele>670.626</ele>
        <time>2017-09-19T12:23:16Z</time>
      </trkpt>
      <trkpt lat="41.478252" lon="-5.103449">
        <ele>673.064</ele>
        <time>2017-09-19T12:23:31Z</time>
      </trkpt>
      <trkpt lat="41.478034" lon="-5.104249">
        <ele>672.573</ele>
        <time>2017-09-19T12:23:45Z</time>
      </trkpt>
      <trkpt lat="41.477893" lon="-5.104729">
        <ele>672.523</ele>
        <time>2017-09-19T12:23:52Z</time>
      </trkpt>
      <trkpt lat="41.477624" lon="-5.105858">
        <ele>672.585</ele>
        <time>2017-09-19T12:24:08Z</time>
      </trkpt>
      <trkpt lat="41.477265" lon="-5.107186">
        <ele>671.646</ele>
        <time>2017-09-19T12:24:26Z</time>
      </trkpt>
      <trkpt lat="41.476800" lon="-5.108633">
        <ele>670.188</ele>
        <time>2017-09-19T12:24:46Z</time>
      </trkpt>
      <trkpt lat="41.476357" lon="-5.110052">
        <ele>669.716</ele>
        <time>2017-09-19T12:25:06Z</time>
      </trkpt>
      <trkpt lat="41.475936" lon="-5.111340">
        <ele>669.208</ele>
        <time>2017-09-19T12:25:25Z</time>
      </trkpt>
      <trkpt lat="41.475562" lon="-5.112517">
        <ele>667.745</ele>
        <time>2017-09-19T12:25:42Z</time>
      </trkpt>
      <trkpt lat="41.475169" lon="-5.113716">
        <ele>667.733</ele>
        <time>2017-09-19T12:26:00Z</time>
      </trkpt>
      <trkpt lat="41.474760" lon="-5.114910">
        <ele>667.213</ele>
        <time>2017-09-19T12:26:18Z</time>
      </trkpt>
      <trkpt lat="41.474416" lon="-5.115888">
        <ele>666.817</ele>
        <time>2017-09-19T12:26:33Z</time>
      </trkpt>
      <trkpt lat="41.474300" lon="-5.116139">
        <ele>666.895</ele>
        <time>2017-09-19T12:26:37Z</time>
      </trkpt>
      <trkpt lat="41.473741" lon="-5.117062">
        <ele>667.254</ele>
        <time>2017-09-19T12:26:55Z</time>
      </trkpt>
      <trkpt lat="41.473594" lon="-5.117294">
        <ele>667.284</ele>
        <time>2017-09-19T12:27:00Z</time>
      </trkpt>
      <trkpt lat="41.473322" lon="-5.117724">
        <ele>667.796</ele>
        <time>2017-09-19T12:27:09Z</time>
      </trkpt>
      <trkpt lat="41.473132" lon="-5.118017">
        <ele>667.742</ele>
        <time>2017-09-19T12:27:15Z</time>
      </trkpt>
      <trkpt lat="41.472664" lon="-5.118942">
        <ele>667.722</ele>
        <time>2017-09-19T12:27:32Z</time>
      </trkpt>
      <trkpt lat="41.472629" lon="-5.119037">
        <ele>667.714</ele>
        <time>2017-09-19T12:27:34Z</time>
      </trkpt>
      <trkpt lat="41.472356" lon="-5.120001">
        <ele>666.808</ele>
        <time>2017-09-19T12:27:50Z</time>
      </trkpt>
      <trkpt lat="41.472069" lon="-5.121029">
        <ele>666.395</ele>
        <time>2017-09-19T12:28:07Z</time>
      </trkpt>
      <trkpt lat="41.471742" lon="-5.122191">
        <ele>667.213</ele>
        <time>2017-09-19T12:28:27Z</time>
      </trkpt>
      <trkpt lat="41.471480" lon="-5.123293">
        <ele>667.723</ele>
        <time>2017-09-19T12:28:46Z</time>
      </trkpt>
      <trkpt lat="41.471430" lon="-5.123552">
        <ele>667.227</ele>
        <time>2017-09-19T12:28:51Z</time>
      </trkpt>
      <trkpt lat="41.471290" lon="-5.124168">
        <ele>668.285</ele>
        <time>2017-09-19T12:29:02Z</time>
      </trkpt>
      <trkpt lat="41.471064" lon="-5.124945">
        <ele>667.714</ele>
        <time>2017-09-19T12:29:15Z</time>
      </trkpt>
      <trkpt lat="41.471034" lon="-5.125073">
        <ele>667.244</ele>
        <time>2017-09-19T12:29:17Z</time>
      </trkpt>
      <trkpt lat="41.470920" lon="-5.125477">
        <ele>667.296</ele>
        <time>2017-09-19T12:29:24Z</time>
      </trkpt>
      <trkpt lat="41.470796" lon="-5.126563">
        <ele>666.351</ele>
        <time>2017-09-19T12:29:40Z</time>
      </trkpt>
      <trkpt lat="41.470707" lon="-5.127659">
        <ele>666.801</ele>
        <time>2017-09-19T12:29:56Z</time>
      </trkpt>
      <trkpt lat="41.470608" lon="-5.128865">
        <ele>666.311</ele>
        <time>2017-09-19T12:30:14Z</time>
      </trkpt>
      <trkpt lat="41.470599" lon="-5.128973">
        <ele>665.808</ele>
        <time>2017-09-19T12:30:16Z</time>
      </trkpt>
      <trkpt lat="41.470591" lon="-5.129025">
        <ele>665.896</ele>
        <time>2017-09-19T12:30:17Z</time>
      </trkpt>
      <trkpt lat="41.470585" lon="-5.129077">
        <ele>665.814</ele>
        <time>2017-09-19T12:30:18Z</time>
      </trkpt>
      <trkpt lat="41.470583" lon="-5.129122">
        <ele>665.874</ele>
        <time>2017-09-19T12:30:19Z</time>
      </trkpt>
      <trkpt lat="41.470586" lon="-5.129164">
        <ele>665.828</ele>
        <time>2017-09-19T12:30:20Z</time>
      </trkpt>
      <trkpt lat="41.470599" lon="-5.129196">
        <ele>665.816</ele>
        <time>2017-09-19T12:30:21Z</time>
      </trkpt>
      <trkpt lat="41.470621" lon="-5.129222">
        <ele>665.865</ele>
        <time>2017-09-19T12:30:22Z</time>
      </trkpt>
      <trkpt lat="41.470645" lon="-5.129243">
        <ele>665.865</ele>
        <time>2017-09-19T12:30:23Z</time>
      </trkpt>
      <trkpt lat="41.470668" lon="-5.129260">
        <ele>665.827</ele>
        <time>2017-09-19T12:30:24Z</time>
      </trkpt>
      <trkpt lat="41.470772" lon="-5.129299">
        <ele>665.394</ele>
        <time>2017-09-19T12:30:33Z</time>
      </trkpt>
      <trkpt lat="41.470710" lon="-5.129303">
        <ele>665.857</ele>
        <time>2017-09-19T12:30:44Z</time>
      </trkpt>
      <trkpt lat="41.470699" lon="-5.129301">
        <ele>665.822</ele>
        <time>2017-09-19T12:30:45Z</time>
      </trkpt>
      <trkpt lat="41.470630" lon="-5.129285">
        <ele>665.808</ele>
        <time>2017-09-19T12:30:55Z</time>
      </trkpt>
      <trkpt lat="41.470616" lon="-5.129285">
        <ele>665.840</ele>
        <time>2017-09-19T12:30:56Z</time>
      </trkpt>
      <trkpt lat="41.470600" lon="-5.129288">
        <ele>665.888</ele>
        <time>2017-09-19T12:30:57Z</time>
      </trkpt>
      <trkpt lat="41.470582" lon="-5.129298">
        <ele>665.878</ele>
        <time>2017-09-19T12:30:58Z</time>
      </trkpt>
      <trkpt lat="41.470569" lon="-5.129321">
        <ele>665.862</ele>
        <time>2017-09-19T12:30:59Z</time>
      </trkpt>
      <trkpt lat="41.470564" lon="-5.129351">
        <ele>665.840</ele>
        <time>2017-09-19T12:31:00Z</time>
      </trkpt>
      <trkpt lat="41.470565" lon="-5.129385">
        <ele>665.869</ele>
        <time>2017-09-19T12:31:01Z</time>
      </trkpt>
      <trkpt lat="41.470568" lon="-5.129419">
        <ele>666.389</ele>
        <time>2017-09-19T12:31:02Z</time>
      </trkpt>
      <trkpt lat="41.470547" lon="-5.129995">
        <ele>665.821</ele>
        <time>2017-09-19T12:31:15Z</time>
      </trkpt>
      <trkpt lat="41.470500" lon="-5.130928">
        <ele>665.828</ele>
        <time>2017-09-19T12:31:30Z</time>
      </trkpt>
      <trkpt lat="41.470347" lon="-5.132011">
        <ele>664.489</ele>
        <time>2017-09-19T12:31:46Z</time>
      </trkpt>
      <trkpt lat="41.470198" lon="-5.133082">
        <ele>664.417</ele>
        <time>2017-09-19T12:32:02Z</time>
      </trkpt>
      <trkpt lat="41.469959" lon="-5.134530">
        <ele>664.408</ele>
        <time>2017-09-19T12:32:24Z</time>
      </trkpt>
      <trkpt lat="41.469797" lon="-5.135465">
        <ele>664.833</ele>
        <time>2017-09-19T12:32:40Z</time>
      </trkpt>
      <trkpt lat="41.469542" lon="-5.136596">
        <ele>663.981</ele>
        <time>2017-09-19T12:32:57Z</time>
      </trkpt>
      <trkpt lat="41.469225" lon="-5.137967">
        <ele>664.421</ele>
        <time>2017-09-19T12:33:18Z</time>
      </trkpt>
      <trkpt lat="41.468775" lon="-5.139152">
        <ele>664.875</ele>
        <time>2017-09-19T12:33:38Z</time>
      </trkpt>
      <trkpt lat="41.468155" lon="-5.140244">
        <ele>664.853</ele>
        <time>2017-09-19T12:34:00Z</time>
      </trkpt>
      <trkpt lat="41.467799" lon="-5.141091">
        <ele>664.442</ele>
        <time>2017-09-19T12:34:17Z</time>
      </trkpt>
      <trkpt lat="41.467629" lon="-5.141589">
        <ele>664.452</ele>
        <time>2017-09-19T12:34:26Z</time>
      </trkpt>
      <trkpt lat="41.467180" lon="-5.142311">
        <ele>664.444</ele>
        <time>2017-09-19T12:34:41Z</time>
      </trkpt>
      <trkpt lat="41.466688" lon="-5.143013">
        <ele>667.277</ele>
        <time>2017-09-19T12:34:59Z</time>
      </trkpt>
      <trkpt lat="41.466442" lon="-5.143499">
        <ele>668.761</ele>
        <time>2017-09-19T12:35:14Z</time>
      </trkpt>
      <trkpt lat="41.466434" lon="-5.143956">
        <ele>671.127</ele>
        <time>2017-09-19T12:35:28Z</time>
      </trkpt>
      <trkpt lat="41.466468" lon="-5.144416">
        <ele>674.008</ele>
        <time>2017-09-19T12:35:43Z</time>
      </trkpt>
      <trkpt lat="41.466503" lon="-5.144862">
        <ele>676.468</ele>
        <time>2017-09-19T12:35:59Z</time>
      </trkpt>
      <trkpt lat="41.466522" lon="-5.145259">
        <ele>678.886</ele>
        <time>2017-09-19T12:36:15Z</time>
      </trkpt>
      <trkpt lat="41.466553" lon="-5.145636">
        <ele>679.756</ele>
        <time>2017-09-19T12:36:30Z</time>
      </trkpt>
      <trkpt lat="41.466569" lon="-5.146085">
        <ele>682.140</ele>
        <time>2017-09-19T12:36:48Z</time>
      </trkpt>
      <trkpt lat="41.466554" lon="-5.146471">
        <ele>684.148</ele>
        <time>2017-09-19T12:37:03Z</time>
      </trkpt>
      <trkpt lat="41.466538" lon="-5.146748">
        <ele>684.677</ele>
        <time>2017-09-19T12:37:14Z</time>
      </trkpt>
      <trkpt lat="41.466533" lon="-5.146775">
        <ele>684.677</ele>
        <time>2017-09-19T12:37:15Z</time>
      </trkpt>
      <trkpt lat="41.466485" lon="-5.146984">
        <ele>685.549</ele>
        <time>2017-09-19T12:37:24Z</time>
      </trkpt>
      <trkpt lat="41.466473" lon="-5.147007">
        <ele>686.027</ele>
        <time>2017-09-19T12:37:25Z</time>
      </trkpt>
      <trkpt lat="41.466244" lon="-5.147486">
        <ele>686.068</ele>
        <time>2017-09-19T12:37:40Z</time>
      </trkpt>
      <trkpt lat="41.465934" lon="-5.148084">
        <ele>686.514</ele>
        <time>2017-09-19T12:37:54Z</time>
      </trkpt>
      <trkpt lat="41.465744" lon="-5.148459">
        <ele>687.008</ele>
        <time>2017-09-19T12:38:03Z</time>
      </trkpt>
      <trkpt lat="41.465719" lon="-5.148504">
        <ele>687.043</ele>
        <time>2017-09-19T12:38:04Z</time>
      </trkpt>
      <trkpt lat="41.465696" lon="-5.148552">
        <ele>687.061</ele>
        <time>2017-09-19T12:38:05Z</time>
      </trkpt>
      <trkpt lat="41.465544" lon="-5.148855">
        <ele>686.561</ele>
        <time>2017-09-19T12:38:11Z</time>
      </trkpt>
      <trkpt lat="41.465521" lon="-5.148905">
        <ele>686.545</ele>
        <time>2017-09-19T12:38:12Z</time>
      </trkpt>
      <trkpt lat="41.465495" lon="-5.148952">
        <ele>686.023</ele>
        <time>2017-09-19T12:38:13Z</time>
      </trkpt>
      <trkpt lat="41.465053" lon="-5.149802">
        <ele>686.032</ele>
        <time>2017-09-19T12:38:30Z</time>
      </trkpt>
      <trkpt lat="41.464574" lon="-5.150737">
        <ele>686.022</ele>
        <time>2017-09-19T12:38:47Z</time>
      </trkpt>
      <trkpt lat="41.464274" lon="-5.151316">
        <ele>686.024</ele>
        <time>2017-09-19T12:38:59Z</time>
      </trkpt>
      <trkpt lat="41.464233" lon="-5.151413">
        <ele>686.098</ele>
        <time>2017-09-19T12:39:01Z</time>
      </trkpt>
      <trkpt lat="41.463768" lon="-5.152311">
        <ele>686.015</ele>
        <time>2017-09-19T12:39:18Z</time>
      </trkpt>
      <trkpt lat="41.463376" lon="-5.153078">
        <ele>685.526</ele>
        <time>2017-09-19T12:39:34Z</time>
      </trkpt>
      <trkpt lat="41.462988" lon="-5.153837">
        <ele>686.508</ele>
        <time>2017-09-19T12:39:49Z</time>
      </trkpt>
      <trkpt lat="41.462862" lon="-5.154080">
        <ele>686.590</ele>
        <time>2017-09-19T12:39:54Z</time>
      </trkpt>
      <trkpt lat="41.462503" lon="-5.154771">
        <ele>687.078</ele>
        <time>2017-09-19T12:40:09Z</time>
      </trkpt>
      <trkpt lat="41.462203" lon="-5.155361">
        <ele>687.088</ele>
        <time>2017-09-19T12:40:22Z</time>
      </trkpt>
      <trkpt lat="41.461753" lon="-5.156038">
        <ele>687.062</ele>
        <time>2017-09-19T12:40:37Z</time>
      </trkpt>
      <trkpt lat="41.461317" lon="-5.156573">
        <ele>686.540</ele>
        <time>2017-09-19T12:40:52Z</time>
      </trkpt>
      <trkpt lat="41.460785" lon="-5.157230">
        <ele>686.029</ele>
        <time>2017-09-19T12:41:08Z</time>
      </trkpt>
      <trkpt lat="41.460749" lon="-5.157270">
        <ele>686.049</ele>
        <time>2017-09-19T12:41:09Z</time>
      </trkpt>
      <trkpt lat="41.460102" lon="-5.158068">
        <ele>685.541</ele>
        <time>2017-09-19T12:41:27Z</time>
      </trkpt>
      <trkpt lat="41.459499" lon="-5.158809">
        <ele>685.081</ele>
        <time>2017-09-19T12:41:43Z</time>
      </trkpt>
      <trkpt lat="41.458818" lon="-5.159646">
        <ele>685.061</ele>
        <time>2017-09-19T12:42:02Z</time>
      </trkpt>
      <trkpt lat="41.458188" lon="-5.160448">
        <ele>685.017</ele>
        <time>2017-09-19T12:42:20Z</time>
      </trkpt>
      <trkpt lat="41.457801" lon="-5.161276">
        <ele>685.008</ele>
        <time>2017-09-19T12:42:36Z</time>
      </trkpt>
      <trkpt lat="41.457497" lon="-5.162282">
        <ele>684.619</ele>
        <time>2017-09-19T12:42:53Z</time>
      </trkpt>
      <trkpt lat="41.457401" lon="-5.163030">
        <ele>685.077</ele>
        <time>2017-09-19T12:43:08Z</time>
      </trkpt>
      <trkpt lat="41.457881" lon="-5.163101">
        <ele>685.097</ele>
        <time>2017-09-19T12:43:18Z</time>
      </trkpt>
      <trkpt lat="41.458327" lon="-5.163311">
        <ele>685.551</ele>
        <time>2017-09-19T12:43:34Z</time>
      </trkpt>
      <trkpt lat="41.459024" lon="-5.163550">
        <ele>685.599</ele>
        <time>2017-09-19T12:43:45Z</time>
      </trkpt>
      <trkpt lat="41.459702" lon="-5.163832">
        <ele>685.578</ele>
        <time>2017-09-19T12:43:59Z</time>
      </trkpt>
      <trkpt lat="41.460576" lon="-5.164252">
        <ele>685.078</ele>
        <time>2017-09-19T12:44:20Z</time>
      </trkpt>
      <trkpt lat="41.461610" lon="-5.164743">
        <ele>684.610</ele>
        <time>2017-09-19T12:44:34Z</time>
      </trkpt>
      <trkpt lat="41.462199" lon="-5.165001">
        <ele>684.685</ele>
        <time>2017-09-19T12:44:50Z</time>
      </trkpt>
      <trkpt lat="41.462859" lon="-5.165305">
        <ele>684.689</ele>
        <time>2017-09-19T12:45:08Z</time>
      </trkpt>
      <trkpt lat="41.463501" lon="-5.165587">
        <ele>684.117</ele>
        <time>2017-09-19T12:45:26Z</time>
      </trkpt>
      <trkpt lat="41.464128" lon="-5.165735">
        <ele>683.608</ele>
        <time>2017-09-19T12:45:46Z</time>
      </trkpt>
      <trkpt lat="41.464574" lon="-5.165879">
        <ele>683.679</ele>
        <time>2017-09-19T12:46:00Z</time>
      </trkpt>
      <trkpt lat="41.464951" lon="-5.165910">
        <ele>683.677</ele>
        <time>2017-09-19T12:46:12Z</time>
      </trkpt>
      <trkpt lat="41.465272" lon="-5.166051">
        <ele>683.617</ele>
        <time>2017-09-19T12:46:18Z</time>
      </trkpt>
      <trkpt lat="41.465717" lon="-5.166328">
        <ele>683.651</ele>
        <time>2017-09-19T12:46:23Z</time>
      </trkpt>
      <trkpt lat="41.466055" lon="-5.166535">
        <ele>683.679</ele>
        <time>2017-09-19T12:46:36Z</time>
      </trkpt>
      <trkpt lat="41.466410" lon="-5.166810">
        <ele>683.668</ele>
        <time>2017-09-19T12:46:51Z</time>
      </trkpt>
      <trkpt lat="41.466766" lon="-5.167040">
        <ele>683.188</ele>
        <time>2017-09-19T12:47:04Z</time>
      </trkpt>
      <trkpt lat="41.467139" lon="-5.167270">
        <ele>683.680</ele>
        <time>2017-09-19T12:47:21Z</time>
      </trkpt>
      <trkpt lat="41.467619" lon="-5.167592">
        <ele>683.694</ele>
        <time>2017-09-19T12:47:36Z</time>
      </trkpt>
      <trkpt lat="41.467975" lon="-5.167800">
        <ele>683.657</ele>
        <time>2017-09-19T12:47:51Z</time>
      </trkpt>
      <trkpt lat="41.468198" lon="-5.167939">
        <ele>683.122</ele>
        <time>2017-09-19T12:48:00Z</time>
      </trkpt>
      <trkpt lat="41.468357" lon="-5.168075">
        <ele>683.108</ele>
        <time>2017-09-19T12:48:01Z</time>
      </trkpt>
      <trkpt lat="41.468606" lon="-5.168215">
        <ele>683.160</ele>
        <time>2017-09-19T12:48:02Z</time>
      </trkpt>
      <trkpt lat="41.468193" lon="-5.169311">
        <ele>683.188</ele>
        <time>2017-09-19T12:48:03Z</time>
      </trkpt>
      <trkpt lat="41.467314" lon="-5.171436">
        <ele>683.158</ele>
        <time>2017-09-19T12:48:04Z</time>
      </trkpt>
      <trkpt lat="41.467051" lon="-5.172093">
        <ele>679.722</ele>
        <time>2017-09-19T12:49:50Z</time>
      </trkpt>
      <trkpt lat="41.466863" lon="-5.172620">
        <ele>678.390</ele>
        <time>2017-09-19T12:50:10Z</time>
      </trkpt>
      <trkpt lat="41.466657" lon="-5.173102">
        <ele>677.899</ele>
        <time>2017-09-19T12:50:28Z</time>
      </trkpt>
      <trkpt lat="41.465737" lon="-5.175513">
        <ele>675.999</ele>
        <time>2017-09-19T12:53:29Z</time>
      </trkpt>
      <trkpt lat="41.465503" lon="-5.176100">
        <ele>675.441</ele>
        <time>2017-09-19T12:53:32Z</time>
      </trkpt>
      <trkpt lat="41.465213" lon="-5.176806">
        <ele>674.991</ele>
        <time>2017-09-19T12:53:33Z</time>
      </trkpt>
      <trkpt lat="41.464988" lon="-5.177376">
        <ele>674.581</ele>
        <time>2017-09-19T12:53:48Z</time>
      </trkpt>
      <trkpt lat="41.464800" lon="-5.177903">
        <ele>674.519</ele>
        <time>2017-09-19T12:53:49Z</time>
      </trkpt>
      <trkpt lat="41.464705" lon="-5.178210">
        <ele>674.508</ele>
        <time>2017-09-19T12:53:50Z</time>
      </trkpt>
      <trkpt lat="41.464647" lon="-5.178452">
        <ele>673.040</ele>
        <time>2017-09-19T12:54:01Z</time>
      </trkpt>
      <trkpt lat="41.464553" lon="-5.178738">
        <ele>671.618</ele>
        <time>2017-09-19T12:54:14Z</time>
      </trkpt>
      <trkpt lat="41.464440" lon="-5.179045">
        <ele>671.118</ele>
        <time>2017-09-19T12:54:25Z</time>
      </trkpt>
      <trkpt lat="41.464400" lon="-5.179287">
        <ele>687.412</ele>
        <time>2017-09-19T12:58:37Z</time>
      </trkpt>
      <trkpt lat="41.464286" lon="-5.179639">
        <ele>687.930</ele>
        <time>2017-09-19T12:58:51Z</time>
      </trkpt>
      <trkpt lat="41.464247" lon="-5.179859">
        <ele>688.429</ele>
        <time>2017-09-19T12:59:05Z</time>
      </trkpt>
      <trkpt lat="41.464192" lon="-5.180129">
        <ele>687.479</ele>
        <time>2017-09-19T12:59:20Z</time>
      </trkpt>
      <trkpt lat="41.464170" lon="-5.180811">
        <ele>687.411</ele>
        <time>2017-09-19T12:59:34Z</time>
      </trkpt>
      <trkpt lat="41.464275" lon="-5.181682">
        <ele>687.913</ele>
        <time>2017-09-19T12:59:51Z</time>
      </trkpt>
      <trkpt lat="41.464385" lon="-5.182333">
        <ele>687.443</ele>
        <time>2017-09-19T13:00:07Z</time>
      </trkpt>
      <trkpt lat="41.464386" lon="-5.182326">
        <ele>687.907</ele>
        <time>2017-09-19T13:00:29Z</time>
      </trkpt>
      <trkpt lat="41.464385" lon="-5.182333">
        <ele>688.408</ele>
        <time>2017-09-19T13:01:20Z</time>
      </trkpt>
      <trkpt lat="41.464389" lon="-5.182330">
        <ele>687.432</ele>
        <time>2017-09-19T13:01:52Z</time>
      </trkpt>
      <trkpt lat="41.464392" lon="-5.182328">
        <ele>687.010</ele>
        <time>2017-09-19T13:02:13Z</time>
      </trkpt>
      <trkpt lat="41.464446" lon="-5.182577">
        <ele>687.910</ele>
        <time>2017-09-19T13:02:23Z</time>
      </trkpt>
      <trkpt lat="41.464574" lon="-5.183125">
        <ele>687.934</ele>
        <time>2017-09-19T13:02:38Z</time>
      </trkpt>
      <trkpt lat="41.464684" lon="-5.183599">
        <ele>689.452</ele>
        <time>2017-09-19T13:02:52Z</time>
      </trkpt>
      <trkpt lat="41.464775" lon="-5.184157">
        <ele>687.971</ele>
        <time>2017-09-19T13:03:07Z</time>
      </trkpt>
      <trkpt lat="41.464794" lon="-5.184775">
        <ele>687.471</ele>
        <time>2017-09-19T13:03:23Z</time>
      </trkpt>
      <trkpt lat="41.464794" lon="-5.185480">
        <ele>685.013</ele>
        <time>2017-09-19T13:03:41Z</time>
      </trkpt>
      <trkpt lat="41.464817" lon="-5.186042">
        <ele>683.112</ele>
        <time>2017-09-19T13:03:54Z</time>
      </trkpt>
      <trkpt lat="41.464886" lon="-5.186594">
        <ele>680.732</ele>
        <time>2017-09-19T13:04:06Z</time>
      </trkpt>
      <trkpt lat="41.465054" lon="-5.187512">
        <ele>675.905</ele>
        <time>2017-09-19T13:04:19Z</time>
      </trkpt>
      <trkpt lat="41.465150" lon="-5.188087">
        <ele>674.908</ele>
        <time>2017-09-19T13:04:27Z</time>
      </trkpt>
      <trkpt lat="41.465152" lon="-5.188151">
        <ele>674.942</ele>
        <time>2017-09-19T13:04:28Z</time>
      </trkpt>
      <trkpt lat="41.465143" lon="-5.188400">
        <ele>675.970</ele>
        <time>2017-09-19T13:04:32Z</time>
      </trkpt>
      <trkpt lat="41.465080" lon="-5.189088">
        <ele>679.360</ele>
        <time>2017-09-19T13:04:47Z</time>
      </trkpt>
      <trkpt lat="41.464992" lon="-5.189651">
        <ele>681.284</ele>
        <time>2017-09-19T13:05:06Z</time>
      </trkpt>
      <trkpt lat="41.464965" lon="-5.189879">
        <ele>681.252</ele>
        <time>2017-09-19T13:05:21Z</time>
      </trkpt>
      <trkpt lat="41.464961" lon="-5.189974">
        <ele>681.211</ele>
        <time>2017-09-19T13:05:46Z</time>
      </trkpt>
      <trkpt lat="41.464944" lon="-5.190322">
        <ele>682.661</ele>
        <time>2017-09-19T13:06:00Z</time>
      </trkpt>
      <trkpt lat="41.464849" lon="-5.190758">
        <ele>683.623</ele>
        <time>2017-09-19T13:06:16Z</time>
      </trkpt>
      <trkpt lat="41.464795" lon="-5.191172">
        <ele>685.092</ele>
        <time>2017-09-19T13:06:30Z</time>
      </trkpt>
      <trkpt lat="41.464735" lon="-5.191612">
        <ele>685.573</ele>
        <time>2017-09-19T13:06:45Z</time>
      </trkpt>
      <trkpt lat="41.464693" lon="-5.191987">
        <ele>687.020</ele>
        <time>2017-09-19T13:07:00Z</time>
      </trkpt>
      <trkpt lat="41.464625" lon="-5.192369">
        <ele>687.008</ele>
        <time>2017-09-19T13:07:14Z</time>
      </trkpt>
      <trkpt lat="41.464569" lon="-5.192867">
        <ele>687.420</ele>
        <time>2017-09-19T13:07:30Z</time>
      </trkpt>
      <trkpt lat="41.464519" lon="-5.193272">
        <ele>687.478</ele>
        <time>2017-09-19T13:07:44Z</time>
      </trkpt>
      <trkpt lat="41.464460" lon="-5.193711">
        <ele>688.438</ele>
        <time>2017-09-19T13:07:59Z</time>
      </trkpt>
      <trkpt lat="41.464388" lon="-5.194169">
        <ele>689.422</ele>
        <time>2017-09-19T13:08:14Z</time>
      </trkpt>
      <trkpt lat="41.464300" lon="-5.194631">
        <ele>690.870</ele>
        <time>2017-09-19T13:08:30Z</time>
      </trkpt>
      <trkpt lat="41.464239" lon="-5.195067">
        <ele>691.349</ele>
        <time>2017-09-19T13:08:45Z</time>
      </trkpt>
      <trkpt lat="41.464166" lon="-5.195531">
        <ele>691.879</ele>
        <time>2017-09-19T13:09:00Z</time>
      </trkpt>
      <trkpt lat="41.464067" lon="-5.196128">
        <ele>691.861</ele>
        <time>2017-09-19T13:09:17Z</time>
      </trkpt>
      <trkpt lat="41.463891" lon="-5.196779">
        <ele>691.881</ele>
        <time>2017-09-19T13:09:37Z</time>
      </trkpt>
      <trkpt lat="41.463711" lon="-5.197409">
        <ele>691.361</ele>
        <time>2017-09-19T13:09:55Z</time>
      </trkpt>
      <trkpt lat="41.463545" lon="-5.197988">
        <ele>691.317</ele>
        <time>2017-09-19T13:10:14Z</time>
      </trkpt>
      <trkpt lat="41.463419" lon="-5.198352">
        <ele>691.308</ele>
        <time>2017-09-19T13:10:27Z</time>
      </trkpt>
      <trkpt lat="41.463243" lon="-5.198831">
        <ele>689.459</ele>
        <time>2017-09-19T13:10:45Z</time>
      </trkpt>
      <trkpt lat="41.463242" lon="-5.198824">
        <ele>688.967</ele>
        <time>2017-09-19T13:10:52Z</time>
      </trkpt>
      <trkpt lat="41.463228" lon="-5.198888">
        <ele>688.427</ele>
        <time>2017-09-19T13:10:55Z</time>
      </trkpt>
      <trkpt lat="41.463221" lon="-5.198926">
        <ele>687.931</ele>
        <time>2017-09-19T13:10:56Z</time>
      </trkpt>
      <trkpt lat="41.463216" lon="-5.198952">
        <ele>687.929</ele>
        <time>2017-09-19T13:10:57Z</time>
      </trkpt>
      <trkpt lat="41.463139" lon="-5.199295">
        <ele>685.048</ele>
        <time>2017-09-19T13:11:05Z</time>
      </trkpt>
      <trkpt lat="41.463118" lon="-5.199346">
        <ele>685.018</ele>
        <time>2017-09-19T13:11:06Z</time>
      </trkpt>
      <trkpt lat="41.463095" lon="-5.199394">
        <ele>684.650</ele>
        <time>2017-09-19T13:11:07Z</time>
      </trkpt>
      <trkpt lat="41.462862" lon="-5.199719">
        <ele>687.962</ele>
        <time>2017-09-19T13:11:19Z</time>
      </trkpt>
      <trkpt lat="41.462616" lon="-5.200077">
        <ele>691.383</ele>
        <time>2017-09-19T13:11:38Z</time>
      </trkpt>
      <trkpt lat="41.462509" lon="-5.200359">
        <ele>691.811</ele>
        <time>2017-09-19T13:11:52Z</time>
      </trkpt>
      <trkpt lat="41.462405" lon="-5.200686">
        <ele>691.808</ele>
        <time>2017-09-19T13:12:07Z</time>
      </trkpt>
      <trkpt lat="41.462307" lon="-5.201064">
        <ele>692.237</ele>
        <time>2017-09-19T13:12:21Z</time>
      </trkpt>
      <trkpt lat="41.462164" lon="-5.201567">
        <ele>692.285</ele>
        <time>2017-09-19T13:12:38Z</time>
      </trkpt>
      <trkpt lat="41.462069" lon="-5.201942">
        <ele>692.775</ele>
        <time>2017-09-19T13:12:52Z</time>
      </trkpt>
      <trkpt lat="41.461990" lon="-5.202315">
        <ele>693.759</ele>
        <time>2017-09-19T13:13:05Z</time>
      </trkpt>
      <trkpt lat="41.461882" lon="-5.202728">
        <ele>693.717</ele>
        <time>2017-09-19T13:13:20Z</time>
      </trkpt>
      <trkpt lat="41.461760" lon="-5.203147">
        <ele>693.216</ele>
        <time>2017-09-19T13:13:36Z</time>
      </trkpt>
      <trkpt lat="41.461603" lon="-5.203602">
        <ele>691.396</ele>
        <time>2017-09-19T13:13:50Z</time>
      </trkpt>
      <trkpt lat="41.461187" lon="-5.204369">
        <ele>689.848</ele>
        <time>2017-09-19T13:14:07Z</time>
      </trkpt>
      <trkpt lat="41.460811" lon="-5.204733">
        <ele>692.741</ele>
        <time>2017-09-19T13:14:24Z</time>
      </trkpt>
      <trkpt lat="41.460494" lon="-5.205084">
        <ele>693.781</ele>
        <time>2017-09-19T13:14:41Z</time>
      </trkpt>
      <trkpt lat="41.460272" lon="-5.205339">
        <ele>694.209</ele>
        <time>2017-09-19T13:14:55Z</time>
      </trkpt>
      <trkpt lat="41.460027" lon="-5.205602">
        <ele>694.608</ele>
        <time>2017-09-19T13:15:10Z</time>
      </trkpt>
      <trkpt lat="41.459739" lon="-5.205872">
        <ele>695.195</ele>
        <time>2017-09-19T13:15:26Z</time>
      </trkpt>
      <trkpt lat="41.459472" lon="-5.206123">
        <ele>695.183</ele>
        <time>2017-09-19T13:15:41Z</time>
      </trkpt>
      <trkpt lat="41.459196" lon="-5.206404">
        <ele>695.123</ele>
        <time>2017-09-19T13:15:57Z</time>
      </trkpt>
      <trkpt lat="41.458927" lon="-5.206690">
        <ele>696.167</ele>
        <time>2017-09-19T13:16:12Z</time>
      </trkpt>
      <trkpt lat="41.458608" lon="-5.207006">
        <ele>696.175</ele>
        <time>2017-09-19T13:16:28Z</time>
      </trkpt>
      <trkpt lat="41.458326" lon="-5.207305">
        <ele>696.124</ele>
        <time>2017-09-19T13:16:43Z</time>
      </trkpt>
      <trkpt lat="41.458011" lon="-5.207622">
        <ele>696.614</ele>
        <time>2017-09-19T13:17:00Z</time>
      </trkpt>
      <trkpt lat="41.457694" lon="-5.207928">
        <ele>698.036</ele>
        <time>2017-09-19T13:17:17Z</time>
      </trkpt>
      <trkpt lat="41.457438" lon="-5.208186">
        <ele>697.567</ele>
        <time>2017-09-19T13:17:32Z</time>
      </trkpt>
      <trkpt lat="41.457102" lon="-5.208530">
        <ele>697.581</ele>
        <time>2017-09-19T13:17:49Z</time>
      </trkpt>
      <trkpt lat="41.456732" lon="-5.208909">
        <ele>698.019</ele>
        <time>2017-09-19T13:18:08Z</time>
      </trkpt>
      <trkpt lat="41.456348" lon="-5.209299">
        <ele>699.008</ele>
        <time>2017-09-19T13:18:27Z</time>
      </trkpt>
      <trkpt lat="41.456051" lon="-5.209611">
        <ele>698.567</ele>
        <time>2017-09-19T13:18:42Z</time>
      </trkpt>
      <trkpt lat="41.455745" lon="-5.209910">
        <ele>698.585</ele>
        <time>2017-09-19T13:18:58Z</time>
      </trkpt>
      <trkpt lat="41.455322" lon="-5.210340">
        <ele>699.035</ele>
        <time>2017-09-19T13:19:18Z</time>
      </trkpt>
      <trkpt lat="41.455007" lon="-5.210659">
        <ele>699.599</ele>
        <time>2017-09-19T13:19:34Z</time>
      </trkpt>
      <trkpt lat="41.454699" lon="-5.210971">
        <ele>700.477</ele>
        <time>2017-09-19T13:19:49Z</time>
      </trkpt>
      <trkpt lat="41.454423" lon="-5.211246">
        <ele>700.966</ele>
        <time>2017-09-19T13:20:03Z</time>
      </trkpt>
      <trkpt lat="41.454148" lon="-5.211530">
        <ele>700.926</ele>
        <time>2017-09-19T13:20:18Z</time>
      </trkpt>
      <trkpt lat="41.453911" lon="-5.211755">
        <ele>701.478</ele>
        <time>2017-09-19T13:20:31Z</time>
      </trkpt>
      <trkpt lat="41.453503" lon="-5.212173">
        <ele>701.444</ele>
        <time>2017-09-19T13:20:51Z</time>
      </trkpt>
      <trkpt lat="41.453195" lon="-5.212474">
        <ele>702.305</ele>
        <time>2017-09-19T13:21:07Z</time>
      </trkpt>
      <trkpt lat="41.452960" lon="-5.212774">
        <ele>702.815</ele>
        <time>2017-09-19T13:21:22Z</time>
      </trkpt>
      <trkpt lat="41.452730" lon="-5.213098">
        <ele>702.808</ele>
        <time>2017-09-19T13:21:37Z</time>
      </trkpt>
      <trkpt lat="41.452506" lon="-5.213373">
        <ele>702.855</ele>
        <time>2017-09-19T13:21:51Z</time>
      </trkpt>
      <trkpt lat="41.452255" lon="-5.213722">
        <ele>702.333</ele>
        <time>2017-09-19T13:22:06Z</time>
      </trkpt>
      <trkpt lat="41.451968" lon="-5.214109">
        <ele>703.863</ele>
        <time>2017-09-19T13:22:23Z</time>
      </trkpt>
      <trkpt lat="41.451724" lon="-5.214454">
        <ele>703.867</ele>
        <time>2017-09-19T13:22:38Z</time>
      </trkpt>
      <trkpt lat="41.451493" lon="-5.214791">
        <ele>703.895</ele>
        <time>2017-09-19T13:22:52Z</time>
      </trkpt>
      <trkpt lat="41.451224" lon="-5.215195">
        <ele>703.874</ele>
        <time>2017-09-19T13:23:09Z</time>
      </trkpt>
      <trkpt lat="41.451162" lon="-5.215327">
        <ele>704.314</ele>
        <time>2017-09-19T13:23:15Z</time>
      </trkpt>
      <trkpt lat="41.451153" lon="-5.215347">
        <ele>704.356</ele>
        <time>2017-09-19T13:23:16Z</time>
      </trkpt>
      <trkpt lat="41.451144" lon="-5.215368">
        <ele>704.382</ele>
        <time>2017-09-19T13:23:17Z</time>
      </trkpt>
      <trkpt lat="41.451135" lon="-5.215387">
        <ele>703.843</ele>
        <time>2017-09-19T13:23:18Z</time>
      </trkpt>
      <trkpt lat="41.451128" lon="-5.215406">
        <ele>703.817</ele>
        <time>2017-09-19T13:23:19Z</time>
      </trkpt>
      <trkpt lat="41.451119" lon="-5.215420">
        <ele>703.808</ele>
        <time>2017-09-19T13:23:20Z</time>
      </trkpt>
      <trkpt lat="41.451112" lon="-5.215432">
        <ele>703.829</ele>
        <time>2017-09-19T13:23:21Z</time>
      </trkpt>
      <trkpt lat="41.451105" lon="-5.215445">
        <ele>703.897</ele>
        <time>2017-09-19T13:23:22Z</time>
      </trkpt>
      <trkpt lat="41.451098" lon="-5.215462">
        <ele>703.857</ele>
        <time>2017-09-19T13:23:23Z</time>
      </trkpt>
      <trkpt lat="41.450887" lon="-5.215805">
        <ele>703.831</ele>
        <time>2017-09-19T13:23:36Z</time>
      </trkpt>
      <trkpt lat="41.450559" lon="-5.216309">
        <ele>705.239</ele>
        <time>2017-09-19T13:23:53Z</time>
      </trkpt>
      <trkpt lat="41.450271" lon="-5.216736">
        <ele>705.218</ele>
        <time>2017-09-19T13:24:07Z</time>
      </trkpt>
      <trkpt lat="41.450002" lon="-5.217118">
        <ele>705.758</ele>
        <time>2017-09-19T13:24:23Z</time>
      </trkpt>
      <trkpt lat="41.449839" lon="-5.217356">
        <ele>706.210</ele>
        <time>2017-09-19T13:24:35Z</time>
      </trkpt>
      <trkpt lat="41.449544" lon="-5.217800">
        <ele>706.273</ele>
        <time>2017-09-19T13:24:51Z</time>
      </trkpt>
      <trkpt lat="41.449290" lon="-5.218197">
        <ele>706.285</ele>
        <time>2017-09-19T13:25:05Z</time>
      </trkpt>
      <trkpt lat="41.448964" lon="-5.218690">
        <ele>705.713</ele>
        <time>2017-09-19T13:25:21Z</time>
      </trkpt>
      <trkpt lat="41.448626" lon="-5.219173">
        <ele>705.708</ele>
        <time>2017-09-19T13:25:38Z</time>
      </trkpt>
      <trkpt lat="41.448423" lon="-5.219427">
        <ele>706.278</ele>
        <time>2017-09-19T13:25:51Z</time>
      </trkpt>
      <trkpt lat="41.448353" lon="-5.219485">
        <ele>706.296</ele>
        <time>2017-09-19T13:26:03Z</time>
      </trkpt>
      <trkpt lat="41.448332" lon="-5.219495">
        <ele>705.736</ele>
        <time>2017-09-19T13:26:14Z</time>
      </trkpt>
      <trkpt lat="41.448335" lon="-5.219501">
        <ele>704.710</ele>
        <time>2017-09-19T13:26:35Z</time>
      </trkpt>
      <trkpt lat="41.448330" lon="-5.219492">
        <ele>704.378</ele>
        <time>2017-09-19T13:26:49Z</time>
      </trkpt>
      <trkpt lat="41.448326" lon="-5.219503">
        <ele>707.147</ele>
        <time>2017-09-19T13:27:31Z</time>
      </trkpt>
      <trkpt lat="41.448318" lon="-5.219506">
        <ele>706.727</ele>
        <time>2017-09-19T13:28:17Z</time>
      </trkpt>
      <trkpt lat="41.448322" lon="-5.219479">
        <ele>706.779</ele>
        <time>2017-09-19T13:29:08Z</time>
      </trkpt>
      <trkpt lat="41.448337" lon="-5.219476">
        <ele>704.794</ele>
        <time>2017-09-19T13:30:08Z</time>
      </trkpt>
      <trkpt lat="41.448338" lon="-5.219490">
        <ele>706.257</ele>
        <time>2017-09-19T13:31:11Z</time>
      </trkpt>
      <trkpt lat="41.448333" lon="-5.219506">
        <ele>705.222</ele>
        <time>2017-09-19T13:32:14Z</time>
      </trkpt>
      <trkpt lat="41.448324" lon="-5.219493">
        <ele>704.308</ele>
        <time>2017-09-19T13:33:04Z</time>
      </trkpt>
      <trkpt lat="41.448320" lon="-5.219490">
        <ele>704.310</ele>
        <time>2017-09-19T13:33:45Z</time>
      </trkpt>
      <trkpt lat="41.448322" lon="-5.219489">
        <ele>705.788</ele>
        <time>2017-09-19T13:34:28Z</time>
      </trkpt>
      <trkpt lat="41.448345" lon="-5.219480">
        <ele>705.298</ele>
        <time>2017-09-19T13:34:51Z</time>
      </trkpt>
      <trkpt lat="41.448358" lon="-5.219491">
        <ele>705.712</ele>
        <time>2017-09-19T13:35:30Z</time>
      </trkpt>
      <trkpt lat="41.448341" lon="-5.219507">
        <ele>704.740</ele>
        <time>2017-09-19T13:36:23Z</time>
      </trkpt>
      <trkpt lat="41.448333" lon="-5.219512">
        <ele>704.779</ele>
        <time>2017-09-19T13:37:13Z</time>
      </trkpt>
      <trkpt lat="41.448328" lon="-5.219504">
        <ele>704.379</ele>
        <time>2017-09-19T13:37:59Z</time>
      </trkpt>
      <trkpt lat="41.448330" lon="-5.219499">
        <ele>704.361</ele>
        <time>2017-09-19T13:38:43Z</time>
      </trkpt>
      <trkpt lat="41.448341" lon="-5.219487">
        <ele>704.397</ele>
        <time>2017-09-19T13:39:23Z</time>
      </trkpt>
      <trkpt lat="41.448331" lon="-5.219490">
        <ele>704.323</ele>
        <time>2017-09-19T13:40:10Z</time>
      </trkpt>
      <trkpt lat="41.448328" lon="-5.219506">
        <ele>702.825</ele>
        <time>2017-09-19T13:40:44Z</time>
      </trkpt>
      <trkpt lat="41.448318" lon="-5.219541">
        <ele>704.708</ele>
        <time>2017-09-19T13:41:06Z</time>
      </trkpt>
      <trkpt lat="41.448309" lon="-5.219560">
        <ele>703.850</ele>
        <time>2017-09-19T13:41:29Z</time>
      </trkpt>
      <trkpt lat="41.448102" lon="-5.219850">
        <ele>703.888</ele>
        <time>2017-09-19T13:41:43Z</time>
      </trkpt>
      <trkpt lat="41.447855" lon="-5.220155">
        <ele>704.338</ele>
        <time>2017-09-19T13:41:57Z</time>
      </trkpt>
      <trkpt lat="41.447628" lon="-5.220450">
        <ele>704.712</ele>
        <time>2017-09-19T13:42:13Z</time>
      </trkpt>
      <trkpt lat="41.447333" lon="-5.220808">
        <ele>705.750</ele>
        <time>2017-09-19T13:42:29Z</time>
      </trkpt>
      <trkpt lat="41.447102" lon="-5.221015">
        <ele>705.749</ele>
        <time>2017-09-19T13:42:42Z</time>
      </trkpt>
      <trkpt lat="41.446878" lon="-5.221208">
        <ele>705.739</ele>
        <time>2017-09-19T13:42:56Z</time>
      </trkpt>
      <trkpt lat="41.446612" lon="-5.221425">
        <ele>706.211</ele>
        <time>2017-09-19T13:43:12Z</time>
      </trkpt>
      <trkpt lat="41.446341" lon="-5.221614">
        <ele>707.118</ele>
        <time>2017-09-19T13:43:28Z</time>
      </trkpt>
      <trkpt lat="41.446054" lon="-5.221791">
        <ele>707.698</ele>
        <time>2017-09-19T13:43:44Z</time>
      </trkpt>
      <trkpt lat="41.445724" lon="-5.222000">
        <ele>707.617</ele>
        <time>2017-09-19T13:44:02Z</time>
      </trkpt>
      <trkpt lat="41.445416" lon="-5.222201">
        <ele>708.108</ele>
        <time>2017-09-19T13:44:18Z</time>
      </trkpt>
      <trkpt lat="41.445112" lon="-5.222396">
        <ele>709.112</ele>
        <time>2017-09-19T13:44:34Z</time>
      </trkpt>
      <trkpt lat="41.444875" lon="-5.222546">
        <ele>709.150</ele>
        <time>2017-09-19T13:44:47Z</time>
      </trkpt>
      <trkpt lat="41.444565" lon="-5.222741">
        <ele>709.540</ele>
        <time>2017-09-19T13:45:02Z</time>
      </trkpt>
      <trkpt lat="41.444199" lon="-5.222985">
        <ele>710.554</ele>
        <time>2017-09-19T13:45:20Z</time>
      </trkpt>
      <trkpt lat="41.443841" lon="-5.223203">
        <ele>709.572</ele>
        <time>2017-09-19T13:45:37Z</time>
      </trkpt>
      <trkpt lat="41.443451" lon="-5.223411">
        <ele>710.091</ele>
        <time>2017-09-19T13:45:55Z</time>
      </trkpt>
      <trkpt lat="41.443136" lon="-5.223588">
        <ele>710.571</ele>
        <time>2017-09-19T13:46:11Z</time>
      </trkpt>
      <trkpt lat="41.442802" lon="-5.223736">
        <ele>710.093</ele>
        <time>2017-09-19T13:46:28Z</time>
      </trkpt>
      <trkpt lat="41.442478" lon="-5.223887">
        <ele>711.024</ele>
        <time>2017-09-19T13:46:44Z</time>
      </trkpt>
      <trkpt lat="41.442200" lon="-5.224058">
        <ele>711.004</ele>
        <time>2017-09-19T13:46:58Z</time>
      </trkpt>
      <trkpt lat="41.441922" lon="-5.224230">
        <ele>711.014</ele>
        <time>2017-09-19T13:47:13Z</time>
      </trkpt>
      <trkpt lat="41.441704" lon="-5.224406">
        <ele>711.508</ele>
        <time>2017-09-19T13:47:26Z</time>
      </trkpt>
      <trkpt lat="41.441595" lon="-5.224461">
        <ele>711.593</ele>
        <time>2017-09-19T13:47:32Z</time>
      </trkpt>
      <trkpt lat="41.441578" lon="-5.224459">
        <ele>711.521</ele>
        <time>2017-09-19T13:47:33Z</time>
      </trkpt>
      <trkpt lat="41.441559" lon="-5.224464">
        <ele>711.591</ele>
        <time>2017-09-19T13:47:34Z</time>
      </trkpt>
      <trkpt lat="41.441541" lon="-5.224471">
        <ele>711.545</ele>
        <time>2017-09-19T13:47:35Z</time>
      </trkpt>
      <trkpt lat="41.441523" lon="-5.224481">
        <ele>711.563</ele>
        <time>2017-09-19T13:47:36Z</time>
      </trkpt>
      <trkpt lat="41.441506" lon="-5.224495">
        <ele>711.542</ele>
        <time>2017-09-19T13:47:37Z</time>
      </trkpt>
      <trkpt lat="41.441489" lon="-5.224509">
        <ele>711.952</ele>
        <time>2017-09-19T13:47:38Z</time>
      </trkpt>
      <trkpt lat="41.441473" lon="-5.224527">
        <ele>711.544</ele>
        <time>2017-09-19T13:47:39Z</time>
      </trkpt>
      <trkpt lat="41.441460" lon="-5.224549">
        <ele>711.589</ele>
        <time>2017-09-19T13:47:40Z</time>
      </trkpt>
      <trkpt lat="41.441230" lon="-5.224697">
        <ele>711.906</ele>
        <time>2017-09-19T13:47:53Z</time>
      </trkpt>
      <trkpt lat="41.440946" lon="-5.224897">
        <ele>711.926</ele>
        <time>2017-09-19T13:48:09Z</time>
      </trkpt>
      <trkpt lat="41.440564" lon="-5.225146">
        <ele>710.008</ele>
        <time>2017-09-19T13:48:25Z</time>
      </trkpt>
      <trkpt lat="41.440084" lon="-5.225516">
        <ele>710.569</ele>
        <time>2017-09-19T13:48:43Z</time>
      </trkpt>
      <trkpt lat="41.439738" lon="-5.225779">
        <ele>711.077</ele>
        <time>2017-09-19T13:48:58Z</time>
      </trkpt>
      <trkpt lat="41.439391" lon="-5.225994">
        <ele>711.997</ele>
        <time>2017-09-19T13:49:15Z</time>
      </trkpt>
      <trkpt lat="41.439086" lon="-5.226145">
        <ele>712.461</ele>
        <time>2017-09-19T13:49:30Z</time>
      </trkpt>
      <trkpt lat="41.438784" lon="-5.226274">
        <ele>713.499</ele>
        <time>2017-09-19T13:49:45Z</time>
      </trkpt>
      <trkpt lat="41.438525" lon="-5.226371">
        <ele>713.418</ele>
        <time>2017-09-19T13:49:59Z</time>
      </trkpt>
      <trkpt lat="41.438162" lon="-5.226485">
        <ele>713.958</ele>
        <time>2017-09-19T13:50:17Z</time>
      </trkpt>
      <trkpt lat="41.437855" lon="-5.226570">
        <ele>713.970</ele>
        <time>2017-09-19T13:50:32Z</time>
      </trkpt>
      <trkpt lat="41.437563" lon="-5.226680">
        <ele>714.463</ele>
        <time>2017-09-19T13:50:47Z</time>
      </trkpt>
      <trkpt lat="41.437282" lon="-5.226781">
        <ele>714.844</ele>
        <time>2017-09-19T13:51:02Z</time>
      </trkpt>
      <trkpt lat="41.437046" lon="-5.226933">
        <ele>714.818</ele>
        <time>2017-09-19T13:51:15Z</time>
      </trkpt>
      <trkpt lat="41.436768" lon="-5.227119">
        <ele>715.308</ele>
        <time>2017-09-19T13:51:29Z</time>
      </trkpt>
      <trkpt lat="41.436530" lon="-5.227288">
        <ele>715.837</ele>
        <time>2017-09-19T13:51:40Z</time>
      </trkpt>
      <trkpt lat="41.436512" lon="-5.227296">
        <ele>715.845</ele>
        <time>2017-09-19T13:51:41Z</time>
      </trkpt>
      <trkpt lat="41.436498" lon="-5.227310">
        <ele>715.825</ele>
        <time>2017-09-19T13:51:42Z</time>
      </trkpt>
      <trkpt lat="41.436481" lon="-5.227325">
        <ele>715.849</ele>
        <time>2017-09-19T13:51:43Z</time>
      </trkpt>
      <trkpt lat="41.436465" lon="-5.227341">
        <ele>715.877</ele>
        <time>2017-09-19T13:51:44Z</time>
      </trkpt>
      <trkpt lat="41.436448" lon="-5.227357">
        <ele>715.846</ele>
        <time>2017-09-19T13:51:45Z</time>
      </trkpt>
      <trkpt lat="41.436335" lon="-5.227445">
        <ele>715.376</ele>
        <time>2017-09-19T13:51:57Z</time>
      </trkpt>
      <trkpt lat="41.436152" lon="-5.227584">
        <ele>715.848</ele>
        <time>2017-09-19T13:52:09Z</time>
      </trkpt>
      <trkpt lat="41.435899" lon="-5.227662">
        <ele>715.833</ele>
        <time>2017-09-19T13:52:23Z</time>
      </trkpt>
      <trkpt lat="41.435498" lon="-5.227763">
        <ele>716.323</ele>
        <time>2017-09-19T13:52:39Z</time>
      </trkpt>
      <trkpt lat="41.435039" lon="-5.227921">
        <ele>715.815</ele>
        <time>2017-09-19T13:52:57Z</time>
      </trkpt>
      <trkpt lat="41.434617" lon="-5.228127">
        <ele>716.808</ele>
        <time>2017-09-19T13:53:16Z</time>
      </trkpt>
      <trkpt lat="41.434345" lon="-5.228261">
        <ele>716.884</ele>
        <time>2017-09-19T13:53:30Z</time>
      </trkpt>
      <trkpt lat="41.434022" lon="-5.228396">
        <ele>716.322</ele>
        <time>2017-09-19T13:53:45Z</time>
      </trkpt>
      <trkpt lat="41.433585" lon="-5.228625">
        <ele>714.452</ele>
        <time>2017-09-19T13:54:00Z</time>
      </trkpt>
      <trkpt lat="41.433191" lon="-5.229025">
        <ele>713.456</ele>
        <time>2017-09-19T13:54:16Z</time>
      </trkpt>
      <trkpt lat="41.433049" lon="-5.229257">
        <ele>712.484</ele>
        <time>2017-09-19T13:54:27Z</time>
      </trkpt>
      <trkpt lat="41.433042" lon="-5.229272">
        <ele>712.463</ele>
        <time>2017-09-19T13:54:28Z</time>
      </trkpt>
      <trkpt lat="41.433027" lon="-5.229301">
        <ele>712.423</ele>
        <time>2017-09-19T13:54:37Z</time>
      </trkpt>
      <trkpt lat="41.433011" lon="-5.229310">
        <ele>712.455</ele>
        <time>2017-09-19T13:54:41Z</time>
      </trkpt>
      <trkpt lat="41.432999" lon="-5.229324">
        <ele>712.425</ele>
        <time>2017-09-19T13:54:42Z</time>
      </trkpt>
      <trkpt lat="41.432987" lon="-5.229336">
        <ele>712.426</ele>
        <time>2017-09-19T13:54:43Z</time>
      </trkpt>
      <trkpt lat="41.432974" lon="-5.229350">
        <ele>712.408</ele>
        <time>2017-09-19T13:54:44Z</time>
      </trkpt>
      <trkpt lat="41.432960" lon="-5.229368">
        <ele>711.908</ele>
        <time>2017-09-19T13:54:45Z</time>
      </trkpt>
      <trkpt lat="41.432811" lon="-5.229654">
        <ele>709.573</ele>
        <time>2017-09-19T13:54:58Z</time>
      </trkpt>
      <trkpt lat="41.432661" lon="-5.229978">
        <ele>708.181</ele>
        <time>2017-09-19T13:55:12Z</time>
      </trkpt>
      <trkpt lat="41.432554" lon="-5.230162">
        <ele>707.681</ele>
        <time>2017-09-19T13:55:22Z</time>
      </trkpt>
      <trkpt lat="41.432543" lon="-5.230180">
        <ele>707.155</ele>
        <time>2017-09-19T13:55:23Z</time>
      </trkpt>
      <trkpt lat="41.432518" lon="-5.230196">
        <ele>706.253</ele>
        <time>2017-09-19T13:55:32Z</time>
      </trkpt>
      <trkpt lat="41.432501" lon="-5.230203">
        <ele>706.212</ele>
        <time>2017-09-19T13:55:33Z</time>
      </trkpt>
      <trkpt lat="41.432485" lon="-5.230213">
        <ele>705.792</ele>
        <time>2017-09-19T13:55:34Z</time>
      </trkpt>
      <trkpt lat="41.432468" lon="-5.230220">
        <ele>705.714</ele>
        <time>2017-09-19T13:55:35Z</time>
      </trkpt>
      <trkpt lat="41.432451" lon="-5.230227">
        <ele>705.262</ele>
        <time>2017-09-19T13:55:36Z</time>
      </trkpt>
      <trkpt lat="41.432435" lon="-5.230232">
        <ele>705.283</ele>
        <time>2017-09-19T13:55:37Z</time>
      </trkpt>
      <trkpt lat="41.432418" lon="-5.230235">
        <ele>705.211</ele>
        <time>2017-09-19T13:55:38Z</time>
      </trkpt>
      <trkpt lat="41.432404" lon="-5.230237">
        <ele>705.208</ele>
        <time>2017-09-19T13:55:39Z</time>
      </trkpt>
      <trkpt lat="41.432392" lon="-5.230235">
        <ele>704.747</ele>
        <time>2017-09-19T13:55:40Z</time>
      </trkpt>
      <trkpt lat="41.432340" lon="-5.230247">
        <ele>704.385</ele>
        <time>2017-09-19T13:55:52Z</time>
      </trkpt>
      <trkpt lat="41.432239" lon="-5.230232">
        <ele>703.325</ele>
        <time>2017-09-19T13:55:59Z</time>
      </trkpt>
      <trkpt lat="41.432225" lon="-5.230228">
        <ele>703.379</ele>
        <time>2017-09-19T13:56:00Z</time>
      </trkpt>
      <trkpt lat="41.432209" lon="-5.230225">
        <ele>703.337</ele>
        <time>2017-09-19T13:56:01Z</time>
      </trkpt>
      <trkpt lat="41.431986" lon="-5.230224">
        <ele>700.916</ele>
        <time>2017-09-19T13:56:15Z</time>
      </trkpt>
      <trkpt lat="41.431882" lon="-5.230264">
        <ele>700.496</ele>
        <time>2017-09-19T13:56:21Z</time>
      </trkpt>
      <trkpt lat="41.431865" lon="-5.230275">
        <ele>699.938</ele>
        <time>2017-09-19T13:56:22Z</time>
      </trkpt>
      <trkpt lat="41.431848" lon="-5.230283">
        <ele>699.938</ele>
        <time>2017-09-19T13:56:23Z</time>
      </trkpt>
      <trkpt lat="41.431832" lon="-5.230291">
        <ele>699.970</ele>
        <time>2017-09-19T13:56:24Z</time>
      </trkpt>
      <trkpt lat="41.431819" lon="-5.230298">
        <ele>699.917</ele>
        <time>2017-09-19T13:56:25Z</time>
      </trkpt>
      <trkpt lat="41.431785" lon="-5.230301">
        <ele>699.508</ele>
        <time>2017-09-19T13:56:27Z</time>
      </trkpt>
      <trkpt lat="41.431770" lon="-5.230300">
        <ele>699.594</ele>
        <time>2017-09-19T13:56:28Z</time>
      </trkpt>
      <trkpt lat="41.431758" lon="-5.230306">
        <ele>699.032</ele>
        <time>2017-09-19T13:56:29Z</time>
      </trkpt>
      <trkpt lat="41.431734" lon="-5.230331">
        <ele>699.012</ele>
        <time>2017-09-19T13:56:31Z</time>
      </trkpt>
      <trkpt lat="41.431724" lon="-5.230347">
        <ele>698.546</ele>
        <time>2017-09-19T13:56:32Z</time>
      </trkpt>
      <trkpt lat="41.431548" lon="-5.230472">
        <ele>697.074</ele>
        <time>2017-09-19T13:56:43Z</time>
      </trkpt>
      <trkpt lat="41.431235" lon="-5.230579">
        <ele>695.613</ele>
        <time>2017-09-19T13:56:58Z</time>
      </trkpt>
      <trkpt lat="41.430917" lon="-5.230758">
        <ele>693.743</ele>
        <time>2017-09-19T13:57:11Z</time>
      </trkpt>
      <trkpt lat="41.430838" lon="-5.230792">
        <ele>693.245</ele>
        <time>2017-09-19T13:57:14Z</time>
      </trkpt>
      <trkpt lat="41.430813" lon="-5.230795">
        <ele>693.241</ele>
        <time>2017-09-19T13:57:15Z</time>
      </trkpt>
      <trkpt lat="41.430788" lon="-5.230797">
        <ele>693.281</ele>
        <time>2017-09-19T13:57:16Z</time>
      </trkpt>
      <trkpt lat="41.430763" lon="-5.230803">
        <ele>692.709</ele>
        <time>2017-09-19T13:57:17Z</time>
      </trkpt>
      <trkpt lat="41.430737" lon="-5.230812">
        <ele>692.708</ele>
        <time>2017-09-19T13:57:18Z</time>
      </trkpt>
      <trkpt lat="41.430392" lon="-5.230986">
        <ele>690.895</ele>
        <time>2017-09-19T13:57:33Z</time>
      </trkpt>
      <trkpt lat="41.430132" lon="-5.231126">
        <ele>689.833</ele>
        <time>2017-09-19T13:57:45Z</time>
      </trkpt>
      <trkpt lat="41.430036" lon="-5.231189">
        <ele>689.413</ele>
        <time>2017-09-19T13:57:50Z</time>
      </trkpt>
      <trkpt lat="41.430022" lon="-5.231202">
        <ele>689.417</ele>
        <time>2017-09-19T13:57:51Z</time>
      </trkpt>
      <trkpt lat="41.430012" lon="-5.231208">
        <ele>689.425</ele>
        <time>2017-09-19T13:57:52Z</time>
      </trkpt>
      <trkpt lat="41.429889" lon="-5.231242">
        <ele>689.434</ele>
        <time>2017-09-19T13:58:04Z</time>
      </trkpt>
      <trkpt lat="41.429697" lon="-5.231350">
        <ele>688.474</ele>
        <time>2017-09-19T13:58:13Z</time>
      </trkpt>
      <trkpt lat="41.429678" lon="-5.231353">
        <ele>688.416</ele>
        <time>2017-09-19T13:58:14Z</time>
      </trkpt>
      <trkpt lat="41.429659" lon="-5.231358">
        <ele>688.496</ele>
        <time>2017-09-19T13:58:15Z</time>
      </trkpt>
      <trkpt lat="41.429419" lon="-5.231474">
        <ele>687.931</ele>
        <time>2017-09-19T13:58:28Z</time>
      </trkpt>
      <trkpt lat="41.429165" lon="-5.231634">
        <ele>687.424</ele>
        <time>2017-09-19T13:58:41Z</time>
      </trkpt>
      <trkpt lat="41.428861" lon="-5.231851">
        <ele>687.008</ele>
        <time>2017-09-19T13:58:57Z</time>
      </trkpt>
      <trkpt lat="41.428625" lon="-5.232046">
        <ele>686.590</ele>
        <time>2017-09-19T13:59:10Z</time>
      </trkpt>
      <trkpt lat="41.428322" lon="-5.232304">
        <ele>687.018</ele>
        <time>2017-09-19T13:59:25Z</time>
      </trkpt>
      <trkpt lat="41.428052" lon="-5.232512">
        <ele>686.558</ele>
        <time>2017-09-19T13:59:40Z</time>
      </trkpt>
      <trkpt lat="41.427811" lon="-5.232674">
        <ele>686.522</ele>
        <time>2017-09-19T13:59:53Z</time>
      </trkpt>
      <trkpt lat="41.427579" lon="-5.232832">
        <ele>686.080</ele>
        <time>2017-09-19T14:00:07Z</time>
      </trkpt>
      <trkpt lat="41.427345" lon="-5.233040">
        <ele>684.679</ele>
        <time>2017-09-19T14:00:23Z</time>
      </trkpt>
      <trkpt lat="41.427260" lon="-5.233165">
        <ele>683.689</ele>
        <time>2017-09-19T14:00:31Z</time>
      </trkpt>
      <trkpt lat="41.427250" lon="-5.233184">
        <ele>683.691</ele>
        <time>2017-09-19T14:00:32Z</time>
      </trkpt>
      <trkpt lat="41.427236" lon="-5.233206">
        <ele>683.677</ele>
        <time>2017-09-19T14:00:33Z</time>
      </trkpt>
      <trkpt lat="41.427047" lon="-5.233460">
        <ele>681.261</ele>
        <time>2017-09-19T14:00:47Z</time>
      </trkpt>
      <trkpt lat="41.426879" lon="-5.233529">
        <ele>679.327</ele>
        <time>2017-09-19T14:00:57Z</time>
      </trkpt>
      <trkpt lat="41.426700" lon="-5.233615">
        <ele>677.808</ele>
        <time>2017-09-19T14:01:08Z</time>
      </trkpt>
      <trkpt lat="41.426328" lon="-5.233874">
        <ele>676.938</ele>
        <time>2017-09-19T14:01:22Z</time>
      </trkpt>
      <trkpt lat="41.425923" lon="-5.234128">
        <ele>675.976</ele>
        <time>2017-09-19T14:01:36Z</time>
      </trkpt>
      <trkpt lat="41.425510" lon="-5.234370">
        <ele>675.446</ele>
        <time>2017-09-19T14:01:53Z</time>
      </trkpt>
      <trkpt lat="41.425231" lon="-5.234566">
        <ele>674.930</ele>
        <time>2017-09-19T14:02:06Z</time>
      </trkpt>
      <trkpt lat="41.424971" lon="-5.234743">
        <ele>675.438</ele>
        <time>2017-09-19T14:02:19Z</time>
      </trkpt>
      <trkpt lat="41.424814" lon="-5.234855">
        <ele>675.987</ele>
        <time>2017-09-19T14:02:28Z</time>
      </trkpt>
      <trkpt lat="41.424804" lon="-5.234873">
        <ele>675.967</ele>
        <time>2017-09-19T14:02:29Z</time>
      </trkpt>
      <trkpt lat="41.424798" lon="-5.234894">
        <ele>676.419</ele>
        <time>2017-09-19T14:02:30Z</time>
      </trkpt>
      <trkpt lat="41.424792" lon="-5.234914">
        <ele>676.473</ele>
        <time>2017-09-19T14:02:31Z</time>
      </trkpt>
      <trkpt lat="41.424782" lon="-5.234940">
        <ele>675.985</ele>
        <time>2017-09-19T14:02:32Z</time>
      </trkpt>
      <trkpt lat="41.424769" lon="-5.234964">
        <ele>675.913</ele>
        <time>2017-09-19T14:02:33Z</time>
      </trkpt>
      <trkpt lat="41.424750" lon="-5.234988">
        <ele>675.908</ele>
        <time>2017-09-19T14:02:34Z</time>
      </trkpt>
      <trkpt lat="41.424729" lon="-5.235002">
        <ele>675.918</ele>
        <time>2017-09-19T14:02:35Z</time>
      </trkpt>
      <trkpt lat="41.424706" lon="-5.235014">
        <ele>675.916</ele>
        <time>2017-09-19T14:02:36Z</time>
      </trkpt>
      <trkpt lat="41.424505" lon="-5.235168">
        <ele>675.916</ele>
        <time>2017-09-19T14:02:46Z</time>
      </trkpt>
      <trkpt lat="41.424487" lon="-5.235173">
        <ele>675.930</ele>
        <time>2017-09-19T14:02:47Z</time>
      </trkpt>
      <trkpt lat="41.424453" lon="-5.235198">
        <ele>675.948</ele>
        <time>2017-09-19T14:02:49Z</time>
      </trkpt>
      <trkpt lat="41.424436" lon="-5.235222">
        <ele>675.937</ele>
        <time>2017-09-19T14:02:50Z</time>
      </trkpt>
      <trkpt lat="41.424418" lon="-5.235243">
        <ele>675.927</ele>
        <time>2017-09-19T14:02:51Z</time>
      </trkpt>
      <trkpt lat="41.424398" lon="-5.235265">
        <ele>675.939</ele>
        <time>2017-09-19T14:02:52Z</time>
      </trkpt>
      <trkpt lat="41.424376" lon="-5.235288">
        <ele>675.959</ele>
        <time>2017-09-19T14:02:53Z</time>
      </trkpt>
      <trkpt lat="41.424358" lon="-5.235310">
        <ele>675.903</ele>
        <time>2017-09-19T14:02:54Z</time>
      </trkpt>
      <trkpt lat="41.424010" lon="-5.235688">
        <ele>676.423</ele>
        <time>2017-09-19T14:03:12Z</time>
      </trkpt>
      <trkpt lat="41.423697" lon="-5.235964">
        <ele>676.408</ele>
        <time>2017-09-19T14:03:28Z</time>
      </trkpt>
      <trkpt lat="41.423421" lon="-5.236189">
        <ele>676.966</ele>
        <time>2017-09-19T14:03:42Z</time>
      </trkpt>
      <trkpt lat="41.423031" lon="-5.236509">
        <ele>675.974</ele>
        <time>2017-09-19T14:04:00Z</time>
      </trkpt>
      <trkpt lat="41.422674" lon="-5.236739">
        <ele>675.464</ele>
        <time>2017-09-19T14:04:16Z</time>
      </trkpt>
      <trkpt lat="41.422532" lon="-5.236854">
        <ele>675.438</ele>
        <time>2017-09-19T14:04:23Z</time>
      </trkpt>
      <trkpt lat="41.422513" lon="-5.236862">
        <ele>675.476</ele>
        <time>2017-09-19T14:04:24Z</time>
      </trkpt>
      <trkpt lat="41.422499" lon="-5.236875">
        <ele>675.445</ele>
        <time>2017-09-19T14:04:25Z</time>
      </trkpt>
      <trkpt lat="41.422248" lon="-5.237176">
        <ele>675.455</ele>
        <time>2017-09-19T14:04:39Z</time>
      </trkpt>
      <trkpt lat="41.421961" lon="-5.237511">
        <ele>675.437</ele>
        <time>2017-09-19T14:04:54Z</time>
      </trkpt>
      <trkpt lat="41.421635" lon="-5.237780">
        <ele>675.425</ele>
        <time>2017-09-19T14:05:10Z</time>
      </trkpt>
      <trkpt lat="41.421355" lon="-5.237978">
        <ele>674.926</ele>
        <time>2017-09-19T14:05:23Z</time>
      </trkpt>
      <trkpt lat="41.420981" lon="-5.238220">
        <ele>675.408</ele>
        <time>2017-09-19T14:05:40Z</time>
      </trkpt>
      <trkpt lat="41.420701" lon="-5.238415">
        <ele>675.908</ele>
        <time>2017-09-19T14:05:53Z</time>
      </trkpt>
      <trkpt lat="41.420414" lon="-5.238702">
        <ele>675.413</ele>
        <time>2017-09-19T14:06:08Z</time>
      </trkpt>
      <trkpt lat="41.420189" lon="-5.238955">
        <ele>675.461</ele>
        <time>2017-09-19T14:06:21Z</time>
      </trkpt>
      <trkpt lat="41.419942" lon="-5.239166">
        <ele>676.491</ele>
        <time>2017-09-19T14:06:35Z</time>
      </trkpt>
      <trkpt lat="41.419642" lon="-5.239412">
        <ele>675.985</ele>
        <time>2017-09-19T14:06:52Z</time>
      </trkpt>
      <trkpt lat="41.419399" lon="-5.239567">
        <ele>674.973</ele>
        <time>2017-09-19T14:07:05Z</time>
      </trkpt>
      <trkpt lat="41.419090" lon="-5.239572">
        <ele>674.512</ele>
        <time>2017-09-19T14:07:18Z</time>
      </trkpt>
      <trkpt lat="41.418852" lon="-5.239520">
        <ele>674.512</ele>
        <time>2017-09-19T14:07:29Z</time>
      </trkpt>
      <trkpt lat="41.418504" lon="-5.239503">
        <ele>674.034</ele>
        <time>2017-09-19T14:07:44Z</time>
      </trkpt>
      <trkpt lat="41.418162" lon="-5.239536">
        <ele>674.598</ele>
        <time>2017-09-19T14:07:58Z</time>
      </trkpt>
      <trkpt lat="41.417860" lon="-5.239400">
        <ele>673.515</ele>
        <time>2017-09-19T14:08:09Z</time>
      </trkpt>
      <trkpt lat="41.417567" lon="-5.239567">
        <ele>672.126</ele>
        <time>2017-09-19T14:08:21Z</time>
      </trkpt>
      <trkpt lat="41.417234" lon="-5.239952">
        <ele>670.608</ele>
        <time>2017-09-19T14:08:38Z</time>
      </trkpt>
      <trkpt lat="41.417162" lon="-5.239999">
        <ele>670.160</ele>
        <time>2017-09-19T14:08:42Z</time>
      </trkpt>
      <trkpt lat="41.417144" lon="-5.239998">
        <ele>670.668</ele>
        <time>2017-09-19T14:08:43Z</time>
      </trkpt>
      <trkpt lat="41.417128" lon="-5.239998">
        <ele>670.168</ele>
        <time>2017-09-19T14:08:44Z</time>
      </trkpt>
      <trkpt lat="41.417129" lon="-5.239995">
        <ele>670.612</ele>
        <time>2017-09-19T14:08:54Z</time>
      </trkpt>
      <trkpt lat="41.417126" lon="-5.240014">
        <ele>671.170</ele>
        <time>2017-09-19T14:09:16Z</time>
      </trkpt>
      <trkpt lat="41.417123" lon="-5.240037">
        <ele>671.189</ele>
        <time>2017-09-19T14:09:24Z</time>
      </trkpt>
      <trkpt lat="41.417117" lon="-5.240055">
        <ele>670.619</ele>
        <time>2017-09-19T14:09:25Z</time>
      </trkpt>
      <trkpt lat="41.417109" lon="-5.240080">
        <ele>670.681</ele>
        <time>2017-09-19T14:09:26Z</time>
      </trkpt>
      <trkpt lat="41.417099" lon="-5.240109">
        <ele>670.697</ele>
        <time>2017-09-19T14:09:27Z</time>
      </trkpt>
      <trkpt lat="41.417089" lon="-5.240142">
        <ele>670.623</ele>
        <time>2017-09-19T14:09:28Z</time>
      </trkpt>
      <trkpt lat="41.416880" lon="-5.240556">
        <ele>670.625</ele>
        <time>2017-09-19T14:09:44Z</time>
      </trkpt>
      <trkpt lat="41.416709" lon="-5.240875">
        <ele>670.608</ele>
        <time>2017-09-19T14:09:57Z</time>
      </trkpt>
      <trkpt lat="41.416496" lon="-5.241169">
        <ele>670.650</ele>
        <time>2017-09-19T14:10:11Z</time>
      </trkpt>
      <trkpt lat="41.416484" lon="-5.241186">
        <ele>671.168</ele>
        <time>2017-09-19T14:10:12Z</time>
      </trkpt>
      <trkpt lat="41.416475" lon="-5.241205">
        <ele>671.118</ele>
        <time>2017-09-19T14:10:13Z</time>
      </trkpt>
      <trkpt lat="41.416359" lon="-5.241420">
        <ele>670.642</ele>
        <time>2017-09-19T14:10:24Z</time>
      </trkpt>
      <trkpt lat="41.416348" lon="-5.241425">
        <ele>670.650</ele>
        <time>2017-09-19T14:10:25Z</time>
      </trkpt>
      <trkpt lat="41.416335" lon="-5.241431">
        <ele>670.159</ele>
        <time>2017-09-19T14:10:38Z</time>
      </trkpt>
      <trkpt lat="41.416333" lon="-5.241426">
        <ele>670.679</ele>
        <time>2017-09-19T14:11:11Z</time>
      </trkpt>
      <trkpt lat="41.416336" lon="-5.241438">
        <ele>671.141</ele>
        <time>2017-09-19T14:11:44Z</time>
      </trkpt>
      <trkpt lat="41.416340" lon="-5.241448">
        <ele>671.142</ele>
        <time>2017-09-19T14:12:33Z</time>
      </trkpt>
      <trkpt lat="41.416325" lon="-5.241454">
        <ele>671.122</ele>
        <time>2017-09-19T14:12:59Z</time>
      </trkpt>
      <trkpt lat="41.416326" lon="-5.241465">
        <ele>671.614</ele>
        <time>2017-09-19T14:13:06Z</time>
      </trkpt>
      <trkpt lat="41.416210" lon="-5.241703">
        <ele>671.608</ele>
        <time>2017-09-19T14:13:18Z</time>
      </trkpt>
      <trkpt lat="41.416006" lon="-5.242029">
        <ele>671.185</ele>
        <time>2017-09-19T14:13:33Z</time>
      </trkpt>
      <trkpt lat="41.415844" lon="-5.242261">
        <ele>671.163</ele>
        <time>2017-09-19T14:13:45Z</time>
      </trkpt>
      <trkpt lat="41.415691" lon="-5.242397">
        <ele>670.613</ele>
        <time>2017-09-19T14:13:53Z</time>
      </trkpt>
      <trkpt lat="41.415672" lon="-5.242408">
        <ele>670.647</ele>
        <time>2017-09-19T14:13:54Z</time>
      </trkpt>
      <trkpt lat="41.415651" lon="-5.242423">
        <ele>670.635</ele>
        <time>2017-09-19T14:13:55Z</time>
      </trkpt>
      <trkpt lat="41.415629" lon="-5.242444">
        <ele>670.674</ele>
        <time>2017-09-19T14:13:56Z</time>
      </trkpt>
      <trkpt lat="41.415609" lon="-5.242464">
        <ele>670.634</ele>
        <time>2017-09-19T14:13:57Z</time>
      </trkpt>
      <trkpt lat="41.415385" lon="-5.242670">
        <ele>669.776</ele>
        <time>2017-09-19T14:14:09Z</time>
      </trkpt>
      <trkpt lat="41.415177" lon="-5.242875">
        <ele>670.182</ele>
        <time>2017-09-19T14:14:21Z</time>
      </trkpt>
      <trkpt lat="41.414963" lon="-5.243143">
        <ele>669.743</ele>
        <time>2017-09-19T14:14:35Z</time>
      </trkpt>
      <trkpt lat="41.414945" lon="-5.243160">
        <ele>669.717</ele>
        <time>2017-09-19T14:14:36Z</time>
      </trkpt>
      <trkpt lat="41.414927" lon="-5.243172">
        <ele>669.708</ele>
        <time>2017-09-19T14:14:37Z</time>
      </trkpt>
      <trkpt lat="41.414907" lon="-5.243194">
        <ele>669.739</ele>
        <time>2017-09-19T14:14:38Z</time>
      </trkpt>
      <trkpt lat="41.414894" lon="-5.243211">
        <ele>669.757</ele>
        <time>2017-09-19T14:14:39Z</time>
      </trkpt>
      <trkpt lat="41.414876" lon="-5.243232">
        <ele>669.777</ele>
        <time>2017-09-19T14:14:40Z</time>
      </trkpt>
      <trkpt lat="41.414858" lon="-5.243253">
        <ele>669.751</ele>
        <time>2017-09-19T14:14:41Z</time>
      </trkpt>
      <trkpt lat="41.414839" lon="-5.243273">
        <ele>669.739</ele>
        <time>2017-09-19T14:14:42Z</time>
      </trkpt>
      <trkpt lat="41.414821" lon="-5.243294">
        <ele>669.758</ele>
        <time>2017-09-19T14:14:43Z</time>
      </trkpt>
      <trkpt lat="41.414801" lon="-5.243313">
        <ele>669.298</ele>
        <time>2017-09-19T14:14:44Z</time>
      </trkpt>
      <trkpt lat="41.414782" lon="-5.243331">
        <ele>669.220</ele>
        <time>2017-09-19T14:14:45Z</time>
      </trkpt>
      <trkpt lat="41.414487" lon="-5.243575">
        <ele>667.776</ele>
        <time>2017-09-19T14:14:59Z</time>
      </trkpt>
      <trkpt lat="41.414145" lon="-5.243862">
        <ele>666.890</ele>
        <time>2017-09-19T14:15:14Z</time>
      </trkpt>
      <trkpt lat="41.413737" lon="-5.244193">
        <ele>666.819</ele>
        <time>2017-09-19T14:15:32Z</time>
      </trkpt>
      <trkpt lat="41.413650" lon="-5.244275">
        <ele>667.208</ele>
        <time>2017-09-19T14:15:45Z</time>
      </trkpt>
      <trkpt lat="41.413552" lon="-5.244364">
        <ele>667.228</ele>
        <time>2017-09-19T14:16:01Z</time>
      </trkpt>
      <trkpt lat="41.413503" lon="-5.244393">
        <ele>667.256</ele>
        <time>2017-09-19T14:16:04Z</time>
      </trkpt>
      <trkpt lat="41.413490" lon="-5.244394">
        <ele>666.876</ele>
        <time>2017-09-19T14:16:05Z</time>
      </trkpt>
      <trkpt lat="41.413482" lon="-5.244401">
        <ele>666.860</ele>
        <time>2017-09-19T14:16:06Z</time>
      </trkpt>
      <trkpt lat="41.413475" lon="-5.244412">
        <ele>667.258</ele>
        <time>2017-09-19T14:16:07Z</time>
      </trkpt>
      <trkpt lat="41.413467" lon="-5.244425">
        <ele>667.217</ele>
        <time>2017-09-19T14:16:08Z</time>
      </trkpt>
      <trkpt lat="41.413453" lon="-5.244439">
        <ele>667.267</ele>
        <time>2017-09-19T14:16:09Z</time>
      </trkpt>
      <trkpt lat="41.413437" lon="-5.244450">
        <ele>666.879</ele>
        <time>2017-09-19T14:16:10Z</time>
      </trkpt>
      <trkpt lat="41.413421" lon="-5.244458">
        <ele>666.884</ele>
        <time>2017-09-19T14:16:11Z</time>
      </trkpt>
      <trkpt lat="41.413403" lon="-5.244465">
        <ele>666.807</ele>
        <time>2017-09-19T14:16:12Z</time>
      </trkpt>
      <trkpt lat="41.413386" lon="-5.244470">
        <ele>666.817</ele>
        <time>2017-09-19T14:16:13Z</time>
      </trkpt>
      <trkpt lat="41.413369" lon="-5.244475">
        <ele>666.808</ele>
        <time>2017-09-19T14:16:14Z</time>
      </trkpt>
      <trkpt lat="41.413352" lon="-5.244481">
        <ele>666.849</ele>
        <time>2017-09-19T14:16:15Z</time>
      </trkpt>
      <trkpt lat="41.413040" lon="-5.244630">
        <ele>664.867</ele>
        <time>2017-09-19T14:16:29Z</time>
      </trkpt>
      <trkpt lat="41.412672" lon="-5.244946">
        <ele>663.997</ele>
        <time>2017-09-19T14:16:44Z</time>
      </trkpt>
      <trkpt lat="41.412341" lon="-5.245339">
        <ele>663.461</ele>
        <time>2017-09-19T14:17:00Z</time>
      </trkpt>
      <trkpt lat="41.412045" lon="-5.245561">
        <ele>662.949</ele>
        <time>2017-09-19T14:17:14Z</time>
      </trkpt>
      <trkpt lat="41.411681" lon="-5.245724">
        <ele>662.918</ele>
        <time>2017-09-19T14:17:31Z</time>
      </trkpt>
      <trkpt lat="41.411392" lon="-5.245956">
        <ele>662.468</ele>
        <time>2017-09-19T14:17:46Z</time>
      </trkpt>
      <trkpt lat="41.411027" lon="-5.246216">
        <ele>661.020</ele>
        <time>2017-09-19T14:18:00Z</time>
      </trkpt>
      <trkpt lat="41.410701" lon="-5.246501">
        <ele>661.016</ele>
        <time>2017-09-19T14:18:14Z</time>
      </trkpt>
      <trkpt lat="41.410343" lon="-5.246704">
        <ele>661.076</ele>
        <time>2017-09-19T14:18:29Z</time>
      </trkpt>
      <trkpt lat="41.409966" lon="-5.246860">
        <ele>658.113</ele>
        <time>2017-09-19T14:18:44Z</time>
      </trkpt>
      <trkpt lat="41.409571" lon="-5.247113">
        <ele>657.608</ele>
        <time>2017-09-19T14:18:57Z</time>
      </trkpt>
      <trkpt lat="41.409285" lon="-5.247382">
        <ele>658.612</ele>
        <time>2017-09-19T14:19:08Z</time>
      </trkpt>
      <trkpt lat="41.408939" lon="-5.247789">
        <ele>660.050</ele>
        <time>2017-09-19T14:19:22Z</time>
      </trkpt>
      <trkpt lat="41.408596" lon="-5.248073">
        <ele>661.080</ele>
        <time>2017-09-19T14:19:36Z</time>
      </trkpt>
      <trkpt lat="41.408180" lon="-5.248354">
        <ele>661.084</ele>
        <time>2017-09-19T14:19:56Z</time>
      </trkpt>
      <trkpt lat="41.407957" lon="-5.248563">
        <ele>662.052</ele>
        <time>2017-09-19T14:20:09Z</time>
      </trkpt>
      <trkpt lat="41.407676" lon="-5.248698">
        <ele>662.411</ele>
        <time>2017-09-19T14:20:24Z</time>
      </trkpt>
      <trkpt lat="41.407457" lon="-5.248826">
        <ele>662.011</ele>
        <time>2017-09-19T14:20:37Z</time>
      </trkpt>
      <trkpt lat="41.407226" lon="-5.249018">
        <ele>662.953</ele>
        <time>2017-09-19T14:20:50Z</time>
      </trkpt>
      <trkpt lat="41.406919" lon="-5.249264">
        <ele>662.483</ele>
        <time>2017-09-19T14:21:05Z</time>
      </trkpt>
      <trkpt lat="41.406648" lon="-5.249482">
        <ele>662.425</ele>
        <time>2017-09-19T14:21:18Z</time>
      </trkpt>
      <trkpt lat="41.406248" lon="-5.249795">
        <ele>662.917</ele>
        <time>2017-09-19T14:21:34Z</time>
      </trkpt>
      <trkpt lat="41.405919" lon="-5.250055">
        <ele>663.408</ele>
        <time>2017-09-19T14:21:48Z</time>
      </trkpt>
      <trkpt lat="41.405635" lon="-5.250288">
        <ele>663.429</ele>
        <time>2017-09-19T14:22:01Z</time>
      </trkpt>
      <trkpt lat="41.405295" lon="-5.250573">
        <ele>663.457</ele>
        <time>2017-09-19T14:22:17Z</time>
      </trkpt>
      <trkpt lat="41.404923" lon="-5.250896">
        <ele>662.437</ele>
        <time>2017-09-19T14:22:33Z</time>
      </trkpt>
      <trkpt lat="41.404691" lon="-5.251106">
        <ele>662.451</ele>
        <time>2017-09-19T14:22:44Z</time>
      </trkpt>
      <trkpt lat="41.404453" lon="-5.251324">
        <ele>662.079</ele>
        <time>2017-09-19T14:22:57Z</time>
      </trkpt>
      <trkpt lat="41.404166" lon="-5.251654">
        <ele>662.038</ele>
        <time>2017-09-19T14:23:12Z</time>
      </trkpt>
      <trkpt lat="41.403917" lon="-5.251977">
        <ele>661.088</ele>
        <time>2017-09-19T14:23:26Z</time>
      </trkpt>
      <trkpt lat="41.403560" lon="-5.252221">
        <ele>661.080</ele>
        <time>2017-09-19T14:23:42Z</time>
      </trkpt>
      <trkpt lat="41.403271" lon="-5.252352">
        <ele>661.539</ele>
        <time>2017-09-19T14:23:55Z</time>
      </trkpt>
      <trkpt lat="41.403109" lon="-5.252422">
        <ele>663.401</ele>
        <time>2017-09-19T14:24:05Z</time>
      </trkpt>
      <trkpt lat="41.403097" lon="-5.252431">
        <ele>663.421</ele>
        <time>2017-09-19T14:24:06Z</time>
      </trkpt>
      <trkpt lat="41.402890" lon="-5.252656">
        <ele>661.008</ele>
        <time>2017-09-19T14:24:16Z</time>
      </trkpt>
      <trkpt lat="41.402875" lon="-5.252712">
        <ele>661.014</ele>
        <time>2017-09-19T14:24:17Z</time>
      </trkpt>
      <trkpt lat="41.402868" lon="-5.252769">
        <ele>661.092</ele>
        <time>2017-09-19T14:24:18Z</time>
      </trkpt>
      <trkpt lat="41.402883" lon="-5.253272">
        <ele>660.582</ele>
        <time>2017-09-19T14:24:30Z</time>
      </trkpt>
      <trkpt lat="41.402913" lon="-5.253717">
        <ele>660.096</ele>
        <time>2017-09-19T14:24:42Z</time>
      </trkpt>
      <trkpt lat="41.403033" lon="-5.254209">
        <ele>660.024</ele>
        <time>2017-09-19T14:24:58Z</time>
      </trkpt>
      <trkpt lat="41.403112" lon="-5.254530">
        <ele>660.023</ele>
        <time>2017-09-19T14:25:10Z</time>
      </trkpt>
      <trkpt lat="41.403113" lon="-5.254556">
        <ele>660.013</ele>
        <time>2017-09-19T14:25:11Z</time>
      </trkpt>
      <trkpt lat="41.403171" lon="-5.254905">
        <ele>659.665</ele>
        <time>2017-09-19T14:25:24Z</time>
      </trkpt>
      <trkpt lat="41.403174" lon="-5.254926">
        <ele>660.083</ele>
        <time>2017-09-19T14:25:25Z</time>
      </trkpt>
      <trkpt lat="41.403176" lon="-5.255015">
        <ele>660.025</ele>
        <time>2017-09-19T14:25:36Z</time>
      </trkpt>
      <trkpt lat="41.403173" lon="-5.255011">
        <ele>660.017</ele>
        <time>2017-09-19T14:25:59Z</time>
      </trkpt>
      <trkpt lat="41.403162" lon="-5.255022">
        <ele>661.508</ele>
        <time>2017-09-19T14:26:47Z</time>
      </trkpt>
      <trkpt lat="41.403174" lon="-5.255009">
        <ele>662.059</ele>
        <time>2017-09-19T14:27:34Z</time>
      </trkpt>
      <trkpt lat="41.403188" lon="-5.255035">
        <ele>660.557</ele>
        <time>2017-09-19T14:28:19Z</time>
      </trkpt>
      <trkpt lat="41.403194" lon="-5.255048">
        <ele>661.077</ele>
        <time>2017-09-19T14:28:34Z</time>
      </trkpt>
      <trkpt lat="41.403201" lon="-5.255063">
        <ele>661.021</ele>
        <time>2017-09-19T14:28:35Z</time>
      </trkpt>
      <trkpt lat="41.403207" lon="-5.255081">
        <ele>661.099</ele>
        <time>2017-09-19T14:28:36Z</time>
      </trkpt>
      <trkpt lat="41.403304" lon="-5.255508">
        <ele>660.558</ele>
        <time>2017-09-19T14:28:51Z</time>
      </trkpt>
      <trkpt lat="41.403414" lon="-5.255932">
        <ele>660.558</ele>
        <time>2017-09-19T14:29:08Z</time>
      </trkpt>
      <trkpt lat="41.403531" lon="-5.256270">
        <ele>660.580</ele>
        <time>2017-09-19T14:29:22Z</time>
      </trkpt>
      <trkpt lat="41.403645" lon="-5.256777">
        <ele>660.027</ele>
        <time>2017-09-19T14:29:40Z</time>
      </trkpt>
      <trkpt lat="41.403817" lon="-5.257320">
        <ele>660.068</ele>
        <time>2017-09-19T14:29:59Z</time>
      </trkpt>
      <trkpt lat="41.403951" lon="-5.257648">
        <ele>660.014</ele>
        <time>2017-09-19T14:30:11Z</time>
      </trkpt>
      <trkpt lat="41.404054" lon="-5.257957">
        <ele>659.608</ele>
        <time>2017-09-19T14:30:24Z</time>
      </trkpt>
      <trkpt lat="41.404156" lon="-5.258297">
        <ele>660.023</ele>
        <time>2017-09-19T14:30:37Z</time>
      </trkpt>
      <trkpt lat="41.404274" lon="-5.258756">
        <ele>661.591</ele>
        <time>2017-09-19T14:30:53Z</time>
      </trkpt>
      <trkpt lat="41.404340" lon="-5.259179">
        <ele>661.061</ele>
        <time>2017-09-19T14:31:06Z</time>
      </trkpt>
      <trkpt lat="41.404400" lon="-5.259457">
        <ele>660.015</ele>
        <time>2017-09-19T14:31:17Z</time>
      </trkpt>
      <trkpt lat="41.404441" lon="-5.259832">
        <ele>660.583</ele>
        <time>2017-09-19T14:31:30Z</time>
      </trkpt>
      <trkpt lat="41.404442" lon="-5.259889">
        <ele>660.072</ele>
        <time>2017-09-19T14:31:32Z</time>
      </trkpt>
      <trkpt lat="41.404445" lon="-5.259909">
        <ele>660.062</ele>
        <time>2017-09-19T14:31:33Z</time>
      </trkpt>
      <trkpt lat="41.404445" lon="-5.259927">
        <ele>660.064</ele>
        <time>2017-09-19T14:31:34Z</time>
      </trkpt>
      <trkpt lat="41.404440" lon="-5.259946">
        <ele>660.095</ele>
        <time>2017-09-19T14:31:35Z</time>
      </trkpt>
      <trkpt lat="41.404435" lon="-5.259965">
        <ele>660.049</ele>
        <time>2017-09-19T14:31:36Z</time>
      </trkpt>
      <trkpt lat="41.404431" lon="-5.259987">
        <ele>660.023</ele>
        <time>2017-09-19T14:31:37Z</time>
      </trkpt>
      <trkpt lat="41.404429" lon="-5.260008">
        <ele>660.008</ele>
        <time>2017-09-19T14:31:38Z</time>
      </trkpt>
      <trkpt lat="41.404427" lon="-5.260031">
        <ele>660.050</ele>
        <time>2017-09-19T14:31:39Z</time>
      </trkpt>
      <trkpt lat="41.404401" lon="-5.260386">
        <ele>660.048</ele>
        <time>2017-09-19T14:31:53Z</time>
      </trkpt>
      <trkpt lat="41.404391" lon="-5.260831">
        <ele>660.078</ele>
        <time>2017-09-19T14:32:09Z</time>
      </trkpt>
      <trkpt lat="41.404403" lon="-5.261340">
        <ele>659.182</ele>
        <time>2017-09-19T14:32:26Z</time>
      </trkpt>
      <trkpt lat="41.404415" lon="-5.261671">
        <ele>658.640</ele>
        <time>2017-09-19T14:32:38Z</time>
      </trkpt>
      <trkpt lat="41.404389" lon="-5.261865">
        <ele>659.119</ele>
        <time>2017-09-19T14:32:46Z</time>
      </trkpt>
      <trkpt lat="41.404383" lon="-5.261887">
        <ele>659.189</ele>
        <time>2017-09-19T14:32:47Z</time>
      </trkpt>
      <trkpt lat="41.404382" lon="-5.261910">
        <ele>659.161</ele>
        <time>2017-09-19T14:32:48Z</time>
      </trkpt>
      <trkpt lat="41.404385" lon="-5.261939">
        <ele>659.138</ele>
        <time>2017-09-19T14:32:49Z</time>
      </trkpt>
      <trkpt lat="41.404391" lon="-5.261964">
        <ele>659.170</ele>
        <time>2017-09-19T14:32:50Z</time>
      </trkpt>
      <trkpt lat="41.404390" lon="-5.261998">
        <ele>659.117</ele>
        <time>2017-09-19T14:32:59Z</time>
      </trkpt>
      <trkpt lat="41.404386" lon="-5.262024">
        <ele>658.608</ele>
        <time>2017-09-19T14:33:06Z</time>
      </trkpt>
      <trkpt lat="41.404389" lon="-5.262043">
        <ele>658.614</ele>
        <time>2017-09-19T14:33:07Z</time>
      </trkpt>
      <trkpt lat="41.404394" lon="-5.262064">
        <ele>658.662</ele>
        <time>2017-09-19T14:33:08Z</time>
      </trkpt>
      <trkpt lat="41.404401" lon="-5.262086">
        <ele>658.662</ele>
        <time>2017-09-19T14:33:09Z</time>
      </trkpt>
      <trkpt lat="41.404407" lon="-5.262111">
        <ele>658.666</ele>
        <time>2017-09-19T14:33:10Z</time>
      </trkpt>
      <trkpt lat="41.404410" lon="-5.262133">
        <ele>658.674</ele>
        <time>2017-09-19T14:33:11Z</time>
      </trkpt>
      <trkpt lat="41.404414" lon="-5.262156">
        <ele>658.643</ele>
        <time>2017-09-19T14:33:12Z</time>
      </trkpt>
      <trkpt lat="41.404417" lon="-5.262184">
        <ele>658.173</ele>
        <time>2017-09-19T14:33:13Z</time>
      </trkpt>
      <trkpt lat="41.404434" lon="-5.262312">
        <ele>659.155</ele>
        <time>2017-09-19T14:33:24Z</time>
      </trkpt>
      <trkpt lat="41.404473" lon="-5.262650">
        <ele>659.694</ele>
        <time>2017-09-19T14:33:38Z</time>
      </trkpt>
      <trkpt lat="41.404474" lon="-5.263050">
        <ele>659.657</ele>
        <time>2017-09-19T14:33:52Z</time>
      </trkpt>
      <trkpt lat="41.404473" lon="-5.263311">
        <ele>659.622</ele>
        <time>2017-09-19T14:34:05Z</time>
      </trkpt>
      <trkpt lat="41.404445" lon="-5.263651">
        <ele>660.508</ele>
        <time>2017-09-19T14:34:19Z</time>
      </trkpt>
      <trkpt lat="41.404436" lon="-5.264006">
        <ele>660.060</ele>
        <time>2017-09-19T14:34:32Z</time>
      </trkpt>
      <trkpt lat="41.404442" lon="-5.264426">
        <ele>659.178</ele>
        <time>2017-09-19T14:34:48Z</time>
      </trkpt>
      <trkpt lat="41.404439" lon="-5.264804">
        <ele>658.648</ele>
        <time>2017-09-19T14:35:01Z</time>
      </trkpt>
      <trkpt lat="41.404468" lon="-5.265164">
        <ele>658.122</ele>
        <time>2017-09-19T14:35:13Z</time>
      </trkpt>
      <trkpt lat="41.404555" lon="-5.265735">
        <ele>658.140</ele>
        <time>2017-09-19T14:35:31Z</time>
      </trkpt>
      <trkpt lat="41.404645" lon="-5.266145">
        <ele>658.629</ele>
        <time>2017-09-19T14:35:46Z</time>
      </trkpt>
      <trkpt lat="41.404722" lon="-5.266543">
        <ele>658.179</ele>
        <time>2017-09-19T14:35:59Z</time>
      </trkpt>
      <trkpt lat="41.404735" lon="-5.266926">
        <ele>657.621</ele>
        <time>2017-09-19T14:36:12Z</time>
      </trkpt>
      <trkpt lat="41.404684" lon="-5.267456">
        <ele>658.132</ele>
        <time>2017-09-19T14:36:28Z</time>
      </trkpt>
      <trkpt lat="41.404608" lon="-5.267983">
        <ele>658.692</ele>
        <time>2017-09-19T14:36:45Z</time>
      </trkpt>
      <trkpt lat="41.404667" lon="-5.268354">
        <ele>657.611</ele>
        <time>2017-09-19T14:36:57Z</time>
      </trkpt>
      <trkpt lat="41.404671" lon="-5.268384">
        <ele>657.608</ele>
        <time>2017-09-19T14:36:58Z</time>
      </trkpt>
      <trkpt lat="41.404670" lon="-5.268416">
        <ele>657.684</ele>
        <time>2017-09-19T14:36:59Z</time>
      </trkpt>
      <trkpt lat="41.404668" lon="-5.268452">
        <ele>657.662</ele>
        <time>2017-09-19T14:37:00Z</time>
      </trkpt>
      <trkpt lat="41.404666" lon="-5.268493">
        <ele>657.682</ele>
        <time>2017-09-19T14:37:01Z</time>
      </trkpt>
      <trkpt lat="41.404653" lon="-5.268735">
        <ele>656.766</ele>
        <time>2017-09-19T14:37:06Z</time>
      </trkpt>
      <trkpt lat="41.404646" lon="-5.268787">
        <ele>656.714</ele>
        <time>2017-09-19T14:37:07Z</time>
      </trkpt>
      <trkpt lat="41.404639" lon="-5.268835">
        <ele>656.723</ele>
        <time>2017-09-19T14:37:08Z</time>
      </trkpt>
      <trkpt lat="41.404629" lon="-5.268886">
        <ele>656.793</ele>
        <time>2017-09-19T14:37:09Z</time>
      </trkpt>
      <trkpt lat="41.404616" lon="-5.268936">
        <ele>656.265</ele>
        <time>2017-09-19T14:37:10Z</time>
      </trkpt>
      <trkpt lat="41.404603" lon="-5.268984">
        <ele>655.758</ele>
        <time>2017-09-19T14:37:11Z</time>
      </trkpt>
      <trkpt lat="41.404594" lon="-5.269034">
        <ele>655.252</ele>
        <time>2017-09-19T14:37:12Z</time>
      </trkpt>
      <trkpt lat="41.404589" lon="-5.269086">
        <ele>655.217</ele>
        <time>2017-09-19T14:37:13Z</time>
      </trkpt>
      <trkpt lat="41.404583" lon="-5.269138">
        <ele>654.808</ele>
        <time>2017-09-19T14:37:14Z</time>
      </trkpt>
      <trkpt lat="41.404574" lon="-5.269183">
        <ele>654.876</ele>
        <time>2017-09-19T14:37:15Z</time>
      </trkpt>
      <trkpt lat="41.404565" lon="-5.269228">
        <ele>654.384</ele>
        <time>2017-09-19T14:37:16Z</time>
      </trkpt>
      <trkpt lat="41.404559" lon="-5.269273">
        <ele>654.334</ele>
        <time>2017-09-19T14:37:17Z</time>
      </trkpt>
      <trkpt lat="41.404476" lon="-5.269787">
        <ele>654.888</ele>
        <time>2017-09-19T14:37:28Z</time>
      </trkpt>
      <trkpt lat="41.404375" lon="-5.270429">
        <ele>656.276</ele>
        <time>2017-09-19T14:37:41Z</time>
      </trkpt>
      <trkpt lat="41.404286" lon="-5.270983">
        <ele>657.665</ele>
        <time>2017-09-19T14:37:53Z</time>
      </trkpt>
      <trkpt lat="41.404173" lon="-5.271619">
        <ele>660.595</ele>
        <time>2017-09-19T14:38:08Z</time>
      </trkpt>
      <trkpt lat="41.404056" lon="-5.272238">
        <ele>661.037</ele>
        <time>2017-09-19T14:38:22Z</time>
      </trkpt>
      <trkpt lat="41.403970" lon="-5.272734">
        <ele>661.017</ele>
        <time>2017-09-19T14:38:35Z</time>
      </trkpt>
      <trkpt lat="41.403967" lon="-5.272848">
        <ele>660.587</ele>
        <time>2017-09-19T14:38:40Z</time>
      </trkpt>
      <trkpt lat="41.403961" lon="-5.272870">
        <ele>660.515</ele>
        <time>2017-09-19T14:38:41Z</time>
      </trkpt>
      <trkpt lat="41.403853" lon="-5.273485">
        <ele>660.508</ele>
        <time>2017-09-19T14:38:56Z</time>
      </trkpt>
      <trkpt lat="41.403742" lon="-5.274146">
        <ele>661.082</ele>
        <time>2017-09-19T14:39:12Z</time>
      </trkpt>
      <trkpt lat="41.403693" lon="-5.274574">
        <ele>662.440</ele>
        <time>2017-09-19T14:39:26Z</time>
      </trkpt>
      <trkpt lat="41.403714" lon="-5.274592">
        <ele>662.930</ele>
        <time>2017-09-19T14:39:27Z</time>
      </trkpt>
      <trkpt lat="41.403734" lon="-5.274603">
        <ele>663.424</ele>
        <time>2017-09-19T14:39:28Z</time>
      </trkpt>
      <trkpt lat="41.404171" lon="-5.274738">
        <ele>662.972</ele>
        <time>2017-09-19T14:39:40Z</time>
      </trkpt>
      <trkpt lat="41.404426" lon="-5.274847">
        <ele>662.451</ele>
        <time>2017-09-19T14:39:46Z</time>
      </trkpt>
      <trkpt lat="41.405068" lon="-5.275201">
        <ele>662.491</ele>
        <time>2017-09-19T14:40:03Z</time>
      </trkpt>
      <trkpt lat="41.405285" lon="-5.275326">
        <ele>661.053</ele>
        <time>2017-09-19T14:40:15Z</time>
      </trkpt>
      <trkpt lat="41.405344" lon="-5.275363">
        <ele>659.128</ele>
        <time>2017-09-19T14:40:35Z</time>
      </trkpt>
      <trkpt lat="41.405703" lon="-5.275621">
        <ele>659.189</ele>
        <time>2017-09-19T14:40:49Z</time>
      </trkpt>
      <trkpt lat="41.406219" lon="-5.275941">
        <ele>659.617</ele>
        <time>2017-09-19T14:41:02Z</time>
      </trkpt>
      <trkpt lat="41.406996" lon="-5.276535">
        <ele>660.008</ele>
        <time>2017-09-19T14:41:22Z</time>
      </trkpt>
      <trkpt lat="41.407710" lon="-5.277128">
        <ele>659.683</ele>
        <time>2017-09-19T14:41:41Z</time>
      </trkpt>
      <trkpt lat="41.408027" lon="-5.277395">
        <ele>659.671</ele>
        <time>2017-09-19T14:41:50Z</time>
      </trkpt>
      <trkpt lat="41.408062" lon="-5.277427">
        <ele>659.621</ele>
        <time>2017-09-19T14:41:51Z</time>
      </trkpt>
      <trkpt lat="41.408669" lon="-5.277918">
        <ele>660.025</ele>
        <time>2017-09-19T14:42:09Z</time>
      </trkpt>
      <trkpt lat="41.408918" lon="-5.278125">
        <ele>660.043</ele>
        <time>2017-09-19T14:42:17Z</time>
      </trkpt>
      <trkpt lat="41.408954" lon="-5.278154">
        <ele>660.092</ele>
        <time>2017-09-19T14:42:18Z</time>
      </trkpt>
      <trkpt lat="41.409543" lon="-5.278632">
        <ele>659.692</ele>
        <time>2017-09-19T14:42:34Z</time>
      </trkpt>
      <trkpt lat="41.410145" lon="-5.279123">
        <ele>659.154</ele>
        <time>2017-09-19T14:42:49Z</time>
      </trkpt>
      <trkpt lat="41.411028" lon="-5.279844">
        <ele>658.144</ele>
        <time>2017-09-19T14:43:07Z</time>
      </trkpt>
      <trkpt lat="41.411931" lon="-5.280602">
        <ele>658.605</ele>
        <time>2017-09-19T14:43:27Z</time>
      </trkpt>
      <trkpt lat="41.412646" lon="-5.281237">
        <ele>660.015</ele>
        <time>2017-09-19T14:43:46Z</time>
      </trkpt>
      <trkpt lat="41.413136" lon="-5.281719">
        <ele>660.008</ele>
        <time>2017-09-19T14:44:01Z</time>
      </trkpt>
      <trkpt lat="41.413804" lon="-5.282369">
        <ele>660.065</ele>
        <time>2017-09-19T14:44:19Z</time>
      </trkpt>
      <trkpt lat="41.414436" lon="-5.283000">
        <ele>660.043</ele>
        <time>2017-09-19T14:44:36Z</time>
      </trkpt>
      <trkpt lat="41.415246" lon="-5.283804">
        <ele>660.033</ele>
        <time>2017-09-19T14:44:57Z</time>
      </trkpt>
      <trkpt lat="41.415394" lon="-5.283956">
        <ele>660.087</ele>
        <time>2017-09-19T14:45:01Z</time>
      </trkpt>
      <trkpt lat="41.416120" lon="-5.284679">
        <ele>659.655</ele>
        <time>2017-09-19T14:45:21Z</time>
      </trkpt>
      <trkpt lat="41.416827" lon="-5.285376">
        <ele>659.634</ele>
        <time>2017-09-19T14:45:39Z</time>
      </trkpt>
      <trkpt lat="41.417618" lon="-5.286160">
        <ele>659.654</ele>
        <time>2017-09-19T14:46:00Z</time>
      </trkpt>
      <trkpt lat="41.418285" lon="-5.286830">
        <ele>659.156</ele>
        <time>2017-09-19T14:46:18Z</time>
      </trkpt>
      <trkpt lat="41.419112" lon="-5.287649">
        <ele>659.166</ele>
        <time>2017-09-19T14:46:40Z</time>
      </trkpt>
      <trkpt lat="41.419850" lon="-5.288390">
        <ele>658.629</ele>
        <time>2017-09-19T14:47:00Z</time>
      </trkpt>
      <trkpt lat="41.420605" lon="-5.289147">
        <ele>658.621</ele>
        <time>2017-09-19T14:47:20Z</time>
      </trkpt>
      <trkpt lat="41.421214" lon="-5.289756">
        <ele>658.608</ele>
        <time>2017-09-19T14:47:37Z</time>
      </trkpt>
      <trkpt lat="41.421508" lon="-5.290050">
        <ele>658.127</ele>
        <time>2017-09-19T14:47:45Z</time>
      </trkpt>
      <trkpt lat="41.421542" lon="-5.290083">
        <ele>658.115</ele>
        <time>2017-09-19T14:47:46Z</time>
      </trkpt>
      <trkpt lat="41.421578" lon="-5.290122">
        <ele>658.165</ele>
        <time>2017-09-19T14:47:47Z</time>
      </trkpt>
      <trkpt lat="41.421612" lon="-5.290160">
        <ele>658.119</ele>
        <time>2017-09-19T14:47:48Z</time>
      </trkpt>
      <trkpt lat="41.421650" lon="-5.290197">
        <ele>658.167</ele>
        <time>2017-09-19T14:47:49Z</time>
      </trkpt>
      <trkpt lat="41.422244" lon="-5.290783">
        <ele>658.116</ele>
        <time>2017-09-19T14:48:05Z</time>
      </trkpt>
      <trkpt lat="41.422896" lon="-5.291425">
        <ele>658.196</ele>
        <time>2017-09-19T14:48:23Z</time>
      </trkpt>
      <trkpt lat="41.423605" lon="-5.292138">
        <ele>658.648</ele>
        <time>2017-09-19T14:48:43Z</time>
      </trkpt>
      <trkpt lat="41.424232" lon="-5.292756">
        <ele>659.192</ele>
        <time>2017-09-19T14:49:01Z</time>
      </trkpt>
      <trkpt lat="41.425019" lon="-5.293547">
        <ele>658.173</ele>
        <time>2017-09-19T14:49:21Z</time>
      </trkpt>
      <trkpt lat="41.425833" lon="-5.294359">
        <ele>657.620</ele>
        <time>2017-09-19T14:49:40Z</time>
      </trkpt>
      <trkpt lat="41.426614" lon="-5.295150">
        <ele>656.708</ele>
        <time>2017-09-19T14:49:58Z</time>
      </trkpt>
      <trkpt lat="41.427380" lon="-5.295908">
        <ele>656.240</ele>
        <time>2017-09-19T14:50:16Z</time>
      </trkpt>
      <trkpt lat="41.428148" lon="-5.296667">
        <ele>656.788</ele>
        <time>2017-09-19T14:50:35Z</time>
      </trkpt>
      <trkpt lat="41.429044" lon="-5.297557">
        <ele>657.218</ele>
        <time>2017-09-19T14:50:58Z</time>
      </trkpt>
      <trkpt lat="41.429643" lon="-5.298149">
        <ele>657.262</ele>
        <time>2017-09-19T14:51:15Z</time>
      </trkpt>
      <trkpt lat="41.429900" lon="-5.298422">
        <ele>657.620</ele>
        <time>2017-09-19T14:51:22Z</time>
      </trkpt>
      <trkpt lat="41.430195" lon="-5.298709">
        <ele>657.689</ele>
        <time>2017-09-19T14:51:31Z</time>
      </trkpt>
      <trkpt lat="41.430853" lon="-5.299383">
        <ele>658.129</ele>
        <time>2017-09-19T14:51:49Z</time>
      </trkpt>
      <trkpt lat="41.431410" lon="-5.300079">
        <ele>657.671</ele>
        <time>2017-09-19T14:52:05Z</time>
      </trkpt>
      <trkpt lat="41.431568" lon="-5.300346">
        <ele>657.677</ele>
        <time>2017-09-19T14:52:11Z</time>
      </trkpt>
      <trkpt lat="41.431589" lon="-5.300387">
        <ele>657.661</ele>
        <time>2017-09-19T14:52:12Z</time>
      </trkpt>
      <trkpt lat="41.431840" lon="-5.300877">
        <ele>658.127</ele>
        <time>2017-09-19T14:52:26Z</time>
      </trkpt>
      <trkpt lat="41.431897" lon="-5.300935">
        <ele>657.208</ele>
        <time>2017-09-19T14:52:38Z</time>
      </trkpt>
      <trkpt lat="41.431886" lon="-5.300970">
        <ele>661.528</ele>
        <time>2017-09-19T14:52:56Z</time>
      </trkpt>
      <trkpt lat="41.431876" lon="-5.300974">
        <ele>668.296</ele>
        <time>2017-09-19T14:53:24Z</time>
      </trkpt>
      <trkpt lat="41.431838" lon="-5.301003">
        <ele>673.046</ele>
        <time>2017-09-19T14:53:53Z</time>
      </trkpt>
      <trkpt lat="41.431890" lon="-5.300947">
        <ele>666.870</ele>
        <time>2017-09-19T14:54:23Z</time>
      </trkpt>
      <trkpt lat="41.431886" lon="-5.300964">
        <ele>665.838</ele>
        <time>2017-09-19T14:54:47Z</time>
      </trkpt>
      <trkpt lat="41.431879" lon="-5.300963">
        <ele>663.917</ele>
        <time>2017-09-19T14:55:15Z</time>
      </trkpt>
      <trkpt lat="41.431875" lon="-5.300945">
        <ele>662.957</ele>
        <time>2017-09-19T14:55:42Z</time>
      </trkpt>
      <trkpt lat="41.431897" lon="-5.300952">
        <ele>665.369</ele>
        <time>2017-09-19T14:56:16Z</time>
      </trkpt>
      <trkpt lat="41.431868" lon="-5.300955">
        <ele>669.219</ele>
        <time>2017-09-19T14:56:48Z</time>
      </trkpt>
      <trkpt lat="41.431876" lon="-5.300982">
        <ele>667.209</ele>
        <time>2017-09-19T14:57:23Z</time>
      </trkpt>
      <trkpt lat="41.431889" lon="-5.300970">
        <ele>661.019</ele>
        <time>2017-09-19T14:57:58Z</time>
      </trkpt>
      <trkpt lat="41.431913" lon="-5.300931">
        <ele>656.708</ele>
        <time>2017-09-19T14:58:29Z</time>
      </trkpt>
      <trkpt lat="41.431920" lon="-5.300933">
        <ele>654.812</ele>
        <time>2017-09-19T14:58:58Z</time>
      </trkpt>
      <trkpt lat="41.431911" lon="-5.300925">
        <ele>654.840</ele>
        <time>2017-09-19T14:59:32Z</time>
      </trkpt>
      <trkpt lat="41.431905" lon="-5.300919">
        <ele>659.110</ele>
        <time>2017-09-19T14:59:59Z</time>
      </trkpt>
      <trkpt lat="41.431903" lon="-5.300958">
        <ele>662.034</ele>
        <time>2017-09-19T15:00:29Z</time>
      </trkpt>
      <trkpt lat="41.431904" lon="-5.300995">
        <ele>662.942</ele>
        <time>2017-09-19T15:00:40Z</time>
      </trkpt>
      <trkpt lat="41.432031" lon="-5.301346">
        <ele>662.931</ele>
        <time>2017-09-19T15:00:52Z</time>
      </trkpt>
      <trkpt lat="41.432450" lon="-5.302177">
        <ele>662.481</ele>
        <time>2017-09-19T15:01:11Z</time>
      </trkpt>
      <trkpt lat="41.432845" lon="-5.303005">
        <ele>661.533</ele>
        <time>2017-09-19T15:01:28Z</time>
      </trkpt>
      <trkpt lat="41.433323" lon="-5.303958">
        <ele>659.631</ele>
        <time>2017-09-19T15:01:47Z</time>
      </trkpt>
      <trkpt lat="41.433511" lon="-5.304358">
        <ele>658.661</ele>
        <time>2017-09-19T15:01:55Z</time>
      </trkpt>
      <trkpt lat="41.433667" lon="-5.304667">
        <ele>658.607</ele>
        <time>2017-09-19T15:02:01Z</time>
      </trkpt>
      <trkpt lat="41.434305" lon="-5.305677">
        <ele>657.608</ele>
        <time>2017-09-19T15:02:20Z</time>
      </trkpt>
      <trkpt lat="41.435051" lon="-5.306715">
        <ele>657.284</ele>
        <time>2017-09-19T15:02:43Z</time>
      </trkpt>
      <trkpt lat="41.435114" lon="-5.306804">
        <ele>657.242</ele>
        <time>2017-09-19T15:02:45Z</time>
      </trkpt>
      <trkpt lat="41.435712" lon="-5.307612">
        <ele>657.622</ele>
        <time>2017-09-19T15:03:04Z</time>
      </trkpt>
      <trkpt lat="41.436431" lon="-5.308605">
        <ele>658.136</ele>
        <time>2017-09-19T15:03:28Z</time>
      </trkpt>
      <trkpt lat="41.437093" lon="-5.309514">
        <ele>657.644</ele>
        <time>2017-09-19T15:03:50Z</time>
      </trkpt>
      <trkpt lat="41.437676" lon="-5.310324">
        <ele>656.773</ele>
        <time>2017-09-19T15:04:08Z</time>
      </trkpt>
      <trkpt lat="41.438399" lon="-5.311319">
        <ele>655.733</ele>
        <time>2017-09-19T15:04:27Z</time>
      </trkpt>
      <trkpt lat="41.439230" lon="-5.312456">
        <ele>654.845</ele>
        <time>2017-09-19T15:04:48Z</time>
      </trkpt>
      <trkpt lat="41.440017" lon="-5.313530">
        <ele>654.818</ele>
        <time>2017-09-19T15:05:07Z</time>
      </trkpt>
      <trkpt lat="41.440981" lon="-5.314851">
        <ele>654.898</ele>
        <time>2017-09-19T15:05:31Z</time>
      </trkpt>
      <trkpt lat="41.441814" lon="-5.316008">
        <ele>655.217</ele>
        <time>2017-09-19T15:05:54Z</time>
      </trkpt>
      <trkpt lat="41.442088" lon="-5.316386">
        <ele>654.808</ele>
        <time>2017-09-19T15:06:02Z</time>
      </trkpt>
      <trkpt lat="41.442649" lon="-5.317166">
        <ele>654.892</ele>
        <time>2017-09-19T15:06:19Z</time>
      </trkpt>
      <trkpt lat="41.443029" lon="-5.317701">
        <ele>654.820</ele>
        <time>2017-09-19T15:06:30Z</time>
      </trkpt>
      <trkpt lat="41.443572" lon="-5.318435">
        <ele>654.860</ele>
        <time>2017-09-19T15:06:46Z</time>
      </trkpt>
      <trkpt lat="41.444350" lon="-5.319509">
        <ele>654.334</ele>
        <time>2017-09-19T15:07:09Z</time>
      </trkpt>
      <trkpt lat="41.444383" lon="-5.319552">
        <ele>654.322</ele>
        <time>2017-09-19T15:07:10Z</time>
      </trkpt>
      <trkpt lat="41.444972" lon="-5.320367">
        <ele>653.841</ele>
        <time>2017-09-19T15:07:27Z</time>
      </trkpt>
      <trkpt lat="41.445753" lon="-5.321450">
        <ele>653.391</ele>
        <time>2017-09-19T15:07:49Z</time>
      </trkpt>
      <trkpt lat="41.445936" lon="-5.321706">
        <ele>652.833</ele>
        <time>2017-09-19T15:07:55Z</time>
      </trkpt>
      <trkpt lat="41.446428" lon="-5.322384">
        <ele>652.369</ele>
        <time>2017-09-19T15:08:10Z</time>
      </trkpt>
      <trkpt lat="41.447230" lon="-5.323494">
        <ele>651.404</ele>
        <time>2017-09-19T15:08:32Z</time>
      </trkpt>
      <trkpt lat="41.448064" lon="-5.324645">
        <ele>651.424</ele>
        <time>2017-09-19T15:08:55Z</time>
      </trkpt>
      <trkpt lat="41.448906" lon="-5.325814">
        <ele>651.408</ele>
        <time>2017-09-19T15:09:20Z</time>
      </trkpt>
      <trkpt lat="41.449495" lon="-5.326626">
        <ele>651.477</ele>
        <time>2017-09-19T15:09:39Z</time>
      </trkpt>
      <trkpt lat="41.450042" lon="-5.327387">
        <ele>651.935</ele>
        <time>2017-09-19T15:09:57Z</time>
      </trkpt>
      <trkpt lat="41.450668" lon="-5.328248">
        <ele>651.995</ele>
        <time>2017-09-19T15:10:18Z</time>
      </trkpt>
      <trkpt lat="41.451364" lon="-5.329214">
        <ele>652.389</ele>
        <time>2017-09-19T15:10:41Z</time>
      </trkpt>
      <trkpt lat="41.451875" lon="-5.329923">
        <ele>652.357</ele>
        <time>2017-09-19T15:10:59Z</time>
      </trkpt>
      <trkpt lat="41.451904" lon="-5.329965">
        <ele>652.356</ele>
        <time>2017-09-19T15:11:00Z</time>
      </trkpt>
      <trkpt lat="41.452542" lon="-5.330842">
        <ele>652.376</ele>
        <time>2017-09-19T15:11:21Z</time>
      </trkpt>
      <trkpt lat="41.453157" lon="-5.331694">
        <ele>652.368</ele>
        <time>2017-09-19T15:11:41Z</time>
      </trkpt>
      <trkpt lat="41.453687" lon="-5.332422">
        <ele>652.334</ele>
        <time>2017-09-19T15:11:58Z</time>
      </trkpt>
      <trkpt lat="41.454309" lon="-5.333279">
        <ele>652.355</ele>
        <time>2017-09-19T15:12:18Z</time>
      </trkpt>
      <trkpt lat="41.454889" lon="-5.334076">
        <ele>652.810</ele>
        <time>2017-09-19T15:12:37Z</time>
      </trkpt>
      <trkpt lat="41.455406" lon="-5.334790">
        <ele>651.908</ele>
        <time>2017-09-19T15:12:54Z</time>
      </trkpt>
      <trkpt lat="41.455793" lon="-5.335331">
        <ele>651.424</ele>
        <time>2017-09-19T15:13:07Z</time>
      </trkpt>
      <trkpt lat="41.456286" lon="-5.336008">
        <ele>651.452</ele>
        <time>2017-09-19T15:13:24Z</time>
      </trkpt>
      <trkpt lat="41.456759" lon="-5.336659">
        <ele>651.472</ele>
        <time>2017-09-19T15:13:41Z</time>
      </trkpt>
      <trkpt lat="41.457192" lon="-5.337250">
        <ele>651.466</ele>
        <time>2017-09-19T15:13:57Z</time>
      </trkpt>
      <trkpt lat="41.457794" lon="-5.338083">
        <ele>651.424</ele>
        <time>2017-09-19T15:14:18Z</time>
      </trkpt>
      <trkpt lat="41.458338" lon="-5.338834">
        <ele>651.923</ele>
        <time>2017-09-19T15:14:37Z</time>
      </trkpt>
      <trkpt lat="41.458942" lon="-5.339666">
        <ele>651.493</ele>
        <time>2017-09-19T15:14:58Z</time>
      </trkpt>
      <trkpt lat="41.459532" lon="-5.340483">
        <ele>651.925</ele>
        <time>2017-09-19T15:15:19Z</time>
      </trkpt>
      <trkpt lat="41.459758" lon="-5.340785">
        <ele>651.487</ele>
        <time>2017-09-19T15:15:27Z</time>
      </trkpt>
      <trkpt lat="41.459876" lon="-5.340949">
        <ele>651.442</ele>
        <time>2017-09-19T15:15:31Z</time>
      </trkpt>
      <trkpt lat="41.460510" lon="-5.341832">
        <ele>651.426</ele>
        <time>2017-09-19T15:15:53Z</time>
      </trkpt>
      <trkpt lat="41.461022" lon="-5.342532">
        <ele>651.408</ele>
        <time>2017-09-19T15:16:11Z</time>
      </trkpt>
      <trkpt lat="41.461573" lon="-5.343288">
        <ele>651.459</ele>
        <time>2017-09-19T15:16:30Z</time>
      </trkpt>
      <trkpt lat="41.462157" lon="-5.344079">
        <ele>651.967</ele>
        <time>2017-09-19T15:16:50Z</time>
      </trkpt>
      <trkpt lat="41.462721" lon="-5.344832">
        <ele>651.477</ele>
        <time>2017-09-19T15:17:09Z</time>
      </trkpt>
      <trkpt lat="41.463073" lon="-5.345259">
        <ele>651.981</ele>
        <time>2017-09-19T15:17:24Z</time>
      </trkpt>
      <trkpt lat="41.463115" lon="-5.345285">
        <ele>651.999</ele>
        <time>2017-09-19T15:17:26Z</time>
      </trkpt>
      <trkpt lat="41.463124" lon="-5.345309">
        <ele>651.988</ele>
        <time>2017-09-19T15:17:27Z</time>
      </trkpt>
      <trkpt lat="41.463124" lon="-5.345323">
        <ele>651.968</ele>
        <time>2017-09-19T15:17:38Z</time>
      </trkpt>
      <trkpt lat="41.463129" lon="-5.345329">
        <ele>651.970</ele>
        <time>2017-09-19T15:18:01Z</time>
      </trkpt>
      <trkpt lat="41.463132" lon="-5.345329">
        <ele>652.313</ele>
        <time>2017-09-19T15:18:42Z</time>
      </trkpt>
      <trkpt lat="41.463137" lon="-5.345327">
        <ele>651.943</ele>
        <time>2017-09-19T15:19:27Z</time>
      </trkpt>
      <trkpt lat="41.463134" lon="-5.345328">
        <ele>652.307</ele>
        <time>2017-09-19T15:20:02Z</time>
      </trkpt>
      <trkpt lat="41.463129" lon="-5.345339">
        <ele>652.308</ele>
        <time>2017-09-19T15:20:47Z</time>
      </trkpt>
      <trkpt lat="41.463131" lon="-5.345335">
        <ele>652.862</ele>
        <time>2017-09-19T15:21:28Z</time>
      </trkpt>
      <trkpt lat="41.463124" lon="-5.345323">
        <ele>653.380</ele>
        <time>2017-09-19T15:22:00Z</time>
      </trkpt>
      <trkpt lat="41.463125" lon="-5.345331">
        <ele>652.360</ele>
        <time>2017-09-19T15:22:30Z</time>
      </trkpt>
      <trkpt lat="41.463128" lon="-5.345334">
        <ele>652.334</ele>
        <time>2017-09-19T15:22:46Z</time>
      </trkpt>
      <trkpt lat="41.463248" lon="-5.345525">
        <ele>652.892</ele>
        <time>2017-09-19T15:22:56Z</time>
      </trkpt>
      <trkpt lat="41.463651" lon="-5.346061">
        <ele>653.811</ele>
        <time>2017-09-19T15:23:12Z</time>
      </trkpt>
      <trkpt lat="41.464350" lon="-5.346993">
        <ele>653.811</ele>
        <time>2017-09-19T15:23:34Z</time>
      </trkpt>
      <trkpt lat="41.465121" lon="-5.348019">
        <ele>654.833</ele>
        <time>2017-09-19T15:23:56Z</time>
      </trkpt>
      <trkpt lat="41.465727" lon="-5.348835">
        <ele>654.887</ele>
        <time>2017-09-19T15:24:13Z</time>
      </trkpt>
      <trkpt lat="41.466323" lon="-5.349627">
        <ele>654.342</ele>
        <time>2017-09-19T15:24:30Z</time>
      </trkpt>
      <trkpt lat="41.466969" lon="-5.350501">
        <ele>654.326</ele>
        <time>2017-09-19T15:24:49Z</time>
      </trkpt>
      <trkpt lat="41.467717" lon="-5.351496">
        <ele>654.308</ele>
        <time>2017-09-19T15:25:11Z</time>
      </trkpt>
      <trkpt lat="41.468372" lon="-5.352369">
        <ele>655.289</ele>
        <time>2017-09-19T15:25:31Z</time>
      </trkpt>
      <trkpt lat="41.468993" lon="-5.353199">
        <ele>655.217</ele>
        <time>2017-09-19T15:25:51Z</time>
      </trkpt>
      <trkpt lat="41.469471" lon="-5.353839">
        <ele>656.277</ele>
        <time>2017-09-19T15:26:10Z</time>
      </trkpt>
      <trkpt lat="41.469848" lon="-5.354347">
        <ele>657.231</ele>
        <time>2017-09-19T15:26:26Z</time>
      </trkpt>
      <trkpt lat="41.470259" lon="-5.354895">
        <ele>659.179</ele>
        <time>2017-09-19T15:26:43Z</time>
      </trkpt>
      <trkpt lat="41.470650" lon="-5.355432">
        <ele>660.028</ele>
        <time>2017-09-19T15:27:00Z</time>
      </trkpt>
      <trkpt lat="41.471003" lon="-5.355941">
        <ele>660.528</ele>
        <time>2017-09-19T15:27:17Z</time>
      </trkpt>
      <trkpt lat="41.471393" lon="-5.356558">
        <ele>660.580</ele>
        <time>2017-09-19T15:27:36Z</time>
      </trkpt>
      <trkpt lat="41.471771" lon="-5.357148">
        <ele>660.086</ele>
        <time>2017-09-19T15:27:52Z</time>
      </trkpt>
      <trkpt lat="41.472287" lon="-5.357964">
        <ele>660.560</ele>
        <time>2017-09-19T15:28:12Z</time>
      </trkpt>
      <trkpt lat="41.472778" lon="-5.358749">
        <ele>660.026</ele>
        <time>2017-09-19T15:28:30Z</time>
      </trkpt>
      <trkpt lat="41.472862" lon="-5.358877">
        <ele>660.008</ele>
        <time>2017-09-19T15:28:33Z</time>
      </trkpt>
      <trkpt lat="41.473308" lon="-5.359585">
        <ele>660.099</ele>
        <time>2017-09-19T15:28:49Z</time>
      </trkpt>
      <trkpt lat="41.473837" lon="-5.360433">
        <ele>659.637</ele>
        <time>2017-09-19T15:29:08Z</time>
      </trkpt>
      <trkpt lat="41.474090" lon="-5.360829">
        <ele>660.067</ele>
        <time>2017-09-19T15:29:18Z</time>
      </trkpt>
      <trkpt lat="41.474624" lon="-5.361685">
        <ele>660.551</ele>
        <time>2017-09-19T15:29:38Z</time>
      </trkpt>
      <trkpt lat="41.474879" lon="-5.362083">
        <ele>660.059</ele>
        <time>2017-09-19T15:29:47Z</time>
      </trkpt>
      <trkpt lat="41.475380" lon="-5.362879">
        <ele>660.048</ele>
        <time>2017-09-19T15:30:05Z</time>
      </trkpt>
      <trkpt lat="41.475964" lon="-5.363813">
        <ele>660.048</ele>
        <time>2017-09-19T15:30:26Z</time>
      </trkpt>
      <trkpt lat="41.476468" lon="-5.364613">
        <ele>659.620</ele>
        <time>2017-09-19T15:30:44Z</time>
      </trkpt>
      <trkpt lat="41.476859" lon="-5.365235">
        <ele>659.168</ele>
        <time>2017-09-19T15:31:00Z</time>
      </trkpt>
      <trkpt lat="41.477311" lon="-5.365949">
        <ele>659.642</ele>
        <time>2017-09-19T15:31:17Z</time>
      </trkpt>
      <trkpt lat="41.477832" lon="-5.366770">
        <ele>660.026</ele>
        <time>2017-09-19T15:31:36Z</time>
      </trkpt>
      <trkpt lat="41.478027" lon="-5.367093">
        <ele>660.508</ele>
        <time>2017-09-19T15:31:44Z</time>
      </trkpt>
      <trkpt lat="41.478614" lon="-5.368014">
        <ele>660.017</ele>
        <time>2017-09-19T15:32:05Z</time>
      </trkpt>
      <trkpt lat="41.479284" lon="-5.369010">
        <ele>658.695</ele>
        <time>2017-09-19T15:32:26Z</time>
      </trkpt>
      <trkpt lat="41.479882" lon="-5.369843">
        <ele>658.155</ele>
        <time>2017-09-19T15:32:44Z</time>
      </trkpt>
      <trkpt lat="41.480535" lon="-5.370731">
        <ele>658.159</ele>
        <time>2017-09-19T15:33:02Z</time>
      </trkpt>
      <trkpt lat="41.481199" lon="-5.371627">
        <ele>657.627</ele>
        <time>2017-09-19T15:33:21Z</time>
      </trkpt>
      <trkpt lat="41.481823" lon="-5.372479">
        <ele>658.196</ele>
        <time>2017-09-19T15:33:39Z</time>
      </trkpt>
      <trkpt lat="41.482331" lon="-5.373175">
        <ele>657.616</ele>
        <time>2017-09-19T15:33:55Z</time>
      </trkpt>
      <trkpt lat="41.482869" lon="-5.373894">
        <ele>655.728</ele>
        <time>2017-09-19T15:34:11Z</time>
      </trkpt>
      <trkpt lat="41.483433" lon="-5.374686">
        <ele>654.896</ele>
        <time>2017-09-19T15:34:27Z</time>
      </trkpt>
      <trkpt lat="41.484096" lon="-5.375583">
        <ele>653.831</ele>
        <time>2017-09-19T15:34:45Z</time>
      </trkpt>
      <trkpt lat="41.484705" lon="-5.376537">
        <ele>654.824</ele>
        <time>2017-09-19T15:35:04Z</time>
      </trkpt>
      <trkpt lat="41.485119" lon="-5.377578">
        <ele>653.308</ele>
        <time>2017-09-19T15:35:23Z</time>
      </trkpt>
      <trkpt lat="41.485372" lon="-5.378466">
        <ele>653.320</ele>
        <time>2017-09-19T15:35:39Z</time>
      </trkpt>
      <trkpt lat="41.485593" lon="-5.378779">
        <ele>653.358</ele>
        <time>2017-09-19T15:35:47Z</time>
      </trkpt>
      <trkpt lat="41.485609" lon="-5.378829">
        <ele>653.388</ele>
        <time>2017-09-19T15:35:48Z</time>
      </trkpt>
      <trkpt lat="41.485862" lon="-5.379724">
        <ele>653.892</ele>
        <time>2017-09-19T15:36:06Z</time>
      </trkpt>
      <trkpt lat="41.486046" lon="-5.380394">
        <ele>653.850</ele>
        <time>2017-09-19T15:36:20Z</time>
      </trkpt>
      <trkpt lat="41.486275" lon="-5.381137">
        <ele>653.359</ele>
        <time>2017-09-19T15:36:36Z</time>
      </trkpt>
      <trkpt lat="41.486456" lon="-5.381699">
        <ele>653.319</ele>
        <time>2017-09-19T15:36:49Z</time>
      </trkpt>
      <trkpt lat="41.486792" lon="-5.382624">
        <ele>652.811</ele>
        <time>2017-09-19T15:37:10Z</time>
      </trkpt>
      <trkpt lat="41.487031" lon="-5.383311">
        <ele>652.365</ele>
        <time>2017-09-19T15:37:25Z</time>
      </trkpt>
      <trkpt lat="41.487048" lon="-5.383359">
        <ele>651.968</ele>
        <time>2017-09-19T15:37:26Z</time>
      </trkpt>
      <trkpt lat="41.487327" lon="-5.384224">
        <ele>651.914</ele>
        <time>2017-09-19T15:37:44Z</time>
      </trkpt>
      <trkpt lat="41.487610" lon="-5.384980">
        <ele>652.308</ele>
        <time>2017-09-19T15:38:01Z</time>
      </trkpt>
      <trkpt lat="41.487935" lon="-5.385728">
        <ele>650.947</ele>
        <time>2017-09-19T15:38:18Z</time>
      </trkpt>
      <trkpt lat="41.487959" lon="-5.385776">
        <ele>650.955</ele>
        <time>2017-09-19T15:38:19Z</time>
      </trkpt>
      <trkpt lat="41.488296" lon="-5.386575">
        <ele>648.515</ele>
        <time>2017-09-19T15:38:35Z</time>
      </trkpt>
      <trkpt lat="41.488650" lon="-5.387453">
        <ele>645.629</ele>
        <time>2017-09-19T15:38:53Z</time>
      </trkpt>
      <trkpt lat="41.488936" lon="-5.388092">
        <ele>646.647</ele>
        <time>2017-09-19T15:39:08Z</time>
      </trkpt>
      <trkpt lat="41.489198" lon="-5.388754">
        <ele>647.516</ele>
        <time>2017-09-19T15:39:26Z</time>
      </trkpt>
      <trkpt lat="41.489451" lon="-5.389313">
        <ele>648.546</ele>
        <time>2017-09-19T15:39:42Z</time>
      </trkpt>
      <trkpt lat="41.489747" lon="-5.389856">
        <ele>650.458</ele>
        <time>2017-09-19T15:39:58Z</time>
      </trkpt>
      <trkpt lat="41.490057" lon="-5.390439">
        <ele>649.559</ele>
        <time>2017-09-19T15:40:14Z</time>
      </trkpt>
      <trkpt lat="41.490500" lon="-5.391194">
        <ele>649.503</ele>
        <time>2017-09-19T15:40:32Z</time>
      </trkpt>
      <trkpt lat="41.490896" lon="-5.391856">
        <ele>649.023</ele>
        <time>2017-09-19T15:40:49Z</time>
      </trkpt>
      <trkpt lat="41.490942" lon="-5.391942">
        <ele>649.008</ele>
        <time>2017-09-19T15:40:51Z</time>
      </trkpt>
      <trkpt lat="41.491251" lon="-5.392520">
        <ele>648.076</ele>
        <time>2017-09-19T15:41:05Z</time>
      </trkpt>
      <trkpt lat="41.491543" lon="-5.393051">
        <ele>648.574</ele>
        <time>2017-09-19T15:41:19Z</time>
      </trkpt>
      <trkpt lat="41.491919" lon="-5.393667">
        <ele>648.544</ele>
        <time>2017-09-19T15:41:35Z</time>
      </trkpt>
      <trkpt lat="41.492226" lon="-5.394082">
        <ele>649.048</ele>
        <time>2017-09-19T15:41:48Z</time>
      </trkpt>
      <trkpt lat="41.492584" lon="-5.394529">
        <ele>648.566</ele>
        <time>2017-09-19T15:42:03Z</time>
      </trkpt>
      <trkpt lat="41.492852" lon="-5.394887">
        <ele>649.935</ele>
        <time>2017-09-19T15:42:15Z</time>
      </trkpt>
      <trkpt lat="41.493289" lon="-5.395242">
        <ele>650.465</ele>
        <time>2017-09-19T15:42:30Z</time>
      </trkpt>
      <trkpt lat="41.493706" lon="-5.395555">
        <ele>649.567</ele>
        <time>2017-09-19T15:42:44Z</time>
      </trkpt>
      <trkpt lat="41.494212" lon="-5.395783">
        <ele>649.574</ele>
        <time>2017-09-19T15:42:59Z</time>
      </trkpt>
      <trkpt lat="41.494587" lon="-5.395993">
        <ele>649.956</ele>
        <time>2017-09-19T15:43:11Z</time>
      </trkpt>
      <trkpt lat="41.495067" lon="-5.396326">
        <ele>650.421</ele>
        <time>2017-09-19T15:43:28Z</time>
      </trkpt>
      <trkpt lat="41.495461" lon="-5.396601">
        <ele>649.908</ele>
        <time>2017-09-19T15:43:43Z</time>
      </trkpt>
      <trkpt lat="41.495886" lon="-5.396918">
        <ele>649.588</ele>
        <time>2017-09-19T15:43:58Z</time>
      </trkpt>
      <trkpt lat="41.496323" lon="-5.397242">
        <ele>649.936</ele>
        <time>2017-09-19T15:44:14Z</time>
      </trkpt>
      <trkpt lat="41.496854" lon="-5.397655">
        <ele>650.456</ele>
        <time>2017-09-19T15:44:32Z</time>
      </trkpt>
      <trkpt lat="41.497236" lon="-5.397926">
        <ele>649.980</ele>
        <time>2017-09-19T15:44:46Z</time>
      </trkpt>
      <trkpt lat="41.497722" lon="-5.398308">
        <ele>649.568</ele>
        <time>2017-09-19T15:45:03Z</time>
      </trkpt>
      <trkpt lat="41.498147" lon="-5.398624">
        <ele>649.537</ele>
        <time>2017-09-19T15:45:17Z</time>
      </trkpt>
      <trkpt lat="41.498632" lon="-5.398987">
        <ele>648.537</ele>
        <time>2017-09-19T15:45:33Z</time>
      </trkpt>
      <trkpt lat="41.498991" lon="-5.399214">
        <ele>649.039</ele>
        <time>2017-09-19T15:45:46Z</time>
      </trkpt>
      <trkpt lat="41.499367" lon="-5.399406">
        <ele>648.534</ele>
        <time>2017-09-19T15:46:00Z</time>
      </trkpt>
      <trkpt lat="41.499837" lon="-5.399588">
        <ele>647.555</ele>
        <time>2017-09-19T15:46:15Z</time>
      </trkpt>
      <trkpt lat="41.500351" lon="-5.399770">
        <ele>647.110</ele>
        <time>2017-09-19T15:46:31Z</time>
      </trkpt>
      <trkpt lat="41.500841" lon="-5.399931">
        <ele>647.108</ele>
        <time>2017-09-19T15:46:46Z</time>
      </trkpt>
      <trkpt lat="41.501431" lon="-5.400094">
        <ele>646.154</ele>
        <time>2017-09-19T15:47:04Z</time>
      </trkpt>
      <trkpt lat="41.501785" lon="-5.400229">
        <ele>646.132</ele>
        <time>2017-09-19T15:47:16Z</time>
      </trkpt>
      <trkpt lat="41.502114" lon="-5.400381">
        <ele>647.132</ele>
        <time>2017-09-19T15:47:28Z</time>
      </trkpt>
      <trkpt lat="41.502477" lon="-5.400443">
        <ele>646.626</ele>
        <time>2017-09-19T15:47:41Z</time>
      </trkpt>
      <trkpt lat="41.502773" lon="-5.400483">
        <ele>646.194</ele>
        <time>2017-09-19T15:47:52Z</time>
      </trkpt>
      <trkpt lat="41.503168" lon="-5.400493">
        <ele>646.173</ele>
        <time>2017-09-19T15:48:05Z</time>
      </trkpt>
      <trkpt lat="41.503687" lon="-5.400515">
        <ele>646.663</ele>
        <time>2017-09-19T15:48:22Z</time>
      </trkpt>
      <trkpt lat="41.504052" lon="-5.400522">
        <ele>647.195</ele>
        <time>2017-09-19T15:48:35Z</time>
      </trkpt>
      <trkpt lat="41.504479" lon="-5.400453">
        <ele>646.141</ele>
        <time>2017-09-19T15:48:50Z</time>
      </trkpt>
      <trkpt lat="41.504933" lon="-5.400430">
        <ele>646.681</ele>
        <time>2017-09-19T15:49:06Z</time>
      </trkpt>
      <trkpt lat="41.505348" lon="-5.400389">
        <ele>647.109</ele>
        <time>2017-09-19T15:49:23Z</time>
      </trkpt>
      <trkpt lat="41.505371" lon="-5.400390">
        <ele>647.108</ele>
        <time>2017-09-19T15:49:24Z</time>
      </trkpt>
      <trkpt lat="41.505395" lon="-5.400383">
        <ele>647.195</ele>
        <time>2017-09-19T15:49:25Z</time>
      </trkpt>
      <trkpt lat="41.505420" lon="-5.400378">
        <ele>647.183</ele>
        <time>2017-09-19T15:49:26Z</time>
      </trkpt>
      <trkpt lat="41.505444" lon="-5.400376">
        <ele>647.193</ele>
        <time>2017-09-19T15:49:27Z</time>
      </trkpt>
      <trkpt lat="41.505470" lon="-5.400375">
        <ele>647.177</ele>
        <time>2017-09-19T15:49:28Z</time>
      </trkpt>
      <trkpt lat="41.505746" lon="-5.400326">
        <ele>647.565</ele>
        <time>2017-09-19T15:49:39Z</time>
      </trkpt>
      <trkpt lat="41.506095" lon="-5.400209">
        <ele>648.094</ele>
        <time>2017-09-19T15:49:54Z</time>
      </trkpt>
      <trkpt lat="41.506404" lon="-5.400038">
        <ele>648.514</ele>
        <time>2017-09-19T15:50:07Z</time>
      </trkpt>
      <trkpt lat="41.506735" lon="-5.399899">
        <ele>648.056</ele>
        <time>2017-09-19T15:50:21Z</time>
      </trkpt>
      <trkpt lat="41.507154" lon="-5.399722">
        <ele>647.589</ele>
        <time>2017-09-19T15:50:37Z</time>
      </trkpt>
      <trkpt lat="41.507483" lon="-5.399632">
        <ele>647.106</ele>
        <time>2017-09-19T15:50:51Z</time>
      </trkpt>
      <trkpt lat="41.507639" lon="-5.399906">
        <ele>647.126</ele>
        <time>2017-09-19T15:51:01Z</time>
      </trkpt>
      <trkpt lat="41.507562" lon="-5.400382">
        <ele>646.608</ele>
        <time>2017-09-19T15:51:14Z</time>
      </trkpt>
      <trkpt lat="41.507556" lon="-5.400776">
        <ele>647.159</ele>
        <time>2017-09-19T15:51:27Z</time>
      </trkpt>
      <trkpt lat="41.507568" lon="-5.400795">
        <ele>647.127</ele>
        <time>2017-09-19T15:51:28Z</time>
      </trkpt>
      <trkpt lat="41.507582" lon="-5.400810">
        <ele>647.587</ele>
        <time>2017-09-19T15:51:29Z</time>
      </trkpt>
      <trkpt lat="41.507599" lon="-5.400819">
        <ele>648.021</ele>
        <time>2017-09-19T15:51:30Z</time>
      </trkpt>
      <trkpt lat="41.507615" lon="-5.400817">
        <ele>648.039</ele>
        <time>2017-09-19T15:51:31Z</time>
      </trkpt>
      <trkpt lat="41.507631" lon="-5.400812">
        <ele>648.578</ele>
        <time>2017-09-19T15:51:32Z</time>
      </trkpt>
      <trkpt lat="41.507649" lon="-5.400800">
        <ele>649.018</ele>
        <time>2017-09-19T15:51:33Z</time>
      </trkpt>
      <trkpt lat="41.507666" lon="-5.400780">
        <ele>649.020</ele>
        <time>2017-09-19T15:51:34Z</time>
      </trkpt>
      <trkpt lat="41.507678" lon="-5.400764">
        <ele>649.538</ele>
        <time>2017-09-19T15:51:35Z</time>
      </trkpt>
      <trkpt lat="41.507688" lon="-5.400739">
        <ele>649.570</ele>
        <time>2017-09-19T15:51:36Z</time>
      </trkpt>
      <trkpt lat="41.507695" lon="-5.400710">
        <ele>649.517</ele>
        <time>2017-09-19T15:51:37Z</time>
      </trkpt>
      <trkpt lat="41.507701" lon="-5.400679">
        <ele>649.508</ele>
        <time>2017-09-19T15:51:38Z</time>
      </trkpt>
      <trkpt lat="41.507705" lon="-5.400644">
        <ele>649.964</ele>
        <time>2017-09-19T15:51:39Z</time>
      </trkpt>
      <trkpt lat="41.507709" lon="-5.400610">
        <ele>649.952</ele>
        <time>2017-09-19T15:51:40Z</time>
      </trkpt>
      <trkpt lat="41.507712" lon="-5.400574">
        <ele>649.532</ele>
        <time>2017-09-19T15:51:41Z</time>
      </trkpt>
      <trkpt lat="41.507798" lon="-5.399956">
        <ele>650.986</ele>
        <time>2017-09-19T15:51:59Z</time>
      </trkpt>
      <trkpt lat="41.507863" lon="-5.399419">
        <ele>652.324</ele>
        <time>2017-09-19T15:52:15Z</time>
      </trkpt>
      <trkpt lat="41.507932" lon="-5.398790">
        <ele>652.853</ele>
        <time>2017-09-19T15:52:32Z</time>
      </trkpt>
      <trkpt lat="41.508007" lon="-5.398204">
        <ele>652.843</ele>
        <time>2017-09-19T15:52:47Z</time>
      </trkpt>
      <trkpt lat="41.508096" lon="-5.397452">
        <ele>651.425</ele>
        <time>2017-09-19T15:53:07Z</time>
      </trkpt>
      <trkpt lat="41.508100" lon="-5.397404">
        <ele>651.963</ele>
        <time>2017-09-19T15:53:19Z</time>
      </trkpt>
      <trkpt lat="41.508096" lon="-5.397400">
        <ele>651.444</ele>
        <time>2017-09-19T15:53:34Z</time>
      </trkpt>
      <trkpt lat="41.508099" lon="-5.397404">
        <ele>651.418</ele>
        <time>2017-09-19T15:54:19Z</time>
      </trkpt>
      <trkpt lat="41.508090" lon="-5.397402">
        <ele>652.808</ele>
        <time>2017-09-19T15:54:58Z</time>
      </trkpt>
      <trkpt lat="41.508091" lon="-5.397404">
        <ele>649.517</ele>
        <time>2017-09-19T15:55:37Z</time>
      </trkpt>
      <trkpt lat="41.508096" lon="-5.397402">
        <ele>650.985</ele>
        <time>2017-09-19T15:56:13Z</time>
      </trkpt>
      <trkpt lat="41.508099" lon="-5.397435">
        <ele>650.465</ele>
        <time>2017-09-19T15:56:46Z</time>
      </trkpt>
      <trkpt lat="41.508093" lon="-5.397410">
        <ele>653.319</ele>
        <time>2017-09-19T15:57:19Z</time>
      </trkpt>
      <trkpt lat="41.508100" lon="-5.397405">
        <ele>655.217</ele>
        <time>2017-09-19T15:57:53Z</time>
      </trkpt>
      <trkpt lat="41.508095" lon="-5.397382">
        <ele>654.346</ele>
        <time>2017-09-19T15:58:08Z</time>
      </trkpt>
      <trkpt lat="41.508106" lon="-5.397360">
        <ele>654.336</ele>
        <time>2017-09-19T15:58:13Z</time>
      </trkpt>
      <trkpt lat="41.508113" lon="-5.397344">
        <ele>654.348</ele>
        <time>2017-09-19T15:58:14Z</time>
      </trkpt>
      <trkpt lat="41.508118" lon="-5.397323">
        <ele>654.361</ele>
        <time>2017-09-19T15:58:15Z</time>
      </trkpt>
      <trkpt lat="41.508122" lon="-5.397302">
        <ele>654.321</ele>
        <time>2017-09-19T15:58:16Z</time>
      </trkpt>
      <trkpt lat="41.508124" lon="-5.397279">
        <ele>653.813</ele>
        <time>2017-09-19T15:58:17Z</time>
      </trkpt>
      <trkpt lat="41.508126" lon="-5.397246">
        <ele>653.808</ele>
        <time>2017-09-19T15:58:18Z</time>
      </trkpt>
      <trkpt lat="41.508130" lon="-5.397211">
        <ele>653.377</ele>
        <time>2017-09-19T15:58:19Z</time>
      </trkpt>
      <trkpt lat="41.508227" lon="-5.396411">
        <ele>649.975</ele>
        <time>2017-09-19T15:58:32Z</time>
      </trkpt>
      <trkpt lat="41.508416" lon="-5.394828">
        <ele>646.115</ele>
        <time>2017-09-19T15:58:52Z</time>
      </trkpt>
      <trkpt lat="41.508567" lon="-5.393736">
        <ele>647.169</ele>
        <time>2017-09-19T15:59:09Z</time>
      </trkpt>
      <trkpt lat="41.508935" lon="-5.392746">
        <ele>647.547</ele>
        <time>2017-09-19T15:59:29Z</time>
      </trkpt>
      <trkpt lat="41.509471" lon="-5.392123">
        <ele>647.146</ele>
        <time>2017-09-19T15:59:46Z</time>
      </trkpt>
      <trkpt lat="41.510057" lon="-5.391501">
        <ele>646.616</ele>
        <time>2017-09-19T16:00:03Z</time>
      </trkpt>
      <trkpt lat="41.510736" lon="-5.390892">
        <ele>648.048</ele>
        <time>2017-09-19T16:00:20Z</time>
      </trkpt>
      <trkpt lat="41.511212" lon="-5.390549">
        <ele>651.958</ele>
        <time>2017-09-19T16:00:37Z</time>
      </trkpt>
      <trkpt lat="41.511553" lon="-5.390323">
        <ele>654.352</ele>
        <time>2017-09-19T16:00:54Z</time>
      </trkpt>
      <trkpt lat="41.511912" lon="-5.390097">
        <ele>657.217</ele>
        <time>2017-09-19T16:01:13Z</time>
      </trkpt>
      <trkpt lat="41.512196" lon="-5.389917">
        <ele>658.608</ele>
        <time>2017-09-19T16:01:29Z</time>
      </trkpt>
      <trkpt lat="41.512215" lon="-5.389911">
        <ele>658.656</ele>
        <time>2017-09-19T16:01:30Z</time>
      </trkpt>
      <trkpt lat="41.512290" lon="-5.389856">
        <ele>659.164</ele>
        <time>2017-09-19T16:01:34Z</time>
      </trkpt>
      <trkpt lat="41.512637" lon="-5.389641">
        <ele>660.534</ele>
        <time>2017-09-19T16:01:53Z</time>
      </trkpt>
      <trkpt lat="41.512855" lon="-5.389511">
        <ele>661.088</ele>
        <time>2017-09-19T16:02:06Z</time>
      </trkpt>
      <trkpt lat="41.513177" lon="-5.389302">
        <ele>660.556</ele>
        <time>2017-09-19T16:02:20Z</time>
      </trkpt>
      <trkpt lat="41.513499" lon="-5.385678">
        <ele>658.175</ele>
        <time>2017-09-19T16:45:15Z</time>
      </trkpt>
      <trkpt lat="41.512794" lon="-5.384627">
        <ele>654.395</ele>
        <time>2017-09-19T16:45:30Z</time>
      </trkpt>
      <trkpt lat="41.512546" lon="-5.384261">
        <ele>653.397</ele>
        <time>2017-09-19T16:45:41Z</time>
      </trkpt>
      <trkpt lat="41.512531" lon="-5.384260">
        <ele>653.343</ele>
        <time>2017-09-19T16:45:42Z</time>
      </trkpt>
      <trkpt lat="41.512514" lon="-5.384262">
        <ele>652.864</ele>
        <time>2017-09-19T16:45:43Z</time>
      </trkpt>
      <trkpt lat="41.512497" lon="-5.384274">
        <ele>652.810</ele>
        <time>2017-09-19T16:45:44Z</time>
      </trkpt>
      <trkpt lat="41.512492" lon="-5.384286">
        <ele>652.808</ele>
        <time>2017-09-19T16:45:45Z</time>
      </trkpt>
      <trkpt lat="41.512488" lon="-5.384312">
        <ele>652.375</ele>
        <time>2017-09-19T16:45:47Z</time>
      </trkpt>
      <trkpt lat="41.512514" lon="-5.384337">
        <ele>651.453</ele>
        <time>2017-09-19T16:45:58Z</time>
      </trkpt>
      <trkpt lat="41.512508" lon="-5.384322">
        <ele>651.973</ele>
        <time>2017-09-19T16:46:09Z</time>
      </trkpt>
      <trkpt lat="41.512510" lon="-5.384302">
        <ele>652.897</ele>
        <time>2017-09-19T16:46:25Z</time>
      </trkpt>
      <trkpt lat="41.512510" lon="-5.384294">
        <ele>655.235</ele>
        <time>2017-09-19T16:46:58Z</time>
      </trkpt>
      <trkpt lat="41.512523" lon="-5.384294">
        <ele>655.774</ele>
        <time>2017-09-19T16:47:19Z</time>
      </trkpt>
      <trkpt lat="41.512514" lon="-5.384294">
        <ele>655.774</ele>
        <time>2017-09-19T16:47:35Z</time>
      </trkpt>
      <trkpt lat="41.512495" lon="-5.384332">
        <ele>654.316</ele>
        <time>2017-09-19T16:47:49Z</time>
      </trkpt>
      <trkpt lat="41.512523" lon="-5.384382">
        <ele>651.953</ele>
        <time>2017-09-19T16:47:59Z</time>
      </trkpt>
      <trkpt lat="41.512497" lon="-5.384385">
        <ele>647.104</ele>
        <time>2017-09-19T16:48:13Z</time>
      </trkpt>
      <trkpt lat="41.512471" lon="-5.384367">
        <ele>642.714</ele>
        <time>2017-09-19T16:48:58Z</time>
      </trkpt>
      <trkpt lat="41.512467" lon="-5.384397">
        <ele>642.308</ele>
        <time>2017-09-19T16:49:32Z</time>
      </trkpt>
      <trkpt lat="41.512506" lon="-5.384410">
        <ele>649.576</ele>
        <time>2017-09-19T16:50:09Z</time>
      </trkpt>
      <trkpt lat="41.512469" lon="-5.384407">
        <ele>652.364</ele>
        <time>2017-09-19T16:50:51Z</time>
      </trkpt>
      <trkpt lat="41.512469" lon="-5.384414">
        <ele>651.494</ele>
        <time>2017-09-19T16:51:36Z</time>
      </trkpt>
      <trkpt lat="41.512497" lon="-5.384394">
        <ele>654.368</ele>
        <time>2017-09-19T16:51:57Z</time>
      </trkpt>
      <trkpt lat="41.512498" lon="-5.384380">
        <ele>654.326</ele>
        <time>2017-09-19T16:51:58Z</time>
      </trkpt>
      <trkpt lat="41.512523" lon="-5.384350">
        <ele>654.855</ele>
        <time>2017-09-19T16:52:02Z</time>
      </trkpt>
      <trkpt lat="41.512531" lon="-5.384344">
        <ele>655.735</ele>
        <time>2017-09-19T16:52:03Z</time>
      </trkpt>
      <trkpt lat="41.512540" lon="-5.384308">
        <ele>656.777</ele>
        <time>2017-09-19T16:52:15Z</time>
      </trkpt>
      <trkpt lat="41.512531" lon="-5.384315">
        <ele>656.261</ele>
        <time>2017-09-19T16:52:29Z</time>
      </trkpt>
      <trkpt lat="41.512522" lon="-5.384333">
        <ele>655.721</ele>
        <time>2017-09-19T16:52:40Z</time>
      </trkpt>
      <trkpt lat="41.512516" lon="-5.384336">
        <ele>656.213</ele>
        <time>2017-09-19T16:53:00Z</time>
      </trkpt>
      <trkpt lat="41.512523" lon="-5.384342">
        <ele>656.208</ele>
        <time>2017-09-19T16:53:14Z</time>
      </trkpt>
      <trkpt lat="41.512507" lon="-5.384338">
        <ele>655.777</ele>
        <time>2017-09-19T16:53:35Z</time>
      </trkpt>
      <trkpt lat="41.512516" lon="-5.384334">
        <ele>655.775</ele>
        <time>2017-09-19T16:53:54Z</time>
      </trkpt>
      <trkpt lat="41.512518" lon="-5.384325">
        <ele>657.225</ele>
        <time>2017-09-19T16:54:09Z</time>
      </trkpt>
      <trkpt lat="41.512518" lon="-5.384313">
        <ele>658.699</ele>
        <time>2017-09-19T16:54:33Z</time>
      </trkpt>
      <trkpt lat="41.512514" lon="-5.384299">
        <ele>659.157</ele>
        <time>2017-09-19T16:54:57Z</time>
      </trkpt>
      <trkpt lat="41.512517" lon="-5.384298">
        <ele>658.166</ele>
        <time>2017-09-19T16:55:31Z</time>
      </trkpt>
      <trkpt lat="41.512514" lon="-5.384319">
        <ele>657.646</ele>
        <time>2017-09-19T16:55:49Z</time>
      </trkpt>
      <trkpt lat="41.512514" lon="-5.384330">
        <ele>657.668</ele>
        <time>2017-09-19T16:56:16Z</time>
      </trkpt>
      <trkpt lat="41.512518" lon="-5.384322">
        <ele>658.131</ele>
        <time>2017-09-19T16:56:49Z</time>
      </trkpt>
      <trkpt lat="41.512512" lon="-5.384340">
        <ele>657.661</ele>
        <time>2017-09-19T16:57:21Z</time>
      </trkpt>
      <trkpt lat="41.512509" lon="-5.384351">
        <ele>657.607</ele>
        <time>2017-09-19T16:58:01Z</time>
      </trkpt>
      <trkpt lat="41.512506" lon="-5.384346">
        <ele>658.608</ele>
        <time>2017-09-19T16:58:16Z</time>
      </trkpt>
      <trkpt lat="41.512484" lon="-5.384349">
        <ele>659.154</ele>
        <time>2017-09-19T16:58:27Z</time>
      </trkpt>
      <trkpt lat="41.512470" lon="-5.384336">
        <ele>662.092</ele>
        <time>2017-09-19T16:58:44Z</time>
      </trkpt>
      <trkpt lat="41.512460" lon="-5.384325">
        <ele>664.422</ele>
        <time>2017-09-19T16:58:56Z</time>
      </trkpt>
      <trkpt lat="41.512409" lon="-5.384316">
        <ele>663.986</ele>
        <time>2017-09-19T16:59:11Z</time>
      </trkpt>
      <trkpt lat="41.512401" lon="-5.384297">
        <ele>662.964</ele>
        <time>2017-09-19T16:59:35Z</time>
      </trkpt>
      <trkpt lat="41.512402" lon="-5.384308">
        <ele>662.023</ele>
        <time>2017-09-19T17:00:12Z</time>
      </trkpt>
      <trkpt lat="41.512391" lon="-5.384309">
        <ele>663.453</ele>
        <time>2017-09-19T17:00:47Z</time>
      </trkpt>
      <trkpt lat="41.512411" lon="-5.384301">
        <ele>663.425</ele>
        <time>2017-09-19T17:01:15Z</time>
      </trkpt>
      <trkpt lat="41.512413" lon="-5.384315">
        <ele>662.463</ele>
        <time>2017-09-19T17:01:47Z</time>
      </trkpt>
      <trkpt lat="41.512418" lon="-5.384308">
        <ele>662.044</ele>
        <time>2017-09-19T17:02:19Z</time>
      </trkpt>
      <trkpt lat="41.512413" lon="-5.384307">
        <ele>662.418</ele>
        <time>2017-09-19T17:02:41Z</time>
      </trkpt>
      <trkpt lat="41.512405" lon="-5.384314">
        <ele>662.908</ele>
        <time>2017-09-19T17:03:15Z</time>
      </trkpt>
      <trkpt lat="41.512402" lon="-5.384314">
        <ele>662.057</ele>
        <time>2017-09-19T17:03:56Z</time>
      </trkpt>
      <trkpt lat="41.512406" lon="-5.384322">
        <ele>662.025</ele>
        <time>2017-09-19T17:04:30Z</time>
      </trkpt>
      <trkpt lat="41.512395" lon="-5.384318">
        <ele>662.035</ele>
        <time>2017-09-19T17:05:13Z</time>
      </trkpt>
      <trkpt lat="41.512407" lon="-5.384314">
        <ele>661.049</ele>
        <time>2017-09-19T17:05:43Z</time>
      </trkpt>
      <trkpt lat="41.512395" lon="-5.384286">
        <ele>661.597</ele>
        <time>2017-09-19T17:06:27Z</time>
      </trkpt>
      <trkpt lat="41.512415" lon="-5.384292">
        <ele>661.566</ele>
        <time>2017-09-19T17:07:10Z</time>
      </trkpt>
      <trkpt lat="41.512439" lon="-5.384318">
        <ele>660.096</ele>
        <time>2017-09-19T17:07:58Z</time>
      </trkpt>
      <trkpt lat="41.512431" lon="-5.384317">
        <ele>661.078</ele>
        <time>2017-09-19T17:08:35Z</time>
      </trkpt>
      <trkpt lat="41.512411" lon="-5.384309">
        <ele>662.998</ele>
        <time>2017-09-19T17:09:16Z</time>
      </trkpt>
      <trkpt lat="41.512433" lon="-5.384293">
        <ele>662.915</ele>
        <time>2017-09-19T17:09:55Z</time>
      </trkpt>
      <trkpt lat="41.512451" lon="-5.384270">
        <ele>664.826</ele>
        <time>2017-09-19T17:10:44Z</time>
      </trkpt>
      <trkpt lat="41.512435" lon="-5.384242">
        <ele>665.308</ele>
        <time>2017-09-19T17:11:27Z</time>
      </trkpt>
      <trkpt lat="41.512413" lon="-5.384272">
        <ele>665.380</ele>
        <time>2017-09-19T17:12:18Z</time>
      </trkpt>
      <trkpt lat="41.512419" lon="-5.384284">
        <ele>665.338</ele>
        <time>2017-09-19T17:12:58Z</time>
      </trkpt>
      <trkpt lat="41.512417" lon="-5.384286">
        <ele>665.858</ele>
        <time>2017-09-19T17:13:41Z</time>
      </trkpt>
      <trkpt lat="41.512422" lon="-5.384308">
        <ele>665.832</ele>
        <time>2017-09-19T17:14:24Z</time>
      </trkpt>
      <trkpt lat="41.512427" lon="-5.384310">
        <ele>665.340</ele>
        <time>2017-09-19T17:14:58Z</time>
      </trkpt>
      <trkpt lat="41.512418" lon="-5.384300">
        <ele>664.859</ele>
        <time>2017-09-19T17:15:29Z</time>
      </trkpt>
      <trkpt lat="41.512405" lon="-5.384310">
        <ele>663.959</ele>
        <time>2017-09-19T17:16:06Z</time>
      </trkpt>
      <trkpt lat="41.512415" lon="-5.384316">
        <ele>662.931</ele>
        <time>2017-09-19T17:16:35Z</time>
      </trkpt>
      <trkpt lat="41.512424" lon="-5.384322">
        <ele>662.418</ele>
        <time>2017-09-19T17:17:03Z</time>
      </trkpt>
      <trkpt lat="41.512426" lon="-5.384323">
        <ele>660.598</ele>
        <time>2017-09-19T17:17:23Z</time>
      </trkpt>
      <trkpt lat="41.512427" lon="-5.384329">
        <ele>659.117</ele>
        <time>2017-09-19T17:17:53Z</time>
      </trkpt>
      <trkpt lat="41.512426" lon="-5.384331">
        <ele>658.608</ele>
        <time>2017-09-19T17:18:23Z</time>
      </trkpt>
      <trkpt lat="41.512443" lon="-5.384346">
        <ele>656.232</ele>
        <time>2017-09-19T17:19:03Z</time>
      </trkpt>
      <trkpt lat="41.512443" lon="-5.384335">
        <ele>656.240</ele>
        <time>2017-09-19T17:19:48Z</time>
      </trkpt>
      <trkpt lat="41.512456" lon="-5.384341">
        <ele>655.240</ele>
        <time>2017-09-19T17:20:22Z</time>
      </trkpt>
      <trkpt lat="41.512453" lon="-5.384341">
        <ele>656.264</ele>
        <time>2017-09-19T17:21:04Z</time>
      </trkpt>
      <trkpt lat="41.512442" lon="-5.384335">
        <ele>656.742</ele>
        <time>2017-09-19T17:21:42Z</time>
      </trkpt>
      <trkpt lat="41.512428" lon="-5.384326">
        <ele>657.261</ele>
        <time>2017-09-19T17:22:23Z</time>
      </trkpt>
      <trkpt lat="41.512426" lon="-5.384304">
        <ele>660.071</ele>
        <time>2017-09-19T17:23:01Z</time>
      </trkpt>
      <trkpt lat="41.512449" lon="-5.384301">
        <ele>658.133</ele>
        <time>2017-09-19T17:23:44Z</time>
      </trkpt>
      <trkpt lat="41.512449" lon="-5.384310">
        <ele>657.636</ele>
        <time>2017-09-19T17:24:12Z</time>
      </trkpt>
      <trkpt lat="41.512490" lon="-5.384319">
        <ele>654.817</ele>
        <time>2017-09-20T07:11:54Z</time>
      </trkpt>
      <trkpt lat="41.512488" lon="-5.384338">
        <ele>655.718</ele>
        <time>2017-09-20T07:12:29Z</time>
      </trkpt>
      <trkpt lat="41.512492" lon="-5.384327">
        <ele>654.808</ele>
        <time>2017-09-20T07:12:53Z</time>
      </trkpt>
      <trkpt lat="41.512503" lon="-5.384328">
        <ele>654.824</ele>
        <time>2017-09-20T07:13:17Z</time>
      </trkpt>
      <trkpt lat="41.512514" lon="-5.384328">
        <ele>655.282</ele>
        <time>2017-09-20T07:13:21Z</time>
      </trkpt>
      <trkpt lat="41.512558" lon="-5.384309">
        <ele>657.212</ele>
        <time>2017-09-20T07:13:33Z</time>
      </trkpt>
      <trkpt lat="41.512561" lon="-5.384309">
        <ele>658.146</ele>
        <time>2017-09-20T07:13:39Z</time>
      </trkpt>
      <trkpt lat="41.512588" lon="-5.384346">
        <ele>658.144</ele>
        <time>2017-09-20T07:13:42Z</time>
      </trkpt>
      <trkpt lat="41.512917" lon="-5.384742">
        <ele>660.033</ele>
        <time>2017-09-20T07:13:57Z</time>
      </trkpt>
      <trkpt lat="41.513259" lon="-5.385261">
        <ele>661.523</ele>
        <time>2017-09-20T07:14:14Z</time>
      </trkpt>
      <trkpt lat="41.513449" lon="-5.385816">
        <ele>663.445</ele>
        <time>2017-09-20T07:14:30Z</time>
      </trkpt>
      <trkpt lat="41.513506" lon="-5.386505">
        <ele>662.066</ele>
        <time>2017-09-20T07:14:43Z</time>
      </trkpt>
      <trkpt lat="41.513567" lon="-5.386800">
        <ele>661.029</ele>
        <time>2017-09-20T07:14:48Z</time>
      </trkpt>
      <trkpt lat="41.513574" lon="-5.386859">
        <ele>661.521</ele>
        <time>2017-09-20T07:14:49Z</time>
      </trkpt>
      <trkpt lat="41.513527" lon="-5.387694">
        <ele>662.908</ele>
        <time>2017-09-20T07:15:05Z</time>
      </trkpt>
      <trkpt lat="41.513419" lon="-5.388534">
        <ele>663.987</ele>
        <time>2017-09-20T07:15:23Z</time>
      </trkpt>
      <trkpt lat="41.513495" lon="-5.389116">
        <ele>664.835</ele>
        <time>2017-09-20T07:15:37Z</time>
      </trkpt>
      <trkpt lat="41.513474" lon="-5.389160">
        <ele>664.825</ele>
        <time>2017-09-20T07:15:38Z</time>
      </trkpt>
      <trkpt lat="41.513443" lon="-5.389195">
        <ele>664.819</ele>
        <time>2017-09-20T07:15:39Z</time>
      </trkpt>
      <trkpt lat="41.513407" lon="-5.389225">
        <ele>664.437</ele>
        <time>2017-09-20T07:15:40Z</time>
      </trkpt>
      <trkpt lat="41.513364" lon="-5.389255">
        <ele>663.996</ele>
        <time>2017-09-20T07:15:41Z</time>
      </trkpt>
      <trkpt lat="41.513317" lon="-5.389284">
        <ele>663.996</ele>
        <time>2017-09-20T07:15:42Z</time>
      </trkpt>
      <trkpt lat="41.512529" lon="-5.389776">
        <ele>661.548</ele>
        <time>2017-09-20T07:15:58Z</time>
      </trkpt>
      <trkpt lat="41.511542" lon="-5.390402">
        <ele>655.797</ele>
        <time>2017-09-20T07:16:13Z</time>
      </trkpt>
      <trkpt lat="41.510249" lon="-5.391374">
        <ele>648.023</ele>
        <time>2017-09-20T07:16:29Z</time>
      </trkpt>
      <trkpt lat="41.509562" lon="-5.392084">
        <ele>649.525</ele>
        <time>2017-09-20T07:16:41Z</time>
      </trkpt>
      <trkpt lat="41.508872" lon="-5.392945">
        <ele>650.908</ele>
        <time>2017-09-20T07:16:57Z</time>
      </trkpt>
      <trkpt lat="41.508561" lon="-5.394026">
        <ele>651.470</ele>
        <time>2017-09-20T07:17:13Z</time>
      </trkpt>
      <trkpt lat="41.508553" lon="-5.394258">
        <ele>651.458</ele>
        <time>2017-09-20T07:17:22Z</time>
      </trkpt>
      <trkpt lat="41.508558" lon="-5.394244">
        <ele>651.448</ele>
        <time>2017-09-20T07:17:47Z</time>
      </trkpt>
      <trkpt lat="41.508540" lon="-5.394274">
        <ele>652.872</ele>
        <time>2017-09-20T07:18:12Z</time>
      </trkpt>
      <trkpt lat="41.508519" lon="-5.394289">
        <ele>652.360</ele>
        <time>2017-09-20T07:18:14Z</time>
      </trkpt>
      <trkpt lat="41.508490" lon="-5.394268">
        <ele>652.379</ele>
        <time>2017-09-20T07:18:16Z</time>
      </trkpt>
      <trkpt lat="41.508487" lon="-5.394236">
        <ele>652.349</ele>
        <time>2017-09-20T07:18:17Z</time>
      </trkpt>
      <trkpt lat="41.508489" lon="-5.394204">
        <ele>652.371</ele>
        <time>2017-09-20T07:18:18Z</time>
      </trkpt>
      <trkpt lat="41.508493" lon="-5.394167">
        <ele>652.321</ele>
        <time>2017-09-20T07:18:19Z</time>
      </trkpt>
      <trkpt lat="41.508570" lon="-5.393610">
        <ele>651.941</ele>
        <time>2017-09-20T07:18:32Z</time>
      </trkpt>
      <trkpt lat="41.508957" lon="-5.392706">
        <ele>651.405</ele>
        <time>2017-09-20T07:18:50Z</time>
      </trkpt>
      <trkpt lat="41.509519" lon="-5.392049">
        <ele>650.908</ele>
        <time>2017-09-20T07:19:07Z</time>
      </trkpt>
      <trkpt lat="41.510063" lon="-5.391403">
        <ele>650.473</ele>
        <time>2017-09-20T07:19:24Z</time>
      </trkpt>
      <trkpt lat="41.510212" lon="-5.391208">
        <ele>650.421</ele>
        <time>2017-09-20T07:19:30Z</time>
      </trkpt>
      <trkpt lat="41.510251" lon="-5.391259">
        <ele>650.961</ele>
        <time>2017-09-20T07:19:37Z</time>
      </trkpt>
      <trkpt lat="41.510241" lon="-5.391305">
        <ele>650.475</ele>
        <time>2017-09-20T07:19:39Z</time>
      </trkpt>
      <trkpt lat="41.510228" lon="-5.391343">
        <ele>650.943</ele>
        <time>2017-09-20T07:19:40Z</time>
      </trkpt>
      <trkpt lat="41.510210" lon="-5.391375">
        <ele>650.942</ele>
        <time>2017-09-20T07:19:41Z</time>
      </trkpt>
      <trkpt lat="41.510184" lon="-5.391411">
        <ele>650.942</ele>
        <time>2017-09-20T07:19:42Z</time>
      </trkpt>
      <trkpt lat="41.510155" lon="-5.391445">
        <ele>650.974</ele>
        <time>2017-09-20T07:19:43Z</time>
      </trkpt>
      <trkpt lat="41.509939" lon="-5.391676">
        <ele>650.928</ele>
        <time>2017-09-20T07:19:50Z</time>
      </trkpt>
      <trkpt lat="41.509912" lon="-5.391715">
        <ele>650.989</ele>
        <time>2017-09-20T07:19:51Z</time>
      </trkpt>
      <trkpt lat="41.509881" lon="-5.391754">
        <ele>650.917</ele>
        <time>2017-09-20T07:19:52Z</time>
      </trkpt>
      <trkpt lat="41.509849" lon="-5.391790">
        <ele>650.908</ele>
        <time>2017-09-20T07:19:53Z</time>
      </trkpt>
      <trkpt lat="41.509816" lon="-5.391822">
        <ele>650.983</ele>
        <time>2017-09-20T07:19:54Z</time>
      </trkpt>
      <trkpt lat="41.509190" lon="-5.392503">
        <ele>651.431</ele>
        <time>2017-09-20T07:20:10Z</time>
      </trkpt>
      <trkpt lat="41.508655" lon="-5.393537">
        <ele>651.461</ele>
        <time>2017-09-20T07:20:27Z</time>
      </trkpt>
      <trkpt lat="41.508444" lon="-5.394866">
        <ele>651.965</ele>
        <time>2017-09-20T07:20:45Z</time>
      </trkpt>
      <trkpt lat="41.508327" lon="-5.395865">
        <ele>653.373</ele>
        <time>2017-09-20T07:21:01Z</time>
      </trkpt>
      <trkpt lat="41.508221" lon="-5.396728">
        <ele>656.222</ele>
        <time>2017-09-20T07:21:20Z</time>
      </trkpt>
      <trkpt lat="41.508128" lon="-5.397505">
        <ele>657.692</ele>
        <time>2017-09-20T07:21:38Z</time>
      </trkpt>
      <trkpt lat="41.508092" lon="-5.397865">
        <ele>658.674</ele>
        <time>2017-09-20T07:21:50Z</time>
      </trkpt>
      <trkpt lat="41.508088" lon="-5.397870">
        <ele>658.183</ele>
        <time>2017-09-20T07:21:54Z</time>
      </trkpt>
      <trkpt lat="41.508080" lon="-5.397887">
        <ele>658.125</ele>
        <time>2017-09-20T07:21:55Z</time>
      </trkpt>
      <trkpt lat="41.508073" lon="-5.397913">
        <ele>658.617</ele>
        <time>2017-09-20T07:21:56Z</time>
      </trkpt>
      <trkpt lat="41.508007" lon="-5.398443">
        <ele>659.108</ele>
        <time>2017-09-20T07:22:07Z</time>
      </trkpt>
      <trkpt lat="41.507840" lon="-5.399860">
        <ele>657.249</ele>
        <time>2017-09-20T07:22:27Z</time>
      </trkpt>
      <trkpt lat="41.507591" lon="-5.401465">
        <ele>652.837</ele>
        <time>2017-09-20T07:22:46Z</time>
      </trkpt>
      <trkpt lat="41.507411" lon="-5.402419">
        <ele>652.817</ele>
        <time>2017-09-20T07:22:59Z</time>
      </trkpt>
      <trkpt lat="41.507110" lon="-5.403359">
        <ele>652.881</ele>
        <time>2017-09-20T07:23:14Z</time>
      </trkpt>
      <trkpt lat="41.507021" lon="-5.404487">
        <ele>653.389</ele>
        <time>2017-09-20T07:23:31Z</time>
      </trkpt>
      <trkpt lat="41.506835" lon="-5.405527">
        <ele>652.878</ele>
        <time>2017-09-20T07:23:48Z</time>
      </trkpt>
      <trkpt lat="41.506495" lon="-5.406366">
        <ele>651.918</ele>
        <time>2017-09-20T07:24:04Z</time>
      </trkpt>
      <trkpt lat="41.506491" lon="-5.406429">
        <ele>651.910</ele>
        <time>2017-09-20T07:24:05Z</time>
      </trkpt>
      <trkpt lat="41.506492" lon="-5.406490">
        <ele>651.936</ele>
        <time>2017-09-20T07:24:06Z</time>
      </trkpt>
      <trkpt lat="41.506503" lon="-5.406567">
        <ele>651.917</ele>
        <time>2017-09-20T07:24:07Z</time>
      </trkpt>
      <trkpt lat="41.506515" lon="-5.406629">
        <ele>651.918</ele>
        <time>2017-09-20T07:24:08Z</time>
      </trkpt>
      <trkpt lat="41.506546" lon="-5.406717">
        <ele>651.908</ele>
        <time>2017-09-20T07:24:10Z</time>
      </trkpt>
      <trkpt lat="41.506570" lon="-5.406768">
        <ele>652.334</ele>
        <time>2017-09-20T07:24:11Z</time>
      </trkpt>
      <trkpt lat="41.506600" lon="-5.406817">
        <ele>652.322</ele>
        <time>2017-09-20T07:24:12Z</time>
      </trkpt>
      <trkpt lat="41.506664" lon="-5.406904">
        <ele>652.372</ele>
        <time>2017-09-20T07:24:14Z</time>
      </trkpt>
      <trkpt lat="41.507404" lon="-5.407685">
        <ele>650.916</ele>
        <time>2017-09-20T07:24:33Z</time>
      </trkpt>
      <trkpt lat="41.508272" lon="-5.408575">
        <ele>649.984</ele>
        <time>2017-09-20T07:24:53Z</time>
      </trkpt>
      <trkpt lat="41.509252" lon="-5.409583">
        <ele>649.973</ele>
        <time>2017-09-20T07:25:15Z</time>
      </trkpt>
      <trkpt lat="41.509723" lon="-5.410005">
        <ele>650.413</ele>
        <time>2017-09-20T07:25:30Z</time>
      </trkpt>
      <trkpt lat="41.509737" lon="-5.410044">
        <ele>651.455</ele>
        <time>2017-09-20T07:25:40Z</time>
      </trkpt>
      <trkpt lat="41.509736" lon="-5.410079">
        <ele>651.942</ele>
        <time>2017-09-20T07:25:42Z</time>
      </trkpt>
      <trkpt lat="41.509728" lon="-5.410108">
        <ele>651.922</ele>
        <time>2017-09-20T07:25:43Z</time>
      </trkpt>
      <trkpt lat="41.509715" lon="-5.410129">
        <ele>651.914</ele>
        <time>2017-09-20T07:25:44Z</time>
      </trkpt>
      <trkpt lat="41.509699" lon="-5.410150">
        <ele>651.908</ele>
        <time>2017-09-20T07:25:45Z</time>
      </trkpt>
      <trkpt lat="41.509578" lon="-5.410522">
        <ele>650.955</ele>
        <time>2017-09-20T07:25:54Z</time>
      </trkpt>
      <trkpt lat="41.509445" lon="-5.411115">
        <ele>651.413</ele>
        <time>2017-09-20T07:26:10Z</time>
      </trkpt>
      <trkpt lat="41.509287" lon="-5.411673">
        <ele>651.933</ele>
        <time>2017-09-20T07:26:25Z</time>
      </trkpt>
      <trkpt lat="41.509107" lon="-5.412267">
        <ele>652.337</ele>
        <time>2017-09-20T07:26:40Z</time>
      </trkpt>
      <trkpt lat="41.508932" lon="-5.412854">
        <ele>652.825</ele>
        <time>2017-09-20T07:26:54Z</time>
      </trkpt>
      <trkpt lat="41.508668" lon="-5.413721">
        <ele>652.894</ele>
        <time>2017-09-20T07:27:13Z</time>
      </trkpt>
      <trkpt lat="41.508434" lon="-5.414519">
        <ele>652.334</ele>
        <time>2017-09-20T07:27:30Z</time>
      </trkpt>
      <trkpt lat="41.508179" lon="-5.415353">
        <ele>651.936</ele>
        <time>2017-09-20T07:27:48Z</time>
      </trkpt>
      <trkpt lat="41.508147" lon="-5.415505">
        <ele>651.936</ele>
        <time>2017-09-20T07:27:54Z</time>
      </trkpt>
      <trkpt lat="41.508157" lon="-5.415512">
        <ele>651.917</ele>
        <time>2017-09-20T07:27:55Z</time>
      </trkpt>
      <trkpt lat="41.508427" lon="-5.415716">
        <ele>650.918</ele>
        <time>2017-09-20T07:28:06Z</time>
      </trkpt>
      <trkpt lat="41.508811" lon="-5.416102">
        <ele>649.908</ele>
        <time>2017-09-20T07:28:21Z</time>
      </trkpt>
      <trkpt lat="41.509368" lon="-5.416647">
        <ele>649.534</ele>
        <time>2017-09-20T07:28:39Z</time>
      </trkpt>
      <trkpt lat="41.509769" lon="-5.417034">
        <ele>648.592</ele>
        <time>2017-09-20T07:28:54Z</time>
      </trkpt>
      <trkpt lat="41.509975" lon="-5.417513">
        <ele>649.532</ele>
        <time>2017-09-20T07:29:07Z</time>
      </trkpt>
      <trkpt lat="41.509811" lon="-5.418200">
        <ele>651.446</ele>
        <time>2017-09-20T07:29:22Z</time>
      </trkpt>
      <trkpt lat="41.509615" lon="-5.419019">
        <ele>651.944</ele>
        <time>2017-09-20T07:29:39Z</time>
      </trkpt>
      <trkpt lat="41.509465" lon="-5.419668">
        <ele>652.343</ele>
        <time>2017-09-20T07:29:54Z</time>
      </trkpt>
      <trkpt lat="41.509346" lon="-5.420144">
        <ele>652.313</ele>
        <time>2017-09-20T07:30:08Z</time>
      </trkpt>
      <trkpt lat="41.509176" lon="-5.420795">
        <ele>650.925</ele>
        <time>2017-09-20T07:30:24Z</time>
      </trkpt>
      <trkpt lat="41.509063" lon="-5.421331">
        <ele>651.989</ele>
        <time>2017-09-20T07:30:36Z</time>
      </trkpt>
      <trkpt lat="41.508910" lon="-5.421940">
        <ele>652.306</ele>
        <time>2017-09-20T07:30:50Z</time>
      </trkpt>
      <trkpt lat="41.508773" lon="-5.422585">
        <ele>654.826</ele>
        <time>2017-09-20T07:31:07Z</time>
      </trkpt>
      <trkpt lat="41.508669" lon="-5.423072">
        <ele>654.808</ele>
        <time>2017-09-20T07:31:20Z</time>
      </trkpt>
      <trkpt lat="41.508523" lon="-5.423744">
        <ele>653.829</ele>
        <time>2017-09-20T07:31:37Z</time>
      </trkpt>
      <trkpt lat="41.508362" lon="-5.424340">
        <ele>652.897</ele>
        <time>2017-09-20T07:31:53Z</time>
      </trkpt>
      <trkpt lat="41.508172" lon="-5.425052">
        <ele>653.367</ele>
        <time>2017-09-20T07:32:11Z</time>
      </trkpt>
      <trkpt lat="41.507946" lon="-5.425742">
        <ele>652.821</ele>
        <time>2017-09-20T07:32:29Z</time>
      </trkpt>
      <trkpt lat="41.507736" lon="-5.426417">
        <ele>652.879</ele>
        <time>2017-09-20T07:32:46Z</time>
      </trkpt>
      <trkpt lat="41.507533" lon="-5.427152">
        <ele>652.338</ele>
        <time>2017-09-20T07:33:03Z</time>
      </trkpt>
      <trkpt lat="41.507314" lon="-5.427938">
        <ele>652.898</ele>
        <time>2017-09-20T07:33:21Z</time>
      </trkpt>
      <trkpt lat="41.507104" lon="-5.428696">
        <ele>652.320</ele>
        <time>2017-09-20T07:33:38Z</time>
      </trkpt>
      <trkpt lat="41.506938" lon="-5.429395">
        <ele>652.868</ele>
        <time>2017-09-20T07:33:54Z</time>
      </trkpt>
      <trkpt lat="41.506789" lon="-5.430122">
        <ele>653.342</ele>
        <time>2017-09-20T07:34:11Z</time>
      </trkpt>
      <trkpt lat="41.506597" lon="-5.431096">
        <ele>653.326</ele>
        <time>2017-09-20T07:34:30Z</time>
      </trkpt>
      <trkpt lat="41.506376" lon="-5.432165">
        <ele>653.808</ele>
        <time>2017-09-20T07:34:51Z</time>
      </trkpt>
      <trkpt lat="41.506150" lon="-5.433050">
        <ele>653.877</ele>
        <time>2017-09-20T07:35:09Z</time>
      </trkpt>
      <trkpt lat="41.505919" lon="-5.433777">
        <ele>653.385</ele>
        <time>2017-09-20T07:35:25Z</time>
      </trkpt>
      <trkpt lat="41.505756" lon="-5.434354">
        <ele>652.315</ele>
        <time>2017-09-20T07:35:38Z</time>
      </trkpt>
      <trkpt lat="41.505544" lon="-5.435110">
        <ele>651.949</ele>
        <time>2017-09-20T07:35:55Z</time>
      </trkpt>
      <trkpt lat="41.505333" lon="-5.435869">
        <ele>651.477</ele>
        <time>2017-09-20T07:36:11Z</time>
      </trkpt>
      <trkpt lat="41.505106" lon="-5.436626">
        <ele>650.916</ele>
        <time>2017-09-20T07:36:27Z</time>
      </trkpt>
      <trkpt lat="41.504860" lon="-5.437485">
        <ele>649.936</ele>
        <time>2017-09-20T07:36:45Z</time>
      </trkpt>
      <trkpt lat="41.504685" lon="-5.438043">
        <ele>649.578</ele>
        <time>2017-09-20T07:36:58Z</time>
      </trkpt>
      <trkpt lat="41.504412" lon="-5.438846">
        <ele>649.549</ele>
        <time>2017-09-20T07:37:18Z</time>
      </trkpt>
      <trkpt lat="41.504186" lon="-5.439505">
        <ele>649.502</ele>
        <time>2017-09-20T07:37:35Z</time>
      </trkpt>
      <trkpt lat="41.503918" lon="-5.440252">
        <ele>649.522</ele>
        <time>2017-09-20T07:37:54Z</time>
      </trkpt>
      <trkpt lat="41.503688" lon="-5.440939">
        <ele>649.008</ele>
        <time>2017-09-20T07:38:11Z</time>
      </trkpt>
      <trkpt lat="41.503512" lon="-5.441429">
        <ele>649.045</ele>
        <time>2017-09-20T07:38:24Z</time>
      </trkpt>
      <trkpt lat="41.503271" lon="-5.442070">
        <ele>649.013</ele>
        <time>2017-09-20T07:38:41Z</time>
      </trkpt>
      <trkpt lat="41.502998" lon="-5.442615">
        <ele>648.583</ele>
        <time>2017-09-20T07:38:57Z</time>
      </trkpt>
      <trkpt lat="41.502871" lon="-5.442900">
        <ele>648.077</ele>
        <time>2017-09-20T07:39:09Z</time>
      </trkpt>
      <trkpt lat="41.502643" lon="-5.443373">
        <ele>648.025</ele>
        <time>2017-09-20T07:39:22Z</time>
      </trkpt>
      <trkpt lat="41.502476" lon="-5.444074">
        <ele>649.014</ele>
        <time>2017-09-20T07:39:38Z</time>
      </trkpt>
      <trkpt lat="41.502260" lon="-5.444995">
        <ele>649.084</ele>
        <time>2017-09-20T07:39:58Z</time>
      </trkpt>
      <trkpt lat="41.502148" lon="-5.445512">
        <ele>648.536</ele>
        <time>2017-09-20T07:40:11Z</time>
      </trkpt>
      <trkpt lat="41.501941" lon="-5.446402">
        <ele>649.069</ele>
        <time>2017-09-20T07:40:32Z</time>
      </trkpt>
      <trkpt lat="41.501778" lon="-5.447104">
        <ele>649.504</ele>
        <time>2017-09-20T07:40:49Z</time>
      </trkpt>
      <trkpt lat="41.501608" lon="-5.447828">
        <ele>649.024</ele>
        <time>2017-09-20T07:41:07Z</time>
      </trkpt>
      <trkpt lat="41.501472" lon="-5.448429">
        <ele>649.508</ele>
        <time>2017-09-20T07:41:21Z</time>
      </trkpt>
      <trkpt lat="41.501365" lon="-5.449047">
        <ele>649.947</ele>
        <time>2017-09-20T07:41:35Z</time>
      </trkpt>
      <trkpt lat="41.501213" lon="-5.449752">
        <ele>649.595</ele>
        <time>2017-09-20T07:41:53Z</time>
      </trkpt>
      <trkpt lat="41.501095" lon="-5.450506">
        <ele>649.515</ele>
        <time>2017-09-20T07:42:10Z</time>
      </trkpt>
      <trkpt lat="41.500947" lon="-5.451288">
        <ele>649.099</ele>
        <time>2017-09-20T07:42:27Z</time>
      </trkpt>
      <trkpt lat="41.500790" lon="-5.452040">
        <ele>649.037</ele>
        <time>2017-09-20T07:42:44Z</time>
      </trkpt>
      <trkpt lat="41.500727" lon="-5.452512">
        <ele>649.036</ele>
        <time>2017-09-20T07:42:56Z</time>
      </trkpt>
      <trkpt lat="41.500585" lon="-5.453194">
        <ele>649.536</ele>
        <time>2017-09-20T07:43:14Z</time>
      </trkpt>
      <trkpt lat="41.500656" lon="-5.453567">
        <ele>649.048</ele>
        <time>2017-09-20T07:43:25Z</time>
      </trkpt>
      <trkpt lat="41.500749" lon="-5.454029">
        <ele>648.078</ele>
        <time>2017-09-20T07:43:38Z</time>
      </trkpt>
      <trkpt lat="41.500652" lon="-5.454687">
        <ele>650.933</ele>
        <time>2017-09-20T07:43:54Z</time>
      </trkpt>
      <trkpt lat="41.500559" lon="-5.455408">
        <ele>654.826</ele>
        <time>2017-09-20T07:44:11Z</time>
      </trkpt>
      <trkpt lat="41.500464" lon="-5.456067">
        <ele>656.208</ele>
        <time>2017-09-20T07:44:26Z</time>
      </trkpt>
      <trkpt lat="41.500356" lon="-5.456574">
        <ele>657.298</ele>
        <time>2017-09-20T07:44:38Z</time>
      </trkpt>
      <trkpt lat="41.500197" lon="-5.457356">
        <ele>656.276</ele>
        <time>2017-09-20T07:44:56Z</time>
      </trkpt>
      <trkpt lat="41.500096" lon="-5.457857">
        <ele>654.326</ele>
        <time>2017-09-20T07:45:09Z</time>
      </trkpt>
      <trkpt lat="41.499965" lon="-5.458436">
        <ele>652.390</ele>
        <time>2017-09-20T07:45:24Z</time>
      </trkpt>
      <trkpt lat="41.499796" lon="-5.459203">
        <ele>651.478</ele>
        <time>2017-09-20T07:45:42Z</time>
      </trkpt>
      <trkpt lat="41.499704" lon="-5.459794">
        <ele>651.447</ele>
        <time>2017-09-20T07:45:56Z</time>
      </trkpt>
      <trkpt lat="41.499587" lon="-5.460416">
        <ele>650.427</ele>
        <time>2017-09-20T07:46:11Z</time>
      </trkpt>
      <trkpt lat="41.499446" lon="-5.461032">
        <ele>649.549</ele>
        <time>2017-09-20T07:46:27Z</time>
      </trkpt>
      <trkpt lat="41.499304" lon="-5.461674">
        <ele>649.541</ele>
        <time>2017-09-20T07:46:43Z</time>
      </trkpt>
      <trkpt lat="41.499137" lon="-5.462225">
        <ele>649.581</ele>
        <time>2017-09-20T07:46:59Z</time>
      </trkpt>
      <trkpt lat="41.498940" lon="-5.462947">
        <ele>648.009</ele>
        <time>2017-09-20T07:47:17Z</time>
      </trkpt>
      <trkpt lat="41.498746" lon="-5.463574">
        <ele>646.608</ele>
        <time>2017-09-20T07:47:33Z</time>
      </trkpt>
      <trkpt lat="41.498577" lon="-5.464168">
        <ele>646.115</ele>
        <time>2017-09-20T07:47:48Z</time>
      </trkpt>
      <trkpt lat="41.498438" lon="-5.464792">
        <ele>646.113</ele>
        <time>2017-09-20T07:48:04Z</time>
      </trkpt>
      <trkpt lat="41.498388" lon="-5.465299">
        <ele>645.623</ele>
        <time>2017-09-20T07:48:17Z</time>
      </trkpt>
      <trkpt lat="41.498107" lon="-5.465722">
        <ele>647.197</ele>
        <time>2017-09-20T07:48:31Z</time>
      </trkpt>
      <trkpt lat="41.497870" lon="-5.466421">
        <ele>646.695</ele>
        <time>2017-09-20T07:48:49Z</time>
      </trkpt>
      <trkpt lat="41.497702" lon="-5.466974">
        <ele>645.654</ele>
        <time>2017-09-20T07:49:03Z</time>
      </trkpt>
      <trkpt lat="41.497470" lon="-5.467758">
        <ele>645.664</ele>
        <time>2017-09-20T07:49:23Z</time>
      </trkpt>
      <trkpt lat="41.497246" lon="-5.468425">
        <ele>645.146</ele>
        <time>2017-09-20T07:49:41Z</time>
      </trkpt>
      <trkpt lat="41.497064" lon="-5.469073">
        <ele>645.651</ele>
        <time>2017-09-20T07:49:58Z</time>
      </trkpt>
      <trkpt lat="41.496896" lon="-5.469773">
        <ele>646.601</ele>
        <time>2017-09-20T07:50:16Z</time>
      </trkpt>
      <trkpt lat="41.496750" lon="-5.470317">
        <ele>647.511</ele>
        <time>2017-09-20T07:50:31Z</time>
      </trkpt>
      <trkpt lat="41.496611" lon="-5.471055">
        <ele>648.008</ele>
        <time>2017-09-20T07:50:49Z</time>
      </trkpt>
      <trkpt lat="41.496521" lon="-5.471823">
        <ele>649.026</ele>
        <time>2017-09-20T07:51:06Z</time>
      </trkpt>
      <trkpt lat="41.496421" lon="-5.472397">
        <ele>649.574</ele>
        <time>2017-09-20T07:51:19Z</time>
      </trkpt>
      <trkpt lat="41.496298" lon="-5.473094">
        <ele>648.594</ele>
        <time>2017-09-20T07:51:34Z</time>
      </trkpt>
      <trkpt lat="41.496118" lon="-5.474095">
        <ele>648.038</ele>
        <time>2017-09-20T07:51:55Z</time>
      </trkpt>
      <trkpt lat="41.495986" lon="-5.474898">
        <ele>649.066</ele>
        <time>2017-09-20T07:52:12Z</time>
      </trkpt>
      <trkpt lat="41.495844" lon="-5.475656">
        <ele>649.035</ele>
        <time>2017-09-20T07:52:29Z</time>
      </trkpt>
      <trkpt lat="41.495734" lon="-5.476323">
        <ele>648.045</ele>
        <time>2017-09-20T07:52:44Z</time>
      </trkpt>
      <trkpt lat="41.495608" lon="-5.477125">
        <ele>648.067</ele>
        <time>2017-09-20T07:53:02Z</time>
      </trkpt>
      <trkpt lat="41.495492" lon="-5.477711">
        <ele>647.592</ele>
        <time>2017-09-20T07:53:16Z</time>
      </trkpt>
      <trkpt lat="41.495342" lon="-5.478388">
        <ele>647.573</ele>
        <time>2017-09-20T07:53:32Z</time>
      </trkpt>
      <trkpt lat="41.495197" lon="-5.479045">
        <ele>647.120</ele>
        <time>2017-09-20T07:53:48Z</time>
      </trkpt>
      <trkpt lat="41.495064" lon="-5.479648">
        <ele>648.008</ele>
        <time>2017-09-20T07:54:03Z</time>
      </trkpt>
      <trkpt lat="41.494942" lon="-5.480243">
        <ele>648.050</ele>
        <time>2017-09-20T07:54:18Z</time>
      </trkpt>
      <trkpt lat="41.494874" lon="-5.480645">
        <ele>647.558</ele>
        <time>2017-09-20T07:54:29Z</time>
      </trkpt>
      <trkpt lat="41.494754" lon="-5.481219">
        <ele>648.068</ele>
        <time>2017-09-20T07:54:44Z</time>
      </trkpt>
      <trkpt lat="41.494638" lon="-5.481761">
        <ele>648.092</ele>
        <time>2017-09-20T07:54:58Z</time>
      </trkpt>
      <trkpt lat="41.494510" lon="-5.482372">
        <ele>648.550</ele>
        <time>2017-09-20T07:55:14Z</time>
      </trkpt>
      <trkpt lat="41.494346" lon="-5.482987">
        <ele>648.029</ele>
        <time>2017-09-20T07:55:31Z</time>
      </trkpt>
      <trkpt lat="41.494258" lon="-5.483350">
        <ele>648.039</ele>
        <time>2017-09-20T07:55:43Z</time>
      </trkpt>
      <trkpt lat="41.494153" lon="-5.483947">
        <ele>649.031</ele>
        <time>2017-09-20T07:55:57Z</time>
      </trkpt>
      <trkpt lat="41.494023" lon="-5.484610">
        <ele>649.098</ele>
        <time>2017-09-20T07:56:12Z</time>
      </trkpt>
      <trkpt lat="41.493861" lon="-5.485349">
        <ele>654.315</ele>
        <time>2017-09-20T07:56:29Z</time>
      </trkpt>
      <trkpt lat="41.493731" lon="-5.486093">
        <ele>653.826</ele>
        <time>2017-09-20T07:56:44Z</time>
      </trkpt>
      <trkpt lat="41.493670" lon="-5.486871">
        <ele>652.808</ele>
        <time>2017-09-20T07:57:00Z</time>
      </trkpt>
      <trkpt lat="41.493618" lon="-5.487693">
        <ele>651.490</ele>
        <time>2017-09-20T07:57:17Z</time>
      </trkpt>
      <trkpt lat="41.493693" lon="-5.488509">
        <ele>646.168</ele>
        <time>2017-09-20T07:57:33Z</time>
      </trkpt>
      <trkpt lat="41.493798" lon="-5.489369">
        <ele>645.158</ele>
        <time>2017-09-20T07:57:50Z</time>
      </trkpt>
      <trkpt lat="41.493938" lon="-5.490176">
        <ele>645.122</ele>
        <time>2017-09-20T07:58:07Z</time>
      </trkpt>
      <trkpt lat="41.494194" lon="-5.491131">
        <ele>646.160</ele>
        <time>2017-09-20T07:58:28Z</time>
      </trkpt>
      <trkpt lat="41.494465" lon="-5.491837">
        <ele>646.199</ele>
        <time>2017-09-20T07:58:44Z</time>
      </trkpt>
      <trkpt lat="41.494813" lon="-5.492654">
        <ele>645.689</ele>
        <time>2017-09-20T07:59:03Z</time>
      </trkpt>
      <trkpt lat="41.495113" lon="-5.493401">
        <ele>645.681</ele>
        <time>2017-09-20T07:59:21Z</time>
      </trkpt>
      <trkpt lat="41.495222" lon="-5.494100">
        <ele>645.665</ele>
        <time>2017-09-20T07:59:36Z</time>
      </trkpt>
      <trkpt lat="41.495345" lon="-5.494886">
        <ele>645.668</ele>
        <time>2017-09-20T07:59:53Z</time>
      </trkpt>
      <trkpt lat="41.495457" lon="-5.495695">
        <ele>645.114</ele>
        <time>2017-09-20T08:00:11Z</time>
      </trkpt>
      <trkpt lat="41.495605" lon="-5.496459">
        <ele>646.108</ele>
        <time>2017-09-20T08:00:28Z</time>
      </trkpt>
      <trkpt lat="41.495829" lon="-5.497162">
        <ele>645.687</ele>
        <time>2017-09-20T08:00:44Z</time>
      </trkpt>
      <trkpt lat="41.496071" lon="-5.497899">
        <ele>645.655</ele>
        <time>2017-09-20T08:01:01Z</time>
      </trkpt>
      <trkpt lat="41.496415" lon="-5.498694">
        <ele>644.295</ele>
        <time>2017-09-20T08:01:20Z</time>
      </trkpt>
      <trkpt lat="41.496710" lon="-5.499388">
        <ele>644.299</ele>
        <time>2017-09-20T08:01:37Z</time>
      </trkpt>
      <trkpt lat="41.496873" lon="-5.499952">
        <ele>645.197</ele>
        <time>2017-09-20T08:01:51Z</time>
      </trkpt>
      <trkpt lat="41.497053" lon="-5.501010">
        <ele>644.796</ele>
        <time>2017-09-20T08:02:14Z</time>
      </trkpt>
      <trkpt lat="41.497234" lon="-5.502075">
        <ele>644.746</ele>
        <time>2017-09-20T08:02:37Z</time>
      </trkpt>
      <trkpt lat="41.497286" lon="-5.502773">
        <ele>644.218</ele>
        <time>2017-09-20T08:02:52Z</time>
      </trkpt>
      <trkpt lat="41.497319" lon="-5.503757">
        <ele>645.199</ele>
        <time>2017-09-20T08:03:14Z</time>
      </trkpt>
      <trkpt lat="41.497337" lon="-5.504205">
        <ele>644.707</ele>
        <time>2017-09-20T08:03:26Z</time>
      </trkpt>
      <trkpt lat="41.497435" lon="-5.504984">
        <ele>643.727</ele>
        <time>2017-09-20T08:03:44Z</time>
      </trkpt>
      <trkpt lat="41.497513" lon="-5.505574">
        <ele>643.708</ele>
        <time>2017-09-20T08:03:57Z</time>
      </trkpt>
      <trkpt lat="41.497648" lon="-5.506231">
        <ele>644.270</ele>
        <time>2017-09-20T08:04:12Z</time>
      </trkpt>
      <trkpt lat="41.497737" lon="-5.506951">
        <ele>643.748</ele>
        <time>2017-09-20T08:04:28Z</time>
      </trkpt>
      <trkpt lat="41.497790" lon="-5.507794">
        <ele>642.378</ele>
        <time>2017-09-20T08:04:47Z</time>
      </trkpt>
      <trkpt lat="41.497654" lon="-5.508104">
        <ele>643.232</ele>
        <time>2017-09-20T08:04:58Z</time>
      </trkpt>
      <trkpt lat="41.497275" lon="-5.508188">
        <ele>643.770</ele>
        <time>2017-09-20T08:05:11Z</time>
      </trkpt>
      <trkpt lat="41.496915" lon="-5.508291">
        <ele>643.269</ele>
        <time>2017-09-20T08:05:24Z</time>
      </trkpt>
      <trkpt lat="41.496466" lon="-5.508416">
        <ele>642.779</ele>
        <time>2017-09-20T08:05:40Z</time>
      </trkpt>
      <trkpt lat="41.496133" lon="-5.508517">
        <ele>642.731</ele>
        <time>2017-09-20T08:05:53Z</time>
      </trkpt>
      <trkpt lat="41.496124" lon="-5.508537">
        <ele>642.794</ele>
        <time>2017-09-20T08:05:54Z</time>
      </trkpt>
      <trkpt lat="41.496116" lon="-5.508563">
        <ele>642.757</ele>
        <time>2017-09-20T08:05:55Z</time>
      </trkpt>
      <trkpt lat="41.496034" lon="-5.508993">
        <ele>643.222</ele>
        <time>2017-09-20T08:06:08Z</time>
      </trkpt>
      <trkpt lat="41.495948" lon="-5.509534">
        <ele>644.208</ele>
        <time>2017-09-20T08:06:22Z</time>
      </trkpt>
      <trkpt lat="41.495833" lon="-5.510049">
        <ele>643.710</ele>
        <time>2017-09-20T08:06:37Z</time>
      </trkpt>
      <trkpt lat="41.495780" lon="-5.510309">
        <ele>643.218</ele>
        <time>2017-09-20T08:06:48Z</time>
      </trkpt>
      <trkpt lat="41.495682" lon="-5.510719">
        <ele>643.258</ele>
        <time>2017-09-20T08:07:01Z</time>
      </trkpt>
      <trkpt lat="41.495595" lon="-5.511181">
        <ele>644.262</ele>
        <time>2017-09-20T08:07:15Z</time>
      </trkpt>
      <trkpt lat="41.495479" lon="-5.511819">
        <ele>644.260</ele>
        <time>2017-09-20T08:07:31Z</time>
      </trkpt>
      <trkpt lat="41.495367" lon="-5.512316">
        <ele>643.779</ele>
        <time>2017-09-20T08:07:45Z</time>
      </trkpt>
      <trkpt lat="41.495320" lon="-5.512686">
        <ele>642.719</ele>
        <time>2017-09-20T08:07:59Z</time>
      </trkpt>
      <trkpt lat="41.495307" lon="-5.512736">
        <ele>643.221</ele>
        <time>2017-09-20T08:08:04Z</time>
      </trkpt>
      <trkpt lat="41.495300" lon="-5.512779">
        <ele>642.772</ele>
        <time>2017-09-20T08:08:07Z</time>
      </trkpt>
      <trkpt lat="41.495297" lon="-5.512794">
        <ele>642.713</ele>
        <time>2017-09-20T08:08:08Z</time>
      </trkpt>
      <trkpt lat="41.495293" lon="-5.512814">
        <ele>643.214</ele>
        <time>2017-09-20T08:08:09Z</time>
      </trkpt>
      <trkpt lat="41.495289" lon="-5.512836">
        <ele>643.208</ele>
        <time>2017-09-20T08:08:10Z</time>
      </trkpt>
      <trkpt lat="41.495285" lon="-5.512862">
        <ele>643.278</ele>
        <time>2017-09-20T08:08:11Z</time>
      </trkpt>
      <trkpt lat="41.495280" lon="-5.512887">
        <ele>643.216</ele>
        <time>2017-09-20T08:08:12Z</time>
      </trkpt>
      <trkpt lat="41.495276" lon="-5.512908">
        <ele>643.256</ele>
        <time>2017-09-20T08:08:13Z</time>
      </trkpt>
      <trkpt lat="41.495196" lon="-5.513278">
        <ele>644.280</ele>
        <time>2017-09-20T08:08:27Z</time>
      </trkpt>
      <trkpt lat="41.495124" lon="-5.513711">
        <ele>644.748</ele>
        <time>2017-09-20T08:08:42Z</time>
      </trkpt>
      <trkpt lat="41.494971" lon="-5.514395">
        <ele>646.187</ele>
        <time>2017-09-20T08:09:03Z</time>
      </trkpt>
      <trkpt lat="41.494792" lon="-5.514847">
        <ele>646.687</ele>
        <time>2017-09-20T08:09:19Z</time>
      </trkpt>
      <trkpt lat="41.494646" lon="-5.515159">
        <ele>647.549</ele>
        <time>2017-09-20T08:09:31Z</time>
      </trkpt>
      <trkpt lat="41.494632" lon="-5.515178">
        <ele>647.511</ele>
        <time>2017-09-20T08:09:32Z</time>
      </trkpt>
      <trkpt lat="41.494619" lon="-5.515195">
        <ele>647.521</ele>
        <time>2017-09-20T08:09:33Z</time>
      </trkpt>
      <trkpt lat="41.494604" lon="-5.515211">
        <ele>647.503</ele>
        <time>2017-09-20T08:09:34Z</time>
      </trkpt>
      <trkpt lat="41.494588" lon="-5.515224">
        <ele>647.508</ele>
        <time>2017-09-20T08:09:35Z</time>
      </trkpt>
      <trkpt lat="41.494572" lon="-5.515234">
        <ele>647.532</ele>
        <time>2017-09-20T08:09:36Z</time>
      </trkpt>
      <trkpt lat="41.494467" lon="-5.515350">
        <ele>648.020</ele>
        <time>2017-09-20T08:09:44Z</time>
      </trkpt>
      <trkpt lat="41.494452" lon="-5.515360">
        <ele>648.070</ele>
        <time>2017-09-20T08:09:45Z</time>
      </trkpt>
      <trkpt lat="41.494435" lon="-5.515368">
        <ele>648.054</ele>
        <time>2017-09-20T08:09:46Z</time>
      </trkpt>
      <trkpt lat="41.494420" lon="-5.515378">
        <ele>648.042</ele>
        <time>2017-09-20T08:09:47Z</time>
      </trkpt>
      <trkpt lat="41.494408" lon="-5.515392">
        <ele>648.011</ele>
        <time>2017-09-20T08:09:48Z</time>
      </trkpt>
      <trkpt lat="41.494396" lon="-5.515410">
        <ele>648.021</ele>
        <time>2017-09-20T08:09:49Z</time>
      </trkpt>
      <trkpt lat="41.494383" lon="-5.515427">
        <ele>648.013</ele>
        <time>2017-09-20T08:09:50Z</time>
      </trkpt>
      <trkpt lat="41.494308" lon="-5.515857">
        <ele>649.596</ele>
        <time>2017-09-20T08:10:05Z</time>
      </trkpt>
      <trkpt lat="41.494327" lon="-5.516550">
        <ele>649.531</ele>
        <time>2017-09-20T08:10:19Z</time>
      </trkpt>
      <trkpt lat="41.494334" lon="-5.517380">
        <ele>651.424</ele>
        <time>2017-09-20T08:10:35Z</time>
      </trkpt>
      <trkpt lat="41.494364" lon="-5.517954">
        <ele>654.808</ele>
        <time>2017-09-20T08:10:51Z</time>
      </trkpt>
      <trkpt lat="41.494401" lon="-5.518589">
        <ele>654.850</ele>
        <time>2017-09-20T08:11:09Z</time>
      </trkpt>
      <trkpt lat="41.494463" lon="-5.519397">
        <ele>654.318</ele>
        <time>2017-09-20T08:11:24Z</time>
      </trkpt>
      <trkpt lat="41.494479" lon="-5.519529">
        <ele>654.348</ele>
        <time>2017-09-20T08:11:26Z</time>
      </trkpt>
      <trkpt lat="41.494593" lon="-5.519980">
        <ele>654.832</ele>
        <time>2017-09-20T08:11:33Z</time>
      </trkpt>
      <trkpt lat="41.494607" lon="-5.520041">
        <ele>654.820</ele>
        <time>2017-09-20T08:11:34Z</time>
      </trkpt>
      <trkpt lat="41.494623" lon="-5.520095">
        <ele>655.299</ele>
        <time>2017-09-20T08:11:35Z</time>
      </trkpt>
      <trkpt lat="41.495018" lon="-5.521149">
        <ele>655.259</ele>
        <time>2017-09-20T08:11:54Z</time>
      </trkpt>
      <trkpt lat="41.495151" lon="-5.521898">
        <ele>655.761</ele>
        <time>2017-09-20T08:12:06Z</time>
      </trkpt>
      <trkpt lat="41.494950" lon="-5.522712">
        <ele>659.131</ele>
        <time>2017-09-20T08:12:21Z</time>
      </trkpt>
      <trkpt lat="41.494664" lon="-5.523377">
        <ele>661.061</ele>
        <time>2017-09-20T08:12:38Z</time>
      </trkpt>
      <trkpt lat="41.494354" lon="-5.524132">
        <ele>661.007</ele>
        <time>2017-09-20T08:12:54Z</time>
      </trkpt>
      <trkpt lat="41.494162" lon="-5.525131">
        <ele>661.008</ele>
        <time>2017-09-20T08:13:10Z</time>
      </trkpt>
      <trkpt lat="41.494145" lon="-5.526243">
        <ele>660.524</ele>
        <time>2017-09-20T08:13:27Z</time>
      </trkpt>
      <trkpt lat="41.494121" lon="-5.527159">
        <ele>662.082</ele>
        <time>2017-09-20T08:13:43Z</time>
      </trkpt>
      <trkpt lat="41.494098" lon="-5.527937">
        <ele>664.452</ele>
        <time>2017-09-20T08:14:01Z</time>
      </trkpt>
      <trkpt lat="41.494079" lon="-5.528707">
        <ele>662.976</ele>
        <time>2017-09-20T08:14:14Z</time>
      </trkpt>
      <trkpt lat="41.494029" lon="-5.530098">
        <ele>658.664</ele>
        <time>2017-09-20T08:14:29Z</time>
      </trkpt>
      <trkpt lat="41.493986" lon="-5.531332">
        <ele>659.643</ele>
        <time>2017-09-20T08:14:44Z</time>
      </trkpt>
      <trkpt lat="41.493909" lon="-5.532808">
        <ele>658.163</ele>
        <time>2017-09-20T08:15:02Z</time>
      </trkpt>
      <trkpt lat="41.493847" lon="-5.534443">
        <ele>655.245</ele>
        <time>2017-09-20T08:15:21Z</time>
      </trkpt>
      <trkpt lat="41.493898" lon="-5.536030">
        <ele>652.844</ele>
        <time>2017-09-20T08:15:39Z</time>
      </trkpt>
      <trkpt lat="41.494009" lon="-5.537702">
        <ele>651.905</ele>
        <time>2017-09-20T08:15:57Z</time>
      </trkpt>
      <trkpt lat="41.494094" lon="-5.539711">
        <ele>649.515</ele>
        <time>2017-09-20T08:16:19Z</time>
      </trkpt>
      <trkpt lat="41.494099" lon="-5.540721">
        <ele>649.508</ele>
        <time>2017-09-20T08:16:31Z</time>
      </trkpt>
      <trkpt lat="41.494110" lon="-5.540798">
        <ele>649.975</ele>
        <time>2017-09-20T08:16:32Z</time>
      </trkpt>
      <trkpt lat="41.494436" lon="-5.541665">
        <ele>651.493</ele>
        <time>2017-09-20T08:16:45Z</time>
      </trkpt>
      <trkpt lat="41.494838" lon="-5.542280">
        <ele>653.393</ele>
        <time>2017-09-20T08:16:57Z</time>
      </trkpt>
      <trkpt lat="41.494865" lon="-5.542338">
        <ele>653.327</ele>
        <time>2017-09-20T08:16:58Z</time>
      </trkpt>
      <trkpt lat="41.495115" lon="-5.543345">
        <ele>649.925</ele>
        <time>2017-09-20T08:17:11Z</time>
      </trkpt>
      <trkpt lat="41.495359" lon="-5.544571">
        <ele>647.584</ele>
        <time>2017-09-20T08:17:25Z</time>
      </trkpt>
      <trkpt lat="41.495379" lon="-5.544652">
        <ele>647.174</ele>
        <time>2017-09-20T08:17:26Z</time>
      </trkpt>
      <trkpt lat="41.495678" lon="-5.546142">
        <ele>646.696</ele>
        <time>2017-09-20T08:17:45Z</time>
      </trkpt>
      <trkpt lat="41.495775" lon="-5.547476">
        <ele>647.547</ele>
        <time>2017-09-20T08:18:03Z</time>
      </trkpt>
      <trkpt lat="41.495796" lon="-5.548638">
        <ele>648.029</ele>
        <time>2017-09-20T08:18:20Z</time>
      </trkpt>
      <trkpt lat="41.495806" lon="-5.549529">
        <ele>648.021</ele>
        <time>2017-09-20T08:18:34Z</time>
      </trkpt>
      <trkpt lat="41.495836" lon="-5.550651">
        <ele>647.508</ele>
        <time>2017-09-20T08:18:51Z</time>
      </trkpt>
      <trkpt lat="41.495851" lon="-5.551847">
        <ele>648.525</ele>
        <time>2017-09-20T08:19:09Z</time>
      </trkpt>
      <trkpt lat="41.495894" lon="-5.553393">
        <ele>648.533</ele>
        <time>2017-09-20T08:19:32Z</time>
      </trkpt>
      <trkpt lat="41.495903" lon="-5.554907">
        <ele>647.553</ele>
        <time>2017-09-20T08:19:54Z</time>
      </trkpt>
      <trkpt lat="41.495833" lon="-5.556318">
        <ele>646.657</ele>
        <time>2017-09-20T08:20:14Z</time>
      </trkpt>
      <trkpt lat="41.495855" lon="-5.558070">
        <ele>646.115</ele>
        <time>2017-09-20T08:20:39Z</time>
      </trkpt>
      <trkpt lat="41.495928" lon="-5.559378">
        <ele>644.714</ele>
        <time>2017-09-20T08:20:58Z</time>
      </trkpt>
      <trkpt lat="41.495930" lon="-5.559446">
        <ele>644.714</ele>
        <time>2017-09-20T08:20:59Z</time>
      </trkpt>
      <trkpt lat="41.495932" lon="-5.559578">
        <ele>644.746</ele>
        <time>2017-09-20T08:21:01Z</time>
      </trkpt>
      <trkpt lat="41.495940" lon="-5.559643">
        <ele>644.762</ele>
        <time>2017-09-20T08:21:02Z</time>
      </trkpt>
      <trkpt lat="41.495947" lon="-5.559711">
        <ele>644.783</ele>
        <time>2017-09-20T08:21:03Z</time>
      </trkpt>
      <trkpt lat="41.495949" lon="-5.559779">
        <ele>644.711</ele>
        <time>2017-09-20T08:21:04Z</time>
      </trkpt>
      <trkpt lat="41.495950" lon="-5.559850">
        <ele>644.708</ele>
        <time>2017-09-20T08:21:05Z</time>
      </trkpt>
      <trkpt lat="41.495956" lon="-5.559918">
        <ele>644.767</ele>
        <time>2017-09-20T08:21:06Z</time>
      </trkpt>
      <trkpt lat="41.495964" lon="-5.559988">
        <ele>644.785</ele>
        <time>2017-09-20T08:21:07Z</time>
      </trkpt>
      <trkpt lat="41.496051" lon="-5.561296">
        <ele>643.785</ele>
        <time>2017-09-20T08:21:26Z</time>
      </trkpt>
      <trkpt lat="41.496182" lon="-5.562813">
        <ele>643.229</ele>
        <time>2017-09-20T08:21:48Z</time>
      </trkpt>
      <trkpt lat="41.496403" lon="-5.564120">
        <ele>643.267</ele>
        <time>2017-09-20T08:22:08Z</time>
      </trkpt>
      <trkpt lat="41.496706" lon="-5.565574">
        <ele>642.766</ele>
        <time>2017-09-20T08:22:30Z</time>
      </trkpt>
      <trkpt lat="41.496925" lon="-5.566655">
        <ele>642.316</ele>
        <time>2017-09-20T08:22:47Z</time>
      </trkpt>
      <trkpt lat="41.497230" lon="-5.568125">
        <ele>641.818</ele>
        <time>2017-09-20T08:23:10Z</time>
      </trkpt>
      <trkpt lat="41.497401" lon="-5.569063">
        <ele>642.337</ele>
        <time>2017-09-20T08:23:26Z</time>
      </trkpt>
      <trkpt lat="41.497388" lon="-5.570387">
        <ele>642.349</ele>
        <time>2017-09-20T08:23:47Z</time>
      </trkpt>
      <trkpt lat="41.497301" lon="-5.571727">
        <ele>642.313</ele>
        <time>2017-09-20T08:24:08Z</time>
      </trkpt>
      <trkpt lat="41.497208" lon="-5.573078">
        <ele>642.308</ele>
        <time>2017-09-20T08:24:29Z</time>
      </trkpt>
      <trkpt lat="41.497106" lon="-5.574545">
        <ele>642.724</ele>
        <time>2017-09-20T08:24:52Z</time>
      </trkpt>
      <trkpt lat="41.496901" lon="-5.575768">
        <ele>643.282</ele>
        <time>2017-09-20T08:25:12Z</time>
      </trkpt>
      <trkpt lat="41.496645" lon="-5.576896">
        <ele>644.772</ele>
        <time>2017-09-20T08:25:31Z</time>
      </trkpt>
      <trkpt lat="41.496403" lon="-5.578004">
        <ele>645.696</ele>
        <time>2017-09-20T08:25:51Z</time>
      </trkpt>
      <trkpt lat="41.496318" lon="-5.579065">
        <ele>644.724</ele>
        <time>2017-09-20T08:26:10Z</time>
      </trkpt>
      <trkpt lat="41.496296" lon="-5.580001">
        <ele>645.193</ele>
        <time>2017-09-20T08:26:26Z</time>
      </trkpt>
      <trkpt lat="41.496252" lon="-5.581354">
        <ele>644.253</ele>
        <time>2017-09-20T08:26:48Z</time>
      </trkpt>
      <trkpt lat="41.496210" lon="-5.582703">
        <ele>645.125</ele>
        <time>2017-09-20T08:27:09Z</time>
      </trkpt>
      <trkpt lat="41.496093" lon="-5.583438">
        <ele>648.084</ele>
        <time>2017-09-20T08:27:26Z</time>
      </trkpt>
      <trkpt lat="41.495843" lon="-5.584124">
        <ele>651.407</ele>
        <time>2017-09-20T08:27:43Z</time>
      </trkpt>
      <trkpt lat="41.495650" lon="-5.584615">
        <ele>653.817</ele>
        <time>2017-09-20T08:27:57Z</time>
      </trkpt>
      <trkpt lat="41.495452" lon="-5.585093">
        <ele>655.708</ele>
        <time>2017-09-20T08:28:12Z</time>
      </trkpt>
      <trkpt lat="41.495282" lon="-5.585495">
        <ele>656.769</ele>
        <time>2017-09-20T08:28:26Z</time>
      </trkpt>
      <trkpt lat="41.495111" lon="-5.585934">
        <ele>658.677</ele>
        <time>2017-09-20T08:28:41Z</time>
      </trkpt>
      <trkpt lat="41.494942" lon="-5.586368">
        <ele>660.567</ele>
        <time>2017-09-20T08:28:56Z</time>
      </trkpt>
      <trkpt lat="41.494788" lon="-5.586779">
        <ele>662.491</ele>
        <time>2017-09-20T08:29:10Z</time>
      </trkpt>
      <trkpt lat="41.494661" lon="-5.587305">
        <ele>663.939</ele>
        <time>2017-09-20T08:29:27Z</time>
      </trkpt>
      <trkpt lat="41.494582" lon="-5.587886">
        <ele>665.318</ele>
        <time>2017-09-20T08:29:44Z</time>
      </trkpt>
      <trkpt lat="41.494506" lon="-5.588383">
        <ele>665.848</ele>
        <time>2017-09-20T08:29:58Z</time>
      </trkpt>
      <trkpt lat="41.494410" lon="-5.589054">
        <ele>668.210</ele>
        <time>2017-09-20T08:30:16Z</time>
      </trkpt>
      <trkpt lat="41.494312" lon="-5.589704">
        <ele>668.749</ele>
        <time>2017-09-20T08:30:30Z</time>
      </trkpt>
      <trkpt lat="41.494209" lon="-5.590416">
        <ele>668.202</ele>
        <time>2017-09-20T08:30:46Z</time>
      </trkpt>
      <trkpt lat="41.494158" lon="-5.590865">
        <ele>666.822</ele>
        <time>2017-09-20T08:30:54Z</time>
      </trkpt>
      <trkpt lat="41.494165" lon="-5.590939">
        <ele>665.808</ele>
        <time>2017-09-20T08:30:55Z</time>
      </trkpt>
      <trkpt lat="41.494181" lon="-5.591020">
        <ele>665.355</ele>
        <time>2017-09-20T08:30:56Z</time>
      </trkpt>
      <trkpt lat="41.494200" lon="-5.591084">
        <ele>664.833</ele>
        <time>2017-09-20T08:30:57Z</time>
      </trkpt>
      <trkpt lat="41.494229" lon="-5.591171">
        <ele>664.463</ele>
        <time>2017-09-20T08:30:58Z</time>
      </trkpt>
      <trkpt lat="41.494730" lon="-5.592279">
        <ele>655.797</ele>
        <time>2017-09-20T08:31:09Z</time>
      </trkpt>
      <trkpt lat="41.495602" lon="-5.594070">
        <ele>643.755</ele>
        <time>2017-09-20T08:31:24Z</time>
      </trkpt>
      <trkpt lat="41.495762" lon="-5.595297">
        <ele>641.854</ele>
        <time>2017-09-20T08:31:34Z</time>
      </trkpt>
      <trkpt lat="41.495478" lon="-5.596391">
        <ele>642.394</ele>
        <time>2017-09-20T08:31:45Z</time>
      </trkpt>
      <trkpt lat="41.494894" lon="-5.597394">
        <ele>642.796</ele>
        <time>2017-09-20T08:31:59Z</time>
      </trkpt>
      <trkpt lat="41.494485" lon="-5.598234">
        <ele>643.728</ele>
        <time>2017-09-20T08:32:13Z</time>
      </trkpt>
      <trkpt lat="41.494142" lon="-5.599194">
        <ele>645.189</ele>
        <time>2017-09-20T08:32:31Z</time>
      </trkpt>
      <trkpt lat="41.493830" lon="-5.600046">
        <ele>646.617</ele>
        <time>2017-09-20T08:32:51Z</time>
      </trkpt>
      <trkpt lat="41.493634" lon="-5.600653">
        <ele>648.008</ele>
        <time>2017-09-20T08:33:08Z</time>
      </trkpt>
      <trkpt lat="41.493519" lon="-5.601071">
        <ele>650.423</ele>
        <time>2017-09-20T08:33:22Z</time>
      </trkpt>
      <trkpt lat="41.493382" lon="-5.601576">
        <ele>652.861</ele>
        <time>2017-09-20T08:33:40Z</time>
      </trkpt>
      <trkpt lat="41.493251" lon="-5.602051">
        <ele>655.791</ele>
        <time>2017-09-20T08:33:57Z</time>
      </trkpt>
      <trkpt lat="41.493146" lon="-5.602447">
        <ele>657.675</ele>
        <time>2017-09-20T08:34:13Z</time>
      </trkpt>
      <trkpt lat="41.493043" lon="-5.602851">
        <ele>660.043</ele>
        <time>2017-09-20T08:34:30Z</time>
      </trkpt>
      <trkpt lat="41.492964" lon="-5.603253">
        <ele>660.072</ele>
        <time>2017-09-20T08:34:46Z</time>
      </trkpt>
      <trkpt lat="41.492894" lon="-5.603676">
        <ele>660.582</ele>
        <time>2017-09-20T08:35:00Z</time>
      </trkpt>
      <trkpt lat="41.492797" lon="-5.604153">
        <ele>661.094</ele>
        <time>2017-09-20T08:35:15Z</time>
      </trkpt>
      <trkpt lat="41.492616" lon="-5.604730">
        <ele>661.079</ele>
        <time>2017-09-20T08:35:29Z</time>
      </trkpt>
      <trkpt lat="41.492263" lon="-5.605429">
        <ele>660.505</ele>
        <time>2017-09-20T08:35:46Z</time>
      </trkpt>
      <trkpt lat="41.491973" lon="-5.605983">
        <ele>661.525</ele>
        <time>2017-09-20T08:36:01Z</time>
      </trkpt>
      <trkpt lat="41.491948" lon="-5.606024">
        <ele>661.008</ele>
        <time>2017-09-20T08:36:14Z</time>
      </trkpt>
      <trkpt lat="41.491752" lon="-5.606386">
        <ele>660.088</ele>
        <time>2017-09-20T08:36:27Z</time>
      </trkpt>
      <trkpt lat="41.491467" lon="-5.606991">
        <ele>660.566</ele>
        <time>2017-09-20T08:36:43Z</time>
      </trkpt>
      <trkpt lat="41.491193" lon="-5.607842">
        <ele>659.676</ele>
        <time>2017-09-20T08:36:58Z</time>
      </trkpt>
      <trkpt lat="41.491056" lon="-5.608295">
        <ele>659.610</ele>
        <time>2017-09-20T08:37:05Z</time>
      </trkpt>
      <trkpt lat="41.491041" lon="-5.608362">
        <ele>659.138</ele>
        <time>2017-09-20T08:37:06Z</time>
      </trkpt>
      <trkpt lat="41.490914" lon="-5.609403">
        <ele>659.117</ele>
        <time>2017-09-20T08:37:22Z</time>
      </trkpt>
      <trkpt lat="41.490942" lon="-5.610228">
        <ele>660.067</ele>
        <time>2017-09-20T08:37:38Z</time>
      </trkpt>
      <trkpt lat="41.490962" lon="-5.611124">
        <ele>660.049</ele>
        <time>2017-09-20T08:37:55Z</time>
      </trkpt>
      <trkpt lat="41.490986" lon="-5.612256">
        <ele>661.047</ele>
        <time>2017-09-20T08:38:16Z</time>
      </trkpt>
      <trkpt lat="41.491017" lon="-5.613518">
        <ele>660.529</ele>
        <time>2017-09-20T08:38:38Z</time>
      </trkpt>
      <trkpt lat="41.491007" lon="-5.614750">
        <ele>661.521</ele>
        <time>2017-09-20T08:38:58Z</time>
      </trkpt>
      <trkpt lat="41.490955" lon="-5.615781">
        <ele>661.008</ele>
        <time>2017-09-20T08:39:16Z</time>
      </trkpt>
      <trkpt lat="41.490874" lon="-5.617017">
        <ele>660.085</ele>
        <time>2017-09-20T08:39:36Z</time>
      </trkpt>
      <trkpt lat="41.490860" lon="-5.617258">
        <ele>660.053</ele>
        <time>2017-09-20T08:39:40Z</time>
      </trkpt>
      <trkpt lat="41.490858" lon="-5.617313">
        <ele>660.083</ele>
        <time>2017-09-20T08:39:41Z</time>
      </trkpt>
      <trkpt lat="41.490833" lon="-5.618266">
        <ele>659.677</ele>
        <time>2017-09-20T08:39:57Z</time>
      </trkpt>
      <trkpt lat="41.490866" lon="-5.619743">
        <ele>659.615</ele>
        <time>2017-09-20T08:40:20Z</time>
      </trkpt>
      <trkpt lat="41.490899" lon="-5.621184">
        <ele>657.634</ele>
        <time>2017-09-20T08:40:41Z</time>
      </trkpt>
      <trkpt lat="41.490923" lon="-5.622506">
        <ele>657.634</ele>
        <time>2017-09-20T08:41:01Z</time>
      </trkpt>
      <trkpt lat="41.490939" lon="-5.623638">
        <ele>656.736</ele>
        <time>2017-09-20T08:41:18Z</time>
      </trkpt>
      <trkpt lat="41.491118" lon="-5.624735">
        <ele>653.826</ele>
        <time>2017-09-20T08:41:32Z</time>
      </trkpt>
      <trkpt lat="41.491313" lon="-5.626326">
        <ele>652.847</ele>
        <time>2017-09-20T08:41:51Z</time>
      </trkpt>
      <trkpt lat="41.491318" lon="-5.627611">
        <ele>654.311</ele>
        <time>2017-09-20T08:42:10Z</time>
      </trkpt>
      <trkpt lat="41.491362" lon="-5.628872">
        <ele>654.308</ele>
        <time>2017-09-20T08:42:29Z</time>
      </trkpt>
      <trkpt lat="41.491461" lon="-5.630288">
        <ele>655.253</ele>
        <time>2017-09-20T08:42:50Z</time>
      </trkpt>
      <trkpt lat="41.491491" lon="-5.631561">
        <ele>654.381</ele>
        <time>2017-09-20T08:43:09Z</time>
      </trkpt>
      <trkpt lat="41.491527" lon="-5.632759">
        <ele>653.821</ele>
        <time>2017-09-20T08:43:27Z</time>
      </trkpt>
      <trkpt lat="41.491596" lon="-5.634289">
        <ele>652.375</ele>
        <time>2017-09-20T08:43:49Z</time>
      </trkpt>
      <trkpt lat="41.491658" lon="-5.635720">
        <ele>652.333</ele>
        <time>2017-09-20T08:44:10Z</time>
      </trkpt>
      <trkpt lat="41.491719" lon="-5.637236">
        <ele>653.342</ele>
        <time>2017-09-20T08:44:33Z</time>
      </trkpt>
      <trkpt lat="41.491719" lon="-5.638547">
        <ele>653.322</ele>
        <time>2017-09-20T08:44:54Z</time>
      </trkpt>
      <trkpt lat="41.491651" lon="-5.639687">
        <ele>653.334</ele>
        <time>2017-09-20T08:45:13Z</time>
      </trkpt>
      <trkpt lat="41.491669" lon="-5.640695">
        <ele>652.362</ele>
        <time>2017-09-20T08:45:30Z</time>
      </trkpt>
      <trkpt lat="41.491724" lon="-5.641897">
        <ele>651.483</ele>
        <time>2017-09-20T08:45:48Z</time>
      </trkpt>
      <trkpt lat="41.491777" lon="-5.643258">
        <ele>650.411</ele>
        <time>2017-09-20T08:46:07Z</time>
      </trkpt>
      <trkpt lat="41.491840" lon="-5.644779">
        <ele>651.908</ele>
        <time>2017-09-20T08:46:30Z</time>
      </trkpt>
      <trkpt lat="41.491879" lon="-5.645637">
        <ele>652.367</ele>
        <time>2017-09-20T08:46:47Z</time>
      </trkpt>
      <trkpt lat="41.491914" lon="-5.646516">
        <ele>652.865</ele>
        <time>2017-09-20T08:47:03Z</time>
      </trkpt>
      <trkpt lat="41.491955" lon="-5.647481">
        <ele>652.365</ele>
        <time>2017-09-20T08:47:19Z</time>
      </trkpt>
      <trkpt lat="41.492007" lon="-5.648657">
        <ele>651.949</ele>
        <time>2017-09-20T08:47:38Z</time>
      </trkpt>
      <trkpt lat="41.492055" lon="-5.650042">
        <ele>651.917</ele>
        <time>2017-09-20T08:47:59Z</time>
      </trkpt>
      <trkpt lat="41.491993" lon="-5.651397">
        <ele>651.466</ele>
        <time>2017-09-20T08:48:19Z</time>
      </trkpt>
      <trkpt lat="41.491916" lon="-5.652747">
        <ele>649.976</ele>
        <time>2017-09-20T08:48:40Z</time>
      </trkpt>
      <trkpt lat="41.492019" lon="-5.653995">
        <ele>647.538</ele>
        <time>2017-09-20T08:48:58Z</time>
      </trkpt>
      <trkpt lat="41.492046" lon="-5.655131">
        <ele>647.562</ele>
        <time>2017-09-20T08:49:15Z</time>
      </trkpt>
      <trkpt lat="41.492005" lon="-5.656500">
        <ele>645.683</ele>
        <time>2017-09-20T08:49:33Z</time>
      </trkpt>
      <trkpt lat="41.492065" lon="-5.657934">
        <ele>644.211</ele>
        <time>2017-09-20T08:49:51Z</time>
      </trkpt>
      <trkpt lat="41.492121" lon="-5.659227">
        <ele>645.608</ele>
        <time>2017-09-20T08:50:10Z</time>
      </trkpt>
      <trkpt lat="41.492086" lon="-5.660064">
        <ele>645.677</ele>
        <time>2017-09-20T08:50:25Z</time>
      </trkpt>
      <trkpt lat="41.492101" lon="-5.661145">
        <ele>643.295</ele>
        <time>2017-09-20T08:50:39Z</time>
      </trkpt>
      <trkpt lat="41.492224" lon="-5.662377">
        <ele>644.275</ele>
        <time>2017-09-20T08:50:57Z</time>
      </trkpt>
      <trkpt lat="41.492292" lon="-5.663710">
        <ele>642.789</ele>
        <time>2017-09-20T08:51:15Z</time>
      </trkpt>
      <trkpt lat="41.492221" lon="-5.665382">
        <ele>641.877</ele>
        <time>2017-09-20T08:51:37Z</time>
      </trkpt>
      <trkpt lat="41.492163" lon="-5.666696">
        <ele>642.396</ele>
        <time>2017-09-20T08:51:55Z</time>
      </trkpt>
      <trkpt lat="41.492054" lon="-5.667816">
        <ele>643.216</ele>
        <time>2017-09-20T08:52:12Z</time>
      </trkpt>
      <trkpt lat="41.491836" lon="-5.668532">
        <ele>644.228</ele>
        <time>2017-09-20T08:52:27Z</time>
      </trkpt>
      <trkpt lat="41.491877" lon="-5.669054">
        <ele>644.284</ele>
        <time>2017-09-20T08:52:39Z</time>
      </trkpt>
      <trkpt lat="41.491971" lon="-5.669595">
        <ele>644.707</ele>
        <time>2017-09-20T08:52:51Z</time>
      </trkpt>
      <trkpt lat="41.491876" lon="-5.670225">
        <ele>644.717</ele>
        <time>2017-09-20T08:53:02Z</time>
      </trkpt>
      <trkpt lat="41.491784" lon="-5.670900">
        <ele>645.608</ele>
        <time>2017-09-20T08:53:16Z</time>
      </trkpt>
      <trkpt lat="41.491680" lon="-5.671815">
        <ele>644.729</ele>
        <time>2017-09-20T08:53:30Z</time>
      </trkpt>
      <trkpt lat="41.491500" lon="-5.673293">
        <ele>645.617</ele>
        <time>2017-09-20T08:53:52Z</time>
      </trkpt>
      <trkpt lat="41.491293" lon="-5.674411">
        <ele>645.617</ele>
        <time>2017-09-20T08:54:10Z</time>
      </trkpt>
      <trkpt lat="41.491279" lon="-5.674474">
        <ele>645.621</ele>
        <time>2017-09-20T08:54:11Z</time>
      </trkpt>
      <trkpt lat="41.491268" lon="-5.674537">
        <ele>645.679</ele>
        <time>2017-09-20T08:54:12Z</time>
      </trkpt>
      <trkpt lat="41.491117" lon="-5.675327">
        <ele>645.698</ele>
        <time>2017-09-20T08:54:25Z</time>
      </trkpt>
      <trkpt lat="41.490945" lon="-5.676488">
        <ele>643.758</ele>
        <time>2017-09-20T08:54:44Z</time>
      </trkpt>
      <trkpt lat="41.490914" lon="-5.676823">
        <ele>643.710</ele>
        <time>2017-09-20T08:54:49Z</time>
      </trkpt>
      <trkpt lat="41.490914" lon="-5.676889">
        <ele>643.725</ele>
        <time>2017-09-20T08:54:50Z</time>
      </trkpt>
      <trkpt lat="41.490910" lon="-5.677080">
        <ele>643.726</ele>
        <time>2017-09-20T08:54:53Z</time>
      </trkpt>
      <trkpt lat="41.490900" lon="-5.677141">
        <ele>643.708</ele>
        <time>2017-09-20T08:54:54Z</time>
      </trkpt>
      <trkpt lat="41.490887" lon="-5.677204">
        <ele>643.708</ele>
        <time>2017-09-20T08:54:55Z</time>
      </trkpt>
      <trkpt lat="41.490880" lon="-5.677269">
        <ele>643.793</ele>
        <time>2017-09-20T08:54:56Z</time>
      </trkpt>
      <trkpt lat="41.490876" lon="-5.677323">
        <ele>643.781</ele>
        <time>2017-09-20T08:54:57Z</time>
      </trkpt>
      <trkpt lat="41.490849" lon="-5.677808">
        <ele>643.721</ele>
        <time>2017-09-20T08:55:05Z</time>
      </trkpt>
      <trkpt lat="41.490844" lon="-5.677869">
        <ele>643.765</ele>
        <time>2017-09-20T08:55:06Z</time>
      </trkpt>
      <trkpt lat="41.490799" lon="-5.678430">
        <ele>644.713</ele>
        <time>2017-09-20T08:55:15Z</time>
      </trkpt>
      <trkpt lat="41.490815" lon="-5.678666">
        <ele>643.242</ele>
        <time>2017-09-20T08:55:19Z</time>
      </trkpt>
      <trkpt lat="41.490833" lon="-5.678704">
        <ele>642.772</ele>
        <time>2017-09-20T08:55:20Z</time>
      </trkpt>
      <trkpt lat="41.490856" lon="-5.678741">
        <ele>642.334</ele>
        <time>2017-09-20T08:55:21Z</time>
      </trkpt>
      <trkpt lat="41.491034" lon="-5.679035">
        <ele>641.378</ele>
        <time>2017-09-20T08:55:28Z</time>
      </trkpt>
      <trkpt lat="41.491508" lon="-5.679866">
        <ele>641.833</ele>
        <time>2017-09-20T08:55:46Z</time>
      </trkpt>
      <trkpt lat="41.491936" lon="-5.680639">
        <ele>640.826</ele>
        <time>2017-09-20T08:56:01Z</time>
      </trkpt>
      <trkpt lat="41.491973" lon="-5.680676">
        <ele>640.808</ele>
        <time>2017-09-20T08:56:02Z</time>
      </trkpt>
      <trkpt lat="41.492020" lon="-5.680704">
        <ele>640.828</ele>
        <time>2017-09-20T08:56:03Z</time>
      </trkpt>
      <trkpt lat="41.492072" lon="-5.680721">
        <ele>640.866</ele>
        <time>2017-09-20T08:56:05Z</time>
      </trkpt>
      <trkpt lat="41.492129" lon="-5.680721">
        <ele>640.836</ele>
        <time>2017-09-20T08:56:06Z</time>
      </trkpt>
      <trkpt lat="41.492524" lon="-5.680883">
        <ele>640.820</ele>
        <time>2017-09-20T08:56:17Z</time>
      </trkpt>
      <trkpt lat="41.493178" lon="-5.681118">
        <ele>640.348</ele>
        <time>2017-09-20T08:56:36Z</time>
      </trkpt>
      <trkpt lat="41.493591" lon="-5.681307">
        <ele>639.427</ele>
        <time>2017-09-20T08:56:49Z</time>
      </trkpt>
      <trkpt lat="41.494066" lon="-5.681894">
        <ele>637.967</ele>
        <time>2017-09-20T08:57:07Z</time>
      </trkpt>
      <trkpt lat="41.494450" lon="-5.682416">
        <ele>637.429</ele>
        <time>2017-09-20T08:57:24Z</time>
      </trkpt>
      <trkpt lat="41.494849" lon="-5.682889">
        <ele>636.012</ele>
        <time>2017-09-20T08:57:40Z</time>
      </trkpt>
      <trkpt lat="41.495037" lon="-5.683421">
        <ele>636.032</ele>
        <time>2017-09-20T08:57:55Z</time>
      </trkpt>
      <trkpt lat="41.495121" lon="-5.683895">
        <ele>636.005</ele>
        <time>2017-09-20T08:58:07Z</time>
      </trkpt>
      <trkpt lat="41.495438" lon="-5.684211">
        <ele>636.008</ele>
        <time>2017-09-20T08:58:18Z</time>
      </trkpt>
      <trkpt lat="41.496024" lon="-5.684529">
        <ele>636.072</ele>
        <time>2017-09-20T08:58:32Z</time>
      </trkpt>
      <trkpt lat="41.496668" lon="-5.684854">
        <ele>636.080</ele>
        <time>2017-09-20T08:58:47Z</time>
      </trkpt>
      <trkpt lat="41.497579" lon="-5.685318">
        <ele>636.040</ele>
        <time>2017-09-20T08:59:08Z</time>
      </trkpt>
      <trkpt lat="41.497798" lon="-5.685450">
        <ele>633.694</ele>
        <time>2017-09-20T09:05:58Z</time>
      </trkpt>
      <trkpt lat="41.498243" lon="-5.685611">
        <ele>633.182</ele>
        <time>2017-09-20T09:06:12Z</time>
      </trkpt>
      <trkpt lat="41.498733" lon="-5.685803">
        <ele>633.171</ele>
        <time>2017-09-20T09:06:25Z</time>
      </trkpt>
      <trkpt lat="41.499348" lon="-5.685935">
        <ele>633.121</ele>
        <time>2017-09-20T09:06:39Z</time>
      </trkpt>
      <trkpt lat="41.499569" lon="-5.685971">
        <ele>633.193</ele>
        <time>2017-09-20T09:06:44Z</time>
      </trkpt>
      <trkpt lat="41.499614" lon="-5.685982">
        <ele>633.181</ele>
        <time>2017-09-20T09:06:45Z</time>
      </trkpt>
      <trkpt lat="41.499663" lon="-5.685998">
        <ele>633.161</ele>
        <time>2017-09-20T09:06:46Z</time>
      </trkpt>
      <trkpt lat="41.499939" lon="-5.686059">
        <ele>633.117</ele>
        <time>2017-09-20T09:06:53Z</time>
      </trkpt>
      <trkpt lat="41.500584" lon="-5.686158">
        <ele>634.608</ele>
        <time>2017-09-20T09:07:09Z</time>
      </trkpt>
      <trkpt lat="41.501033" lon="-5.686238">
        <ele>636.019</ele>
        <time>2017-09-20T09:07:20Z</time>
      </trkpt>
      <trkpt lat="41.501074" lon="-5.686263">
        <ele>636.047</ele>
        <time>2017-09-20T09:07:21Z</time>
      </trkpt>
      <trkpt lat="41.501112" lon="-5.686292">
        <ele>636.027</ele>
        <time>2017-09-20T09:07:22Z</time>
      </trkpt>
      <trkpt lat="41.501147" lon="-5.686333">
        <ele>636.011</ele>
        <time>2017-09-20T09:07:23Z</time>
      </trkpt>
      <trkpt lat="41.501174" lon="-5.686383">
        <ele>636.039</ele>
        <time>2017-09-20T09:07:24Z</time>
      </trkpt>
      <trkpt lat="41.501200" lon="-5.686442">
        <ele>636.028</ele>
        <time>2017-09-20T09:07:25Z</time>
      </trkpt>
      <trkpt lat="41.501221" lon="-5.686501">
        <ele>635.578</ele>
        <time>2017-09-20T09:07:26Z</time>
      </trkpt>
      <trkpt lat="41.501243" lon="-5.686562">
        <ele>635.580</ele>
        <time>2017-09-20T09:07:27Z</time>
      </trkpt>
      <trkpt lat="41.501303" lon="-5.686735">
        <ele>634.644</ele>
        <time>2017-09-20T09:07:30Z</time>
      </trkpt>
      <trkpt lat="41.501326" lon="-5.686784">
        <ele>634.105</ele>
        <time>2017-09-20T09:07:31Z</time>
      </trkpt>
      <trkpt lat="41.501621" lon="-5.687770">
        <ele>632.215</ele>
        <time>2017-09-20T09:07:48Z</time>
      </trkpt>
      <trkpt lat="41.501905" lon="-5.688730">
        <ele>633.108</ele>
        <time>2017-09-20T09:08:06Z</time>
      </trkpt>
      <trkpt lat="41.502159" lon="-5.689518">
        <ele>634.195</ele>
        <time>2017-09-20T09:08:22Z</time>
      </trkpt>
      <trkpt lat="41.502207" lon="-5.689624">
        <ele>634.113</ele>
        <time>2017-09-20T09:08:32Z</time>
      </trkpt>
      <trkpt lat="41.502215" lon="-5.689628">
        <ele>632.663</ele>
        <time>2017-09-20T09:08:48Z</time>
      </trkpt>
      <trkpt lat="41.502220" lon="-5.689622">
        <ele>632.697</ele>
        <time>2017-09-20T09:08:51Z</time>
      </trkpt>
      <trkpt lat="41.502259" lon="-5.689564">
        <ele>633.185</ele>
        <time>2017-09-20T09:08:57Z</time>
      </trkpt>
      <trkpt lat="41.502243" lon="-5.689497">
        <ele>634.664</ele>
        <time>2017-09-20T09:09:10Z</time>
      </trkpt>
      <trkpt lat="41.502245" lon="-5.689487">
        <ele>635.574</ele>
        <time>2017-09-20T09:09:28Z</time>
      </trkpt>
      <trkpt lat="41.502253" lon="-5.689502">
        <ele>635.566</ele>
        <time>2017-09-20T09:10:01Z</time>
      </trkpt>
      <trkpt lat="41.502228" lon="-5.689512">
        <ele>632.612</ele>
        <time>2017-09-20T09:11:06Z</time>
      </trkpt>
      <trkpt lat="41.502247" lon="-5.689501">
        <ele>631.232</ele>
        <time>2017-09-20T09:11:43Z</time>
      </trkpt>
      <trkpt lat="41.502243" lon="-5.689477">
        <ele>631.705</ele>
        <time>2017-09-20T09:11:45Z</time>
      </trkpt>
      <trkpt lat="41.502238" lon="-5.689462">
        <ele>631.708</ele>
        <time>2017-09-20T09:11:46Z</time>
      </trkpt>
      <trkpt lat="41.502233" lon="-5.689450">
        <ele>631.752</ele>
        <time>2017-09-20T09:11:47Z</time>
      </trkpt>
      <trkpt lat="41.502207" lon="-5.689432">
        <ele>631.760</ele>
        <time>2017-09-20T09:11:50Z</time>
      </trkpt>
      <trkpt lat="41.502167" lon="-5.689462">
        <ele>632.220</ele>
        <time>2017-09-20T09:11:55Z</time>
      </trkpt>
      <trkpt lat="41.502157" lon="-5.689481">
        <ele>632.654</ele>
        <time>2017-09-20T09:11:56Z</time>
      </trkpt>
      <trkpt lat="41.502167" lon="-5.689529">
        <ele>634.132</ele>
        <time>2017-09-20T09:12:05Z</time>
      </trkpt>
      <trkpt lat="41.502173" lon="-5.689547">
        <ele>634.121</ele>
        <time>2017-09-20T09:12:06Z</time>
      </trkpt>
      <trkpt lat="41.502181" lon="-5.689572">
        <ele>634.111</ele>
        <time>2017-09-20T09:12:07Z</time>
      </trkpt>
      <trkpt lat="41.502345" lon="-5.690064">
        <ele>633.693</ele>
        <time>2017-09-20T09:12:20Z</time>
      </trkpt>
      <trkpt lat="41.502467" lon="-5.690452">
        <ele>633.176</ele>
        <time>2017-09-20T09:12:28Z</time>
      </trkpt>
      <trkpt lat="41.502584" lon="-5.690814">
        <ele>632.290</ele>
        <time>2017-09-20T09:12:35Z</time>
      </trkpt>
      <trkpt lat="41.502594" lon="-5.690870">
        <ele>632.219</ele>
        <time>2017-09-20T09:12:36Z</time>
      </trkpt>
      <trkpt lat="41.502610" lon="-5.690992">
        <ele>632.208</ele>
        <time>2017-09-20T09:12:38Z</time>
      </trkpt>
      <trkpt lat="41.502612" lon="-5.691051">
        <ele>632.218</ele>
        <time>2017-09-20T09:12:39Z</time>
      </trkpt>
      <trkpt lat="41.502602" lon="-5.691228">
        <ele>632.266</ele>
        <time>2017-09-20T09:12:42Z</time>
      </trkpt>
      <trkpt lat="41.502592" lon="-5.691280">
        <ele>632.296</ele>
        <time>2017-09-20T09:12:43Z</time>
      </trkpt>
      <trkpt lat="41.502580" lon="-5.691340">
        <ele>632.240</ele>
        <time>2017-09-20T09:12:44Z</time>
      </trkpt>
      <trkpt lat="41.502384" lon="-5.692340">
        <ele>633.638</ele>
        <time>2017-09-20T09:13:02Z</time>
      </trkpt>
      <trkpt lat="41.502197" lon="-5.693241">
        <ele>634.117</ele>
        <time>2017-09-20T09:13:20Z</time>
      </trkpt>
      <trkpt lat="41.502053" lon="-5.693915">
        <ele>634.647</ele>
        <time>2017-09-20T09:13:34Z</time>
      </trkpt>
      <trkpt lat="41.501983" lon="-5.694241">
        <ele>634.169</ele>
        <time>2017-09-20T09:13:40Z</time>
      </trkpt>
      <trkpt lat="41.501970" lon="-5.694299">
        <ele>634.148</ele>
        <time>2017-09-20T09:13:41Z</time>
      </trkpt>
      <trkpt lat="41.501716" lon="-5.695403">
        <ele>634.161</ele>
        <time>2017-09-20T09:13:59Z</time>
      </trkpt>
      <trkpt lat="41.501467" lon="-5.696439">
        <ele>634.617</ele>
        <time>2017-09-20T09:14:17Z</time>
      </trkpt>
      <trkpt lat="41.501221" lon="-5.697446">
        <ele>633.608</ele>
        <time>2017-09-20T09:14:33Z</time>
      </trkpt>
      <trkpt lat="41.501128" lon="-5.698233">
        <ele>633.115</ele>
        <time>2017-09-20T09:14:45Z</time>
      </trkpt>
      <trkpt lat="41.500993" lon="-5.699311">
        <ele>633.613</ele>
        <time>2017-09-20T09:15:02Z</time>
      </trkpt>
      <trkpt lat="41.500850" lon="-5.700381">
        <ele>633.643</ele>
        <time>2017-09-20T09:15:19Z</time>
      </trkpt>
      <trkpt lat="41.500797" lon="-5.701496">
        <ele>633.617</ele>
        <time>2017-09-20T09:15:36Z</time>
      </trkpt>
      <trkpt lat="41.500769" lon="-5.702200">
        <ele>632.675</ele>
        <time>2017-09-20T09:15:47Z</time>
      </trkpt>
      <trkpt lat="41.500692" lon="-5.703500">
        <ele>631.724</ele>
        <time>2017-09-20T09:16:08Z</time>
      </trkpt>
      <trkpt lat="41.500638" lon="-5.704644">
        <ele>632.244</ele>
        <time>2017-09-20T09:16:26Z</time>
      </trkpt>
      <trkpt lat="41.500567" lon="-5.705440">
        <ele>632.666</ele>
        <time>2017-09-20T09:16:39Z</time>
      </trkpt>
      <trkpt lat="41.500564" lon="-5.705497">
        <ele>632.688</ele>
        <time>2017-09-20T09:16:40Z</time>
      </trkpt>
      <trkpt lat="41.500563" lon="-5.705555">
        <ele>632.624</ele>
        <time>2017-09-20T09:16:41Z</time>
      </trkpt>
      <trkpt lat="41.500474" lon="-5.706470">
        <ele>632.226</ele>
        <time>2017-09-20T09:16:56Z</time>
      </trkpt>
      <trkpt lat="41.500453" lon="-5.707692">
        <ele>631.708</ele>
        <time>2017-09-20T09:17:16Z</time>
      </trkpt>
      <trkpt lat="41.500457" lon="-5.708840">
        <ele>632.249</ele>
        <time>2017-09-20T09:17:35Z</time>
      </trkpt>
      <trkpt lat="41.500444" lon="-5.709652">
        <ele>633.127</ele>
        <time>2017-09-20T09:17:50Z</time>
      </trkpt>
      <trkpt lat="41.500340" lon="-5.710722">
        <ele>632.677</ele>
        <time>2017-09-20T09:18:09Z</time>
      </trkpt>
      <trkpt lat="41.500188" lon="-5.711741">
        <ele>634.121</ele>
        <time>2017-09-20T09:18:27Z</time>
      </trkpt>
      <trkpt lat="41.500121" lon="-5.712194">
        <ele>633.169</ele>
        <time>2017-09-20T09:18:35Z</time>
      </trkpt>
      <trkpt lat="41.500033" lon="-5.713081">
        <ele>632.648</ele>
        <time>2017-09-20T09:18:51Z</time>
      </trkpt>
      <trkpt lat="41.499940" lon="-5.714267">
        <ele>632.638</ele>
        <time>2017-09-20T09:19:11Z</time>
      </trkpt>
      <trkpt lat="41.499838" lon="-5.715455">
        <ele>633.690</ele>
        <time>2017-09-20T09:19:31Z</time>
      </trkpt>
      <trkpt lat="41.499769" lon="-5.716311">
        <ele>633.694</ele>
        <time>2017-09-20T09:19:47Z</time>
      </trkpt>
      <trkpt lat="41.499720" lon="-5.717109">
        <ele>632.657</ele>
        <time>2017-09-20T09:20:02Z</time>
      </trkpt>
      <trkpt lat="41.499672" lon="-5.717571">
        <ele>633.122</ele>
        <time>2017-09-20T09:20:10Z</time>
      </trkpt>
      <trkpt lat="41.499597" lon="-5.718389">
        <ele>632.608</ele>
        <time>2017-09-20T09:20:24Z</time>
      </trkpt>
      <trkpt lat="41.499575" lon="-5.718614">
        <ele>633.170</ele>
        <time>2017-09-20T09:20:28Z</time>
      </trkpt>
      <trkpt lat="41.499578" lon="-5.718668">
        <ele>633.118</ele>
        <time>2017-09-20T09:20:29Z</time>
      </trkpt>
      <trkpt lat="41.499577" lon="-5.718720">
        <ele>633.128</ele>
        <time>2017-09-20T09:20:30Z</time>
      </trkpt>
      <trkpt lat="41.499543" lon="-5.719118">
        <ele>633.692</ele>
        <time>2017-09-20T09:20:38Z</time>
      </trkpt>
      <trkpt lat="41.499468" lon="-5.720064">
        <ele>633.120</ele>
        <time>2017-09-20T09:20:55Z</time>
      </trkpt>
      <trkpt lat="41.499453" lon="-5.720319">
        <ele>633.169</ele>
        <time>2017-09-20T09:21:00Z</time>
      </trkpt>
      <trkpt lat="41.499386" lon="-5.721365">
        <ele>632.279</ele>
        <time>2017-09-20T09:21:18Z</time>
      </trkpt>
      <trkpt lat="41.499265" lon="-5.722245">
        <ele>631.771</ele>
        <time>2017-09-20T09:21:33Z</time>
      </trkpt>
      <trkpt lat="41.499191" lon="-5.723152">
        <ele>631.724</ele>
        <time>2017-09-20T09:21:49Z</time>
      </trkpt>
      <trkpt lat="41.499167" lon="-5.723514">
        <ele>632.204</ele>
        <time>2017-09-20T09:22:00Z</time>
      </trkpt>
      <trkpt lat="41.499114" lon="-5.724486">
        <ele>631.714</ele>
        <time>2017-09-20T09:22:16Z</time>
      </trkpt>
      <trkpt lat="41.499075" lon="-5.725642">
        <ele>631.208</ele>
        <time>2017-09-20T09:22:35Z</time>
      </trkpt>
      <trkpt lat="41.498985" lon="-5.726677">
        <ele>631.213</ele>
        <time>2017-09-20T09:22:52Z</time>
      </trkpt>
      <trkpt lat="41.498887" lon="-5.727665">
        <ele>631.731</ele>
        <time>2017-09-20T09:23:09Z</time>
      </trkpt>
      <trkpt lat="41.498814" lon="-5.728680">
        <ele>631.281</ele>
        <time>2017-09-20T09:23:26Z</time>
      </trkpt>
      <trkpt lat="41.498653" lon="-5.729220">
        <ele>630.745</ele>
        <time>2017-09-20T09:23:38Z</time>
      </trkpt>
      <trkpt lat="41.498601" lon="-5.729324">
        <ele>630.243</ele>
        <time>2017-09-20T09:23:41Z</time>
      </trkpt>
      <trkpt lat="41.498599" lon="-5.729366">
        <ele>630.292</ele>
        <time>2017-09-20T09:23:42Z</time>
      </trkpt>
      <trkpt lat="41.498597" lon="-5.729582">
        <ele>629.842</ele>
        <time>2017-09-20T09:23:46Z</time>
      </trkpt>
      <trkpt lat="41.498588" lon="-5.730669">
        <ele>630.794</ele>
        <time>2017-09-20T09:24:03Z</time>
      </trkpt>
      <trkpt lat="41.498540" lon="-5.731673">
        <ele>630.759</ele>
        <time>2017-09-20T09:24:19Z</time>
      </trkpt>
      <trkpt lat="41.498536" lon="-5.731729">
        <ele>630.703</ele>
        <time>2017-09-20T09:24:20Z</time>
      </trkpt>
      <trkpt lat="41.498530" lon="-5.732206">
        <ele>631.723</ele>
        <time>2017-09-20T09:24:28Z</time>
      </trkpt>
      <trkpt lat="41.498538" lon="-5.732270">
        <ele>632.208</ele>
        <time>2017-09-20T09:24:29Z</time>
      </trkpt>
      <trkpt lat="41.498592" lon="-5.733072">
        <ele>637.486</ele>
        <time>2017-09-20T09:24:45Z</time>
      </trkpt>
      <trkpt lat="41.498485" lon="-5.733635">
        <ele>638.974</ele>
        <time>2017-09-20T09:25:00Z</time>
      </trkpt>
      <trkpt lat="41.498442" lon="-5.734513">
        <ele>640.384</ele>
        <time>2017-09-20T09:25:19Z</time>
      </trkpt>
      <trkpt lat="41.498395" lon="-5.735138">
        <ele>638.468</ele>
        <time>2017-09-20T09:25:31Z</time>
      </trkpt>
      <trkpt lat="41.498390" lon="-5.735822">
        <ele>637.986</ele>
        <time>2017-09-20T09:25:46Z</time>
      </trkpt>
      <trkpt lat="41.498400" lon="-5.736554">
        <ele>638.425</ele>
        <time>2017-09-20T09:26:03Z</time>
      </trkpt>
      <trkpt lat="41.498420" lon="-5.737380">
        <ele>638.455</ele>
        <time>2017-09-20T09:26:22Z</time>
      </trkpt>
      <trkpt lat="41.498440" lon="-5.737401">
        <ele>638.417</ele>
        <time>2017-09-20T09:26:23Z</time>
      </trkpt>
      <trkpt lat="41.498543" lon="-5.737478">
        <ele>638.477</ele>
        <time>2017-09-20T09:26:36Z</time>
      </trkpt>
      <trkpt lat="41.498527" lon="-5.737499">
        <ele>637.961</ele>
        <time>2017-09-20T09:26:47Z</time>
      </trkpt>
      <trkpt lat="41.498548" lon="-5.737472">
        <ele>643.227</ele>
        <time>2017-09-20T09:27:24Z</time>
      </trkpt>
      <trkpt lat="41.498532" lon="-5.737491">
        <ele>643.208</ele>
        <time>2017-09-20T09:27:56Z</time>
      </trkpt>
      <trkpt lat="41.498547" lon="-5.737482">
        <ele>645.128</ele>
        <time>2017-09-20T09:28:22Z</time>
      </trkpt>
      <trkpt lat="41.498551" lon="-5.737471">
        <ele>643.726</ele>
        <time>2017-09-20T09:28:52Z</time>
      </trkpt>
      <trkpt lat="41.498557" lon="-5.737463">
        <ele>646.646</ele>
        <time>2017-09-20T09:29:21Z</time>
      </trkpt>
      <trkpt lat="41.498518" lon="-5.737488">
        <ele>644.280</ele>
        <time>2017-09-20T09:29:35Z</time>
      </trkpt>
      <trkpt lat="41.498513" lon="-5.737483">
        <ele>644.238</ele>
        <time>2017-09-20T09:29:36Z</time>
      </trkpt>
      <trkpt lat="41.498448" lon="-5.737452">
        <ele>642.727</ele>
        <time>2017-09-20T09:29:49Z</time>
      </trkpt>
      <trkpt lat="41.498445" lon="-5.737447">
        <ele>642.327</ele>
        <time>2017-09-20T09:29:54Z</time>
      </trkpt>
      <trkpt lat="41.498434" lon="-5.737457">
        <ele>641.879</ele>
        <time>2017-09-20T09:29:55Z</time>
      </trkpt>
      <trkpt lat="41.498425" lon="-5.737470">
        <ele>641.394</ele>
        <time>2017-09-20T09:29:56Z</time>
      </trkpt>
      <trkpt lat="41.498421" lon="-5.737495">
        <ele>641.357</ele>
        <time>2017-09-20T09:29:57Z</time>
      </trkpt>
      <trkpt lat="41.498420" lon="-5.737515">
        <ele>640.822</ele>
        <time>2017-09-20T09:29:58Z</time>
      </trkpt>
      <trkpt lat="41.498418" lon="-5.737537">
        <ele>640.808</ele>
        <time>2017-09-20T09:29:59Z</time>
      </trkpt>
      <trkpt lat="41.498411" lon="-5.738030">
        <ele>638.410</ele>
        <time>2017-09-20T09:30:08Z</time>
      </trkpt>
      <trkpt lat="41.498386" lon="-5.738840">
        <ele>636.548</ele>
        <time>2017-09-20T09:30:17Z</time>
      </trkpt>
      <trkpt lat="41.498396" lon="-5.739291">
        <ele>638.428</ele>
        <time>2017-09-20T09:30:25Z</time>
      </trkpt>
      <trkpt lat="41.498374" lon="-5.739659">
        <ele>639.432</ele>
        <time>2017-09-20T09:30:37Z</time>
      </trkpt>
      <trkpt lat="41.498338" lon="-5.739977">
        <ele>639.420</ele>
        <time>2017-09-20T09:30:48Z</time>
      </trkpt>
      <trkpt lat="41.498308" lon="-5.740186">
        <ele>639.829</ele>
        <time>2017-09-20T09:30:52Z</time>
      </trkpt>
      <trkpt lat="41.498293" lon="-5.740232">
        <ele>639.839</ele>
        <time>2017-09-20T09:30:53Z</time>
      </trkpt>
      <trkpt lat="41.498245" lon="-5.740387">
        <ele>639.881</ele>
        <time>2017-09-20T09:30:56Z</time>
      </trkpt>
      <trkpt lat="41.498232" lon="-5.740440">
        <ele>639.469</ele>
        <time>2017-09-20T09:30:57Z</time>
      </trkpt>
      <trkpt lat="41.498216" lon="-5.740496">
        <ele>639.404</ele>
        <time>2017-09-20T09:30:58Z</time>
      </trkpt>
      <trkpt lat="41.498163" lon="-5.740671">
        <ele>637.924</ele>
        <time>2017-09-20T09:31:01Z</time>
      </trkpt>
      <trkpt lat="41.498144" lon="-5.740694">
        <ele>635.008</ele>
        <time>2017-09-20T10:11:57Z</time>
      </trkpt>
      <trkpt lat="41.498134" lon="-5.740712">
        <ele>635.597</ele>
        <time>2017-09-20T10:11:58Z</time>
      </trkpt>
      <trkpt lat="41.498129" lon="-5.740742">
        <ele>636.025</ele>
        <time>2017-09-20T10:11:59Z</time>
      </trkpt>
      <trkpt lat="41.498124" lon="-5.740781">
        <ele>637.065</ele>
        <time>2017-09-20T10:12:00Z</time>
      </trkpt>
      <trkpt lat="41.498116" lon="-5.740825">
        <ele>637.499</ele>
        <time>2017-09-20T10:12:01Z</time>
      </trkpt>
      <trkpt lat="41.498110" lon="-5.740872">
        <ele>637.977</ele>
        <time>2017-09-20T10:12:02Z</time>
      </trkpt>
      <trkpt lat="41.498103" lon="-5.740919">
        <ele>638.426</ele>
        <time>2017-09-20T10:12:03Z</time>
      </trkpt>
      <trkpt lat="41.497896" lon="-5.741699">
        <ele>639.486</ele>
        <time>2017-09-20T10:12:17Z</time>
      </trkpt>
      <trkpt lat="41.497767" lon="-5.742247">
        <ele>637.938</ele>
        <time>2017-09-20T10:12:24Z</time>
      </trkpt>
      <trkpt lat="41.497770" lon="-5.742340">
        <ele>637.427</ele>
        <time>2017-09-20T10:12:25Z</time>
      </trkpt>
      <trkpt lat="41.497777" lon="-5.742432">
        <ele>637.468</ele>
        <time>2017-09-20T10:12:26Z</time>
      </trkpt>
      <trkpt lat="41.497790" lon="-5.742526">
        <ele>637.014</ele>
        <time>2017-09-20T10:12:27Z</time>
      </trkpt>
      <trkpt lat="41.497804" lon="-5.742615">
        <ele>637.008</ele>
        <time>2017-09-20T10:12:28Z</time>
      </trkpt>
      <trkpt lat="41.497869" lon="-5.743279">
        <ele>635.073</ele>
        <time>2017-09-20T10:12:35Z</time>
      </trkpt>
      <trkpt lat="41.497856" lon="-5.743373">
        <ele>634.661</ele>
        <time>2017-09-20T10:12:36Z</time>
      </trkpt>
      <trkpt lat="41.497838" lon="-5.743455">
        <ele>634.131</ele>
        <time>2017-09-20T10:12:37Z</time>
      </trkpt>
      <trkpt lat="41.497604" lon="-5.744488">
        <ele>634.145</ele>
        <time>2017-09-20T10:12:51Z</time>
      </trkpt>
      <trkpt lat="41.497350" lon="-5.745651">
        <ele>633.683</ele>
        <time>2017-09-20T10:13:07Z</time>
      </trkpt>
      <trkpt lat="41.497326" lon="-5.746688">
        <ele>634.122</ele>
        <time>2017-09-20T10:13:22Z</time>
      </trkpt>
      <trkpt lat="41.497349" lon="-5.746860">
        <ele>634.652</ele>
        <time>2017-09-20T10:13:25Z</time>
      </trkpt>
      <trkpt lat="41.497361" lon="-5.746913">
        <ele>634.684</ele>
        <time>2017-09-20T10:13:26Z</time>
      </trkpt>
      <trkpt lat="41.497554" lon="-5.747534">
        <ele>634.678</ele>
        <time>2017-09-20T10:13:40Z</time>
      </trkpt>
      <trkpt lat="41.497819" lon="-5.748069">
        <ele>635.533</ele>
        <time>2017-09-20T10:13:55Z</time>
      </trkpt>
      <trkpt lat="41.497759" lon="-5.748985">
        <ele>633.626</ele>
        <time>2017-09-20T10:14:10Z</time>
      </trkpt>
      <trkpt lat="41.497709" lon="-5.749584">
        <ele>633.608</ele>
        <time>2017-09-20T10:14:19Z</time>
      </trkpt>
      <trkpt lat="41.497286" lon="-5.750650">
        <ele>633.118</ele>
        <time>2017-09-20T10:14:35Z</time>
      </trkpt>
      <trkpt lat="41.496558" lon="-5.751572">
        <ele>631.236</ele>
        <time>2017-09-20T10:14:51Z</time>
      </trkpt>
      <trkpt lat="41.495797" lon="-5.752478">
        <ele>630.216</ele>
        <time>2017-09-20T10:15:08Z</time>
      </trkpt>
      <trkpt lat="41.495444" lon="-5.752966">
        <ele>630.730</ele>
        <time>2017-09-20T10:15:18Z</time>
      </trkpt>
      <trkpt lat="41.495430" lon="-5.753027">
        <ele>630.728</ele>
        <time>2017-09-20T10:15:19Z</time>
      </trkpt>
      <trkpt lat="41.495422" lon="-5.753088">
        <ele>630.747</ele>
        <time>2017-09-20T10:15:20Z</time>
      </trkpt>
      <trkpt lat="41.495413" lon="-5.753150">
        <ele>630.717</ele>
        <time>2017-09-20T10:15:21Z</time>
      </trkpt>
      <trkpt lat="41.495395" lon="-5.753211">
        <ele>630.749</ele>
        <time>2017-09-20T10:15:22Z</time>
      </trkpt>
      <trkpt lat="41.495369" lon="-5.753264">
        <ele>630.732</ele>
        <time>2017-09-20T10:15:23Z</time>
      </trkpt>
      <trkpt lat="41.495329" lon="-5.753318">
        <ele>630.792</ele>
        <time>2017-09-20T10:15:24Z</time>
      </trkpt>
      <trkpt lat="41.495295" lon="-5.753364">
        <ele>630.711</ele>
        <time>2017-09-20T10:15:25Z</time>
      </trkpt>
      <trkpt lat="41.495266" lon="-5.753409">
        <ele>631.208</ele>
        <time>2017-09-20T10:15:26Z</time>
      </trkpt>
      <trkpt lat="41.495238" lon="-5.753468">
        <ele>631.244</ele>
        <time>2017-09-20T10:15:27Z</time>
      </trkpt>
      <trkpt lat="41.495217" lon="-5.753526">
        <ele>631.232</ele>
        <time>2017-09-20T10:15:28Z</time>
      </trkpt>
      <trkpt lat="41.494852" lon="-5.754593">
        <ele>632.262</ele>
        <time>2017-09-20T10:15:45Z</time>
      </trkpt>
      <trkpt lat="41.494612" lon="-5.755251">
        <ele>633.136</ele>
        <time>2017-09-20T10:15:57Z</time>
      </trkpt>
      <trkpt lat="41.494302" lon="-5.755929">
        <ele>634.664</ele>
        <time>2017-09-20T10:16:10Z</time>
      </trkpt>
      <trkpt lat="41.494292" lon="-5.755979">
        <ele>634.693</ele>
        <time>2017-09-20T10:16:11Z</time>
      </trkpt>
      <trkpt lat="41.494291" lon="-5.756027">
        <ele>634.653</ele>
        <time>2017-09-20T10:16:12Z</time>
      </trkpt>
      <trkpt lat="41.494305" lon="-5.756081">
        <ele>635.095</ele>
        <time>2017-09-20T10:16:13Z</time>
      </trkpt>
      <trkpt lat="41.494324" lon="-5.756128">
        <ele>635.089</ele>
        <time>2017-09-20T10:16:14Z</time>
      </trkpt>
      <trkpt lat="41.494419" lon="-5.756387">
        <ele>634.106</ele>
        <time>2017-09-20T10:16:20Z</time>
      </trkpt>
      <trkpt lat="41.494409" lon="-5.756440">
        <ele>634.126</ele>
        <time>2017-09-20T10:16:21Z</time>
      </trkpt>
      <trkpt lat="41.494388" lon="-5.756502">
        <ele>634.108</ele>
        <time>2017-09-20T10:16:22Z</time>
      </trkpt>
      <trkpt lat="41.494359" lon="-5.756557">
        <ele>634.149</ele>
        <time>2017-09-20T10:16:23Z</time>
      </trkpt>
      <trkpt lat="41.494324" lon="-5.756602">
        <ele>633.647</ele>
        <time>2017-09-20T10:16:24Z</time>
      </trkpt>
      <trkpt lat="41.494282" lon="-5.756635">
        <ele>634.197</ele>
        <time>2017-09-20T10:16:25Z</time>
      </trkpt>
      <trkpt lat="41.494233" lon="-5.756652">
        <ele>634.181</ele>
        <time>2017-09-20T10:16:26Z</time>
      </trkpt>
      <trkpt lat="41.494178" lon="-5.756647">
        <ele>634.199</ele>
        <time>2017-09-20T10:16:27Z</time>
      </trkpt>
      <trkpt lat="41.494132" lon="-5.756627">
        <ele>634.158</ele>
        <time>2017-09-20T10:16:28Z</time>
      </trkpt>
      <trkpt lat="41.494089" lon="-5.756593">
        <ele>633.638</ele>
        <time>2017-09-20T10:16:29Z</time>
      </trkpt>
      <trkpt lat="41.494045" lon="-5.756553">
        <ele>633.610</ele>
        <time>2017-09-20T10:16:30Z</time>
      </trkpt>
      <trkpt lat="41.493950" lon="-5.756485">
        <ele>633.158</ele>
        <time>2017-09-20T10:16:32Z</time>
      </trkpt>
      <trkpt lat="41.493894" lon="-5.756475">
        <ele>632.652</ele>
        <time>2017-09-20T10:16:33Z</time>
      </trkpt>
      <trkpt lat="41.493788" lon="-5.756511">
        <ele>632.217</ele>
        <time>2017-09-20T10:16:35Z</time>
      </trkpt>
      <trkpt lat="41.493724" lon="-5.756556">
        <ele>631.708</ele>
        <time>2017-09-20T10:16:36Z</time>
      </trkpt>
      <trkpt lat="41.493294" lon="-5.756858">
        <ele>630.776</ele>
        <time>2017-09-20T10:16:43Z</time>
      </trkpt>
      <trkpt lat="41.493239" lon="-5.756914">
        <ele>631.234</ele>
        <time>2017-09-20T10:16:44Z</time>
      </trkpt>
      <trkpt lat="41.492811" lon="-5.757416">
        <ele>631.744</ele>
        <time>2017-09-20T10:16:55Z</time>
      </trkpt>
      <trkpt lat="41.492778" lon="-5.757472">
        <ele>631.788</ele>
        <time>2017-09-20T10:16:56Z</time>
      </trkpt>
      <trkpt lat="41.492755" lon="-5.757525">
        <ele>631.796</ele>
        <time>2017-09-20T10:16:57Z</time>
      </trkpt>
      <trkpt lat="41.492731" lon="-5.757596">
        <ele>631.765</ele>
        <time>2017-09-20T10:16:58Z</time>
      </trkpt>
      <trkpt lat="41.492715" lon="-5.757657">
        <ele>631.765</ele>
        <time>2017-09-20T10:16:59Z</time>
      </trkpt>
      <trkpt lat="41.492707" lon="-5.757716">
        <ele>631.747</ele>
        <time>2017-09-20T10:17:00Z</time>
      </trkpt>
      <trkpt lat="41.492698" lon="-5.757773">
        <ele>631.797</ele>
        <time>2017-09-20T10:17:01Z</time>
      </trkpt>
      <trkpt lat="41.492609" lon="-5.758685">
        <ele>633.623</ele>
        <time>2017-09-20T10:17:17Z</time>
      </trkpt>
      <trkpt lat="41.492586" lon="-5.759447">
        <ele>635.525</ele>
        <time>2017-09-20T10:17:34Z</time>
      </trkpt>
      <trkpt lat="41.492625" lon="-5.760033">
        <ele>637.408</ele>
        <time>2017-09-20T10:17:49Z</time>
      </trkpt>
      <trkpt lat="41.492769" lon="-5.760573">
        <ele>641.350</ele>
        <time>2017-09-20T10:18:06Z</time>
      </trkpt>
      <trkpt lat="41.492809" lon="-5.760702">
        <ele>646.698</ele>
        <time>2017-09-20T10:18:13Z</time>
      </trkpt>
      <trkpt lat="41.492817" lon="-5.760730">
        <ele>647.178</ele>
        <time>2017-09-20T10:18:14Z</time>
      </trkpt>
      <trkpt lat="41.492826" lon="-5.760752">
        <ele>647.532</ele>
        <time>2017-09-20T10:18:15Z</time>
      </trkpt>
      <trkpt lat="41.492835" lon="-5.760775">
        <ele>648.080</ele>
        <time>2017-09-20T10:18:16Z</time>
      </trkpt>
      <trkpt lat="41.492841" lon="-5.760798">
        <ele>648.559</ele>
        <time>2017-09-20T10:18:17Z</time>
      </trkpt>
      <trkpt lat="41.492847" lon="-5.760824">
        <ele>649.569</ele>
        <time>2017-09-20T10:18:18Z</time>
      </trkpt>
      <trkpt lat="41.492855" lon="-5.760846">
        <ele>649.581</ele>
        <time>2017-09-20T10:18:19Z</time>
      </trkpt>
      <trkpt lat="41.492862" lon="-5.760871">
        <ele>649.968</ele>
        <time>2017-09-20T10:18:20Z</time>
      </trkpt>
      <trkpt lat="41.492869" lon="-5.760891">
        <ele>650.442</ele>
        <time>2017-09-20T10:18:21Z</time>
      </trkpt>
      <trkpt lat="41.492878" lon="-5.760913">
        <ele>650.426</ele>
        <time>2017-09-20T10:18:22Z</time>
      </trkpt>
      <trkpt lat="41.492915" lon="-5.761021">
        <ele>648.508</ele>
        <time>2017-09-20T10:18:23Z</time>
      </trkpt>
      <trkpt lat="41.493163" lon="-5.761817">
        <ele>641.397</ele>
        <time>2017-09-20T10:18:37Z</time>
      </trkpt>
      <trkpt lat="41.493450" lon="-5.762633">
        <ele>640.355</ele>
        <time>2017-09-20T10:18:55Z</time>
      </trkpt>
      <trkpt lat="41.493455" lon="-5.762712">
        <ele>641.325</ele>
        <time>2017-09-20T10:18:57Z</time>
      </trkpt>
      <trkpt lat="41.493449" lon="-5.762737">
        <ele>641.339</ele>
        <time>2017-09-20T10:18:58Z</time>
      </trkpt>
      <trkpt lat="41.493437" lon="-5.762765">
        <ele>641.827</ele>
        <time>2017-09-20T10:18:59Z</time>
      </trkpt>
      <trkpt lat="41.493424" lon="-5.762785">
        <ele>641.846</ele>
        <time>2017-09-20T10:19:00Z</time>
      </trkpt>
      <trkpt lat="41.493405" lon="-5.762806">
        <ele>641.836</ele>
        <time>2017-09-20T10:19:01Z</time>
      </trkpt>
      <trkpt lat="41.493222" lon="-5.763121">
        <ele>643.748</ele>
        <time>2017-09-20T10:19:16Z</time>
      </trkpt>
      <trkpt lat="41.493161" lon="-5.763402">
        <ele>646.611</ele>
        <time>2017-09-20T10:19:29Z</time>
      </trkpt>
      <trkpt lat="41.493150" lon="-5.763678">
        <ele>649.921</ele>
        <time>2017-09-20T10:19:43Z</time>
      </trkpt>
      <trkpt lat="41.493148" lon="-5.763736">
        <ele>650.403</ele>
        <time>2017-09-20T10:19:46Z</time>
      </trkpt>
      <trkpt lat="41.493143" lon="-5.763754">
        <ele>650.908</ele>
        <time>2017-09-20T10:19:47Z</time>
      </trkpt>
      <trkpt lat="41.493086" lon="-5.764038">
        <ele>653.822</ele>
        <time>2017-09-20T10:20:02Z</time>
      </trkpt>
      <trkpt lat="41.493010" lon="-5.764305">
        <ele>656.270</ele>
        <time>2017-09-20T10:20:17Z</time>
      </trkpt>
      <trkpt lat="41.492925" lon="-5.764536">
        <ele>659.180</ele>
        <time>2017-09-20T10:20:31Z</time>
      </trkpt>
      <trkpt lat="41.492837" lon="-5.764765">
        <ele>661.014</ele>
        <time>2017-09-20T10:20:46Z</time>
      </trkpt>
      <trkpt lat="41.492821" lon="-5.764816">
        <ele>661.512</ele>
        <time>2017-09-20T10:20:49Z</time>
      </trkpt>
      <trkpt lat="41.492809" lon="-5.764849">
        <ele>662.081</ele>
        <time>2017-09-20T10:20:51Z</time>
      </trkpt>
      <trkpt lat="41.492745" lon="-5.765139">
        <ele>663.451</ele>
        <time>2017-09-20T10:21:07Z</time>
      </trkpt>
      <trkpt lat="41.492668" lon="-5.765431">
        <ele>664.853</ele>
        <time>2017-09-20T10:21:24Z</time>
      </trkpt>
      <trkpt lat="41.492610" lon="-5.765559">
        <ele>665.864</ele>
        <time>2017-09-20T10:21:33Z</time>
      </trkpt>
      <trkpt lat="41.492611" lon="-5.765579">
        <ele>665.806</ele>
        <time>2017-09-20T10:21:34Z</time>
      </trkpt>
      <trkpt lat="41.492610" lon="-5.765599">
        <ele>665.816</ele>
        <time>2017-09-20T10:21:35Z</time>
      </trkpt>
      <trkpt lat="41.492606" lon="-5.765618">
        <ele>665.808</ele>
        <time>2017-09-20T10:21:36Z</time>
      </trkpt>
      <trkpt lat="41.492600" lon="-5.765636">
        <ele>665.837</ele>
        <time>2017-09-20T10:21:37Z</time>
      </trkpt>
      <trkpt lat="41.492591" lon="-5.765651">
        <ele>665.865</ele>
        <time>2017-09-20T10:21:38Z</time>
      </trkpt>
      <trkpt lat="41.492580" lon="-5.765665">
        <ele>665.885</ele>
        <time>2017-09-20T10:21:39Z</time>
      </trkpt>
      <trkpt lat="41.492570" lon="-5.765676">
        <ele>665.869</ele>
        <time>2017-09-20T10:21:40Z</time>
      </trkpt>
      <trkpt lat="41.492559" lon="-5.765685">
        <ele>665.837</ele>
        <time>2017-09-20T10:21:41Z</time>
      </trkpt>
      <trkpt lat="41.492530" lon="-5.765714">
        <ele>665.816</ele>
        <time>2017-09-20T10:21:52Z</time>
      </trkpt>
      <trkpt lat="41.492531" lon="-5.765729">
        <ele>665.826</ele>
        <time>2017-09-20T10:22:01Z</time>
      </trkpt>
      <trkpt lat="41.492530" lon="-5.765746">
        <ele>665.898</ele>
        <time>2017-09-20T10:22:02Z</time>
      </trkpt>
      <trkpt lat="41.492529" lon="-5.765767">
        <ele>666.399</ele>
        <time>2017-09-20T10:22:03Z</time>
      </trkpt>
      <trkpt lat="41.492530" lon="-5.765786">
        <ele>666.307</ele>
        <time>2017-09-20T10:22:04Z</time>
      </trkpt>
      <trkpt lat="41.492529" lon="-5.765804">
        <ele>666.327</ele>
        <time>2017-09-20T10:22:05Z</time>
      </trkpt>
      <trkpt lat="41.492526" lon="-5.765822">
        <ele>666.308</ele>
        <time>2017-09-20T10:22:06Z</time>
      </trkpt>
      <trkpt lat="41.492484" lon="-5.766231">
        <ele>666.880</ele>
        <time>2017-09-20T10:22:20Z</time>
      </trkpt>
      <trkpt lat="41.492386" lon="-5.766692">
        <ele>668.758</ele>
        <time>2017-09-20T10:22:34Z</time>
      </trkpt>
      <trkpt lat="41.492244" lon="-5.767077">
        <ele>669.758</ele>
        <time>2017-09-20T10:22:47Z</time>
      </trkpt>
      <trkpt lat="41.492117" lon="-5.767687">
        <ele>671.152</ele>
        <time>2017-09-20T10:23:04Z</time>
      </trkpt>
      <trkpt lat="41.492035" lon="-5.768227">
        <ele>672.580</ele>
        <time>2017-09-20T10:23:18Z</time>
      </trkpt>
      <trkpt lat="41.491968" lon="-5.768797">
        <ele>673.549</ele>
        <time>2017-09-20T10:23:33Z</time>
      </trkpt>
      <trkpt lat="41.491795" lon="-5.769353">
        <ele>669.719</ele>
        <time>2017-09-20T10:23:43Z</time>
      </trkpt>
      <trkpt lat="41.491753" lon="-5.769501">
        <ele>668.741</ele>
        <time>2017-09-20T10:23:45Z</time>
      </trkpt>
      <trkpt lat="41.491435" lon="-5.770435">
        <ele>664.421</ele>
        <time>2017-09-20T10:23:56Z</time>
      </trkpt>
      <trkpt lat="41.491025" lon="-5.771677">
        <ele>662.941</ele>
        <time>2017-09-20T10:24:11Z</time>
      </trkpt>
      <trkpt lat="41.491011" lon="-5.771756">
        <ele>662.905</ele>
        <time>2017-09-20T10:24:12Z</time>
      </trkpt>
      <trkpt lat="41.490833" lon="-5.773053">
        <ele>662.408</ele>
        <time>2017-09-20T10:24:30Z</time>
      </trkpt>
      <trkpt lat="41.490799" lon="-5.773547">
        <ele>663.463</ele>
        <time>2017-09-20T10:24:38Z</time>
      </trkpt>
      <trkpt lat="41.490742" lon="-5.774131">
        <ele>664.431</ele>
        <time>2017-09-20T10:24:53Z</time>
      </trkpt>
      <trkpt lat="41.490620" lon="-5.774770">
        <ele>658.621</ele>
        <time>2017-09-20T10:25:03Z</time>
      </trkpt>
      <trkpt lat="41.490533" lon="-5.775459">
        <ele>651.925</ele>
        <time>2017-09-20T10:25:14Z</time>
      </trkpt>
      <trkpt lat="41.490645" lon="-5.775836">
        <ele>649.093</ele>
        <time>2017-09-20T10:25:24Z</time>
      </trkpt>
      <trkpt lat="41.490834" lon="-5.776824">
        <ele>647.112</ele>
        <time>2017-09-20T10:25:38Z</time>
      </trkpt>
      <trkpt lat="41.490844" lon="-5.777705">
        <ele>647.542</ele>
        <time>2017-09-20T10:25:53Z</time>
      </trkpt>
      <trkpt lat="41.490796" lon="-5.778412">
        <ele>649.594</ele>
        <time>2017-09-20T10:26:09Z</time>
      </trkpt>
      <trkpt lat="41.490754" lon="-5.778886">
        <ele>651.432</ele>
        <time>2017-09-20T10:26:24Z</time>
      </trkpt>
      <trkpt lat="41.490729" lon="-5.779269">
        <ele>652.392</ele>
        <time>2017-09-20T10:26:38Z</time>
      </trkpt>
      <trkpt lat="41.490682" lon="-5.779659">
        <ele>654.311</ele>
        <time>2017-09-20T10:26:53Z</time>
      </trkpt>
      <trkpt lat="41.490627" lon="-5.780038">
        <ele>655.208</ele>
        <time>2017-09-20T10:27:09Z</time>
      </trkpt>
      <trkpt lat="41.490546" lon="-5.780423">
        <ele>656.234</ele>
        <time>2017-09-20T10:27:26Z</time>
      </trkpt>
      <trkpt lat="41.490450" lon="-5.780874">
        <ele>657.282</ele>
        <time>2017-09-20T10:27:45Z</time>
      </trkpt>
      <trkpt lat="41.490365" lon="-5.781337">
        <ele>658.172</ele>
        <time>2017-09-20T10:28:01Z</time>
      </trkpt>
      <trkpt lat="41.490249" lon="-5.781819">
        <ele>659.166</ele>
        <time>2017-09-20T10:28:17Z</time>
      </trkpt>
      <trkpt lat="41.490107" lon="-5.782337">
        <ele>659.664</ele>
        <time>2017-09-20T10:28:33Z</time>
      </trkpt>
      <trkpt lat="41.489922" lon="-5.782929">
        <ele>660.023</ele>
        <time>2017-09-20T10:28:50Z</time>
      </trkpt>
      <trkpt lat="41.489857" lon="-5.783228">
        <ele>660.053</ele>
        <time>2017-09-20T10:29:01Z</time>
      </trkpt>
      <trkpt lat="41.489838" lon="-5.783327">
        <ele>660.035</ele>
        <time>2017-09-20T10:29:15Z</time>
      </trkpt>
      <trkpt lat="41.489832" lon="-5.783326">
        <ele>659.696</ele>
        <time>2017-09-20T10:29:44Z</time>
      </trkpt>
      <trkpt lat="41.489831" lon="-5.783324">
        <ele>658.631</ele>
        <time>2017-09-20T10:32:35Z</time>
      </trkpt>
      <trkpt lat="41.489839" lon="-5.783335">
        <ele>659.124</ele>
        <time>2017-09-20T10:32:59Z</time>
      </trkpt>
      <trkpt lat="41.489805" lon="-5.783549">
        <ele>659.108</ele>
        <time>2017-09-20T10:33:13Z</time>
      </trkpt>
      <trkpt lat="41.489710" lon="-5.784224">
        <ele>655.770</ele>
        <time>2017-09-20T10:33:27Z</time>
      </trkpt>
      <trkpt lat="41.489529" lon="-5.785134">
        <ele>654.888</ele>
        <time>2017-09-20T10:33:42Z</time>
      </trkpt>
      <trkpt lat="41.489407" lon="-5.785788">
        <ele>656.788</ele>
        <time>2017-09-20T10:33:58Z</time>
      </trkpt>
      <trkpt lat="41.489309" lon="-5.786476">
        <ele>658.632</ele>
        <time>2017-09-20T10:34:16Z</time>
      </trkpt>
      <trkpt lat="41.489219" lon="-5.787105">
        <ele>658.690</ele>
        <time>2017-09-20T10:34:32Z</time>
      </trkpt>
      <trkpt lat="41.489160" lon="-5.787703">
        <ele>658.139</ele>
        <time>2017-09-20T10:34:47Z</time>
      </trkpt>
      <trkpt lat="41.489052" lon="-5.788289">
        <ele>658.659</ele>
        <time>2017-09-20T10:35:02Z</time>
      </trkpt>
      <trkpt lat="41.488869" lon="-5.788964">
        <ele>659.141</ele>
        <time>2017-09-20T10:35:21Z</time>
      </trkpt>
      <trkpt lat="41.488685" lon="-5.789527">
        <ele>660.036</ele>
        <time>2017-09-20T10:35:37Z</time>
      </trkpt>
      <trkpt lat="41.488512" lon="-5.790084">
        <ele>661.017</ele>
        <time>2017-09-20T10:35:53Z</time>
      </trkpt>
      <trkpt lat="41.488345" lon="-5.790668">
        <ele>661.018</ele>
        <time>2017-09-20T10:36:09Z</time>
      </trkpt>
      <trkpt lat="41.488204" lon="-5.791230">
        <ele>660.508</ele>
        <time>2017-09-20T10:36:24Z</time>
      </trkpt>
      <trkpt lat="41.488006" lon="-5.791759">
        <ele>660.544</ele>
        <time>2017-09-20T10:36:40Z</time>
      </trkpt>
      <trkpt lat="41.487805" lon="-5.792166">
        <ele>659.612</ele>
        <time>2017-09-20T10:36:54Z</time>
      </trkpt>
      <trkpt lat="41.487354" lon="-5.792581">
        <ele>656.752</ele>
        <time>2017-09-20T10:37:09Z</time>
      </trkpt>
      <trkpt lat="41.486993" lon="-5.792979">
        <ele>650.966</ele>
        <time>2017-09-20T10:37:22Z</time>
      </trkpt>
      <trkpt lat="41.486581" lon="-5.793710">
        <ele>644.274</ele>
        <time>2017-09-20T10:37:39Z</time>
      </trkpt>
      <trkpt lat="41.486563" lon="-5.793769">
        <ele>644.283</ele>
        <time>2017-09-20T10:37:40Z</time>
      </trkpt>
      <trkpt lat="41.486507" lon="-5.793938">
        <ele>643.743</ele>
        <time>2017-09-20T10:37:43Z</time>
      </trkpt>
      <trkpt lat="41.486261" lon="-5.794986">
        <ele>640.835</ele>
        <time>2017-09-20T10:38:00Z</time>
      </trkpt>
      <trkpt lat="41.485863" lon="-5.795800">
        <ele>639.499</ele>
        <time>2017-09-20T10:38:17Z</time>
      </trkpt>
      <trkpt lat="41.485622" lon="-5.796468">
        <ele>638.407</ele>
        <time>2017-09-20T10:38:33Z</time>
      </trkpt>
      <trkpt lat="41.485552" lon="-5.797103">
        <ele>638.427</ele>
        <time>2017-09-20T10:38:47Z</time>
      </trkpt>
      <trkpt lat="41.485556" lon="-5.797972">
        <ele>637.408</ele>
        <time>2017-09-20T10:39:05Z</time>
      </trkpt>
      <trkpt lat="41.485542" lon="-5.798070">
        <ele>637.490</ele>
        <time>2017-09-20T10:39:15Z</time>
      </trkpt>
      <trkpt lat="41.485527" lon="-5.798224">
        <ele>637.058</ele>
        <time>2017-09-20T10:39:37Z</time>
      </trkpt>
      <trkpt lat="41.485416" lon="-5.798632">
        <ele>637.978</ele>
        <time>2017-09-20T10:39:49Z</time>
      </trkpt>
      <trkpt lat="41.485314" lon="-5.799147">
        <ele>638.442</ele>
        <time>2017-09-20T10:40:04Z</time>
      </trkpt>
      <trkpt lat="41.485264" lon="-5.799682">
        <ele>639.890</ele>
        <time>2017-09-20T10:40:19Z</time>
      </trkpt>
      <trkpt lat="41.485184" lon="-5.800292">
        <ele>641.879</ele>
        <time>2017-09-20T10:40:36Z</time>
      </trkpt>
      <trkpt lat="41.485079" lon="-5.800739">
        <ele>643.249</ele>
        <time>2017-09-20T10:40:51Z</time>
      </trkpt>
      <trkpt lat="41.484974" lon="-5.801262">
        <ele>644.241</ele>
        <time>2017-09-20T10:41:09Z</time>
      </trkpt>
      <trkpt lat="41.484867" lon="-5.801636">
        <ele>645.176</ele>
        <time>2017-09-20T10:41:24Z</time>
      </trkpt>
      <trkpt lat="41.484741" lon="-5.802066">
        <ele>646.690</ele>
        <time>2017-09-20T10:41:42Z</time>
      </trkpt>
      <trkpt lat="41.484604" lon="-5.802468">
        <ele>648.019</ele>
        <time>2017-09-20T10:41:59Z</time>
      </trkpt>
      <trkpt lat="41.484504" lon="-5.802812">
        <ele>649.908</ele>
        <time>2017-09-20T10:42:14Z</time>
      </trkpt>
      <trkpt lat="41.484415" lon="-5.803160">
        <ele>650.958</ele>
        <time>2017-09-20T10:42:29Z</time>
      </trkpt>
      <trkpt lat="41.484410" lon="-5.803188">
        <ele>650.936</ele>
        <time>2017-09-20T10:42:30Z</time>
      </trkpt>
      <trkpt lat="41.484408" lon="-5.803214">
        <ele>650.936</ele>
        <time>2017-09-20T10:42:31Z</time>
      </trkpt>
      <trkpt lat="41.484403" lon="-5.803241">
        <ele>650.910</ele>
        <time>2017-09-20T10:42:32Z</time>
      </trkpt>
      <trkpt lat="41.484396" lon="-5.803267">
        <ele>651.468</ele>
        <time>2017-09-20T10:42:33Z</time>
      </trkpt>
      <trkpt lat="41.484392" lon="-5.803290">
        <ele>651.457</ele>
        <time>2017-09-20T10:42:34Z</time>
      </trkpt>
      <trkpt lat="41.484385" lon="-5.803316">
        <ele>651.437</ele>
        <time>2017-09-20T10:42:35Z</time>
      </trkpt>
      <trkpt lat="41.484376" lon="-5.803339">
        <ele>651.429</ele>
        <time>2017-09-20T10:42:36Z</time>
      </trkpt>
      <trkpt lat="41.484312" lon="-5.803714">
        <ele>653.383</ele>
        <time>2017-09-20T10:42:52Z</time>
      </trkpt>
      <trkpt lat="41.484274" lon="-5.804061">
        <ele>653.825</ele>
        <time>2017-09-20T10:43:07Z</time>
      </trkpt>
      <trkpt lat="41.484257" lon="-5.804435">
        <ele>654.317</ele>
        <time>2017-09-20T10:43:22Z</time>
      </trkpt>
      <trkpt lat="41.484257" lon="-5.804811">
        <ele>654.308</ele>
        <time>2017-09-20T10:43:36Z</time>
      </trkpt>
      <trkpt lat="41.484270" lon="-5.805168">
        <ele>654.839</ele>
        <time>2017-09-20T10:43:50Z</time>
      </trkpt>
      <trkpt lat="41.484301" lon="-5.805580">
        <ele>654.857</ele>
        <time>2017-09-20T10:44:04Z</time>
      </trkpt>
      <trkpt lat="41.484312" lon="-5.805892">
        <ele>655.227</ele>
        <time>2017-09-20T10:44:15Z</time>
      </trkpt>
      <trkpt lat="41.484347" lon="-5.806391">
        <ele>654.841</ele>
        <time>2017-09-20T10:44:30Z</time>
      </trkpt>
      <trkpt lat="41.484415" lon="-5.806784">
        <ele>654.369</ele>
        <time>2017-09-20T10:44:44Z</time>
      </trkpt>
      <trkpt lat="41.484415" lon="-5.806808">
        <ele>654.358</ele>
        <time>2017-09-20T10:44:45Z</time>
      </trkpt>
      <trkpt lat="41.484409" lon="-5.806837">
        <ele>654.358</ele>
        <time>2017-09-20T10:44:46Z</time>
      </trkpt>
      <trkpt lat="41.484395" lon="-5.806859">
        <ele>654.820</ele>
        <time>2017-09-20T10:44:47Z</time>
      </trkpt>
      <trkpt lat="41.484375" lon="-5.806872">
        <ele>654.845</ele>
        <time>2017-09-20T10:44:48Z</time>
      </trkpt>
      <trkpt lat="41.484357" lon="-5.806868">
        <ele>654.847</ele>
        <time>2017-09-20T10:44:49Z</time>
      </trkpt>
      <trkpt lat="41.484342" lon="-5.806855">
        <ele>655.211</ele>
        <time>2017-09-20T10:44:50Z</time>
      </trkpt>
      <trkpt lat="41.484329" lon="-5.806836">
        <ele>655.208</ele>
        <time>2017-09-20T10:44:51Z</time>
      </trkpt>
      <trkpt lat="41.484319" lon="-5.806811">
        <ele>655.285</ele>
        <time>2017-09-20T10:44:52Z</time>
      </trkpt>
      <trkpt lat="41.484309" lon="-5.806787">
        <ele>655.243</ele>
        <time>2017-09-20T10:44:53Z</time>
      </trkpt>
      <trkpt lat="41.484297" lon="-5.806758">
        <ele>655.723</ele>
        <time>2017-09-20T10:44:54Z</time>
      </trkpt>
      <trkpt lat="41.484174" lon="-5.806399">
        <ele>655.737</ele>
        <time>2017-09-20T10:45:06Z</time>
      </trkpt>
      <trkpt lat="41.484054" lon="-5.805812">
        <ele>655.235</ele>
        <time>2017-09-20T10:45:22Z</time>
      </trkpt>
      <trkpt lat="41.483915" lon="-5.805146">
        <ele>654.864</ele>
        <time>2017-09-20T10:45:39Z</time>
      </trkpt>
      <trkpt lat="41.483658" lon="-5.804536">
        <ele>654.874</ele>
        <time>2017-09-20T10:45:58Z</time>
      </trkpt>
      <trkpt lat="41.483470" lon="-5.804008">
        <ele>654.866</ele>
        <time>2017-09-20T10:46:13Z</time>
      </trkpt>
      <trkpt lat="41.483239" lon="-5.803371">
        <ele>653.828</ele>
        <time>2017-09-20T10:46:29Z</time>
      </trkpt>
      <trkpt lat="41.483016" lon="-5.802676">
        <ele>651.989</ele>
        <time>2017-09-20T10:46:45Z</time>
      </trkpt>
      <trkpt lat="41.482868" lon="-5.802378">
        <ele>651.417</ele>
        <time>2017-09-20T10:46:51Z</time>
      </trkpt>
      <trkpt lat="41.482807" lon="-5.802290">
        <ele>650.908</ele>
        <time>2017-09-20T10:46:53Z</time>
      </trkpt>
      <trkpt lat="41.482775" lon="-5.802247">
        <ele>650.923</ele>
        <time>2017-09-20T10:46:54Z</time>
      </trkpt>
      <trkpt lat="41.482745" lon="-5.802206">
        <ele>650.971</ele>
        <time>2017-09-20T10:46:55Z</time>
      </trkpt>
      <trkpt lat="41.482714" lon="-5.802172">
        <ele>650.951</ele>
        <time>2017-09-20T10:46:56Z</time>
      </trkpt>
      <trkpt lat="41.482686" lon="-5.802154">
        <ele>651.465</ele>
        <time>2017-09-20T10:46:57Z</time>
      </trkpt>
      <trkpt lat="41.482662" lon="-5.802149">
        <ele>651.423</ele>
        <time>2017-09-20T10:46:58Z</time>
      </trkpt>
      <trkpt lat="41.482638" lon="-5.802149">
        <ele>651.472</ele>
        <time>2017-09-20T10:46:59Z</time>
      </trkpt>
      <trkpt lat="41.482621" lon="-5.802149">
        <ele>651.982</ele>
        <time>2017-09-20T10:47:00Z</time>
      </trkpt>
      <trkpt lat="41.482601" lon="-5.802153">
        <ele>651.974</ele>
        <time>2017-09-20T10:47:01Z</time>
      </trkpt>
      <trkpt lat="41.482586" lon="-5.802161">
        <ele>651.913</ele>
        <time>2017-09-20T10:47:02Z</time>
      </trkpt>
      <trkpt lat="41.482579" lon="-5.802172">
        <ele>651.443</ele>
        <time>2017-09-20T10:47:03Z</time>
      </trkpt>
      <trkpt lat="41.482570" lon="-5.802193">
        <ele>651.407</ele>
        <time>2017-09-20T10:47:04Z</time>
      </trkpt>
      <trkpt lat="41.482562" lon="-5.802217">
        <ele>651.408</ele>
        <time>2017-09-20T10:47:05Z</time>
      </trkpt>
      <trkpt lat="41.482399" lon="-5.802564">
        <ele>652.372</ele>
        <time>2017-09-20T10:47:22Z</time>
      </trkpt>
      <trkpt lat="41.482243" lon="-5.802810">
        <ele>653.890</ele>
        <time>2017-09-20T10:47:37Z</time>
      </trkpt>
      <trkpt lat="41.482131" lon="-5.803107">
        <ele>655.780</ele>
        <time>2017-09-20T10:47:54Z</time>
      </trkpt>
      <trkpt lat="41.481996" lon="-5.803383">
        <ele>657.674</ele>
        <time>2017-09-20T10:48:10Z</time>
      </trkpt>
      <trkpt lat="41.481864" lon="-5.803629">
        <ele>659.162</ele>
        <time>2017-09-20T10:48:26Z</time>
      </trkpt>
      <trkpt lat="41.481713" lon="-5.803873">
        <ele>660.561</ele>
        <time>2017-09-20T10:48:43Z</time>
      </trkpt>
      <trkpt lat="41.481535" lon="-5.804166">
        <ele>661.521</ele>
        <time>2017-09-20T10:49:00Z</time>
      </trkpt>
      <trkpt lat="41.481355" lon="-5.804439">
        <ele>662.993</ele>
        <time>2017-09-20T10:49:16Z</time>
      </trkpt>
      <trkpt lat="41.481180" lon="-5.804676">
        <ele>663.975</ele>
        <time>2017-09-20T10:49:31Z</time>
      </trkpt>
      <trkpt lat="41.480986" lon="-5.804919">
        <ele>664.828</ele>
        <time>2017-09-20T10:49:47Z</time>
      </trkpt>
      <trkpt lat="41.480807" lon="-5.805194">
        <ele>666.820</ele>
        <time>2017-09-20T10:50:03Z</time>
      </trkpt>
      <trkpt lat="41.480651" lon="-5.805529">
        <ele>668.208</ele>
        <time>2017-09-20T10:50:20Z</time>
      </trkpt>
      <trkpt lat="41.480515" lon="-5.805800">
        <ele>669.728</ele>
        <time>2017-09-20T10:50:34Z</time>
      </trkpt>
      <trkpt lat="41.480376" lon="-5.806100">
        <ele>671.696</ele>
        <time>2017-09-20T10:50:50Z</time>
      </trkpt>
      <trkpt lat="41.480239" lon="-5.806410">
        <ele>672.156</ele>
        <time>2017-09-20T10:51:05Z</time>
      </trkpt>
      <trkpt lat="41.480098" lon="-5.806739">
        <ele>672.520</ele>
        <time>2017-09-20T10:51:19Z</time>
      </trkpt>
      <trkpt lat="41.479940" lon="-5.807069">
        <ele>673.048</ele>
        <time>2017-09-20T10:51:32Z</time>
      </trkpt>
      <trkpt lat="41.479706" lon="-5.807318">
        <ele>673.597</ele>
        <time>2017-09-20T10:51:46Z</time>
      </trkpt>
      <trkpt lat="41.479417" lon="-5.807582">
        <ele>674.597</ele>
        <time>2017-09-20T10:52:02Z</time>
      </trkpt>
      <trkpt lat="41.479160" lon="-5.807852">
        <ele>676.419</ele>
        <time>2017-09-20T10:52:18Z</time>
      </trkpt>
      <trkpt lat="41.478899" lon="-5.808125">
        <ele>677.837</ele>
        <time>2017-09-20T10:52:35Z</time>
      </trkpt>
      <trkpt lat="41.478665" lon="-5.808353">
        <ele>679.349</ele>
        <time>2017-09-20T10:52:49Z</time>
      </trkpt>
      <trkpt lat="41.478442" lon="-5.808496">
        <ele>681.213</ele>
        <time>2017-09-20T10:53:02Z</time>
      </trkpt>
      <trkpt lat="41.478239" lon="-5.808756">
        <ele>681.708</ele>
        <time>2017-09-20T10:53:18Z</time>
      </trkpt>
      <trkpt lat="41.478059" lon="-5.808967">
        <ele>682.194</ele>
        <time>2017-09-20T10:53:31Z</time>
      </trkpt>
      <trkpt lat="41.477785" lon="-5.809299">
        <ele>683.152</ele>
        <time>2017-09-20T10:53:51Z</time>
      </trkpt>
      <trkpt lat="41.477560" lon="-5.809566">
        <ele>684.172</ele>
        <time>2017-09-20T10:54:08Z</time>
      </trkpt>
      <trkpt lat="41.477359" lon="-5.809832">
        <ele>685.526</ele>
        <time>2017-09-20T10:54:24Z</time>
      </trkpt>
      <trkpt lat="41.477166" lon="-5.810101">
        <ele>686.564</ele>
        <time>2017-09-20T10:54:40Z</time>
      </trkpt>
      <trkpt lat="41.476999" lon="-5.810336">
        <ele>687.423</ele>
        <time>2017-09-20T10:54:54Z</time>
      </trkpt>
      <trkpt lat="41.476847" lon="-5.810564">
        <ele>688.993</ele>
        <time>2017-09-20T10:55:08Z</time>
      </trkpt>
      <trkpt lat="41.476722" lon="-5.810820">
        <ele>689.825</ele>
        <time>2017-09-20T10:55:21Z</time>
      </trkpt>
      <trkpt lat="41.476563" lon="-5.811114">
        <ele>690.824</ele>
        <time>2017-09-20T10:55:37Z</time>
      </trkpt>
      <trkpt lat="41.476422" lon="-5.811360">
        <ele>691.304</ele>
        <time>2017-09-20T10:55:52Z</time>
      </trkpt>
      <trkpt lat="41.476365" lon="-5.811491">
        <ele>692.214</ele>
        <time>2017-09-20T10:56:00Z</time>
      </trkpt>
      <trkpt lat="41.476363" lon="-5.811509">
        <ele>692.208</ele>
        <time>2017-09-20T10:56:01Z</time>
      </trkpt>
      <trkpt lat="41.476359" lon="-5.811534">
        <ele>692.213</ele>
        <time>2017-09-20T10:56:02Z</time>
      </trkpt>
      <trkpt lat="41.476334" lon="-5.811592">
        <ele>692.221</ele>
        <time>2017-09-20T10:56:05Z</time>
      </trkpt>
      <trkpt lat="41.476324" lon="-5.811608">
        <ele>692.291</ele>
        <time>2017-09-20T10:56:06Z</time>
      </trkpt>
      <trkpt lat="41.476316" lon="-5.811626">
        <ele>692.265</ele>
        <time>2017-09-20T10:56:07Z</time>
      </trkpt>
      <trkpt lat="41.476307" lon="-5.811643">
        <ele>692.763</ele>
        <time>2017-09-20T10:56:08Z</time>
      </trkpt>
      <trkpt lat="41.476298" lon="-5.811657">
        <ele>692.792</ele>
        <time>2017-09-20T10:56:09Z</time>
      </trkpt>
      <trkpt lat="41.476178" lon="-5.811938">
        <ele>691.312</ele>
        <time>2017-09-20T10:56:22Z</time>
      </trkpt>
      <trkpt lat="41.476055" lon="-5.812268">
        <ele>691.334</ele>
        <time>2017-09-20T10:56:33Z</time>
      </trkpt>
      <trkpt lat="41.475992" lon="-5.812638">
        <ele>692.242</ele>
        <time>2017-09-20T10:56:46Z</time>
      </trkpt>
      <trkpt lat="41.475988" lon="-5.812661">
        <ele>692.222</ele>
        <time>2017-09-20T10:56:47Z</time>
      </trkpt>
      <trkpt lat="41.475982" lon="-5.812683">
        <ele>692.214</ele>
        <time>2017-09-20T10:56:48Z</time>
      </trkpt>
      <trkpt lat="41.475981" lon="-5.812707">
        <ele>692.708</ele>
        <time>2017-09-20T10:56:49Z</time>
      </trkpt>
      <trkpt lat="41.475961" lon="-5.813107">
        <ele>694.245</ele>
        <time>2017-09-20T10:57:04Z</time>
      </trkpt>
      <trkpt lat="41.475948" lon="-5.813516">
        <ele>695.123</ele>
        <time>2017-09-20T10:57:20Z</time>
      </trkpt>
      <trkpt lat="41.475944" lon="-5.813900">
        <ele>695.123</ele>
        <time>2017-09-20T10:57:34Z</time>
      </trkpt>
      <trkpt lat="41.475920" lon="-5.814334">
        <ele>694.647</ele>
        <time>2017-09-20T10:57:49Z</time>
      </trkpt>
      <trkpt lat="41.475917" lon="-5.814940">
        <ele>695.625</ele>
        <time>2017-09-20T10:58:07Z</time>
      </trkpt>
      <trkpt lat="41.475903" lon="-5.815374">
        <ele>695.124</ele>
        <time>2017-09-20T10:58:21Z</time>
      </trkpt>
      <trkpt lat="41.475880" lon="-5.815932">
        <ele>695.694</ele>
        <time>2017-09-20T10:58:36Z</time>
      </trkpt>
      <trkpt lat="41.475851" lon="-5.816570">
        <ele>695.196</ele>
        <time>2017-09-20T10:58:52Z</time>
      </trkpt>
      <trkpt lat="41.475765" lon="-5.816959">
        <ele>692.783</ele>
        <time>2017-09-20T10:59:07Z</time>
      </trkpt>
      <trkpt lat="41.475758" lon="-5.816998">
        <ele>692.225</ele>
        <time>2017-09-20T10:59:09Z</time>
      </trkpt>
      <trkpt lat="41.475751" lon="-5.817019">
        <ele>691.817</ele>
        <time>2017-09-20T10:59:10Z</time>
      </trkpt>
      <trkpt lat="41.475743" lon="-5.817041">
        <ele>691.808</ele>
        <time>2017-09-20T10:59:11Z</time>
      </trkpt>
      <trkpt lat="41.475735" lon="-5.817064">
        <ele>691.369</ele>
        <time>2017-09-20T10:59:12Z</time>
      </trkpt>
      <trkpt lat="41.475726" lon="-5.817087">
        <ele>690.837</ele>
        <time>2017-09-20T10:59:13Z</time>
      </trkpt>
      <trkpt lat="41.475717" lon="-5.817113">
        <ele>690.387</ele>
        <time>2017-09-20T10:59:14Z</time>
      </trkpt>
      <trkpt lat="41.475495" lon="-5.817570">
        <ele>683.691</ele>
        <time>2017-09-20T10:59:31Z</time>
      </trkpt>
      <trkpt lat="41.475352" lon="-5.817828">
        <ele>681.229</ele>
        <time>2017-09-20T10:59:43Z</time>
      </trkpt>
      <trkpt lat="41.475176" lon="-5.818141">
        <ele>677.868</ele>
        <time>2017-09-20T10:59:55Z</time>
      </trkpt>
      <trkpt lat="41.474961" lon="-5.818613">
        <ele>673.598</ele>
        <time>2017-09-20T11:00:09Z</time>
      </trkpt>
      <trkpt lat="41.474734" lon="-5.819105">
        <ele>670.150</ele>
        <time>2017-09-20T11:00:25Z</time>
      </trkpt>
      <trkpt lat="41.474468" lon="-5.819507">
        <ele>667.799</ele>
        <time>2017-09-20T11:00:37Z</time>
      </trkpt>
      <trkpt lat="41.474402" lon="-5.819639">
        <ele>667.207</ele>
        <time>2017-09-20T11:00:42Z</time>
      </trkpt>
      <trkpt lat="41.474388" lon="-5.819666">
        <ele>667.227</ele>
        <time>2017-09-20T11:00:43Z</time>
      </trkpt>
      <trkpt lat="41.474377" lon="-5.819695">
        <ele>667.208</ele>
        <time>2017-09-20T11:00:44Z</time>
      </trkpt>
      <trkpt lat="41.474371" lon="-5.819722">
        <ele>666.830</ele>
        <time>2017-09-20T11:00:45Z</time>
      </trkpt>
      <trkpt lat="41.474365" lon="-5.819752">
        <ele>666.818</ele>
        <time>2017-09-20T11:00:46Z</time>
      </trkpt>
      <trkpt lat="41.474327" lon="-5.820327">
        <ele>664.818</ele>
        <time>2017-09-20T11:00:59Z</time>
      </trkpt>
      <trkpt lat="41.474439" lon="-5.820863">
        <ele>663.962</ele>
        <time>2017-09-20T11:01:13Z</time>
      </trkpt>
      <trkpt lat="41.474457" lon="-5.820953">
        <ele>663.970</ele>
        <time>2017-09-20T11:01:25Z</time>
      </trkpt>
      <trkpt lat="41.474463" lon="-5.820960">
        <ele>663.419</ele>
        <time>2017-09-20T11:01:37Z</time>
      </trkpt>
      <trkpt lat="41.474469" lon="-5.820987">
        <ele>665.879</ele>
        <time>2017-09-20T11:02:26Z</time>
      </trkpt>
      <trkpt lat="41.474461" lon="-5.820959">
        <ele>665.341</ele>
        <time>2017-09-20T11:03:14Z</time>
      </trkpt>
      <trkpt lat="41.474470" lon="-5.820973">
        <ele>663.965</ele>
        <time>2017-09-20T11:03:49Z</time>
      </trkpt>
      <trkpt lat="41.474453" lon="-5.820974">
        <ele>664.868</ele>
        <time>2017-09-20T11:04:19Z</time>
      </trkpt>
      <trkpt lat="41.474420" lon="-5.821019">
        <ele>663.914</ele>
        <time>2017-09-20T11:04:39Z</time>
      </trkpt>
      <trkpt lat="41.474422" lon="-5.821033">
        <ele>663.908</ele>
        <time>2017-09-20T11:04:46Z</time>
      </trkpt>
      <trkpt lat="41.474417" lon="-5.821057">
        <ele>663.977</ele>
        <time>2017-09-20T11:04:47Z</time>
      </trkpt>
      <trkpt lat="41.474414" lon="-5.821081">
        <ele>663.915</ele>
        <time>2017-09-20T11:04:48Z</time>
      </trkpt>
      <trkpt lat="41.474411" lon="-5.821105">
        <ele>663.915</ele>
        <time>2017-09-20T11:04:49Z</time>
      </trkpt>
      <trkpt lat="41.474407" lon="-5.821127">
        <ele>663.979</ele>
        <time>2017-09-20T11:04:50Z</time>
      </trkpt>
      <trkpt lat="41.474403" lon="-5.821147">
        <ele>663.977</ele>
        <time>2017-09-20T11:04:51Z</time>
      </trkpt>
      <trkpt lat="41.474348" lon="-5.821576">
        <ele>663.986</ele>
        <time>2017-09-20T11:05:04Z</time>
      </trkpt>
      <trkpt lat="41.474362" lon="-5.821963">
        <ele>665.846</ele>
        <time>2017-09-20T11:05:18Z</time>
      </trkpt>
      <trkpt lat="41.474348" lon="-5.822306">
        <ele>668.278</ele>
        <time>2017-09-20T11:05:34Z</time>
      </trkpt>
      <trkpt lat="41.474347" lon="-5.822417">
        <ele>669.273</ele>
        <time>2017-09-20T11:05:40Z</time>
      </trkpt>
      <trkpt lat="41.474351" lon="-5.822436">
        <ele>669.285</ele>
        <time>2017-09-20T11:05:41Z</time>
      </trkpt>
      <trkpt lat="41.474353" lon="-5.822457">
        <ele>669.213</ele>
        <time>2017-09-20T11:05:42Z</time>
      </trkpt>
      <trkpt lat="41.474379" lon="-5.822598">
        <ele>670.108</ele>
        <time>2017-09-20T11:05:50Z</time>
      </trkpt>
      <trkpt lat="41.474371" lon="-5.822858">
        <ele>671.678</ele>
        <time>2017-09-20T11:06:05Z</time>
      </trkpt>
      <trkpt lat="41.474358" lon="-5.823130">
        <ele>672.156</ele>
        <time>2017-09-20T11:06:20Z</time>
      </trkpt>
      <trkpt lat="41.474360" lon="-5.823151">
        <ele>672.126</ele>
        <time>2017-09-20T11:06:21Z</time>
      </trkpt>
      <trkpt lat="41.474358" lon="-5.823173">
        <ele>672.150</ele>
        <time>2017-09-20T11:06:22Z</time>
      </trkpt>
      <trkpt lat="41.474353" lon="-5.823193">
        <ele>672.568</ele>
        <time>2017-09-20T11:06:23Z</time>
      </trkpt>
      <trkpt lat="41.474347" lon="-5.823215">
        <ele>672.537</ele>
        <time>2017-09-20T11:06:24Z</time>
      </trkpt>
      <trkpt lat="41.474342" lon="-5.823236">
        <ele>672.547</ele>
        <time>2017-09-20T11:06:25Z</time>
      </trkpt>
      <trkpt lat="41.474334" lon="-5.823256">
        <ele>672.549</ele>
        <time>2017-09-20T11:06:26Z</time>
      </trkpt>
      <trkpt lat="41.474329" lon="-5.823278">
        <ele>672.522</ele>
        <time>2017-09-20T11:06:27Z</time>
      </trkpt>
      <trkpt lat="41.474325" lon="-5.823300">
        <ele>673.062</ele>
        <time>2017-09-20T11:06:28Z</time>
      </trkpt>
      <trkpt lat="41.474319" lon="-5.823323">
        <ele>673.008</ele>
        <time>2017-09-20T11:06:29Z</time>
      </trkpt>
      <trkpt lat="41.474312" lon="-5.823345">
        <ele>673.008</ele>
        <time>2017-09-20T11:06:30Z</time>
      </trkpt>
      <trkpt lat="41.474306" lon="-5.823367">
        <ele>673.063</ele>
        <time>2017-09-20T11:06:31Z</time>
      </trkpt>
      <trkpt lat="41.474301" lon="-5.823388">
        <ele>673.071</ele>
        <time>2017-09-20T11:06:32Z</time>
      </trkpt>
      <trkpt lat="41.474293" lon="-5.823408">
        <ele>673.061</ele>
        <time>2017-09-20T11:06:33Z</time>
      </trkpt>
      <trkpt lat="41.474284" lon="-5.823427">
        <ele>673.585</ele>
        <time>2017-09-20T11:06:34Z</time>
      </trkpt>
      <trkpt lat="41.474273" lon="-5.823448">
        <ele>673.593</ele>
        <time>2017-09-20T11:06:35Z</time>
      </trkpt>
      <trkpt lat="41.474264" lon="-5.823471">
        <ele>673.512</ele>
        <time>2017-09-20T11:06:36Z</time>
      </trkpt>
      <trkpt lat="41.474139" lon="-5.823787">
        <ele>674.022</ele>
        <time>2017-09-20T11:06:52Z</time>
      </trkpt>
      <trkpt lat="41.474026" lon="-5.824055">
        <ele>675.414</ele>
        <time>2017-09-20T11:07:06Z</time>
      </trkpt>
      <trkpt lat="41.473981" lon="-5.824154">
        <ele>674.557</ele>
        <time>2017-09-20T11:07:11Z</time>
      </trkpt>
      <trkpt lat="41.473971" lon="-5.824198">
        <ele>674.500</ele>
        <time>2017-09-20T11:07:13Z</time>
      </trkpt>
      <trkpt lat="41.473964" lon="-5.824218">
        <ele>674.520</ele>
        <time>2017-09-20T11:07:14Z</time>
      </trkpt>
      <trkpt lat="41.473868" lon="-5.824513">
        <ele>674.908</ele>
        <time>2017-09-20T11:07:28Z</time>
      </trkpt>
      <trkpt lat="41.473767" lon="-5.824836">
        <ele>674.536</ele>
        <time>2017-09-20T11:07:43Z</time>
      </trkpt>
      <trkpt lat="41.473593" lon="-5.825332">
        <ele>673.594</ele>
        <time>2017-09-20T11:07:59Z</time>
      </trkpt>
      <trkpt lat="41.473464" lon="-5.825702">
        <ele>671.624</ele>
        <time>2017-09-20T11:08:11Z</time>
      </trkpt>
      <trkpt lat="41.473430" lon="-5.826131">
        <ele>667.288</ele>
        <time>2017-09-20T11:08:23Z</time>
      </trkpt>
      <trkpt lat="41.473428" lon="-5.826714">
        <ele>661.556</ele>
        <time>2017-09-20T11:08:37Z</time>
      </trkpt>
      <trkpt lat="41.473417" lon="-5.826888">
        <ele>660.035</ele>
        <time>2017-09-20T11:08:47Z</time>
      </trkpt>
      <trkpt lat="41.473445" lon="-5.826899">
        <ele>660.525</ele>
        <time>2017-09-20T11:09:02Z</time>
      </trkpt>
      <trkpt lat="41.473441" lon="-5.826914">
        <ele>661.027</ele>
        <time>2017-09-20T11:28:03Z</time>
      </trkpt>
      <trkpt lat="41.473422" lon="-5.827034">
        <ele>659.175</ele>
        <time>2017-09-20T11:28:16Z</time>
      </trkpt>
      <trkpt lat="41.473445" lon="-5.827516">
        <ele>654.328</ele>
        <time>2017-09-20T11:28:30Z</time>
      </trkpt>
      <trkpt lat="41.473513" lon="-5.827979">
        <ele>649.920</ele>
        <time>2017-09-20T11:28:44Z</time>
      </trkpt>
      <trkpt lat="41.473607" lon="-5.828343">
        <ele>644.708</ele>
        <time>2017-09-20T11:29:00Z</time>
      </trkpt>
      <trkpt lat="41.473623" lon="-5.828958">
        <ele>639.418</ele>
        <time>2017-09-20T11:29:18Z</time>
      </trkpt>
      <trkpt lat="41.473438" lon="-5.829324">
        <ele>636.556</ele>
        <time>2017-09-20T11:29:31Z</time>
      </trkpt>
      <trkpt lat="41.472896" lon="-5.829756">
        <ele>634.126</ele>
        <time>2017-09-20T11:29:44Z</time>
      </trkpt>
      <trkpt lat="41.472208" lon="-5.830200">
        <ele>632.270</ele>
        <time>2017-09-20T11:30:00Z</time>
      </trkpt>
      <trkpt lat="41.472138" lon="-5.830256">
        <ele>632.298</ele>
        <time>2017-09-20T11:30:02Z</time>
      </trkpt>
      <trkpt lat="41.472108" lon="-5.830289">
        <ele>632.277</ele>
        <time>2017-09-20T11:30:03Z</time>
      </trkpt>
      <trkpt lat="41.472082" lon="-5.830327">
        <ele>632.267</ele>
        <time>2017-09-20T11:30:04Z</time>
      </trkpt>
      <trkpt lat="41.472059" lon="-5.830372">
        <ele>632.289</ele>
        <time>2017-09-20T11:30:05Z</time>
      </trkpt>
      <trkpt lat="41.472044" lon="-5.830416">
        <ele>631.791</ele>
        <time>2017-09-20T11:30:06Z</time>
      </trkpt>
      <trkpt lat="41.472033" lon="-5.830466">
        <ele>631.781</ele>
        <time>2017-09-20T11:30:07Z</time>
      </trkpt>
      <trkpt lat="41.472025" lon="-5.830527">
        <ele>631.719</ele>
        <time>2017-09-20T11:30:08Z</time>
      </trkpt>
      <trkpt lat="41.472020" lon="-5.830581">
        <ele>631.708</ele>
        <time>2017-09-20T11:30:09Z</time>
      </trkpt>
      <trkpt lat="41.471856" lon="-5.831155">
        <ele>630.280</ele>
        <time>2017-09-20T11:30:22Z</time>
      </trkpt>
      <trkpt lat="41.471518" lon="-5.831674">
        <ele>630.228</ele>
        <time>2017-09-20T11:30:36Z</time>
      </trkpt>
      <trkpt lat="41.471322" lon="-5.831977">
        <ele>631.778</ele>
        <time>2017-09-20T11:30:49Z</time>
      </trkpt>
      <trkpt lat="41.471057" lon="-5.832398">
        <ele>630.262</ele>
        <time>2017-09-20T11:31:02Z</time>
      </trkpt>
      <trkpt lat="41.470719" lon="-5.832928">
        <ele>627.810</ele>
        <time>2017-09-20T11:31:17Z</time>
      </trkpt>
      <trkpt lat="41.470318" lon="-5.833508">
        <ele>626.989</ele>
        <time>2017-09-20T11:31:34Z</time>
      </trkpt>
      <trkpt lat="41.470074" lon="-5.833906">
        <ele>626.489</ele>
        <time>2017-09-20T11:31:48Z</time>
      </trkpt>
      <trkpt lat="41.469753" lon="-5.834509">
        <ele>626.941</ele>
        <time>2017-09-20T11:32:07Z</time>
      </trkpt>
      <trkpt lat="41.469561" lon="-5.834905">
        <ele>628.862</ele>
        <time>2017-09-20T11:32:24Z</time>
      </trkpt>
      <trkpt lat="41.469395" lon="-5.835360">
        <ele>628.883</ele>
        <time>2017-09-20T11:32:40Z</time>
      </trkpt>
      <trkpt lat="41.469253" lon="-5.835747">
        <ele>629.311</ele>
        <time>2017-09-20T11:32:54Z</time>
      </trkpt>
      <trkpt lat="41.469051" lon="-5.836287">
        <ele>628.808</ele>
        <time>2017-09-20T11:33:11Z</time>
      </trkpt>
      <trkpt lat="41.468857" lon="-5.836871">
        <ele>629.387</ele>
        <time>2017-09-20T11:33:29Z</time>
      </trkpt>
      <trkpt lat="41.468678" lon="-5.837393">
        <ele>629.855</ele>
        <time>2017-09-20T11:33:47Z</time>
      </trkpt>
      <trkpt lat="41.468498" lon="-5.837926">
        <ele>630.225</ele>
        <time>2017-09-20T11:34:05Z</time>
      </trkpt>
      <trkpt lat="41.468286" lon="-5.838531">
        <ele>631.239</ele>
        <time>2017-09-20T11:34:26Z</time>
      </trkpt>
      <trkpt lat="41.468132" lon="-5.838975">
        <ele>633.157</ele>
        <time>2017-09-20T11:34:44Z</time>
      </trkpt>
      <trkpt lat="41.468129" lon="-5.839459">
        <ele>631.796</ele>
        <time>2017-09-20T11:34:57Z</time>
      </trkpt>
      <trkpt lat="41.468154" lon="-5.839859">
        <ele>629.896</ele>
        <time>2017-09-20T11:35:09Z</time>
      </trkpt>
      <trkpt lat="41.468184" lon="-5.840379">
        <ele>627.458</ele>
        <time>2017-09-20T11:35:22Z</time>
      </trkpt>
      <trkpt lat="41.468156" lon="-5.841011">
        <ele>625.429</ele>
        <time>2017-09-20T11:35:37Z</time>
      </trkpt>
      <trkpt lat="41.468104" lon="-5.841439">
        <ele>624.500</ele>
        <time>2017-09-20T11:35:46Z</time>
      </trkpt>
      <trkpt lat="41.467962" lon="-5.842386">
        <ele>623.520</ele>
        <time>2017-09-20T11:36:02Z</time>
      </trkpt>
      <trkpt lat="41.467826" lon="-5.842881">
        <ele>624.508</ele>
        <time>2017-09-20T11:36:14Z</time>
      </trkpt>
      <trkpt lat="41.467465" lon="-5.843416">
        <ele>624.963</ele>
        <time>2017-09-20T11:36:29Z</time>
      </trkpt>
      <trkpt lat="41.467177" lon="-5.843544">
        <ele>624.511</ele>
        <time>2017-09-20T11:36:39Z</time>
      </trkpt>
      <trkpt lat="41.467129" lon="-5.843870">
        <ele>625.971</ele>
        <time>2017-09-20T11:36:50Z</time>
      </trkpt>
      <trkpt lat="41.467048" lon="-5.844295">
        <ele>627.425</ele>
        <time>2017-09-20T11:37:04Z</time>
      </trkpt>
      <trkpt lat="41.466895" lon="-5.844652">
        <ele>628.383</ele>
        <time>2017-09-20T11:37:18Z</time>
      </trkpt>
      <trkpt lat="41.466750" lon="-5.844988">
        <ele>628.322</ele>
        <time>2017-09-20T11:37:35Z</time>
      </trkpt>
      <trkpt lat="41.466745" lon="-5.845013">
        <ele>627.862</ele>
        <time>2017-09-20T11:37:51Z</time>
      </trkpt>
      <trkpt lat="41.466653" lon="-5.845098">
        <ele>629.374</ele>
        <time>2017-09-20T11:38:00Z</time>
      </trkpt>
      <trkpt lat="41.466647" lon="-5.845082">
        <ele>629.875</ele>
        <time>2017-09-20T11:38:01Z</time>
      </trkpt>
      <trkpt lat="41.466640" lon="-5.845044">
        <ele>629.828</ele>
        <time>2017-09-20T11:38:12Z</time>
      </trkpt>
      <trkpt lat="41.466592" lon="-5.844976">
        <ele>632.220</ele>
        <time>2017-09-20T11:38:24Z</time>
      </trkpt>
      <trkpt lat="41.466576" lon="-5.844857">
        <ele>634.608</ele>
        <time>2017-09-20T11:38:41Z</time>
      </trkpt>
      <trkpt lat="41.466570" lon="-5.844828">
        <ele>634.638</ele>
        <time>2017-09-20T11:39:07Z</time>
      </trkpt>
      <trkpt lat="41.466548" lon="-5.844801">
        <ele>635.076</ele>
        <time>2017-09-20T11:39:19Z</time>
      </trkpt>
      <trkpt lat="41.466545" lon="-5.844768">
        <ele>635.066</ele>
        <time>2017-09-20T11:39:35Z</time>
      </trkpt>
      <trkpt lat="41.466535" lon="-5.844672">
        <ele>636.530</ele>
        <time>2017-09-20T11:39:53Z</time>
      </trkpt>
      <trkpt lat="41.466525" lon="-5.844656">
        <ele>637.038</ele>
        <time>2017-09-20T11:40:10Z</time>
      </trkpt>
      <trkpt lat="41.466484" lon="-5.844549">
        <ele>638.927</ele>
        <time>2017-09-20T11:40:28Z</time>
      </trkpt>
      <trkpt lat="41.466418" lon="-5.844423">
        <ele>640.847</ele>
        <time>2017-09-20T11:40:44Z</time>
      </trkpt>
      <trkpt lat="41.466412" lon="-5.844403">
        <ele>640.869</ele>
        <time>2017-09-20T11:40:59Z</time>
      </trkpt>
      <trkpt lat="41.466381" lon="-5.844360">
        <ele>641.819</ele>
        <time>2017-09-20T11:41:13Z</time>
      </trkpt>
      <trkpt lat="41.466347" lon="-5.844312">
        <ele>642.709</ele>
        <time>2017-09-20T11:41:28Z</time>
      </trkpt>
      <trkpt lat="41.466219" lon="-5.844211">
        <ele>645.119</ele>
        <time>2017-09-20T11:41:46Z</time>
      </trkpt>
      <trkpt lat="41.466166" lon="-5.844184">
        <ele>646.108</ele>
        <time>2017-09-20T11:42:04Z</time>
      </trkpt>
      <trkpt lat="41.466085" lon="-5.844162">
        <ele>648.512</ele>
        <time>2017-09-20T11:42:26Z</time>
      </trkpt>
      <trkpt lat="41.465922" lon="-5.844172">
        <ele>651.930</ele>
        <time>2017-09-20T11:42:46Z</time>
      </trkpt>
      <trkpt lat="41.465898" lon="-5.844199">
        <ele>651.930</ele>
        <time>2017-09-20T11:43:05Z</time>
      </trkpt>
      <trkpt lat="41.465839" lon="-5.844217">
        <ele>652.864</ele>
        <time>2017-09-20T11:43:20Z</time>
      </trkpt>
      <trkpt lat="41.465797" lon="-5.844235">
        <ele>653.892</ele>
        <time>2017-09-20T11:43:37Z</time>
      </trkpt>
      <trkpt lat="41.465629" lon="-5.844324">
        <ele>657.251</ele>
        <time>2017-09-20T11:43:57Z</time>
      </trkpt>
      <trkpt lat="41.465556" lon="-5.844380">
        <ele>658.171</ele>
        <time>2017-09-20T11:44:20Z</time>
      </trkpt>
      <trkpt lat="41.465479" lon="-5.844417">
        <ele>659.123</ele>
        <time>2017-09-20T11:44:35Z</time>
      </trkpt>
      <trkpt lat="41.465373" lon="-5.844493">
        <ele>660.516</ele>
        <time>2017-09-20T11:44:50Z</time>
      </trkpt>
      <trkpt lat="41.465178" lon="-5.844611">
        <ele>662.976</ele>
        <time>2017-09-20T11:45:10Z</time>
      </trkpt>
      <trkpt lat="41.465114" lon="-5.844658">
        <ele>663.413</ele>
        <time>2017-09-20T11:45:31Z</time>
      </trkpt>
      <trkpt lat="41.464971" lon="-5.844743">
        <ele>665.808</ele>
        <time>2017-09-20T11:45:49Z</time>
      </trkpt>
      <trkpt lat="41.464951" lon="-5.844755">
        <ele>666.352</ele>
        <time>2017-09-20T11:46:14Z</time>
      </trkpt>
      <trkpt lat="41.464808" lon="-5.844853">
        <ele>667.780</ele>
        <time>2017-09-20T11:46:30Z</time>
      </trkpt>
      <trkpt lat="41.464722" lon="-5.844919">
        <ele>667.720</ele>
        <time>2017-09-20T11:46:49Z</time>
      </trkpt>
      <trkpt lat="41.464493" lon="-5.845008">
        <ele>670.144</ele>
        <time>2017-09-20T11:47:09Z</time>
      </trkpt>
      <trkpt lat="41.464333" lon="-5.845026">
        <ele>672.152</ele>
        <time>2017-09-20T11:47:29Z</time>
      </trkpt>
      <trkpt lat="41.464262" lon="-5.845028">
        <ele>673.581</ele>
        <time>2017-09-20T11:47:43Z</time>
      </trkpt>
      <trkpt lat="41.464099" lon="-5.845043">
        <ele>674.951</ele>
        <time>2017-09-20T11:48:00Z</time>
      </trkpt>
      <trkpt lat="41.463950" lon="-5.845028">
        <ele>677.843</ele>
        <time>2017-09-20T11:48:19Z</time>
      </trkpt>
      <trkpt lat="41.463936" lon="-5.845017">
        <ele>678.852</ele>
        <time>2017-09-20T11:48:37Z</time>
      </trkpt>
      <trkpt lat="41.463876" lon="-5.845022">
        <ele>677.853</ele>
        <time>2017-09-20T11:48:55Z</time>
      </trkpt>
      <trkpt lat="41.463808" lon="-5.845032">
        <ele>680.208</ele>
        <time>2017-09-20T11:49:11Z</time>
      </trkpt>
      <trkpt lat="41.463803" lon="-5.845035">
        <ele>680.708</ele>
        <time>2017-09-20T11:49:43Z</time>
      </trkpt>
      <trkpt lat="41.463807" lon="-5.845039">
        <ele>681.216</ele>
        <time>2017-09-20T11:50:21Z</time>
      </trkpt>
      <trkpt lat="41.463721" lon="-5.845051">
        <ele>683.114</ele>
        <time>2017-09-20T11:50:55Z</time>
      </trkpt>
      <trkpt lat="41.463679" lon="-5.845054">
        <ele>684.124</ele>
        <time>2017-09-20T11:51:12Z</time>
      </trkpt>
      <trkpt lat="41.463614" lon="-5.845080">
        <ele>686.568</ele>
        <time>2017-09-20T11:51:42Z</time>
      </trkpt>
      <trkpt lat="41.463588" lon="-5.845097">
        <ele>686.536</ele>
        <time>2017-09-20T11:52:01Z</time>
      </trkpt>
      <trkpt lat="41.463508" lon="-5.845150">
        <ele>687.435</ele>
        <time>2017-09-20T11:52:25Z</time>
      </trkpt>
      <trkpt lat="41.463496" lon="-5.845158">
        <ele>687.975</ele>
        <time>2017-09-20T11:52:44Z</time>
      </trkpt>
      <trkpt lat="41.463492" lon="-5.845158">
        <ele>687.977</ele>
        <time>2017-09-20T11:53:09Z</time>
      </trkpt>
      <trkpt lat="41.463443" lon="-5.845230">
        <ele>690.341</ele>
        <time>2017-09-20T11:53:24Z</time>
      </trkpt>
      <trkpt lat="41.463344" lon="-5.845309">
        <ele>693.281</ele>
        <time>2017-09-20T11:53:42Z</time>
      </trkpt>
      <trkpt lat="41.463299" lon="-5.845323">
        <ele>694.209</ele>
        <time>2017-09-20T11:54:01Z</time>
      </trkpt>
      <trkpt lat="41.463218" lon="-5.845317">
        <ele>695.608</ele>
        <time>2017-09-20T11:54:21Z</time>
      </trkpt>
      <trkpt lat="41.463191" lon="-5.845309">
        <ele>695.615</ele>
        <time>2017-09-20T11:54:36Z</time>
      </trkpt>
      <trkpt lat="41.463121" lon="-5.845269">
        <ele>697.583</ele>
        <time>2017-09-20T11:55:02Z</time>
      </trkpt>
      <trkpt lat="41.463032" lon="-5.845207">
        <ele>699.543</ele>
        <time>2017-09-20T11:55:20Z</time>
      </trkpt>
      <trkpt lat="41.462998" lon="-5.845181">
        <ele>699.587</ele>
        <time>2017-09-20T11:55:46Z</time>
      </trkpt>
      <trkpt lat="41.462882" lon="-5.845108">
        <ele>702.895</ele>
        <time>2017-09-20T11:56:05Z</time>
      </trkpt>
      <trkpt lat="41.462829" lon="-5.845081">
        <ele>703.824</ele>
        <time>2017-09-20T11:56:30Z</time>
      </trkpt>
      <trkpt lat="41.462741" lon="-5.845032">
        <ele>706.254</ele>
        <time>2017-09-20T11:56:48Z</time>
      </trkpt>
      <trkpt lat="41.462664" lon="-5.844992">
        <ele>708.176</ele>
        <time>2017-09-20T11:57:16Z</time>
      </trkpt>
      <trkpt lat="41.462501" lon="-5.844908">
        <ele>711.012</ele>
        <time>2017-09-20T11:57:38Z</time>
      </trkpt>
      <trkpt lat="41.462464" lon="-5.844901">
        <ele>711.532</ele>
        <time>2017-09-20T11:58:00Z</time>
      </trkpt>
      <trkpt lat="41.462299" lon="-5.844807">
        <ele>713.905</ele>
        <time>2017-09-20T11:58:18Z</time>
      </trkpt>
      <trkpt lat="41.462207" lon="-5.844771">
        <ele>715.308</ele>
        <time>2017-09-20T11:58:26Z</time>
      </trkpt>
      <trkpt lat="41.462198" lon="-5.844761">
        <ele>715.842</ele>
        <time>2017-09-20T11:58:27Z</time>
      </trkpt>
      <trkpt lat="41.462117" lon="-5.844689">
        <ele>717.230</ele>
        <time>2017-09-20T11:58:42Z</time>
      </trkpt>
      <trkpt lat="41.462114" lon="-5.844692">
        <ele>717.740</ele>
        <time>2017-09-20T11:58:54Z</time>
      </trkpt>
      <trkpt lat="41.462094" lon="-5.844695">
        <ele>713.984</ele>
        <time>2017-09-20T11:59:31Z</time>
      </trkpt>
      <trkpt lat="41.462080" lon="-5.844711">
        <ele>713.942</ele>
        <time>2017-09-20T12:00:23Z</time>
      </trkpt>
      <trkpt lat="41.462096" lon="-5.844708">
        <ele>714.461</ele>
        <time>2017-09-20T12:01:10Z</time>
      </trkpt>
      <trkpt lat="41.462090" lon="-5.844709">
        <ele>712.981</ele>
        <time>2017-09-20T12:01:56Z</time>
      </trkpt>
      <trkpt lat="41.462088" lon="-5.844710">
        <ele>713.463</ele>
        <time>2017-09-20T12:02:38Z</time>
      </trkpt>
      <trkpt lat="41.462102" lon="-5.844712">
        <ele>713.929</ele>
        <time>2017-09-20T12:03:17Z</time>
      </trkpt>
      <trkpt lat="41.462110" lon="-5.844696">
        <ele>715.300</ele>
        <time>2017-09-20T12:03:36Z</time>
      </trkpt>
      <trkpt lat="41.462082" lon="-5.844709">
        <ele>715.320</ele>
        <time>2017-09-20T12:03:41Z</time>
      </trkpt>
      <trkpt lat="41.462065" lon="-5.844707">
        <ele>715.308</ele>
        <time>2017-09-20T12:03:42Z</time>
      </trkpt>
      <trkpt lat="41.462049" lon="-5.844699">
        <ele>715.813</ele>
        <time>2017-09-20T12:03:43Z</time>
      </trkpt>
      <trkpt lat="41.462031" lon="-5.844694">
        <ele>715.871</ele>
        <time>2017-09-20T12:03:44Z</time>
      </trkpt>
      <trkpt lat="41.462012" lon="-5.844692">
        <ele>716.331</ele>
        <time>2017-09-20T12:03:45Z</time>
      </trkpt>
      <trkpt lat="41.461937" lon="-5.844683">
        <ele>716.825</ele>
        <time>2017-09-20T12:03:49Z</time>
      </trkpt>
      <trkpt lat="41.461925" lon="-5.844672">
        <ele>716.823</ele>
        <time>2017-09-20T12:03:50Z</time>
      </trkpt>
      <trkpt lat="41.461910" lon="-5.844667">
        <ele>716.842</ele>
        <time>2017-09-20T12:03:51Z</time>
      </trkpt>
      <trkpt lat="41.461893" lon="-5.844667">
        <ele>717.262</ele>
        <time>2017-09-20T12:03:52Z</time>
      </trkpt>
      <trkpt lat="41.461879" lon="-5.844671">
        <ele>717.214</ele>
        <time>2017-09-20T12:03:53Z</time>
      </trkpt>
      <trkpt lat="41.461656" lon="-5.844671">
        <ele>718.755</ele>
        <time>2017-09-20T12:04:06Z</time>
      </trkpt>
      <trkpt lat="41.461369" lon="-5.844738">
        <ele>720.107</ele>
        <time>2017-09-20T12:04:21Z</time>
      </trkpt>
      <trkpt lat="41.461155" lon="-5.844997">
        <ele>721.617</ele>
        <time>2017-09-20T12:04:38Z</time>
      </trkpt>
      <trkpt lat="41.461020" lon="-5.845275">
        <ele>724.408</ele>
        <time>2017-09-20T12:04:54Z</time>
      </trkpt>
      <trkpt lat="41.460956" lon="-5.845476">
        <ele>725.966</ele>
        <time>2017-09-20T12:05:06Z</time>
      </trkpt>
      <trkpt lat="41.460940" lon="-5.845526">
        <ele>726.434</ele>
        <time>2017-09-20T12:05:09Z</time>
      </trkpt>
      <trkpt lat="41.460930" lon="-5.845542">
        <ele>726.884</ele>
        <time>2017-09-20T12:05:10Z</time>
      </trkpt>
      <trkpt lat="41.460919" lon="-5.845556">
        <ele>726.868</ele>
        <time>2017-09-20T12:05:11Z</time>
      </trkpt>
      <trkpt lat="41.460912" lon="-5.845572">
        <ele>727.396</ele>
        <time>2017-09-20T12:05:12Z</time>
      </trkpt>
      <trkpt lat="41.460905" lon="-5.845591">
        <ele>727.345</ele>
        <time>2017-09-20T12:05:13Z</time>
      </trkpt>
      <trkpt lat="41.460899" lon="-5.845610">
        <ele>727.335</ele>
        <time>2017-09-20T12:05:14Z</time>
      </trkpt>
      <trkpt lat="41.460897" lon="-5.845631">
        <ele>727.357</ele>
        <time>2017-09-20T12:05:15Z</time>
      </trkpt>
      <trkpt lat="41.460822" lon="-5.845865">
        <ele>727.875</ele>
        <time>2017-09-20T12:05:28Z</time>
      </trkpt>
      <trkpt lat="41.460721" lon="-5.846112">
        <ele>728.828</ele>
        <time>2017-09-20T12:05:43Z</time>
      </trkpt>
      <trkpt lat="41.460637" lon="-5.846264">
        <ele>729.320</ele>
        <time>2017-09-20T12:05:53Z</time>
      </trkpt>
      <trkpt lat="41.460620" lon="-5.846316">
        <ele>729.308</ele>
        <time>2017-09-20T12:05:56Z</time>
      </trkpt>
      <trkpt lat="41.460609" lon="-5.846331">
        <ele>729.348</ele>
        <time>2017-09-20T12:05:57Z</time>
      </trkpt>
      <trkpt lat="41.460602" lon="-5.846347">
        <ele>729.386</ele>
        <time>2017-09-20T12:05:58Z</time>
      </trkpt>
      <trkpt lat="41.460594" lon="-5.846365">
        <ele>729.776</ele>
        <time>2017-09-20T12:05:59Z</time>
      </trkpt>
      <trkpt lat="41.460584" lon="-5.846378">
        <ele>729.710</ele>
        <time>2017-09-20T12:06:00Z</time>
      </trkpt>
      <trkpt lat="41.460572" lon="-5.846391">
        <ele>729.788</ele>
        <time>2017-09-20T12:06:01Z</time>
      </trkpt>
      <trkpt lat="41.460563" lon="-5.846404">
        <ele>730.297</ele>
        <time>2017-09-20T12:06:02Z</time>
      </trkpt>
      <trkpt lat="41.460552" lon="-5.846417">
        <ele>730.267</ele>
        <time>2017-09-20T12:06:03Z</time>
      </trkpt>
      <trkpt lat="41.460543" lon="-5.846432">
        <ele>730.229</ele>
        <time>2017-09-20T12:06:04Z</time>
      </trkpt>
      <trkpt lat="41.460533" lon="-5.846447">
        <ele>730.259</ele>
        <time>2017-09-20T12:06:05Z</time>
      </trkpt>
      <trkpt lat="41.460523" lon="-5.846463">
        <ele>730.203</ele>
        <time>2017-09-20T12:06:06Z</time>
      </trkpt>
      <trkpt lat="41.460512" lon="-5.846478">
        <ele>730.723</ele>
        <time>2017-09-20T12:06:07Z</time>
      </trkpt>
      <trkpt lat="41.460502" lon="-5.846493">
        <ele>730.708</ele>
        <time>2017-09-20T12:06:08Z</time>
      </trkpt>
      <trkpt lat="41.460492" lon="-5.846508">
        <ele>731.236</ele>
        <time>2017-09-20T12:06:09Z</time>
      </trkpt>
      <trkpt lat="41.460368" lon="-5.846738">
        <ele>732.134</ele>
        <time>2017-09-20T12:06:24Z</time>
      </trkpt>
      <trkpt lat="41.460358" lon="-5.846751">
        <ele>732.154</ele>
        <time>2017-09-20T12:06:25Z</time>
      </trkpt>
      <trkpt lat="41.460350" lon="-5.846767">
        <ele>732.198</ele>
        <time>2017-09-20T12:06:26Z</time>
      </trkpt>
      <trkpt lat="41.460343" lon="-5.846783">
        <ele>732.626</ele>
        <time>2017-09-20T12:06:27Z</time>
      </trkpt>
      <trkpt lat="41.460336" lon="-5.846799">
        <ele>732.635</ele>
        <time>2017-09-20T12:06:28Z</time>
      </trkpt>
      <trkpt lat="41.460328" lon="-5.846815">
        <ele>732.615</ele>
        <time>2017-09-20T12:06:29Z</time>
      </trkpt>
      <trkpt lat="41.460318" lon="-5.846832">
        <ele>733.197</ele>
        <time>2017-09-20T12:06:30Z</time>
      </trkpt>
      <trkpt lat="41.460310" lon="-5.846849">
        <ele>733.157</ele>
        <time>2017-09-20T12:06:31Z</time>
      </trkpt>
      <trkpt lat="41.460288" lon="-5.846892">
        <ele>733.600</ele>
        <time>2017-09-20T12:06:34Z</time>
      </trkpt>
      <trkpt lat="41.460282" lon="-5.846908">
        <ele>733.620</ele>
        <time>2017-09-20T12:06:35Z</time>
      </trkpt>
      <trkpt lat="41.460274" lon="-5.846923">
        <ele>733.608</ele>
        <time>2017-09-20T12:06:36Z</time>
      </trkpt>
      <trkpt lat="41.460267" lon="-5.846938">
        <ele>734.166</ele>
        <time>2017-09-20T12:06:37Z</time>
      </trkpt>
      <trkpt lat="41.460260" lon="-5.846952">
        <ele>734.174</ele>
        <time>2017-09-20T12:06:38Z</time>
      </trkpt>
      <trkpt lat="41.460253" lon="-5.846966">
        <ele>734.594</ele>
        <time>2017-09-20T12:06:39Z</time>
      </trkpt>
      <trkpt lat="41.460247" lon="-5.846980">
        <ele>734.548</ele>
        <time>2017-09-20T12:06:40Z</time>
      </trkpt>
      <trkpt lat="41.460168" lon="-5.847211">
        <ele>736.076</ele>
        <time>2017-09-20T12:06:55Z</time>
      </trkpt>
      <trkpt lat="41.460167" lon="-5.847226">
        <ele>736.055</ele>
        <time>2017-09-20T12:06:56Z</time>
      </trkpt>
      <trkpt lat="41.460165" lon="-5.847241">
        <ele>736.065</ele>
        <time>2017-09-20T12:06:57Z</time>
      </trkpt>
      <trkpt lat="41.460163" lon="-5.847255">
        <ele>736.557</ele>
        <time>2017-09-20T12:06:58Z</time>
      </trkpt>
      <trkpt lat="41.460157" lon="-5.847268">
        <ele>736.563</ele>
        <time>2017-09-20T12:06:59Z</time>
      </trkpt>
      <trkpt lat="41.460152" lon="-5.847280">
        <ele>736.544</ele>
        <time>2017-09-20T12:07:00Z</time>
      </trkpt>
      <trkpt lat="41.460150" lon="-5.847293">
        <ele>736.518</ele>
        <time>2017-09-20T12:07:01Z</time>
      </trkpt>
      <trkpt lat="41.460153" lon="-5.847317">
        <ele>738.408</ele>
        <time>2017-09-20T12:07:16Z</time>
      </trkpt>
      <trkpt lat="41.460156" lon="-5.847306">
        <ele>737.427</ele>
        <time>2017-09-20T12:07:33Z</time>
      </trkpt>
      <trkpt lat="41.460143" lon="-5.847368">
        <ele>737.935</ele>
        <time>2017-09-20T12:07:54Z</time>
      </trkpt>
      <trkpt lat="41.460153" lon="-5.847378">
        <ele>738.465</ele>
        <time>2017-09-20T12:08:11Z</time>
      </trkpt>
      <trkpt lat="41.460152" lon="-5.847400">
        <ele>737.969</ele>
        <time>2017-09-20T12:08:46Z</time>
      </trkpt>
      <trkpt lat="41.460138" lon="-5.847440">
        <ele>737.967</ele>
        <time>2017-09-20T12:08:56Z</time>
      </trkpt>
      <trkpt lat="41.460132" lon="-5.847457">
        <ele>737.936</ele>
        <time>2017-09-20T12:08:57Z</time>
      </trkpt>
      <trkpt lat="41.460127" lon="-5.847474">
        <ele>737.926</ele>
        <time>2017-09-20T12:08:58Z</time>
      </trkpt>
      <trkpt lat="41.460125" lon="-5.847495">
        <ele>737.928</ele>
        <time>2017-09-20T12:08:59Z</time>
      </trkpt>
      <trkpt lat="41.460126" lon="-5.847517">
        <ele>737.974</ele>
        <time>2017-09-20T12:09:00Z</time>
      </trkpt>
      <trkpt lat="41.460130" lon="-5.847539">
        <ele>737.956</ele>
        <time>2017-09-20T12:09:01Z</time>
      </trkpt>
      <trkpt lat="41.460135" lon="-5.847563">
        <ele>737.921</ele>
        <time>2017-09-20T12:09:02Z</time>
      </trkpt>
      <trkpt lat="41.460137" lon="-5.847587">
        <ele>737.908</ele>
        <time>2017-09-20T12:09:03Z</time>
      </trkpt>
      <trkpt lat="41.460136" lon="-5.847609">
        <ele>737.948</ele>
        <time>2017-09-20T12:09:04Z</time>
      </trkpt>
      <trkpt lat="41.460138" lon="-5.847627">
        <ele>737.936</ele>
        <time>2017-09-20T12:09:05Z</time>
      </trkpt>
      <trkpt lat="41.460139" lon="-5.847643">
        <ele>737.936</ele>
        <time>2017-09-20T12:09:06Z</time>
      </trkpt>
      <trkpt lat="41.460134" lon="-5.847664">
        <ele>737.920</ele>
        <time>2017-09-20T12:09:07Z</time>
      </trkpt>
      <trkpt lat="41.460129" lon="-5.847686">
        <ele>737.988</ele>
        <time>2017-09-20T12:09:08Z</time>
      </trkpt>
      <trkpt lat="41.460126" lon="-5.847709">
        <ele>737.947</ele>
        <time>2017-09-20T12:09:09Z</time>
      </trkpt>
      <trkpt lat="41.460122" lon="-5.847730">
        <ele>738.477</ele>
        <time>2017-09-20T12:09:10Z</time>
      </trkpt>
      <trkpt lat="41.460115" lon="-5.847748">
        <ele>738.449</ele>
        <time>2017-09-20T12:09:11Z</time>
      </trkpt>
      <trkpt lat="41.460106" lon="-5.847766">
        <ele>738.484</ele>
        <time>2017-09-20T12:09:12Z</time>
      </trkpt>
      <trkpt lat="41.460099" lon="-5.847787">
        <ele>738.407</ele>
        <time>2017-09-20T12:09:13Z</time>
      </trkpt>
      <trkpt lat="41.460091" lon="-5.847809">
        <ele>738.417</ele>
        <time>2017-09-20T12:09:14Z</time>
      </trkpt>
      <trkpt lat="41.460086" lon="-5.847829">
        <ele>738.408</ele>
        <time>2017-09-20T12:09:15Z</time>
      </trkpt>
      <trkpt lat="41.460084" lon="-5.847850">
        <ele>738.919</ele>
        <time>2017-09-20T12:09:16Z</time>
      </trkpt>
      <trkpt lat="41.460013" lon="-5.848186">
        <ele>739.867</ele>
        <time>2017-09-20T12:09:31Z</time>
      </trkpt>
      <trkpt lat="41.459953" lon="-5.848549">
        <ele>742.717</ele>
        <time>2017-09-20T12:09:47Z</time>
      </trkpt>
      <trkpt lat="41.459906" lon="-5.848866">
        <ele>744.271</ele>
        <time>2017-09-20T12:10:02Z</time>
      </trkpt>
      <trkpt lat="41.459884" lon="-5.848941">
        <ele>745.659</ele>
        <time>2017-09-20T12:10:06Z</time>
      </trkpt>
      <trkpt lat="41.459875" lon="-5.848956">
        <ele>745.148</ele>
        <time>2017-09-20T12:10:07Z</time>
      </trkpt>
      <trkpt lat="41.459822" lon="-5.849149">
        <ele>746.618</ele>
        <time>2017-09-20T12:10:18Z</time>
      </trkpt>
      <trkpt lat="41.459818" lon="-5.849165">
        <ele>746.680</ele>
        <time>2017-09-20T12:10:19Z</time>
      </trkpt>
      <trkpt lat="41.459747" lon="-5.849409">
        <ele>748.028</ele>
        <time>2017-09-20T12:10:34Z</time>
      </trkpt>
      <trkpt lat="41.459714" lon="-5.849506">
        <ele>749.089</ele>
        <time>2017-09-20T12:10:40Z</time>
      </trkpt>
      <trkpt lat="41.459707" lon="-5.849521">
        <ele>749.017</ele>
        <time>2017-09-20T12:10:41Z</time>
      </trkpt>
      <trkpt lat="41.459702" lon="-5.849537">
        <ele>749.408</ele>
        <time>2017-09-20T12:10:42Z</time>
      </trkpt>
      <trkpt lat="41.459676" lon="-5.849620">
        <ele>749.013</ele>
        <time>2017-09-20T12:10:47Z</time>
      </trkpt>
      <trkpt lat="41.459670" lon="-5.849633">
        <ele>749.061</ele>
        <time>2017-09-20T12:10:48Z</time>
      </trkpt>
      <trkpt lat="41.459664" lon="-5.849648">
        <ele>749.061</ele>
        <time>2017-09-20T12:10:49Z</time>
      </trkpt>
      <trkpt lat="41.459635" lon="-5.849744">
        <ele>749.995</ele>
        <time>2017-09-20T12:10:55Z</time>
      </trkpt>
      <trkpt lat="41.459632" lon="-5.849759">
        <ele>749.933</ele>
        <time>2017-09-20T12:10:56Z</time>
      </trkpt>
      <trkpt lat="41.459628" lon="-5.849776">
        <ele>750.452</ele>
        <time>2017-09-20T12:10:57Z</time>
      </trkpt>
      <trkpt lat="41.459624" lon="-5.849793">
        <ele>750.472</ele>
        <time>2017-09-20T12:10:58Z</time>
      </trkpt>
      <trkpt lat="41.459618" lon="-5.849811">
        <ele>750.484</ele>
        <time>2017-09-20T12:10:59Z</time>
      </trkpt>
      <trkpt lat="41.459614" lon="-5.849827">
        <ele>750.954</ele>
        <time>2017-09-20T12:11:00Z</time>
      </trkpt>
      <trkpt lat="41.459611" lon="-5.849844">
        <ele>750.956</ele>
        <time>2017-09-20T12:11:01Z</time>
      </trkpt>
      <trkpt lat="41.459594" lon="-5.849890">
        <ele>750.911</ele>
        <time>2017-09-20T12:11:04Z</time>
      </trkpt>
      <trkpt lat="41.459517" lon="-5.850161">
        <ele>752.308</ele>
        <time>2017-09-20T12:11:20Z</time>
      </trkpt>
      <trkpt lat="41.459513" lon="-5.850179">
        <ele>752.326</ele>
        <time>2017-09-20T12:11:21Z</time>
      </trkpt>
      <trkpt lat="41.459508" lon="-5.850197">
        <ele>752.384</ele>
        <time>2017-09-20T12:11:22Z</time>
      </trkpt>
      <trkpt lat="41.459503" lon="-5.850212">
        <ele>752.354</ele>
        <time>2017-09-20T12:11:23Z</time>
      </trkpt>
      <trkpt lat="41.459497" lon="-5.850230">
        <ele>752.318</ele>
        <time>2017-09-20T12:11:24Z</time>
      </trkpt>
      <trkpt lat="41.459492" lon="-5.850249">
        <ele>752.316</ele>
        <time>2017-09-20T12:11:25Z</time>
      </trkpt>
      <trkpt lat="41.459453" lon="-5.850405">
        <ele>753.845</ele>
        <time>2017-09-20T12:11:34Z</time>
      </trkpt>
      <trkpt lat="41.459452" lon="-5.850424">
        <ele>753.835</ele>
        <time>2017-09-20T12:11:35Z</time>
      </trkpt>
      <trkpt lat="41.459448" lon="-5.850442">
        <ele>754.257</ele>
        <time>2017-09-20T12:11:36Z</time>
      </trkpt>
      <trkpt lat="41.459444" lon="-5.850459">
        <ele>754.231</ele>
        <time>2017-09-20T12:11:37Z</time>
      </trkpt>
      <trkpt lat="41.459441" lon="-5.850474">
        <ele>754.261</ele>
        <time>2017-09-20T12:11:38Z</time>
      </trkpt>
      <trkpt lat="41.459435" lon="-5.850488">
        <ele>754.707</ele>
        <time>2017-09-20T12:11:39Z</time>
      </trkpt>
      <trkpt lat="41.459429" lon="-5.850504">
        <ele>754.708</ele>
        <time>2017-09-20T12:11:40Z</time>
      </trkpt>
      <trkpt lat="41.459427" lon="-5.850522">
        <ele>754.714</ele>
        <time>2017-09-20T12:11:41Z</time>
      </trkpt>
      <trkpt lat="41.459427" lon="-5.850540">
        <ele>754.712</ele>
        <time>2017-09-20T12:11:42Z</time>
      </trkpt>
      <trkpt lat="41.459423" lon="-5.850558">
        <ele>754.752</ele>
        <time>2017-09-20T12:11:43Z</time>
      </trkpt>
      <trkpt lat="41.459419" lon="-5.850577">
        <ele>755.296</ele>
        <time>2017-09-20T12:11:44Z</time>
      </trkpt>
      <trkpt lat="41.459416" lon="-5.850595">
        <ele>755.244</ele>
        <time>2017-09-20T12:11:45Z</time>
      </trkpt>
      <trkpt lat="41.459412" lon="-5.850664">
        <ele>755.283</ele>
        <time>2017-09-20T12:11:49Z</time>
      </trkpt>
      <trkpt lat="41.459409" lon="-5.850679">
        <ele>755.273</ele>
        <time>2017-09-20T12:11:50Z</time>
      </trkpt>
      <trkpt lat="41.459407" lon="-5.850695">
        <ele>755.775</ele>
        <time>2017-09-20T12:11:51Z</time>
      </trkpt>
      <trkpt lat="41.459407" lon="-5.850711">
        <ele>755.727</ele>
        <time>2017-09-20T12:11:52Z</time>
      </trkpt>
      <trkpt lat="41.459406" lon="-5.850726">
        <ele>756.268</ele>
        <time>2017-09-20T12:11:53Z</time>
      </trkpt>
      <trkpt lat="41.459403" lon="-5.850743">
        <ele>756.214</ele>
        <time>2017-09-20T12:11:54Z</time>
      </trkpt>
      <trkpt lat="41.459400" lon="-5.850759">
        <ele>756.208</ele>
        <time>2017-09-20T12:11:55Z</time>
      </trkpt>
      <trkpt lat="41.459398" lon="-5.850777">
        <ele>756.233</ele>
        <time>2017-09-20T12:11:56Z</time>
      </trkpt>
      <trkpt lat="41.459396" lon="-5.850796">
        <ele>756.641</ele>
        <time>2017-09-20T12:11:57Z</time>
      </trkpt>
      <trkpt lat="41.459394" lon="-5.850814">
        <ele>756.661</ele>
        <time>2017-09-20T12:11:58Z</time>
      </trkpt>
      <trkpt lat="41.459392" lon="-5.850832">
        <ele>756.625</ele>
        <time>2017-09-20T12:11:59Z</time>
      </trkpt>
      <trkpt lat="41.459390" lon="-5.850849">
        <ele>756.633</ele>
        <time>2017-09-20T12:12:00Z</time>
      </trkpt>
      <trkpt lat="41.459388" lon="-5.850867">
        <ele>756.662</ele>
        <time>2017-09-20T12:12:01Z</time>
      </trkpt>
      <trkpt lat="41.459385" lon="-5.850883">
        <ele>756.672</ele>
        <time>2017-09-20T12:12:02Z</time>
      </trkpt>
      <trkpt lat="41.459361" lon="-5.851175">
        <ele>758.694</ele>
        <time>2017-09-20T12:12:18Z</time>
      </trkpt>
      <trkpt lat="41.459348" lon="-5.851421">
        <ele>760.586</ele>
        <time>2017-09-20T12:12:32Z</time>
      </trkpt>
      <trkpt lat="41.459331" lon="-5.851539">
        <ele>761.060</ele>
        <time>2017-09-20T12:12:39Z</time>
      </trkpt>
      <trkpt lat="41.459323" lon="-5.851817">
        <ele>762.426</ele>
        <time>2017-09-20T12:12:54Z</time>
      </trkpt>
      <trkpt lat="41.459322" lon="-5.851836">
        <ele>762.408</ele>
        <time>2017-09-20T12:12:55Z</time>
      </trkpt>
      <trkpt lat="41.459323" lon="-5.851855">
        <ele>762.499</ele>
        <time>2017-09-20T12:12:56Z</time>
      </trkpt>
      <trkpt lat="41.459321" lon="-5.851870">
        <ele>762.927</ele>
        <time>2017-09-20T12:12:57Z</time>
      </trkpt>
      <trkpt lat="41.459321" lon="-5.852139">
        <ele>763.987</ele>
        <time>2017-09-20T12:13:11Z</time>
      </trkpt>
      <trkpt lat="41.459322" lon="-5.852158">
        <ele>763.911</ele>
        <time>2017-09-20T12:13:12Z</time>
      </trkpt>
      <trkpt lat="41.459297" lon="-5.852440">
        <ele>764.369</ele>
        <time>2017-09-20T12:13:26Z</time>
      </trkpt>
      <trkpt lat="41.459278" lon="-5.852634">
        <ele>764.378</ele>
        <time>2017-09-20T12:13:36Z</time>
      </trkpt>
      <trkpt lat="41.459275" lon="-5.852654">
        <ele>764.348</ele>
        <time>2017-09-20T12:13:37Z</time>
      </trkpt>
      <trkpt lat="41.459285" lon="-5.853004">
        <ele>765.850</ele>
        <time>2017-09-20T12:13:54Z</time>
      </trkpt>
      <trkpt lat="41.459412" lon="-5.853383">
        <ele>766.313</ele>
        <time>2017-09-20T12:14:11Z</time>
      </trkpt>
      <trkpt lat="41.459518" lon="-5.853688">
        <ele>765.843</ele>
        <time>2017-09-20T12:14:23Z</time>
      </trkpt>
      <trkpt lat="41.459582" lon="-5.853829">
        <ele>765.307</ele>
        <time>2017-09-20T12:14:29Z</time>
      </trkpt>
      <trkpt lat="41.459778" lon="-5.854253">
        <ele>764.808</ele>
        <time>2017-09-20T12:14:44Z</time>
      </trkpt>
      <trkpt lat="41.459992" lon="-5.854703">
        <ele>763.942</ele>
        <time>2017-09-20T12:15:00Z</time>
      </trkpt>
      <trkpt lat="41.460124" lon="-5.855010">
        <ele>761.910</ele>
        <time>2017-09-20T12:15:10Z</time>
      </trkpt>
      <trkpt lat="41.460073" lon="-5.855288">
        <ele>761.030</ele>
        <time>2017-09-20T12:15:21Z</time>
      </trkpt>
      <trkpt lat="41.459813" lon="-5.855553">
        <ele>762.494</ele>
        <time>2017-09-20T12:15:34Z</time>
      </trkpt>
      <trkpt lat="41.459456" lon="-5.855749">
        <ele>763.482</ele>
        <time>2017-09-20T12:15:50Z</time>
      </trkpt>
      <trkpt lat="41.459140" lon="-5.855886">
        <ele>763.441</ele>
        <time>2017-09-20T12:16:04Z</time>
      </trkpt>
      <trkpt lat="41.458863" lon="-5.855976">
        <ele>764.311</ele>
        <time>2017-09-20T12:16:17Z</time>
      </trkpt>
      <trkpt lat="41.458605" lon="-5.856009">
        <ele>765.813</ele>
        <time>2017-09-20T12:16:31Z</time>
      </trkpt>
      <trkpt lat="41.458294" lon="-5.856038">
        <ele>766.774</ele>
        <time>2017-09-20T12:16:47Z</time>
      </trkpt>
      <trkpt lat="41.458006" lon="-5.856072">
        <ele>766.756</ele>
        <time>2017-09-20T12:17:02Z</time>
      </trkpt>
      <trkpt lat="41.457702" lon="-5.856113">
        <ele>766.321</ele>
        <time>2017-09-20T12:17:16Z</time>
      </trkpt>
      <trkpt lat="41.457407" lon="-5.856189">
        <ele>767.208</ele>
        <time>2017-09-20T12:17:29Z</time>
      </trkpt>
      <trkpt lat="41.457170" lon="-5.856320">
        <ele>768.268</ele>
        <time>2017-09-20T12:17:41Z</time>
      </trkpt>
      <trkpt lat="41.456836" lon="-5.856504">
        <ele>768.276</ele>
        <time>2017-09-20T12:17:56Z</time>
      </trkpt>
      <trkpt lat="41.456616" lon="-5.856504">
        <ele>769.636</ele>
        <time>2017-09-20T12:18:06Z</time>
      </trkpt>
      <trkpt lat="41.456599" lon="-5.856494">
        <ele>769.650</ele>
        <time>2017-09-20T12:18:07Z</time>
      </trkpt>
      <trkpt lat="41.456581" lon="-5.856486">
        <ele>769.698</ele>
        <time>2017-09-20T12:18:08Z</time>
      </trkpt>
      <trkpt lat="41.456562" lon="-5.856483">
        <ele>770.157</ele>
        <time>2017-09-20T12:18:09Z</time>
      </trkpt>
      <trkpt lat="41.456545" lon="-5.856485">
        <ele>770.117</ele>
        <time>2017-09-20T12:18:10Z</time>
      </trkpt>
      <trkpt lat="41.456431" lon="-5.856525">
        <ele>771.129</ele>
        <time>2017-09-20T12:18:18Z</time>
      </trkpt>
      <trkpt lat="41.456421" lon="-5.856535">
        <ele>771.176</ele>
        <time>2017-09-20T12:18:19Z</time>
      </trkpt>
      <trkpt lat="41.456410" lon="-5.856546">
        <ele>771.190</ele>
        <time>2017-09-20T12:18:20Z</time>
      </trkpt>
      <trkpt lat="41.456397" lon="-5.856554">
        <ele>771.119</ele>
        <time>2017-09-20T12:18:21Z</time>
      </trkpt>
      <trkpt lat="41.456382" lon="-5.856558">
        <ele>771.108</ele>
        <time>2017-09-20T12:18:22Z</time>
      </trkpt>
      <trkpt lat="41.456368" lon="-5.856561">
        <ele>771.118</ele>
        <time>2017-09-20T12:18:23Z</time>
      </trkpt>
      <trkpt lat="41.456352" lon="-5.856566">
        <ele>771.186</ele>
        <time>2017-09-20T12:18:24Z</time>
      </trkpt>
      <trkpt lat="41.456009" lon="-5.856675">
        <ele>768.796</ele>
        <time>2017-09-20T12:18:37Z</time>
      </trkpt>
      <trkpt lat="41.455556" lon="-5.856933">
        <ele>764.880</ele>
        <time>2017-09-20T12:18:50Z</time>
      </trkpt>
      <trkpt lat="41.455438" lon="-5.857016">
        <ele>763.948</ele>
        <time>2017-09-20T12:18:53Z</time>
      </trkpt>
      <trkpt lat="41.455396" lon="-5.857040">
        <ele>763.937</ele>
        <time>2017-09-20T12:18:54Z</time>
      </trkpt>
      <trkpt lat="41.455310" lon="-5.857083">
        <ele>763.437</ele>
        <time>2017-09-20T12:18:56Z</time>
      </trkpt>
      <trkpt lat="41.455150" lon="-5.857185">
        <ele>763.479</ele>
        <time>2017-09-20T12:19:00Z</time>
      </trkpt>
      <trkpt lat="41.455071" lon="-5.857221">
        <ele>762.987</ele>
        <time>2017-09-20T12:19:02Z</time>
      </trkpt>
      <trkpt lat="41.454542" lon="-5.857320">
        <ele>761.542</ele>
        <time>2017-09-20T12:19:15Z</time>
      </trkpt>
      <trkpt lat="41.454030" lon="-5.857495">
        <ele>761.526</ele>
        <time>2017-09-20T12:19:29Z</time>
      </trkpt>
      <trkpt lat="41.453696" lon="-5.857567">
        <ele>763.908</ele>
        <time>2017-09-20T12:19:42Z</time>
      </trkpt>
      <trkpt lat="41.453451" lon="-5.857569">
        <ele>764.819</ele>
        <time>2017-09-20T12:19:57Z</time>
      </trkpt>
      <trkpt lat="41.453424" lon="-5.857561">
        <ele>764.847</ele>
        <time>2017-09-20T12:19:59Z</time>
      </trkpt>
      <trkpt lat="41.453413" lon="-5.857550">
        <ele>764.877</ele>
        <time>2017-09-20T12:20:00Z</time>
      </trkpt>
      <trkpt lat="41.453399" lon="-5.857542">
        <ele>764.841</ele>
        <time>2017-09-20T12:20:01Z</time>
      </trkpt>
      <trkpt lat="41.453387" lon="-5.857542">
        <ele>764.829</ele>
        <time>2017-09-20T12:20:02Z</time>
      </trkpt>
      <trkpt lat="41.453371" lon="-5.857547">
        <ele>765.348</ele>
        <time>2017-09-20T12:20:03Z</time>
      </trkpt>
      <trkpt lat="41.453361" lon="-5.857556">
        <ele>765.388</ele>
        <time>2017-09-20T12:20:04Z</time>
      </trkpt>
      <trkpt lat="41.453349" lon="-5.857569">
        <ele>765.360</ele>
        <time>2017-09-20T12:20:05Z</time>
      </trkpt>
      <trkpt lat="41.453054" lon="-5.857439">
        <ele>764.852</ele>
        <time>2017-09-20T12:22:11Z</time>
      </trkpt>
      <trkpt lat="41.452823" lon="-5.857430">
        <ele>763.953</ele>
        <time>2017-09-20T12:22:19Z</time>
      </trkpt>
      <trkpt lat="41.452687" lon="-5.857467">
        <ele>762.908</ele>
        <time>2017-09-20T12:22:22Z</time>
      </trkpt>
      <trkpt lat="41.451930" lon="-5.857738">
        <ele>758.608</ele>
        <time>2017-09-20T12:22:34Z</time>
      </trkpt>
      <trkpt lat="41.451173" lon="-5.857813">
        <ele>759.146</ele>
        <time>2017-09-20T12:22:47Z</time>
      </trkpt>
      <trkpt lat="41.450554" lon="-5.857872">
        <ele>762.494</ele>
        <time>2017-09-20T12:23:03Z</time>
      </trkpt>
      <trkpt lat="41.450217" lon="-5.857939">
        <ele>763.484</ele>
        <time>2017-09-20T12:23:19Z</time>
      </trkpt>
      <trkpt lat="41.449773" lon="-5.858141">
        <ele>760.048</ele>
        <time>2017-09-20T12:23:30Z</time>
      </trkpt>
      <trkpt lat="41.448723" lon="-5.858383">
        <ele>756.256</ele>
        <time>2017-09-20T12:23:44Z</time>
      </trkpt>
      <trkpt lat="41.447663" lon="-5.858357">
        <ele>752.865</ele>
        <time>2017-09-20T12:23:58Z</time>
      </trkpt>
      <trkpt lat="41.447277" lon="-5.858214">
        <ele>752.385</ele>
        <time>2017-09-20T12:24:03Z</time>
      </trkpt>
      <trkpt lat="41.447206" lon="-5.858166">
        <ele>752.827</ele>
        <time>2017-09-20T12:24:04Z</time>
      </trkpt>
      <trkpt lat="41.447140" lon="-5.858112">
        <ele>752.884</ele>
        <time>2017-09-20T12:24:05Z</time>
      </trkpt>
      <trkpt lat="41.446888" lon="-5.857867">
        <ele>756.607</ele>
        <time>2017-09-20T12:24:10Z</time>
      </trkpt>
      <trkpt lat="41.446685" lon="-5.857600">
        <ele>759.517</ele>
        <time>2017-09-20T12:24:21Z</time>
      </trkpt>
      <trkpt lat="41.446443" lon="-5.857285">
        <ele>762.908</ele>
        <time>2017-09-20T12:24:42Z</time>
      </trkpt>
      <trkpt lat="41.446199" lon="-5.857060">
        <ele>763.949</ele>
        <time>2017-09-20T12:25:01Z</time>
      </trkpt>
      <trkpt lat="41.445882" lon="-5.856827">
        <ele>765.357</ele>
        <time>2017-09-20T12:25:16Z</time>
      </trkpt>
      <trkpt lat="41.445467" lon="-5.856552">
        <ele>764.877</ele>
        <time>2017-09-20T12:25:31Z</time>
      </trkpt>
      <trkpt lat="41.445055" lon="-5.856205">
        <ele>765.361</ele>
        <time>2017-09-20T12:25:48Z</time>
      </trkpt>
      <trkpt lat="41.444681" lon="-5.855903">
        <ele>766.329</ele>
        <time>2017-09-20T12:26:04Z</time>
      </trkpt>
      <trkpt lat="41.444308" lon="-5.855650">
        <ele>765.348</ele>
        <time>2017-09-20T12:26:18Z</time>
      </trkpt>
      <trkpt lat="41.444081" lon="-5.855536">
        <ele>764.868</ele>
        <time>2017-09-20T12:26:24Z</time>
      </trkpt>
      <trkpt lat="41.444040" lon="-5.855526">
        <ele>764.810</ele>
        <time>2017-09-20T12:26:25Z</time>
      </trkpt>
      <trkpt lat="41.443999" lon="-5.855517">
        <ele>764.831</ele>
        <time>2017-09-20T12:26:26Z</time>
      </trkpt>
      <trkpt lat="41.443792" lon="-5.855468">
        <ele>764.361</ele>
        <time>2017-09-20T12:26:31Z</time>
      </trkpt>
      <trkpt lat="41.443270" lon="-5.855456">
        <ele>763.907</ele>
        <time>2017-09-20T12:26:44Z</time>
      </trkpt>
      <trkpt lat="41.442463" lon="-5.855495">
        <ele>763.408</ele>
        <time>2017-09-20T12:27:03Z</time>
      </trkpt>
      <trkpt lat="41.441869" lon="-5.855545">
        <ele>764.364</ele>
        <time>2017-09-20T12:27:19Z</time>
      </trkpt>
      <trkpt lat="41.441406" lon="-5.855478">
        <ele>767.232</ele>
        <time>2017-09-20T12:27:36Z</time>
      </trkpt>
      <trkpt lat="41.440938" lon="-5.855419">
        <ele>769.142</ele>
        <time>2017-09-20T12:27:57Z</time>
      </trkpt>
      <trkpt lat="41.440582" lon="-5.855425">
        <ele>769.686</ele>
        <time>2017-09-20T12:28:13Z</time>
      </trkpt>
      <trkpt lat="41.440258" lon="-5.855353">
        <ele>772.084</ele>
        <time>2017-09-20T12:28:28Z</time>
      </trkpt>
      <trkpt lat="41.439921" lon="-5.855391">
        <ele>774.083</ele>
        <time>2017-09-20T12:28:45Z</time>
      </trkpt>
      <trkpt lat="41.439638" lon="-5.855476">
        <ele>775.453</ele>
        <time>2017-09-20T12:29:02Z</time>
      </trkpt>
      <trkpt lat="41.439370" lon="-5.855528">
        <ele>775.475</ele>
        <time>2017-09-20T12:29:15Z</time>
      </trkpt>
      <trkpt lat="41.438816" lon="-5.855719">
        <ele>774.024</ele>
        <time>2017-09-20T12:29:29Z</time>
      </trkpt>
      <trkpt lat="41.438401" lon="-5.855911">
        <ele>773.504</ele>
        <time>2017-09-20T12:29:39Z</time>
      </trkpt>
      <trkpt lat="41.437822" lon="-5.856632">
        <ele>769.614</ele>
        <time>2017-09-20T12:29:54Z</time>
      </trkpt>
      <trkpt lat="41.437306" lon="-5.857140">
        <ele>766.708</ele>
        <time>2017-09-20T12:30:03Z</time>
      </trkpt>
      <trkpt lat="41.437239" lon="-5.857164">
        <ele>766.733</ele>
        <time>2017-09-20T12:30:04Z</time>
      </trkpt>
      <trkpt lat="41.437169" lon="-5.857176">
        <ele>766.731</ele>
        <time>2017-09-20T12:30:05Z</time>
      </trkpt>
      <trkpt lat="41.437106" lon="-5.857179">
        <ele>767.251</ele>
        <time>2017-09-20T12:30:06Z</time>
      </trkpt>
      <trkpt lat="41.437044" lon="-5.857174">
        <ele>767.295</ele>
        <time>2017-09-20T12:30:07Z</time>
      </trkpt>
      <trkpt lat="41.436991" lon="-5.857161">
        <ele>767.773</ele>
        <time>2017-09-20T12:30:08Z</time>
      </trkpt>
      <trkpt lat="41.436941" lon="-5.857142">
        <ele>767.722</ele>
        <time>2017-09-20T12:30:09Z</time>
      </trkpt>
      <trkpt lat="41.436893" lon="-5.857121">
        <ele>768.282</ele>
        <time>2017-09-20T12:30:10Z</time>
      </trkpt>
      <trkpt lat="41.436851" lon="-5.857106">
        <ele>768.284</ele>
        <time>2017-09-20T12:30:11Z</time>
      </trkpt>
      <trkpt lat="41.436341" lon="-5.857068">
        <ele>769.634</ele>
        <time>2017-09-20T12:30:26Z</time>
      </trkpt>
      <trkpt lat="41.435647" lon="-5.857304">
        <ele>768.255</ele>
        <time>2017-09-20T12:30:45Z</time>
      </trkpt>
      <trkpt lat="41.435430" lon="-5.857359">
        <ele>767.710</ele>
        <time>2017-09-20T12:30:50Z</time>
      </trkpt>
      <trkpt lat="41.435339" lon="-5.857375">
        <ele>767.208</ele>
        <time>2017-09-20T12:30:52Z</time>
      </trkpt>
      <trkpt lat="41.435293" lon="-5.857386">
        <ele>767.234</ele>
        <time>2017-09-20T12:30:53Z</time>
      </trkpt>
      <trkpt lat="41.434550" lon="-5.857482">
        <ele>766.722</ele>
        <time>2017-09-20T12:31:09Z</time>
      </trkpt>
      <trkpt lat="41.434360" lon="-5.857520">
        <ele>766.752</ele>
        <time>2017-09-20T12:31:13Z</time>
      </trkpt>
      <trkpt lat="41.433909" lon="-5.857697">
        <ele>767.766</ele>
        <time>2017-09-20T12:31:24Z</time>
      </trkpt>
      <trkpt lat="41.433871" lon="-5.857719">
        <ele>767.784</ele>
        <time>2017-09-20T12:31:25Z</time>
      </trkpt>
      <trkpt lat="41.433211" lon="-5.858030">
        <ele>767.713</ele>
        <time>2017-09-20T12:31:42Z</time>
      </trkpt>
      <trkpt lat="41.433018" lon="-5.858135">
        <ele>767.753</ele>
        <time>2017-09-20T12:31:47Z</time>
      </trkpt>
      <trkpt lat="41.432981" lon="-5.858163">
        <ele>767.795</ele>
        <time>2017-09-20T12:31:48Z</time>
      </trkpt>
      <trkpt lat="41.432266" lon="-5.858799">
        <ele>766.355</ele>
        <time>2017-09-20T12:32:07Z</time>
      </trkpt>
      <trkpt lat="41.432225" lon="-5.858827">
        <ele>766.307</ele>
        <time>2017-09-20T12:32:08Z</time>
      </trkpt>
      <trkpt lat="41.432187" lon="-5.858847">
        <ele>766.317</ele>
        <time>2017-09-20T12:32:09Z</time>
      </trkpt>
      <trkpt lat="41.432150" lon="-5.858867">
        <ele>766.308</ele>
        <time>2017-09-20T12:32:10Z</time>
      </trkpt>
      <trkpt lat="41.432122" lon="-5.858887">
        <ele>766.376</ele>
        <time>2017-09-20T12:32:11Z</time>
      </trkpt>
      <trkpt lat="41.432101" lon="-5.858910">
        <ele>766.354</ele>
        <time>2017-09-20T12:32:12Z</time>
      </trkpt>
      <trkpt lat="41.432083" lon="-5.858933">
        <ele>766.384</ele>
        <time>2017-09-20T12:32:13Z</time>
      </trkpt>
      <trkpt lat="41.432070" lon="-5.858956">
        <ele>766.348</ele>
        <time>2017-09-20T12:32:14Z</time>
      </trkpt>
      <trkpt lat="41.432055" lon="-5.858982">
        <ele>766.746</ele>
        <time>2017-09-20T12:32:15Z</time>
      </trkpt>
      <trkpt lat="41.431703" lon="-5.859518">
        <ele>766.735</ele>
        <time>2017-09-20T12:32:30Z</time>
      </trkpt>
      <trkpt lat="41.431673" lon="-5.859552">
        <ele>766.755</ele>
        <time>2017-09-20T12:32:31Z</time>
      </trkpt>
      <trkpt lat="41.431644" lon="-5.859594">
        <ele>766.757</ele>
        <time>2017-09-20T12:32:32Z</time>
      </trkpt>
      <trkpt lat="41.431589" lon="-5.859679">
        <ele>766.772</ele>
        <time>2017-09-20T12:32:34Z</time>
      </trkpt>
      <trkpt lat="41.431561" lon="-5.859720">
        <ele>766.713</ele>
        <time>2017-09-20T12:32:35Z</time>
      </trkpt>
      <trkpt lat="41.430870" lon="-5.860630">
        <ele>763.914</ele>
        <time>2017-09-20T12:32:55Z</time>
      </trkpt>
      <trkpt lat="41.430223" lon="-5.861536">
        <ele>761.908</ele>
        <time>2017-09-20T12:33:12Z</time>
      </trkpt>
      <trkpt lat="41.430115" lon="-5.861779">
        <ele>761.938</ele>
        <time>2017-09-20T12:33:17Z</time>
      </trkpt>
      <trkpt lat="41.430102" lon="-5.861829">
        <ele>761.996</ele>
        <time>2017-09-20T12:33:18Z</time>
      </trkpt>
      <trkpt lat="41.429824" lon="-5.862387">
        <ele>762.496</ele>
        <time>2017-09-20T12:33:32Z</time>
      </trkpt>
      <trkpt lat="41.429479" lon="-5.862810">
        <ele>762.420</ele>
        <time>2017-09-20T12:33:45Z</time>
      </trkpt>
      <trkpt lat="41.428942" lon="-5.863341">
        <ele>762.448</ele>
        <time>2017-09-20T12:34:03Z</time>
      </trkpt>
      <trkpt lat="41.428531" lon="-5.863824">
        <ele>762.427</ele>
        <time>2017-09-20T12:34:19Z</time>
      </trkpt>
      <trkpt lat="41.428161" lon="-5.864152">
        <ele>763.427</ele>
        <time>2017-09-20T12:34:35Z</time>
      </trkpt>
      <trkpt lat="41.427866" lon="-5.864409">
        <ele>763.459</ele>
        <time>2017-09-20T12:34:49Z</time>
      </trkpt>
      <trkpt lat="41.427598" lon="-5.864700">
        <ele>764.356</ele>
        <time>2017-09-20T12:35:04Z</time>
      </trkpt>
      <trkpt lat="41.427310" lon="-5.865029">
        <ele>764.859</ele>
        <time>2017-09-20T12:35:19Z</time>
      </trkpt>
      <trkpt lat="41.427027" lon="-5.865488">
        <ele>766.314</ele>
        <time>2017-09-20T12:35:37Z</time>
      </trkpt>
      <trkpt lat="41.426775" lon="-5.866003">
        <ele>765.308</ele>
        <time>2017-09-20T12:35:54Z</time>
      </trkpt>
      <trkpt lat="41.426529" lon="-5.866531">
        <ele>765.886</ele>
        <time>2017-09-20T12:36:09Z</time>
      </trkpt>
      <trkpt lat="41.426307" lon="-5.867082">
        <ele>765.844</ele>
        <time>2017-09-20T12:36:24Z</time>
      </trkpt>
      <trkpt lat="41.426147" lon="-5.867569">
        <ele>765.844</ele>
        <time>2017-09-20T12:36:38Z</time>
      </trkpt>
      <trkpt lat="41.425853" lon="-5.868035">
        <ele>767.788</ele>
        <time>2017-09-20T12:36:55Z</time>
      </trkpt>
      <trkpt lat="41.425542" lon="-5.868433">
        <ele>769.166</ele>
        <time>2017-09-20T12:37:13Z</time>
      </trkpt>
      <trkpt lat="41.425230" lon="-5.868837">
        <ele>770.655</ele>
        <time>2017-09-20T12:37:32Z</time>
      </trkpt>
      <trkpt lat="41.424928" lon="-5.869152">
        <ele>771.175</ele>
        <time>2017-09-20T12:37:48Z</time>
      </trkpt>
      <trkpt lat="41.424619" lon="-5.869448">
        <ele>771.157</ele>
        <time>2017-09-20T12:38:04Z</time>
      </trkpt>
      <trkpt lat="41.424258" lon="-5.869725">
        <ele>771.664</ele>
        <time>2017-09-20T12:38:23Z</time>
      </trkpt>
      <trkpt lat="41.423879" lon="-5.869962">
        <ele>773.506</ele>
        <time>2017-09-20T12:38:43Z</time>
      </trkpt>
      <trkpt lat="41.423668" lon="-5.870084">
        <ele>774.016</ele>
        <time>2017-09-20T12:38:55Z</time>
      </trkpt>
      <trkpt lat="41.423400" lon="-5.870272">
        <ele>774.008</ele>
        <time>2017-09-20T12:39:11Z</time>
      </trkpt>
      <trkpt lat="41.423104" lon="-5.870560">
        <ele>774.447</ele>
        <time>2017-09-20T12:39:26Z</time>
      </trkpt>
      <trkpt lat="41.422735" lon="-5.870848">
        <ele>773.545</ele>
        <time>2017-09-20T12:39:41Z</time>
      </trkpt>
      <trkpt lat="41.422187" lon="-5.871098">
        <ele>773.515</ele>
        <time>2017-09-20T12:39:59Z</time>
      </trkpt>
      <trkpt lat="41.421746" lon="-5.871271">
        <ele>772.529</ele>
        <time>2017-09-20T12:40:13Z</time>
      </trkpt>
      <trkpt lat="41.421277" lon="-5.871374">
        <ele>773.547</ele>
        <time>2017-09-20T12:40:29Z</time>
      </trkpt>
      <trkpt lat="41.420959" lon="-5.871605">
        <ele>773.026</ele>
        <time>2017-09-20T12:40:42Z</time>
      </trkpt>
      <trkpt lat="41.420513" lon="-5.872018">
        <ele>772.046</ele>
        <time>2017-09-20T12:40:58Z</time>
      </trkpt>
      <trkpt lat="41.420155" lon="-5.872259">
        <ele>771.148</ele>
        <time>2017-09-20T12:41:09Z</time>
      </trkpt>
      <trkpt lat="41.419794" lon="-5.872498">
        <ele>769.152</ele>
        <time>2017-09-20T12:41:20Z</time>
      </trkpt>
      <trkpt lat="41.419654" lon="-5.872601">
        <ele>768.253</ele>
        <time>2017-09-20T12:41:24Z</time>
      </trkpt>
      <trkpt lat="41.419132" lon="-5.873034">
        <ele>766.708</ele>
        <time>2017-09-20T12:41:39Z</time>
      </trkpt>
      <trkpt lat="41.418685" lon="-5.873397">
        <ele>765.808</ele>
        <time>2017-09-20T12:41:53Z</time>
      </trkpt>
      <trkpt lat="41.418285" lon="-5.873786">
        <ele>765.856</ele>
        <time>2017-09-20T12:42:07Z</time>
      </trkpt>
      <trkpt lat="41.418049" lon="-5.874294">
        <ele>766.314</ele>
        <time>2017-09-20T12:42:19Z</time>
      </trkpt>
      <trkpt lat="41.417721" lon="-5.874837">
        <ele>767.774</ele>
        <time>2017-09-20T12:42:35Z</time>
      </trkpt>
      <trkpt lat="41.417550" lon="-5.875155">
        <ele>769.148</ele>
        <time>2017-09-20T12:42:48Z</time>
      </trkpt>
      <trkpt lat="41.417336" lon="-5.875388">
        <ele>769.186</ele>
        <time>2017-09-20T12:43:01Z</time>
      </trkpt>
      <trkpt lat="41.417047" lon="-5.875571">
        <ele>769.655</ele>
        <time>2017-09-20T12:43:17Z</time>
      </trkpt>
      <trkpt lat="41.416853" lon="-5.875777">
        <ele>770.145</ele>
        <time>2017-09-20T12:43:31Z</time>
      </trkpt>
      <trkpt lat="41.416850" lon="-5.875800">
        <ele>770.117</ele>
        <time>2017-09-20T12:43:32Z</time>
      </trkpt>
      <trkpt lat="41.416847" lon="-5.875825">
        <ele>770.117</ele>
        <time>2017-09-20T12:43:33Z</time>
      </trkpt>
      <trkpt lat="41.416846" lon="-5.875852">
        <ele>770.687</ele>
        <time>2017-09-20T12:43:34Z</time>
      </trkpt>
      <trkpt lat="41.416849" lon="-5.875877">
        <ele>770.615</ele>
        <time>2017-09-20T12:43:35Z</time>
      </trkpt>
      <trkpt lat="41.416852" lon="-5.875906">
        <ele>770.608</ele>
        <time>2017-09-20T12:43:36Z</time>
      </trkpt>
      <trkpt lat="41.416854" lon="-5.875935">
        <ele>770.642</ele>
        <time>2017-09-20T12:43:37Z</time>
      </trkpt>
      <trkpt lat="41.416862" lon="-5.875964">
        <ele>770.650</ele>
        <time>2017-09-20T12:43:38Z</time>
      </trkpt>
      <trkpt lat="41.416871" lon="-5.875992">
        <ele>770.640</ele>
        <time>2017-09-20T12:43:39Z</time>
      </trkpt>
      <trkpt lat="41.416932" lon="-5.876371">
        <ele>770.694</ele>
        <time>2017-09-20T12:43:53Z</time>
      </trkpt>
      <trkpt lat="41.416954" lon="-5.876692">
        <ele>770.152</ele>
        <time>2017-09-20T12:44:05Z</time>
      </trkpt>
      <trkpt lat="41.416966" lon="-5.876718">
        <ele>770.181</ele>
        <time>2017-09-20T12:44:06Z</time>
      </trkpt>
      <trkpt lat="41.416977" lon="-5.876731">
        <ele>770.121</ele>
        <time>2017-09-20T12:44:07Z</time>
      </trkpt>
      <trkpt lat="41.416987" lon="-5.876745">
        <ele>770.183</ele>
        <time>2017-09-20T12:44:08Z</time>
      </trkpt>
      <trkpt lat="41.416989" lon="-5.876767">
        <ele>770.632</ele>
        <time>2017-09-20T12:44:09Z</time>
      </trkpt>
      <trkpt lat="41.416992" lon="-5.876791">
        <ele>770.692</ele>
        <time>2017-09-20T12:44:10Z</time>
      </trkpt>
      <trkpt lat="41.416997" lon="-5.876818">
        <ele>770.611</ele>
        <time>2017-09-20T12:44:11Z</time>
      </trkpt>
      <trkpt lat="41.417061" lon="-5.876920">
        <ele>771.108</ele>
        <time>2017-09-20T12:44:17Z</time>
      </trkpt>
      <trkpt lat="41.417060" lon="-5.876941">
        <ele>771.164</ele>
        <time>2017-09-20T12:44:18Z</time>
      </trkpt>
      <trkpt lat="41.417051" lon="-5.876957">
        <ele>771.172</ele>
        <time>2017-09-20T12:44:19Z</time>
      </trkpt>
      <trkpt lat="41.417034" lon="-5.876967">
        <ele>771.182</ele>
        <time>2017-09-20T12:44:20Z</time>
      </trkpt>
      <trkpt lat="41.417018" lon="-5.876961">
        <ele>770.636</ele>
        <time>2017-09-20T12:44:21Z</time>
      </trkpt>
      <trkpt lat="41.417006" lon="-5.876939">
        <ele>770.694</ele>
        <time>2017-09-20T12:44:22Z</time>
      </trkpt>
      <trkpt lat="41.417000" lon="-5.876913">
        <ele>770.663</ele>
        <time>2017-09-20T12:44:23Z</time>
      </trkpt>
      <trkpt lat="41.416996" lon="-5.876886">
        <ele>770.663</ele>
        <time>2017-09-20T12:44:24Z</time>
      </trkpt>
      <trkpt lat="41.416992" lon="-5.876851">
        <ele>770.695</ele>
        <time>2017-09-20T12:44:25Z</time>
      </trkpt>
      <trkpt lat="41.416986" lon="-5.876820">
        <ele>770.667</ele>
        <time>2017-09-20T12:44:26Z</time>
      </trkpt>
      <trkpt lat="41.416981" lon="-5.876790">
        <ele>770.681</ele>
        <time>2017-09-20T12:44:27Z</time>
      </trkpt>
      <trkpt lat="41.416978" lon="-5.876760">
        <ele>770.619</ele>
        <time>2017-09-20T12:44:28Z</time>
      </trkpt>
      <trkpt lat="41.416977" lon="-5.876731">
        <ele>770.608</ele>
        <time>2017-09-20T12:44:29Z</time>
      </trkpt>
      <trkpt lat="41.416972" lon="-5.876704">
        <ele>770.667</ele>
        <time>2017-09-20T12:44:30Z</time>
      </trkpt>
      <trkpt lat="41.416958" lon="-5.876681">
        <ele>770.625</ele>
        <time>2017-09-20T12:44:31Z</time>
      </trkpt>
      <trkpt lat="41.416938" lon="-5.876673">
        <ele>770.185</ele>
        <time>2017-09-20T12:44:32Z</time>
      </trkpt>
      <trkpt lat="41.416922" lon="-5.876679">
        <ele>770.119</ele>
        <time>2017-09-20T12:44:33Z</time>
      </trkpt>
      <trkpt lat="41.416910" lon="-5.876692">
        <ele>770.167</ele>
        <time>2017-09-20T12:44:34Z</time>
      </trkpt>
      <trkpt lat="41.416900" lon="-5.876704">
        <ele>770.126</ele>
        <time>2017-09-20T12:44:35Z</time>
      </trkpt>
      <trkpt lat="41.416891" lon="-5.876715">
        <ele>770.186</ele>
        <time>2017-09-20T12:44:36Z</time>
      </trkpt>
      <trkpt lat="41.416881" lon="-5.876724">
        <ele>770.118</ele>
        <time>2017-09-20T12:44:37Z</time>
      </trkpt>
      <trkpt lat="41.416812" lon="-5.876773">
        <ele>770.128</ele>
        <time>2017-09-20T12:44:48Z</time>
      </trkpt>
      <trkpt lat="41.416706" lon="-5.876851">
        <ele>769.689</ele>
        <time>2017-09-20T12:45:04Z</time>
      </trkpt>
      <trkpt lat="41.416717" lon="-5.876837">
        <ele>769.617</ele>
        <time>2017-09-20T12:45:21Z</time>
      </trkpt>
      <trkpt lat="41.416714" lon="-5.876831">
        <ele>770.608</ele>
        <time>2017-09-20T12:45:47Z</time>
      </trkpt>
      <trkpt lat="41.416720" lon="-5.876848">
        <ele>770.123</ele>
        <time>2017-09-20T12:46:03Z</time>
      </trkpt>
      <trkpt lat="41.416731" lon="-5.876824">
        <ele>769.611</ele>
        <time>2017-09-20T12:46:19Z</time>
      </trkpt>
      <trkpt lat="41.416787" lon="-5.876756">
        <ele>770.111</ele>
        <time>2017-09-20T12:46:26Z</time>
      </trkpt>
      <trkpt lat="41.416745" lon="-5.876723">
        <ele>769.165</ele>
        <time>2017-09-20T12:46:43Z</time>
      </trkpt>
      <trkpt lat="41.416718" lon="-5.876764">
        <ele>766.753</ele>
        <time>2017-09-20T12:47:09Z</time>
      </trkpt>
      <trkpt lat="41.416700" lon="-5.876816">
        <ele>766.782</ele>
        <time>2017-09-20T12:47:40Z</time>
      </trkpt>
      <trkpt lat="41.416696" lon="-5.876718">
        <ele>766.362</ele>
        <time>2017-09-20T12:48:07Z</time>
      </trkpt>
      <trkpt lat="41.416687" lon="-5.876733">
        <ele>766.714</ele>
        <time>2017-09-20T12:48:39Z</time>
      </trkpt>
      <trkpt lat="41.416693" lon="-5.876692">
        <ele>766.797</ele>
        <time>2017-09-20T12:49:10Z</time>
      </trkpt>
      <trkpt lat="41.416653" lon="-5.876660">
        <ele>761.923</ele>
        <time>2017-09-20T12:49:43Z</time>
      </trkpt>
      <trkpt lat="41.416645" lon="-5.876661">
        <ele>755.225</ele>
        <time>2017-09-20T12:50:20Z</time>
      </trkpt>
      <trkpt lat="41.416667" lon="-5.876692">
        <ele>757.108</ele>
        <time>2017-09-20T12:50:54Z</time>
      </trkpt>
      <trkpt lat="41.416707" lon="-5.876670">
        <ele>759.180</ele>
        <time>2017-09-20T12:51:19Z</time>
      </trkpt>
      <trkpt lat="41.416758" lon="-5.876665">
        <ele>767.718</ele>
        <time>2017-09-20T12:51:53Z</time>
      </trkpt>
      <trkpt lat="41.416688" lon="-5.876749">
        <ele>774.038</ele>
        <time>2017-09-20T12:52:29Z</time>
      </trkpt>
      <trkpt lat="41.416718" lon="-5.876689">
        <ele>774.432</ele>
        <time>2017-09-20T12:53:02Z</time>
      </trkpt>
      <trkpt lat="41.416761" lon="-5.876672">
        <ele>772.060</ele>
        <time>2017-09-20T12:53:31Z</time>
      </trkpt>
      <trkpt lat="41.416745" lon="-5.876696">
        <ele>774.019</ele>
        <time>2017-09-20T12:54:04Z</time>
      </trkpt>
      <trkpt lat="41.416685" lon="-5.876691">
        <ele>771.159</ele>
        <time>2017-09-20T12:54:36Z</time>
      </trkpt>
      <trkpt lat="41.416640" lon="-5.876707">
        <ele>766.711</ele>
        <time>2017-09-20T12:55:07Z</time>
      </trkpt>
      <trkpt lat="41.416638" lon="-5.876751">
        <ele>766.356</ele>
        <time>2017-09-20T12:55:40Z</time>
      </trkpt>
      <trkpt lat="41.416691" lon="-5.876715">
        <ele>770.659</ele>
        <time>2017-09-20T12:56:22Z</time>
      </trkpt>
      <trkpt lat="41.416684" lon="-5.876783">
        <ele>772.014</ele>
        <time>2017-09-20T12:56:57Z</time>
      </trkpt>
      <trkpt lat="41.416695" lon="-5.876732">
        <ele>770.108</ele>
        <time>2017-09-20T12:57:33Z</time>
      </trkpt>
      <trkpt lat="41.416678" lon="-5.876730">
        <ele>770.176</ele>
        <time>2017-09-20T12:58:29Z</time>
      </trkpt>
      <trkpt lat="41.416693" lon="-5.876714">
        <ele>768.784</ele>
        <time>2017-09-20T12:59:01Z</time>
      </trkpt>
      <trkpt lat="41.416675" lon="-5.876725">
        <ele>770.644</ele>
        <time>2017-09-20T12:59:39Z</time>
      </trkpt>
      <trkpt lat="41.416694" lon="-5.876716">
        <ele>772.598</ele>
        <time>2017-09-20T13:00:16Z</time>
      </trkpt>
      <trkpt lat="41.416694" lon="-5.876661">
        <ele>769.116</ele>
        <time>2017-09-20T13:00:51Z</time>
      </trkpt>
      <trkpt lat="41.416702" lon="-5.876644">
        <ele>768.215</ele>
        <time>2017-09-20T13:01:22Z</time>
      </trkpt>
      <trkpt lat="41.416690" lon="-5.876694">
        <ele>773.535</ele>
        <time>2017-09-20T13:01:58Z</time>
      </trkpt>
      <trkpt lat="41.416679" lon="-5.876717">
        <ele>770.147</ele>
        <time>2017-09-20T13:02:32Z</time>
      </trkpt>
      <trkpt lat="41.416666" lon="-5.876695">
        <ele>767.752</ele>
        <time>2017-09-20T13:03:10Z</time>
      </trkpt>
      <trkpt lat="41.416664" lon="-5.876684">
        <ele>766.353</ele>
        <time>2017-09-20T13:03:46Z</time>
      </trkpt>
      <trkpt lat="41.416689" lon="-5.876684">
        <ele>768.708</ele>
        <time>2017-09-20T13:04:18Z</time>
      </trkpt>
      <trkpt lat="41.416688" lon="-5.876670">
        <ele>773.508</ele>
        <time>2017-09-20T13:04:51Z</time>
      </trkpt>
      <trkpt lat="41.416695" lon="-5.876650">
        <ele>774.986</ele>
        <time>2017-09-20T13:05:22Z</time>
      </trkpt>
      <trkpt lat="41.416709" lon="-5.876652">
        <ele>774.034</ele>
        <time>2017-09-20T13:05:58Z</time>
      </trkpt>
      <trkpt lat="41.416670" lon="-5.876675">
        <ele>772.514</ele>
        <time>2017-09-20T13:06:26Z</time>
      </trkpt>
      <trkpt lat="41.416714" lon="-5.876641">
        <ele>773.078</ele>
        <time>2017-09-20T13:06:54Z</time>
      </trkpt>
      <trkpt lat="41.416726" lon="-5.876681">
        <ele>774.976</ele>
        <time>2017-09-20T13:07:25Z</time>
      </trkpt>
      <trkpt lat="41.416767" lon="-5.876639">
        <ele>777.835</ele>
        <time>2017-09-20T13:07:53Z</time>
      </trkpt>
      <trkpt lat="41.416705" lon="-5.876669">
        <ele>776.855</ele>
        <time>2017-09-20T13:08:17Z</time>
      </trkpt>
      <trkpt lat="41.416755" lon="-5.876637">
        <ele>773.067</ele>
        <time>2017-09-20T13:08:52Z</time>
      </trkpt>
      <trkpt lat="41.416711" lon="-5.876700">
        <ele>773.537</ele>
        <time>2017-09-20T13:09:36Z</time>
      </trkpt>
      <trkpt lat="41.416711" lon="-5.876693">
        <ele>774.449</ele>
        <time>2017-09-20T13:10:13Z</time>
      </trkpt>
      <trkpt lat="41.416711" lon="-5.876659">
        <ele>769.613</ele>
        <time>2017-09-20T13:10:51Z</time>
      </trkpt>
      <trkpt lat="41.416694" lon="-5.876695">
        <ele>771.108</ele>
        <time>2017-09-20T13:11:26Z</time>
      </trkpt>
      <trkpt lat="41.416701" lon="-5.876697">
        <ele>771.674</ele>
        <time>2017-09-20T13:12:01Z</time>
      </trkpt>
      <trkpt lat="41.416695" lon="-5.876689">
        <ele>772.072</ele>
        <time>2017-09-20T13:12:34Z</time>
      </trkpt>
      <trkpt lat="41.416684" lon="-5.876700">
        <ele>774.032</ele>
        <time>2017-09-20T13:13:06Z</time>
      </trkpt>
      <trkpt lat="41.416700" lon="-5.876691">
        <ele>773.566</ele>
        <time>2017-09-20T13:13:39Z</time>
      </trkpt>
      <trkpt lat="41.416736" lon="-5.876697">
        <ele>774.094</ele>
        <time>2017-09-20T13:14:10Z</time>
      </trkpt>
      <trkpt lat="41.416736" lon="-5.876677">
        <ele>773.043</ele>
        <time>2017-09-20T13:14:43Z</time>
      </trkpt>
      <trkpt lat="41.416719" lon="-5.876690">
        <ele>772.013</ele>
        <time>2017-09-20T13:15:15Z</time>
      </trkpt>
      <trkpt lat="41.416709" lon="-5.876639">
        <ele>770.645</ele>
        <time>2017-09-20T13:15:45Z</time>
      </trkpt>
      <trkpt lat="41.416727" lon="-5.876636">
        <ele>771.621</ele>
        <time>2017-09-20T13:16:13Z</time>
      </trkpt>
      <trkpt lat="41.416734" lon="-5.876642">
        <ele>772.541</ele>
        <time>2017-09-20T13:16:44Z</time>
      </trkpt>
      <trkpt lat="41.416751" lon="-5.876606">
        <ele>775.405</ele>
        <time>2017-09-20T13:17:15Z</time>
      </trkpt>
      <trkpt lat="41.416741" lon="-5.876650">
        <ele>774.908</ele>
        <time>2017-09-20T13:17:38Z</time>
      </trkpt>
      <trkpt lat="41.416716" lon="-5.876690">
        <ele>773.053</ele>
        <time>2017-09-20T13:18:09Z</time>
      </trkpt>
      <trkpt lat="41.416753" lon="-5.876683">
        <ele>772.091</ele>
        <time>2017-09-20T13:18:45Z</time>
      </trkpt>
      <trkpt lat="41.416727" lon="-5.876698">
        <ele>771.691</ele>
        <time>2017-09-20T13:19:26Z</time>
      </trkpt>
      <trkpt lat="41.416731" lon="-5.876688">
        <ele>776.815</ele>
        <time>2017-09-20T13:19:59Z</time>
      </trkpt>
      <trkpt lat="41.416763" lon="-5.876690">
        <ele>781.223</ele>
        <time>2017-09-20T13:20:42Z</time>
      </trkpt>
      <trkpt lat="41.416702" lon="-5.876734">
        <ele>776.422</ele>
        <time>2017-09-20T13:21:17Z</time>
      </trkpt>
      <trkpt lat="41.416698" lon="-5.876715">
        <ele>773.522</ele>
        <time>2017-09-20T13:21:51Z</time>
      </trkpt>
      <trkpt lat="41.416700" lon="-5.876690">
        <ele>774.014</ele>
        <time>2017-09-20T13:22:27Z</time>
      </trkpt>
      <trkpt lat="41.416770" lon="-5.876692">
        <ele>774.919</ele>
        <time>2017-09-20T13:23:02Z</time>
      </trkpt>
      <trkpt lat="41.416776" lon="-5.876702">
        <ele>778.309</ele>
        <time>2017-09-20T13:23:36Z</time>
      </trkpt>
      <trkpt lat="41.416780" lon="-5.876706">
        <ele>777.819</ele>
        <time>2017-09-20T13:24:13Z</time>
      </trkpt>
      <trkpt lat="41.416742" lon="-5.876705">
        <ele>774.408</ele>
        <time>2017-09-20T13:24:42Z</time>
      </trkpt>
      <trkpt lat="41.416721" lon="-5.876733">
        <ele>770.662</ele>
        <time>2017-09-20T13:25:13Z</time>
      </trkpt>
      <trkpt lat="41.416734" lon="-5.876717">
        <ele>768.220</ele>
        <time>2017-09-20T13:25:46Z</time>
      </trkpt>
      <trkpt lat="41.416699" lon="-5.876709">
        <ele>763.410</ele>
        <time>2017-09-20T13:26:23Z</time>
      </trkpt>
      <trkpt lat="41.416731" lon="-5.876676">
        <ele>764.384</ele>
        <time>2017-09-20T13:26:52Z</time>
      </trkpt>
      <trkpt lat="41.416685" lon="-5.876689">
        <ele>765.862</ele>
        <time>2017-09-20T13:27:21Z</time>
      </trkpt>
      <trkpt lat="41.416736" lon="-5.876698">
        <ele>766.341</ele>
        <time>2017-09-20T13:27:44Z</time>
      </trkpt>
      <trkpt lat="41.416719" lon="-5.876684">
        <ele>766.721</ele>
        <time>2017-09-20T13:28:14Z</time>
      </trkpt>
      <trkpt lat="41.416698" lon="-5.876705">
        <ele>766.393</ele>
        <time>2017-09-20T13:28:45Z</time>
      </trkpt>
      <trkpt lat="41.416696" lon="-5.876714">
        <ele>767.237</ele>
        <time>2017-09-20T13:29:18Z</time>
      </trkpt>
      <trkpt lat="41.416710" lon="-5.876734">
        <ele>771.649</ele>
        <time>2017-09-20T13:29:57Z</time>
      </trkpt>
      <trkpt lat="41.416682" lon="-5.876734">
        <ele>771.113</ele>
        <time>2017-09-20T13:30:30Z</time>
      </trkpt>
      <trkpt lat="41.416722" lon="-5.876692">
        <ele>769.608</ele>
        <time>2017-09-20T13:30:55Z</time>
      </trkpt>
      <trkpt lat="41.416752" lon="-5.876786">
        <ele>768.264</ele>
        <time>2017-09-20T13:31:14Z</time>
      </trkpt>
      <trkpt lat="41.416794" lon="-5.876768">
        <ele>770.172</ele>
        <time>2017-09-20T13:31:34Z</time>
      </trkpt>
      <trkpt lat="41.416815" lon="-5.876801">
        <ele>772.512</ele>
        <time>2017-09-20T13:31:59Z</time>
      </trkpt>
      <trkpt lat="41.416781" lon="-5.876832">
        <ele>774.476</ele>
        <time>2017-09-20T13:32:23Z</time>
      </trkpt>
      <trkpt lat="41.416780" lon="-5.876821">
        <ele>774.454</ele>
        <time>2017-09-20T13:32:38Z</time>
      </trkpt>
      <trkpt lat="41.416766" lon="-5.876776">
        <ele>772.073</ele>
        <time>2017-09-20T13:33:00Z</time>
      </trkpt>
      <trkpt lat="41.416776" lon="-5.876790">
        <ele>773.073</ele>
        <time>2017-09-20T13:33:26Z</time>
      </trkpt>
      <trkpt lat="41.416789" lon="-5.876827">
        <ele>774.435</ele>
        <time>2017-09-20T13:33:45Z</time>
      </trkpt>
      <trkpt lat="41.416814" lon="-5.876824">
        <ele>776.897</ele>
        <time>2017-09-20T13:34:04Z</time>
      </trkpt>
      <trkpt lat="41.416822" lon="-5.876811">
        <ele>776.823</ele>
        <time>2017-09-20T13:34:05Z</time>
      </trkpt>
      <trkpt lat="41.416843" lon="-5.876772">
        <ele>775.425</ele>
        <time>2017-09-20T13:34:14Z</time>
      </trkpt>
      <trkpt lat="41.416853" lon="-5.876718">
        <ele>773.508</ele>
        <time>2017-09-20T13:34:31Z</time>
      </trkpt>
      <trkpt lat="41.416863" lon="-5.876699">
        <ele>774.480</ele>
        <time>2017-09-20T13:34:53Z</time>
      </trkpt>
      <trkpt lat="41.416874" lon="-5.876706">
        <ele>774.468</ele>
        <time>2017-09-20T13:35:00Z</time>
      </trkpt>
      <trkpt lat="41.416870" lon="-5.876709">
        <ele>775.958</ele>
        <time>2017-09-20T13:35:13Z</time>
      </trkpt>
      <trkpt lat="41.416872" lon="-5.876714">
        <ele>774.912</ele>
        <time>2017-09-20T13:35:29Z</time>
      </trkpt>
      <trkpt lat="41.416874" lon="-5.876704">
        <ele>774.480</ele>
        <time>2017-09-20T13:35:34Z</time>
      </trkpt>
      <trkpt lat="41.416883" lon="-5.876693">
        <ele>774.499</ele>
        <time>2017-09-20T13:35:35Z</time>
      </trkpt>
      <trkpt lat="41.416893" lon="-5.876683">
        <ele>774.429</ele>
        <time>2017-09-20T13:35:36Z</time>
      </trkpt>
      <trkpt lat="41.416905" lon="-5.876676">
        <ele>774.451</ele>
        <time>2017-09-20T13:35:37Z</time>
      </trkpt>
      <trkpt lat="41.416923" lon="-5.876674">
        <ele>774.432</ele>
        <time>2017-09-20T13:35:38Z</time>
      </trkpt>
      <trkpt lat="41.416942" lon="-5.876679">
        <ele>774.492</ele>
        <time>2017-09-20T13:35:39Z</time>
      </trkpt>
      <trkpt lat="41.416959" lon="-5.876695">
        <ele>774.411</ele>
        <time>2017-09-20T13:35:40Z</time>
      </trkpt>
      <trkpt lat="41.416970" lon="-5.876712">
        <ele>774.408</ele>
        <time>2017-09-20T13:35:41Z</time>
      </trkpt>
      <trkpt lat="41.416980" lon="-5.876729">
        <ele>774.454</ele>
        <time>2017-09-20T13:35:42Z</time>
      </trkpt>
      <trkpt lat="41.416990" lon="-5.876751">
        <ele>774.062</ele>
        <time>2017-09-20T13:35:43Z</time>
      </trkpt>
      <trkpt lat="41.416996" lon="-5.876779">
        <ele>774.022</ele>
        <time>2017-09-20T13:35:44Z</time>
      </trkpt>
      <trkpt lat="41.416998" lon="-5.876808">
        <ele>774.066</ele>
        <time>2017-09-20T13:35:45Z</time>
      </trkpt>
      <trkpt lat="41.416998" lon="-5.876836">
        <ele>774.024</ele>
        <time>2017-09-20T13:35:46Z</time>
      </trkpt>
      <trkpt lat="41.416999" lon="-5.876865">
        <ele>774.073</ele>
        <time>2017-09-20T13:35:47Z</time>
      </trkpt>
      <trkpt lat="41.417004" lon="-5.876887">
        <ele>774.053</ele>
        <time>2017-09-20T13:35:48Z</time>
      </trkpt>
      <trkpt lat="41.417012" lon="-5.876904">
        <ele>774.055</ele>
        <time>2017-09-20T13:35:49Z</time>
      </trkpt>
      <trkpt lat="41.417023" lon="-5.876919">
        <ele>774.068</ele>
        <time>2017-09-20T13:35:50Z</time>
      </trkpt>
      <trkpt lat="41.417033" lon="-5.876936">
        <ele>774.042</ele>
        <time>2017-09-20T13:35:51Z</time>
      </trkpt>
      <trkpt lat="41.417037" lon="-5.876958">
        <ele>774.026</ele>
        <time>2017-09-20T13:35:52Z</time>
      </trkpt>
      <trkpt lat="41.417037" lon="-5.876982">
        <ele>774.008</ele>
        <time>2017-09-20T13:35:53Z</time>
      </trkpt>
      <trkpt lat="41.417036" lon="-5.877009">
        <ele>773.537</ele>
        <time>2017-09-20T13:35:54Z</time>
      </trkpt>
      <trkpt lat="41.417054" lon="-5.877466">
        <ele>773.075</ele>
        <time>2017-09-20T13:36:11Z</time>
      </trkpt>
      <trkpt lat="41.417057" lon="-5.877767">
        <ele>773.035</ele>
        <time>2017-09-20T13:36:24Z</time>
      </trkpt>
      <trkpt lat="41.417065" lon="-5.877742">
        <ele>772.039</ele>
        <time>2017-09-20T13:36:54Z</time>
      </trkpt>
      <trkpt lat="41.417075" lon="-5.877748">
        <ele>770.667</ele>
        <time>2017-09-20T13:37:26Z</time>
      </trkpt>
      <trkpt lat="41.417060" lon="-5.877757">
        <ele>770.696</ele>
        <time>2017-09-20T13:37:40Z</time>
      </trkpt>
      <trkpt lat="41.417046" lon="-5.878020">
        <ele>772.576</ele>
        <time>2017-09-20T13:37:52Z</time>
      </trkpt>
      <trkpt lat="41.417042" lon="-5.878440">
        <ele>772.538</ele>
        <time>2017-09-20T13:38:04Z</time>
      </trkpt>
      <trkpt lat="41.417091" lon="-5.878889">
        <ele>771.186</ele>
        <time>2017-09-20T13:38:14Z</time>
      </trkpt>
      <trkpt lat="41.417084" lon="-5.878958">
        <ele>770.660</ele>
        <time>2017-09-20T13:38:15Z</time>
      </trkpt>
      <trkpt lat="41.417050" lon="-5.879143">
        <ele>770.126</ele>
        <time>2017-09-20T13:38:18Z</time>
      </trkpt>
      <trkpt lat="41.417030" lon="-5.879204">
        <ele>769.608</ele>
        <time>2017-09-20T13:38:19Z</time>
      </trkpt>
      <trkpt lat="41.417010" lon="-5.879244">
        <ele>769.169</ele>
        <time>2017-09-20T13:38:20Z</time>
      </trkpt>
      <trkpt lat="41.416973" lon="-5.879287">
        <ele>769.127</ele>
        <time>2017-09-20T13:38:21Z</time>
      </trkpt>
      <trkpt lat="41.416943" lon="-5.879316">
        <ele>768.747</ele>
        <time>2017-09-20T13:38:22Z</time>
      </trkpt>
      <trkpt lat="41.416903" lon="-5.879349">
        <ele>768.771</ele>
        <time>2017-09-20T13:38:23Z</time>
      </trkpt>
      <trkpt lat="41.416865" lon="-5.879368">
        <ele>768.759</ele>
        <time>2017-09-20T13:38:24Z</time>
      </trkpt>
      <trkpt lat="41.416821" lon="-5.879377">
        <ele>769.198</ele>
        <time>2017-09-20T13:38:25Z</time>
      </trkpt>
      <trkpt lat="41.416450" lon="-5.879660">
        <ele>768.788</ele>
        <time>2017-09-20T13:38:36Z</time>
      </trkpt>
      <trkpt lat="41.416352" lon="-5.879729">
        <ele>767.750</ele>
        <time>2017-09-20T13:38:40Z</time>
      </trkpt>
      <trkpt lat="41.416341" lon="-5.879773">
        <ele>767.263</ele>
        <time>2017-09-20T13:38:41Z</time>
      </trkpt>
      <trkpt lat="41.416339" lon="-5.879814">
        <ele>766.744</ele>
        <time>2017-09-20T13:38:42Z</time>
      </trkpt>
      <trkpt lat="41.416347" lon="-5.879868">
        <ele>766.718</ele>
        <time>2017-09-20T13:38:43Z</time>
      </trkpt>
      <trkpt lat="41.416360" lon="-5.879918">
        <ele>766.308</ele>
        <time>2017-09-20T13:38:44Z</time>
      </trkpt>
      <trkpt lat="41.416375" lon="-5.879983">
        <ele>766.347</ele>
        <time>2017-09-20T13:38:45Z</time>
      </trkpt>
      <trkpt lat="41.416378" lon="-5.880027">
        <ele>766.315</ele>
        <time>2017-09-20T13:38:46Z</time>
      </trkpt>
      <trkpt lat="41.416369" lon="-5.880080">
        <ele>765.835</ele>
        <time>2017-09-20T13:38:47Z</time>
      </trkpt>
      <trkpt lat="41.416351" lon="-5.880124">
        <ele>765.829</ele>
        <time>2017-09-20T13:38:48Z</time>
      </trkpt>
      <trkpt lat="41.416323" lon="-5.880178">
        <ele>765.827</ele>
        <time>2017-09-20T13:38:49Z</time>
      </trkpt>
      <trkpt lat="41.416303" lon="-5.880230">
        <ele>765.366</ele>
        <time>2017-09-20T13:38:50Z</time>
      </trkpt>
      <trkpt lat="41.416289" lon="-5.880291">
        <ele>764.856</ele>
        <time>2017-09-20T13:38:51Z</time>
      </trkpt>
      <trkpt lat="41.416191" lon="-5.880791">
        <ele>761.948</ele>
        <time>2017-09-20T13:39:04Z</time>
      </trkpt>
      <trkpt lat="41.416143" lon="-5.881315">
        <ele>759.198</ele>
        <time>2017-09-20T13:39:17Z</time>
      </trkpt>
      <trkpt lat="41.416140" lon="-5.881374">
        <ele>758.615</ele>
        <time>2017-09-20T13:39:18Z</time>
      </trkpt>
      <trkpt lat="41.416144" lon="-5.881436">
        <ele>758.626</ele>
        <time>2017-09-20T13:39:19Z</time>
      </trkpt>
      <trkpt lat="41.416158" lon="-5.881503">
        <ele>758.108</ele>
        <time>2017-09-20T13:39:20Z</time>
      </trkpt>
      <trkpt lat="41.416181" lon="-5.881564">
        <ele>757.640</ele>
        <time>2017-09-20T13:39:21Z</time>
      </trkpt>
      <trkpt lat="41.416213" lon="-5.881618">
        <ele>757.628</ele>
        <time>2017-09-20T13:39:22Z</time>
      </trkpt>
      <trkpt lat="41.416243" lon="-5.881667">
        <ele>757.128</ele>
        <time>2017-09-20T13:39:23Z</time>
      </trkpt>
      <trkpt lat="41.416268" lon="-5.881720">
        <ele>756.642</ele>
        <time>2017-09-20T13:39:24Z</time>
      </trkpt>
      <trkpt lat="41.416293" lon="-5.881772">
        <ele>756.610</ele>
        <time>2017-09-20T13:39:25Z</time>
      </trkpt>
      <trkpt lat="41.416318" lon="-5.881816">
        <ele>756.659</ele>
        <time>2017-09-20T13:39:26Z</time>
      </trkpt>
      <trkpt lat="41.416398" lon="-5.882221">
        <ele>754.779</ele>
        <time>2017-09-20T13:39:36Z</time>
      </trkpt>
      <trkpt lat="41.416391" lon="-5.882534">
        <ele>754.221</ele>
        <time>2017-09-20T13:39:47Z</time>
      </trkpt>
      <trkpt lat="41.416326" lon="-5.882994">
        <ele>753.396</ele>
        <time>2017-09-20T13:40:00Z</time>
      </trkpt>
      <trkpt lat="41.416263" lon="-5.883404">
        <ele>752.331</ele>
        <time>2017-09-20T13:40:08Z</time>
      </trkpt>
      <trkpt lat="41.416453" lon="-5.884186">
        <ele>747.024</ele>
        <time>2017-09-20T13:40:19Z</time>
      </trkpt>
      <trkpt lat="41.416925" lon="-5.885174">
        <ele>745.108</ele>
        <time>2017-09-20T13:40:31Z</time>
      </trkpt>
      <trkpt lat="41.416938" lon="-5.885252">
        <ele>745.620</ele>
        <time>2017-09-20T13:40:32Z</time>
      </trkpt>
      <trkpt lat="41.416942" lon="-5.885324">
        <ele>745.128</ele>
        <time>2017-09-20T13:40:33Z</time>
      </trkpt>
      <trkpt lat="41.416949" lon="-5.885549">
        <ele>745.168</ele>
        <time>2017-09-20T13:40:36Z</time>
      </trkpt>
      <trkpt lat="41.417025" lon="-5.885867">
        <ele>745.112</ele>
        <time>2017-09-20T13:40:41Z</time>
      </trkpt>
      <trkpt lat="41.417134" lon="-5.886081">
        <ele>745.180</ele>
        <time>2017-09-20T13:40:45Z</time>
      </trkpt>
      <trkpt lat="41.417164" lon="-5.886127">
        <ele>744.689</ele>
        <time>2017-09-20T13:40:46Z</time>
      </trkpt>
      <trkpt lat="41.417590" lon="-5.886891">
        <ele>746.689</ele>
        <time>2017-09-20T13:41:02Z</time>
      </trkpt>
      <trkpt lat="41.417979" lon="-5.887585">
        <ele>747.061</ele>
        <time>2017-09-20T13:41:19Z</time>
      </trkpt>
      <trkpt lat="41.418205" lon="-5.888189">
        <ele>747.022</ele>
        <time>2017-09-20T13:41:36Z</time>
      </trkpt>
      <trkpt lat="41.418279" lon="-5.888736">
        <ele>747.562</ele>
        <time>2017-09-20T13:41:51Z</time>
      </trkpt>
      <trkpt lat="41.418377" lon="-5.889382">
        <ele>748.008</ele>
        <time>2017-09-20T13:42:08Z</time>
      </trkpt>
      <trkpt lat="41.418396" lon="-5.890238">
        <ele>747.008</ele>
        <time>2017-09-20T13:42:28Z</time>
      </trkpt>
      <trkpt lat="41.418269" lon="-5.890740">
        <ele>747.583</ele>
        <time>2017-09-20T13:42:41Z</time>
      </trkpt>
      <trkpt lat="41.418100" lon="-5.891440">
        <ele>748.521</ele>
        <time>2017-09-20T13:42:59Z</time>
      </trkpt>
      <trkpt lat="41.417979" lon="-5.892048">
        <ele>749.411</ele>
        <time>2017-09-20T13:43:15Z</time>
      </trkpt>
      <trkpt lat="41.417902" lon="-5.892515">
        <ele>751.845</ele>
        <time>2017-09-20T13:43:30Z</time>
      </trkpt>
      <trkpt lat="41.417874" lon="-5.892952">
        <ele>753.823</ele>
        <time>2017-09-20T13:43:47Z</time>
      </trkpt>
      <trkpt lat="41.417880" lon="-5.893279">
        <ele>755.282</ele>
        <time>2017-09-20T13:44:01Z</time>
      </trkpt>
      <trkpt lat="41.417918" lon="-5.893785">
        <ele>756.662</ele>
        <time>2017-09-20T13:44:18Z</time>
      </trkpt>
      <trkpt lat="41.417967" lon="-5.894240">
        <ele>758.144</ele>
        <time>2017-09-20T13:44:34Z</time>
      </trkpt>
      <trkpt lat="41.417963" lon="-5.894676">
        <ele>759.128</ele>
        <time>2017-09-20T13:44:50Z</time>
      </trkpt>
      <trkpt lat="41.417957" lon="-5.895097">
        <ele>760.589</ele>
        <time>2017-09-20T13:45:05Z</time>
      </trkpt>
      <trkpt lat="41.417957" lon="-5.895546">
        <ele>761.017</ele>
        <time>2017-09-20T13:45:21Z</time>
      </trkpt>
      <trkpt lat="41.417908" lon="-5.896015">
        <ele>761.908</ele>
        <time>2017-09-20T13:45:38Z</time>
      </trkpt>
      <trkpt lat="41.417905" lon="-5.896441">
        <ele>762.463</ele>
        <time>2017-09-20T13:45:53Z</time>
      </trkpt>
      <trkpt lat="41.417919" lon="-5.897172">
        <ele>759.111</ele>
        <time>2017-09-20T13:46:04Z</time>
      </trkpt>
      <trkpt lat="41.417860" lon="-5.897892">
        <ele>757.131</ele>
        <time>2017-09-20T13:46:16Z</time>
      </trkpt>
      <trkpt lat="41.417764" lon="-5.898654">
        <ele>755.795</ele>
        <time>2017-09-20T13:46:30Z</time>
      </trkpt>
      <trkpt lat="41.417706" lon="-5.899467">
        <ele>753.863</ele>
        <time>2017-09-20T13:46:42Z</time>
      </trkpt>
      <trkpt lat="41.417707" lon="-5.899535">
        <ele>753.862</ele>
        <time>2017-09-20T13:46:43Z</time>
      </trkpt>
      <trkpt lat="41.417710" lon="-5.899603">
        <ele>753.812</ele>
        <time>2017-09-20T13:46:44Z</time>
      </trkpt>
      <trkpt lat="41.417707" lon="-5.899671">
        <ele>753.814</ele>
        <time>2017-09-20T13:46:45Z</time>
      </trkpt>
      <trkpt lat="41.417700" lon="-5.899738">
        <ele>753.875</ele>
        <time>2017-09-20T13:46:46Z</time>
      </trkpt>
      <trkpt lat="41.417676" lon="-5.900905">
        <ele>751.428</ele>
        <time>2017-09-20T13:47:03Z</time>
      </trkpt>
      <trkpt lat="41.417731" lon="-5.902106">
        <ele>748.020</ele>
        <time>2017-09-20T13:47:18Z</time>
      </trkpt>
      <trkpt lat="41.417798" lon="-5.902469">
        <ele>747.008</ele>
        <time>2017-09-20T13:47:22Z</time>
      </trkpt>
      <trkpt lat="41.417806" lon="-5.902566">
        <ele>746.648</ele>
        <time>2017-09-20T13:47:23Z</time>
      </trkpt>
      <trkpt lat="41.417862" lon="-5.904386">
        <ele>741.356</ele>
        <time>2017-09-20T13:47:40Z</time>
      </trkpt>
      <trkpt lat="41.417880" lon="-5.904530">
        <ele>741.396</ele>
        <time>2017-09-20T13:47:42Z</time>
      </trkpt>
      <trkpt lat="41.417968" lon="-5.904813">
        <ele>740.830</ele>
        <time>2017-09-20T13:47:48Z</time>
      </trkpt>
      <trkpt lat="41.418287" lon="-5.905627">
        <ele>738.498</ele>
        <time>2017-09-20T13:48:01Z</time>
      </trkpt>
      <trkpt lat="41.418312" lon="-5.905774">
        <ele>737.967</ele>
        <time>2017-09-20T13:48:03Z</time>
      </trkpt>
      <trkpt lat="41.418322" lon="-5.905847">
        <ele>737.987</ele>
        <time>2017-09-20T13:48:04Z</time>
      </trkpt>
      <trkpt lat="41.418336" lon="-5.905918">
        <ele>737.479</ele>
        <time>2017-09-20T13:48:05Z</time>
      </trkpt>
      <trkpt lat="41.418505" lon="-5.906873">
        <ele>732.166</ele>
        <time>2017-09-20T13:48:16Z</time>
      </trkpt>
      <trkpt lat="41.418514" lon="-5.907216">
        <ele>731.229</ele>
        <time>2017-09-20T13:48:20Z</time>
      </trkpt>
      <trkpt lat="41.418438" lon="-5.908308">
        <ele>726.821</ele>
        <time>2017-09-20T13:48:32Z</time>
      </trkpt>
      <trkpt lat="41.418426" lon="-5.908385">
        <ele>726.808</ele>
        <time>2017-09-20T13:48:33Z</time>
      </trkpt>
      <trkpt lat="41.418414" lon="-5.908460">
        <ele>726.427</ele>
        <time>2017-09-20T13:48:34Z</time>
      </trkpt>
      <trkpt lat="41.418394" lon="-5.908700">
        <ele>726.475</ele>
        <time>2017-09-20T13:48:37Z</time>
      </trkpt>
      <trkpt lat="41.418363" lon="-5.908948">
        <ele>725.965</ele>
        <time>2017-09-20T13:48:40Z</time>
      </trkpt>
      <trkpt lat="41.418343" lon="-5.909028">
        <ele>725.469</ele>
        <time>2017-09-20T13:48:41Z</time>
      </trkpt>
      <trkpt lat="41.418319" lon="-5.909099">
        <ele>725.417</ele>
        <time>2017-09-20T13:48:42Z</time>
      </trkpt>
      <trkpt lat="41.418299" lon="-5.909168">
        <ele>724.966</ele>
        <time>2017-09-20T13:48:43Z</time>
      </trkpt>
      <trkpt lat="41.418289" lon="-5.909238">
        <ele>724.916</ele>
        <time>2017-09-20T13:48:44Z</time>
      </trkpt>
      <trkpt lat="41.418280" lon="-5.909314">
        <ele>724.488</ele>
        <time>2017-09-20T13:48:45Z</time>
      </trkpt>
      <trkpt lat="41.418105" lon="-5.910008">
        <ele>721.126</ele>
        <time>2017-09-20T13:48:54Z</time>
      </trkpt>
      <trkpt lat="41.418092" lon="-5.910084">
        <ele>721.147</ele>
        <time>2017-09-20T13:48:55Z</time>
      </trkpt>
      <trkpt lat="41.418094" lon="-5.910166">
        <ele>720.611</ele>
        <time>2017-09-20T13:48:56Z</time>
      </trkpt>
      <trkpt lat="41.418102" lon="-5.910247">
        <ele>720.108</ele>
        <time>2017-09-20T13:48:57Z</time>
      </trkpt>
      <trkpt lat="41.418117" lon="-5.910331">
        <ele>720.133</ele>
        <time>2017-09-20T13:48:58Z</time>
      </trkpt>
      <trkpt lat="41.418139" lon="-5.910409">
        <ele>719.651</ele>
        <time>2017-09-20T13:48:59Z</time>
      </trkpt>
      <trkpt lat="41.418169" lon="-5.910489">
        <ele>719.251</ele>
        <time>2017-09-20T13:49:00Z</time>
      </trkpt>
      <trkpt lat="41.418203" lon="-5.910566">
        <ele>718.735</ele>
        <time>2017-09-20T13:49:01Z</time>
      </trkpt>
      <trkpt lat="41.418244" lon="-5.910649">
        <ele>718.263</ele>
        <time>2017-09-20T13:49:02Z</time>
      </trkpt>
      <trkpt lat="41.418366" lon="-5.910901">
        <ele>717.742</ele>
        <time>2017-09-20T13:49:05Z</time>
      </trkpt>
      <trkpt lat="41.418400" lon="-5.910992">
        <ele>717.242</ele>
        <time>2017-09-20T13:49:06Z</time>
      </trkpt>
      <trkpt lat="41.418828" lon="-5.912084">
        <ele>714.894</ele>
        <time>2017-09-20T13:49:19Z</time>
      </trkpt>
      <trkpt lat="41.418846" lon="-5.912167">
        <ele>714.464</ele>
        <time>2017-09-20T13:49:20Z</time>
      </trkpt>
      <trkpt lat="41.418977" lon="-5.912819">
        <ele>711.006</ele>
        <time>2017-09-20T13:49:29Z</time>
      </trkpt>
      <trkpt lat="41.418994" lon="-5.912887">
        <ele>711.016</ele>
        <time>2017-09-20T13:49:30Z</time>
      </trkpt>
      <trkpt lat="41.419064" lon="-5.913183">
        <ele>709.108</ele>
        <time>2017-09-20T13:49:34Z</time>
      </trkpt>
      <trkpt lat="41.419251" lon="-5.913699">
        <ele>706.717</ele>
        <time>2017-09-20T13:49:41Z</time>
      </trkpt>
      <trkpt lat="41.419267" lon="-5.913771">
        <ele>706.275</ele>
        <time>2017-09-20T13:49:42Z</time>
      </trkpt>
      <trkpt lat="41.419279" lon="-5.913842">
        <ele>706.275</ele>
        <time>2017-09-20T13:49:43Z</time>
      </trkpt>
      <trkpt lat="41.419282" lon="-5.913911">
        <ele>705.789</ele>
        <time>2017-09-20T13:49:44Z</time>
      </trkpt>
      <trkpt lat="41.419274" lon="-5.913975">
        <ele>705.277</ele>
        <time>2017-09-20T13:49:45Z</time>
      </trkpt>
      <trkpt lat="41.419256" lon="-5.914039">
        <ele>704.736</ele>
        <time>2017-09-20T13:49:46Z</time>
      </trkpt>
      <trkpt lat="41.419235" lon="-5.914105">
        <ele>704.326</ele>
        <time>2017-09-20T13:49:47Z</time>
      </trkpt>
      <trkpt lat="41.419214" lon="-5.914177">
        <ele>703.888</ele>
        <time>2017-09-20T13:49:48Z</time>
      </trkpt>
      <trkpt lat="41.419200" lon="-5.914255">
        <ele>703.817</ele>
        <time>2017-09-20T13:49:49Z</time>
      </trkpt>
      <trkpt lat="41.419197" lon="-5.914335">
        <ele>703.387</ele>
        <time>2017-09-20T13:49:50Z</time>
      </trkpt>
      <trkpt lat="41.419202" lon="-5.914416">
        <ele>703.315</ele>
        <time>2017-09-20T13:49:51Z</time>
      </trkpt>
      <trkpt lat="41.419212" lon="-5.914495">
        <ele>703.308</ele>
        <time>2017-09-20T13:49:52Z</time>
      </trkpt>
      <trkpt lat="41.419226" lon="-5.914641">
        <ele>703.342</ele>
        <time>2017-09-20T13:49:54Z</time>
      </trkpt>
      <trkpt lat="41.419220" lon="-5.914705">
        <ele>703.330</ele>
        <time>2017-09-20T13:49:55Z</time>
      </trkpt>
      <trkpt lat="41.419202" lon="-5.914767">
        <ele>703.340</ele>
        <time>2017-09-20T13:49:56Z</time>
      </trkpt>
      <trkpt lat="41.419017" lon="-5.915035">
        <ele>702.884</ele>
        <time>2017-09-20T13:50:06Z</time>
      </trkpt>
      <trkpt lat="41.418837" lon="-5.914922">
        <ele>701.962</ele>
        <time>2017-09-20T13:50:15Z</time>
      </trkpt>
      <trkpt lat="41.418738" lon="-5.914869">
        <ele>701.451</ele>
        <time>2017-09-20T13:50:19Z</time>
      </trkpt>
      <trkpt lat="41.418719" lon="-5.914882">
        <ele>701.981</ele>
        <time>2017-09-20T13:50:20Z</time>
      </trkpt>
      <trkpt lat="41.418703" lon="-5.914898">
        <ele>701.953</ele>
        <time>2017-09-20T13:50:21Z</time>
      </trkpt>
      <trkpt lat="41.418690" lon="-5.914916">
        <ele>701.972</ele>
        <time>2017-09-20T13:50:22Z</time>
      </trkpt>
      <trkpt lat="41.418677" lon="-5.914938">
        <ele>701.913</ele>
        <time>2017-09-20T13:50:23Z</time>
      </trkpt>
      <trkpt lat="41.418562" lon="-5.915269">
        <ele>702.314</ele>
        <time>2017-09-20T13:50:34Z</time>
      </trkpt>
      <trkpt lat="41.418532" lon="-5.915355">
        <ele>702.808</ele>
        <time>2017-09-20T13:50:38Z</time>
      </trkpt>
      <trkpt lat="41.418522" lon="-5.915374">
        <ele>702.848</ele>
        <time>2017-09-20T13:50:39Z</time>
      </trkpt>
      <trkpt lat="41.418514" lon="-5.915393">
        <ele>702.856</ele>
        <time>2017-09-20T13:50:40Z</time>
      </trkpt>
      <trkpt lat="41.418510" lon="-5.915416">
        <ele>702.816</ele>
        <time>2017-09-20T13:50:41Z</time>
      </trkpt>
      <trkpt lat="41.418505" lon="-5.915441">
        <ele>702.860</ele>
        <time>2017-09-20T13:50:42Z</time>
      </trkpt>
      <trkpt lat="41.418496" lon="-5.915463">
        <ele>702.868</ele>
        <time>2017-09-20T13:50:43Z</time>
      </trkpt>
      <trkpt lat="41.418489" lon="-5.915483">
        <ele>702.867</ele>
        <time>2017-09-20T13:50:44Z</time>
      </trkpt>
      <trkpt lat="41.418485" lon="-5.915503">
        <ele>702.847</ele>
        <time>2017-09-20T13:50:45Z</time>
      </trkpt>
      <trkpt lat="41.418479" lon="-5.915526">
        <ele>702.849</ele>
        <time>2017-09-20T13:50:46Z</time>
      </trkpt>
      <trkpt lat="41.418472" lon="-5.915553">
        <ele>702.357</ele>
        <time>2017-09-20T13:50:47Z</time>
      </trkpt>
      <trkpt lat="41.418450" lon="-5.916010">
        <ele>701.900</ele>
        <time>2017-09-20T13:50:59Z</time>
      </trkpt>
      <trkpt lat="41.418577" lon="-5.916392">
        <ele>702.820</ele>
        <time>2017-09-20T13:51:11Z</time>
      </trkpt>
      <trkpt lat="41.418544" lon="-5.916791">
        <ele>703.308</ele>
        <time>2017-09-20T13:51:22Z</time>
      </trkpt>
      <trkpt lat="41.418402" lon="-5.917172">
        <ele>703.396</ele>
        <time>2017-09-20T13:51:34Z</time>
      </trkpt>
      <trkpt lat="41.418403" lon="-5.917201">
        <ele>703.314</ele>
        <time>2017-09-20T13:51:35Z</time>
      </trkpt>
      <trkpt lat="41.418413" lon="-5.917224">
        <ele>703.334</ele>
        <time>2017-09-20T13:51:36Z</time>
      </trkpt>
      <trkpt lat="41.418432" lon="-5.917238">
        <ele>703.378</ele>
        <time>2017-09-20T13:51:37Z</time>
      </trkpt>
      <trkpt lat="41.418460" lon="-5.917248">
        <ele>702.816</ele>
        <time>2017-09-20T13:51:38Z</time>
      </trkpt>
      <trkpt lat="41.418511" lon="-5.917278">
        <ele>702.855</ele>
        <time>2017-09-20T13:51:40Z</time>
      </trkpt>
      <trkpt lat="41.418522" lon="-5.917304">
        <ele>703.315</ele>
        <time>2017-09-20T13:51:41Z</time>
      </trkpt>
      <trkpt lat="41.418527" lon="-5.917330">
        <ele>703.367</ele>
        <time>2017-09-20T13:51:42Z</time>
      </trkpt>
      <trkpt lat="41.418533" lon="-5.917354">
        <ele>703.327</ele>
        <time>2017-09-20T13:51:43Z</time>
      </trkpt>
      <trkpt lat="41.418541" lon="-5.917375">
        <ele>703.868</ele>
        <time>2017-09-20T13:51:44Z</time>
      </trkpt>
      <trkpt lat="41.418548" lon="-5.917394">
        <ele>703.814</ele>
        <time>2017-09-20T13:51:45Z</time>
      </trkpt>
      <trkpt lat="41.418561" lon="-5.917445">
        <ele>704.308</ele>
        <time>2017-09-20T13:51:48Z</time>
      </trkpt>
      <trkpt lat="41.418562" lon="-5.917462">
        <ele>704.313</ele>
        <time>2017-09-20T13:51:49Z</time>
      </trkpt>
      <trkpt lat="41.418565" lon="-5.917479">
        <ele>704.331</ele>
        <time>2017-09-20T13:51:50Z</time>
      </trkpt>
      <trkpt lat="41.418572" lon="-5.917495">
        <ele>704.381</ele>
        <time>2017-09-20T13:51:51Z</time>
      </trkpt>
      <trkpt lat="41.418582" lon="-5.917507">
        <ele>704.315</ele>
        <time>2017-09-20T13:51:52Z</time>
      </trkpt>
      <trkpt lat="41.418595" lon="-5.917513">
        <ele>704.793</ele>
        <time>2017-09-20T13:51:53Z</time>
      </trkpt>
      <trkpt lat="41.418611" lon="-5.917517">
        <ele>704.742</ele>
        <time>2017-09-20T13:51:54Z</time>
      </trkpt>
      <trkpt lat="41.418808" lon="-5.917635">
        <ele>707.142</ele>
        <time>2017-09-20T13:52:07Z</time>
      </trkpt>
      <trkpt lat="41.418962" lon="-5.917925">
        <ele>709.184</ele>
        <time>2017-09-20T13:52:21Z</time>
      </trkpt>
      <trkpt lat="41.419081" lon="-5.918357">
        <ele>711.028</ele>
        <time>2017-09-20T13:52:38Z</time>
      </trkpt>
      <trkpt lat="41.419126" lon="-5.918701">
        <ele>711.089</ele>
        <time>2017-09-20T13:52:51Z</time>
      </trkpt>
      <trkpt lat="41.419254" lon="-5.919215">
        <ele>711.917</ele>
        <time>2017-09-20T13:53:08Z</time>
      </trkpt>
      <trkpt lat="41.419314" lon="-5.919444">
        <ele>713.408</ele>
        <time>2017-09-20T13:53:19Z</time>
      </trkpt>
      <trkpt lat="41.419322" lon="-5.919504">
        <ele>713.953</ele>
        <time>2017-09-20T13:53:22Z</time>
      </trkpt>
      <trkpt lat="41.419333" lon="-5.919521">
        <ele>714.481</ele>
        <time>2017-09-20T13:53:23Z</time>
      </trkpt>
      <trkpt lat="41.419346" lon="-5.919536">
        <ele>714.441</ele>
        <time>2017-09-20T13:53:24Z</time>
      </trkpt>
      <trkpt lat="41.419356" lon="-5.919553">
        <ele>714.425</ele>
        <time>2017-09-20T13:53:25Z</time>
      </trkpt>
      <trkpt lat="41.419366" lon="-5.919571">
        <ele>714.833</ele>
        <time>2017-09-20T13:53:26Z</time>
      </trkpt>
      <trkpt lat="41.419374" lon="-5.919591">
        <ele>714.862</ele>
        <time>2017-09-20T13:53:27Z</time>
      </trkpt>
      <trkpt lat="41.419383" lon="-5.919608">
        <ele>714.852</ele>
        <time>2017-09-20T13:53:28Z</time>
      </trkpt>
      <trkpt lat="41.419395" lon="-5.919623">
        <ele>714.894</ele>
        <time>2017-09-20T13:53:29Z</time>
      </trkpt>
      <trkpt lat="41.419406" lon="-5.919637">
        <ele>715.329</ele>
        <time>2017-09-20T13:53:30Z</time>
      </trkpt>
      <trkpt lat="41.419417" lon="-5.919649">
        <ele>715.300</ele>
        <time>2017-09-20T13:53:31Z</time>
      </trkpt>
      <trkpt lat="41.419430" lon="-5.919658">
        <ele>715.320</ele>
        <time>2017-09-20T13:53:32Z</time>
      </trkpt>
      <trkpt lat="41.419583" lon="-5.919872">
        <ele>716.308</ele>
        <time>2017-09-20T13:53:46Z</time>
      </trkpt>
      <trkpt lat="41.419701" lon="-5.920176">
        <ele>717.253</ele>
        <time>2017-09-20T13:54:03Z</time>
      </trkpt>
      <trkpt lat="41.419707" lon="-5.920210">
        <ele>717.221</ele>
        <time>2017-09-20T13:54:05Z</time>
      </trkpt>
      <trkpt lat="41.419709" lon="-5.920235">
        <ele>717.291</ele>
        <time>2017-09-20T13:54:06Z</time>
      </trkpt>
      <trkpt lat="41.419712" lon="-5.920262">
        <ele>716.835</ele>
        <time>2017-09-20T13:54:07Z</time>
      </trkpt>
      <trkpt lat="41.419707" lon="-5.920579">
        <ele>716.363</ele>
        <time>2017-09-20T13:54:20Z</time>
      </trkpt>
      <trkpt lat="41.419695" lon="-5.920596">
        <ele>716.312</ele>
        <time>2017-09-20T13:54:21Z</time>
      </trkpt>
      <trkpt lat="41.419686" lon="-5.920608">
        <ele>716.352</ele>
        <time>2017-09-20T13:54:22Z</time>
      </trkpt>
      <trkpt lat="41.419680" lon="-5.920633">
        <ele>716.824</ele>
        <time>2017-09-20T13:54:24Z</time>
      </trkpt>
      <trkpt lat="41.419686" lon="-5.920653">
        <ele>716.869</ele>
        <time>2017-09-20T13:54:25Z</time>
      </trkpt>
      <trkpt lat="41.419689" lon="-5.920679">
        <ele>716.804</ele>
        <time>2017-09-20T13:54:26Z</time>
      </trkpt>
      <trkpt lat="41.419626" lon="-5.921052">
        <ele>715.324</ele>
        <time>2017-09-20T13:54:39Z</time>
      </trkpt>
      <trkpt lat="41.419528" lon="-5.921406">
        <ele>713.408</ele>
        <time>2017-09-20T13:54:49Z</time>
      </trkpt>
      <trkpt lat="41.419525" lon="-5.921439">
        <ele>712.987</ele>
        <time>2017-09-20T13:54:50Z</time>
      </trkpt>
      <trkpt lat="41.419528" lon="-5.921470">
        <ele>712.935</ele>
        <time>2017-09-20T13:54:51Z</time>
      </trkpt>
      <trkpt lat="41.419533" lon="-5.921505">
        <ele>712.435</ele>
        <time>2017-09-20T13:54:52Z</time>
      </trkpt>
      <trkpt lat="41.419533" lon="-5.921540">
        <ele>712.439</ele>
        <time>2017-09-20T13:54:53Z</time>
      </trkpt>
      <trkpt lat="41.419521" lon="-5.921564">
        <ele>712.427</ele>
        <time>2017-09-20T13:54:54Z</time>
      </trkpt>
      <trkpt lat="41.419503" lon="-5.921580">
        <ele>712.446</ele>
        <time>2017-09-20T13:54:55Z</time>
      </trkpt>
      <trkpt lat="41.419483" lon="-5.921596">
        <ele>711.986</ele>
        <time>2017-09-20T13:54:56Z</time>
      </trkpt>
      <trkpt lat="41.419461" lon="-5.921615">
        <ele>711.968</ele>
        <time>2017-09-20T13:54:57Z</time>
      </trkpt>
      <trkpt lat="41.419444" lon="-5.921640">
        <ele>711.925</ele>
        <time>2017-09-20T13:54:58Z</time>
      </trkpt>
      <trkpt lat="41.419433" lon="-5.921669">
        <ele>711.926</ele>
        <time>2017-09-20T13:54:59Z</time>
      </trkpt>
      <trkpt lat="41.419422" lon="-5.921699">
        <ele>711.508</ele>
        <time>2017-09-20T13:55:00Z</time>
      </trkpt>
      <trkpt lat="41.419411" lon="-5.921725">
        <ele>711.008</ele>
        <time>2017-09-20T13:55:01Z</time>
      </trkpt>
      <trkpt lat="41.419296" lon="-5.922087">
        <ele>710.043</ele>
        <time>2017-09-20T13:55:13Z</time>
      </trkpt>
      <trkpt lat="41.419292" lon="-5.922099">
        <ele>709.591</ele>
        <time>2017-09-20T13:55:20Z</time>
      </trkpt>
      <trkpt lat="41.419292" lon="-5.922115">
        <ele>709.531</ele>
        <time>2017-09-20T13:55:21Z</time>
      </trkpt>
      <trkpt lat="41.419292" lon="-5.922138">
        <ele>709.175</ele>
        <time>2017-09-20T13:55:22Z</time>
      </trkpt>
      <trkpt lat="41.419298" lon="-5.922163">
        <ele>708.633</ele>
        <time>2017-09-20T13:55:23Z</time>
      </trkpt>
      <trkpt lat="41.419305" lon="-5.922191">
        <ele>708.692</ele>
        <time>2017-09-20T13:55:24Z</time>
      </trkpt>
      <trkpt lat="41.419365" lon="-5.922314">
        <ele>707.672</ele>
        <time>2017-09-20T13:55:29Z</time>
      </trkpt>
      <trkpt lat="41.419366" lon="-5.922348">
        <ele>707.664</ele>
        <time>2017-09-20T13:55:30Z</time>
      </trkpt>
      <trkpt lat="41.419328" lon="-5.922740">
        <ele>706.232</ele>
        <time>2017-09-20T13:55:39Z</time>
      </trkpt>
      <trkpt lat="41.419330" lon="-5.922762">
        <ele>706.292</ele>
        <time>2017-09-20T13:55:40Z</time>
      </trkpt>
      <trkpt lat="41.419324" lon="-5.922781">
        <ele>706.211</ele>
        <time>2017-09-20T13:55:41Z</time>
      </trkpt>
      <trkpt lat="41.419314" lon="-5.922800">
        <ele>706.208</ele>
        <time>2017-09-20T13:55:42Z</time>
      </trkpt>
      <trkpt lat="41.419304" lon="-5.922822">
        <ele>706.224</ele>
        <time>2017-09-20T13:55:43Z</time>
      </trkpt>
      <trkpt lat="41.419297" lon="-5.922851">
        <ele>706.232</ele>
        <time>2017-09-20T13:55:44Z</time>
      </trkpt>
      <trkpt lat="41.419294" lon="-5.922884">
        <ele>706.252</ele>
        <time>2017-09-20T13:55:45Z</time>
      </trkpt>
      <trkpt lat="41.419111" lon="-5.923377">
        <ele>704.776</ele>
        <time>2017-09-20T13:55:59Z</time>
      </trkpt>
      <trkpt lat="41.418925" lon="-5.923856">
        <ele>704.754</ele>
        <time>2017-09-20T13:56:14Z</time>
      </trkpt>
      <trkpt lat="41.418835" lon="-5.923984">
        <ele>704.743</ele>
        <time>2017-09-20T13:56:20Z</time>
      </trkpt>
      <trkpt lat="41.418816" lon="-5.923992">
        <ele>705.253</ele>
        <time>2017-09-20T13:56:21Z</time>
      </trkpt>
      <trkpt lat="41.418798" lon="-5.924001">
        <ele>705.265</ele>
        <time>2017-09-20T13:56:22Z</time>
      </trkpt>
      <trkpt lat="41.418564" lon="-5.924187">
        <ele>706.224</ele>
        <time>2017-09-20T13:56:35Z</time>
      </trkpt>
      <trkpt lat="41.418328" lon="-5.924447">
        <ele>708.604</ele>
        <time>2017-09-20T13:56:50Z</time>
      </trkpt>
      <trkpt lat="41.418160" lon="-5.924765">
        <ele>710.014</ele>
        <time>2017-09-20T13:57:05Z</time>
      </trkpt>
      <trkpt lat="41.418076" lon="-5.925056">
        <ele>710.508</ele>
        <time>2017-09-20T13:57:20Z</time>
      </trkpt>
      <trkpt lat="41.418042" lon="-5.925086">
        <ele>711.553</ele>
        <time>2017-09-20T13:57:35Z</time>
      </trkpt>
      <trkpt lat="41.417919" lon="-5.925177">
        <ele>713.451</ele>
        <time>2017-09-20T13:57:49Z</time>
      </trkpt>
      <trkpt lat="41.417894" lon="-5.925248">
        <ele>713.471</ele>
        <time>2017-09-20T13:57:56Z</time>
      </trkpt>
      <trkpt lat="41.417900" lon="-5.925262">
        <ele>713.495</ele>
        <time>2017-09-20T13:58:14Z</time>
      </trkpt>
      <trkpt lat="41.417913" lon="-5.925343">
        <ele>714.473</ele>
        <time>2017-09-20T13:58:36Z</time>
      </trkpt>
      <trkpt lat="41.417925" lon="-5.925544">
        <ele>716.872</ele>
        <time>2017-09-20T13:58:51Z</time>
      </trkpt>
      <trkpt lat="41.417917" lon="-5.925636">
        <ele>717.252</ele>
        <time>2017-09-20T13:59:00Z</time>
      </trkpt>
      <trkpt lat="41.417921" lon="-5.925649">
        <ele>717.244</ele>
        <time>2017-09-20T13:59:01Z</time>
      </trkpt>
      <trkpt lat="41.417929" lon="-5.925661">
        <ele>717.799</ele>
        <time>2017-09-20T13:59:02Z</time>
      </trkpt>
      <trkpt lat="41.417938" lon="-5.925670">
        <ele>718.207</ele>
        <time>2017-09-20T13:59:03Z</time>
      </trkpt>
      <trkpt lat="41.417948" lon="-5.925677">
        <ele>718.227</ele>
        <time>2017-09-20T13:59:04Z</time>
      </trkpt>
      <trkpt lat="41.417958" lon="-5.925683">
        <ele>718.708</ele>
        <time>2017-09-20T13:59:05Z</time>
      </trkpt>
      <trkpt lat="41.418021" lon="-5.925757">
        <ele>719.280</ele>
        <time>2017-09-20T13:59:11Z</time>
      </trkpt>
      <trkpt lat="41.418034" lon="-5.925766">
        <ele>719.258</ele>
        <time>2017-09-20T13:59:12Z</time>
      </trkpt>
      <trkpt lat="41.418068" lon="-5.925800">
        <ele>719.228</ele>
        <time>2017-09-20T13:59:16Z</time>
      </trkpt>
      <trkpt lat="41.418073" lon="-5.925818">
        <ele>719.692</ele>
        <time>2017-09-20T13:59:17Z</time>
      </trkpt>
      <trkpt lat="41.418079" lon="-5.925834">
        <ele>719.650</ele>
        <time>2017-09-20T13:59:18Z</time>
      </trkpt>
      <trkpt lat="41.418115" lon="-5.925876">
        <ele>720.139</ele>
        <time>2017-09-20T13:59:28Z</time>
      </trkpt>
      <trkpt lat="41.418126" lon="-5.925885">
        <ele>720.149</ele>
        <time>2017-09-20T13:59:29Z</time>
      </trkpt>
      <trkpt lat="41.418287" lon="-5.925963">
        <ele>720.631</ele>
        <time>2017-09-20T13:59:43Z</time>
      </trkpt>
      <trkpt lat="41.418324" lon="-5.925951">
        <ele>720.663</ele>
        <time>2017-09-20T13:59:46Z</time>
      </trkpt>
      <trkpt lat="41.418336" lon="-5.925960">
        <ele>720.644</ele>
        <time>2017-09-20T13:59:47Z</time>
      </trkpt>
      <trkpt lat="41.418431" lon="-5.926008">
        <ele>721.118</ele>
        <time>2017-09-20T14:00:00Z</time>
      </trkpt>
      <trkpt lat="41.418449" lon="-5.926004">
        <ele>721.108</ele>
        <time>2017-09-20T14:00:02Z</time>
      </trkpt>
      <trkpt lat="41.418460" lon="-5.926001">
        <ele>721.157</ele>
        <time>2017-09-20T14:00:03Z</time>
      </trkpt>
      <trkpt lat="41.418471" lon="-5.926001">
        <ele>721.175</ele>
        <time>2017-09-20T14:00:04Z</time>
      </trkpt>
      <trkpt lat="41.418481" lon="-5.926004">
        <ele>721.135</ele>
        <time>2017-09-20T14:00:05Z</time>
      </trkpt>
      <trkpt lat="41.418636" lon="-5.926105">
        <ele>722.529</ele>
        <time>2017-09-20T14:00:19Z</time>
      </trkpt>
      <trkpt lat="41.418635" lon="-5.926141">
        <ele>724.027</ele>
        <time>2017-09-20T14:00:33Z</time>
      </trkpt>
      <trkpt lat="41.418545" lon="-5.926152">
        <ele>724.966</ele>
        <time>2017-09-20T14:00:42Z</time>
      </trkpt>
      <trkpt lat="41.418511" lon="-5.926173">
        <ele>724.956</ele>
        <time>2017-09-20T14:00:45Z</time>
      </trkpt>
      <trkpt lat="41.418477" lon="-5.926203">
        <ele>724.928</ele>
        <time>2017-09-20T14:00:49Z</time>
      </trkpt>
      <trkpt lat="41.418393" lon="-5.926424">
        <ele>725.484</ele>
        <time>2017-09-20T14:01:05Z</time>
      </trkpt>
      <trkpt lat="41.418482" lon="-5.926637">
        <ele>727.307</ele>
        <time>2017-09-20T14:01:21Z</time>
      </trkpt>
      <trkpt lat="41.418545" lon="-5.926724">
        <ele>727.817</ele>
        <time>2017-09-20T14:01:31Z</time>
      </trkpt>
      <trkpt lat="41.418557" lon="-5.926822">
        <ele>729.308</ele>
        <time>2017-09-20T14:01:39Z</time>
      </trkpt>
      <trkpt lat="41.418721" lon="-5.927010">
        <ele>730.249</ele>
        <time>2017-09-20T14:01:55Z</time>
      </trkpt>
      <trkpt lat="41.418809" lon="-5.927087">
        <ele>730.767</ele>
        <time>2017-09-20T14:02:10Z</time>
      </trkpt>
      <trkpt lat="41.418804" lon="-5.927094">
        <ele>730.787</ele>
        <time>2017-09-20T14:02:37Z</time>
      </trkpt>
      <trkpt lat="41.418800" lon="-5.927097">
        <ele>730.211</ele>
        <time>2017-09-20T14:03:08Z</time>
      </trkpt>
      <trkpt lat="41.418849" lon="-5.927142">
        <ele>730.259</ele>
        <time>2017-09-20T14:03:17Z</time>
      </trkpt>
      <trkpt lat="41.418946" lon="-5.927364">
        <ele>732.158</ele>
        <time>2017-09-20T14:03:32Z</time>
      </trkpt>
      <trkpt lat="41.418978" lon="-5.927388">
        <ele>732.138</ele>
        <time>2017-09-20T14:03:45Z</time>
      </trkpt>
      <trkpt lat="41.419016" lon="-5.927445">
        <ele>732.170</ele>
        <time>2017-09-20T14:03:49Z</time>
      </trkpt>
      <trkpt lat="41.419034" lon="-5.927460">
        <ele>732.127</ele>
        <time>2017-09-20T14:03:50Z</time>
      </trkpt>
      <trkpt lat="41.419051" lon="-5.927474">
        <ele>732.168</ele>
        <time>2017-09-20T14:03:51Z</time>
      </trkpt>
      <trkpt lat="41.419091" lon="-5.927521">
        <ele>731.714</ele>
        <time>2017-09-20T14:03:54Z</time>
      </trkpt>
      <trkpt lat="41.419204" lon="-5.927778">
        <ele>732.108</ele>
        <time>2017-09-20T14:04:06Z</time>
      </trkpt>
      <trkpt lat="41.419380" lon="-5.927944">
        <ele>732.673</ele>
        <time>2017-09-20T14:04:17Z</time>
      </trkpt>
      <trkpt lat="41.419629" lon="-5.928282">
        <ele>733.641</ele>
        <time>2017-09-20T14:04:32Z</time>
      </trkpt>
      <trkpt lat="41.419903" lon="-5.928575">
        <ele>732.621</ele>
        <time>2017-09-20T14:04:43Z</time>
      </trkpt>
      <trkpt lat="41.420113" lon="-5.928917">
        <ele>733.695</ele>
        <time>2017-09-20T14:04:57Z</time>
      </trkpt>
      <trkpt lat="41.420313" lon="-5.929152">
        <ele>735.023</ele>
        <time>2017-09-20T14:05:10Z</time>
      </trkpt>
      <trkpt lat="41.420344" lon="-5.929387">
        <ele>736.062</ele>
        <time>2017-09-20T14:05:22Z</time>
      </trkpt>
      <trkpt lat="41.420344" lon="-5.929412">
        <ele>736.012</ele>
        <time>2017-09-20T14:05:23Z</time>
      </trkpt>
      <trkpt lat="41.420346" lon="-5.929437">
        <ele>736.044</ele>
        <time>2017-09-20T14:05:24Z</time>
      </trkpt>
      <trkpt lat="41.420347" lon="-5.929461">
        <ele>736.571</ele>
        <time>2017-09-20T14:05:25Z</time>
      </trkpt>
      <trkpt lat="41.420345" lon="-5.929483">
        <ele>736.541</ele>
        <time>2017-09-20T14:05:26Z</time>
      </trkpt>
      <trkpt lat="41.420363" lon="-5.929548">
        <ele>736.515</ele>
        <time>2017-09-20T14:05:35Z</time>
      </trkpt>
      <trkpt lat="41.420372" lon="-5.929591">
        <ele>737.408</ele>
        <time>2017-09-20T14:05:39Z</time>
      </trkpt>
      <trkpt lat="41.420374" lon="-5.929605">
        <ele>737.458</ele>
        <time>2017-09-20T14:05:40Z</time>
      </trkpt>
      <trkpt lat="41.420365" lon="-5.929725">
        <ele>737.986</ele>
        <time>2017-09-20T14:05:54Z</time>
      </trkpt>
      <trkpt lat="41.420366" lon="-5.929737">
        <ele>737.926</ele>
        <time>2017-09-20T14:05:55Z</time>
      </trkpt>
      <trkpt lat="41.420366" lon="-5.929752">
        <ele>737.980</ele>
        <time>2017-09-20T14:05:56Z</time>
      </trkpt>
      <trkpt lat="41.420365" lon="-5.929766">
        <ele>737.928</ele>
        <time>2017-09-20T14:05:57Z</time>
      </trkpt>
      <trkpt lat="41.420363" lon="-5.929783">
        <ele>737.987</ele>
        <time>2017-09-20T14:05:58Z</time>
      </trkpt>
      <trkpt lat="41.420362" lon="-5.929802">
        <ele>738.497</ele>
        <time>2017-09-20T14:05:59Z</time>
      </trkpt>
      <trkpt lat="41.420388" lon="-5.930079">
        <ele>739.389</ele>
        <time>2017-09-20T14:06:15Z</time>
      </trkpt>
      <trkpt lat="41.420350" lon="-5.930433">
        <ele>740.868</ele>
        <time>2017-09-20T14:06:35Z</time>
      </trkpt>
      <trkpt lat="41.420333" lon="-5.930633">
        <ele>742.742</ele>
        <time>2017-09-20T14:06:53Z</time>
      </trkpt>
      <trkpt lat="41.420319" lon="-5.930657">
        <ele>743.226</ele>
        <time>2017-09-20T14:06:59Z</time>
      </trkpt>
      <trkpt lat="41.420189" lon="-5.930884">
        <ele>744.208</ele>
        <time>2017-09-20T14:07:15Z</time>
      </trkpt>
      <trkpt lat="41.420086" lon="-5.931122">
        <ele>744.657</ele>
        <time>2017-09-20T14:07:30Z</time>
      </trkpt>
      <trkpt lat="41.420076" lon="-5.931261">
        <ele>745.145</ele>
        <time>2017-09-20T14:07:37Z</time>
      </trkpt>
      <trkpt lat="41.420069" lon="-5.931280">
        <ele>745.165</ele>
        <time>2017-09-20T14:07:38Z</time>
      </trkpt>
      <trkpt lat="41.419996" lon="-5.931460">
        <ele>745.659</ele>
        <time>2017-09-20T14:07:49Z</time>
      </trkpt>
      <trkpt lat="41.419996" lon="-5.931497">
        <ele>745.697</ele>
        <time>2017-09-20T14:08:02Z</time>
      </trkpt>
      <trkpt lat="41.420026" lon="-5.931803">
        <ele>746.656</ele>
        <time>2017-09-20T14:08:14Z</time>
      </trkpt>
      <trkpt lat="41.420112" lon="-5.932089">
        <ele>748.036</ele>
        <time>2017-09-20T14:08:27Z</time>
      </trkpt>
      <trkpt lat="41.420293" lon="-5.932363">
        <ele>748.568</ele>
        <time>2017-09-20T14:08:40Z</time>
      </trkpt>
      <trkpt lat="41.420364" lon="-5.932708">
        <ele>749.093</ele>
        <time>2017-09-20T14:08:54Z</time>
      </trkpt>
      <trkpt lat="41.420303" lon="-5.933032">
        <ele>749.965</ele>
        <time>2017-09-20T14:09:08Z</time>
      </trkpt>
      <trkpt lat="41.420215" lon="-5.933256">
        <ele>751.821</ele>
        <time>2017-09-20T14:09:20Z</time>
      </trkpt>
      <trkpt lat="41.420243" lon="-5.933419">
        <ele>751.808</ele>
        <time>2017-09-20T14:09:35Z</time>
      </trkpt>
      <trkpt lat="41.420237" lon="-5.933718">
        <ele>752.320</ele>
        <time>2017-09-20T14:09:50Z</time>
      </trkpt>
      <trkpt lat="41.420231" lon="-5.933734">
        <ele>752.348</ele>
        <time>2017-09-20T14:09:51Z</time>
      </trkpt>
      <trkpt lat="41.420229" lon="-5.933756">
        <ele>752.358</ele>
        <time>2017-09-20T14:09:52Z</time>
      </trkpt>
      <trkpt lat="41.420175" lon="-5.934117">
        <ele>752.852</ele>
        <time>2017-09-20T14:10:05Z</time>
      </trkpt>
      <trkpt lat="41.419992" lon="-5.934669">
        <ele>751.820</ele>
        <time>2017-09-20T14:10:21Z</time>
      </trkpt>
      <trkpt lat="41.419731" lon="-5.935315">
        <ele>751.449</ele>
        <time>2017-09-20T14:10:37Z</time>
      </trkpt>
      <trkpt lat="41.419586" lon="-5.935952">
        <ele>749.429</ele>
        <time>2017-09-20T14:10:52Z</time>
      </trkpt>
      <trkpt lat="41.419782" lon="-5.936314">
        <ele>748.591</ele>
        <time>2017-09-20T14:11:03Z</time>
      </trkpt>
      <trkpt lat="41.419826" lon="-5.936816">
        <ele>747.532</ele>
        <time>2017-09-20T14:11:13Z</time>
      </trkpt>
      <trkpt lat="41.419899" lon="-5.937321">
        <ele>746.692</ele>
        <time>2017-09-20T14:11:25Z</time>
      </trkpt>
      <trkpt lat="41.419937" lon="-5.937847">
        <ele>745.111</ele>
        <time>2017-09-20T14:11:37Z</time>
      </trkpt>
      <trkpt lat="41.419986" lon="-5.938076">
        <ele>744.208</ele>
        <time>2017-09-20T14:11:43Z</time>
      </trkpt>
      <trkpt lat="41.419999" lon="-5.938112">
        <ele>744.274</ele>
        <time>2017-09-20T14:11:44Z</time>
      </trkpt>
      <trkpt lat="41.420019" lon="-5.938144">
        <ele>743.782</ele>
        <time>2017-09-20T14:11:45Z</time>
      </trkpt>
      <trkpt lat="41.420102" lon="-5.938241">
        <ele>743.282</ele>
        <time>2017-09-20T14:11:48Z</time>
      </trkpt>
      <trkpt lat="41.420397" lon="-5.938596">
        <ele>740.366</ele>
        <time>2017-09-20T14:12:01Z</time>
      </trkpt>
      <trkpt lat="41.420418" lon="-5.938643">
        <ele>739.854</ele>
        <time>2017-09-20T14:12:03Z</time>
      </trkpt>
      <trkpt lat="41.420421" lon="-5.938665">
        <ele>739.843</ele>
        <time>2017-09-20T14:12:04Z</time>
      </trkpt>
      <trkpt lat="41.420424" lon="-5.938688">
        <ele>739.833</ele>
        <time>2017-09-20T14:12:05Z</time>
      </trkpt>
      <trkpt lat="41.420429" lon="-5.938714">
        <ele>739.835</ele>
        <time>2017-09-20T14:12:06Z</time>
      </trkpt>
      <trkpt lat="41.420433" lon="-5.938732">
        <ele>739.881</ele>
        <time>2017-09-20T14:12:07Z</time>
      </trkpt>
      <trkpt lat="41.420431" lon="-5.938759">
        <ele>739.861</ele>
        <time>2017-09-20T14:12:09Z</time>
      </trkpt>
      <trkpt lat="41.420427" lon="-5.938773">
        <ele>739.817</ele>
        <time>2017-09-20T14:12:10Z</time>
      </trkpt>
      <trkpt lat="41.420396" lon="-5.938839">
        <ele>740.308</ele>
        <time>2017-09-20T14:12:15Z</time>
      </trkpt>
      <trkpt lat="41.420381" lon="-5.938853">
        <ele>740.359</ele>
        <time>2017-09-20T14:12:16Z</time>
      </trkpt>
      <trkpt lat="41.420366" lon="-5.938867">
        <ele>740.347</ele>
        <time>2017-09-20T14:12:17Z</time>
      </trkpt>
      <trkpt lat="41.420350" lon="-5.938882">
        <ele>740.377</ele>
        <time>2017-09-20T14:12:18Z</time>
      </trkpt>
      <trkpt lat="41.420335" lon="-5.938899">
        <ele>740.331</ele>
        <time>2017-09-20T14:12:19Z</time>
      </trkpt>
      <trkpt lat="41.420326" lon="-5.938922">
        <ele>740.339</ele>
        <time>2017-09-20T14:12:20Z</time>
      </trkpt>
      <trkpt lat="41.420322" lon="-5.938949">
        <ele>740.388</ele>
        <time>2017-09-20T14:12:21Z</time>
      </trkpt>
      <trkpt lat="41.420321" lon="-5.938972">
        <ele>740.368</ele>
        <time>2017-09-20T14:12:22Z</time>
      </trkpt>
      <trkpt lat="41.420329" lon="-5.938996">
        <ele>739.850</ele>
        <time>2017-09-20T14:12:32Z</time>
      </trkpt>
      <trkpt lat="41.420437" lon="-5.939189">
        <ele>737.927</ele>
        <time>2017-09-20T14:12:42Z</time>
      </trkpt>
      <trkpt lat="41.420672" lon="-5.939218">
        <ele>735.068</ele>
        <time>2017-09-20T14:12:54Z</time>
      </trkpt>
      <trkpt lat="41.420720" lon="-5.939258">
        <ele>735.014</ele>
        <time>2017-09-20T14:12:57Z</time>
      </trkpt>
      <trkpt lat="41.420722" lon="-5.939278">
        <ele>734.508</ele>
        <time>2017-09-20T14:12:58Z</time>
      </trkpt>
      <trkpt lat="41.420739" lon="-5.939430">
        <ele>733.113</ele>
        <time>2017-09-20T14:13:04Z</time>
      </trkpt>
      <trkpt lat="41.420758" lon="-5.939439">
        <ele>733.151</ele>
        <time>2017-09-20T14:13:05Z</time>
      </trkpt>
      <trkpt lat="41.420785" lon="-5.939447">
        <ele>732.651</ele>
        <time>2017-09-20T14:13:06Z</time>
      </trkpt>
      <trkpt lat="41.421195" lon="-5.939482">
        <ele>731.755</ele>
        <time>2017-09-20T14:13:18Z</time>
      </trkpt>
      <trkpt lat="41.421474" lon="-5.939350">
        <ele>729.753</ele>
        <time>2017-09-20T14:13:29Z</time>
      </trkpt>
      <trkpt lat="41.421518" lon="-5.939350">
        <ele>729.342</ele>
        <time>2017-09-20T14:13:32Z</time>
      </trkpt>
      <trkpt lat="41.421535" lon="-5.939363">
        <ele>729.332</ele>
        <time>2017-09-20T14:13:33Z</time>
      </trkpt>
      <trkpt lat="41.421553" lon="-5.939380">
        <ele>728.844</ele>
        <time>2017-09-20T14:13:34Z</time>
      </trkpt>
      <trkpt lat="41.421569" lon="-5.939401">
        <ele>728.885</ele>
        <time>2017-09-20T14:13:35Z</time>
      </trkpt>
      <trkpt lat="41.421583" lon="-5.939421">
        <ele>728.889</ele>
        <time>2017-09-20T14:13:36Z</time>
      </trkpt>
      <trkpt lat="41.421594" lon="-5.939438">
        <ele>728.317</ele>
        <time>2017-09-20T14:13:37Z</time>
      </trkpt>
      <trkpt lat="41.421598" lon="-5.939462">
        <ele>728.308</ele>
        <time>2017-09-20T14:13:38Z</time>
      </trkpt>
      <trkpt lat="41.421592" lon="-5.939485">
        <ele>728.359</ele>
        <time>2017-09-20T14:13:39Z</time>
      </trkpt>
      <trkpt lat="41.421582" lon="-5.939501">
        <ele>727.847</ele>
        <time>2017-09-20T14:13:40Z</time>
      </trkpt>
      <trkpt lat="41.421573" lon="-5.939516">
        <ele>727.857</ele>
        <time>2017-09-20T14:13:41Z</time>
      </trkpt>
      <trkpt lat="41.421564" lon="-5.939534">
        <ele>727.851</ele>
        <time>2017-09-20T14:13:42Z</time>
      </trkpt>
      <trkpt lat="41.421552" lon="-5.939550">
        <ele>727.869</ele>
        <time>2017-09-20T14:13:43Z</time>
      </trkpt>
      <trkpt lat="41.421535" lon="-5.939567">
        <ele>727.378</ele>
        <time>2017-09-20T14:13:44Z</time>
      </trkpt>
      <trkpt lat="41.421477" lon="-5.939662">
        <ele>726.438</ele>
        <time>2017-09-20T14:13:48Z</time>
      </trkpt>
      <trkpt lat="41.421475" lon="-5.939697">
        <ele>726.420</ele>
        <time>2017-09-20T14:13:49Z</time>
      </trkpt>
      <trkpt lat="41.421481" lon="-5.939737">
        <ele>725.918</ele>
        <time>2017-09-20T14:13:50Z</time>
      </trkpt>
      <trkpt lat="41.421492" lon="-5.939780">
        <ele>725.998</ele>
        <time>2017-09-20T14:13:51Z</time>
      </trkpt>
      <trkpt lat="41.421505" lon="-5.939822">
        <ele>725.917</ele>
        <time>2017-09-20T14:13:52Z</time>
      </trkpt>
      <trkpt lat="41.421521" lon="-5.940270">
        <ele>724.908</ele>
        <time>2017-09-20T14:14:04Z</time>
      </trkpt>
      <trkpt lat="41.421350" lon="-5.940668">
        <ele>724.462</ele>
        <time>2017-09-20T14:14:16Z</time>
      </trkpt>
      <trkpt lat="41.421061" lon="-5.941066">
        <ele>723.550</ele>
        <time>2017-09-20T14:14:29Z</time>
      </trkpt>
      <trkpt lat="41.420747" lon="-5.941471">
        <ele>720.650</ele>
        <time>2017-09-20T14:14:42Z</time>
      </trkpt>
      <trkpt lat="41.420611" lon="-5.941721">
        <ele>719.284</ele>
        <time>2017-09-20T14:14:52Z</time>
      </trkpt>
      <trkpt lat="41.420434" lon="-5.941979">
        <ele>716.892</ele>
        <time>2017-09-20T14:15:02Z</time>
      </trkpt>
      <trkpt lat="41.420367" lon="-5.942106">
        <ele>715.881</ele>
        <time>2017-09-20T14:15:07Z</time>
      </trkpt>
      <trkpt lat="41.420365" lon="-5.942144">
        <ele>715.891</ele>
        <time>2017-09-20T14:15:08Z</time>
      </trkpt>
      <trkpt lat="41.420367" lon="-5.942188">
        <ele>715.383</ele>
        <time>2017-09-20T14:15:09Z</time>
      </trkpt>
      <trkpt lat="41.420374" lon="-5.942232">
        <ele>714.892</ele>
        <time>2017-09-20T14:15:10Z</time>
      </trkpt>
      <trkpt lat="41.420383" lon="-5.942272">
        <ele>714.473</ele>
        <time>2017-09-20T14:15:11Z</time>
      </trkpt>
      <trkpt lat="41.420455" lon="-5.942545">
        <ele>713.920</ele>
        <time>2017-09-20T14:15:22Z</time>
      </trkpt>
      <trkpt lat="41.420390" lon="-5.942820">
        <ele>715.808</ele>
        <time>2017-09-20T14:15:35Z</time>
      </trkpt>
      <trkpt lat="41.420442" lon="-5.942910">
        <ele>716.350</ele>
        <time>2017-09-20T14:15:40Z</time>
      </trkpt>
      <trkpt lat="41.420460" lon="-5.942910">
        <ele>716.338</ele>
        <time>2017-09-20T14:15:41Z</time>
      </trkpt>
      <trkpt lat="41.420478" lon="-5.942910">
        <ele>716.878</ele>
        <time>2017-09-20T14:15:42Z</time>
      </trkpt>
      <trkpt lat="41.420497" lon="-5.942914">
        <ele>716.812</ele>
        <time>2017-09-20T14:15:43Z</time>
      </trkpt>
      <trkpt lat="41.420512" lon="-5.942922">
        <ele>716.870</ele>
        <time>2017-09-20T14:15:44Z</time>
      </trkpt>
      <trkpt lat="41.420525" lon="-5.942934">
        <ele>716.879</ele>
        <time>2017-09-20T14:15:45Z</time>
      </trkpt>
      <trkpt lat="41.420532" lon="-5.942950">
        <ele>717.219</ele>
        <time>2017-09-20T14:15:46Z</time>
      </trkpt>
      <trkpt lat="41.420535" lon="-5.942968">
        <ele>717.221</ele>
        <time>2017-09-20T14:15:47Z</time>
      </trkpt>
      <trkpt lat="41.420530" lon="-5.942988">
        <ele>716.873</ele>
        <time>2017-09-20T14:15:48Z</time>
      </trkpt>
      <trkpt lat="41.420526" lon="-5.943005">
        <ele>716.885</ele>
        <time>2017-09-20T14:15:49Z</time>
      </trkpt>
      <trkpt lat="41.420524" lon="-5.943026">
        <ele>716.813</ele>
        <time>2017-09-20T14:15:50Z</time>
      </trkpt>
      <trkpt lat="41.420526" lon="-5.943043">
        <ele>716.808</ele>
        <time>2017-09-20T14:15:51Z</time>
      </trkpt>
      <trkpt lat="41.420529" lon="-5.943061">
        <ele>716.838</ele>
        <time>2017-09-20T14:15:52Z</time>
      </trkpt>
      <trkpt lat="41.420560" lon="-5.943187">
        <ele>717.236</ele>
        <time>2017-09-20T14:15:59Z</time>
      </trkpt>
      <trkpt lat="41.420551" lon="-5.943229">
        <ele>717.746</ele>
        <time>2017-09-20T14:16:02Z</time>
      </trkpt>
      <trkpt lat="41.420553" lon="-5.943246">
        <ele>717.730</ele>
        <time>2017-09-20T14:16:03Z</time>
      </trkpt>
      <trkpt lat="41.420545" lon="-5.943330">
        <ele>718.728</ele>
        <time>2017-09-20T14:16:15Z</time>
      </trkpt>
      <trkpt lat="41.420571" lon="-5.943508">
        <ele>720.157</ele>
        <time>2017-09-20T14:16:29Z</time>
      </trkpt>
      <trkpt lat="41.420674" lon="-5.943697">
        <ele>722.567</ele>
        <time>2017-09-20T14:16:46Z</time>
      </trkpt>
      <trkpt lat="41.420713" lon="-5.943843">
        <ele>723.089</ele>
        <time>2017-09-20T14:17:07Z</time>
      </trkpt>
      <trkpt lat="41.420771" lon="-5.943989">
        <ele>723.512</ele>
        <time>2017-09-20T14:17:18Z</time>
      </trkpt>
      <trkpt lat="41.420773" lon="-5.944004">
        <ele>723.532</ele>
        <time>2017-09-20T14:17:19Z</time>
      </trkpt>
      <trkpt lat="41.420828" lon="-5.944217">
        <ele>724.405</ele>
        <time>2017-09-20T14:17:33Z</time>
      </trkpt>
      <trkpt lat="41.420918" lon="-5.944503">
        <ele>727.308</ele>
        <time>2017-09-20T14:17:51Z</time>
      </trkpt>
      <trkpt lat="41.420938" lon="-5.944776">
        <ele>727.842</ele>
        <time>2017-09-20T14:18:06Z</time>
      </trkpt>
      <trkpt lat="41.420946" lon="-5.944841">
        <ele>728.380</ele>
        <time>2017-09-20T14:18:19Z</time>
      </trkpt>
      <trkpt lat="41.420986" lon="-5.944951">
        <ele>729.370</ele>
        <time>2017-09-20T14:18:38Z</time>
      </trkpt>
      <trkpt lat="41.421104" lon="-5.945292">
        <ele>728.384</ele>
        <time>2017-09-20T14:18:50Z</time>
      </trkpt>
      <trkpt lat="41.421278" lon="-5.945764">
        <ele>729.382</ele>
        <time>2017-09-20T14:19:07Z</time>
      </trkpt>
      <trkpt lat="41.421361" lon="-5.946069">
        <ele>729.761</ele>
        <time>2017-09-20T14:19:21Z</time>
      </trkpt>
      <trkpt lat="41.421387" lon="-5.946124">
        <ele>730.221</ele>
        <time>2017-09-20T14:19:24Z</time>
      </trkpt>
      <trkpt lat="41.421469" lon="-5.946354">
        <ele>731.293</ele>
        <time>2017-09-20T14:19:35Z</time>
      </trkpt>
      <trkpt lat="41.421478" lon="-5.946380">
        <ele>731.261</ele>
        <time>2017-09-20T14:19:36Z</time>
      </trkpt>
      <trkpt lat="41.421486" lon="-5.946407">
        <ele>731.221</ele>
        <time>2017-09-20T14:19:37Z</time>
      </trkpt>
      <trkpt lat="41.421496" lon="-5.946435">
        <ele>731.213</ele>
        <time>2017-09-20T14:19:38Z</time>
      </trkpt>
      <trkpt lat="41.421507" lon="-5.946458">
        <ele>731.208</ele>
        <time>2017-09-20T14:19:39Z</time>
      </trkpt>
      <trkpt lat="41.421624" lon="-5.946838">
        <ele>732.117</ele>
        <time>2017-09-20T14:19:55Z</time>
      </trkpt>
      <trkpt lat="41.421721" lon="-5.947184">
        <ele>733.135</ele>
        <time>2017-09-20T14:20:10Z</time>
      </trkpt>
      <trkpt lat="41.421728" lon="-5.947231">
        <ele>733.625</ele>
        <time>2017-09-20T14:20:12Z</time>
      </trkpt>
      <trkpt lat="41.421734" lon="-5.947254">
        <ele>733.689</ele>
        <time>2017-09-20T14:20:13Z</time>
      </trkpt>
      <trkpt lat="41.421738" lon="-5.947272">
        <ele>733.677</ele>
        <time>2017-09-20T14:20:14Z</time>
      </trkpt>
      <trkpt lat="41.421737" lon="-5.947281">
        <ele>734.596</ele>
        <time>2017-09-20T14:20:29Z</time>
      </trkpt>
      <trkpt lat="41.421735" lon="-5.947309">
        <ele>735.016</ele>
        <time>2017-09-20T14:21:23Z</time>
      </trkpt>
      <trkpt lat="41.421740" lon="-5.947307">
        <ele>736.088</ele>
        <time>2017-09-20T14:22:00Z</time>
      </trkpt>
      <trkpt lat="41.421785" lon="-5.947503">
        <ele>735.582</ele>
        <time>2017-09-20T14:22:09Z</time>
      </trkpt>
      <trkpt lat="41.421878" lon="-5.947666">
        <ele>735.043</ele>
        <time>2017-09-20T14:22:17Z</time>
      </trkpt>
      <trkpt lat="41.421889" lon="-5.947678">
        <ele>735.517</ele>
        <time>2017-09-20T14:22:18Z</time>
      </trkpt>
      <trkpt lat="41.421900" lon="-5.947697">
        <ele>735.508</ele>
        <time>2017-09-20T14:22:19Z</time>
      </trkpt>
      <trkpt lat="41.422032" lon="-5.947967">
        <ele>736.539</ele>
        <time>2017-09-20T14:22:33Z</time>
      </trkpt>
      <trkpt lat="41.422056" lon="-5.948027">
        <ele>736.937</ele>
        <time>2017-09-20T14:22:36Z</time>
      </trkpt>
      <trkpt lat="41.422065" lon="-5.948047">
        <ele>736.917</ele>
        <time>2017-09-20T14:22:37Z</time>
      </trkpt>
      <trkpt lat="41.422071" lon="-5.948068">
        <ele>736.531</ele>
        <time>2017-09-20T14:22:38Z</time>
      </trkpt>
      <trkpt lat="41.422127" lon="-5.948394">
        <ele>736.949</ele>
        <time>2017-09-20T14:22:52Z</time>
      </trkpt>
      <trkpt lat="41.422186" lon="-5.948652">
        <ele>738.418</ele>
        <time>2017-09-20T14:23:05Z</time>
      </trkpt>
      <trkpt lat="41.422186" lon="-5.948797">
        <ele>739.828</ele>
        <time>2017-09-20T14:23:13Z</time>
      </trkpt>
      <trkpt lat="41.422180" lon="-5.948817">
        <ele>739.860</ele>
        <time>2017-09-20T14:23:14Z</time>
      </trkpt>
      <trkpt lat="41.422175" lon="-5.948835">
        <ele>739.875</ele>
        <time>2017-09-20T14:23:15Z</time>
      </trkpt>
      <trkpt lat="41.422119" lon="-5.948983">
        <ele>741.328</ele>
        <time>2017-09-20T14:23:23Z</time>
      </trkpt>
      <trkpt lat="41.422113" lon="-5.949001">
        <ele>741.720</ele>
        <time>2017-09-20T14:23:24Z</time>
      </trkpt>
      <trkpt lat="41.422109" lon="-5.949022">
        <ele>741.308</ele>
        <time>2017-09-20T14:23:25Z</time>
      </trkpt>
      <trkpt lat="41.422104" lon="-5.949044">
        <ele>741.398</ele>
        <time>2017-09-20T14:23:26Z</time>
      </trkpt>
      <trkpt lat="41.422098" lon="-5.949064">
        <ele>741.396</ele>
        <time>2017-09-20T14:23:27Z</time>
      </trkpt>
      <trkpt lat="41.422076" lon="-5.949107">
        <ele>741.756</ele>
        <time>2017-09-20T14:23:37Z</time>
      </trkpt>
      <trkpt lat="41.422037" lon="-5.949094">
        <ele>741.750</ele>
        <time>2017-09-20T14:23:55Z</time>
      </trkpt>
      <trkpt lat="41.422064" lon="-5.949086">
        <ele>742.298</ele>
        <time>2017-09-20T14:24:08Z</time>
      </trkpt>
      <trkpt lat="41.422048" lon="-5.949090">
        <ele>741.347</ele>
        <time>2017-09-20T14:24:24Z</time>
      </trkpt>
      <trkpt lat="41.422037" lon="-5.949059">
        <ele>743.287</ele>
        <time>2017-09-20T14:25:18Z</time>
      </trkpt>
      <trkpt lat="41.422040" lon="-5.949094">
        <ele>742.779</ele>
        <time>2017-09-20T14:26:07Z</time>
      </trkpt>
      <trkpt lat="41.422047" lon="-5.949073">
        <ele>741.346</ele>
        <time>2017-09-20T14:26:53Z</time>
      </trkpt>
      <trkpt lat="41.422036" lon="-5.949068">
        <ele>743.788</ele>
        <time>2017-09-20T14:27:25Z</time>
      </trkpt>
      <trkpt lat="41.422038" lon="-5.949073">
        <ele>745.616</ele>
        <time>2017-09-20T14:28:08Z</time>
      </trkpt>
      <trkpt lat="41.422062" lon="-5.949101">
        <ele>741.708</ele>
        <time>2017-09-20T14:28:52Z</time>
      </trkpt>
      <trkpt lat="41.422058" lon="-5.949088">
        <ele>740.845</ele>
        <time>2017-09-20T14:29:36Z</time>
      </trkpt>
      <trkpt lat="41.422046" lon="-5.949096">
        <ele>741.333</ele>
        <time>2017-09-20T14:30:26Z</time>
      </trkpt>
      <trkpt lat="41.422059" lon="-5.949123">
        <ele>741.323</ele>
        <time>2017-09-20T14:31:13Z</time>
      </trkpt>
      <trkpt lat="41.422051" lon="-5.949112">
        <ele>743.227</ele>
        <time>2017-09-20T14:32:05Z</time>
      </trkpt>
      <trkpt lat="41.422037" lon="-5.949091">
        <ele>742.735</ele>
        <time>2017-09-20T14:32:45Z</time>
      </trkpt>
      <trkpt lat="41.422020" lon="-5.949103">
        <ele>744.244</ele>
        <time>2017-09-20T14:33:31Z</time>
      </trkpt>
      <trkpt lat="41.422047" lon="-5.949114">
        <ele>743.284</ele>
        <time>2017-09-20T14:34:23Z</time>
      </trkpt>
      <trkpt lat="41.422032" lon="-5.949113">
        <ele>743.756</ele>
        <time>2017-09-20T14:35:12Z</time>
      </trkpt>
      <trkpt lat="41.422041" lon="-5.949098">
        <ele>744.272</ele>
        <time>2017-09-20T14:36:08Z</time>
      </trkpt>
      <trkpt lat="41.422032" lon="-5.949098">
        <ele>745.113</ele>
        <time>2017-09-20T14:37:02Z</time>
      </trkpt>
      <trkpt lat="41.422051" lon="-5.949099">
        <ele>745.614</ele>
        <time>2017-09-20T14:37:56Z</time>
      </trkpt>
      <trkpt lat="41.422040" lon="-5.949100">
        <ele>740.308</ele>
        <time>2017-09-20T14:38:53Z</time>
      </trkpt>
      <trkpt lat="41.422030" lon="-5.949155">
        <ele>743.298</ele>
        <time>2017-09-20T14:39:18Z</time>
      </trkpt>
      <trkpt lat="41.422039" lon="-5.949169">
        <ele>743.286</ele>
        <time>2017-09-20T14:39:32Z</time>
      </trkpt>
      <trkpt lat="41.422045" lon="-5.949171">
        <ele>743.236</ele>
        <time>2017-09-20T14:39:38Z</time>
      </trkpt>
      <trkpt lat="41.422094" lon="-5.949229">
        <ele>743.270</ele>
        <time>2017-09-20T14:39:43Z</time>
      </trkpt>
      <trkpt lat="41.422102" lon="-5.949269">
        <ele>743.728</ele>
        <time>2017-09-20T14:39:45Z</time>
      </trkpt>
      <trkpt lat="41.422101" lon="-5.949418">
        <ele>744.237</ele>
        <time>2017-09-20T14:39:52Z</time>
      </trkpt>
      <trkpt lat="41.422060" lon="-5.949923">
        <ele>745.647</ele>
        <time>2017-09-20T14:40:10Z</time>
      </trkpt>
      <trkpt lat="41.422165" lon="-5.950274">
        <ele>746.199</ele>
        <time>2017-09-20T14:40:25Z</time>
      </trkpt>
      <trkpt lat="41.422325" lon="-5.950550">
        <ele>746.112</ele>
        <time>2017-09-20T14:40:39Z</time>
      </trkpt>
      <trkpt lat="41.422373" lon="-5.950923">
        <ele>747.532</ele>
        <time>2017-09-20T14:40:54Z</time>
      </trkpt>
      <trkpt lat="41.422454" lon="-5.951266">
        <ele>748.005</ele>
        <time>2017-09-20T14:41:09Z</time>
      </trkpt>
      <trkpt lat="41.422702" lon="-5.951480">
        <ele>750.408</ele>
        <time>2017-09-20T14:41:25Z</time>
      </trkpt>
      <trkpt lat="41.422798" lon="-5.951680">
        <ele>751.492</ele>
        <time>2017-09-20T14:41:37Z</time>
      </trkpt>
      <trkpt lat="41.422789" lon="-5.951690">
        <ele>751.460</ele>
        <time>2017-09-20T14:41:38Z</time>
      </trkpt>
      <trkpt lat="41.422794" lon="-5.951717">
        <ele>751.450</ele>
        <time>2017-09-20T14:41:49Z</time>
      </trkpt>
      <trkpt lat="41.422795" lon="-5.951728">
        <ele>750.984</ele>
        <time>2017-09-20T14:41:57Z</time>
      </trkpt>
      <trkpt lat="41.422802" lon="-5.951741">
        <ele>750.972</ele>
        <time>2017-09-20T14:41:58Z</time>
      </trkpt>
      <trkpt lat="41.422808" lon="-5.951758">
        <ele>750.911</ele>
        <time>2017-09-20T14:41:59Z</time>
      </trkpt>
      <trkpt lat="41.422813" lon="-5.951782">
        <ele>751.441</ele>
        <time>2017-09-20T14:42:00Z</time>
      </trkpt>
      <trkpt lat="41.422816" lon="-5.951805">
        <ele>751.433</ele>
        <time>2017-09-20T14:42:01Z</time>
      </trkpt>
      <trkpt lat="41.422820" lon="-5.951824">
        <ele>751.482</ele>
        <time>2017-09-20T14:42:02Z</time>
      </trkpt>
      <trkpt lat="41.422886" lon="-5.952139">
        <ele>753.343</ele>
        <time>2017-09-20T14:42:16Z</time>
      </trkpt>
      <trkpt lat="41.423005" lon="-5.952331">
        <ele>754.217</ele>
        <time>2017-09-20T14:42:28Z</time>
      </trkpt>
      <trkpt lat="41.423018" lon="-5.952339">
        <ele>754.208</ele>
        <time>2017-09-20T14:42:29Z</time>
      </trkpt>
      <trkpt lat="41.423030" lon="-5.952347">
        <ele>754.239</ele>
        <time>2017-09-20T14:42:30Z</time>
      </trkpt>
      <trkpt lat="41.423181" lon="-5.952521">
        <ele>755.747</ele>
        <time>2017-09-20T14:42:43Z</time>
      </trkpt>
      <trkpt lat="41.423229" lon="-5.952774">
        <ele>757.677</ele>
        <time>2017-09-20T14:42:56Z</time>
      </trkpt>
      <trkpt lat="41.423241" lon="-5.953272">
        <ele>756.661</ele>
        <time>2017-09-20T14:43:09Z</time>
      </trkpt>
      <trkpt lat="41.423310" lon="-5.953895">
        <ele>756.669</ele>
        <time>2017-09-20T14:43:23Z</time>
      </trkpt>
      <trkpt lat="41.423373" lon="-5.954540">
        <ele>756.258</ele>
        <time>2017-09-20T14:43:40Z</time>
      </trkpt>
      <trkpt lat="41.423378" lon="-5.955302">
        <ele>756.278</ele>
        <time>2017-09-20T14:43:57Z</time>
      </trkpt>
      <trkpt lat="41.423411" lon="-5.955945">
        <ele>756.280</ele>
        <time>2017-09-20T14:44:13Z</time>
      </trkpt>
      <trkpt lat="41.423412" lon="-5.956422">
        <ele>755.265</ele>
        <time>2017-09-20T14:44:26Z</time>
      </trkpt>
      <trkpt lat="41.423423" lon="-5.956474">
        <ele>755.268</ele>
        <time>2017-09-20T14:44:27Z</time>
      </trkpt>
      <trkpt lat="41.423441" lon="-5.956528">
        <ele>754.714</ele>
        <time>2017-09-20T14:44:28Z</time>
      </trkpt>
      <trkpt lat="41.423478" lon="-5.956641">
        <ele>754.208</ele>
        <time>2017-09-20T14:44:30Z</time>
      </trkpt>
      <trkpt lat="41.423491" lon="-5.956703">
        <ele>753.887</ele>
        <time>2017-09-20T14:44:31Z</time>
      </trkpt>
      <trkpt lat="41.423577" lon="-5.957291">
        <ele>752.345</ele>
        <time>2017-09-20T14:44:41Z</time>
      </trkpt>
      <trkpt lat="41.423585" lon="-5.958142">
        <ele>750.915</ele>
        <time>2017-09-20T14:44:56Z</time>
      </trkpt>
      <trkpt lat="41.423711" lon="-5.958930">
        <ele>749.479</ele>
        <time>2017-09-20T14:45:11Z</time>
      </trkpt>
      <trkpt lat="41.423837" lon="-5.959704">
        <ele>749.927</ele>
        <time>2017-09-20T14:45:28Z</time>
      </trkpt>
      <trkpt lat="41.424026" lon="-5.960364">
        <ele>749.416</ele>
        <time>2017-09-20T14:45:42Z</time>
      </trkpt>
      <trkpt lat="41.424029" lon="-5.960420">
        <ele>749.416</ele>
        <time>2017-09-20T14:45:43Z</time>
      </trkpt>
      <trkpt lat="41.424120" lon="-5.961056">
        <ele>748.098</ele>
        <time>2017-09-20T14:45:55Z</time>
      </trkpt>
      <trkpt lat="41.424140" lon="-5.961164">
        <ele>747.579</ele>
        <time>2017-09-20T14:45:57Z</time>
      </trkpt>
      <trkpt lat="41.424262" lon="-5.961457">
        <ele>746.605</ele>
        <time>2017-09-20T14:46:03Z</time>
      </trkpt>
      <trkpt lat="41.424277" lon="-5.961514">
        <ele>746.125</ele>
        <time>2017-09-20T14:46:04Z</time>
      </trkpt>
      <trkpt lat="41.424284" lon="-5.961572">
        <ele>746.108</ele>
        <time>2017-09-20T14:46:05Z</time>
      </trkpt>
      <trkpt lat="41.424286" lon="-5.961641">
        <ele>746.198</ele>
        <time>2017-09-20T14:46:06Z</time>
      </trkpt>
      <trkpt lat="41.424285" lon="-5.961691">
        <ele>745.636</ele>
        <time>2017-09-20T14:46:07Z</time>
      </trkpt>
      <trkpt lat="41.424285" lon="-5.961748">
        <ele>745.646</ele>
        <time>2017-09-20T14:46:08Z</time>
      </trkpt>
      <trkpt lat="41.424292" lon="-5.961799">
        <ele>745.660</ele>
        <time>2017-09-20T14:46:09Z</time>
      </trkpt>
      <trkpt lat="41.424531" lon="-5.962481">
        <ele>744.278</ele>
        <time>2017-09-20T14:46:23Z</time>
      </trkpt>
      <trkpt lat="41.424849" lon="-5.962964">
        <ele>743.777</ele>
        <time>2017-09-20T14:46:36Z</time>
      </trkpt>
      <trkpt lat="41.424930" lon="-5.963455">
        <ele>744.637</ele>
        <time>2017-09-20T14:46:46Z</time>
      </trkpt>
      <trkpt lat="41.425050" lon="-5.963953">
        <ele>744.679</ele>
        <time>2017-09-20T14:46:57Z</time>
      </trkpt>
      <trkpt lat="41.425088" lon="-5.964183">
        <ele>744.692</ele>
        <time>2017-09-20T14:47:01Z</time>
      </trkpt>
      <trkpt lat="41.425086" lon="-5.964237">
        <ele>744.673</ele>
        <time>2017-09-20T14:47:02Z</time>
      </trkpt>
      <trkpt lat="41.425086" lon="-5.964288">
        <ele>744.620</ele>
        <time>2017-09-20T14:47:03Z</time>
      </trkpt>
      <trkpt lat="41.425162" lon="-5.964851">
        <ele>747.008</ele>
        <time>2017-09-20T14:47:17Z</time>
      </trkpt>
      <trkpt lat="41.425202" lon="-5.965250">
        <ele>745.610</ele>
        <time>2017-09-20T14:47:30Z</time>
      </trkpt>
      <trkpt lat="41.425357" lon="-5.965788">
        <ele>741.798</ele>
        <time>2017-09-20T14:47:43Z</time>
      </trkpt>
      <trkpt lat="41.425497" lon="-5.966252">
        <ele>740.338</ele>
        <time>2017-09-20T14:47:53Z</time>
      </trkpt>
      <trkpt lat="41.425740" lon="-5.967050">
        <ele>738.972</ele>
        <time>2017-09-20T14:48:10Z</time>
      </trkpt>
      <trkpt lat="41.426072" lon="-5.967701">
        <ele>736.550</ele>
        <time>2017-09-20T14:48:25Z</time>
      </trkpt>
      <trkpt lat="41.426259" lon="-5.968477">
        <ele>736.029</ele>
        <time>2017-09-20T14:48:43Z</time>
      </trkpt>
      <trkpt lat="41.426427" lon="-5.968882">
        <ele>735.089</ele>
        <time>2017-09-20T14:48:54Z</time>
      </trkpt>
      <trkpt lat="41.426609" lon="-5.969418">
        <ele>733.651</ele>
        <time>2017-09-20T14:49:09Z</time>
      </trkpt>
      <trkpt lat="41.426777" lon="-5.970066">
        <ele>732.159</ele>
        <time>2017-09-20T14:49:25Z</time>
      </trkpt>
      <trkpt lat="41.426765" lon="-5.970590">
        <ele>731.203</ele>
        <time>2017-09-20T14:49:35Z</time>
      </trkpt>
      <trkpt lat="41.426527" lon="-5.971317">
        <ele>730.723</ele>
        <time>2017-09-20T14:49:51Z</time>
      </trkpt>
      <trkpt lat="41.426503" lon="-5.972074">
        <ele>729.308</ele>
        <time>2017-09-20T14:50:06Z</time>
      </trkpt>
      <trkpt lat="41.426600" lon="-5.972357">
        <ele>726.816</ele>
        <time>2017-09-20T14:50:12Z</time>
      </trkpt>
      <trkpt lat="41.426626" lon="-5.972398">
        <ele>726.424</ele>
        <time>2017-09-20T14:50:13Z</time>
      </trkpt>
      <trkpt lat="41.426817" lon="-5.972850">
        <ele>724.034</ele>
        <time>2017-09-20T14:50:25Z</time>
      </trkpt>
      <trkpt lat="41.426944" lon="-5.973243">
        <ele>720.168</ele>
        <time>2017-09-20T14:50:37Z</time>
      </trkpt>
      <trkpt lat="41.427104" lon="-5.973327">
        <ele>718.726</ele>
        <time>2017-09-20T14:50:47Z</time>
      </trkpt>
      <trkpt lat="41.427108" lon="-5.973347">
        <ele>718.775</ele>
        <time>2017-09-20T14:50:48Z</time>
      </trkpt>
      <trkpt lat="41.427112" lon="-5.973364">
        <ele>718.745</ele>
        <time>2017-09-20T14:50:57Z</time>
      </trkpt>
      <trkpt lat="41.427120" lon="-5.973361">
        <ele>720.167</ele>
        <time>2017-09-20T14:51:32Z</time>
      </trkpt>
      <trkpt lat="41.427127" lon="-5.973380">
        <ele>718.217</ele>
        <time>2017-09-20T14:52:13Z</time>
      </trkpt>
      <trkpt lat="41.427113" lon="-5.973334">
        <ele>720.187</ele>
        <time>2017-09-20T14:52:54Z</time>
      </trkpt>
      <trkpt lat="41.427119" lon="-5.973378">
        <ele>718.715</ele>
        <time>2017-09-20T14:53:38Z</time>
      </trkpt>
      <trkpt lat="41.427113" lon="-5.973484">
        <ele>719.608</ele>
        <time>2017-09-20T14:53:51Z</time>
      </trkpt>
      <trkpt lat="41.427129" lon="-5.973642">
        <ele>720.662</ele>
        <time>2017-09-20T14:54:03Z</time>
      </trkpt>
      <trkpt lat="41.427133" lon="-5.973657">
        <ele>720.650</ele>
        <time>2017-09-20T14:54:04Z</time>
      </trkpt>
      <trkpt lat="41.427135" lon="-5.973674">
        <ele>720.660</ele>
        <time>2017-09-20T14:54:05Z</time>
      </trkpt>
      <trkpt lat="41.427135" lon="-5.973689">
        <ele>720.634</ele>
        <time>2017-09-20T14:54:06Z</time>
      </trkpt>
      <trkpt lat="41.427100" lon="-5.973855">
        <ele>719.672</ele>
        <time>2017-09-20T14:54:13Z</time>
      </trkpt>
      <trkpt lat="41.427080" lon="-5.973874">
        <ele>719.681</ele>
        <time>2017-09-20T14:54:14Z</time>
      </trkpt>
      <trkpt lat="41.427060" lon="-5.973887">
        <ele>719.681</ele>
        <time>2017-09-20T14:54:15Z</time>
      </trkpt>
      <trkpt lat="41.427039" lon="-5.973896">
        <ele>719.663</ele>
        <time>2017-09-20T14:54:16Z</time>
      </trkpt>
      <trkpt lat="41.427018" lon="-5.973895">
        <ele>720.177</ele>
        <time>2017-09-20T14:54:17Z</time>
      </trkpt>
      <trkpt lat="41.427002" lon="-5.973889">
        <ele>720.161</ele>
        <time>2017-09-20T14:54:18Z</time>
      </trkpt>
      <trkpt lat="41.426907" lon="-5.973851">
        <ele>720.627</ele>
        <time>2017-09-20T14:54:23Z</time>
      </trkpt>
      <trkpt lat="41.426885" lon="-5.973847">
        <ele>720.608</ele>
        <time>2017-09-20T14:54:24Z</time>
      </trkpt>
      <trkpt lat="41.426859" lon="-5.973842">
        <ele>720.658</ele>
        <time>2017-09-20T14:54:25Z</time>
      </trkpt>
      <trkpt lat="41.426833" lon="-5.973840">
        <ele>720.626</ele>
        <time>2017-09-20T14:54:26Z</time>
      </trkpt>
      <trkpt lat="41.426807" lon="-5.973843">
        <ele>720.696</ele>
        <time>2017-09-20T14:54:27Z</time>
      </trkpt>
      <trkpt lat="41.426779" lon="-5.973846">
        <ele>720.640</ele>
        <time>2017-09-20T14:54:28Z</time>
      </trkpt>
      <trkpt lat="41.426753" lon="-5.973848">
        <ele>720.668</ele>
        <time>2017-09-20T14:54:29Z</time>
      </trkpt>
      <trkpt lat="41.426729" lon="-5.973853">
        <ele>720.617</ele>
        <time>2017-09-20T14:54:30Z</time>
      </trkpt>
      <trkpt lat="41.426700" lon="-5.973859">
        <ele>720.687</ele>
        <time>2017-09-20T14:54:31Z</time>
      </trkpt>
      <trkpt lat="41.426679" lon="-5.973864">
        <ele>720.629</ele>
        <time>2017-09-20T14:54:32Z</time>
      </trkpt>
      <trkpt lat="41.426656" lon="-5.973869">
        <ele>720.686</ele>
        <time>2017-09-20T14:54:33Z</time>
      </trkpt>
      <trkpt lat="41.426631" lon="-5.973874">
        <ele>720.660</ele>
        <time>2017-09-20T14:54:34Z</time>
      </trkpt>
      <trkpt lat="41.426352" lon="-5.974039">
        <ele>721.126</ele>
        <time>2017-09-20T14:54:48Z</time>
      </trkpt>
      <trkpt lat="41.426087" lon="-5.974263">
        <ele>723.008</ele>
        <time>2017-09-20T14:55:04Z</time>
      </trkpt>
      <trkpt lat="41.425933" lon="-5.974515">
        <ele>725.969</ele>
        <time>2017-09-20T14:55:20Z</time>
      </trkpt>
      <trkpt lat="41.426005" lon="-5.974763">
        <ele>726.417</ele>
        <time>2017-09-20T14:55:32Z</time>
      </trkpt>
      <trkpt lat="41.426054" lon="-5.975055">
        <ele>727.867</ele>
        <time>2017-09-20T14:55:47Z</time>
      </trkpt>
      <trkpt lat="41.426181" lon="-5.975224">
        <ele>729.331</ele>
        <time>2017-09-20T14:55:58Z</time>
      </trkpt>
      <trkpt lat="41.426492" lon="-5.975353">
        <ele>729.779</ele>
        <time>2017-09-20T14:56:14Z</time>
      </trkpt>
      <trkpt lat="41.426533" lon="-5.975384">
        <ele>730.258</ele>
        <time>2017-09-20T14:56:25Z</time>
      </trkpt>
      <trkpt lat="41.426666" lon="-5.975449">
        <ele>730.298</ele>
        <time>2017-09-20T14:56:38Z</time>
      </trkpt>
      <trkpt lat="41.426760" lon="-5.975560">
        <ele>731.730</ele>
        <time>2017-09-20T14:56:51Z</time>
      </trkpt>
      <trkpt lat="41.426779" lon="-5.975583">
        <ele>732.158</ele>
        <time>2017-09-20T14:56:56Z</time>
      </trkpt>
      <trkpt lat="41.426792" lon="-5.975586">
        <ele>732.152</ele>
        <time>2017-09-20T14:56:57Z</time>
      </trkpt>
      <trkpt lat="41.426819" lon="-5.975608">
        <ele>732.617</ele>
        <time>2017-09-20T14:57:11Z</time>
      </trkpt>
      <trkpt lat="41.426828" lon="-5.975616">
        <ele>732.608</ele>
        <time>2017-09-20T14:57:12Z</time>
      </trkpt>
      <trkpt lat="41.426836" lon="-5.975629">
        <ele>732.656</ele>
        <time>2017-09-20T14:57:13Z</time>
      </trkpt>
      <trkpt lat="41.426846" lon="-5.975644">
        <ele>732.674</ele>
        <time>2017-09-20T14:57:14Z</time>
      </trkpt>
      <trkpt lat="41.426860" lon="-5.975657">
        <ele>733.134</ele>
        <time>2017-09-20T14:57:15Z</time>
      </trkpt>
      <trkpt lat="41.426875" lon="-5.975671">
        <ele>733.178</ele>
        <time>2017-09-20T14:57:16Z</time>
      </trkpt>
      <trkpt lat="41.426890" lon="-5.975688">
        <ele>733.136</ele>
        <time>2017-09-20T14:57:17Z</time>
      </trkpt>
      <trkpt lat="41.426906" lon="-5.975704">
        <ele>733.115</ele>
        <time>2017-09-20T14:57:18Z</time>
      </trkpt>
      <trkpt lat="41.427004" lon="-5.975887">
        <ele>732.685</ele>
        <time>2017-09-20T14:57:28Z</time>
      </trkpt>
      <trkpt lat="41.427015" lon="-5.975896">
        <ele>732.667</ele>
        <time>2017-09-20T14:57:29Z</time>
      </trkpt>
      <trkpt lat="41.427027" lon="-5.975905">
        <ele>732.637</ele>
        <time>2017-09-20T14:57:30Z</time>
      </trkpt>
      <trkpt lat="41.427040" lon="-5.975922">
        <ele>732.649</ele>
        <time>2017-09-20T14:57:31Z</time>
      </trkpt>
      <trkpt lat="41.427052" lon="-5.975943">
        <ele>732.613</ele>
        <time>2017-09-20T14:57:32Z</time>
      </trkpt>
      <trkpt lat="41.427245" lon="-5.976198">
        <ele>734.108</ele>
        <time>2017-09-20T14:57:46Z</time>
      </trkpt>
      <trkpt lat="41.427592" lon="-5.976499">
        <ele>733.684</ele>
        <time>2017-09-20T14:58:00Z</time>
      </trkpt>
      <trkpt lat="41.427979" lon="-5.977020">
        <ele>732.662</ele>
        <time>2017-09-20T14:58:17Z</time>
      </trkpt>
      <trkpt lat="41.428299" lon="-5.977244">
        <ele>732.642</ele>
        <time>2017-09-20T14:58:29Z</time>
      </trkpt>
      <trkpt lat="41.428484" lon="-5.977261">
        <ele>731.796</ele>
        <time>2017-09-20T14:58:36Z</time>
      </trkpt>
      <trkpt lat="41.428499" lon="-5.977292">
        <ele>731.754</ele>
        <time>2017-09-20T14:58:37Z</time>
      </trkpt>
      <trkpt lat="41.428503" lon="-5.977318">
        <ele>731.753</ele>
        <time>2017-09-20T14:58:38Z</time>
      </trkpt>
      <trkpt lat="41.428506" lon="-5.977351">
        <ele>731.723</ele>
        <time>2017-09-20T14:58:39Z</time>
      </trkpt>
      <trkpt lat="41.428504" lon="-5.977387">
        <ele>731.785</ele>
        <time>2017-09-20T14:58:40Z</time>
      </trkpt>
      <trkpt lat="41.428500" lon="-5.977427">
        <ele>731.771</ele>
        <time>2017-09-20T14:58:41Z</time>
      </trkpt>
      <trkpt lat="41.428511" lon="-5.977957">
        <ele>729.341</ele>
        <time>2017-09-20T14:58:54Z</time>
      </trkpt>
      <trkpt lat="41.428657" lon="-5.978397">
        <ele>729.315</ele>
        <time>2017-09-20T14:59:06Z</time>
      </trkpt>
      <trkpt lat="41.428844" lon="-5.978754">
        <ele>729.708</ele>
        <time>2017-09-20T14:59:18Z</time>
      </trkpt>
      <trkpt lat="41.429134" lon="-5.979277">
        <ele>730.258</ele>
        <time>2017-09-20T14:59:35Z</time>
      </trkpt>
      <trkpt lat="41.429231" lon="-5.979883">
        <ele>731.246</ele>
        <time>2017-09-20T14:59:52Z</time>
      </trkpt>
      <trkpt lat="41.429115" lon="-5.980372">
        <ele>733.196</ele>
        <time>2017-09-20T15:00:07Z</time>
      </trkpt>
      <trkpt lat="41.429012" lon="-5.980759">
        <ele>735.040</ele>
        <time>2017-09-20T15:00:22Z</time>
      </trkpt>
      <trkpt lat="41.429039" lon="-5.981050">
        <ele>736.098</ele>
        <time>2017-09-20T15:00:35Z</time>
      </trkpt>
      <trkpt lat="41.429098" lon="-5.981486">
        <ele>735.067</ele>
        <time>2017-09-20T15:00:47Z</time>
      </trkpt>
      <trkpt lat="41.429065" lon="-5.981938">
        <ele>736.017</ele>
        <time>2017-09-20T15:01:00Z</time>
      </trkpt>
      <trkpt lat="41.429119" lon="-5.982373">
        <ele>734.579</ele>
        <time>2017-09-20T15:01:13Z</time>
      </trkpt>
      <trkpt lat="41.429217" lon="-5.983079">
        <ele>733.652</ele>
        <time>2017-09-20T15:01:29Z</time>
      </trkpt>
      <trkpt lat="41.429377" lon="-5.983788">
        <ele>733.153</ele>
        <time>2017-09-20T15:01:43Z</time>
      </trkpt>
      <trkpt lat="41.429381" lon="-5.983828">
        <ele>733.108</ele>
        <time>2017-09-20T15:01:44Z</time>
      </trkpt>
      <trkpt lat="41.429456" lon="-5.984397">
        <ele>733.108</ele>
        <time>2017-09-20T15:01:59Z</time>
      </trkpt>
      <trkpt lat="41.429628" lon="-5.984874">
        <ele>734.156</ele>
        <time>2017-09-20T15:02:15Z</time>
      </trkpt>
      <trkpt lat="41.429566" lon="-5.985306">
        <ele>736.574</ele>
        <time>2017-09-20T15:02:30Z</time>
      </trkpt>
      <trkpt lat="41.429634" lon="-5.985727">
        <ele>737.944</ele>
        <time>2017-09-20T15:02:47Z</time>
      </trkpt>
      <trkpt lat="41.429706" lon="-5.986074">
        <ele>738.458</ele>
        <time>2017-09-20T15:03:03Z</time>
      </trkpt>
      <trkpt lat="41.429785" lon="-5.986464">
        <ele>739.316</ele>
        <time>2017-09-20T15:03:19Z</time>
      </trkpt>
      <trkpt lat="41.429863" lon="-5.986814">
        <ele>739.855</ele>
        <time>2017-09-20T15:03:34Z</time>
      </trkpt>
      <trkpt lat="41.430066" lon="-5.987166">
        <ele>740.385</ele>
        <time>2017-09-20T15:03:51Z</time>
      </trkpt>
      <trkpt lat="41.430207" lon="-5.987328">
        <ele>739.877</ele>
        <time>2017-09-20T15:04:00Z</time>
      </trkpt>
      <trkpt lat="41.430231" lon="-5.987337">
        <ele>740.312</ele>
        <time>2017-09-20T15:04:01Z</time>
      </trkpt>
      <trkpt lat="41.430250" lon="-5.987350">
        <ele>740.332</ele>
        <time>2017-09-20T15:04:02Z</time>
      </trkpt>
      <trkpt lat="41.430270" lon="-5.987362">
        <ele>740.305</ele>
        <time>2017-09-20T15:04:03Z</time>
      </trkpt>
      <trkpt lat="41.430289" lon="-5.987373">
        <ele>740.308</ele>
        <time>2017-09-20T15:04:04Z</time>
      </trkpt>
      <trkpt lat="41.430544" lon="-5.987546">
        <ele>740.882</ele>
        <time>2017-09-20T15:04:19Z</time>
      </trkpt>
      <trkpt lat="41.430701" lon="-5.987835">
        <ele>743.260</ele>
        <time>2017-09-20T15:04:34Z</time>
      </trkpt>
      <trkpt lat="41.430713" lon="-5.987899">
        <ele>743.790</ele>
        <time>2017-09-20T15:04:37Z</time>
      </trkpt>
      <trkpt lat="41.430723" lon="-5.987914">
        <ele>743.744</ele>
        <time>2017-09-20T15:04:38Z</time>
      </trkpt>
      <trkpt lat="41.430731" lon="-5.987934">
        <ele>743.732</ele>
        <time>2017-09-20T15:04:39Z</time>
      </trkpt>
      <trkpt lat="41.430737" lon="-5.987954">
        <ele>743.711</ele>
        <time>2017-09-20T15:04:40Z</time>
      </trkpt>
      <trkpt lat="41.430748" lon="-5.987971">
        <ele>743.791</ele>
        <time>2017-09-20T15:04:41Z</time>
      </trkpt>
      <trkpt lat="41.430760" lon="-5.987987">
        <ele>743.793</ele>
        <time>2017-09-20T15:04:42Z</time>
      </trkpt>
      <trkpt lat="41.430772" lon="-5.988004">
        <ele>743.782</ele>
        <time>2017-09-20T15:04:43Z</time>
      </trkpt>
      <trkpt lat="41.430839" lon="-5.988077">
        <ele>744.243</ele>
        <time>2017-09-20T15:04:48Z</time>
      </trkpt>
      <trkpt lat="41.430857" lon="-5.988086">
        <ele>743.717</ele>
        <time>2017-09-20T15:04:49Z</time>
      </trkpt>
      <trkpt lat="41.430873" lon="-5.988097">
        <ele>744.208</ele>
        <time>2017-09-20T15:04:50Z</time>
      </trkpt>
      <trkpt lat="41.430888" lon="-5.988112">
        <ele>744.289</ele>
        <time>2017-09-20T15:04:51Z</time>
      </trkpt>
      <trkpt lat="41.430901" lon="-5.988130">
        <ele>744.257</ele>
        <time>2017-09-20T15:04:52Z</time>
      </trkpt>
      <trkpt lat="41.431035" lon="-5.988429">
        <ele>744.257</ele>
        <time>2017-09-20T15:05:06Z</time>
      </trkpt>
      <trkpt lat="41.431129" lon="-5.988865">
        <ele>745.631</ele>
        <time>2017-09-20T15:05:23Z</time>
      </trkpt>
      <trkpt lat="41.431183" lon="-5.989219">
        <ele>746.159</ele>
        <time>2017-09-20T15:05:38Z</time>
      </trkpt>
      <trkpt lat="41.431282" lon="-5.989570">
        <ele>746.148</ele>
        <time>2017-09-20T15:05:51Z</time>
      </trkpt>
      <trkpt lat="41.431293" lon="-5.989973">
        <ele>748.058</ele>
        <time>2017-09-20T15:06:07Z</time>
      </trkpt>
      <trkpt lat="41.431270" lon="-5.990100">
        <ele>749.060</ele>
        <time>2017-09-20T15:06:13Z</time>
      </trkpt>
      <trkpt lat="41.431268" lon="-5.990122">
        <ele>749.442</ele>
        <time>2017-09-20T15:06:14Z</time>
      </trkpt>
      <trkpt lat="41.431266" lon="-5.990140">
        <ele>749.022</ele>
        <time>2017-09-20T15:06:15Z</time>
      </trkpt>
      <trkpt lat="41.431264" lon="-5.990160">
        <ele>749.414</ele>
        <time>2017-09-20T15:06:16Z</time>
      </trkpt>
      <trkpt lat="41.431263" lon="-5.990180">
        <ele>749.408</ele>
        <time>2017-09-20T15:06:17Z</time>
      </trkpt>
      <trkpt lat="41.431295" lon="-5.990489">
        <ele>750.425</ele>
        <time>2017-09-20T15:06:33Z</time>
      </trkpt>
      <trkpt lat="41.431197" lon="-5.990813">
        <ele>752.873</ele>
        <time>2017-09-20T15:06:49Z</time>
      </trkpt>
      <trkpt lat="41.431101" lon="-5.991187">
        <ele>753.823</ele>
        <time>2017-09-20T15:07:03Z</time>
      </trkpt>
      <trkpt lat="41.431026" lon="-5.991505">
        <ele>754.237</ele>
        <time>2017-09-20T15:07:15Z</time>
      </trkpt>
      <trkpt lat="41.430929" lon="-5.991860">
        <ele>755.225</ele>
        <time>2017-09-20T15:07:31Z</time>
      </trkpt>
      <trkpt lat="41.430965" lon="-5.992278">
        <ele>756.214</ele>
        <time>2017-09-20T15:07:49Z</time>
      </trkpt>
      <trkpt lat="41.431052" lon="-5.992651">
        <ele>756.644</ele>
        <time>2017-09-20T15:08:05Z</time>
      </trkpt>
      <trkpt lat="41.431160" lon="-5.992959">
        <ele>756.646</ele>
        <time>2017-09-20T15:08:19Z</time>
      </trkpt>
      <trkpt lat="41.431230" lon="-5.993333">
        <ele>758.668</ele>
        <time>2017-09-20T15:08:36Z</time>
      </trkpt>
      <trkpt lat="41.431207" lon="-5.993616">
        <ele>760.042</ele>
        <time>2017-09-20T15:08:48Z</time>
      </trkpt>
      <trkpt lat="41.431211" lon="-5.993769">
        <ele>761.026</ele>
        <time>2017-09-20T15:08:54Z</time>
      </trkpt>
      <trkpt lat="41.431216" lon="-5.993794">
        <ele>761.008</ele>
        <time>2017-09-20T15:08:55Z</time>
      </trkpt>
      <trkpt lat="41.431219" lon="-5.993820">
        <ele>761.087</ele>
        <time>2017-09-20T15:08:56Z</time>
      </trkpt>
      <trkpt lat="41.431220" lon="-5.993848">
        <ele>761.565</ele>
        <time>2017-09-20T15:08:57Z</time>
      </trkpt>
      <trkpt lat="41.431219" lon="-5.993874">
        <ele>761.585</ele>
        <time>2017-09-20T15:08:58Z</time>
      </trkpt>
      <trkpt lat="41.431216" lon="-5.993896">
        <ele>761.979</ele>
        <time>2017-09-20T15:08:59Z</time>
      </trkpt>
      <trkpt lat="41.431212" lon="-5.993918">
        <ele>761.987</ele>
        <time>2017-09-20T15:09:00Z</time>
      </trkpt>
      <trkpt lat="41.431143" lon="-5.994264">
        <ele>763.956</ele>
        <time>2017-09-20T15:09:15Z</time>
      </trkpt>
      <trkpt lat="41.431039" lon="-5.994544">
        <ele>765.346</ele>
        <time>2017-09-20T15:09:28Z</time>
      </trkpt>
      <trkpt lat="41.430844" lon="-5.994826">
        <ele>766.358</ele>
        <time>2017-09-20T15:09:44Z</time>
      </trkpt>
      <trkpt lat="41.430685" lon="-5.995064">
        <ele>767.281</ele>
        <time>2017-09-20T15:09:57Z</time>
      </trkpt>
      <trkpt lat="41.430535" lon="-5.995486">
        <ele>768.261</ele>
        <time>2017-09-20T15:10:14Z</time>
      </trkpt>
      <trkpt lat="41.430430" lon="-5.995837">
        <ele>768.717</ele>
        <time>2017-09-20T15:10:28Z</time>
      </trkpt>
      <trkpt lat="41.430318" lon="-5.996281">
        <ele>769.108</ele>
        <time>2017-09-20T15:10:45Z</time>
      </trkpt>
      <trkpt lat="41.430222" lon="-5.996610">
        <ele>767.749</ele>
        <time>2017-09-20T15:10:59Z</time>
      </trkpt>
      <trkpt lat="41.430212" lon="-5.996623">
        <ele>768.757</ele>
        <time>2017-09-20T15:11:19Z</time>
      </trkpt>
      <trkpt lat="41.430195" lon="-5.996628">
        <ele>768.217</ele>
        <time>2017-09-20T15:11:35Z</time>
      </trkpt>
      <trkpt lat="41.430206" lon="-5.996613">
        <ele>765.361</ele>
        <time>2017-09-20T15:12:04Z</time>
      </trkpt>
      <trkpt lat="41.430212" lon="-5.996643">
        <ele>768.229</ele>
        <time>2017-09-20T15:12:51Z</time>
      </trkpt>
      <trkpt lat="41.430202" lon="-5.996640">
        <ele>766.758</ele>
        <time>2017-09-20T15:13:28Z</time>
      </trkpt>
      <trkpt lat="41.430202" lon="-5.996624">
        <ele>764.828</ele>
        <time>2017-09-20T15:14:07Z</time>
      </trkpt>
      <trkpt lat="41.430188" lon="-5.996622">
        <ele>764.830</ele>
        <time>2017-09-20T15:14:21Z</time>
      </trkpt>
      <trkpt lat="41.430185" lon="-5.996653">
        <ele>764.395</ele>
        <time>2017-09-20T15:14:37Z</time>
      </trkpt>
      <trkpt lat="41.430183" lon="-5.996670">
        <ele>764.349</ele>
        <time>2017-09-20T15:14:38Z</time>
      </trkpt>
      <trkpt lat="41.430180" lon="-5.996690">
        <ele>764.823</ele>
        <time>2017-09-20T15:14:39Z</time>
      </trkpt>
      <trkpt lat="41.430136" lon="-5.996840">
        <ele>765.808</ele>
        <time>2017-09-20T15:14:50Z</time>
      </trkpt>
      <trkpt lat="41.430138" lon="-5.996845">
        <ele>765.330</ele>
        <time>2017-09-20T15:15:06Z</time>
      </trkpt>
      <trkpt lat="41.430110" lon="-5.996955">
        <ele>765.818</ele>
        <time>2017-09-20T15:15:25Z</time>
      </trkpt>
      <trkpt lat="41.430037" lon="-5.997317">
        <ele>764.868</ele>
        <time>2017-09-20T15:15:37Z</time>
      </trkpt>
      <trkpt lat="41.429906" lon="-5.997780">
        <ele>764.852</ele>
        <time>2017-09-20T15:15:50Z</time>
      </trkpt>
      <trkpt lat="41.429818" lon="-5.998258">
        <ele>765.340</ele>
        <time>2017-09-20T15:16:04Z</time>
      </trkpt>
      <trkpt lat="41.429688" lon="-5.998859">
        <ele>766.739</ele>
        <time>2017-09-20T15:16:23Z</time>
      </trkpt>
      <trkpt lat="41.429616" lon="-5.999394">
        <ele>766.339</ele>
        <time>2017-09-20T15:16:40Z</time>
      </trkpt>
      <trkpt lat="41.429647" lon="-5.999919">
        <ele>767.251</ele>
        <time>2017-09-20T15:16:58Z</time>
      </trkpt>
      <trkpt lat="41.429655" lon="-6.000348">
        <ele>767.722</ele>
        <time>2017-09-20T15:17:13Z</time>
      </trkpt>
      <trkpt lat="41.429527" lon="-6.000830">
        <ele>767.762</ele>
        <time>2017-09-20T15:17:28Z</time>
      </trkpt>
      <trkpt lat="41.429496" lon="-6.001332">
        <ele>768.708</ele>
        <time>2017-09-20T15:17:45Z</time>
      </trkpt>
      <trkpt lat="41.429502" lon="-6.001766">
        <ele>771.108</ele>
        <time>2017-09-20T15:18:01Z</time>
      </trkpt>
      <trkpt lat="41.429519" lon="-6.002133">
        <ele>773.023</ele>
        <time>2017-09-20T15:18:18Z</time>
      </trkpt>
      <trkpt lat="41.429598" lon="-6.002304">
        <ele>773.021</ele>
        <time>2017-09-20T15:18:28Z</time>
      </trkpt>
      <trkpt lat="41.429600" lon="-6.002325">
        <ele>773.061</ele>
        <time>2017-09-20T15:18:29Z</time>
      </trkpt>
      <trkpt lat="41.429603" lon="-6.002347">
        <ele>773.035</ele>
        <time>2017-09-20T15:18:30Z</time>
      </trkpt>
      <trkpt lat="41.429612" lon="-6.002370">
        <ele>773.053</ele>
        <time>2017-09-20T15:18:31Z</time>
      </trkpt>
      <trkpt lat="41.429621" lon="-6.002390">
        <ele>773.052</ele>
        <time>2017-09-20T15:18:32Z</time>
      </trkpt>
      <trkpt lat="41.429631" lon="-6.002408">
        <ele>773.532</ele>
        <time>2017-09-20T15:18:33Z</time>
      </trkpt>
      <trkpt lat="41.429642" lon="-6.002425">
        <ele>773.534</ele>
        <time>2017-09-20T15:18:34Z</time>
      </trkpt>
      <trkpt lat="41.429701" lon="-6.002764">
        <ele>774.461</ele>
        <time>2017-09-20T15:18:51Z</time>
      </trkpt>
      <trkpt lat="41.429676" lon="-6.002836">
        <ele>775.421</ele>
        <time>2017-09-20T15:18:55Z</time>
      </trkpt>
      <trkpt lat="41.429666" lon="-6.002847">
        <ele>775.413</ele>
        <time>2017-09-20T15:18:56Z</time>
      </trkpt>
      <trkpt lat="41.429655" lon="-6.002861">
        <ele>775.408</ele>
        <time>2017-09-20T15:18:57Z</time>
      </trkpt>
      <trkpt lat="41.429571" lon="-6.003130">
        <ele>774.987</ele>
        <time>2017-09-20T15:19:10Z</time>
      </trkpt>
      <trkpt lat="41.429602" lon="-6.003512">
        <ele>774.435</ele>
        <time>2017-09-20T15:19:23Z</time>
      </trkpt>
      <trkpt lat="41.429683" lon="-6.004019">
        <ele>773.595</ele>
        <time>2017-09-20T15:19:38Z</time>
      </trkpt>
      <trkpt lat="41.429762" lon="-6.004438">
        <ele>773.039</ele>
        <time>2017-09-20T15:19:47Z</time>
      </trkpt>
      <trkpt lat="41.429762" lon="-6.004492">
        <ele>772.567</ele>
        <time>2017-09-20T15:19:48Z</time>
      </trkpt>
      <trkpt lat="41.429758" lon="-6.004549">
        <ele>772.546</ele>
        <time>2017-09-20T15:19:49Z</time>
      </trkpt>
      <trkpt lat="41.429748" lon="-6.004605">
        <ele>772.546</ele>
        <time>2017-09-20T15:19:50Z</time>
      </trkpt>
      <trkpt lat="41.429738" lon="-6.004659">
        <ele>772.098</ele>
        <time>2017-09-20T15:19:51Z</time>
      </trkpt>
      <trkpt lat="41.429765" lon="-6.005091">
        <ele>771.669</ele>
        <time>2017-09-20T15:20:02Z</time>
      </trkpt>
      <trkpt lat="41.429834" lon="-6.005666">
        <ele>769.604</ele>
        <time>2017-09-20T15:20:17Z</time>
      </trkpt>
      <trkpt lat="41.429921" lon="-6.006355">
        <ele>768.724</ele>
        <time>2017-09-20T15:20:35Z</time>
      </trkpt>
      <trkpt lat="41.429998" lon="-6.007110">
        <ele>768.208</ele>
        <time>2017-09-20T15:20:51Z</time>
      </trkpt>
      <trkpt lat="41.430040" lon="-6.007726">
        <ele>768.787</ele>
        <time>2017-09-20T15:21:05Z</time>
      </trkpt>
      <trkpt lat="41.429967" lon="-6.008531">
        <ele>769.645</ele>
        <time>2017-09-20T15:21:23Z</time>
      </trkpt>
      <trkpt lat="41.429998" lon="-6.009000">
        <ele>769.635</ele>
        <time>2017-09-20T15:21:36Z</time>
      </trkpt>
      <trkpt lat="41.430124" lon="-6.009766">
        <ele>769.629</ele>
        <time>2017-09-20T15:21:54Z</time>
      </trkpt>
      <trkpt lat="41.430102" lon="-6.010394">
        <ele>772.077</ele>
        <time>2017-09-20T15:22:10Z</time>
      </trkpt>
      <trkpt lat="41.430028" lon="-6.010899">
        <ele>772.076</ele>
        <time>2017-09-20T15:22:25Z</time>
      </trkpt>
      <trkpt lat="41.430014" lon="-6.011328">
        <ele>774.076</ele>
        <time>2017-09-20T15:22:40Z</time>
      </trkpt>
      <trkpt lat="41.429935" lon="-6.011785">
        <ele>775.448</ele>
        <time>2017-09-20T15:22:57Z</time>
      </trkpt>
      <trkpt lat="41.429895" lon="-6.012102">
        <ele>776.492</ele>
        <time>2017-09-20T15:23:10Z</time>
      </trkpt>
      <trkpt lat="41.429821" lon="-6.012403">
        <ele>777.373</ele>
        <time>2017-09-20T15:23:23Z</time>
      </trkpt>
      <trkpt lat="41.429696" lon="-6.012901">
        <ele>778.820</ele>
        <time>2017-09-20T15:23:43Z</time>
      </trkpt>
      <trkpt lat="41.429634" lon="-6.013229">
        <ele>779.208</ele>
        <time>2017-09-20T15:23:56Z</time>
      </trkpt>
      <trkpt lat="41.429539" lon="-6.013551">
        <ele>779.280</ele>
        <time>2017-09-20T15:24:09Z</time>
      </trkpt>
      <trkpt lat="41.429435" lon="-6.014056">
        <ele>779.288</ele>
        <time>2017-09-20T15:24:25Z</time>
      </trkpt>
      <trkpt lat="41.429486" lon="-6.014529">
        <ele>778.348</ele>
        <time>2017-09-20T15:24:37Z</time>
      </trkpt>
      <trkpt lat="41.429569" lon="-6.015083">
        <ele>776.862</ele>
        <time>2017-09-20T15:24:51Z</time>
      </trkpt>
      <trkpt lat="41.429686" lon="-6.015727">
        <ele>776.410</ele>
        <time>2017-09-20T15:25:09Z</time>
      </trkpt>
      <trkpt lat="41.429799" lon="-6.016279">
        <ele>775.969</ele>
        <time>2017-09-20T15:25:23Z</time>
      </trkpt>
      <trkpt lat="41.429910" lon="-6.017150">
        <ele>774.449</ele>
        <time>2017-09-20T15:25:43Z</time>
      </trkpt>
      <trkpt lat="41.430110" lon="-6.017952">
        <ele>774.071</ele>
        <time>2017-09-20T15:26:01Z</time>
      </trkpt>
      <trkpt lat="41.430161" lon="-6.018514">
        <ele>773.596</ele>
        <time>2017-09-20T15:26:14Z</time>
      </trkpt>
      <trkpt lat="41.430377" lon="-6.019096">
        <ele>772.031</ele>
        <time>2017-09-20T15:26:27Z</time>
      </trkpt>
      <trkpt lat="41.430428" lon="-6.019188">
        <ele>771.624</ele>
        <time>2017-09-20T15:26:29Z</time>
      </trkpt>
      <trkpt lat="41.430449" lon="-6.019238">
        <ele>771.108</ele>
        <time>2017-09-20T15:26:30Z</time>
      </trkpt>
      <trkpt lat="41.430701" lon="-6.019956">
        <ele>768.210</ele>
        <time>2017-09-20T15:26:44Z</time>
      </trkpt>
      <trkpt lat="41.430714" lon="-6.020010">
        <ele>768.298</ele>
        <time>2017-09-20T15:26:45Z</time>
      </trkpt>
      <trkpt lat="41.430801" lon="-6.020996">
        <ele>765.338</ele>
        <time>2017-09-20T15:27:01Z</time>
      </trkpt>
      <trkpt lat="41.430804" lon="-6.022103">
        <ele>764.822</ele>
        <time>2017-09-20T15:27:20Z</time>
      </trkpt>
      <trkpt lat="41.430812" lon="-6.022157">
        <ele>764.840</ele>
        <time>2017-09-20T15:27:21Z</time>
      </trkpt>
      <trkpt lat="41.430969" lon="-6.023131">
        <ele>763.469</ele>
        <time>2017-09-20T15:27:40Z</time>
      </trkpt>
      <trkpt lat="41.431012" lon="-6.023452">
        <ele>762.969</ele>
        <time>2017-09-20T15:27:47Z</time>
      </trkpt>
      <trkpt lat="41.431031" lon="-6.023504">
        <ele>762.441</ele>
        <time>2017-09-20T15:27:48Z</time>
      </trkpt>
      <trkpt lat="41.431056" lon="-6.023560">
        <ele>761.948</ele>
        <time>2017-09-20T15:27:49Z</time>
      </trkpt>
      <trkpt lat="41.431163" lon="-6.023769">
        <ele>760.561</ele>
        <time>2017-09-20T15:27:53Z</time>
      </trkpt>
      <trkpt lat="41.431194" lon="-6.023814">
        <ele>760.517</ele>
        <time>2017-09-20T15:27:54Z</time>
      </trkpt>
      <trkpt lat="41.431227" lon="-6.023859">
        <ele>760.508</ele>
        <time>2017-09-20T15:27:55Z</time>
      </trkpt>
      <trkpt lat="41.431404" lon="-6.024028">
        <ele>760.075</ele>
        <time>2017-09-20T15:28:00Z</time>
      </trkpt>
      <trkpt lat="41.431474" lon="-6.024098">
        <ele>759.593</ele>
        <time>2017-09-20T15:28:02Z</time>
      </trkpt>
      <trkpt lat="41.431508" lon="-6.024144">
        <ele>759.183</ele>
        <time>2017-09-20T15:28:03Z</time>
      </trkpt>
      <trkpt lat="41.431844" lon="-6.024984">
        <ele>754.727</ele>
        <time>2017-09-20T15:28:17Z</time>
      </trkpt>
      <trkpt lat="41.431856" lon="-6.025049">
        <ele>754.795</ele>
        <time>2017-09-20T15:28:18Z</time>
      </trkpt>
      <trkpt lat="41.431866" lon="-6.025096">
        <ele>754.724</ele>
        <time>2017-09-20T15:28:19Z</time>
      </trkpt>
      <trkpt lat="41.431884" lon="-6.025157">
        <ele>754.744</ele>
        <time>2017-09-20T15:28:20Z</time>
      </trkpt>
      <trkpt lat="41.432000" lon="-6.025474">
        <ele>753.846</ele>
        <time>2017-09-20T15:28:27Z</time>
      </trkpt>
      <trkpt lat="41.432016" lon="-6.025523">
        <ele>753.841</ele>
        <time>2017-09-20T15:28:28Z</time>
      </trkpt>
      <trkpt lat="41.432030" lon="-6.025575">
        <ele>753.881</ele>
        <time>2017-09-20T15:28:29Z</time>
      </trkpt>
      <trkpt lat="41.432181" lon="-6.026233">
        <ele>752.309</ele>
        <time>2017-09-20T15:28:41Z</time>
      </trkpt>
      <trkpt lat="41.432183" lon="-6.026419">
        <ele>751.808</ele>
        <time>2017-09-20T15:28:44Z</time>
      </trkpt>
      <trkpt lat="41.432115" lon="-6.027409">
        <ele>749.985</ele>
        <time>2017-09-20T15:29:00Z</time>
      </trkpt>
      <trkpt lat="41.432138" lon="-6.027708">
        <ele>749.053</ele>
        <time>2017-09-20T15:29:06Z</time>
      </trkpt>
      <trkpt lat="41.432158" lon="-6.027761">
        <ele>748.543</ele>
        <time>2017-09-20T15:29:07Z</time>
      </trkpt>
      <trkpt lat="41.432276" lon="-6.028085">
        <ele>747.567</ele>
        <time>2017-09-20T15:29:13Z</time>
      </trkpt>
      <trkpt lat="41.432343" lon="-6.028907">
        <ele>746.645</ele>
        <time>2017-09-20T15:29:29Z</time>
      </trkpt>
      <trkpt lat="41.432479" lon="-6.029349">
        <ele>744.244</ele>
        <time>2017-09-20T15:29:41Z</time>
      </trkpt>
      <trkpt lat="41.432538" lon="-6.029491">
        <ele>743.234</ele>
        <time>2017-09-20T15:29:44Z</time>
      </trkpt>
      <trkpt lat="41.432552" lon="-6.029543">
        <ele>743.286</ele>
        <time>2017-09-20T15:29:45Z</time>
      </trkpt>
      <trkpt lat="41.432561" lon="-6.029596">
        <ele>742.722</ele>
        <time>2017-09-20T15:29:46Z</time>
      </trkpt>
      <trkpt lat="41.432563" lon="-6.029647">
        <ele>742.262</ele>
        <time>2017-09-20T15:29:47Z</time>
      </trkpt>
      <trkpt lat="41.432562" lon="-6.029697">
        <ele>741.708</ele>
        <time>2017-09-20T15:29:48Z</time>
      </trkpt>
      <trkpt lat="41.432556" lon="-6.029741">
        <ele>741.708</ele>
        <time>2017-09-20T15:29:49Z</time>
      </trkpt>
      <trkpt lat="41.432550" lon="-6.029786">
        <ele>741.763</ele>
        <time>2017-09-20T15:29:50Z</time>
      </trkpt>
      <trkpt lat="41.432551" lon="-6.029833">
        <ele>741.391</ele>
        <time>2017-09-20T15:29:51Z</time>
      </trkpt>
      <trkpt lat="41.432555" lon="-6.029883">
        <ele>741.351</ele>
        <time>2017-09-20T15:29:52Z</time>
      </trkpt>
      <trkpt lat="41.432684" lon="-6.030353">
        <ele>739.355</ele>
        <time>2017-09-20T15:30:03Z</time>
      </trkpt>
      <trkpt lat="41.432718" lon="-6.030453">
        <ele>739.323</ele>
        <time>2017-09-20T15:30:05Z</time>
      </trkpt>
      <trkpt lat="41.432752" lon="-6.030554">
        <ele>738.932</ele>
        <time>2017-09-20T15:30:07Z</time>
      </trkpt>
      <trkpt lat="41.432767" lon="-6.030606">
        <ele>738.952</ele>
        <time>2017-09-20T15:30:08Z</time>
      </trkpt>
      <trkpt lat="41.432780" lon="-6.030654">
        <ele>738.984</ele>
        <time>2017-09-20T15:30:09Z</time>
      </trkpt>
      <trkpt lat="41.432900" lon="-6.031510">
        <ele>740.364</ele>
        <time>2017-09-20T15:30:28Z</time>
      </trkpt>
      <trkpt lat="41.433109" lon="-6.032058">
        <ele>741.706</ele>
        <time>2017-09-20T15:30:45Z</time>
      </trkpt>
      <trkpt lat="41.433342" lon="-6.032489">
        <ele>741.716</ele>
        <time>2017-09-20T15:30:59Z</time>
      </trkpt>
      <trkpt lat="41.433526" lon="-6.032847">
        <ele>744.208</ele>
        <time>2017-09-20T15:31:15Z</time>
      </trkpt>
      <trkpt lat="41.433654" lon="-6.033080">
        <ele>746.187</ele>
        <time>2017-09-20T15:31:29Z</time>
      </trkpt>
      <trkpt lat="41.433784" lon="-6.033316">
        <ele>747.525</ele>
        <time>2017-09-20T15:31:44Z</time>
      </trkpt>
      <trkpt lat="41.433956" lon="-6.033610">
        <ele>746.685</ele>
        <time>2017-09-20T15:32:00Z</time>
      </trkpt>
      <trkpt lat="41.434114" lon="-6.034040">
        <ele>746.199</ele>
        <time>2017-09-20T15:32:13Z</time>
      </trkpt>
      <trkpt lat="41.434157" lon="-6.034695">
        <ele>746.187</ele>
        <time>2017-09-20T15:32:31Z</time>
      </trkpt>
      <trkpt lat="41.434347" lon="-6.035214">
        <ele>746.136</ele>
        <time>2017-09-20T15:32:46Z</time>
      </trkpt>
      <trkpt lat="41.434659" lon="-6.035457">
        <ele>746.136</ele>
        <time>2017-09-20T15:32:58Z</time>
      </trkpt>
      <trkpt lat="41.435218" lon="-6.036065">
        <ele>743.278</ele>
        <time>2017-09-20T15:33:14Z</time>
      </trkpt>
      <trkpt lat="41.435561" lon="-6.036642">
        <ele>740.821</ele>
        <time>2017-09-20T15:33:27Z</time>
      </trkpt>
      <trkpt lat="41.435720" lon="-6.036881">
        <ele>740.841</ele>
        <time>2017-09-20T15:33:33Z</time>
      </trkpt>
      <trkpt lat="41.435747" lon="-6.036927">
        <ele>740.805</ele>
        <time>2017-09-20T15:33:34Z</time>
      </trkpt>
      <trkpt lat="41.436171" lon="-6.037674">
        <ele>743.708</ele>
        <time>2017-09-20T15:33:52Z</time>
      </trkpt>
      <trkpt lat="41.436406" lon="-6.038142">
        <ele>746.113</ele>
        <time>2017-09-20T15:34:09Z</time>
      </trkpt>
      <trkpt lat="41.436620" lon="-6.038546">
        <ele>747.091</ele>
        <time>2017-09-20T15:34:28Z</time>
      </trkpt>
      <trkpt lat="41.436729" lon="-6.038751">
        <ele>748.581</ele>
        <time>2017-09-20T15:34:40Z</time>
      </trkpt>
      <trkpt lat="41.436734" lon="-6.038768">
        <ele>748.515</ele>
        <time>2017-09-20T15:34:41Z</time>
      </trkpt>
      <trkpt lat="41.436747" lon="-6.038787">
        <ele>748.593</ele>
        <time>2017-09-20T15:34:42Z</time>
      </trkpt>
      <trkpt lat="41.436958" lon="-6.039138">
        <ele>747.522</ele>
        <time>2017-09-20T15:34:55Z</time>
      </trkpt>
      <trkpt lat="41.437074" lon="-6.039331">
        <ele>746.642</ele>
        <time>2017-09-20T15:34:59Z</time>
      </trkpt>
      <trkpt lat="41.437489" lon="-6.039931">
        <ele>745.624</ele>
        <time>2017-09-20T15:35:15Z</time>
      </trkpt>
      <trkpt lat="41.437734" lon="-6.040404">
        <ele>745.671</ele>
        <time>2017-09-20T15:35:29Z</time>
      </trkpt>
      <trkpt lat="41.437949" lon="-6.040880">
        <ele>748.541</ele>
        <time>2017-09-20T15:35:46Z</time>
      </trkpt>
      <trkpt lat="41.438143" lon="-6.041211">
        <ele>750.915</ele>
        <time>2017-09-20T15:36:02Z</time>
      </trkpt>
      <trkpt lat="41.438384" lon="-6.041485">
        <ele>751.808</ele>
        <time>2017-09-20T15:36:18Z</time>
      </trkpt>
      <trkpt lat="41.438711" lon="-6.041814">
        <ele>751.498</ele>
        <time>2017-09-20T15:36:37Z</time>
      </trkpt>
      <trkpt lat="41.439002" lon="-6.042106">
        <ele>752.856</ele>
        <time>2017-09-20T15:36:53Z</time>
      </trkpt>
      <trkpt lat="41.439212" lon="-6.042504">
        <ele>754.246</ele>
        <time>2017-09-20T15:37:10Z</time>
      </trkpt>
      <trkpt lat="41.439406" lon="-6.042975">
        <ele>754.210</ele>
        <time>2017-09-20T15:37:27Z</time>
      </trkpt>
      <trkpt lat="41.439709" lon="-6.043344">
        <ele>754.788</ele>
        <time>2017-09-20T15:37:42Z</time>
      </trkpt>
      <trkpt lat="41.440117" lon="-6.043806">
        <ele>757.197</ele>
        <time>2017-09-20T15:38:03Z</time>
      </trkpt>
      <trkpt lat="41.440412" lon="-6.044190">
        <ele>757.177</ele>
        <time>2017-09-20T15:38:18Z</time>
      </trkpt>
      <trkpt lat="41.440711" lon="-6.044642">
        <ele>757.689</ele>
        <time>2017-09-20T15:38:33Z</time>
      </trkpt>
      <trkpt lat="41.441020" lon="-6.045129">
        <ele>758.161</ele>
        <time>2017-09-20T15:38:49Z</time>
      </trkpt>
      <trkpt lat="41.441449" lon="-6.045769">
        <ele>759.521</ele>
        <time>2017-09-20T15:39:11Z</time>
      </trkpt>
      <trkpt lat="41.441803" lon="-6.046343">
        <ele>760.013</ele>
        <time>2017-09-20T15:39:31Z</time>
      </trkpt>
      <trkpt lat="41.442130" lon="-6.046722">
        <ele>761.008</ele>
        <time>2017-09-20T15:39:47Z</time>
      </trkpt>
      <trkpt lat="41.440213" lon="-6.045179">
        <ele>766.317</ele>
        <time>2017-09-21T06:58:48Z</time>
      </trkpt>
      <trkpt lat="41.440213" lon="-6.045165">
        <ele>762.955</ele>
        <time>2017-09-21T06:59:27Z</time>
      </trkpt>
      <trkpt lat="41.440209" lon="-6.045159">
        <ele>762.435</ele>
        <time>2017-09-21T07:00:02Z</time>
      </trkpt>
      <trkpt lat="41.440204" lon="-6.045177">
        <ele>760.529</ele>
        <time>2017-09-21T07:00:21Z</time>
      </trkpt>
      <trkpt lat="41.440174" lon="-6.045238">
        <ele>761.577</ele>
        <time>2017-09-21T07:00:33Z</time>
      </trkpt>
      <trkpt lat="41.440184" lon="-6.045259">
        <ele>761.576</ele>
        <time>2017-09-21T07:00:35Z</time>
      </trkpt>
      <trkpt lat="41.440211" lon="-6.045267">
        <ele>761.526</ele>
        <time>2017-09-21T07:00:38Z</time>
      </trkpt>
      <trkpt lat="41.440314" lon="-6.045220">
        <ele>761.568</ele>
        <time>2017-09-21T07:00:52Z</time>
      </trkpt>
      <trkpt lat="41.440319" lon="-6.045210">
        <ele>761.542</ele>
        <time>2017-09-21T07:00:53Z</time>
      </trkpt>
      <trkpt lat="41.440317" lon="-6.045100">
        <ele>761.522</ele>
        <time>2017-09-21T07:01:00Z</time>
      </trkpt>
      <trkpt lat="41.440369" lon="-6.044810">
        <ele>761.014</ele>
        <time>2017-09-21T07:01:16Z</time>
      </trkpt>
      <trkpt lat="41.440433" lon="-6.044603">
        <ele>760.508</ele>
        <time>2017-09-21T07:01:27Z</time>
      </trkpt>
      <trkpt lat="41.440473" lon="-6.044531">
        <ele>760.575</ele>
        <time>2017-09-21T07:01:32Z</time>
      </trkpt>
      <trkpt lat="41.440474" lon="-6.044367">
        <ele>760.053</ele>
        <time>2017-09-21T07:01:46Z</time>
      </trkpt>
      <trkpt lat="41.440499" lon="-6.044364">
        <ele>760.083</ele>
        <time>2017-09-21T07:01:49Z</time>
      </trkpt>
      <trkpt lat="41.440543" lon="-6.044411">
        <ele>760.597</ele>
        <time>2017-09-21T07:02:02Z</time>
      </trkpt>
      <trkpt lat="41.440735" lon="-6.044690">
        <ele>760.045</ele>
        <time>2017-09-21T07:02:16Z</time>
      </trkpt>
      <trkpt lat="41.440981" lon="-6.045082">
        <ele>761.084</ele>
        <time>2017-09-21T07:02:31Z</time>
      </trkpt>
      <trkpt lat="41.441184" lon="-6.045403">
        <ele>761.544</ele>
        <time>2017-09-21T07:02:47Z</time>
      </trkpt>
      <trkpt lat="41.441438" lon="-6.045750">
        <ele>763.456</ele>
        <time>2017-09-21T07:03:03Z</time>
      </trkpt>
      <trkpt lat="41.441742" lon="-6.046232">
        <ele>763.989</ele>
        <time>2017-09-21T07:03:19Z</time>
      </trkpt>
      <trkpt lat="41.442062" lon="-6.046655">
        <ele>764.306</ele>
        <time>2017-09-21T07:03:35Z</time>
      </trkpt>
      <trkpt lat="41.442343" lon="-6.046963">
        <ele>767.226</ele>
        <time>2017-09-21T07:03:51Z</time>
      </trkpt>
      <trkpt lat="41.442549" lon="-6.047324">
        <ele>767.708</ele>
        <time>2017-09-21T07:04:07Z</time>
      </trkpt>
      <trkpt lat="41.442804" lon="-6.047830">
        <ele>766.719</ele>
        <time>2017-09-21T07:04:23Z</time>
      </trkpt>
      <trkpt lat="41.442912" lon="-6.048044">
        <ele>766.767</ele>
        <time>2017-09-21T07:04:28Z</time>
      </trkpt>
      <trkpt lat="41.443079" lon="-6.048432">
        <ele>765.837</ele>
        <time>2017-09-21T07:04:36Z</time>
      </trkpt>
      <trkpt lat="41.443135" lon="-6.048589">
        <ele>765.351</ele>
        <time>2017-09-21T07:04:39Z</time>
      </trkpt>
      <trkpt lat="41.443280" lon="-6.049565">
        <ele>762.479</ele>
        <time>2017-09-21T07:04:54Z</time>
      </trkpt>
      <trkpt lat="41.443378" lon="-6.050611">
        <ele>761.958</ele>
        <time>2017-09-21T07:05:12Z</time>
      </trkpt>
      <trkpt lat="41.443406" lon="-6.051249">
        <ele>762.498</ele>
        <time>2017-09-21T07:05:25Z</time>
      </trkpt>
      <trkpt lat="41.443377" lon="-6.051949">
        <ele>762.930</ele>
        <time>2017-09-21T07:05:41Z</time>
      </trkpt>
      <trkpt lat="41.443437" lon="-6.052745">
        <ele>761.095</ele>
        <time>2017-09-21T07:05:58Z</time>
      </trkpt>
      <trkpt lat="41.443766" lon="-6.053303">
        <ele>762.949</ele>
        <time>2017-09-21T07:06:13Z</time>
      </trkpt>
      <trkpt lat="41.443873" lon="-6.053455">
        <ele>762.923</ele>
        <time>2017-09-21T07:06:19Z</time>
      </trkpt>
      <trkpt lat="41.444098" lon="-6.053835">
        <ele>761.008</ele>
        <time>2017-09-21T07:06:31Z</time>
      </trkpt>
      <trkpt lat="41.444474" lon="-6.054142">
        <ele>760.530</ele>
        <time>2017-09-21T07:06:45Z</time>
      </trkpt>
      <trkpt lat="41.444585" lon="-6.054484">
        <ele>758.648</ele>
        <time>2017-09-21T07:06:55Z</time>
      </trkpt>
      <trkpt lat="41.444428" lon="-6.055091">
        <ele>757.118</ele>
        <time>2017-09-21T07:07:09Z</time>
      </trkpt>
      <trkpt lat="41.444402" lon="-6.055587">
        <ele>757.612</ele>
        <time>2017-09-21T07:07:20Z</time>
      </trkpt>
      <trkpt lat="41.444388" lon="-6.056063">
        <ele>759.110</ele>
        <time>2017-09-21T07:07:34Z</time>
      </trkpt>
      <trkpt lat="41.444334" lon="-6.056360">
        <ele>760.519</ele>
        <time>2017-09-21T07:07:45Z</time>
      </trkpt>
      <trkpt lat="41.444344" lon="-6.056376">
        <ele>760.589</ele>
        <time>2017-09-21T07:07:46Z</time>
      </trkpt>
      <trkpt lat="41.444359" lon="-6.056388">
        <ele>760.531</ele>
        <time>2017-09-21T07:07:47Z</time>
      </trkpt>
      <trkpt lat="41.444376" lon="-6.056401">
        <ele>760.537</ele>
        <time>2017-09-21T07:07:48Z</time>
      </trkpt>
      <trkpt lat="41.444390" lon="-6.056417">
        <ele>760.549</ele>
        <time>2017-09-21T07:07:49Z</time>
      </trkpt>
      <trkpt lat="41.444675" lon="-6.056778">
        <ele>761.513</ele>
        <time>2017-09-21T07:08:04Z</time>
      </trkpt>
      <trkpt lat="41.444882" lon="-6.057008">
        <ele>762.908</ele>
        <time>2017-09-21T07:08:18Z</time>
      </trkpt>
      <trkpt lat="41.444860" lon="-6.057007">
        <ele>761.964</ele>
        <time>2017-09-21T07:08:38Z</time>
      </trkpt>
      <trkpt lat="41.444864" lon="-6.057008">
        <ele>762.432</ele>
        <time>2017-09-21T07:09:04Z</time>
      </trkpt>
      <trkpt lat="41.444873" lon="-6.057037">
        <ele>762.482</ele>
        <time>2017-09-21T07:09:15Z</time>
      </trkpt>
      <trkpt lat="41.444882" lon="-6.057055">
        <ele>761.926</ele>
        <time>2017-09-21T07:09:16Z</time>
      </trkpt>
      <trkpt lat="41.445233" lon="-6.057330">
        <ele>761.034</ele>
        <time>2017-09-21T07:09:28Z</time>
      </trkpt>
      <trkpt lat="41.445930" lon="-6.057787">
        <ele>760.013</ele>
        <time>2017-09-21T07:09:45Z</time>
      </trkpt>
      <trkpt lat="41.446513" lon="-6.058084">
        <ele>763.423</ele>
        <time>2017-09-21T07:10:00Z</time>
      </trkpt>
      <trkpt lat="41.446765" lon="-6.058344">
        <ele>766.395</ele>
        <time>2017-09-21T07:10:13Z</time>
      </trkpt>
      <trkpt lat="41.447092" lon="-6.058560">
        <ele>768.234</ele>
        <time>2017-09-21T07:10:29Z</time>
      </trkpt>
      <trkpt lat="41.447572" lon="-6.058659">
        <ele>770.655</ele>
        <time>2017-09-21T07:10:47Z</time>
      </trkpt>
      <trkpt lat="41.448049" lon="-6.058719">
        <ele>768.710</ele>
        <time>2017-09-21T07:11:01Z</time>
      </trkpt>
      <trkpt lat="41.448592" lon="-6.058897">
        <ele>769.608</ele>
        <time>2017-09-21T07:11:17Z</time>
      </trkpt>
      <trkpt lat="41.449353" lon="-6.059398">
        <ele>768.794</ele>
        <time>2017-09-21T07:11:34Z</time>
      </trkpt>
      <trkpt lat="41.449835" lon="-6.059948">
        <ele>769.682</ele>
        <time>2017-09-21T07:11:49Z</time>
      </trkpt>
      <trkpt lat="41.450397" lon="-6.060833">
        <ele>766.782</ele>
        <time>2017-09-21T07:12:05Z</time>
      </trkpt>
      <trkpt lat="41.450868" lon="-6.061658">
        <ele>765.386</ele>
        <time>2017-09-21T07:12:20Z</time>
      </trkpt>
      <trkpt lat="41.450989" lon="-6.061945">
        <ele>762.484</ele>
        <time>2017-09-21T07:13:13Z</time>
      </trkpt>
      <trkpt lat="41.450977" lon="-6.061983">
        <ele>762.493</ele>
        <time>2017-09-21T07:13:14Z</time>
      </trkpt>
      <trkpt lat="41.450974" lon="-6.062018">
        <ele>762.433</ele>
        <time>2017-09-21T07:13:15Z</time>
      </trkpt>
      <trkpt lat="41.450979" lon="-6.062054">
        <ele>762.975</ele>
        <time>2017-09-21T07:13:16Z</time>
      </trkpt>
      <trkpt lat="41.450990" lon="-6.062094">
        <ele>762.987</ele>
        <time>2017-09-21T07:13:17Z</time>
      </trkpt>
      <trkpt lat="41.451003" lon="-6.062132">
        <ele>762.942</ele>
        <time>2017-09-21T07:13:18Z</time>
      </trkpt>
      <trkpt lat="41.451018" lon="-6.062175">
        <ele>762.926</ele>
        <time>2017-09-21T07:13:19Z</time>
      </trkpt>
      <trkpt lat="41.451252" lon="-6.062810">
        <ele>762.908</ele>
        <time>2017-09-21T07:13:33Z</time>
      </trkpt>
      <trkpt lat="41.451286" lon="-6.062843">
        <ele>762.499</ele>
        <time>2017-09-21T07:13:34Z</time>
      </trkpt>
      <trkpt lat="41.451393" lon="-6.062925">
        <ele>762.957</ele>
        <time>2017-09-21T07:13:37Z</time>
      </trkpt>
      <trkpt lat="41.451428" lon="-6.062942">
        <ele>763.457</ele>
        <time>2017-09-21T07:13:38Z</time>
      </trkpt>
      <trkpt lat="41.451931" lon="-6.063154">
        <ele>765.821</ele>
        <time>2017-09-21T07:13:53Z</time>
      </trkpt>
      <trkpt lat="41.452262" lon="-6.063410">
        <ele>765.829</ele>
        <time>2017-09-21T07:14:04Z</time>
      </trkpt>
      <trkpt lat="41.452287" lon="-6.063455">
        <ele>765.368</ele>
        <time>2017-09-21T07:14:05Z</time>
      </trkpt>
      <trkpt lat="41.452315" lon="-6.063513">
        <ele>765.318</ele>
        <time>2017-09-21T07:14:06Z</time>
      </trkpt>
      <trkpt lat="41.452338" lon="-6.063569">
        <ele>765.370</ele>
        <time>2017-09-21T07:14:07Z</time>
      </trkpt>
      <trkpt lat="41.452361" lon="-6.063630">
        <ele>764.826</ele>
        <time>2017-09-21T07:14:08Z</time>
      </trkpt>
      <trkpt lat="41.452732" lon="-6.064510">
        <ele>762.447</ele>
        <time>2017-09-21T07:14:22Z</time>
      </trkpt>
      <trkpt lat="41.453163" lon="-6.065319">
        <ele>762.411</ele>
        <time>2017-09-21T07:14:36Z</time>
      </trkpt>
      <trkpt lat="41.453551" lon="-6.066223">
        <ele>761.508</ele>
        <time>2017-09-21T07:14:51Z</time>
      </trkpt>
      <trkpt lat="41.453954" lon="-6.067123">
        <ele>760.543</ele>
        <time>2017-09-21T07:15:06Z</time>
      </trkpt>
      <trkpt lat="41.454500" lon="-6.068196">
        <ele>756.671</ele>
        <time>2017-09-21T07:15:21Z</time>
      </trkpt>
      <trkpt lat="41.455084" lon="-6.069359">
        <ele>752.331</ele>
        <time>2017-09-21T07:15:35Z</time>
      </trkpt>
      <trkpt lat="41.455635" lon="-6.070424">
        <ele>753.365</ele>
        <time>2017-09-21T07:15:50Z</time>
      </trkpt>
      <trkpt lat="41.456098" lon="-6.071309">
        <ele>755.213</ele>
        <time>2017-09-21T07:16:08Z</time>
      </trkpt>
      <trkpt lat="41.456202" lon="-6.071483">
        <ele>755.792</ele>
        <time>2017-09-21T07:16:12Z</time>
      </trkpt>
      <trkpt lat="41.456854" lon="-6.072490">
        <ele>757.192</ele>
        <time>2017-09-21T07:16:35Z</time>
      </trkpt>
      <trkpt lat="41.456883" lon="-6.072525">
        <ele>757.614</ele>
        <time>2017-09-21T07:16:36Z</time>
      </trkpt>
      <trkpt lat="41.456912" lon="-6.072562">
        <ele>757.646</ele>
        <time>2017-09-21T07:16:37Z</time>
      </trkpt>
      <trkpt lat="41.457132" lon="-6.072885">
        <ele>758.188</ele>
        <time>2017-09-21T07:16:45Z</time>
      </trkpt>
      <trkpt lat="41.457163" lon="-6.072927">
        <ele>758.116</ele>
        <time>2017-09-21T07:16:46Z</time>
      </trkpt>
      <trkpt lat="41.457194" lon="-6.072974">
        <ele>758.108</ele>
        <time>2017-09-21T07:16:47Z</time>
      </trkpt>
      <trkpt lat="41.457225" lon="-6.073020">
        <ele>758.195</ele>
        <time>2017-09-21T07:16:48Z</time>
      </trkpt>
      <trkpt lat="41.457258" lon="-6.073067">
        <ele>758.143</ele>
        <time>2017-09-21T07:16:49Z</time>
      </trkpt>
      <trkpt lat="41.457789" lon="-6.073852">
        <ele>759.593</ele>
        <time>2017-09-21T07:17:08Z</time>
      </trkpt>
      <trkpt lat="41.458220" lon="-6.074484">
        <ele>761.087</ele>
        <time>2017-09-21T07:17:27Z</time>
      </trkpt>
      <trkpt lat="41.458617" lon="-6.075072">
        <ele>758.625</ele>
        <time>2017-09-21T07:17:40Z</time>
      </trkpt>
      <trkpt lat="41.459442" lon="-6.076023">
        <ele>756.654</ele>
        <time>2017-09-21T07:17:58Z</time>
      </trkpt>
      <trkpt lat="41.460238" lon="-6.076910">
        <ele>756.644</ele>
        <time>2017-09-21T07:18:15Z</time>
      </trkpt>
      <trkpt lat="41.460955" lon="-6.077712">
        <ele>759.566</ele>
        <time>2017-09-21T07:18:34Z</time>
      </trkpt>
      <trkpt lat="41.461474" lon="-6.078542">
        <ele>756.637</ele>
        <time>2017-09-21T07:18:50Z</time>
      </trkpt>
      <trkpt lat="41.462118" lon="-6.079838">
        <ele>752.849</ele>
        <time>2017-09-21T07:19:09Z</time>
      </trkpt>
      <trkpt lat="41.462699" lon="-6.081080">
        <ele>750.413</ele>
        <time>2017-09-21T07:19:26Z</time>
      </trkpt>
      <trkpt lat="41.463126" lon="-6.082135">
        <ele>748.508</ele>
        <time>2017-09-21T07:19:40Z</time>
      </trkpt>
      <trkpt lat="41.463460" lon="-6.083191">
        <ele>749.074</ele>
        <time>2017-09-21T07:19:57Z</time>
      </trkpt>
      <trkpt lat="41.463807" lon="-6.084784">
        <ele>745.662</ele>
        <time>2017-09-21T07:20:16Z</time>
      </trkpt>
      <trkpt lat="41.464204" lon="-6.086291">
        <ele>741.742</ele>
        <time>2017-09-21T07:20:35Z</time>
      </trkpt>
      <trkpt lat="41.464528" lon="-6.087492">
        <ele>739.346</ele>
        <time>2017-09-21T07:20:51Z</time>
      </trkpt>
      <trkpt lat="41.464921" lon="-6.088712">
        <ele>733.194</ele>
        <time>2017-09-21T07:21:04Z</time>
      </trkpt>
      <trkpt lat="41.465168" lon="-6.090634">
        <ele>728.373</ele>
        <time>2017-09-21T07:21:20Z</time>
      </trkpt>
      <trkpt lat="41.465312" lon="-6.092416">
        <ele>725.493</ele>
        <time>2017-09-21T07:21:37Z</time>
      </trkpt>
      <trkpt lat="41.465324" lon="-6.092515">
        <ele>725.495</ele>
        <time>2017-09-21T07:21:38Z</time>
      </trkpt>
      <trkpt lat="41.465343" lon="-6.093627">
        <ele>724.494</ele>
        <time>2017-09-21T07:21:51Z</time>
      </trkpt>
      <trkpt lat="41.465283" lon="-6.094612">
        <ele>721.657</ele>
        <time>2017-09-21T07:22:03Z</time>
      </trkpt>
      <trkpt lat="41.465468" lon="-6.095837">
        <ele>720.122</ele>
        <time>2017-09-21T07:22:16Z</time>
      </trkpt>
      <trkpt lat="41.465728" lon="-6.096509">
        <ele>724.008</ele>
        <time>2017-09-21T07:22:30Z</time>
      </trkpt>
      <trkpt lat="41.465895" lon="-6.096917">
        <ele>726.480</ele>
        <time>2017-09-21T07:22:45Z</time>
      </trkpt>
      <trkpt lat="41.466082" lon="-6.097336">
        <ele>728.848</ele>
        <time>2017-09-21T07:23:01Z</time>
      </trkpt>
      <trkpt lat="41.466268" lon="-6.097748">
        <ele>731.248</ele>
        <time>2017-09-21T07:23:17Z</time>
      </trkpt>
      <trkpt lat="41.466470" lon="-6.098200">
        <ele>733.622</ele>
        <time>2017-09-21T07:23:33Z</time>
      </trkpt>
      <trkpt lat="41.466649" lon="-6.098647">
        <ele>735.090</ele>
        <time>2017-09-21T07:23:52Z</time>
      </trkpt>
      <trkpt lat="41.466764" lon="-6.098895">
        <ele>736.989</ele>
        <time>2017-09-21T07:24:03Z</time>
      </trkpt>
      <trkpt lat="41.466927" lon="-6.099255">
        <ele>737.939</ele>
        <time>2017-09-21T07:24:18Z</time>
      </trkpt>
      <trkpt lat="41.467113" lon="-6.099710">
        <ele>739.881</ele>
        <time>2017-09-21T07:24:36Z</time>
      </trkpt>
      <trkpt lat="41.467260" lon="-6.100118">
        <ele>742.272</ele>
        <time>2017-09-21T07:24:53Z</time>
      </trkpt>
      <trkpt lat="41.467424" lon="-6.100573">
        <ele>743.213</ele>
        <time>2017-09-21T07:25:12Z</time>
      </trkpt>
      <trkpt lat="41.467601" lon="-6.100879">
        <ele>744.614</ele>
        <time>2017-09-21T07:25:27Z</time>
      </trkpt>
      <trkpt lat="41.467953" lon="-6.100919">
        <ele>744.208</ele>
        <time>2017-09-21T07:25:41Z</time>
      </trkpt>
      <trkpt lat="41.468547" lon="-6.100923">
        <ele>746.118</ele>
        <time>2017-09-21T07:25:57Z</time>
      </trkpt>
      <trkpt lat="41.469072" lon="-6.100832">
        <ele>748.566</ele>
        <time>2017-09-21T07:26:15Z</time>
      </trkpt>
      <trkpt lat="41.469458" lon="-6.100749">
        <ele>750.996</ele>
        <time>2017-09-21T07:26:33Z</time>
      </trkpt>
      <trkpt lat="41.469857" lon="-6.100723">
        <ele>750.990</ele>
        <time>2017-09-21T07:26:49Z</time>
      </trkpt>
      <trkpt lat="41.470357" lon="-6.100878">
        <ele>749.448</ele>
        <time>2017-09-21T07:27:03Z</time>
      </trkpt>
      <trkpt lat="41.470432" lon="-6.100931">
        <ele>749.437</ele>
        <time>2017-09-21T07:27:05Z</time>
      </trkpt>
      <trkpt lat="41.470729" lon="-6.101135">
        <ele>749.467</ele>
        <time>2017-09-21T07:27:12Z</time>
      </trkpt>
      <trkpt lat="41.470763" lon="-6.101175">
        <ele>749.079</ele>
        <time>2017-09-21T07:27:13Z</time>
      </trkpt>
      <trkpt lat="41.470796" lon="-6.101220">
        <ele>749.032</ele>
        <time>2017-09-21T07:27:14Z</time>
      </trkpt>
      <trkpt lat="41.470849" lon="-6.101311">
        <ele>749.092</ele>
        <time>2017-09-21T07:27:16Z</time>
      </trkpt>
      <trkpt lat="41.471133" lon="-6.101788">
        <ele>749.011</ele>
        <time>2017-09-21T07:27:28Z</time>
      </trkpt>
      <trkpt lat="41.471710" lon="-6.102211">
        <ele>750.908</ele>
        <time>2017-09-21T07:27:46Z</time>
      </trkpt>
      <trkpt lat="41.472023" lon="-6.102057">
        <ele>751.424</ele>
        <time>2017-09-21T07:27:57Z</time>
      </trkpt>
      <trkpt lat="41.472347" lon="-6.101813">
        <ele>752.812</ele>
        <time>2017-09-21T07:28:09Z</time>
      </trkpt>
      <trkpt lat="41.472663" lon="-6.101696">
        <ele>753.822</ele>
        <time>2017-09-21T07:28:24Z</time>
      </trkpt>
      <trkpt lat="41.472672" lon="-6.101681">
        <ele>753.876</ele>
        <time>2017-09-21T07:28:25Z</time>
      </trkpt>
      <trkpt lat="41.472699" lon="-6.101680">
        <ele>753.844</ele>
        <time>2017-09-21T07:28:28Z</time>
      </trkpt>
      <trkpt lat="41.472705" lon="-6.101699">
        <ele>753.893</ele>
        <time>2017-09-21T07:28:30Z</time>
      </trkpt>
      <trkpt lat="41.472693" lon="-6.101707">
        <ele>753.833</ele>
        <time>2017-09-21T07:28:31Z</time>
      </trkpt>
      <trkpt lat="41.472372" lon="-6.101807">
        <ele>752.825</ele>
        <time>2017-09-21T07:28:42Z</time>
      </trkpt>
      <trkpt lat="41.472215" lon="-6.101903">
        <ele>754.216</ele>
        <time>2017-09-21T07:28:46Z</time>
      </trkpt>
      <trkpt lat="41.472087" lon="-6.102004">
        <ele>754.776</ele>
        <time>2017-09-21T07:28:49Z</time>
      </trkpt>
      <trkpt lat="41.471824" lon="-6.102259">
        <ele>753.813</ele>
        <time>2017-09-21T07:28:55Z</time>
      </trkpt>
      <trkpt lat="41.471697" lon="-6.102629">
        <ele>753.308</ele>
        <time>2017-09-21T07:29:05Z</time>
      </trkpt>
      <trkpt lat="41.471819" lon="-6.103258">
        <ele>752.372</ele>
        <time>2017-09-21T07:29:19Z</time>
      </trkpt>
      <trkpt lat="41.471966" lon="-6.103990">
        <ele>751.490</ele>
        <time>2017-09-21T07:29:34Z</time>
      </trkpt>
      <trkpt lat="41.472106" lon="-6.104347">
        <ele>750.970</ele>
        <time>2017-09-21T07:29:45Z</time>
      </trkpt>
      <trkpt lat="41.472545" lon="-6.104203">
        <ele>748.064</ele>
        <time>2017-09-21T07:29:56Z</time>
      </trkpt>
      <trkpt lat="41.473225" lon="-6.103594">
        <ele>744.242</ele>
        <time>2017-09-21T07:30:10Z</time>
      </trkpt>
      <trkpt lat="41.473270" lon="-6.103546">
        <ele>743.721</ele>
        <time>2017-09-21T07:30:11Z</time>
      </trkpt>
      <trkpt lat="41.473307" lon="-6.103498">
        <ele>743.761</ele>
        <time>2017-09-21T07:30:12Z</time>
      </trkpt>
      <trkpt lat="41.473346" lon="-6.103447">
        <ele>743.733</ele>
        <time>2017-09-21T07:30:13Z</time>
      </trkpt>
      <trkpt lat="41.474076" lon="-6.102790">
        <ele>740.869</ele>
        <time>2017-09-21T07:30:29Z</time>
      </trkpt>
      <trkpt lat="41.474198" lon="-6.102660">
        <ele>740.304</ele>
        <time>2017-09-21T07:30:32Z</time>
      </trkpt>
      <trkpt lat="41.474441" lon="-6.102445">
        <ele>739.824</ele>
        <time>2017-09-21T07:30:40Z</time>
      </trkpt>
      <trkpt lat="41.474457" lon="-6.102457">
        <ele>739.808</ele>
        <time>2017-09-21T07:30:41Z</time>
      </trkpt>
      <trkpt lat="41.474481" lon="-6.102483">
        <ele>739.817</ele>
        <time>2017-09-21T07:30:42Z</time>
      </trkpt>
      <trkpt lat="41.474501" lon="-6.102517">
        <ele>739.885</ele>
        <time>2017-09-21T07:30:43Z</time>
      </trkpt>
      <trkpt lat="41.474513" lon="-6.102556">
        <ele>739.865</ele>
        <time>2017-09-21T07:30:44Z</time>
      </trkpt>
      <trkpt lat="41.474521" lon="-6.102597">
        <ele>739.839</ele>
        <time>2017-09-21T07:30:45Z</time>
      </trkpt>
      <trkpt lat="41.474530" lon="-6.102638">
        <ele>739.897</ele>
        <time>2017-09-21T07:30:46Z</time>
      </trkpt>
      <trkpt lat="41.474544" lon="-6.102676">
        <ele>739.876</ele>
        <time>2017-09-21T07:30:47Z</time>
      </trkpt>
      <trkpt lat="41.474560" lon="-6.102717">
        <ele>740.376</ele>
        <time>2017-09-21T07:30:48Z</time>
      </trkpt>
      <trkpt lat="41.474575" lon="-6.102760">
        <ele>739.818</ele>
        <time>2017-09-21T07:30:49Z</time>
      </trkpt>
      <trkpt lat="41.474840" lon="-6.103417">
        <ele>740.374</ele>
        <time>2017-09-21T07:31:06Z</time>
      </trkpt>
      <trkpt lat="41.474857" lon="-6.103429">
        <ele>740.356</ele>
        <time>2017-09-21T07:31:07Z</time>
      </trkpt>
      <trkpt lat="41.474879" lon="-6.103428">
        <ele>740.321</ele>
        <time>2017-09-21T07:31:08Z</time>
      </trkpt>
      <trkpt lat="41.474871" lon="-6.103325">
        <ele>739.308</ele>
        <time>2017-09-21T07:31:16Z</time>
      </trkpt>
      <trkpt lat="41.474871" lon="-6.103329">
        <ele>739.818</ele>
        <time>2017-09-21T07:31:27Z</time>
      </trkpt>
      <trkpt lat="41.474869" lon="-6.103316">
        <ele>741.786</ele>
        <time>2017-09-21T07:32:12Z</time>
      </trkpt>
      <trkpt lat="41.474839" lon="-6.103363">
        <ele>741.756</ele>
        <time>2017-09-21T07:32:16Z</time>
      </trkpt>
      <trkpt lat="41.474857" lon="-6.103466">
        <ele>742.240</ele>
        <time>2017-09-21T07:32:27Z</time>
      </trkpt>
      <trkpt lat="41.475058" lon="-6.103800">
        <ele>742.728</ele>
        <time>2017-09-21T07:32:40Z</time>
      </trkpt>
      <trkpt lat="41.475366" lon="-6.104263">
        <ele>743.217</ele>
        <time>2017-09-21T07:32:56Z</time>
      </trkpt>
      <trkpt lat="41.475729" lon="-6.104598">
        <ele>744.287</ele>
        <time>2017-09-21T07:33:12Z</time>
      </trkpt>
      <trkpt lat="41.475940" lon="-6.104932">
        <ele>746.139</ele>
        <time>2017-09-21T07:33:26Z</time>
      </trkpt>
      <trkpt lat="41.476113" lon="-6.105253">
        <ele>748.036</ele>
        <time>2017-09-21T07:33:42Z</time>
      </trkpt>
      <trkpt lat="41.476268" lon="-6.105448">
        <ele>749.017</ele>
        <time>2017-09-21T07:33:55Z</time>
      </trkpt>
      <trkpt lat="41.476281" lon="-6.105460">
        <ele>749.018</ele>
        <time>2017-09-21T07:33:56Z</time>
      </trkpt>
      <trkpt lat="41.476401" lon="-6.105633">
        <ele>749.908</ele>
        <time>2017-09-21T07:34:06Z</time>
      </trkpt>
      <trkpt lat="41.476524" lon="-6.105718">
        <ele>749.944</ele>
        <time>2017-09-21T07:34:13Z</time>
      </trkpt>
      <trkpt lat="41.476539" lon="-6.105734">
        <ele>749.912</ele>
        <time>2017-09-21T07:34:14Z</time>
      </trkpt>
      <trkpt lat="41.476557" lon="-6.105746">
        <ele>749.972</ele>
        <time>2017-09-21T07:34:15Z</time>
      </trkpt>
      <trkpt lat="41.476578" lon="-6.105753">
        <ele>749.976</ele>
        <time>2017-09-21T07:34:16Z</time>
      </trkpt>
      <trkpt lat="41.476603" lon="-6.105759">
        <ele>749.914</ele>
        <time>2017-09-21T07:34:17Z</time>
      </trkpt>
      <trkpt lat="41.476957" lon="-6.105932">
        <ele>748.033</ele>
        <time>2017-09-21T07:34:28Z</time>
      </trkpt>
      <trkpt lat="41.477191" lon="-6.106117">
        <ele>747.033</ele>
        <time>2017-09-21T07:34:34Z</time>
      </trkpt>
      <trkpt lat="41.477235" lon="-6.106169">
        <ele>746.675</ele>
        <time>2017-09-21T07:34:35Z</time>
      </trkpt>
      <trkpt lat="41.477624" lon="-6.106655">
        <ele>744.246</ele>
        <time>2017-09-21T07:34:46Z</time>
      </trkpt>
      <trkpt lat="41.477664" lon="-6.106684">
        <ele>744.288</ele>
        <time>2017-09-21T07:34:47Z</time>
      </trkpt>
      <trkpt lat="41.478316" lon="-6.106959">
        <ele>743.216</ele>
        <time>2017-09-21T07:35:02Z</time>
      </trkpt>
      <trkpt lat="41.478796" lon="-6.107337">
        <ele>743.708</ele>
        <time>2017-09-21T07:35:17Z</time>
      </trkpt>
      <trkpt lat="41.479341" lon="-6.107623">
        <ele>745.175</ele>
        <time>2017-09-21T07:35:34Z</time>
      </trkpt>
      <trkpt lat="41.479766" lon="-6.107559">
        <ele>745.653</ele>
        <time>2017-09-21T07:35:48Z</time>
      </trkpt>
      <trkpt lat="41.480162" lon="-6.107377">
        <ele>747.513</ele>
        <time>2017-09-21T07:36:04Z</time>
      </trkpt>
      <trkpt lat="41.480377" lon="-6.107136">
        <ele>748.517</ele>
        <time>2017-09-21T07:36:16Z</time>
      </trkpt>
      <trkpt lat="41.480399" lon="-6.107122">
        <ele>748.575</ele>
        <time>2017-09-21T07:36:17Z</time>
      </trkpt>
      <trkpt lat="41.480418" lon="-6.107104">
        <ele>748.574</ele>
        <time>2017-09-21T07:36:18Z</time>
      </trkpt>
      <trkpt lat="41.480731" lon="-6.106754">
        <ele>749.064</ele>
        <time>2017-09-21T07:36:33Z</time>
      </trkpt>
      <trkpt lat="41.481265" lon="-6.106312">
        <ele>749.936</ele>
        <time>2017-09-21T07:36:51Z</time>
      </trkpt>
      <trkpt lat="41.481797" lon="-6.106088">
        <ele>750.941</ele>
        <time>2017-09-21T07:37:08Z</time>
      </trkpt>
      <trkpt lat="41.482132" lon="-6.105907">
        <ele>750.481</ele>
        <time>2017-09-21T07:37:17Z</time>
      </trkpt>
      <trkpt lat="41.482208" lon="-6.105852">
        <ele>750.409</ele>
        <time>2017-09-21T07:37:19Z</time>
      </trkpt>
      <trkpt lat="41.483006" lon="-6.105495">
        <ele>750.908</ele>
        <time>2017-09-21T07:37:37Z</time>
      </trkpt>
      <trkpt lat="41.483614" lon="-6.105344">
        <ele>753.895</ele>
        <time>2017-09-21T07:37:55Z</time>
      </trkpt>
      <trkpt lat="41.484040" lon="-6.105380">
        <ele>752.373</ele>
        <time>2017-09-21T07:38:09Z</time>
      </trkpt>
      <trkpt lat="41.484083" lon="-6.105379">
        <ele>751.843</ele>
        <time>2017-09-21T07:38:10Z</time>
      </trkpt>
      <trkpt lat="41.484870" lon="-6.105446">
        <ele>748.077</ele>
        <time>2017-09-21T07:38:25Z</time>
      </trkpt>
      <trkpt lat="41.485164" lon="-6.105388">
        <ele>748.025</ele>
        <time>2017-09-21T07:38:35Z</time>
      </trkpt>
      <trkpt lat="41.485259" lon="-6.105196">
        <ele>747.574</ele>
        <time>2017-09-21T07:38:42Z</time>
      </trkpt>
      <trkpt lat="41.485270" lon="-6.105190">
        <ele>747.034</ele>
        <time>2017-09-21T07:38:43Z</time>
      </trkpt>
      <trkpt lat="41.485290" lon="-6.105194">
        <ele>747.076</ele>
        <time>2017-09-21T07:38:45Z</time>
      </trkpt>
      <trkpt lat="41.485302" lon="-6.105200">
        <ele>747.024</ele>
        <time>2017-09-21T07:38:46Z</time>
      </trkpt>
      <trkpt lat="41.485316" lon="-6.105205">
        <ele>747.004</ele>
        <time>2017-09-21T07:38:47Z</time>
      </trkpt>
      <trkpt lat="41.485334" lon="-6.105203">
        <ele>746.614</ele>
        <time>2017-09-21T07:38:48Z</time>
      </trkpt>
      <trkpt lat="41.485352" lon="-6.105197">
        <ele>746.608</ele>
        <time>2017-09-21T07:38:49Z</time>
      </trkpt>
      <trkpt lat="41.485672" lon="-6.105072">
        <ele>744.633</ele>
        <time>2017-09-21T07:38:58Z</time>
      </trkpt>
      <trkpt lat="41.486293" lon="-6.104950">
        <ele>743.261</ele>
        <time>2017-09-21T07:39:10Z</time>
      </trkpt>
      <trkpt lat="41.486377" lon="-6.104916">
        <ele>743.211</ele>
        <time>2017-09-21T07:39:12Z</time>
      </trkpt>
      <trkpt lat="41.486824" lon="-6.104856">
        <ele>743.715</ele>
        <time>2017-09-21T07:39:25Z</time>
      </trkpt>
      <trkpt lat="41.486965" lon="-6.104926">
        <ele>743.743</ele>
        <time>2017-09-21T07:39:29Z</time>
      </trkpt>
      <trkpt lat="41.487472" lon="-6.105257">
        <ele>744.292</ele>
        <time>2017-09-21T07:39:43Z</time>
      </trkpt>
      <trkpt lat="41.488075" lon="-6.105440">
        <ele>745.112</ele>
        <time>2017-09-21T07:40:00Z</time>
      </trkpt>
      <trkpt lat="41.488597" lon="-6.105531">
        <ele>747.524</ele>
        <time>2017-09-21T07:40:19Z</time>
      </trkpt>
      <trkpt lat="41.489011" lon="-6.105593">
        <ele>748.048</ele>
        <time>2017-09-21T07:40:36Z</time>
      </trkpt>
      <trkpt lat="41.489216" lon="-6.105622">
        <ele>746.661</ele>
        <time>2017-09-21T07:40:41Z</time>
      </trkpt>
      <trkpt lat="41.489259" lon="-6.105636">
        <ele>746.617</ele>
        <time>2017-09-21T07:40:42Z</time>
      </trkpt>
      <trkpt lat="41.489301" lon="-6.105649">
        <ele>746.608</ele>
        <time>2017-09-21T07:40:43Z</time>
      </trkpt>
      <trkpt lat="41.489512" lon="-6.105731">
        <ele>746.175</ele>
        <time>2017-09-21T07:40:48Z</time>
      </trkpt>
      <trkpt lat="41.489552" lon="-6.105759">
        <ele>746.153</ele>
        <time>2017-09-21T07:40:49Z</time>
      </trkpt>
      <trkpt lat="41.489589" lon="-6.105784">
        <ele>746.123</ele>
        <time>2017-09-21T07:40:50Z</time>
      </trkpt>
      <trkpt lat="41.489669" lon="-6.105822">
        <ele>746.177</ele>
        <time>2017-09-21T07:40:52Z</time>
      </trkpt>
      <trkpt lat="41.489711" lon="-6.105835">
        <ele>745.665</ele>
        <time>2017-09-21T07:40:53Z</time>
      </trkpt>
      <trkpt lat="41.490298" lon="-6.105816">
        <ele>745.694</ele>
        <time>2017-09-21T07:41:08Z</time>
      </trkpt>
      <trkpt lat="41.490936" lon="-6.105636">
        <ele>741.724</ele>
        <time>2017-09-21T07:41:20Z</time>
      </trkpt>
      <trkpt lat="41.491646" lon="-6.105381">
        <ele>742.736</ele>
        <time>2017-09-21T07:41:34Z</time>
      </trkpt>
      <trkpt lat="41.492236" lon="-6.105233">
        <ele>741.378</ele>
        <time>2017-09-21T07:41:47Z</time>
      </trkpt>
      <trkpt lat="41.492279" lon="-6.105218">
        <ele>741.333</ele>
        <time>2017-09-21T07:41:48Z</time>
      </trkpt>
      <trkpt lat="41.492325" lon="-6.105208">
        <ele>741.326</ele>
        <time>2017-09-21T07:41:49Z</time>
      </trkpt>
      <trkpt lat="41.492497" lon="-6.105191">
        <ele>741.708</ele>
        <time>2017-09-21T07:41:53Z</time>
      </trkpt>
      <trkpt lat="41.492543" lon="-6.105199">
        <ele>741.748</ele>
        <time>2017-09-21T07:41:54Z</time>
      </trkpt>
      <trkpt lat="41.493184" lon="-6.105361">
        <ele>743.726</ele>
        <time>2017-09-21T07:42:12Z</time>
      </trkpt>
      <trkpt lat="41.493696" lon="-6.105451">
        <ele>745.666</ele>
        <time>2017-09-21T07:42:30Z</time>
      </trkpt>
      <trkpt lat="41.494158" lon="-6.105539">
        <ele>748.010</ele>
        <time>2017-09-21T07:42:49Z</time>
      </trkpt>
      <trkpt lat="41.494461" lon="-6.105569">
        <ele>749.438</ele>
        <time>2017-09-21T07:43:04Z</time>
      </trkpt>
      <trkpt lat="41.494780" lon="-6.105630">
        <ele>750.917</ele>
        <time>2017-09-21T07:43:17Z</time>
      </trkpt>
      <trkpt lat="41.495306" lon="-6.105677">
        <ele>752.317</ele>
        <time>2017-09-21T07:43:35Z</time>
      </trkpt>
      <trkpt lat="41.495708" lon="-6.105557">
        <ele>752.369</ele>
        <time>2017-09-21T07:43:49Z</time>
      </trkpt>
      <trkpt lat="41.496214" lon="-6.105548">
        <ele>753.885</ele>
        <time>2017-09-21T07:44:07Z</time>
      </trkpt>
      <trkpt lat="41.496710" lon="-6.105524">
        <ele>755.289</ele>
        <time>2017-09-21T07:44:25Z</time>
      </trkpt>
      <trkpt lat="41.497069" lon="-6.105335">
        <ele>756.217</ele>
        <time>2017-09-21T07:44:41Z</time>
      </trkpt>
      <trkpt lat="41.497318" lon="-6.105201">
        <ele>758.608</ele>
        <time>2017-09-21T07:44:55Z</time>
      </trkpt>
      <trkpt lat="41.497645" lon="-6.105115">
        <ele>759.549</ele>
        <time>2017-09-21T07:45:11Z</time>
      </trkpt>
      <trkpt lat="41.497994" lon="-6.105098">
        <ele>760.087</ele>
        <time>2017-09-21T07:45:27Z</time>
      </trkpt>
      <trkpt lat="41.498398" lon="-6.105166">
        <ele>758.637</ele>
        <time>2017-09-21T07:45:41Z</time>
      </trkpt>
      <trkpt lat="41.498952" lon="-6.105363">
        <ele>754.291</ele>
        <time>2017-09-21T07:45:54Z</time>
      </trkpt>
      <trkpt lat="41.499747" lon="-6.105426">
        <ele>753.349</ele>
        <time>2017-09-21T07:46:11Z</time>
      </trkpt>
      <trkpt lat="41.499790" lon="-6.105414">
        <ele>753.368</ele>
        <time>2017-09-21T07:46:12Z</time>
      </trkpt>
      <trkpt lat="41.500360" lon="-6.105206">
        <ele>753.868</ele>
        <time>2017-09-21T07:46:27Z</time>
      </trkpt>
      <trkpt lat="41.500843" lon="-6.105025">
        <ele>752.850</ele>
        <time>2017-09-21T07:46:41Z</time>
      </trkpt>
      <trkpt lat="41.501462" lon="-6.104801">
        <ele>752.371</ele>
        <time>2017-09-21T07:46:58Z</time>
      </trkpt>
      <trkpt lat="41.501912" lon="-6.104626">
        <ele>751.441</ele>
        <time>2017-09-21T07:47:11Z</time>
      </trkpt>
      <trkpt lat="41.502268" lon="-6.104479">
        <ele>751.415</ele>
        <time>2017-09-21T07:47:22Z</time>
      </trkpt>
      <trkpt lat="41.502281" lon="-6.104491">
        <ele>751.408</ele>
        <time>2017-09-21T07:47:23Z</time>
      </trkpt>
      <trkpt lat="41.502286" lon="-6.104512">
        <ele>751.458</ele>
        <time>2017-09-21T07:47:24Z</time>
      </trkpt>
      <trkpt lat="41.502285" lon="-6.104535">
        <ele>751.446</ele>
        <time>2017-09-21T07:47:25Z</time>
      </trkpt>
      <trkpt lat="41.502281" lon="-6.104564">
        <ele>751.416</ele>
        <time>2017-09-21T07:47:26Z</time>
      </trkpt>
      <trkpt lat="41.502276" lon="-6.104593">
        <ele>751.460</ele>
        <time>2017-09-21T07:47:27Z</time>
      </trkpt>
      <trkpt lat="41.502237" lon="-6.105184">
        <ele>751.428</ele>
        <time>2017-09-21T07:47:42Z</time>
      </trkpt>
      <trkpt lat="41.502274" lon="-6.105865">
        <ele>750.467</ele>
        <time>2017-09-21T07:47:58Z</time>
      </trkpt>
      <trkpt lat="41.502298" lon="-6.105953">
        <ele>749.457</ele>
        <time>2017-09-21T07:48:09Z</time>
      </trkpt>
      <trkpt lat="41.502306" lon="-6.106162">
        <ele>748.559</ele>
        <time>2017-09-21T07:48:31Z</time>
      </trkpt>
      <trkpt lat="41.502202" lon="-6.106772">
        <ele>744.685</ele>
        <time>2017-09-21T07:48:44Z</time>
      </trkpt>
      <trkpt lat="41.502185" lon="-6.106823">
        <ele>744.689</ele>
        <time>2017-09-21T07:48:45Z</time>
      </trkpt>
      <trkpt lat="41.502164" lon="-6.106870">
        <ele>744.217</ele>
        <time>2017-09-21T07:48:46Z</time>
      </trkpt>
      <trkpt lat="41.502140" lon="-6.106910">
        <ele>743.708</ele>
        <time>2017-09-21T07:48:47Z</time>
      </trkpt>
      <trkpt lat="41.502114" lon="-6.106944">
        <ele>743.239</ele>
        <time>2017-09-21T07:48:48Z</time>
      </trkpt>
      <trkpt lat="41.502088" lon="-6.106977">
        <ele>743.217</ele>
        <time>2017-09-21T07:48:49Z</time>
      </trkpt>
      <trkpt lat="41.501921" lon="-6.107355">
        <ele>739.887</ele>
        <time>2017-09-21T07:49:00Z</time>
      </trkpt>
      <trkpt lat="41.501770" lon="-6.108023">
        <ele>737.411</ele>
        <time>2017-09-21T07:49:14Z</time>
      </trkpt>
      <trkpt lat="41.501730" lon="-6.108288">
        <ele>736.559</ele>
        <time>2017-09-21T07:49:25Z</time>
      </trkpt>
      <trkpt lat="41.501695" lon="-6.108503">
        <ele>736.598</ele>
        <time>2017-09-21T07:49:47Z</time>
      </trkpt>
      <trkpt lat="41.501519" lon="-6.109377">
        <ele>735.598</ele>
        <time>2017-09-21T07:50:03Z</time>
      </trkpt>
      <trkpt lat="41.501427" lon="-6.109708">
        <ele>735.580</ele>
        <time>2017-09-21T07:50:09Z</time>
      </trkpt>
      <trkpt lat="41.501358" lon="-6.109838">
        <ele>735.574</ele>
        <time>2017-09-21T07:50:12Z</time>
      </trkpt>
      <trkpt lat="41.500981" lon="-6.110248">
        <ele>735.056</ele>
        <time>2017-09-21T07:50:24Z</time>
      </trkpt>
      <trkpt lat="41.500845" lon="-6.110392">
        <ele>735.021</ele>
        <time>2017-09-21T07:50:28Z</time>
      </trkpt>
      <trkpt lat="41.500806" lon="-6.110429">
        <ele>735.008</ele>
        <time>2017-09-21T07:50:29Z</time>
      </trkpt>
      <trkpt lat="41.500365" lon="-6.110851">
        <ele>736.528</ele>
        <time>2017-09-21T07:50:44Z</time>
      </trkpt>
      <trkpt lat="41.499884" lon="-6.111255">
        <ele>736.986</ele>
        <time>2017-09-21T07:51:01Z</time>
      </trkpt>
      <trkpt lat="41.499541" lon="-6.111658">
        <ele>738.426</ele>
        <time>2017-09-21T07:51:16Z</time>
      </trkpt>
      <trkpt lat="41.499448" lon="-6.111792">
        <ele>739.380</ele>
        <time>2017-09-21T07:51:22Z</time>
      </trkpt>
      <trkpt lat="41.499430" lon="-6.111809">
        <ele>739.858</ele>
        <time>2017-09-21T07:51:23Z</time>
      </trkpt>
      <trkpt lat="41.499410" lon="-6.111829">
        <ele>739.867</ele>
        <time>2017-09-21T07:51:24Z</time>
      </trkpt>
      <trkpt lat="41.499390" lon="-6.111852">
        <ele>740.317</ele>
        <time>2017-09-21T07:51:25Z</time>
      </trkpt>
      <trkpt lat="41.499373" lon="-6.111878">
        <ele>740.339</ele>
        <time>2017-09-21T07:51:26Z</time>
      </trkpt>
      <trkpt lat="41.499357" lon="-6.111907">
        <ele>740.355</ele>
        <time>2017-09-21T07:51:27Z</time>
      </trkpt>
      <trkpt lat="41.499007" lon="-6.112447">
        <ele>738.407</ele>
        <time>2017-09-21T07:51:41Z</time>
      </trkpt>
      <trkpt lat="41.498578" lon="-6.113173">
        <ele>737.417</ele>
        <time>2017-09-21T07:51:57Z</time>
      </trkpt>
      <trkpt lat="41.498335" lon="-6.113558">
        <ele>736.008</ele>
        <time>2017-09-21T07:52:05Z</time>
      </trkpt>
      <trkpt lat="41.498301" lon="-6.113586">
        <ele>735.536</ele>
        <time>2017-09-21T07:52:06Z</time>
      </trkpt>
      <trkpt lat="41.497877" lon="-6.114074">
        <ele>731.284</ele>
        <time>2017-09-21T07:52:18Z</time>
      </trkpt>
      <trkpt lat="41.497284" lon="-6.114905">
        <ele>726.874</ele>
        <time>2017-09-21T07:52:33Z</time>
      </trkpt>
      <trkpt lat="41.496981" lon="-6.115409">
        <ele>726.488</ele>
        <time>2017-09-21T07:52:42Z</time>
      </trkpt>
      <trkpt lat="41.496967" lon="-6.115464">
        <ele>726.836</ele>
        <time>2017-09-21T07:52:43Z</time>
      </trkpt>
      <trkpt lat="41.496947" lon="-6.115570">
        <ele>726.895</ele>
        <time>2017-09-21T07:52:45Z</time>
      </trkpt>
      <trkpt lat="41.496932" lon="-6.115618">
        <ele>726.855</ele>
        <time>2017-09-21T07:52:46Z</time>
      </trkpt>
      <trkpt lat="41.496912" lon="-6.115672">
        <ele>726.847</ele>
        <time>2017-09-21T07:52:47Z</time>
      </trkpt>
      <trkpt lat="41.496889" lon="-6.115718">
        <ele>726.897</ele>
        <time>2017-09-21T07:52:48Z</time>
      </trkpt>
      <trkpt lat="41.496860" lon="-6.115763">
        <ele>726.423</ele>
        <time>2017-09-21T07:52:49Z</time>
      </trkpt>
      <trkpt lat="41.496834" lon="-6.115806">
        <ele>726.825</ele>
        <time>2017-09-21T07:52:50Z</time>
      </trkpt>
      <trkpt lat="41.496808" lon="-6.115849">
        <ele>726.808</ele>
        <time>2017-09-21T07:52:51Z</time>
      </trkpt>
      <trkpt lat="41.496779" lon="-6.115889">
        <ele>726.840</ele>
        <time>2017-09-21T07:52:52Z</time>
      </trkpt>
      <trkpt lat="41.496748" lon="-6.115923">
        <ele>726.818</ele>
        <time>2017-09-21T07:52:53Z</time>
      </trkpt>
      <trkpt lat="41.496528" lon="-6.116207">
        <ele>726.838</ele>
        <time>2017-09-21T07:53:05Z</time>
      </trkpt>
      <trkpt lat="41.496523" lon="-6.116213">
        <ele>727.332</ele>
        <time>2017-09-21T07:53:19Z</time>
      </trkpt>
      <trkpt lat="41.496518" lon="-6.116187">
        <ele>727.370</ele>
        <time>2017-09-21T07:54:26Z</time>
      </trkpt>
      <trkpt lat="41.496529" lon="-6.116174">
        <ele>727.389</ele>
        <time>2017-09-21T07:54:27Z</time>
      </trkpt>
      <trkpt lat="41.496543" lon="-6.116162">
        <ele>727.319</ele>
        <time>2017-09-21T07:54:28Z</time>
      </trkpt>
      <trkpt lat="41.496738" lon="-6.115913">
        <ele>727.821</ele>
        <time>2017-09-21T07:54:40Z</time>
      </trkpt>
      <trkpt lat="41.496954" lon="-6.115441">
        <ele>727.891</ele>
        <time>2017-09-21T07:54:55Z</time>
      </trkpt>
      <trkpt lat="41.497228" lon="-6.114944">
        <ele>728.381</ele>
        <time>2017-09-21T07:55:08Z</time>
      </trkpt>
      <trkpt lat="41.497544" lon="-6.114549">
        <ele>729.319</ele>
        <time>2017-09-21T07:55:22Z</time>
      </trkpt>
      <trkpt lat="41.497803" lon="-6.114153">
        <ele>732.108</ele>
        <time>2017-09-21T07:55:38Z</time>
      </trkpt>
      <trkpt lat="41.498020" lon="-6.113853">
        <ele>734.160</ele>
        <time>2017-09-21T07:55:54Z</time>
      </trkpt>
      <trkpt lat="41.498160" lon="-6.113695">
        <ele>735.548</ele>
        <time>2017-09-21T07:56:06Z</time>
      </trkpt>
      <trkpt lat="41.498175" lon="-6.113690">
        <ele>735.528</ele>
        <time>2017-09-21T07:56:07Z</time>
      </trkpt>
      <trkpt lat="41.498192" lon="-6.113684">
        <ele>735.522</ele>
        <time>2017-09-21T07:56:08Z</time>
      </trkpt>
      <trkpt lat="41.498207" lon="-6.113674">
        <ele>736.010</ele>
        <time>2017-09-21T07:56:09Z</time>
      </trkpt>
      <trkpt lat="41.498220" lon="-6.113661">
        <ele>736.059</ele>
        <time>2017-09-21T07:56:10Z</time>
      </trkpt>
      <trkpt lat="41.498402" lon="-6.113442">
        <ele>738.449</ele>
        <time>2017-09-21T07:56:26Z</time>
      </trkpt>
      <trkpt lat="41.498574" lon="-6.113164">
        <ele>738.991</ele>
        <time>2017-09-21T07:56:40Z</time>
      </trkpt>
      <trkpt lat="41.498703" lon="-6.112850">
        <ele>739.862</ele>
        <time>2017-09-21T07:56:55Z</time>
      </trkpt>
      <trkpt lat="41.498876" lon="-6.112622">
        <ele>739.883</ele>
        <time>2017-09-21T07:57:07Z</time>
      </trkpt>
      <trkpt lat="41.499103" lon="-6.112260">
        <ele>740.811</ele>
        <time>2017-09-21T07:57:21Z</time>
      </trkpt>
      <trkpt lat="41.499354" lon="-6.111903">
        <ele>741.708</ele>
        <time>2017-09-21T07:57:39Z</time>
      </trkpt>
      <trkpt lat="41.499355" lon="-6.111874">
        <ele>741.327</ele>
        <time>2017-09-21T07:57:49Z</time>
      </trkpt>
      <trkpt lat="41.499354" lon="-6.111886">
        <ele>741.375</ele>
        <time>2017-09-21T07:57:50Z</time>
      </trkpt>
      <trkpt lat="41.499359" lon="-6.111931">
        <ele>740.885</ele>
        <time>2017-09-21T07:58:03Z</time>
      </trkpt>
      <trkpt lat="41.499350" lon="-6.111927">
        <ele>742.719</ele>
        <time>2017-09-21T07:58:44Z</time>
      </trkpt>
      <trkpt lat="41.499352" lon="-6.111933">
        <ele>742.297</ele>
        <time>2017-09-21T07:58:52Z</time>
      </trkpt>
      <trkpt lat="41.499394" lon="-6.111929">
        <ele>736.976</ele>
        <time>2017-09-21T07:59:49Z</time>
      </trkpt>
      <trkpt lat="41.499363" lon="-6.111940">
        <ele>739.876</ele>
        <time>2017-09-21T08:00:46Z</time>
      </trkpt>
      <trkpt lat="41.499374" lon="-6.111934">
        <ele>739.868</ele>
        <time>2017-09-21T08:01:40Z</time>
      </trkpt>
      <trkpt lat="41.499369" lon="-6.111950">
        <ele>739.373</ele>
        <time>2017-09-21T08:02:22Z</time>
      </trkpt>
      <trkpt lat="41.499344" lon="-6.111936">
        <ele>740.385</ele>
        <time>2017-09-21T08:02:39Z</time>
      </trkpt>
      <trkpt lat="41.499368" lon="-6.111862">
        <ele>740.313</ele>
        <time>2017-09-21T08:02:56Z</time>
      </trkpt>
      <trkpt lat="41.499478" lon="-6.111696">
        <ele>740.308</ele>
        <time>2017-09-21T08:03:17Z</time>
      </trkpt>
      <trkpt lat="41.499945" lon="-6.111155">
        <ele>738.458</ele>
        <time>2017-09-21T08:03:30Z</time>
      </trkpt>
      <trkpt lat="41.500141" lon="-6.110973">
        <ele>738.486</ele>
        <time>2017-09-21T08:03:35Z</time>
      </trkpt>
      <trkpt lat="41.500371" lon="-6.110834">
        <ele>737.926</ele>
        <time>2017-09-21T08:03:41Z</time>
      </trkpt>
      <trkpt lat="41.500472" lon="-6.110732">
        <ele>737.490</ele>
        <time>2017-09-21T08:03:44Z</time>
      </trkpt>
      <trkpt lat="41.500505" lon="-6.110694">
        <ele>737.488</ele>
        <time>2017-09-21T08:03:45Z</time>
      </trkpt>
      <trkpt lat="41.501067" lon="-6.110137">
        <ele>735.597</ele>
        <time>2017-09-21T08:03:59Z</time>
      </trkpt>
      <trkpt lat="41.501435" lon="-6.109686">
        <ele>735.077</ele>
        <time>2017-09-21T08:04:14Z</time>
      </trkpt>
      <trkpt lat="41.501552" lon="-6.109161">
        <ele>736.099</ele>
        <time>2017-09-21T08:04:27Z</time>
      </trkpt>
      <trkpt lat="41.501667" lon="-6.108535">
        <ele>736.957</ele>
        <time>2017-09-21T08:04:42Z</time>
      </trkpt>
      <trkpt lat="41.501758" lon="-6.108013">
        <ele>739.300</ele>
        <time>2017-09-21T08:04:59Z</time>
      </trkpt>
      <trkpt lat="41.501855" lon="-6.107636">
        <ele>740.820</ele>
        <time>2017-09-21T08:05:13Z</time>
      </trkpt>
      <trkpt lat="41.501913" lon="-6.107283">
        <ele>743.708</ele>
        <time>2017-09-21T08:05:29Z</time>
      </trkpt>
      <trkpt lat="41.502016" lon="-6.107053">
        <ele>745.166</ele>
        <time>2017-09-21T08:05:43Z</time>
      </trkpt>
      <trkpt lat="41.502175" lon="-6.106846">
        <ele>746.194</ele>
        <time>2017-09-21T08:05:58Z</time>
      </trkpt>
      <trkpt lat="41.502245" lon="-6.106562">
        <ele>747.524</ele>
        <time>2017-09-21T08:06:15Z</time>
      </trkpt>
      <trkpt lat="41.502252" lon="-6.106547">
        <ele>748.088</ele>
        <time>2017-09-21T08:06:16Z</time>
      </trkpt>
      <trkpt lat="41.502258" lon="-6.106530">
        <ele>748.016</ele>
        <time>2017-09-21T08:06:17Z</time>
      </trkpt>
      <trkpt lat="41.502259" lon="-6.106512">
        <ele>748.035</ele>
        <time>2017-09-21T08:06:18Z</time>
      </trkpt>
      <trkpt lat="41.502260" lon="-6.106495">
        <ele>748.015</ele>
        <time>2017-09-21T08:06:19Z</time>
      </trkpt>
      <trkpt lat="41.502271" lon="-6.106386">
        <ele>749.057</ele>
        <time>2017-09-21T08:06:25Z</time>
      </trkpt>
      <trkpt lat="41.502275" lon="-6.106369">
        <ele>749.084</ele>
        <time>2017-09-21T08:06:26Z</time>
      </trkpt>
      <trkpt lat="41.502276" lon="-6.106353">
        <ele>749.007</ele>
        <time>2017-09-21T08:06:27Z</time>
      </trkpt>
      <trkpt lat="41.502278" lon="-6.106336">
        <ele>749.017</ele>
        <time>2017-09-21T08:06:28Z</time>
      </trkpt>
      <trkpt lat="41.502282" lon="-6.106314">
        <ele>749.008</ele>
        <time>2017-09-21T08:06:29Z</time>
      </trkpt>
      <trkpt lat="41.502283" lon="-6.106295">
        <ele>749.499</ele>
        <time>2017-09-21T08:06:30Z</time>
      </trkpt>
      <trkpt lat="41.502284" lon="-6.106275">
        <ele>749.477</ele>
        <time>2017-09-21T08:06:31Z</time>
      </trkpt>
      <trkpt lat="41.502285" lon="-6.106256">
        <ele>749.987</ele>
        <time>2017-09-21T08:06:32Z</time>
      </trkpt>
      <trkpt lat="41.502284" lon="-6.106236">
        <ele>749.991</ele>
        <time>2017-09-21T08:06:33Z</time>
      </trkpt>
      <trkpt lat="41.502284" lon="-6.106217">
        <ele>750.469</ele>
        <time>2017-09-21T08:06:34Z</time>
      </trkpt>
      <trkpt lat="41.502285" lon="-6.106197">
        <ele>750.418</ele>
        <time>2017-09-21T08:06:35Z</time>
      </trkpt>
      <trkpt lat="41.502285" lon="-6.106179">
        <ele>750.498</ele>
        <time>2017-09-21T08:06:36Z</time>
      </trkpt>
      <trkpt lat="41.502282" lon="-6.106159">
        <ele>750.990</ele>
        <time>2017-09-21T08:06:37Z</time>
      </trkpt>
      <trkpt lat="41.502255" lon="-6.104658">
        <ele>752.396</ele>
        <time>2017-09-21T08:07:42Z</time>
      </trkpt>
      <trkpt lat="41.502266" lon="-6.104592">
        <ele>751.831</ele>
        <time>2017-09-21T08:07:45Z</time>
      </trkpt>
      <trkpt lat="41.502261" lon="-6.104547">
        <ele>751.424</ele>
        <time>2017-09-21T08:07:59Z</time>
      </trkpt>
      <trkpt lat="41.502267" lon="-6.104539">
        <ele>750.408</ele>
        <time>2017-09-21T08:08:38Z</time>
      </trkpt>
      <trkpt lat="41.502261" lon="-6.104541">
        <ele>751.840</ele>
        <time>2017-09-21T08:09:32Z</time>
      </trkpt>
      <trkpt lat="41.502258" lon="-6.104536">
        <ele>751.858</ele>
        <time>2017-09-21T08:09:47Z</time>
      </trkpt>
      <trkpt lat="41.502269" lon="-6.104544">
        <ele>750.978</ele>
        <time>2017-09-21T08:10:12Z</time>
      </trkpt>
      <trkpt lat="41.502274" lon="-6.104538">
        <ele>750.962</ele>
        <time>2017-09-21T08:10:43Z</time>
      </trkpt>
      <trkpt lat="41.502271" lon="-6.104544">
        <ele>749.950</ele>
        <time>2017-09-21T08:11:35Z</time>
      </trkpt>
      <trkpt lat="41.502276" lon="-6.104535">
        <ele>750.989</ele>
        <time>2017-09-21T08:12:13Z</time>
      </trkpt>
      <trkpt lat="41.502264" lon="-6.104528">
        <ele>751.859</ele>
        <time>2017-09-21T08:12:48Z</time>
      </trkpt>
      <trkpt lat="41.502255" lon="-6.104519">
        <ele>752.851</ele>
        <time>2017-09-21T08:13:04Z</time>
      </trkpt>
      <trkpt lat="41.502278" lon="-6.104556">
        <ele>752.327</ele>
        <time>2017-09-21T08:13:13Z</time>
      </trkpt>
      <trkpt lat="41.502291" lon="-6.104569">
        <ele>752.368</ele>
        <time>2017-09-21T08:13:50Z</time>
      </trkpt>
      <trkpt lat="41.502275" lon="-6.104642">
        <ele>752.314</ele>
        <time>2017-09-21T08:13:54Z</time>
      </trkpt>
      <trkpt lat="41.502260" lon="-6.104682">
        <ele>752.308</ele>
        <time>2017-09-21T08:13:56Z</time>
      </trkpt>
      <trkpt lat="41.502241" lon="-6.104829">
        <ele>751.813</ele>
        <time>2017-09-21T08:14:03Z</time>
      </trkpt>
      <trkpt lat="41.502258" lon="-6.105289">
        <ele>751.411</ele>
        <time>2017-09-21T08:14:19Z</time>
      </trkpt>
      <trkpt lat="41.502282" lon="-6.105872">
        <ele>750.471</ele>
        <time>2017-09-21T08:14:35Z</time>
      </trkpt>
      <trkpt lat="41.502280" lon="-6.106513">
        <ele>748.085</ele>
        <time>2017-09-21T08:14:50Z</time>
      </trkpt>
      <trkpt lat="41.502104" lon="-6.106976">
        <ele>744.223</ele>
        <time>2017-09-21T08:15:01Z</time>
      </trkpt>
      <trkpt lat="41.501934" lon="-6.107326">
        <ele>741.362</ele>
        <time>2017-09-21T08:15:12Z</time>
      </trkpt>
      <trkpt lat="41.501822" lon="-6.107867">
        <ele>739.382</ele>
        <time>2017-09-21T08:15:26Z</time>
      </trkpt>
      <trkpt lat="41.501695" lon="-6.108518">
        <ele>736.964</ele>
        <time>2017-09-21T08:15:39Z</time>
      </trkpt>
      <trkpt lat="41.501525" lon="-6.109388">
        <ele>735.014</ele>
        <time>2017-09-21T08:15:55Z</time>
      </trkpt>
      <trkpt lat="41.501376" lon="-6.109843">
        <ele>735.554</ele>
        <time>2017-09-21T08:16:10Z</time>
      </trkpt>
      <trkpt lat="41.501382" lon="-6.109856">
        <ele>735.509</ele>
        <time>2017-09-21T08:16:11Z</time>
      </trkpt>
      <trkpt lat="41.501288" lon="-6.109971">
        <ele>736.008</ele>
        <time>2017-09-21T08:56:24Z</time>
      </trkpt>
      <trkpt lat="41.501007" lon="-6.110211">
        <ele>735.562</ele>
        <time>2017-09-21T08:56:37Z</time>
      </trkpt>
      <trkpt lat="41.500647" lon="-6.110581">
        <ele>736.090</ele>
        <time>2017-09-21T08:56:51Z</time>
      </trkpt>
      <trkpt lat="41.500316" lon="-6.110883">
        <ele>736.910</ele>
        <time>2017-09-21T08:57:06Z</time>
      </trkpt>
      <trkpt lat="41.500134" lon="-6.110989">
        <ele>736.974</ele>
        <time>2017-09-21T08:57:14Z</time>
      </trkpt>
      <trkpt lat="41.500114" lon="-6.111008">
        <ele>736.982</ele>
        <time>2017-09-21T08:57:15Z</time>
      </trkpt>
      <trkpt lat="41.499799" lon="-6.111357">
        <ele>738.411</ele>
        <time>2017-09-21T08:57:30Z</time>
      </trkpt>
      <trkpt lat="41.499523" lon="-6.111668">
        <ele>739.881</ele>
        <time>2017-09-21T08:57:45Z</time>
      </trkpt>
      <trkpt lat="41.499342" lon="-6.111928">
        <ele>741.323</ele>
        <time>2017-09-21T08:57:58Z</time>
      </trkpt>
      <trkpt lat="41.499041" lon="-6.112377">
        <ele>739.842</ele>
        <time>2017-09-21T08:58:12Z</time>
      </trkpt>
      <trkpt lat="41.498637" lon="-6.113002">
        <ele>738.922</ele>
        <time>2017-09-21T08:58:27Z</time>
      </trkpt>
      <trkpt lat="41.498585" lon="-6.113148">
        <ele>738.414</ele>
        <time>2017-09-21T08:58:30Z</time>
      </trkpt>
      <trkpt lat="41.498490" lon="-6.113344">
        <ele>737.908</ele>
        <time>2017-09-21T08:58:34Z</time>
      </trkpt>
      <trkpt lat="41.498316" lon="-6.113567">
        <ele>736.995</ele>
        <time>2017-09-21T08:58:39Z</time>
      </trkpt>
      <trkpt lat="41.498279" lon="-6.113594">
        <ele>736.993</ele>
        <time>2017-09-21T08:58:40Z</time>
      </trkpt>
      <trkpt lat="41.498141" lon="-6.113721">
        <ele>735.083</ele>
        <time>2017-09-21T08:58:44Z</time>
      </trkpt>
      <trkpt lat="41.497812" lon="-6.114148">
        <ele>731.237</ele>
        <time>2017-09-21T08:58:55Z</time>
      </trkpt>
      <trkpt lat="41.497598" lon="-6.114489">
        <ele>728.875</ele>
        <time>2017-09-21T08:59:11Z</time>
      </trkpt>
      <trkpt lat="41.497380" lon="-6.114795">
        <ele>727.364</ele>
        <time>2017-09-21T08:59:29Z</time>
      </trkpt>
      <trkpt lat="41.497353" lon="-6.114825">
        <ele>727.354</ele>
        <time>2017-09-21T08:59:42Z</time>
      </trkpt>
      <trkpt lat="41.497243" lon="-6.114969">
        <ele>727.316</ele>
        <time>2017-09-21T09:00:01Z</time>
      </trkpt>
      <trkpt lat="41.497226" lon="-6.114996">
        <ele>726.436</ele>
        <time>2017-09-21T09:00:16Z</time>
      </trkpt>
      <trkpt lat="41.497205" lon="-6.115015">
        <ele>726.817</ele>
        <time>2017-09-21T09:00:37Z</time>
      </trkpt>
      <trkpt lat="41.497196" lon="-6.115026">
        <ele>726.818</ele>
        <time>2017-09-21T09:00:38Z</time>
      </trkpt>
      <trkpt lat="41.496995" lon="-6.115371">
        <ele>727.308</ele>
        <time>2017-09-21T09:00:50Z</time>
      </trkpt>
      <trkpt lat="41.496803" lon="-6.115840">
        <ele>728.834</ele>
        <time>2017-09-21T09:01:01Z</time>
      </trkpt>
      <trkpt lat="41.496375" lon="-6.116411">
        <ele>729.782</ele>
        <time>2017-09-21T09:01:17Z</time>
      </trkpt>
      <trkpt lat="41.495976" lon="-6.117016">
        <ele>729.772</ele>
        <time>2017-09-21T09:01:35Z</time>
      </trkpt>
      <trkpt lat="41.495711" lon="-6.117564">
        <ele>729.766</ele>
        <time>2017-09-21T09:01:51Z</time>
      </trkpt>
      <trkpt lat="41.495410" lon="-6.118121">
        <ele>729.394</ele>
        <time>2017-09-21T09:02:07Z</time>
      </trkpt>
      <trkpt lat="41.495171" lon="-6.118623">
        <ele>729.393</ele>
        <time>2017-09-21T09:02:21Z</time>
      </trkpt>
      <trkpt lat="41.494896" lon="-6.119051">
        <ele>731.273</ele>
        <time>2017-09-21T09:02:35Z</time>
      </trkpt>
      <trkpt lat="41.494562" lon="-6.119517">
        <ele>732.675</ele>
        <time>2017-09-21T09:02:51Z</time>
      </trkpt>
      <trkpt lat="41.494215" lon="-6.119957">
        <ele>733.127</ele>
        <time>2017-09-21T09:03:09Z</time>
      </trkpt>
      <trkpt lat="41.493929" lon="-6.120386">
        <ele>732.668</ele>
        <time>2017-09-21T09:03:23Z</time>
      </trkpt>
      <trkpt lat="41.493585" lon="-6.120997">
        <ele>733.114</ele>
        <time>2017-09-21T09:03:40Z</time>
      </trkpt>
      <trkpt lat="41.493370" lon="-6.121703">
        <ele>734.508</ele>
        <time>2017-09-21T09:03:57Z</time>
      </trkpt>
      <trkpt lat="41.493246" lon="-6.121916">
        <ele>734.533</ele>
        <time>2017-09-21T09:04:02Z</time>
      </trkpt>
      <trkpt lat="41.493018" lon="-6.122624">
        <ele>735.581</ele>
        <time>2017-09-21T09:04:18Z</time>
      </trkpt>
      <trkpt lat="41.492908" lon="-6.123083">
        <ele>737.481</ele>
        <time>2017-09-21T09:04:32Z</time>
      </trkpt>
      <trkpt lat="41.492869" lon="-6.123567">
        <ele>740.375</ele>
        <time>2017-09-21T09:04:49Z</time>
      </trkpt>
      <trkpt lat="41.492755" lon="-6.123901">
        <ele>741.383</ele>
        <time>2017-09-21T09:05:05Z</time>
      </trkpt>
      <trkpt lat="41.492679" lon="-6.124212">
        <ele>741.782</ele>
        <time>2017-09-21T09:05:20Z</time>
      </trkpt>
      <trkpt lat="41.492629" lon="-6.124495">
        <ele>743.282</ele>
        <time>2017-09-21T09:05:33Z</time>
      </trkpt>
      <trkpt lat="41.492632" lon="-6.124517">
        <ele>743.264</ele>
        <time>2017-09-21T09:05:34Z</time>
      </trkpt>
      <trkpt lat="41.492636" lon="-6.124536">
        <ele>743.245</ele>
        <time>2017-09-21T09:05:35Z</time>
      </trkpt>
      <trkpt lat="41.492635" lon="-6.124558">
        <ele>743.747</ele>
        <time>2017-09-21T09:05:36Z</time>
      </trkpt>
      <trkpt lat="41.492632" lon="-6.124583">
        <ele>743.711</ele>
        <time>2017-09-21T09:05:37Z</time>
      </trkpt>
      <trkpt lat="41.492632" lon="-6.124602">
        <ele>744.208</ele>
        <time>2017-09-21T09:05:38Z</time>
      </trkpt>
      <trkpt lat="41.492630" lon="-6.124626">
        <ele>744.235</ele>
        <time>2017-09-21T09:05:39Z</time>
      </trkpt>
      <trkpt lat="41.492571" lon="-6.124955">
        <ele>746.123</ele>
        <time>2017-09-21T09:05:54Z</time>
      </trkpt>
      <trkpt lat="41.492519" lon="-6.125187">
        <ele>747.083</ele>
        <time>2017-09-21T09:06:05Z</time>
      </trkpt>
      <trkpt lat="41.492516" lon="-6.125211">
        <ele>747.017</ele>
        <time>2017-09-21T09:06:06Z</time>
      </trkpt>
      <trkpt lat="41.492511" lon="-6.125232">
        <ele>747.525</ele>
        <time>2017-09-21T09:06:07Z</time>
      </trkpt>
      <trkpt lat="41.492505" lon="-6.125255">
        <ele>747.554</ele>
        <time>2017-09-21T09:06:08Z</time>
      </trkpt>
      <trkpt lat="41.492502" lon="-6.125276">
        <ele>747.064</ele>
        <time>2017-09-21T09:06:09Z</time>
      </trkpt>
      <trkpt lat="41.492499" lon="-6.125297">
        <ele>747.056</ele>
        <time>2017-09-21T09:06:10Z</time>
      </trkpt>
      <trkpt lat="41.492541" lon="-6.125605">
        <ele>749.095</ele>
        <time>2017-09-21T09:06:24Z</time>
      </trkpt>
      <trkpt lat="41.492531" lon="-6.125951">
        <ele>749.949</ele>
        <time>2017-09-21T09:06:37Z</time>
      </trkpt>
      <trkpt lat="41.492475" lon="-6.126290">
        <ele>751.423</ele>
        <time>2017-09-21T09:06:49Z</time>
      </trkpt>
      <trkpt lat="41.492365" lon="-6.126740">
        <ele>752.308</ele>
        <time>2017-09-21T09:07:05Z</time>
      </trkpt>
      <trkpt lat="41.492258" lon="-6.127066">
        <ele>755.220</ele>
        <time>2017-09-21T09:07:20Z</time>
      </trkpt>
      <trkpt lat="41.492163" lon="-6.127393">
        <ele>756.698</ele>
        <time>2017-09-21T09:07:35Z</time>
      </trkpt>
      <trkpt lat="41.492065" lon="-6.127575">
        <ele>757.168</ele>
        <time>2017-09-21T09:07:44Z</time>
      </trkpt>
      <trkpt lat="41.491939" lon="-6.127895">
        <ele>757.152</ele>
        <time>2017-09-21T09:07:58Z</time>
      </trkpt>
      <trkpt lat="41.491727" lon="-6.128327">
        <ele>757.160</ele>
        <time>2017-09-21T09:08:15Z</time>
      </trkpt>
      <trkpt lat="41.491538" lon="-6.128707">
        <ele>756.649</ele>
        <time>2017-09-21T09:08:31Z</time>
      </trkpt>
      <trkpt lat="41.491328" lon="-6.129160">
        <ele>756.239</ele>
        <time>2017-09-21T09:08:46Z</time>
      </trkpt>
      <trkpt lat="41.491002" lon="-6.129686">
        <ele>757.141</ele>
        <time>2017-09-21T09:09:01Z</time>
      </trkpt>
      <trkpt lat="41.490658" lon="-6.130137">
        <ele>758.677</ele>
        <time>2017-09-21T09:09:17Z</time>
      </trkpt>
      <trkpt lat="41.490391" lon="-6.130704">
        <ele>761.061</ele>
        <time>2017-09-21T09:09:36Z</time>
      </trkpt>
      <trkpt lat="41.490257" lon="-6.131244">
        <ele>761.527</ele>
        <time>2017-09-21T09:09:51Z</time>
      </trkpt>
      <trkpt lat="41.490219" lon="-6.131988">
        <ele>761.008</ele>
        <time>2017-09-21T09:10:07Z</time>
      </trkpt>
      <trkpt lat="41.490104" lon="-6.132658">
        <ele>761.088</ele>
        <time>2017-09-21T09:10:23Z</time>
      </trkpt>
      <trkpt lat="41.489973" lon="-6.133184">
        <ele>762.996</ele>
        <time>2017-09-21T09:10:39Z</time>
      </trkpt>
      <trkpt lat="41.489936" lon="-6.133419">
        <ele>762.996</ele>
        <time>2017-09-21T09:10:48Z</time>
      </trkpt>
      <trkpt lat="41.489932" lon="-6.133441">
        <ele>762.970</ele>
        <time>2017-09-21T09:10:49Z</time>
      </trkpt>
      <trkpt lat="41.489928" lon="-6.133462">
        <ele>762.948</ele>
        <time>2017-09-21T09:10:50Z</time>
      </trkpt>
      <trkpt lat="41.489927" lon="-6.133486">
        <ele>762.917</ele>
        <time>2017-09-21T09:10:51Z</time>
      </trkpt>
      <trkpt lat="41.489928" lon="-6.133513">
        <ele>762.997</ele>
        <time>2017-09-21T09:10:52Z</time>
      </trkpt>
      <trkpt lat="41.489929" lon="-6.133537">
        <ele>762.919</ele>
        <time>2017-09-21T09:10:53Z</time>
      </trkpt>
      <trkpt lat="41.489927" lon="-6.133560">
        <ele>762.443</ele>
        <time>2017-09-21T09:10:54Z</time>
      </trkpt>
      <trkpt lat="41.489923" lon="-6.133585">
        <ele>762.464</ele>
        <time>2017-09-21T09:10:55Z</time>
      </trkpt>
      <trkpt lat="41.489922" lon="-6.133611">
        <ele>762.410</ele>
        <time>2017-09-21T09:10:56Z</time>
      </trkpt>
      <trkpt lat="41.489921" lon="-6.133638">
        <ele>762.408</ele>
        <time>2017-09-21T09:10:57Z</time>
      </trkpt>
      <trkpt lat="41.489899" lon="-6.134171">
        <ele>762.415</ele>
        <time>2017-09-21T09:11:14Z</time>
      </trkpt>
      <trkpt lat="41.489902" lon="-6.134201">
        <ele>761.993</ele>
        <time>2017-09-21T09:11:24Z</time>
      </trkpt>
      <trkpt lat="41.489918" lon="-6.134219">
        <ele>761.063</ele>
        <time>2017-09-21T09:12:01Z</time>
      </trkpt>
      <trkpt lat="41.489882" lon="-6.134208">
        <ele>761.927</ele>
        <time>2017-09-21T09:12:36Z</time>
      </trkpt>
      <trkpt lat="41.489894" lon="-6.134214">
        <ele>761.925</ele>
        <time>2017-09-21T09:13:03Z</time>
      </trkpt>
      <trkpt lat="41.489904" lon="-6.134211">
        <ele>761.514</ele>
        <time>2017-09-21T09:13:30Z</time>
      </trkpt>
      <trkpt lat="41.489877" lon="-6.134240">
        <ele>761.044</ele>
        <time>2017-09-21T09:13:52Z</time>
      </trkpt>
      <trkpt lat="41.489869" lon="-6.134261">
        <ele>761.096</ele>
        <time>2017-09-21T09:13:53Z</time>
      </trkpt>
      <trkpt lat="41.489822" lon="-6.134624">
        <ele>761.518</ele>
        <time>2017-09-21T09:14:05Z</time>
      </trkpt>
      <trkpt lat="41.489790" lon="-6.135005">
        <ele>761.098</ele>
        <time>2017-09-21T09:14:17Z</time>
      </trkpt>
      <trkpt lat="41.489840" lon="-6.135198">
        <ele>762.917</ele>
        <time>2017-09-21T09:14:26Z</time>
      </trkpt>
      <trkpt lat="41.489859" lon="-6.135224">
        <ele>762.908</ele>
        <time>2017-09-21T09:14:28Z</time>
      </trkpt>
      <trkpt lat="41.489866" lon="-6.135240">
        <ele>762.972</ele>
        <time>2017-09-21T09:14:29Z</time>
      </trkpt>
      <trkpt lat="41.489874" lon="-6.135256">
        <ele>762.940</ele>
        <time>2017-09-21T09:14:30Z</time>
      </trkpt>
      <trkpt lat="41.489880" lon="-6.135274">
        <ele>762.980</ele>
        <time>2017-09-21T09:14:31Z</time>
      </trkpt>
      <trkpt lat="41.489889" lon="-6.135296">
        <ele>762.964</ele>
        <time>2017-09-21T09:14:32Z</time>
      </trkpt>
      <trkpt lat="41.490104" lon="-6.135452">
        <ele>765.312</ele>
        <time>2017-09-21T09:14:45Z</time>
      </trkpt>
      <trkpt lat="41.490130" lon="-6.135439">
        <ele>765.371</ele>
        <time>2017-09-21T09:14:47Z</time>
      </trkpt>
      <trkpt lat="41.490145" lon="-6.135437">
        <ele>765.841</ele>
        <time>2017-09-21T09:14:48Z</time>
      </trkpt>
      <trkpt lat="41.490157" lon="-6.135437">
        <ele>765.813</ele>
        <time>2017-09-21T09:14:49Z</time>
      </trkpt>
      <trkpt lat="41.490168" lon="-6.135437">
        <ele>765.881</ele>
        <time>2017-09-21T09:15:01Z</time>
      </trkpt>
      <trkpt lat="41.490188" lon="-6.135448">
        <ele>764.861</ele>
        <time>2017-09-21T09:15:16Z</time>
      </trkpt>
      <trkpt lat="41.490204" lon="-6.135452">
        <ele>764.817</ele>
        <time>2017-09-21T09:15:17Z</time>
      </trkpt>
      <trkpt lat="41.490220" lon="-6.135450">
        <ele>764.808</ele>
        <time>2017-09-21T09:15:18Z</time>
      </trkpt>
      <trkpt lat="41.490407" lon="-6.135519">
        <ele>765.849</ele>
        <time>2017-09-21T09:15:26Z</time>
      </trkpt>
      <trkpt lat="41.490379" lon="-6.135894">
        <ele>766.787</ele>
        <time>2017-09-21T09:15:36Z</time>
      </trkpt>
      <trkpt lat="41.490307" lon="-6.135940">
        <ele>766.397</ele>
        <time>2017-09-21T09:15:39Z</time>
      </trkpt>
      <trkpt lat="41.490019" lon="-6.136125">
        <ele>765.331</ele>
        <time>2017-09-21T09:15:49Z</time>
      </trkpt>
      <trkpt lat="41.489844" lon="-6.136506">
        <ele>765.319</ele>
        <time>2017-09-21T09:16:01Z</time>
      </trkpt>
      <trkpt lat="41.489743" lon="-6.136659">
        <ele>765.378</ele>
        <time>2017-09-21T09:16:09Z</time>
      </trkpt>
      <trkpt lat="41.489737" lon="-6.136667">
        <ele>765.348</ele>
        <time>2017-09-21T09:16:10Z</time>
      </trkpt>
      <trkpt lat="41.489672" lon="-6.136752">
        <ele>765.880</ele>
        <time>2017-09-21T09:16:19Z</time>
      </trkpt>
      <trkpt lat="41.489658" lon="-6.136770">
        <ele>765.839</ele>
        <time>2017-09-21T09:16:21Z</time>
      </trkpt>
      <trkpt lat="41.489549" lon="-6.137070">
        <ele>765.801</ele>
        <time>2017-09-21T09:16:31Z</time>
      </trkpt>
      <trkpt lat="41.489576" lon="-6.137490">
        <ele>766.721</ele>
        <time>2017-09-21T09:16:43Z</time>
      </trkpt>
      <trkpt lat="41.489594" lon="-6.137549">
        <ele>766.708</ele>
        <time>2017-09-21T09:16:54Z</time>
      </trkpt>
      <trkpt lat="41.489584" lon="-6.137557">
        <ele>765.814</ele>
        <time>2017-09-21T09:17:09Z</time>
      </trkpt>
      <trkpt lat="41.489576" lon="-6.137537">
        <ele>767.752</ele>
        <time>2017-09-21T09:17:27Z</time>
      </trkpt>
      <trkpt lat="41.489592" lon="-6.137584">
        <ele>768.242</ele>
        <time>2017-09-21T09:17:38Z</time>
      </trkpt>
      <trkpt lat="41.489613" lon="-6.137542">
        <ele>768.256</ele>
        <time>2017-09-21T09:17:50Z</time>
      </trkpt>
      <trkpt lat="41.489636" lon="-6.137555">
        <ele>766.774</ele>
        <time>2017-09-21T09:18:03Z</time>
      </trkpt>
      <trkpt lat="41.489625" lon="-6.137496">
        <ele>766.353</ele>
        <time>2017-09-21T09:18:30Z</time>
      </trkpt>
      <trkpt lat="41.489575" lon="-6.137561">
        <ele>767.213</ele>
        <time>2017-09-21T09:19:10Z</time>
      </trkpt>
      <trkpt lat="41.489580" lon="-6.137534">
        <ele>769.665</ele>
        <time>2017-09-21T09:20:00Z</time>
      </trkpt>
      <trkpt lat="41.489625" lon="-6.137522">
        <ele>769.674</ele>
        <time>2017-09-21T09:20:33Z</time>
      </trkpt>
      <trkpt lat="41.489638" lon="-6.137595">
        <ele>770.656</ele>
        <time>2017-09-21T09:21:00Z</time>
      </trkpt>
      <trkpt lat="41.489638" lon="-6.137561">
        <ele>766.721</ele>
        <time>2017-09-21T09:21:35Z</time>
      </trkpt>
      <trkpt lat="41.489634" lon="-6.137588">
        <ele>767.208</ele>
        <time>2017-09-21T09:22:07Z</time>
      </trkpt>
      <trkpt lat="41.489648" lon="-6.137604">
        <ele>767.728</ele>
        <time>2017-09-21T09:22:40Z</time>
      </trkpt>
      <trkpt lat="41.489619" lon="-6.137507">
        <ele>769.156</ele>
        <time>2017-09-21T09:23:09Z</time>
      </trkpt>
      <trkpt lat="41.489596" lon="-6.137502">
        <ele>771.636</ele>
        <time>2017-09-21T09:23:22Z</time>
      </trkpt>
      <trkpt lat="41.489587" lon="-6.137537">
        <ele>770.170</ele>
        <time>2017-09-21T09:23:37Z</time>
      </trkpt>
      <trkpt lat="41.489595" lon="-6.137540">
        <ele>770.678</ele>
        <time>2017-09-21T09:23:57Z</time>
      </trkpt>
      <trkpt lat="41.489581" lon="-6.137524">
        <ele>772.047</ele>
        <time>2017-09-21T09:24:10Z</time>
      </trkpt>
      <trkpt lat="41.489589" lon="-6.137541">
        <ele>775.967</ele>
        <time>2017-09-21T09:24:32Z</time>
      </trkpt>
      <trkpt lat="41.489579" lon="-6.137544">
        <ele>777.329</ele>
        <time>2017-09-21T09:24:50Z</time>
      </trkpt>
      <trkpt lat="41.489589" lon="-6.137544">
        <ele>778.385</ele>
        <time>2017-09-21T09:25:12Z</time>
      </trkpt>
      <trkpt lat="41.489589" lon="-6.137525">
        <ele>776.889</ele>
        <time>2017-09-21T09:25:37Z</time>
      </trkpt>
      <trkpt lat="41.489590" lon="-6.137505">
        <ele>778.817</ele>
        <time>2017-09-21T09:25:57Z</time>
      </trkpt>
      <trkpt lat="41.489597" lon="-6.137507">
        <ele>780.208</ele>
        <time>2017-09-21T09:26:17Z</time>
      </trkpt>
      <trkpt lat="41.489601" lon="-6.137526">
        <ele>779.769</ele>
        <time>2017-09-21T09:26:34Z</time>
      </trkpt>
      <trkpt lat="41.489590" lon="-6.137533">
        <ele>776.897</ele>
        <time>2017-09-21T09:26:46Z</time>
      </trkpt>
      <trkpt lat="41.489561" lon="-6.137546">
        <ele>774.497</ele>
        <time>2017-09-21T09:27:03Z</time>
      </trkpt>
      <trkpt lat="41.489553" lon="-6.137570">
        <ele>774.411</ele>
        <time>2017-09-21T09:27:04Z</time>
      </trkpt>
      <trkpt lat="41.489544" lon="-6.137593">
        <ele>774.029</ele>
        <time>2017-09-21T09:27:05Z</time>
      </trkpt>
      <trkpt lat="41.489542" lon="-6.137627">
        <ele>773.078</ele>
        <time>2017-09-21T09:27:06Z</time>
      </trkpt>
      <trkpt lat="41.489541" lon="-6.137673">
        <ele>772.068</ele>
        <time>2017-09-21T09:27:07Z</time>
      </trkpt>
      <trkpt lat="41.489539" lon="-6.137705">
        <ele>771.660</ele>
        <time>2017-09-21T09:27:08Z</time>
      </trkpt>
      <trkpt lat="41.489457" lon="-6.138137">
        <ele>769.149</ele>
        <time>2017-09-21T09:27:23Z</time>
      </trkpt>
      <trkpt lat="41.489442" lon="-6.138494">
        <ele>769.602</ele>
        <time>2017-09-21T09:27:37Z</time>
      </trkpt>
      <trkpt lat="41.489481" lon="-6.138729">
        <ele>769.122</ele>
        <time>2017-09-21T09:27:46Z</time>
      </trkpt>
      <trkpt lat="41.489488" lon="-6.138750">
        <ele>769.108</ele>
        <time>2017-09-21T09:27:47Z</time>
      </trkpt>
      <trkpt lat="41.489495" lon="-6.138783">
        <ele>769.125</ele>
        <time>2017-09-21T09:27:48Z</time>
      </trkpt>
      <trkpt lat="41.489462" lon="-6.139290">
        <ele>766.773</ele>
        <time>2017-09-21T09:28:00Z</time>
      </trkpt>
      <trkpt lat="41.489508" lon="-6.140079">
        <ele>765.373</ele>
        <time>2017-09-21T09:28:15Z</time>
      </trkpt>
      <trkpt lat="41.489516" lon="-6.140147">
        <ele>765.837</ele>
        <time>2017-09-21T09:28:16Z</time>
      </trkpt>
      <trkpt lat="41.489519" lon="-6.140263">
        <ele>765.865</ele>
        <time>2017-09-21T09:28:19Z</time>
      </trkpt>
      <trkpt lat="41.489511" lon="-6.140269">
        <ele>766.374</ele>
        <time>2017-09-21T09:28:20Z</time>
      </trkpt>
      <trkpt lat="41.489496" lon="-6.140266">
        <ele>766.364</ele>
        <time>2017-09-21T09:28:21Z</time>
      </trkpt>
      <trkpt lat="41.489475" lon="-6.140243">
        <ele>765.876</ele>
        <time>2017-09-21T09:28:22Z</time>
      </trkpt>
      <trkpt lat="41.489468" lon="-6.140222">
        <ele>765.887</ele>
        <time>2017-09-21T09:28:23Z</time>
      </trkpt>
      <trkpt lat="41.489460" lon="-6.140195">
        <ele>765.842</ele>
        <time>2017-09-21T09:28:24Z</time>
      </trkpt>
      <trkpt lat="41.489459" lon="-6.140161">
        <ele>765.826</ele>
        <time>2017-09-21T09:28:25Z</time>
      </trkpt>
      <trkpt lat="41.489471" lon="-6.140126">
        <ele>766.308</ele>
        <time>2017-09-21T09:28:26Z</time>
      </trkpt>
      <trkpt lat="41.489484" lon="-6.140107">
        <ele>766.389</ele>
        <time>2017-09-21T09:28:27Z</time>
      </trkpt>
      <trkpt lat="41.489503" lon="-6.140097">
        <ele>766.357</ele>
        <time>2017-09-21T09:28:28Z</time>
      </trkpt>
      <trkpt lat="41.489518" lon="-6.140101">
        <ele>766.377</ele>
        <time>2017-09-21T09:28:29Z</time>
      </trkpt>
      <trkpt lat="41.489539" lon="-6.140121">
        <ele>766.391</ele>
        <time>2017-09-21T09:28:30Z</time>
      </trkpt>
      <trkpt lat="41.489554" lon="-6.140141">
        <ele>766.779</ele>
        <time>2017-09-21T09:28:31Z</time>
      </trkpt>
      <trkpt lat="41.489564" lon="-6.140162">
        <ele>766.738</ele>
        <time>2017-09-21T09:28:32Z</time>
      </trkpt>
      <trkpt lat="41.489569" lon="-6.140186">
        <ele>766.788</ele>
        <time>2017-09-21T09:28:33Z</time>
      </trkpt>
      <trkpt lat="41.489577" lon="-6.140184">
        <ele>766.770</ele>
        <time>2017-09-21T09:28:43Z</time>
      </trkpt>
      <trkpt lat="41.489576" lon="-6.140189">
        <ele>767.747</ele>
        <time>2017-09-21T09:29:17Z</time>
      </trkpt>
      <trkpt lat="41.489567" lon="-6.140196">
        <ele>767.729</ele>
        <time>2017-09-21T09:29:19Z</time>
      </trkpt>
      <trkpt lat="41.489553" lon="-6.140203">
        <ele>767.721</ele>
        <time>2017-09-21T09:29:20Z</time>
      </trkpt>
      <trkpt lat="41.489535" lon="-6.140221">
        <ele>767.708</ele>
        <time>2017-09-21T09:29:21Z</time>
      </trkpt>
      <trkpt lat="41.489524" lon="-6.140246">
        <ele>767.775</ele>
        <time>2017-09-21T09:29:22Z</time>
      </trkpt>
      <trkpt lat="41.489519" lon="-6.140281">
        <ele>767.793</ele>
        <time>2017-09-21T09:29:23Z</time>
      </trkpt>
      <trkpt lat="41.489518" lon="-6.140310">
        <ele>767.713</ele>
        <time>2017-09-21T09:29:24Z</time>
      </trkpt>
      <trkpt lat="41.489563" lon="-6.140947">
        <ele>767.797</ele>
        <time>2017-09-21T09:29:39Z</time>
      </trkpt>
      <trkpt lat="41.489589" lon="-6.141545">
        <ele>767.775</ele>
        <time>2017-09-21T09:29:56Z</time>
      </trkpt>
      <trkpt lat="41.489610" lon="-6.142063">
        <ele>769.134</ele>
        <time>2017-09-21T09:30:13Z</time>
      </trkpt>
      <trkpt lat="41.489632" lon="-6.142542">
        <ele>771.164</ele>
        <time>2017-09-21T09:30:28Z</time>
      </trkpt>
      <trkpt lat="41.489601" lon="-6.143093">
        <ele>772.016</ele>
        <time>2017-09-21T09:30:45Z</time>
      </trkpt>
      <trkpt lat="41.489558" lon="-6.143562">
        <ele>772.051</ele>
        <time>2017-09-21T09:31:00Z</time>
      </trkpt>
      <trkpt lat="41.489556" lon="-6.143708">
        <ele>771.101</ele>
        <time>2017-09-21T09:31:11Z</time>
      </trkpt>
      <trkpt lat="41.489539" lon="-6.143724">
        <ele>772.511</ele>
        <time>2017-09-21T09:31:34Z</time>
      </trkpt>
      <trkpt lat="41.489539" lon="-6.143721">
        <ele>771.608</ele>
        <time>2017-09-21T09:31:43Z</time>
      </trkpt>
      <trkpt lat="41.489533" lon="-6.143736">
        <ele>771.666</ele>
        <time>2017-09-21T09:31:44Z</time>
      </trkpt>
      <trkpt lat="41.489527" lon="-6.143755">
        <ele>771.684</ele>
        <time>2017-09-21T09:31:45Z</time>
      </trkpt>
      <trkpt lat="41.489525" lon="-6.143783">
        <ele>771.664</ele>
        <time>2017-09-21T09:31:46Z</time>
      </trkpt>
      <trkpt lat="41.489525" lon="-6.143813">
        <ele>771.678</ele>
        <time>2017-09-21T09:31:47Z</time>
      </trkpt>
      <trkpt lat="41.489465" lon="-6.144536">
        <ele>771.686</ele>
        <time>2017-09-21T09:32:02Z</time>
      </trkpt>
      <trkpt lat="41.489411" lon="-6.145215">
        <ele>771.625</ele>
        <time>2017-09-21T09:32:15Z</time>
      </trkpt>
      <trkpt lat="41.489338" lon="-6.146006">
        <ele>773.075</ele>
        <time>2017-09-21T09:32:35Z</time>
      </trkpt>
      <trkpt lat="41.489298" lon="-6.146504">
        <ele>773.567</ele>
        <time>2017-09-21T09:32:50Z</time>
      </trkpt>
      <trkpt lat="41.489246" lon="-6.147009">
        <ele>774.421</ele>
        <time>2017-09-21T09:33:06Z</time>
      </trkpt>
      <trkpt lat="41.489237" lon="-6.147589">
        <ele>775.941</ele>
        <time>2017-09-21T09:33:22Z</time>
      </trkpt>
      <trkpt lat="41.489272" lon="-6.148106">
        <ele>775.405</ele>
        <time>2017-09-21T09:33:32Z</time>
      </trkpt>
      <trkpt lat="41.489275" lon="-6.148161">
        <ele>775.408</ele>
        <time>2017-09-21T09:33:33Z</time>
      </trkpt>
      <trkpt lat="41.489358" lon="-6.149209">
        <ele>774.413</ele>
        <time>2017-09-21T09:33:50Z</time>
      </trkpt>
      <trkpt lat="41.489331" lon="-6.150386">
        <ele>773.041</ele>
        <time>2017-09-21T09:34:09Z</time>
      </trkpt>
      <trkpt lat="41.488951" lon="-6.151641">
        <ele>772.521</ele>
        <time>2017-09-21T09:34:30Z</time>
      </trkpt>
      <trkpt lat="41.488765" lon="-6.152639">
        <ele>773.065</ele>
        <time>2017-09-21T09:34:48Z</time>
      </trkpt>
      <trkpt lat="41.488718" lon="-6.153393">
        <ele>775.463</ele>
        <time>2017-09-21T09:35:07Z</time>
      </trkpt>
      <trkpt lat="41.488673" lon="-6.154053">
        <ele>775.952</ele>
        <time>2017-09-21T09:35:25Z</time>
      </trkpt>
      <trkpt lat="41.488635" lon="-6.154691">
        <ele>777.862</ele>
        <time>2017-09-21T09:35:43Z</time>
      </trkpt>
      <trkpt lat="41.488604" lon="-6.155218">
        <ele>779.214</ele>
        <time>2017-09-21T09:35:58Z</time>
      </trkpt>
      <trkpt lat="41.488553" lon="-6.155906">
        <ele>779.728</ele>
        <time>2017-09-21T09:36:18Z</time>
      </trkpt>
      <trkpt lat="41.488512" lon="-6.156476">
        <ele>780.289</ele>
        <time>2017-09-21T09:36:35Z</time>
      </trkpt>
      <trkpt lat="41.488480" lon="-6.157058">
        <ele>780.717</ele>
        <time>2017-09-21T09:36:52Z</time>
      </trkpt>
      <trkpt lat="41.488442" lon="-6.157663">
        <ele>783.108</ele>
        <time>2017-09-21T09:37:09Z</time>
      </trkpt>
      <trkpt lat="41.488401" lon="-6.158311">
        <ele>784.573</ele>
        <time>2017-09-21T09:37:27Z</time>
      </trkpt>
      <trkpt lat="41.488366" lon="-6.158829">
        <ele>786.581</ele>
        <time>2017-09-21T09:37:42Z</time>
      </trkpt>
      <trkpt lat="41.488332" lon="-6.159343">
        <ele>788.431</ele>
        <time>2017-09-21T09:37:59Z</time>
      </trkpt>
      <trkpt lat="41.488289" lon="-6.159874">
        <ele>787.995</ele>
        <time>2017-09-21T09:38:14Z</time>
      </trkpt>
      <trkpt lat="41.488246" lon="-6.160616">
        <ele>786.993</ele>
        <time>2017-09-21T09:38:29Z</time>
      </trkpt>
      <trkpt lat="41.488180" lon="-6.161560">
        <ele>786.012</ele>
        <time>2017-09-21T09:38:46Z</time>
      </trkpt>
      <trkpt lat="41.488149" lon="-6.162091">
        <ele>786.582</ele>
        <time>2017-09-21T09:38:55Z</time>
      </trkpt>
      <trkpt lat="41.488079" lon="-6.163203">
        <ele>787.934</ele>
        <time>2017-09-21T09:39:15Z</time>
      </trkpt>
      <trkpt lat="41.488014" lon="-6.164137">
        <ele>787.939</ele>
        <time>2017-09-21T09:39:33Z</time>
      </trkpt>
      <trkpt lat="41.487933" lon="-6.165354">
        <ele>784.501</ele>
        <time>2017-09-21T09:39:49Z</time>
      </trkpt>
      <trkpt lat="41.487763" lon="-6.166687">
        <ele>782.121</ele>
        <time>2017-09-21T09:40:05Z</time>
      </trkpt>
      <trkpt lat="41.487382" lon="-6.168103">
        <ele>781.608</ele>
        <time>2017-09-21T09:40:25Z</time>
      </trkpt>
      <trkpt lat="41.487119" lon="-6.169081">
        <ele>781.664</ele>
        <time>2017-09-21T09:40:40Z</time>
      </trkpt>
      <trkpt lat="41.486904" lon="-6.169981">
        <ele>783.152</ele>
        <time>2017-09-21T09:40:57Z</time>
      </trkpt>
      <trkpt lat="41.486784" lon="-6.170612">
        <ele>784.542</ele>
        <time>2017-09-21T09:41:14Z</time>
      </trkpt>
      <trkpt lat="41.486636" lon="-6.171377">
        <ele>785.096</ele>
        <time>2017-09-21T09:41:32Z</time>
      </trkpt>
      <trkpt lat="41.486507" lon="-6.172207">
        <ele>786.044</ele>
        <time>2017-09-21T09:41:53Z</time>
      </trkpt>
      <trkpt lat="41.486397" lon="-6.172880">
        <ele>787.443</ele>
        <time>2017-09-21T09:42:09Z</time>
      </trkpt>
      <trkpt lat="41.486268" lon="-6.173552">
        <ele>789.363</ele>
        <time>2017-09-21T09:42:26Z</time>
      </trkpt>
      <trkpt lat="41.486099" lon="-6.174125">
        <ele>789.895</ele>
        <time>2017-09-21T09:42:43Z</time>
      </trkpt>
      <trkpt lat="41.486021" lon="-6.174349">
        <ele>789.375</ele>
        <time>2017-09-21T09:42:50Z</time>
      </trkpt>
      <trkpt lat="41.486005" lon="-6.174353">
        <ele>789.328</ele>
        <time>2017-09-21T09:42:51Z</time>
      </trkpt>
      <trkpt lat="41.485991" lon="-6.174347">
        <ele>789.320</ele>
        <time>2017-09-21T09:42:52Z</time>
      </trkpt>
      <trkpt lat="41.485981" lon="-6.174335">
        <ele>789.308</ele>
        <time>2017-09-21T09:42:53Z</time>
      </trkpt>
      <trkpt lat="41.485974" lon="-6.174310">
        <ele>789.348</ele>
        <time>2017-09-21T09:42:54Z</time>
      </trkpt>
      <trkpt lat="41.485976" lon="-6.174283">
        <ele>789.356</ele>
        <time>2017-09-21T09:42:55Z</time>
      </trkpt>
      <trkpt lat="41.485979" lon="-6.174268">
        <ele>789.886</ele>
        <time>2017-09-21T09:42:56Z</time>
      </trkpt>
      <trkpt lat="41.485990" lon="-6.174250">
        <ele>789.860</ele>
        <time>2017-09-21T09:42:57Z</time>
      </trkpt>
      <trkpt lat="41.486003" lon="-6.174234">
        <ele>789.888</ele>
        <time>2017-09-21T09:42:58Z</time>
      </trkpt>
      <trkpt lat="41.486018" lon="-6.174220">
        <ele>789.867</ele>
        <time>2017-09-21T09:42:59Z</time>
      </trkpt>
      <trkpt lat="41.486038" lon="-6.174212">
        <ele>789.817</ele>
        <time>2017-09-21T09:43:00Z</time>
      </trkpt>
      <trkpt lat="41.486050" lon="-6.174217">
        <ele>789.869</ele>
        <time>2017-09-21T09:43:01Z</time>
      </trkpt>
      <trkpt lat="41.486057" lon="-6.174234">
        <ele>790.357</ele>
        <time>2017-09-21T09:43:02Z</time>
      </trkpt>
      <trkpt lat="41.486054" lon="-6.174264">
        <ele>790.300</ele>
        <time>2017-09-21T09:43:04Z</time>
      </trkpt>
      <trkpt lat="41.486058" lon="-6.174291">
        <ele>790.320</ele>
        <time>2017-09-21T09:43:05Z</time>
      </trkpt>
      <trkpt lat="41.486079" lon="-6.174333">
        <ele>790.308</ele>
        <time>2017-09-21T09:43:06Z</time>
      </trkpt>
      <trkpt lat="41.486094" lon="-6.174339">
        <ele>790.386</ele>
        <time>2017-09-21T09:43:07Z</time>
      </trkpt>
      <trkpt lat="41.486117" lon="-6.174344">
        <ele>790.384</ele>
        <time>2017-09-21T09:43:08Z</time>
      </trkpt>
      <trkpt lat="41.486386" lon="-6.174571">
        <ele>790.874</ele>
        <time>2017-09-21T09:43:22Z</time>
      </trkpt>
      <trkpt lat="41.486642" lon="-6.174904">
        <ele>791.798</ele>
        <time>2017-09-21T09:43:36Z</time>
      </trkpt>
      <trkpt lat="41.486887" lon="-6.175292">
        <ele>792.726</ele>
        <time>2017-09-21T09:43:52Z</time>
      </trkpt>
      <trkpt lat="41.486934" lon="-6.175658">
        <ele>792.725</ele>
        <time>2017-09-21T09:44:03Z</time>
      </trkpt>
      <trkpt lat="41.486944" lon="-6.175809">
        <ele>793.295</ele>
        <time>2017-09-21T09:44:08Z</time>
      </trkpt>
      <trkpt lat="41.486960" lon="-6.175824">
        <ele>793.767</ele>
        <time>2017-09-21T09:44:09Z</time>
      </trkpt>
      <trkpt lat="41.486979" lon="-6.175839">
        <ele>793.763</ele>
        <time>2017-09-21T09:44:10Z</time>
      </trkpt>
      <trkpt lat="41.487231" lon="-6.176140">
        <ele>795.144</ele>
        <time>2017-09-21T09:44:25Z</time>
      </trkpt>
      <trkpt lat="41.487311" lon="-6.176310">
        <ele>794.618</ele>
        <time>2017-09-21T09:44:30Z</time>
      </trkpt>
      <trkpt lat="41.487301" lon="-6.176347">
        <ele>794.108</ele>
        <time>2017-09-21T09:44:31Z</time>
      </trkpt>
      <trkpt lat="41.487286" lon="-6.176371">
        <ele>794.177</ele>
        <time>2017-09-21T09:44:32Z</time>
      </trkpt>
      <trkpt lat="41.487265" lon="-6.176399">
        <ele>794.165</ele>
        <time>2017-09-21T09:44:33Z</time>
      </trkpt>
      <trkpt lat="41.487242" lon="-6.176426">
        <ele>793.745</ele>
        <time>2017-09-21T09:44:34Z</time>
      </trkpt>
      <trkpt lat="41.486926" lon="-6.176679">
        <ele>794.639</ele>
        <time>2017-09-21T09:44:48Z</time>
      </trkpt>
      <trkpt lat="41.486785" lon="-6.177076">
        <ele>794.197</ele>
        <time>2017-09-21T09:45:00Z</time>
      </trkpt>
      <trkpt lat="41.486558" lon="-6.177517">
        <ele>794.656</ele>
        <time>2017-09-21T09:45:12Z</time>
      </trkpt>
      <trkpt lat="41.486492" lon="-6.178190">
        <ele>791.346</ele>
        <time>2017-09-21T09:45:22Z</time>
      </trkpt>
      <trkpt lat="41.486693" lon="-6.179323">
        <ele>787.468</ele>
        <time>2017-09-21T09:45:36Z</time>
      </trkpt>
      <trkpt lat="41.486703" lon="-6.179400">
        <ele>786.957</ele>
        <time>2017-09-21T09:45:37Z</time>
      </trkpt>
      <trkpt lat="41.486705" lon="-6.179474">
        <ele>786.900</ele>
        <time>2017-09-21T09:45:38Z</time>
      </trkpt>
      <trkpt lat="41.486701" lon="-6.179546">
        <ele>786.920</ele>
        <time>2017-09-21T09:45:39Z</time>
      </trkpt>
      <trkpt lat="41.486692" lon="-6.179613">
        <ele>786.008</ele>
        <time>2017-09-21T09:45:40Z</time>
      </trkpt>
      <trkpt lat="41.486678" lon="-6.179680">
        <ele>784.526</ele>
        <time>2017-09-21T09:45:41Z</time>
      </trkpt>
      <trkpt lat="41.486674" lon="-6.179737">
        <ele>783.124</ele>
        <time>2017-09-21T09:45:42Z</time>
      </trkpt>
      <trkpt lat="41.486676" lon="-6.179786">
        <ele>781.674</ele>
        <time>2017-09-21T09:45:43Z</time>
      </trkpt>
      <trkpt lat="41.486717" lon="-6.180171">
        <ele>778.878</ele>
        <time>2017-09-21T09:45:50Z</time>
      </trkpt>
      <trkpt lat="41.486746" lon="-6.180215">
        <ele>778.816</ele>
        <time>2017-09-21T09:45:51Z</time>
      </trkpt>
      <trkpt lat="41.486783" lon="-6.180250">
        <ele>778.865</ele>
        <time>2017-09-21T09:45:52Z</time>
      </trkpt>
      <trkpt lat="41.486819" lon="-6.180283">
        <ele>779.245</ele>
        <time>2017-09-21T09:45:53Z</time>
      </trkpt>
      <trkpt lat="41.486853" lon="-6.180317">
        <ele>779.237</ele>
        <time>2017-09-21T09:45:54Z</time>
      </trkpt>
      <trkpt lat="41.486901" lon="-6.180473">
        <ele>782.113</ele>
        <time>2017-09-21T09:46:22Z</time>
      </trkpt>
      <trkpt lat="41.486881" lon="-6.180502">
        <ele>782.143</ele>
        <time>2017-09-21T09:46:23Z</time>
      </trkpt>
      <trkpt lat="41.486866" lon="-6.180542">
        <ele>782.107</ele>
        <time>2017-09-21T09:46:24Z</time>
      </trkpt>
      <trkpt lat="41.486856" lon="-6.180591">
        <ele>781.608</ele>
        <time>2017-09-21T09:46:25Z</time>
      </trkpt>
      <trkpt lat="41.486851" lon="-6.180634">
        <ele>781.662</ele>
        <time>2017-09-21T09:46:26Z</time>
      </trkpt>
      <trkpt lat="41.486847" lon="-6.180680">
        <ele>781.230</ele>
        <time>2017-09-21T09:46:27Z</time>
      </trkpt>
      <trkpt lat="41.486845" lon="-6.180734">
        <ele>781.230</ele>
        <time>2017-09-21T09:46:28Z</time>
      </trkpt>
      <trkpt lat="41.486847" lon="-6.180778">
        <ele>781.214</ele>
        <time>2017-09-21T09:46:29Z</time>
      </trkpt>
      <trkpt lat="41.486848" lon="-6.180823">
        <ele>781.242</ele>
        <time>2017-09-21T09:46:30Z</time>
      </trkpt>
      <trkpt lat="41.486850" lon="-6.180873">
        <ele>781.281</ele>
        <time>2017-09-21T09:46:31Z</time>
      </trkpt>
      <trkpt lat="41.487043" lon="-6.181333">
        <ele>780.711</ele>
        <time>2017-09-21T09:46:43Z</time>
      </trkpt>
      <trkpt lat="41.487414" lon="-6.181678">
        <ele>781.673</ele>
        <time>2017-09-21T09:46:56Z</time>
      </trkpt>
      <trkpt lat="41.487422" lon="-6.181714">
        <ele>781.669</ele>
        <time>2017-09-21T09:46:57Z</time>
      </trkpt>
      <trkpt lat="41.487424" lon="-6.181750">
        <ele>781.604</ele>
        <time>2017-09-21T09:46:58Z</time>
      </trkpt>
      <trkpt lat="41.487424" lon="-6.181793">
        <ele>781.624</ele>
        <time>2017-09-21T09:46:59Z</time>
      </trkpt>
      <trkpt lat="41.487343" lon="-6.182561">
        <ele>781.608</ele>
        <time>2017-09-21T09:47:17Z</time>
      </trkpt>
      <trkpt lat="41.487273" lon="-6.182970">
        <ele>780.777</ele>
        <time>2017-09-21T09:47:25Z</time>
      </trkpt>
      <trkpt lat="41.487269" lon="-6.183020">
        <ele>780.785</ele>
        <time>2017-09-21T09:47:26Z</time>
      </trkpt>
      <trkpt lat="41.487260" lon="-6.183069">
        <ele>780.735</ele>
        <time>2017-09-21T09:47:27Z</time>
      </trkpt>
      <trkpt lat="41.487151" lon="-6.183639">
        <ele>780.249</ele>
        <time>2017-09-21T09:47:39Z</time>
      </trkpt>
      <trkpt lat="41.487014" lon="-6.184258">
        <ele>779.717</ele>
        <time>2017-09-21T09:47:52Z</time>
      </trkpt>
      <trkpt lat="41.486855" lon="-6.185003">
        <ele>779.256</ele>
        <time>2017-09-21T09:48:08Z</time>
      </trkpt>
      <trkpt lat="41.486743" lon="-6.185394">
        <ele>778.876</ele>
        <time>2017-09-21T09:48:16Z</time>
      </trkpt>
      <trkpt lat="41.486733" lon="-6.185446">
        <ele>778.898</ele>
        <time>2017-09-21T09:48:17Z</time>
      </trkpt>
      <trkpt lat="41.486572" lon="-6.186311">
        <ele>775.957</ele>
        <time>2017-09-21T09:48:32Z</time>
      </trkpt>
      <trkpt lat="41.486515" lon="-6.187036">
        <ele>774.000</ele>
        <time>2017-09-21T09:48:45Z</time>
      </trkpt>
      <trkpt lat="41.486503" lon="-6.187041">
        <ele>773.520</ele>
        <time>2017-09-21T09:49:04Z</time>
      </trkpt>
      <trkpt lat="41.486498" lon="-6.187056">
        <ele>774.408</ele>
        <time>2017-09-21T09:49:30Z</time>
      </trkpt>
      <trkpt lat="41.486484" lon="-6.187008">
        <ele>774.426</ele>
        <time>2017-09-21T09:49:35Z</time>
      </trkpt>
      <trkpt lat="41.486517" lon="-6.186961">
        <ele>774.934</ele>
        <time>2017-09-21T09:49:39Z</time>
      </trkpt>
      <trkpt lat="41.486559" lon="-6.186968">
        <ele>774.444</ele>
        <time>2017-09-21T09:49:43Z</time>
      </trkpt>
      <trkpt lat="41.486570" lon="-6.187035">
        <ele>774.498</ele>
        <time>2017-09-21T09:49:58Z</time>
      </trkpt>
      <trkpt lat="41.486585" lon="-6.187037">
        <ele>777.826</ele>
        <time>2017-09-21T09:50:36Z</time>
      </trkpt>
      <trkpt lat="41.486584" lon="-6.187038">
        <ele>777.315</ele>
        <time>2017-09-21T09:51:18Z</time>
      </trkpt>
      <trkpt lat="41.486587" lon="-6.187041">
        <ele>775.945</ele>
        <time>2017-09-21T09:51:48Z</time>
      </trkpt>
      <trkpt lat="41.486580" lon="-6.187048">
        <ele>776.417</ele>
        <time>2017-09-21T09:52:14Z</time>
      </trkpt>
      <trkpt lat="41.486582" lon="-6.187152">
        <ele>775.947</ele>
        <time>2017-09-21T09:52:22Z</time>
      </trkpt>
      <trkpt lat="41.486573" lon="-6.187183">
        <ele>775.429</ele>
        <time>2017-09-21T09:52:23Z</time>
      </trkpt>
      <trkpt lat="41.486559" lon="-6.187220">
        <ele>774.921</ele>
        <time>2017-09-21T09:52:24Z</time>
      </trkpt>
      <trkpt lat="41.486417" lon="-6.187523">
        <ele>772.508</ele>
        <time>2017-09-21T09:52:32Z</time>
      </trkpt>
      <trkpt lat="41.486291" lon="-6.188175">
        <ele>769.185</ele>
        <time>2017-09-21T09:52:44Z</time>
      </trkpt>
      <trkpt lat="41.486275" lon="-6.188306">
        <ele>768.283</ele>
        <time>2017-09-21T09:52:46Z</time>
      </trkpt>
      <trkpt lat="41.486229" lon="-6.189366">
        <ele>766.753</ele>
        <time>2017-09-21T09:53:03Z</time>
      </trkpt>
      <trkpt lat="41.486204" lon="-6.190208">
        <ele>767.777</ele>
        <time>2017-09-21T09:53:20Z</time>
      </trkpt>
      <trkpt lat="41.486176" lon="-6.190838">
        <ele>768.265</ele>
        <time>2017-09-21T09:53:36Z</time>
      </trkpt>
      <trkpt lat="41.486111" lon="-6.191495">
        <ele>769.644</ele>
        <time>2017-09-21T09:53:55Z</time>
      </trkpt>
      <trkpt lat="41.486046" lon="-6.192049">
        <ele>772.054</ele>
        <time>2017-09-21T09:54:13Z</time>
      </trkpt>
      <trkpt lat="41.486006" lon="-6.192482">
        <ele>773.016</ele>
        <time>2017-09-21T09:54:29Z</time>
      </trkpt>
      <trkpt lat="41.486009" lon="-6.192969">
        <ele>774.068</ele>
        <time>2017-09-21T09:54:47Z</time>
      </trkpt>
      <trkpt lat="41.486016" lon="-6.193282">
        <ele>774.442</ele>
        <time>2017-09-21T09:54:59Z</time>
      </trkpt>
      <trkpt lat="41.486054" lon="-6.193633">
        <ele>775.926</ele>
        <time>2017-09-21T09:55:13Z</time>
      </trkpt>
      <trkpt lat="41.486080" lon="-6.193874">
        <ele>776.408</ele>
        <time>2017-09-21T09:55:23Z</time>
      </trkpt>
      <trkpt lat="41.486083" lon="-6.193899">
        <ele>776.887</ele>
        <time>2017-09-21T09:55:24Z</time>
      </trkpt>
      <trkpt lat="41.486085" lon="-6.193923">
        <ele>776.875</ele>
        <time>2017-09-21T09:55:25Z</time>
      </trkpt>
      <trkpt lat="41.486122" lon="-6.194318">
        <ele>778.395</ele>
        <time>2017-09-21T09:55:41Z</time>
      </trkpt>
      <trkpt lat="41.486119" lon="-6.194368">
        <ele>778.899</ele>
        <time>2017-09-21T09:55:43Z</time>
      </trkpt>
      <trkpt lat="41.486115" lon="-6.194395">
        <ele>779.227</ele>
        <time>2017-09-21T09:55:44Z</time>
      </trkpt>
      <trkpt lat="41.486118" lon="-6.194422">
        <ele>779.226</ele>
        <time>2017-09-21T09:55:45Z</time>
      </trkpt>
      <trkpt lat="41.486124" lon="-6.194448">
        <ele>779.246</ele>
        <time>2017-09-21T09:55:46Z</time>
      </trkpt>
      <trkpt lat="41.486125" lon="-6.194472">
        <ele>779.298</ele>
        <time>2017-09-21T09:55:47Z</time>
      </trkpt>
      <trkpt lat="41.486125" lon="-6.194498">
        <ele>779.261</ele>
        <time>2017-09-21T09:55:48Z</time>
      </trkpt>
      <trkpt lat="41.486126" lon="-6.194522">
        <ele>779.221</ele>
        <time>2017-09-21T09:55:49Z</time>
      </trkpt>
      <trkpt lat="41.486150" lon="-6.194879">
        <ele>780.213</ele>
        <time>2017-09-21T09:56:04Z</time>
      </trkpt>
      <trkpt lat="41.486185" lon="-6.195219">
        <ele>781.208</ele>
        <time>2017-09-21T09:56:20Z</time>
      </trkpt>
      <trkpt lat="41.486270" lon="-6.195535">
        <ele>782.187</ele>
        <time>2017-09-21T09:56:33Z</time>
      </trkpt>
      <trkpt lat="41.486351" lon="-6.195984">
        <ele>781.635</ele>
        <time>2017-09-21T09:56:49Z</time>
      </trkpt>
      <trkpt lat="41.486419" lon="-6.196389">
        <ele>782.645</ele>
        <time>2017-09-21T09:57:04Z</time>
      </trkpt>
      <trkpt lat="41.486483" lon="-6.196800">
        <ele>783.189</ele>
        <time>2017-09-21T09:57:19Z</time>
      </trkpt>
      <trkpt lat="41.486513" lon="-6.197160">
        <ele>783.127</ele>
        <time>2017-09-21T09:57:31Z</time>
      </trkpt>
      <trkpt lat="41.486616" lon="-6.197748">
        <ele>781.246</ele>
        <time>2017-09-21T09:57:46Z</time>
      </trkpt>
      <trkpt lat="41.486772" lon="-6.198391">
        <ele>780.236</ele>
        <time>2017-09-21T09:58:02Z</time>
      </trkpt>
      <trkpt lat="41.486873" lon="-6.198984">
        <ele>779.218</ele>
        <time>2017-09-21T09:58:17Z</time>
      </trkpt>
      <trkpt lat="41.487034" lon="-6.199868">
        <ele>777.811</ele>
        <time>2017-09-21T09:58:34Z</time>
      </trkpt>
      <trkpt lat="41.487154" lon="-6.200863">
        <ele>775.921</ele>
        <time>2017-09-21T09:58:50Z</time>
      </trkpt>
      <trkpt lat="41.487328" lon="-6.201965">
        <ele>772.503</ele>
        <time>2017-09-21T09:59:06Z</time>
      </trkpt>
      <trkpt lat="41.487758" lon="-6.202849">
        <ele>770.608</ele>
        <time>2017-09-21T09:59:22Z</time>
      </trkpt>
      <trkpt lat="41.487901" lon="-6.203152">
        <ele>770.112</ele>
        <time>2017-09-21T09:59:28Z</time>
      </trkpt>
      <trkpt lat="41.487965" lon="-6.203290">
        <ele>770.150</ele>
        <time>2017-09-21T09:59:31Z</time>
      </trkpt>
      <trkpt lat="41.488019" lon="-6.203375">
        <ele>769.680</ele>
        <time>2017-09-21T09:59:33Z</time>
      </trkpt>
      <trkpt lat="41.488039" lon="-6.203419">
        <ele>769.654</ele>
        <time>2017-09-21T09:59:34Z</time>
      </trkpt>
      <trkpt lat="41.488124" lon="-6.203611">
        <ele>769.182</ele>
        <time>2017-09-21T09:59:38Z</time>
      </trkpt>
      <trkpt lat="41.488148" lon="-6.203653">
        <ele>769.161</ele>
        <time>2017-09-21T09:59:39Z</time>
      </trkpt>
      <trkpt lat="41.488409" lon="-6.204370">
        <ele>768.751</ele>
        <time>2017-09-21T09:59:55Z</time>
      </trkpt>
      <trkpt lat="41.488441" lon="-6.205191">
        <ele>767.773</ele>
        <time>2017-09-21T10:00:11Z</time>
      </trkpt>
      <trkpt lat="41.488548" lon="-6.205836">
        <ele>768.732</ele>
        <time>2017-09-21T10:00:27Z</time>
      </trkpt>
      <trkpt lat="41.488673" lon="-6.206431">
        <ele>766.792</ele>
        <time>2017-09-21T10:00:41Z</time>
      </trkpt>
      <trkpt lat="41.488963" lon="-6.207352">
        <ele>762.411</ele>
        <time>2017-09-21T10:00:55Z</time>
      </trkpt>
      <trkpt lat="41.489358" lon="-6.208463">
        <ele>761.008</ele>
        <time>2017-09-21T10:01:12Z</time>
      </trkpt>
      <trkpt lat="41.489529" lon="-6.209111">
        <ele>759.514</ele>
        <time>2017-09-21T10:01:22Z</time>
      </trkpt>
      <trkpt lat="41.489721" lon="-6.210230">
        <ele>757.172</ele>
        <time>2017-09-21T10:01:37Z</time>
      </trkpt>
      <trkpt lat="41.489925" lon="-6.211485">
        <ele>755.792</ele>
        <time>2017-09-21T10:01:55Z</time>
      </trkpt>
      <trkpt lat="41.490029" lon="-6.211927">
        <ele>753.856</ele>
        <time>2017-09-21T10:02:02Z</time>
      </trkpt>
      <trkpt lat="41.490636" lon="-6.212974">
        <ele>749.974</ele>
        <time>2017-09-21T10:02:19Z</time>
      </trkpt>
      <trkpt lat="41.491334" lon="-6.214126">
        <ele>745.643</ele>
        <time>2017-09-21T10:02:38Z</time>
      </trkpt>
      <trkpt lat="41.491740" lon="-6.214983">
        <ele>745.193</ele>
        <time>2017-09-21T10:02:54Z</time>
      </trkpt>
      <trkpt lat="41.492016" lon="-6.216056">
        <ele>744.265</ele>
        <time>2017-09-21T10:03:12Z</time>
      </trkpt>
      <trkpt lat="41.492032" lon="-6.216106">
        <ele>744.281</ele>
        <time>2017-09-21T10:03:13Z</time>
      </trkpt>
      <trkpt lat="41.492054" lon="-6.216160">
        <ele>744.261</ele>
        <time>2017-09-21T10:03:14Z</time>
      </trkpt>
      <trkpt lat="41.492271" lon="-6.216959">
        <ele>745.617</ele>
        <time>2017-09-21T10:03:31Z</time>
      </trkpt>
      <trkpt lat="41.492330" lon="-6.217514">
        <ele>744.208</ele>
        <time>2017-09-21T10:03:42Z</time>
      </trkpt>
      <trkpt lat="41.492479" lon="-6.217918">
        <ele>743.239</ele>
        <time>2017-09-21T10:03:49Z</time>
      </trkpt>
      <trkpt lat="41.492509" lon="-6.217969">
        <ele>742.787</ele>
        <time>2017-09-21T10:03:50Z</time>
      </trkpt>
      <trkpt lat="41.492536" lon="-6.218017">
        <ele>742.797</ele>
        <time>2017-09-21T10:03:51Z</time>
      </trkpt>
      <trkpt lat="41.492888" lon="-6.218539">
        <ele>741.341</ele>
        <time>2017-09-21T10:04:03Z</time>
      </trkpt>
      <trkpt lat="41.492909" lon="-6.218586">
        <ele>741.329</ele>
        <time>2017-09-21T10:04:04Z</time>
      </trkpt>
      <trkpt lat="41.492928" lon="-6.218636">
        <ele>740.888</ele>
        <time>2017-09-21T10:04:05Z</time>
      </trkpt>
      <trkpt lat="41.492944" lon="-6.218690">
        <ele>740.848</ele>
        <time>2017-09-21T10:04:06Z</time>
      </trkpt>
      <trkpt lat="41.492957" lon="-6.218745">
        <ele>740.810</ele>
        <time>2017-09-21T10:04:07Z</time>
      </trkpt>
      <trkpt lat="41.492975" lon="-6.218865">
        <ele>740.383</ele>
        <time>2017-09-21T10:04:09Z</time>
      </trkpt>
      <trkpt lat="41.492978" lon="-6.218934">
        <ele>740.325</ele>
        <time>2017-09-21T10:04:10Z</time>
      </trkpt>
      <trkpt lat="41.492978" lon="-6.219004">
        <ele>739.817</ele>
        <time>2017-09-21T10:04:11Z</time>
      </trkpt>
      <trkpt lat="41.492978" lon="-6.219076">
        <ele>739.308</ele>
        <time>2017-09-21T10:04:12Z</time>
      </trkpt>
      <trkpt lat="41.492981" lon="-6.219155">
        <ele>738.979</ele>
        <time>2017-09-21T10:04:13Z</time>
      </trkpt>
      <trkpt lat="41.493098" lon="-6.220228">
        <ele>736.997</ele>
        <time>2017-09-21T10:04:26Z</time>
      </trkpt>
      <trkpt lat="41.493225" lon="-6.220877">
        <ele>738.937</ele>
        <time>2017-09-21T10:04:39Z</time>
      </trkpt>
      <trkpt lat="41.493445" lon="-6.221462">
        <ele>740.371</ele>
        <time>2017-09-21T10:04:54Z</time>
      </trkpt>
      <trkpt lat="41.493673" lon="-6.221935">
        <ele>742.299</ele>
        <time>2017-09-21T10:05:12Z</time>
      </trkpt>
      <trkpt lat="41.493870" lon="-6.222391">
        <ele>742.758</ele>
        <time>2017-09-21T10:05:30Z</time>
      </trkpt>
      <trkpt lat="41.494059" lon="-6.222897">
        <ele>741.728</ele>
        <time>2017-09-21T10:05:45Z</time>
      </trkpt>
      <trkpt lat="41.494356" lon="-6.223658">
        <ele>739.830</ele>
        <time>2017-09-21T10:06:00Z</time>
      </trkpt>
      <trkpt lat="41.494727" lon="-6.224537">
        <ele>738.464</ele>
        <time>2017-09-21T10:06:17Z</time>
      </trkpt>
      <trkpt lat="41.494884" lon="-6.224889">
        <ele>738.906</ele>
        <time>2017-09-21T10:06:24Z</time>
      </trkpt>
      <trkpt lat="41.494909" lon="-6.224933">
        <ele>738.916</ele>
        <time>2017-09-21T10:06:25Z</time>
      </trkpt>
      <trkpt lat="41.494931" lon="-6.224977">
        <ele>738.908</ele>
        <time>2017-09-21T10:06:26Z</time>
      </trkpt>
      <trkpt lat="41.495045" lon="-6.225274">
        <ele>738.477</ele>
        <time>2017-09-21T10:06:32Z</time>
      </trkpt>
      <trkpt lat="41.495087" lon="-6.225445">
        <ele>737.925</ele>
        <time>2017-09-21T10:06:35Z</time>
      </trkpt>
      <trkpt lat="41.495287" lon="-6.226259">
        <ele>735.535</ele>
        <time>2017-09-21T10:06:48Z</time>
      </trkpt>
      <trkpt lat="41.495658" lon="-6.226849">
        <ele>735.069</ele>
        <time>2017-09-21T10:07:00Z</time>
      </trkpt>
      <trkpt lat="41.495986" lon="-6.227251">
        <ele>735.017</ele>
        <time>2017-09-21T10:07:10Z</time>
      </trkpt>
      <trkpt lat="41.496416" lon="-6.227970">
        <ele>734.576</ele>
        <time>2017-09-21T10:07:26Z</time>
      </trkpt>
      <trkpt lat="41.496663" lon="-6.228591">
        <ele>735.556</ele>
        <time>2017-09-21T10:07:41Z</time>
      </trkpt>
      <trkpt lat="41.496837" lon="-6.229291">
        <ele>732.678</ele>
        <time>2017-09-21T10:07:57Z</time>
      </trkpt>
      <trkpt lat="41.496576" lon="-6.229723">
        <ele>733.622</ele>
        <time>2017-09-21T10:08:09Z</time>
      </trkpt>
      <trkpt lat="41.496441" lon="-6.229989">
        <ele>733.162</ele>
        <time>2017-09-21T10:08:15Z</time>
      </trkpt>
      <trkpt lat="41.496408" lon="-6.230028">
        <ele>733.108</ele>
        <time>2017-09-21T10:08:16Z</time>
      </trkpt>
      <trkpt lat="41.496025" lon="-6.230508">
        <ele>734.508</ele>
        <time>2017-09-21T10:08:31Z</time>
      </trkpt>
      <trkpt lat="41.495673" lon="-6.230938">
        <ele>733.183</ele>
        <time>2017-09-21T10:08:45Z</time>
      </trkpt>
      <trkpt lat="41.495286" lon="-6.231482">
        <ele>731.791</ele>
        <time>2017-09-21T10:08:59Z</time>
      </trkpt>
      <trkpt lat="41.495174" lon="-6.231658">
        <ele>731.211</ele>
        <time>2017-09-21T10:09:03Z</time>
      </trkpt>
      <trkpt lat="41.495090" lon="-6.231780">
        <ele>731.235</ele>
        <time>2017-09-21T10:09:06Z</time>
      </trkpt>
      <trkpt lat="41.495062" lon="-6.231824">
        <ele>730.763</ele>
        <time>2017-09-21T10:09:07Z</time>
      </trkpt>
      <trkpt lat="41.494902" lon="-6.232269">
        <ele>729.782</ele>
        <time>2017-09-21T10:09:19Z</time>
      </trkpt>
      <trkpt lat="41.495020" lon="-6.233059">
        <ele>727.872</ele>
        <time>2017-09-21T10:09:34Z</time>
      </trkpt>
      <trkpt lat="41.495085" lon="-6.233935">
        <ele>726.814</ele>
        <time>2017-09-21T10:09:49Z</time>
      </trkpt>
      <trkpt lat="41.495201" lon="-6.235062">
        <ele>724.981</ele>
        <time>2017-09-21T10:10:08Z</time>
      </trkpt>
      <trkpt lat="41.495215" lon="-6.235229">
        <ele>724.961</ele>
        <time>2017-09-21T10:10:12Z</time>
      </trkpt>
      <trkpt lat="41.495215" lon="-6.235232">
        <ele>724.917</ele>
        <time>2017-09-21T10:10:23Z</time>
      </trkpt>
      <trkpt lat="41.495232" lon="-6.235291">
        <ele>724.908</ele>
        <time>2017-09-21T10:10:37Z</time>
      </trkpt>
      <trkpt lat="41.495235" lon="-6.235307">
        <ele>724.979</ele>
        <time>2017-09-21T10:10:38Z</time>
      </trkpt>
      <trkpt lat="41.495257" lon="-6.235641">
        <ele>725.437</ele>
        <time>2017-09-21T10:10:50Z</time>
      </trkpt>
      <trkpt lat="41.495324" lon="-6.236225">
        <ele>726.817</ele>
        <time>2017-09-21T10:11:06Z</time>
      </trkpt>
      <trkpt lat="41.495275" lon="-6.236630">
        <ele>728.321</ele>
        <time>2017-09-21T10:11:21Z</time>
      </trkpt>
      <trkpt lat="41.495271" lon="-6.237181">
        <ele>728.869</ele>
        <time>2017-09-21T10:11:41Z</time>
      </trkpt>
      <trkpt lat="41.495317" lon="-6.237480">
        <ele>730.298</ele>
        <time>2017-09-21T10:11:53Z</time>
      </trkpt>
      <trkpt lat="41.495315" lon="-6.237506">
        <ele>730.278</ele>
        <time>2017-09-21T10:11:54Z</time>
      </trkpt>
      <trkpt lat="41.495313" lon="-6.237532">
        <ele>730.270</ele>
        <time>2017-09-21T10:11:55Z</time>
      </trkpt>
      <trkpt lat="41.495201" lon="-6.238050">
        <ele>730.254</ele>
        <time>2017-09-21T10:12:08Z</time>
      </trkpt>
      <trkpt lat="41.495107" lon="-6.238610">
        <ele>730.756</ele>
        <time>2017-09-21T10:12:25Z</time>
      </trkpt>
      <trkpt lat="41.494970" lon="-6.239087">
        <ele>731.211</ele>
        <time>2017-09-21T10:12:40Z</time>
      </trkpt>
      <trkpt lat="41.494832" lon="-6.239555">
        <ele>729.708</ele>
        <time>2017-09-21T10:12:50Z</time>
      </trkpt>
      <trkpt lat="41.494746" lon="-6.240383">
        <ele>728.316</ele>
        <time>2017-09-21T10:13:07Z</time>
      </trkpt>
      <trkpt lat="41.494777" lon="-6.240693">
        <ele>729.794</ele>
        <time>2017-09-21T10:13:16Z</time>
      </trkpt>
      <trkpt lat="41.494790" lon="-6.240723">
        <ele>729.754</ele>
        <time>2017-09-21T10:13:17Z</time>
      </trkpt>
      <trkpt lat="41.494803" lon="-6.240751">
        <ele>730.228</ele>
        <time>2017-09-21T10:13:18Z</time>
      </trkpt>
      <trkpt lat="41.494809" lon="-6.240780">
        <ele>730.226</ele>
        <time>2017-09-21T10:13:19Z</time>
      </trkpt>
      <trkpt lat="41.494813" lon="-6.240809">
        <ele>730.755</ele>
        <time>2017-09-21T10:13:20Z</time>
      </trkpt>
      <trkpt lat="41.494816" lon="-6.240840">
        <ele>730.735</ele>
        <time>2017-09-21T10:13:21Z</time>
      </trkpt>
      <trkpt lat="41.494820" lon="-6.240870">
        <ele>730.767</ele>
        <time>2017-09-21T10:13:22Z</time>
      </trkpt>
      <trkpt lat="41.494819" lon="-6.240901">
        <ele>730.718</ele>
        <time>2017-09-21T10:13:23Z</time>
      </trkpt>
      <trkpt lat="41.494816" lon="-6.240931">
        <ele>730.798</ele>
        <time>2017-09-21T10:13:24Z</time>
      </trkpt>
      <trkpt lat="41.494814" lon="-6.240964">
        <ele>730.717</ele>
        <time>2017-09-21T10:13:25Z</time>
      </trkpt>
      <trkpt lat="41.494813" lon="-6.240995">
        <ele>731.208</ele>
        <time>2017-09-21T10:13:26Z</time>
      </trkpt>
      <trkpt lat="41.494814" lon="-6.241025">
        <ele>731.252</ele>
        <time>2017-09-21T10:13:27Z</time>
      </trkpt>
      <trkpt lat="41.494814" lon="-6.241132">
        <ele>731.710</ele>
        <time>2017-09-21T10:13:31Z</time>
      </trkpt>
      <trkpt lat="41.494822" lon="-6.241168">
        <ele>731.720</ele>
        <time>2017-09-21T10:13:39Z</time>
      </trkpt>
      <trkpt lat="41.494818" lon="-6.241179">
        <ele>731.244</ele>
        <time>2017-09-21T10:14:00Z</time>
      </trkpt>
      <trkpt lat="41.494819" lon="-6.241176">
        <ele>731.222</ele>
        <time>2017-09-21T10:14:23Z</time>
      </trkpt>
      <trkpt lat="41.494816" lon="-6.241182">
        <ele>731.781</ele>
        <time>2017-09-21T10:14:24Z</time>
      </trkpt>
      <trkpt lat="41.494813" lon="-6.241197">
        <ele>731.781</ele>
        <time>2017-09-21T10:14:25Z</time>
      </trkpt>
      <trkpt lat="41.494723" lon="-6.241694">
        <ele>731.263</ele>
        <time>2017-09-21T10:14:38Z</time>
      </trkpt>
      <trkpt lat="41.494639" lon="-6.242262">
        <ele>732.196</ele>
        <time>2017-09-21T10:14:54Z</time>
      </trkpt>
      <trkpt lat="41.494550" lon="-6.242695">
        <ele>732.631</ele>
        <time>2017-09-21T10:15:06Z</time>
      </trkpt>
      <trkpt lat="41.494705" lon="-6.243193">
        <ele>731.224</ele>
        <time>2017-09-21T10:15:20Z</time>
      </trkpt>
      <trkpt lat="41.494864" lon="-6.243574">
        <ele>731.208</ele>
        <time>2017-09-21T10:15:32Z</time>
      </trkpt>
      <trkpt lat="41.494921" lon="-6.243637">
        <ele>731.710</ele>
        <time>2017-09-21T10:15:36Z</time>
      </trkpt>
      <trkpt lat="41.494939" lon="-6.243636">
        <ele>731.758</ele>
        <time>2017-09-21T10:15:37Z</time>
      </trkpt>
      <trkpt lat="41.494958" lon="-6.243631">
        <ele>731.728</ele>
        <time>2017-09-21T10:15:38Z</time>
      </trkpt>
      <trkpt lat="41.494975" lon="-6.243626">
        <ele>731.762</ele>
        <time>2017-09-21T10:15:39Z</time>
      </trkpt>
      <trkpt lat="41.494991" lon="-6.243621">
        <ele>731.710</ele>
        <time>2017-09-21T10:15:40Z</time>
      </trkpt>
      <trkpt lat="41.495007" lon="-6.243622">
        <ele>732.169</ele>
        <time>2017-09-21T10:15:41Z</time>
      </trkpt>
      <trkpt lat="41.495026" lon="-6.243630">
        <ele>732.129</ele>
        <time>2017-09-21T10:15:42Z</time>
      </trkpt>
      <trkpt lat="41.495042" lon="-6.243640">
        <ele>732.151</ele>
        <time>2017-09-21T10:15:43Z</time>
      </trkpt>
      <trkpt lat="41.495062" lon="-6.243657">
        <ele>732.193</ele>
        <time>2017-09-21T10:15:44Z</time>
      </trkpt>
      <trkpt lat="41.495073" lon="-6.243674">
        <ele>732.165</ele>
        <time>2017-09-21T10:15:45Z</time>
      </trkpt>
      <trkpt lat="41.495080" lon="-6.243702">
        <ele>731.721</ele>
        <time>2017-09-21T10:15:46Z</time>
      </trkpt>
      <trkpt lat="41.495081" lon="-6.243734">
        <ele>731.708</ele>
        <time>2017-09-21T10:15:47Z</time>
      </trkpt>
      <trkpt lat="41.495075" lon="-6.243765">
        <ele>731.260</ele>
        <time>2017-09-21T10:15:48Z</time>
      </trkpt>
      <trkpt lat="41.495065" lon="-6.243801">
        <ele>731.298</ele>
        <time>2017-09-21T10:15:49Z</time>
      </trkpt>
      <trkpt lat="41.495088" lon="-6.244104">
        <ele>728.888</ele>
        <time>2017-09-21T10:15:59Z</time>
      </trkpt>
      <trkpt lat="41.495090" lon="-6.244138">
        <ele>728.852</ele>
        <time>2017-09-21T10:16:00Z</time>
      </trkpt>
      <trkpt lat="41.495061" lon="-6.244476">
        <ele>726.850</ele>
        <time>2017-09-21T10:16:10Z</time>
      </trkpt>
      <trkpt lat="41.495057" lon="-6.244532">
        <ele>726.829</ele>
        <time>2017-09-21T10:16:11Z</time>
      </trkpt>
      <trkpt lat="41.495064" lon="-6.244646">
        <ele>726.849</ele>
        <time>2017-09-21T10:16:13Z</time>
      </trkpt>
      <trkpt lat="41.494998" lon="-6.245262">
        <ele>725.911</ele>
        <time>2017-09-21T10:16:26Z</time>
      </trkpt>
      <trkpt lat="41.494783" lon="-6.245783">
        <ele>726.881</ele>
        <time>2017-09-21T10:16:39Z</time>
      </trkpt>
      <trkpt lat="41.494778" lon="-6.245811">
        <ele>727.361</ele>
        <time>2017-09-21T10:16:40Z</time>
      </trkpt>
      <trkpt lat="41.494769" lon="-6.245836">
        <ele>727.817</ele>
        <time>2017-09-21T10:16:41Z</time>
      </trkpt>
      <trkpt lat="41.494780" lon="-6.246160">
        <ele>728.308</ele>
        <time>2017-09-21T10:16:52Z</time>
      </trkpt>
      <trkpt lat="41.494939" lon="-6.246804">
        <ele>729.319</ele>
        <time>2017-09-21T10:17:09Z</time>
      </trkpt>
      <trkpt lat="41.495190" lon="-6.247003">
        <ele>730.277</ele>
        <time>2017-09-21T10:17:22Z</time>
      </trkpt>
      <trkpt lat="41.495245" lon="-6.247074">
        <ele>730.797</ele>
        <time>2017-09-21T10:17:27Z</time>
      </trkpt>
      <trkpt lat="41.495255" lon="-6.247090">
        <ele>730.751</ele>
        <time>2017-09-21T10:17:28Z</time>
      </trkpt>
      <trkpt lat="41.495262" lon="-6.247108">
        <ele>730.779</ele>
        <time>2017-09-21T10:17:29Z</time>
      </trkpt>
      <trkpt lat="41.495265" lon="-6.247133">
        <ele>730.788</ele>
        <time>2017-09-21T10:17:30Z</time>
      </trkpt>
      <trkpt lat="41.495266" lon="-6.247162">
        <ele>730.758</ele>
        <time>2017-09-21T10:17:31Z</time>
      </trkpt>
      <trkpt lat="41.495264" lon="-6.247192">
        <ele>730.760</ele>
        <time>2017-09-21T10:17:32Z</time>
      </trkpt>
      <trkpt lat="41.495259" lon="-6.247219">
        <ele>730.768</ele>
        <time>2017-09-21T10:17:33Z</time>
      </trkpt>
      <trkpt lat="41.495253" lon="-6.247245">
        <ele>731.242</ele>
        <time>2017-09-21T10:17:34Z</time>
      </trkpt>
      <trkpt lat="41.495247" lon="-6.247267">
        <ele>731.226</ele>
        <time>2017-09-21T10:17:35Z</time>
      </trkpt>
      <trkpt lat="41.495224" lon="-6.247560">
        <ele>731.708</ele>
        <time>2017-09-21T10:17:47Z</time>
      </trkpt>
      <trkpt lat="41.495166" lon="-6.247989">
        <ele>729.327</ele>
        <time>2017-09-21T10:18:00Z</time>
      </trkpt>
      <trkpt lat="41.494996" lon="-6.248535">
        <ele>727.375</ele>
        <time>2017-09-21T10:18:15Z</time>
      </trkpt>
      <trkpt lat="41.494699" lon="-6.249148">
        <ele>725.425</ele>
        <time>2017-09-21T10:18:30Z</time>
      </trkpt>
      <trkpt lat="41.494753" lon="-6.249490">
        <ele>724.979</ele>
        <time>2017-09-21T10:18:40Z</time>
      </trkpt>
      <trkpt lat="41.494839" lon="-6.249612">
        <ele>724.447</ele>
        <time>2017-09-21T10:18:47Z</time>
      </trkpt>
      <trkpt lat="41.494958" lon="-6.249704">
        <ele>723.536</ele>
        <time>2017-09-21T10:18:56Z</time>
      </trkpt>
      <trkpt lat="41.494963" lon="-6.249727">
        <ele>723.526</ele>
        <time>2017-09-21T10:18:57Z</time>
      </trkpt>
      <trkpt lat="41.494965" lon="-6.249748">
        <ele>723.028</ele>
        <time>2017-09-21T10:18:58Z</time>
      </trkpt>
      <trkpt lat="41.494963" lon="-6.249766">
        <ele>723.058</ele>
        <time>2017-09-21T10:18:59Z</time>
      </trkpt>
      <trkpt lat="41.494955" lon="-6.249796">
        <ele>723.052</ele>
        <time>2017-09-21T10:19:09Z</time>
      </trkpt>
      <trkpt lat="41.494946" lon="-6.249817">
        <ele>723.017</ele>
        <time>2017-09-21T10:19:11Z</time>
      </trkpt>
      <trkpt lat="41.494940" lon="-6.249830">
        <ele>722.508</ele>
        <time>2017-09-21T10:19:12Z</time>
      </trkpt>
      <trkpt lat="41.494891" lon="-6.249976">
        <ele>722.096</ele>
        <time>2017-09-21T10:19:24Z</time>
      </trkpt>
      <trkpt lat="41.494896" lon="-6.249963">
        <ele>722.054</ele>
        <time>2017-09-21T10:19:44Z</time>
      </trkpt>
      <trkpt lat="41.494893" lon="-6.249962">
        <ele>722.534</ele>
        <time>2017-09-21T10:20:22Z</time>
      </trkpt>
      <trkpt lat="41.494891" lon="-6.249962">
        <ele>721.138</ele>
        <time>2017-09-21T10:20:56Z</time>
      </trkpt>
      <trkpt lat="41.494889" lon="-6.249969">
        <ele>722.076</ele>
        <time>2017-09-21T10:21:15Z</time>
      </trkpt>
      <trkpt lat="41.494891" lon="-6.249968">
        <ele>721.625</ele>
        <time>2017-09-21T10:21:34Z</time>
      </trkpt>
      <trkpt lat="41.494896" lon="-6.249966">
        <ele>721.615</ele>
        <time>2017-09-21T10:21:56Z</time>
      </trkpt>
      <trkpt lat="41.494907" lon="-6.249969">
        <ele>722.087</ele>
        <time>2017-09-21T10:22:21Z</time>
      </trkpt>
      <trkpt lat="41.494893" lon="-6.249977">
        <ele>721.152</ele>
        <time>2017-09-21T10:22:43Z</time>
      </trkpt>
      <trkpt lat="41.494897" lon="-6.249977">
        <ele>721.153</ele>
        <time>2017-09-21T10:23:08Z</time>
      </trkpt>
      <trkpt lat="41.494897" lon="-6.249978">
        <ele>721.108</ele>
        <time>2017-09-21T10:23:45Z</time>
      </trkpt>
      <trkpt lat="41.494903" lon="-6.249973">
        <ele>721.608</ele>
        <time>2017-09-21T10:24:16Z</time>
      </trkpt>
      <trkpt lat="41.494904" lon="-6.249977">
        <ele>721.666</ele>
        <time>2017-09-21T10:24:51Z</time>
      </trkpt>
      <trkpt lat="41.494899" lon="-6.249978">
        <ele>721.684</ele>
        <time>2017-09-21T10:25:35Z</time>
      </trkpt>
      <trkpt lat="41.494901" lon="-6.249978">
        <ele>723.094</ele>
        <time>2017-09-21T10:26:14Z</time>
      </trkpt>
      <trkpt lat="41.494897" lon="-6.249974">
        <ele>723.098</ele>
        <time>2017-09-21T10:26:42Z</time>
      </trkpt>
      <trkpt lat="41.494901" lon="-6.249975">
        <ele>723.596</ele>
        <time>2017-09-21T10:27:15Z</time>
      </trkpt>
      <trkpt lat="41.494903" lon="-6.249975">
        <ele>724.095</ele>
        <time>2017-09-21T10:27:54Z</time>
      </trkpt>
      <trkpt lat="41.494909" lon="-6.249971">
        <ele>724.015</ele>
        <time>2017-09-21T10:28:36Z</time>
      </trkpt>
      <trkpt lat="41.494909" lon="-6.249979">
        <ele>723.057</ele>
        <time>2017-09-21T10:29:10Z</time>
      </trkpt>
      <trkpt lat="41.494908" lon="-6.249975">
        <ele>723.082</ele>
        <time>2017-09-21T10:29:48Z</time>
      </trkpt>
      <trkpt lat="41.494914" lon="-6.249978">
        <ele>723.543</ele>
        <time>2017-09-21T10:30:20Z</time>
      </trkpt>
      <trkpt lat="41.494909" lon="-6.249979">
        <ele>723.517</ele>
        <time>2017-09-21T10:30:54Z</time>
      </trkpt>
      <trkpt lat="41.494911" lon="-6.249972">
        <ele>723.508</ele>
        <time>2017-09-21T10:31:43Z</time>
      </trkpt>
      <trkpt lat="41.494905" lon="-6.249976">
        <ele>723.589</ele>
        <time>2017-09-21T10:32:22Z</time>
      </trkpt>
      <trkpt lat="41.494907" lon="-6.249986">
        <ele>723.527</ele>
        <time>2017-09-21T10:33:14Z</time>
      </trkpt>
      <trkpt lat="41.494906" lon="-6.249978">
        <ele>723.527</ele>
        <time>2017-09-21T10:33:52Z</time>
      </trkpt>
      <trkpt lat="41.494907" lon="-6.249977">
        <ele>724.011</ele>
        <time>2017-09-21T10:34:32Z</time>
      </trkpt>
      <trkpt lat="41.494914" lon="-6.249981">
        <ele>723.559</ele>
        <time>2017-09-21T10:35:10Z</time>
      </trkpt>
      <trkpt lat="41.494907" lon="-6.249976">
        <ele>722.018</ele>
        <time>2017-09-21T10:35:55Z</time>
      </trkpt>
      <trkpt lat="41.494901" lon="-6.249975">
        <ele>723.088</ele>
        <time>2017-09-21T10:36:32Z</time>
      </trkpt>
      <trkpt lat="41.494911" lon="-6.249968">
        <ele>720.620</ele>
        <time>2017-09-21T10:37:16Z</time>
      </trkpt>
      <trkpt lat="41.494898" lon="-6.249982">
        <ele>722.045</ele>
        <time>2017-09-21T10:38:04Z</time>
      </trkpt>
      <trkpt lat="41.494895" lon="-6.249974">
        <ele>722.047</ele>
        <time>2017-09-21T10:38:41Z</time>
      </trkpt>
      <trkpt lat="41.494895" lon="-6.249978">
        <ele>722.511</ele>
        <time>2017-09-21T10:39:18Z</time>
      </trkpt>
      <trkpt lat="41.494908" lon="-6.249969">
        <ele>721.108</ele>
        <time>2017-09-21T10:40:00Z</time>
      </trkpt>
      <trkpt lat="41.494895" lon="-6.249977">
        <ele>723.085</ele>
        <time>2017-09-21T10:40:37Z</time>
      </trkpt>
      <trkpt lat="41.494903" lon="-6.249971">
        <ele>721.683</ele>
        <time>2017-09-21T10:41:10Z</time>
      </trkpt>
      <trkpt lat="41.494905" lon="-6.249972">
        <ele>722.563</ele>
        <time>2017-09-21T10:41:37Z</time>
      </trkpt>
      <trkpt lat="41.494870" lon="-6.249968">
        <ele>722.537</ele>
        <time>2017-09-21T10:41:48Z</time>
      </trkpt>
      <trkpt lat="41.494857" lon="-6.249978">
        <ele>722.055</ele>
        <time>2017-09-21T10:41:50Z</time>
      </trkpt>
      <trkpt lat="41.494750" lon="-6.250098">
        <ele>720.664</ele>
        <time>2017-09-21T10:42:01Z</time>
      </trkpt>
      <trkpt lat="41.494730" lon="-6.250103">
        <ele>721.114</ele>
        <time>2017-09-21T10:42:07Z</time>
      </trkpt>
      <trkpt lat="41.494717" lon="-6.250109">
        <ele>721.186</ele>
        <time>2017-09-21T10:42:08Z</time>
      </trkpt>
      <trkpt lat="41.494701" lon="-6.250119">
        <ele>721.176</ele>
        <time>2017-09-21T10:42:09Z</time>
      </trkpt>
      <trkpt lat="41.494686" lon="-6.250125">
        <ele>721.690</ele>
        <time>2017-09-21T10:42:10Z</time>
      </trkpt>
      <trkpt lat="41.494668" lon="-6.250128">
        <ele>721.119</ele>
        <time>2017-09-21T10:42:11Z</time>
      </trkpt>
      <trkpt lat="41.494649" lon="-6.250131">
        <ele>720.608</ele>
        <time>2017-09-21T10:42:12Z</time>
      </trkpt>
      <trkpt lat="41.494402" lon="-6.250182">
        <ele>719.628</ele>
        <time>2017-09-21T10:42:23Z</time>
      </trkpt>
      <trkpt lat="41.494155" lon="-6.250565">
        <ele>720.676</ele>
        <time>2017-09-21T10:42:36Z</time>
      </trkpt>
      <trkpt lat="41.493942" lon="-6.250855">
        <ele>718.726</ele>
        <time>2017-09-21T10:42:48Z</time>
      </trkpt>
      <trkpt lat="41.493865" lon="-6.251116">
        <ele>717.230</ele>
        <time>2017-09-21T10:42:59Z</time>
      </trkpt>
      <trkpt lat="41.493749" lon="-6.251412">
        <ele>714.488</ele>
        <time>2017-09-21T10:43:13Z</time>
      </trkpt>
      <trkpt lat="41.493630" lon="-6.251694">
        <ele>712.427</ele>
        <time>2017-09-21T10:43:24Z</time>
      </trkpt>
      <trkpt lat="41.493473" lon="-6.251879">
        <ele>710.027</ele>
        <time>2017-09-21T10:43:35Z</time>
      </trkpt>
      <trkpt lat="41.493471" lon="-6.251896">
        <ele>710.099</ele>
        <time>2017-09-21T10:43:36Z</time>
      </trkpt>
      <trkpt lat="41.493475" lon="-6.251910">
        <ele>710.038</ele>
        <time>2017-09-21T10:43:37Z</time>
      </trkpt>
      <trkpt lat="41.493480" lon="-6.251925">
        <ele>709.570</ele>
        <time>2017-09-21T10:43:38Z</time>
      </trkpt>
      <trkpt lat="41.493486" lon="-6.251943">
        <ele>709.117</ele>
        <time>2017-09-21T10:43:39Z</time>
      </trkpt>
      <trkpt lat="41.493493" lon="-6.251967">
        <ele>708.608</ele>
        <time>2017-09-21T10:43:40Z</time>
      </trkpt>
      <trkpt lat="41.493499" lon="-6.251994">
        <ele>708.664</ele>
        <time>2017-09-21T10:43:41Z</time>
      </trkpt>
      <trkpt lat="41.493497" lon="-6.252020">
        <ele>708.682</ele>
        <time>2017-09-21T10:43:42Z</time>
      </trkpt>
      <trkpt lat="41.493489" lon="-6.252045">
        <ele>708.172</ele>
        <time>2017-09-21T10:43:43Z</time>
      </trkpt>
      <trkpt lat="41.493342" lon="-6.252266">
        <ele>707.696</ele>
        <time>2017-09-21T10:43:54Z</time>
      </trkpt>
      <trkpt lat="41.493312" lon="-6.252316">
        <ele>707.174</ele>
        <time>2017-09-21T10:43:58Z</time>
      </trkpt>
      <trkpt lat="41.493305" lon="-6.252366">
        <ele>707.163</ele>
        <time>2017-09-21T10:44:00Z</time>
      </trkpt>
      <trkpt lat="41.493308" lon="-6.252390">
        <ele>706.743</ele>
        <time>2017-09-21T10:44:01Z</time>
      </trkpt>
      <trkpt lat="41.493314" lon="-6.252415">
        <ele>706.715</ele>
        <time>2017-09-21T10:44:02Z</time>
      </trkpt>
      <trkpt lat="41.493319" lon="-6.252441">
        <ele>706.757</ele>
        <time>2017-09-21T10:44:03Z</time>
      </trkpt>
      <trkpt lat="41.493325" lon="-6.252468">
        <ele>706.700</ele>
        <time>2017-09-21T10:44:04Z</time>
      </trkpt>
      <trkpt lat="41.493335" lon="-6.252498">
        <ele>706.220</ele>
        <time>2017-09-21T10:44:05Z</time>
      </trkpt>
      <trkpt lat="41.493429" lon="-6.252755">
        <ele>703.808</ele>
        <time>2017-09-21T10:44:14Z</time>
      </trkpt>
      <trkpt lat="41.493477" lon="-6.252894">
        <ele>702.366</ele>
        <time>2017-09-21T10:44:24Z</time>
      </trkpt>
      <trkpt lat="41.493499" lon="-6.253210">
        <ele>700.464</ele>
        <time>2017-09-21T10:44:38Z</time>
      </trkpt>
      <trkpt lat="41.493494" lon="-6.253348">
        <ele>699.974</ele>
        <time>2017-09-21T10:44:57Z</time>
      </trkpt>
      <trkpt lat="41.493523" lon="-6.253646">
        <ele>696.628</ele>
        <time>2017-09-21T10:45:10Z</time>
      </trkpt>
      <trkpt lat="41.493587" lon="-6.253952">
        <ele>693.726</ele>
        <time>2017-09-21T10:45:23Z</time>
      </trkpt>
      <trkpt lat="41.493592" lon="-6.254022">
        <ele>693.295</ele>
        <time>2017-09-21T10:45:26Z</time>
      </trkpt>
      <trkpt lat="41.493596" lon="-6.254039">
        <ele>693.225</ele>
        <time>2017-09-21T10:45:27Z</time>
      </trkpt>
      <trkpt lat="41.493599" lon="-6.254059">
        <ele>692.787</ele>
        <time>2017-09-21T10:45:28Z</time>
      </trkpt>
      <trkpt lat="41.493669" lon="-6.254470">
        <ele>690.388</ele>
        <time>2017-09-21T10:45:43Z</time>
      </trkpt>
      <trkpt lat="41.493706" lon="-6.254697">
        <ele>688.424</ele>
        <time>2017-09-21T10:45:54Z</time>
      </trkpt>
      <trkpt lat="41.493718" lon="-6.254934">
        <ele>686.026</ele>
        <time>2017-09-21T10:46:05Z</time>
      </trkpt>
      <trkpt lat="41.493722" lon="-6.254994">
        <ele>685.508</ele>
        <time>2017-09-21T10:46:08Z</time>
      </trkpt>
      <trkpt lat="41.493724" lon="-6.255011">
        <ele>685.049</ele>
        <time>2017-09-21T10:46:09Z</time>
      </trkpt>
      <trkpt lat="41.493728" lon="-6.255030">
        <ele>685.027</ele>
        <time>2017-09-21T10:46:10Z</time>
      </trkpt>
      <trkpt lat="41.493728" lon="-6.255052">
        <ele>685.027</ele>
        <time>2017-09-21T10:46:11Z</time>
      </trkpt>
      <trkpt lat="41.493728" lon="-6.255075">
        <ele>684.621</ele>
        <time>2017-09-21T10:46:12Z</time>
      </trkpt>
      <trkpt lat="41.493730" lon="-6.255099">
        <ele>684.699</ele>
        <time>2017-09-21T10:46:13Z</time>
      </trkpt>
      <trkpt lat="41.493732" lon="-6.255123">
        <ele>684.118</ele>
        <time>2017-09-21T10:46:14Z</time>
      </trkpt>
      <trkpt lat="41.493732" lon="-6.255141">
        <ele>684.138</ele>
        <time>2017-09-21T10:46:15Z</time>
      </trkpt>
      <trkpt lat="41.493729" lon="-6.255159">
        <ele>684.110</ele>
        <time>2017-09-21T10:46:16Z</time>
      </trkpt>
      <trkpt lat="41.493724" lon="-6.255177">
        <ele>683.657</ele>
        <time>2017-09-21T10:46:17Z</time>
      </trkpt>
      <trkpt lat="41.493722" lon="-6.255197">
        <ele>683.600</ele>
        <time>2017-09-21T10:46:18Z</time>
      </trkpt>
      <trkpt lat="41.493723" lon="-6.255248">
        <ele>683.120</ele>
        <time>2017-09-21T10:46:20Z</time>
      </trkpt>
      <trkpt lat="41.493659" lon="-6.255458">
        <ele>681.708</ele>
        <time>2017-09-21T10:46:31Z</time>
      </trkpt>
      <trkpt lat="41.493448" lon="-6.255715">
        <ele>679.326</ele>
        <time>2017-09-21T10:46:45Z</time>
      </trkpt>
      <trkpt lat="41.493343" lon="-6.255970">
        <ele>675.994</ele>
        <time>2017-09-21T10:46:56Z</time>
      </trkpt>
      <trkpt lat="41.493230" lon="-6.256223">
        <ele>674.574</ele>
        <time>2017-09-21T10:47:05Z</time>
      </trkpt>
      <trkpt lat="41.493202" lon="-6.256264">
        <ele>674.578</ele>
        <time>2017-09-21T10:47:07Z</time>
      </trkpt>
      <trkpt lat="41.493156" lon="-6.256685">
        <ele>671.616</ele>
        <time>2017-09-21T10:47:18Z</time>
      </trkpt>
      <trkpt lat="41.493006" lon="-6.256947">
        <ele>669.725</ele>
        <time>2017-09-21T10:47:28Z</time>
      </trkpt>
      <trkpt lat="41.492810" lon="-6.257171">
        <ele>668.285</ele>
        <time>2017-09-21T10:47:40Z</time>
      </trkpt>
      <trkpt lat="41.492773" lon="-6.257217">
        <ele>668.217</ele>
        <time>2017-09-21T10:47:49Z</time>
      </trkpt>
      <trkpt lat="41.492763" lon="-6.257238">
        <ele>668.288</ele>
        <time>2017-09-21T10:47:51Z</time>
      </trkpt>
      <trkpt lat="41.492758" lon="-6.257255">
        <ele>667.724</ele>
        <time>2017-09-21T10:47:52Z</time>
      </trkpt>
      <trkpt lat="41.492758" lon="-6.257272">
        <ele>667.726</ele>
        <time>2017-09-21T10:47:53Z</time>
      </trkpt>
      <trkpt lat="41.492762" lon="-6.257288">
        <ele>667.208</ele>
        <time>2017-09-21T10:47:54Z</time>
      </trkpt>
      <trkpt lat="41.492771" lon="-6.257302">
        <ele>666.889</ele>
        <time>2017-09-21T10:47:55Z</time>
      </trkpt>
      <trkpt lat="41.492785" lon="-6.257314">
        <ele>666.317</ele>
        <time>2017-09-21T10:47:56Z</time>
      </trkpt>
      <trkpt lat="41.492801" lon="-6.257325">
        <ele>666.317</ele>
        <time>2017-09-21T10:47:57Z</time>
      </trkpt>
      <trkpt lat="41.492845" lon="-6.257340">
        <ele>665.811</ele>
        <time>2017-09-21T10:47:59Z</time>
      </trkpt>
      <trkpt lat="41.493069" lon="-6.257534">
        <ele>663.999</ele>
        <time>2017-09-21T10:48:11Z</time>
      </trkpt>
      <trkpt lat="41.493151" lon="-6.257662">
        <ele>662.958</ele>
        <time>2017-09-21T10:48:15Z</time>
      </trkpt>
      <trkpt lat="41.493087" lon="-6.257878">
        <ele>662.998</ele>
        <time>2017-09-21T10:48:23Z</time>
      </trkpt>
      <trkpt lat="41.493071" lon="-6.257920">
        <ele>663.940</ele>
        <time>2017-09-21T10:48:33Z</time>
      </trkpt>
      <trkpt lat="41.493068" lon="-6.257905">
        <ele>662.979</ele>
        <time>2017-09-21T10:48:46Z</time>
      </trkpt>
      <trkpt lat="41.493062" lon="-6.257899">
        <ele>662.905</ele>
        <time>2017-09-21T10:48:48Z</time>
      </trkpt>
      <trkpt lat="41.493000" lon="-6.257878">
        <ele>663.425</ele>
        <time>2017-09-21T10:48:54Z</time>
      </trkpt>
      <trkpt lat="41.492716" lon="-6.258064">
        <ele>660.008</ele>
        <time>2017-09-21T10:49:08Z</time>
      </trkpt>
      <trkpt lat="41.492455" lon="-6.258273">
        <ele>658.118</ele>
        <time>2017-09-21T10:49:21Z</time>
      </trkpt>
      <trkpt lat="41.492199" lon="-6.258626">
        <ele>655.796</ele>
        <time>2017-09-21T10:49:36Z</time>
      </trkpt>
      <trkpt lat="41.491902" lon="-6.258911">
        <ele>650.456</ele>
        <time>2017-09-21T10:49:50Z</time>
      </trkpt>
      <trkpt lat="41.491595" lon="-6.259114">
        <ele>647.120</ele>
        <time>2017-09-21T10:50:03Z</time>
      </trkpt>
      <trkpt lat="41.491311" lon="-6.259213">
        <ele>643.258</ele>
        <time>2017-09-21T10:50:16Z</time>
      </trkpt>
      <trkpt lat="41.491135" lon="-6.259154">
        <ele>639.497</ele>
        <time>2017-09-21T10:50:28Z</time>
      </trkpt>
      <trkpt lat="41.491037" lon="-6.259115">
        <ele>637.927</ele>
        <time>2017-09-21T10:50:46Z</time>
      </trkpt>
      <trkpt lat="41.490723" lon="-6.258958">
        <ele>632.659</ele>
        <time>2017-09-21T10:51:02Z</time>
      </trkpt>
      <trkpt lat="41.490431" lon="-6.258802">
        <ele>627.446</ele>
        <time>2017-09-21T10:51:15Z</time>
      </trkpt>
      <trkpt lat="41.490260" lon="-6.258746">
        <ele>626.488</ele>
        <time>2017-09-21T10:51:26Z</time>
      </trkpt>
      <trkpt lat="41.490261" lon="-6.258741">
        <ele>626.916</ele>
        <time>2017-09-21T10:51:34Z</time>
      </trkpt>
      <trkpt lat="41.490087" lon="-6.258652">
        <ele>624.908</ele>
        <time>2017-09-21T10:51:47Z</time>
      </trkpt>
      <trkpt lat="41.490032" lon="-6.258602">
        <ele>624.055</ele>
        <time>2017-09-21T10:51:51Z</time>
      </trkpt>
      <trkpt lat="41.489977" lon="-6.258505">
        <ele>622.163</ele>
        <time>2017-09-21T10:51:56Z</time>
      </trkpt>
      <trkpt lat="41.489876" lon="-6.258321">
        <ele>618.773</ele>
        <time>2017-09-21T10:52:05Z</time>
      </trkpt>
      <trkpt lat="41.489826" lon="-6.258260">
        <ele>616.867</ele>
        <time>2017-09-21T10:52:16Z</time>
      </trkpt>
      <trkpt lat="41.489804" lon="-6.258293">
        <ele>615.865</ele>
        <time>2017-09-21T10:52:23Z</time>
      </trkpt>
      <trkpt lat="41.489765" lon="-6.258601">
        <ele>611.534</ele>
        <time>2017-09-21T10:52:34Z</time>
      </trkpt>
      <trkpt lat="41.489815" lon="-6.258805">
        <ele>609.114</ele>
        <time>2017-09-21T10:52:44Z</time>
      </trkpt>
      <trkpt lat="41.489877" lon="-6.258933">
        <ele>607.676</ele>
        <time>2017-09-21T10:52:57Z</time>
      </trkpt>
      <trkpt lat="41.489909" lon="-6.258947">
        <ele>607.234</ele>
        <time>2017-09-21T10:53:10Z</time>
      </trkpt>
      <trkpt lat="41.489918" lon="-6.258940">
        <ele>607.255</ele>
        <time>2017-09-21T10:53:28Z</time>
      </trkpt>
      <trkpt lat="41.489921" lon="-6.258945">
        <ele>608.110</ele>
        <time>2017-09-21T10:53:57Z</time>
      </trkpt>
      <trkpt lat="41.489922" lon="-6.258947">
        <ele>609.108</ele>
        <time>2017-09-21T10:54:26Z</time>
      </trkpt>
      <trkpt lat="41.489922" lon="-6.258949">
        <ele>609.114</ele>
        <time>2017-09-21T10:54:59Z</time>
      </trkpt>
      <trkpt lat="41.489905" lon="-6.258961">
        <ele>612.062</ele>
        <time>2017-09-21T10:55:32Z</time>
      </trkpt>
      <trkpt lat="41.489919" lon="-6.258962">
        <ele>612.042</ele>
        <time>2017-09-21T10:56:09Z</time>
      </trkpt>
      <trkpt lat="41.489918" lon="-6.258991">
        <ele>609.196</ele>
        <time>2017-09-21T10:56:23Z</time>
      </trkpt>
      <trkpt lat="41.489972" lon="-6.259129">
        <ele>605.244</ele>
        <time>2017-09-21T10:56:40Z</time>
      </trkpt>
      <trkpt lat="41.489999" lon="-6.259194">
        <ele>604.393</ele>
        <time>2017-09-21T10:56:44Z</time>
      </trkpt>
      <trkpt lat="41.490058" lon="-6.259507">
        <ele>595.693</ele>
        <time>2017-09-21T10:57:01Z</time>
      </trkpt>
      <trkpt lat="41.490003" lon="-6.259703">
        <ele>592.755</ele>
        <time>2017-09-21T10:57:11Z</time>
      </trkpt>
      <trkpt lat="41.489990" lon="-6.259773">
        <ele>590.857</ele>
        <time>2017-09-21T10:57:16Z</time>
      </trkpt>
      <trkpt lat="41.489942" lon="-6.259940">
        <ele>586.500</ele>
        <time>2017-09-21T10:57:26Z</time>
      </trkpt>
      <trkpt lat="41.489918" lon="-6.260082">
        <ele>584.120</ele>
        <time>2017-09-21T10:57:34Z</time>
      </trkpt>
      <trkpt lat="41.489914" lon="-6.260164">
        <ele>582.208</ele>
        <time>2017-09-21T10:57:45Z</time>
      </trkpt>
      <trkpt lat="41.489905" lon="-6.260207">
        <ele>582.276</ele>
        <time>2017-09-21T10:58:03Z</time>
      </trkpt>
      <trkpt lat="41.489890" lon="-6.260317">
        <ele>580.764</ele>
        <time>2017-09-21T10:58:11Z</time>
      </trkpt>
      <trkpt lat="41.489818" lon="-6.260326">
        <ele>578.844</ele>
        <time>2017-09-21T10:58:21Z</time>
      </trkpt>
      <trkpt lat="41.489673" lon="-6.260140">
        <ele>576.448</ele>
        <time>2017-09-21T10:58:37Z</time>
      </trkpt>
      <trkpt lat="41.489634" lon="-6.260136">
        <ele>576.936</ele>
        <time>2017-09-21T10:58:51Z</time>
      </trkpt>
      <trkpt lat="41.489565" lon="-6.260142">
        <ele>575.025</ele>
        <time>2017-09-21T10:59:04Z</time>
      </trkpt>
      <trkpt lat="41.489479" lon="-6.260145">
        <ele>571.135</ele>
        <time>2017-09-21T10:59:19Z</time>
      </trkpt>
      <trkpt lat="41.489409" lon="-6.260122">
        <ele>570.297</ele>
        <time>2017-09-21T10:59:34Z</time>
      </trkpt>
      <trkpt lat="41.489303" lon="-6.260106">
        <ele>566.887</ele>
        <time>2017-09-21T10:59:44Z</time>
      </trkpt>
      <trkpt lat="41.489251" lon="-6.260177">
        <ele>564.942</ele>
        <time>2017-09-21T10:59:58Z</time>
      </trkpt>
      <trkpt lat="41.489252" lon="-6.260180">
        <ele>564.426</ele>
        <time>2017-09-21T11:00:01Z</time>
      </trkpt>
      <trkpt lat="41.489277" lon="-6.260376">
        <ele>562.008</ele>
        <time>2017-09-21T11:00:11Z</time>
      </trkpt>
      <trkpt lat="41.489298" lon="-6.260512">
        <ele>558.619</ele>
        <time>2017-09-21T11:00:23Z</time>
      </trkpt>
      <trkpt lat="41.489260" lon="-6.260491">
        <ele>559.167</ele>
        <time>2017-09-21T11:00:39Z</time>
      </trkpt>
      <trkpt lat="41.489243" lon="-6.260463">
        <ele>558.157</ele>
        <time>2017-09-21T11:00:55Z</time>
      </trkpt>
      <trkpt lat="41.489227" lon="-6.260467">
        <ele>556.281</ele>
        <time>2017-09-21T11:01:06Z</time>
      </trkpt>
      <trkpt lat="41.489220" lon="-6.260530">
        <ele>555.369</ele>
        <time>2017-09-21T11:01:20Z</time>
      </trkpt>
      <trkpt lat="41.489203" lon="-6.260563">
        <ele>554.898</ele>
        <time>2017-09-21T11:01:32Z</time>
      </trkpt>
      <trkpt lat="41.489195" lon="-6.260700">
        <ele>554.328</ele>
        <time>2017-09-21T11:01:43Z</time>
      </trkpt>
      <trkpt lat="41.489194" lon="-6.260708">
        <ele>554.360</ele>
        <time>2017-09-21T11:01:44Z</time>
      </trkpt>
      <trkpt lat="41.489197" lon="-6.260792">
        <ele>555.381</ele>
        <time>2017-09-21T11:01:51Z</time>
      </trkpt>
      <trkpt lat="41.489199" lon="-6.260848">
        <ele>555.761</ele>
        <time>2017-09-21T11:01:55Z</time>
      </trkpt>
      <trkpt lat="41.489281" lon="-6.260986">
        <ele>557.217</ele>
        <time>2017-09-21T11:02:09Z</time>
      </trkpt>
      <trkpt lat="41.489330" lon="-6.261089">
        <ele>554.808</ele>
        <time>2017-09-21T11:02:25Z</time>
      </trkpt>
      <trkpt lat="41.489397" lon="-6.261182">
        <ele>554.389</ele>
        <time>2017-09-21T11:02:43Z</time>
      </trkpt>
      <trkpt lat="41.489432" lon="-6.261250">
        <ele>552.447</ele>
        <time>2017-09-21T11:03:00Z</time>
      </trkpt>
      <trkpt lat="41.489475" lon="-6.261323">
        <ele>550.097</ele>
        <time>2017-09-21T11:03:16Z</time>
      </trkpt>
      <trkpt lat="41.489520" lon="-6.261426">
        <ele>547.151</ele>
        <time>2017-09-21T11:03:34Z</time>
      </trkpt>
      <trkpt lat="41.489562" lon="-6.261526">
        <ele>544.759</ele>
        <time>2017-09-21T11:03:48Z</time>
      </trkpt>
      <trkpt lat="41.489538" lon="-6.261546">
        <ele>544.718</ele>
        <time>2017-09-21T11:03:54Z</time>
      </trkpt>
      <trkpt lat="41.489404" lon="-6.261428">
        <ele>544.788</ele>
        <time>2017-09-21T11:04:11Z</time>
      </trkpt>
      <trkpt lat="41.489304" lon="-6.261365">
        <ele>543.780</ele>
        <time>2017-09-21T11:04:28Z</time>
      </trkpt>
      <trkpt lat="41.489256" lon="-6.261332">
        <ele>542.319</ele>
        <time>2017-09-21T11:04:35Z</time>
      </trkpt>
      <trkpt lat="41.489243" lon="-6.261362">
        <ele>541.309</ele>
        <time>2017-09-21T11:04:48Z</time>
      </trkpt>
      <trkpt lat="41.489240" lon="-6.261375">
        <ele>540.419</ele>
        <time>2017-09-21T11:04:55Z</time>
      </trkpt>
      <trkpt lat="41.489264" lon="-6.261405">
        <ele>540.408</ele>
        <time>2017-09-21T11:04:57Z</time>
      </trkpt>
      <trkpt lat="41.489282" lon="-6.261429">
        <ele>540.492</ele>
        <time>2017-09-21T11:04:58Z</time>
      </trkpt>
      <trkpt lat="41.489662" lon="-6.261819">
        <ele>536.530</ele>
        <time>2017-09-21T11:05:08Z</time>
      </trkpt>
      <trkpt lat="41.490008" lon="-6.262083">
        <ele>533.660</ele>
        <time>2017-09-21T11:05:14Z</time>
      </trkpt>
      <trkpt lat="41.490050" lon="-6.262139">
        <ele>533.614</ele>
        <time>2017-09-21T11:05:15Z</time>
      </trkpt>
      <trkpt lat="41.490079" lon="-6.262194">
        <ele>534.172</ele>
        <time>2017-09-21T11:05:16Z</time>
      </trkpt>
      <trkpt lat="41.490104" lon="-6.262271">
        <ele>534.181</ele>
        <time>2017-09-21T11:05:17Z</time>
      </trkpt>
      <trkpt lat="41.490109" lon="-6.262328">
        <ele>534.611</ele>
        <time>2017-09-21T11:05:18Z</time>
      </trkpt>
      <trkpt lat="41.490106" lon="-6.262402">
        <ele>534.663</ele>
        <time>2017-09-21T11:05:19Z</time>
      </trkpt>
      <trkpt lat="41.490103" lon="-6.262472">
        <ele>534.631</ele>
        <time>2017-09-21T11:05:20Z</time>
      </trkpt>
      <trkpt lat="41.490101" lon="-6.262525">
        <ele>535.161</ele>
        <time>2017-09-21T11:05:21Z</time>
      </trkpt>
      <trkpt lat="41.490080" lon="-6.262993">
        <ele>534.107</ele>
        <time>2017-09-21T11:05:29Z</time>
      </trkpt>
      <trkpt lat="41.489918" lon="-6.263676">
        <ele>534.608</ele>
        <time>2017-09-21T11:05:41Z</time>
      </trkpt>
      <trkpt lat="41.489900" lon="-6.263721">
        <ele>534.654</ele>
        <time>2017-09-21T11:05:42Z</time>
      </trkpt>
      <trkpt lat="41.489877" lon="-6.263780">
        <ele>535.122</ele>
        <time>2017-09-21T11:05:43Z</time>
      </trkpt>
      <trkpt lat="41.489373" lon="-6.264545">
        <ele>534.642</ele>
        <time>2017-09-21T11:06:01Z</time>
      </trkpt>
      <trkpt lat="41.489127" lon="-6.264880">
        <ele>533.696</ele>
        <time>2017-09-21T11:06:12Z</time>
      </trkpt>
      <trkpt lat="41.489137" lon="-6.264929">
        <ele>533.624</ele>
        <time>2017-09-21T11:06:13Z</time>
      </trkpt>
      <trkpt lat="41.489149" lon="-6.264961">
        <ele>533.193</ele>
        <time>2017-09-21T11:06:14Z</time>
      </trkpt>
      <trkpt lat="41.489173" lon="-6.265001">
        <ele>533.133</ele>
        <time>2017-09-21T11:06:15Z</time>
      </trkpt>
      <trkpt lat="41.489199" lon="-6.265036">
        <ele>533.165</ele>
        <time>2017-09-21T11:06:16Z</time>
      </trkpt>
      <trkpt lat="41.489225" lon="-6.265070">
        <ele>533.114</ele>
        <time>2017-09-21T11:06:17Z</time>
      </trkpt>
      <trkpt lat="41.489632" lon="-6.265647">
        <ele>533.654</ele>
        <time>2017-09-21T11:06:32Z</time>
      </trkpt>
      <trkpt lat="41.490108" lon="-6.265972">
        <ele>532.709</ele>
        <time>2017-09-21T11:06:45Z</time>
      </trkpt>
      <trkpt lat="41.490478" lon="-6.266262">
        <ele>534.108</ele>
        <time>2017-09-21T11:06:55Z</time>
      </trkpt>
      <trkpt lat="41.490922" lon="-6.266744">
        <ele>538.442</ele>
        <time>2017-09-21T11:07:12Z</time>
      </trkpt>
      <trkpt lat="41.491085" lon="-6.266952">
        <ele>539.990</ele>
        <time>2017-09-21T11:07:24Z</time>
      </trkpt>
      <trkpt lat="41.491160" lon="-6.267036">
        <ele>541.320</ele>
        <time>2017-09-21T11:07:30Z</time>
      </trkpt>
      <trkpt lat="41.491172" lon="-6.267045">
        <ele>541.324</ele>
        <time>2017-09-21T11:07:31Z</time>
      </trkpt>
      <trkpt lat="41.491183" lon="-6.267058">
        <ele>541.862</ele>
        <time>2017-09-21T11:07:32Z</time>
      </trkpt>
      <trkpt lat="41.491328" lon="-6.267233">
        <ele>543.231</ele>
        <time>2017-09-21T11:07:46Z</time>
      </trkpt>
      <trkpt lat="41.491340" lon="-6.267234">
        <ele>543.221</ele>
        <time>2017-09-21T11:07:47Z</time>
      </trkpt>
      <trkpt lat="41.491375" lon="-6.267243">
        <ele>543.243</ele>
        <time>2017-09-21T11:07:50Z</time>
      </trkpt>
      <trkpt lat="41.491417" lon="-6.267270">
        <ele>543.763</ele>
        <time>2017-09-21T11:07:54Z</time>
      </trkpt>
      <trkpt lat="41.491457" lon="-6.267310">
        <ele>544.244</ele>
        <time>2017-09-21T11:07:58Z</time>
      </trkpt>
      <trkpt lat="41.491464" lon="-6.267327">
        <ele>544.218</ele>
        <time>2017-09-21T11:07:59Z</time>
      </trkpt>
      <trkpt lat="41.491469" lon="-6.267340">
        <ele>544.208</ele>
        <time>2017-09-21T11:08:00Z</time>
      </trkpt>
      <trkpt lat="41.491478" lon="-6.267351">
        <ele>544.237</ele>
        <time>2017-09-21T11:08:01Z</time>
      </trkpt>
      <trkpt lat="41.491488" lon="-6.267360">
        <ele>544.275</ele>
        <time>2017-09-21T11:08:02Z</time>
      </trkpt>
      <trkpt lat="41.491497" lon="-6.267365">
        <ele>543.775</ele>
        <time>2017-09-21T11:08:03Z</time>
      </trkpt>
      <trkpt lat="41.491507" lon="-6.267377">
        <ele>543.729</ele>
        <time>2017-09-21T11:08:04Z</time>
      </trkpt>
      <trkpt lat="41.491515" lon="-6.267391">
        <ele>543.747</ele>
        <time>2017-09-21T11:08:05Z</time>
      </trkpt>
      <trkpt lat="41.491568" lon="-6.267476">
        <ele>544.756</ele>
        <time>2017-09-21T11:08:11Z</time>
      </trkpt>
      <trkpt lat="41.491665" lon="-6.267576">
        <ele>544.296</ele>
        <time>2017-09-21T11:08:20Z</time>
      </trkpt>
      <trkpt lat="41.491669" lon="-6.267594">
        <ele>544.278</ele>
        <time>2017-09-21T11:08:21Z</time>
      </trkpt>
      <trkpt lat="41.491676" lon="-6.267616">
        <ele>544.266</ele>
        <time>2017-09-21T11:08:22Z</time>
      </trkpt>
      <trkpt lat="41.491687" lon="-6.267635">
        <ele>544.229</ele>
        <time>2017-09-21T11:08:23Z</time>
      </trkpt>
      <trkpt lat="41.491697" lon="-6.267648">
        <ele>544.221</ele>
        <time>2017-09-21T11:08:24Z</time>
      </trkpt>
      <trkpt lat="41.491707" lon="-6.267659">
        <ele>544.708</ele>
        <time>2017-09-21T11:08:25Z</time>
      </trkpt>
      <trkpt lat="41.491856" lon="-6.267901">
        <ele>546.197</ele>
        <time>2017-09-21T11:08:40Z</time>
      </trkpt>
      <trkpt lat="41.491876" lon="-6.267927">
        <ele>546.665</ele>
        <time>2017-09-21T11:08:42Z</time>
      </trkpt>
      <trkpt lat="41.491918" lon="-6.268005">
        <ele>547.165</ele>
        <time>2017-09-21T11:08:47Z</time>
      </trkpt>
      <trkpt lat="41.492070" lon="-6.268288">
        <ele>549.099</ele>
        <time>2017-09-21T11:09:05Z</time>
      </trkpt>
      <trkpt lat="41.492234" lon="-6.268578">
        <ele>552.927</ele>
        <time>2017-09-21T11:09:23Z</time>
      </trkpt>
      <trkpt lat="41.492282" lon="-6.268650">
        <ele>553.346</ele>
        <time>2017-09-21T11:09:28Z</time>
      </trkpt>
      <trkpt lat="41.492293" lon="-6.268660">
        <ele>553.856</ele>
        <time>2017-09-21T11:09:29Z</time>
      </trkpt>
      <trkpt lat="41.492303" lon="-6.268675">
        <ele>553.868</ele>
        <time>2017-09-21T11:09:30Z</time>
      </trkpt>
      <trkpt lat="41.492454" lon="-6.268863">
        <ele>555.723</ele>
        <time>2017-09-21T11:09:44Z</time>
      </trkpt>
      <trkpt lat="41.492464" lon="-6.268878">
        <ele>556.283</ele>
        <time>2017-09-21T11:09:45Z</time>
      </trkpt>
      <trkpt lat="41.492476" lon="-6.268894">
        <ele>556.211</ele>
        <time>2017-09-21T11:09:46Z</time>
      </trkpt>
      <trkpt lat="41.492489" lon="-6.268910">
        <ele>556.208</ele>
        <time>2017-09-21T11:09:47Z</time>
      </trkpt>
      <trkpt lat="41.492502" lon="-6.268923">
        <ele>556.213</ele>
        <time>2017-09-21T11:09:48Z</time>
      </trkpt>
      <trkpt lat="41.492725" lon="-6.269153">
        <ele>560.151</ele>
        <time>2017-09-21T11:10:07Z</time>
      </trkpt>
      <trkpt lat="41.492757" lon="-6.269181">
        <ele>560.591</ele>
        <time>2017-09-21T11:10:10Z</time>
      </trkpt>
      <trkpt lat="41.492773" lon="-6.269188">
        <ele>560.525</ele>
        <time>2017-09-21T11:10:22Z</time>
      </trkpt>
      <trkpt lat="41.492788" lon="-6.269211">
        <ele>559.133</ele>
        <time>2017-09-21T11:10:46Z</time>
      </trkpt>
      <trkpt lat="41.492793" lon="-6.269239">
        <ele>557.222</ele>
        <time>2017-09-21T11:11:09Z</time>
      </trkpt>
      <trkpt lat="41.492809" lon="-6.269251">
        <ele>557.762</ele>
        <time>2017-09-21T11:11:10Z</time>
      </trkpt>
      <trkpt lat="41.492823" lon="-6.269257">
        <ele>557.744</ele>
        <time>2017-09-21T11:11:11Z</time>
      </trkpt>
      <trkpt lat="41.492834" lon="-6.269267">
        <ele>558.114</ele>
        <time>2017-09-21T11:11:12Z</time>
      </trkpt>
      <trkpt lat="41.492846" lon="-6.269281">
        <ele>558.154</ele>
        <time>2017-09-21T11:11:13Z</time>
      </trkpt>
      <trkpt lat="41.492861" lon="-6.269296">
        <ele>558.109</ele>
        <time>2017-09-21T11:11:14Z</time>
      </trkpt>
      <trkpt lat="41.492878" lon="-6.269309">
        <ele>558.608</ele>
        <time>2017-09-21T11:11:15Z</time>
      </trkpt>
      <trkpt lat="41.492894" lon="-6.269321">
        <ele>558.642</ele>
        <time>2017-09-21T11:11:16Z</time>
      </trkpt>
      <trkpt lat="41.493071" lon="-6.269487">
        <ele>561.030</ele>
        <time>2017-09-21T11:11:27Z</time>
      </trkpt>
      <trkpt lat="41.493319" lon="-6.269728">
        <ele>563.920</ele>
        <time>2017-09-21T11:11:43Z</time>
      </trkpt>
      <trkpt lat="41.493384" lon="-6.269782">
        <ele>564.484</ele>
        <time>2017-09-21T11:11:55Z</time>
      </trkpt>
      <trkpt lat="41.493396" lon="-6.269784">
        <ele>563.422</ele>
        <time>2017-09-21T11:12:14Z</time>
      </trkpt>
      <trkpt lat="41.493506" lon="-6.269894">
        <ele>563.991</ele>
        <time>2017-09-21T11:12:31Z</time>
      </trkpt>
      <trkpt lat="41.493725" lon="-6.270105">
        <ele>566.881</ele>
        <time>2017-09-21T11:12:45Z</time>
      </trkpt>
      <trkpt lat="41.493869" lon="-6.270232">
        <ele>568.253</ele>
        <time>2017-09-21T11:12:56Z</time>
      </trkpt>
      <trkpt lat="41.493881" lon="-6.270239">
        <ele>567.873</ele>
        <time>2017-09-21T11:12:57Z</time>
      </trkpt>
      <trkpt lat="41.493895" lon="-6.270246">
        <ele>567.885</ele>
        <time>2017-09-21T11:12:58Z</time>
      </trkpt>
      <trkpt lat="41.494080" lon="-6.270321">
        <ele>569.713</ele>
        <time>2017-09-21T11:13:13Z</time>
      </trkpt>
      <trkpt lat="41.494145" lon="-6.270320">
        <ele>568.708</ele>
        <time>2017-09-21T11:13:26Z</time>
      </trkpt>
      <trkpt lat="41.494158" lon="-6.270300">
        <ele>567.838</ele>
        <time>2017-09-21T11:13:47Z</time>
      </trkpt>
      <trkpt lat="41.494179" lon="-6.270345">
        <ele>567.856</ele>
        <time>2017-09-21T11:14:25Z</time>
      </trkpt>
      <trkpt lat="41.494174" lon="-6.270313">
        <ele>569.216</ele>
        <time>2017-09-21T11:14:49Z</time>
      </trkpt>
      <trkpt lat="41.494186" lon="-6.270330">
        <ele>570.260</ele>
        <time>2017-09-21T11:15:38Z</time>
      </trkpt>
      <trkpt lat="41.494185" lon="-6.270302">
        <ele>574.098</ele>
        <time>2017-09-21T11:16:05Z</time>
      </trkpt>
      <trkpt lat="41.494181" lon="-6.270325">
        <ele>566.397</ele>
        <time>2017-09-21T11:16:41Z</time>
      </trkpt>
      <trkpt lat="41.494191" lon="-6.270310">
        <ele>560.587</ele>
        <time>2017-09-21T11:17:22Z</time>
      </trkpt>
      <trkpt lat="41.494196" lon="-6.270338">
        <ele>559.699</ele>
        <time>2017-09-21T11:18:22Z</time>
      </trkpt>
      <trkpt lat="41.494159" lon="-6.270320">
        <ele>561.599</ele>
        <time>2017-09-21T11:19:10Z</time>
      </trkpt>
      <trkpt lat="41.494162" lon="-6.270289">
        <ele>565.307</ele>
        <time>2017-09-21T11:19:44Z</time>
      </trkpt>
      <trkpt lat="41.494178" lon="-6.270323">
        <ele>565.827</ele>
        <time>2017-09-21T11:20:18Z</time>
      </trkpt>
      <trkpt lat="41.494213" lon="-6.270342">
        <ele>568.708</ele>
        <time>2017-09-21T11:20:36Z</time>
      </trkpt>
      <trkpt lat="41.494287" lon="-6.270313">
        <ele>570.680</ele>
        <time>2017-09-21T11:20:50Z</time>
      </trkpt>
      <trkpt lat="41.494271" lon="-6.270305">
        <ele>574.078</ele>
        <time>2017-09-21T11:21:21Z</time>
      </trkpt>
      <trkpt lat="41.492149" lon="-6.284728">
        <ele>659.629</ele>
        <time>2017-09-22T08:27:20Z</time>
      </trkpt>
      <trkpt lat="41.492174" lon="-6.284758">
        <ele>660.000</ele>
        <time>2017-09-22T08:28:00Z</time>
      </trkpt>
      <trkpt lat="41.492148" lon="-6.284741">
        <ele>661.020</ele>
        <time>2017-09-22T08:28:27Z</time>
      </trkpt>
      <trkpt lat="41.492137" lon="-6.284742">
        <ele>660.508</ele>
        <time>2017-09-22T08:28:30Z</time>
      </trkpt>
      <trkpt lat="41.492142" lon="-6.284869">
        <ele>662.074</ele>
        <time>2017-09-22T08:28:36Z</time>
      </trkpt>
      <trkpt lat="41.492168" lon="-6.284929">
        <ele>662.412</ele>
        <time>2017-09-22T08:28:39Z</time>
      </trkpt>
      <trkpt lat="41.492221" lon="-6.284982">
        <ele>662.483</ele>
        <time>2017-09-22T08:28:43Z</time>
      </trkpt>
      <trkpt lat="41.492449" lon="-6.285289">
        <ele>663.975</ele>
        <time>2017-09-22T08:28:59Z</time>
      </trkpt>
      <trkpt lat="41.492652" lon="-6.285522">
        <ele>665.324</ele>
        <time>2017-09-22T08:29:12Z</time>
      </trkpt>
      <trkpt lat="41.492712" lon="-6.285600">
        <ele>666.368</ele>
        <time>2017-09-22T08:29:17Z</time>
      </trkpt>
      <trkpt lat="41.492773" lon="-6.285578">
        <ele>666.814</ele>
        <time>2017-09-22T08:29:21Z</time>
      </trkpt>
      <trkpt lat="41.492838" lon="-6.285499">
        <ele>665.818</ele>
        <time>2017-09-22T08:29:26Z</time>
      </trkpt>
      <trkpt lat="41.492874" lon="-6.285376">
        <ele>666.395</ele>
        <time>2017-09-22T08:29:32Z</time>
      </trkpt>
      <trkpt lat="41.492887" lon="-6.285354">
        <ele>666.349</ele>
        <time>2017-09-22T08:29:33Z</time>
      </trkpt>
      <trkpt lat="41.492900" lon="-6.285333">
        <ele>666.323</ele>
        <time>2017-09-22T08:29:34Z</time>
      </trkpt>
      <trkpt lat="41.492914" lon="-6.285309">
        <ele>666.308</ele>
        <time>2017-09-22T08:29:35Z</time>
      </trkpt>
      <trkpt lat="41.493174" lon="-6.284807">
        <ele>664.481</ele>
        <time>2017-09-22T08:29:51Z</time>
      </trkpt>
      <trkpt lat="41.493505" lon="-6.284477">
        <ele>664.439</ele>
        <time>2017-09-22T08:30:03Z</time>
      </trkpt>
      <trkpt lat="41.493804" lon="-6.284608">
        <ele>668.240</ele>
        <time>2017-09-22T08:30:16Z</time>
      </trkpt>
      <trkpt lat="41.494059" lon="-6.284737">
        <ele>671.152</ele>
        <time>2017-09-22T08:30:32Z</time>
      </trkpt>
      <trkpt lat="41.494073" lon="-6.284746">
        <ele>671.181</ele>
        <time>2017-09-22T08:30:33Z</time>
      </trkpt>
      <trkpt lat="41.494088" lon="-6.284752">
        <ele>671.665</ele>
        <time>2017-09-22T08:30:34Z</time>
      </trkpt>
      <trkpt lat="41.494102" lon="-6.284756">
        <ele>671.611</ele>
        <time>2017-09-22T08:30:35Z</time>
      </trkpt>
      <trkpt lat="41.494116" lon="-6.284758">
        <ele>672.165</ele>
        <time>2017-09-22T08:30:36Z</time>
      </trkpt>
      <trkpt lat="41.494132" lon="-6.284763">
        <ele>672.124</ele>
        <time>2017-09-22T08:30:37Z</time>
      </trkpt>
      <trkpt lat="41.494145" lon="-6.284772">
        <ele>672.504</ele>
        <time>2017-09-22T08:30:38Z</time>
      </trkpt>
      <trkpt lat="41.494156" lon="-6.284781">
        <ele>672.514</ele>
        <time>2017-09-22T08:30:39Z</time>
      </trkpt>
      <trkpt lat="41.494171" lon="-6.284793">
        <ele>673.008</ele>
        <time>2017-09-22T08:30:40Z</time>
      </trkpt>
      <trkpt lat="41.494373" lon="-6.284954">
        <ele>675.444</ele>
        <time>2017-09-22T08:30:55Z</time>
      </trkpt>
      <trkpt lat="41.494596" lon="-6.285108">
        <ele>676.942</ele>
        <time>2017-09-22T08:31:13Z</time>
      </trkpt>
      <trkpt lat="41.494824" lon="-6.285271">
        <ele>679.393</ele>
        <time>2017-09-22T08:31:30Z</time>
      </trkpt>
      <trkpt lat="41.495084" lon="-6.285402">
        <ele>681.285</ele>
        <time>2017-09-22T08:31:47Z</time>
      </trkpt>
      <trkpt lat="41.495353" lon="-6.285342">
        <ele>683.124</ele>
        <time>2017-09-22T08:32:03Z</time>
      </trkpt>
      <trkpt lat="41.495595" lon="-6.285228">
        <ele>684.658</ele>
        <time>2017-09-22T08:32:18Z</time>
      </trkpt>
      <trkpt lat="41.495853" lon="-6.285079">
        <ele>685.594</ele>
        <time>2017-09-22T08:32:32Z</time>
      </trkpt>
      <trkpt lat="41.496158" lon="-6.284943">
        <ele>686.588</ele>
        <time>2017-09-22T08:32:48Z</time>
      </trkpt>
      <trkpt lat="41.496390" lon="-6.284860">
        <ele>688.429</ele>
        <time>2017-09-22T08:33:01Z</time>
      </trkpt>
      <trkpt lat="41.496635" lon="-6.284728">
        <ele>689.400</ele>
        <time>2017-09-22T08:33:16Z</time>
      </trkpt>
      <trkpt lat="41.496756" lon="-6.284670">
        <ele>689.420</ele>
        <time>2017-09-22T08:33:23Z</time>
      </trkpt>
      <trkpt lat="41.496776" lon="-6.284666">
        <ele>689.408</ele>
        <time>2017-09-22T08:33:24Z</time>
      </trkpt>
      <trkpt lat="41.497073" lon="-6.284709">
        <ele>690.834</ele>
        <time>2017-09-22T08:33:39Z</time>
      </trkpt>
      <trkpt lat="41.497433" lon="-6.284882">
        <ele>694.292</ele>
        <time>2017-09-22T08:33:57Z</time>
      </trkpt>
      <trkpt lat="41.497822" lon="-6.284923">
        <ele>693.793</ele>
        <time>2017-09-22T08:34:13Z</time>
      </trkpt>
      <trkpt lat="41.498534" lon="-6.285001">
        <ele>689.885</ele>
        <time>2017-09-22T08:34:27Z</time>
      </trkpt>
      <trkpt lat="41.499230" lon="-6.284961">
        <ele>689.414</ele>
        <time>2017-09-22T08:34:40Z</time>
      </trkpt>
      <trkpt lat="41.499272" lon="-6.284943">
        <ele>689.838</ele>
        <time>2017-09-22T08:34:41Z</time>
      </trkpt>
      <trkpt lat="41.499896" lon="-6.284865">
        <ele>693.264</ele>
        <time>2017-09-22T08:34:57Z</time>
      </trkpt>
      <trkpt lat="41.500227" lon="-6.284611">
        <ele>695.198</ele>
        <time>2017-09-22T08:35:10Z</time>
      </trkpt>
      <trkpt lat="41.500277" lon="-6.284379">
        <ele>694.213</ele>
        <time>2017-09-22T08:35:15Z</time>
      </trkpt>
      <trkpt lat="41.500282" lon="-6.284324">
        <ele>693.743</ele>
        <time>2017-09-22T08:35:16Z</time>
      </trkpt>
      <trkpt lat="41.500352" lon="-6.283302">
        <ele>689.407</ele>
        <time>2017-09-22T08:35:29Z</time>
      </trkpt>
      <trkpt lat="41.500536" lon="-6.281742">
        <ele>684.108</ele>
        <time>2017-09-22T08:35:45Z</time>
      </trkpt>
      <trkpt lat="41.500657" lon="-6.281249">
        <ele>683.663</ele>
        <time>2017-09-22T08:35:51Z</time>
      </trkpt>
      <trkpt lat="41.500688" lon="-6.281187">
        <ele>683.681</ele>
        <time>2017-09-22T08:35:52Z</time>
      </trkpt>
      <trkpt lat="41.500735" lon="-6.281124">
        <ele>683.692</ele>
        <time>2017-09-22T08:35:53Z</time>
      </trkpt>
      <trkpt lat="41.500780" lon="-6.281076">
        <ele>683.634</ele>
        <time>2017-09-22T08:35:54Z</time>
      </trkpt>
      <trkpt lat="41.500837" lon="-6.281029">
        <ele>683.173</ele>
        <time>2017-09-22T08:35:55Z</time>
      </trkpt>
      <trkpt lat="41.500892" lon="-6.280991">
        <ele>683.167</ele>
        <time>2017-09-22T08:35:56Z</time>
      </trkpt>
      <trkpt lat="41.500947" lon="-6.280957">
        <ele>682.143</ele>
        <time>2017-09-22T08:35:57Z</time>
      </trkpt>
      <trkpt lat="41.501139" lon="-6.280836">
        <ele>681.247</ele>
        <time>2017-09-22T08:36:00Z</time>
      </trkpt>
      <trkpt lat="41.501201" lon="-6.280779">
        <ele>680.799</ele>
        <time>2017-09-22T08:36:01Z</time>
      </trkpt>
      <trkpt lat="41.501260" lon="-6.280709">
        <ele>680.207</ele>
        <time>2017-09-22T08:36:02Z</time>
      </trkpt>
      <trkpt lat="41.501309" lon="-6.280634">
        <ele>679.327</ele>
        <time>2017-09-22T08:36:03Z</time>
      </trkpt>
      <trkpt lat="41.501354" lon="-6.280545">
        <ele>678.808</ele>
        <time>2017-09-22T08:36:04Z</time>
      </trkpt>
      <trkpt lat="41.501393" lon="-6.280439">
        <ele>678.331</ele>
        <time>2017-09-22T08:36:05Z</time>
      </trkpt>
      <trkpt lat="41.501423" lon="-6.280340">
        <ele>677.839</ele>
        <time>2017-09-22T08:36:06Z</time>
      </trkpt>
      <trkpt lat="41.501527" lon="-6.279813">
        <ele>674.910</ele>
        <time>2017-09-22T08:36:11Z</time>
      </trkpt>
      <trkpt lat="41.501521" lon="-6.279705">
        <ele>674.572</ele>
        <time>2017-09-22T08:36:12Z</time>
      </trkpt>
      <trkpt lat="41.501501" lon="-6.279595">
        <ele>673.571</ele>
        <time>2017-09-22T08:36:13Z</time>
      </trkpt>
      <trkpt lat="41.501465" lon="-6.279483">
        <ele>673.055</ele>
        <time>2017-09-22T08:36:14Z</time>
      </trkpt>
      <trkpt lat="41.501428" lon="-6.279402">
        <ele>672.531</ele>
        <time>2017-09-22T08:36:15Z</time>
      </trkpt>
      <trkpt lat="41.501387" lon="-6.279325">
        <ele>672.115</ele>
        <time>2017-09-22T08:36:16Z</time>
      </trkpt>
      <trkpt lat="41.501291" lon="-6.279174">
        <ele>671.674</ele>
        <time>2017-09-22T08:36:18Z</time>
      </trkpt>
      <trkpt lat="41.501241" lon="-6.279114">
        <ele>671.156</ele>
        <time>2017-09-22T08:36:19Z</time>
      </trkpt>
      <trkpt lat="41.500516" lon="-6.278175">
        <ele>669.221</ele>
        <time>2017-09-22T08:36:34Z</time>
      </trkpt>
      <trkpt lat="41.499698" lon="-6.277023">
        <ele>664.808</ele>
        <time>2017-09-22T08:36:49Z</time>
      </trkpt>
      <trkpt lat="41.499060" lon="-6.275896">
        <ele>662.479</ele>
        <time>2017-09-22T08:37:03Z</time>
      </trkpt>
      <trkpt lat="41.499042" lon="-6.275818">
        <ele>662.487</ele>
        <time>2017-09-22T08:37:04Z</time>
      </trkpt>
      <trkpt lat="41.499029" lon="-6.275727">
        <ele>662.438</ele>
        <time>2017-09-22T08:37:05Z</time>
      </trkpt>
      <trkpt lat="41.499027" lon="-6.275638">
        <ele>662.020</ele>
        <time>2017-09-22T08:37:06Z</time>
      </trkpt>
      <trkpt lat="41.499032" lon="-6.275554">
        <ele>662.059</ele>
        <time>2017-09-22T08:37:07Z</time>
      </trkpt>
      <trkpt lat="41.499045" lon="-6.275483">
        <ele>662.083</ele>
        <time>2017-09-22T08:37:08Z</time>
      </trkpt>
      <trkpt lat="41.499071" lon="-6.275403">
        <ele>661.599</ele>
        <time>2017-09-22T08:37:09Z</time>
      </trkpt>
      <trkpt lat="41.499107" lon="-6.275337">
        <ele>661.563</ele>
        <time>2017-09-22T08:37:10Z</time>
      </trkpt>
      <trkpt lat="41.499150" lon="-6.275283">
        <ele>661.098</ele>
        <time>2017-09-22T08:37:11Z</time>
      </trkpt>
      <trkpt lat="41.499195" lon="-6.275241">
        <ele>661.015</ele>
        <time>2017-09-22T08:37:12Z</time>
      </trkpt>
      <trkpt lat="41.499254" lon="-6.275202">
        <ele>660.526</ele>
        <time>2017-09-22T08:37:13Z</time>
      </trkpt>
      <trkpt lat="41.499311" lon="-6.275177">
        <ele>660.008</ele>
        <time>2017-09-22T08:37:14Z</time>
      </trkpt>
      <trkpt lat="41.499375" lon="-6.275164">
        <ele>660.061</ele>
        <time>2017-09-22T08:37:15Z</time>
      </trkpt>
      <trkpt lat="41.499434" lon="-6.275159">
        <ele>660.059</ele>
        <time>2017-09-22T08:37:16Z</time>
      </trkpt>
      <trkpt lat="41.499487" lon="-6.275165">
        <ele>660.060</ele>
        <time>2017-09-22T08:37:17Z</time>
      </trkpt>
      <trkpt lat="41.499549" lon="-6.275191">
        <ele>660.012</ele>
        <time>2017-09-22T08:37:18Z</time>
      </trkpt>
      <trkpt lat="41.499599" lon="-6.275223">
        <ele>659.671</ele>
        <time>2017-09-22T08:37:19Z</time>
      </trkpt>
      <trkpt lat="41.499776" lon="-6.275316">
        <ele>659.165</ele>
        <time>2017-09-22T08:37:22Z</time>
      </trkpt>
      <trkpt lat="41.499832" lon="-6.275322">
        <ele>659.171</ele>
        <time>2017-09-22T08:37:23Z</time>
      </trkpt>
      <trkpt lat="41.499898" lon="-6.275315">
        <ele>659.165</ele>
        <time>2017-09-22T08:37:24Z</time>
      </trkpt>
      <trkpt lat="41.499954" lon="-6.275292">
        <ele>659.137</ele>
        <time>2017-09-22T08:37:25Z</time>
      </trkpt>
      <trkpt lat="41.500011" lon="-6.275244">
        <ele>659.149</ele>
        <time>2017-09-22T08:37:26Z</time>
      </trkpt>
      <trkpt lat="41.500051" lon="-6.275192">
        <ele>659.613</ele>
        <time>2017-09-22T08:37:27Z</time>
      </trkpt>
      <trkpt lat="41.500100" lon="-6.275121">
        <ele>659.608</ele>
        <time>2017-09-22T08:37:28Z</time>
      </trkpt>
      <trkpt lat="41.500178" lon="-6.275002">
        <ele>659.675</ele>
        <time>2017-09-22T08:37:30Z</time>
      </trkpt>
      <trkpt lat="41.500211" lon="-6.274916">
        <ele>659.693</ele>
        <time>2017-09-22T08:37:31Z</time>
      </trkpt>
      <trkpt lat="41.500222" lon="-6.274833">
        <ele>659.614</ele>
        <time>2017-09-22T08:37:32Z</time>
      </trkpt>
      <trkpt lat="41.500219" lon="-6.274758">
        <ele>659.676</ele>
        <time>2017-09-22T08:37:33Z</time>
      </trkpt>
      <trkpt lat="41.500199" lon="-6.274668">
        <ele>660.075</ele>
        <time>2017-09-22T08:37:34Z</time>
      </trkpt>
      <trkpt lat="41.500172" lon="-6.274608">
        <ele>660.019</ele>
        <time>2017-09-22T08:37:35Z</time>
      </trkpt>
      <trkpt lat="41.500135" lon="-6.274545">
        <ele>660.515</ele>
        <time>2017-09-22T08:37:36Z</time>
      </trkpt>
      <trkpt lat="41.499990" lon="-6.274297">
        <ele>661.029</ele>
        <time>2017-09-22T08:37:41Z</time>
      </trkpt>
      <trkpt lat="41.499506" lon="-6.273799">
        <ele>663.495</ele>
        <time>2017-09-22T08:37:58Z</time>
      </trkpt>
      <trkpt lat="41.499124" lon="-6.273399">
        <ele>665.349</ele>
        <time>2017-09-22T08:38:15Z</time>
      </trkpt>
      <trkpt lat="41.498847" lon="-6.273117">
        <ele>667.723</ele>
        <time>2017-09-22T08:38:28Z</time>
      </trkpt>
      <trkpt lat="41.498497" lon="-6.272829">
        <ele>670.608</ele>
        <time>2017-09-22T08:38:45Z</time>
      </trkpt>
      <trkpt lat="41.498149" lon="-6.272704">
        <ele>673.581</ele>
        <time>2017-09-22T08:39:02Z</time>
      </trkpt>
      <trkpt lat="41.497826" lon="-6.272711">
        <ele>674.079</ele>
        <time>2017-09-22T08:39:19Z</time>
      </trkpt>
      <trkpt lat="41.497472" lon="-6.272661">
        <ele>675.480</ele>
        <time>2017-09-22T08:39:35Z</time>
      </trkpt>
      <trkpt lat="41.497228" lon="-6.272635">
        <ele>676.912</ele>
        <time>2017-09-22T08:39:46Z</time>
      </trkpt>
      <trkpt lat="41.497209" lon="-6.272616">
        <ele>676.931</ele>
        <time>2017-09-22T08:39:47Z</time>
      </trkpt>
      <trkpt lat="41.497190" lon="-6.272592">
        <ele>676.925</ele>
        <time>2017-09-22T08:39:48Z</time>
      </trkpt>
      <trkpt lat="41.497174" lon="-6.272566">
        <ele>676.991</ele>
        <time>2017-09-22T08:39:49Z</time>
      </trkpt>
      <trkpt lat="41.497160" lon="-6.272532">
        <ele>676.985</ele>
        <time>2017-09-22T08:39:50Z</time>
      </trkpt>
      <trkpt lat="41.497149" lon="-6.272489">
        <ele>676.486</ele>
        <time>2017-09-22T08:39:51Z</time>
      </trkpt>
      <trkpt lat="41.497137" lon="-6.272439">
        <ele>676.460</ele>
        <time>2017-09-22T08:39:52Z</time>
      </trkpt>
      <trkpt lat="41.497082" lon="-6.272238">
        <ele>674.026</ele>
        <time>2017-09-22T08:39:56Z</time>
      </trkpt>
      <trkpt lat="41.497055" lon="-6.272189">
        <ele>673.508</ele>
        <time>2017-09-22T08:39:57Z</time>
      </trkpt>
      <trkpt lat="41.497026" lon="-6.272144">
        <ele>673.060</ele>
        <time>2017-09-22T08:39:58Z</time>
      </trkpt>
      <trkpt lat="41.496985" lon="-6.272103">
        <ele>672.588</ele>
        <time>2017-09-22T08:39:59Z</time>
      </trkpt>
      <trkpt lat="41.496936" lon="-6.272078">
        <ele>672.179</ele>
        <time>2017-09-22T08:40:00Z</time>
      </trkpt>
      <trkpt lat="41.496878" lon="-6.272070">
        <ele>671.661</ele>
        <time>2017-09-22T08:40:01Z</time>
      </trkpt>
      <trkpt lat="41.496812" lon="-6.272082">
        <ele>671.130</ele>
        <time>2017-09-22T08:40:02Z</time>
      </trkpt>
      <trkpt lat="41.496756" lon="-6.272106">
        <ele>670.664</ele>
        <time>2017-09-22T08:40:03Z</time>
      </trkpt>
      <trkpt lat="41.496691" lon="-6.272147">
        <ele>670.140</ele>
        <time>2017-09-22T08:40:04Z</time>
      </trkpt>
      <trkpt lat="41.496631" lon="-6.272194">
        <ele>670.184</ele>
        <time>2017-09-22T08:40:05Z</time>
      </trkpt>
      <trkpt lat="41.496568" lon="-6.272242">
        <ele>669.792</ele>
        <time>2017-09-22T08:40:06Z</time>
      </trkpt>
      <trkpt lat="41.496285" lon="-6.272405">
        <ele>668.273</ele>
        <time>2017-09-22T08:40:10Z</time>
      </trkpt>
      <trkpt lat="41.496207" lon="-6.272422">
        <ele>667.720</ele>
        <time>2017-09-22T08:40:11Z</time>
      </trkpt>
      <trkpt lat="41.496123" lon="-6.272428">
        <ele>667.208</ele>
        <time>2017-09-22T08:40:12Z</time>
      </trkpt>
      <trkpt lat="41.496045" lon="-6.272419">
        <ele>666.871</ele>
        <time>2017-09-22T08:40:13Z</time>
      </trkpt>
      <trkpt lat="41.495966" lon="-6.272402">
        <ele>665.879</ele>
        <time>2017-09-22T08:40:14Z</time>
      </trkpt>
      <trkpt lat="41.495882" lon="-6.272378">
        <ele>665.320</ele>
        <time>2017-09-22T08:40:15Z</time>
      </trkpt>
      <trkpt lat="41.495654" lon="-6.272273">
        <ele>663.462</ele>
        <time>2017-09-22T08:40:18Z</time>
      </trkpt>
      <trkpt lat="41.495189" lon="-6.272029">
        <ele>659.121</ele>
        <time>2017-09-22T08:40:24Z</time>
      </trkpt>
      <trkpt lat="41.495087" lon="-6.272014">
        <ele>658.165</ele>
        <time>2017-09-22T08:40:25Z</time>
      </trkpt>
      <trkpt lat="41.494992" lon="-6.272012">
        <ele>657.631</ele>
        <time>2017-09-22T08:40:26Z</time>
      </trkpt>
      <trkpt lat="41.493730" lon="-6.271988">
        <ele>649.045</ele>
        <time>2017-09-22T08:40:39Z</time>
      </trkpt>
      <trkpt lat="41.493389" lon="-6.271843">
        <ele>647.138</ele>
        <time>2017-09-22T08:40:43Z</time>
      </trkpt>
      <trkpt lat="41.493315" lon="-6.271783">
        <ele>646.170</ele>
        <time>2017-09-22T08:40:44Z</time>
      </trkpt>
      <trkpt lat="41.493240" lon="-6.271707">
        <ele>645.117</ele>
        <time>2017-09-22T08:40:45Z</time>
      </trkpt>
      <trkpt lat="41.493168" lon="-6.271621">
        <ele>644.708</ele>
        <time>2017-09-22T08:40:46Z</time>
      </trkpt>
      <trkpt lat="41.493101" lon="-6.271531">
        <ele>643.755</ele>
        <time>2017-09-22T08:40:47Z</time>
      </trkpt>
      <trkpt lat="41.493034" lon="-6.271430">
        <ele>643.213</ele>
        <time>2017-09-22T08:40:48Z</time>
      </trkpt>
      <trkpt lat="41.492968" lon="-6.271320">
        <ele>642.354</ele>
        <time>2017-09-22T08:40:49Z</time>
      </trkpt>
      <trkpt lat="41.492575" lon="-6.270725">
        <ele>637.916</ele>
        <time>2017-09-22T08:40:56Z</time>
      </trkpt>
      <trkpt lat="41.492502" lon="-6.270660">
        <ele>637.495</ele>
        <time>2017-09-22T08:40:57Z</time>
      </trkpt>
      <trkpt lat="41.492422" lon="-6.270604">
        <ele>636.579</ele>
        <time>2017-09-22T08:40:58Z</time>
      </trkpt>
      <trkpt lat="41.491785" lon="-6.270232">
        <ele>632.215</ele>
        <time>2017-09-22T08:41:05Z</time>
      </trkpt>
      <trkpt lat="41.491704" lon="-6.270157">
        <ele>631.299</ele>
        <time>2017-09-22T08:41:06Z</time>
      </trkpt>
      <trkpt lat="41.491628" lon="-6.270073">
        <ele>630.257</ele>
        <time>2017-09-22T08:41:07Z</time>
      </trkpt>
      <trkpt lat="41.491557" lon="-6.269984">
        <ele>629.800</ele>
        <time>2017-09-22T08:41:08Z</time>
      </trkpt>
      <trkpt lat="41.491484" lon="-6.269883">
        <ele>628.820</ele>
        <time>2017-09-22T08:41:09Z</time>
      </trkpt>
      <trkpt lat="41.490862" lon="-6.268921">
        <ele>622.108</ele>
        <time>2017-09-22T08:41:19Z</time>
      </trkpt>
      <trkpt lat="41.490800" lon="-6.268849">
        <ele>621.627</ele>
        <time>2017-09-22T08:41:20Z</time>
      </trkpt>
      <trkpt lat="41.490089" lon="-6.268382">
        <ele>617.395</ele>
        <time>2017-09-22T08:41:30Z</time>
      </trkpt>
      <trkpt lat="41.490034" lon="-6.268334">
        <ele>617.326</ele>
        <time>2017-09-22T08:41:31Z</time>
      </trkpt>
      <trkpt lat="41.489989" lon="-6.268276">
        <ele>616.828</ele>
        <time>2017-09-22T08:41:32Z</time>
      </trkpt>
      <trkpt lat="41.489955" lon="-6.268207">
        <ele>616.387</ele>
        <time>2017-09-22T08:41:33Z</time>
      </trkpt>
      <trkpt lat="41.489932" lon="-6.268128">
        <ele>615.861</ele>
        <time>2017-09-22T08:41:34Z</time>
      </trkpt>
      <trkpt lat="41.489927" lon="-6.268051">
        <ele>615.877</ele>
        <time>2017-09-22T08:41:35Z</time>
      </trkpt>
      <trkpt lat="41.489939" lon="-6.267977">
        <ele>615.831</ele>
        <time>2017-09-22T08:41:36Z</time>
      </trkpt>
      <trkpt lat="41.489967" lon="-6.267907">
        <ele>615.899</ele>
        <time>2017-09-22T08:41:37Z</time>
      </trkpt>
      <trkpt lat="41.490006" lon="-6.267854">
        <ele>615.307</ele>
        <time>2017-09-22T08:41:38Z</time>
      </trkpt>
      <trkpt lat="41.490054" lon="-6.267815">
        <ele>615.327</ele>
        <time>2017-09-22T08:41:39Z</time>
      </trkpt>
      <trkpt lat="41.490110" lon="-6.267793">
        <ele>615.308</ele>
        <time>2017-09-22T08:41:40Z</time>
      </trkpt>
      <trkpt lat="41.490166" lon="-6.267791">
        <ele>615.391</ele>
        <time>2017-09-22T08:41:41Z</time>
      </trkpt>
      <trkpt lat="41.490224" lon="-6.267809">
        <ele>615.399</ele>
        <time>2017-09-22T08:41:42Z</time>
      </trkpt>
      <trkpt lat="41.490274" lon="-6.267842">
        <ele>614.920</ele>
        <time>2017-09-22T08:41:43Z</time>
      </trkpt>
      <trkpt lat="41.490326" lon="-6.267889">
        <ele>614.932</ele>
        <time>2017-09-22T08:41:44Z</time>
      </trkpt>
      <trkpt lat="41.490371" lon="-6.267938">
        <ele>614.931</ele>
        <time>2017-09-22T08:41:45Z</time>
      </trkpt>
      <trkpt lat="41.491268" lon="-6.268918">
        <ele>610.585</ele>
        <time>2017-09-22T08:42:04Z</time>
      </trkpt>
      <trkpt lat="41.492120" lon="-6.269701">
        <ele>603.851</ele>
        <time>2017-09-22T08:42:18Z</time>
      </trkpt>
      <trkpt lat="41.493057" lon="-6.270091">
        <ele>595.665</ele>
        <time>2017-09-22T08:42:30Z</time>
      </trkpt>
      <trkpt lat="41.493600" lon="-6.270533">
        <ele>591.335</ele>
        <time>2017-09-22T08:42:37Z</time>
      </trkpt>
      <trkpt lat="41.493678" lon="-6.270577">
        <ele>590.886</ele>
        <time>2017-09-22T08:42:38Z</time>
      </trkpt>
      <trkpt lat="41.493774" lon="-6.270615">
        <ele>589.914</ele>
        <time>2017-09-22T08:42:39Z</time>
      </trkpt>
      <trkpt lat="41.493867" lon="-6.270638">
        <ele>589.408</ele>
        <time>2017-09-22T08:42:40Z</time>
      </trkpt>
      <trkpt lat="41.493960" lon="-6.270647">
        <ele>588.495</ele>
        <time>2017-09-22T08:42:41Z</time>
      </trkpt>
      <trkpt lat="41.494066" lon="-6.270647">
        <ele>587.043</ele>
        <time>2017-09-22T08:42:42Z</time>
      </trkpt>
      <trkpt lat="41.494155" lon="-6.270639">
        <ele>586.564</ele>
        <time>2017-09-22T08:42:43Z</time>
      </trkpt>
      <trkpt lat="41.495038" lon="-6.270649">
        <ele>579.886</ele>
        <time>2017-09-22T08:42:54Z</time>
      </trkpt>
      <trkpt lat="41.495222" lon="-6.270671">
        <ele>578.335</ele>
        <time>2017-09-22T08:42:57Z</time>
      </trkpt>
      <trkpt lat="41.495271" lon="-6.270663">
        <ele>577.899</ele>
        <time>2017-09-22T08:42:58Z</time>
      </trkpt>
      <trkpt lat="41.495318" lon="-6.270640">
        <ele>577.435</ele>
        <time>2017-09-22T08:42:59Z</time>
      </trkpt>
      <trkpt lat="41.495353" lon="-6.270597">
        <ele>576.939</ele>
        <time>2017-09-22T08:43:00Z</time>
      </trkpt>
      <trkpt lat="41.495372" lon="-6.270541">
        <ele>576.986</ele>
        <time>2017-09-22T08:43:01Z</time>
      </trkpt>
      <trkpt lat="41.495370" lon="-6.270469">
        <ele>576.460</ele>
        <time>2017-09-22T08:43:02Z</time>
      </trkpt>
      <trkpt lat="41.495345" lon="-6.270410">
        <ele>576.426</ele>
        <time>2017-09-22T08:43:03Z</time>
      </trkpt>
      <trkpt lat="41.495302" lon="-6.270376">
        <ele>575.908</ele>
        <time>2017-09-22T08:43:04Z</time>
      </trkpt>
      <trkpt lat="41.495252" lon="-6.270366">
        <ele>575.920</ele>
        <time>2017-09-22T08:43:05Z</time>
      </trkpt>
      <trkpt lat="41.495194" lon="-6.270370">
        <ele>575.488</ele>
        <time>2017-09-22T08:43:06Z</time>
      </trkpt>
      <trkpt lat="41.495139" lon="-6.270379">
        <ele>575.459</ele>
        <time>2017-09-22T08:43:07Z</time>
      </trkpt>
      <trkpt lat="41.494231" lon="-6.270468">
        <ele>572.131</ele>
        <time>2017-09-22T08:43:22Z</time>
      </trkpt>
      <trkpt lat="41.493571" lon="-6.270052">
        <ele>567.850</ele>
        <time>2017-09-22T08:43:31Z</time>
      </trkpt>
      <trkpt lat="41.492641" lon="-6.269167">
        <ele>558.194</ele>
        <time>2017-09-22T08:43:44Z</time>
      </trkpt>
      <trkpt lat="41.491999" lon="-6.268259">
        <ele>550.990</ele>
        <time>2017-09-22T08:43:54Z</time>
      </trkpt>
      <trkpt lat="41.491158" lon="-6.267094">
        <ele>540.434</ele>
        <time>2017-09-22T08:44:06Z</time>
      </trkpt>
      <trkpt lat="41.490021" lon="-6.265997">
        <ele>534.181</ele>
        <time>2017-09-22T08:44:19Z</time>
      </trkpt>
      <trkpt lat="41.489575" lon="-6.265660">
        <ele>534.161</ele>
        <time>2017-09-22T08:44:25Z</time>
      </trkpt>
      <trkpt lat="41.489518" lon="-6.265591">
        <ele>534.117</ele>
        <time>2017-09-22T08:44:26Z</time>
      </trkpt>
      <trkpt lat="41.489082" lon="-6.264915">
        <ele>534.608</ele>
        <time>2017-09-22T08:44:36Z</time>
      </trkpt>
      <trkpt lat="41.489071" lon="-6.264855">
        <ele>535.120</ele>
        <time>2017-09-22T08:44:37Z</time>
      </trkpt>
      <trkpt lat="41.489081" lon="-6.264798">
        <ele>535.118</ele>
        <time>2017-09-22T08:44:38Z</time>
      </trkpt>
      <trkpt lat="41.489104" lon="-6.264746">
        <ele>535.519</ele>
        <time>2017-09-22T08:44:39Z</time>
      </trkpt>
      <trkpt lat="41.489135" lon="-6.264699">
        <ele>535.571</ele>
        <time>2017-09-22T08:44:40Z</time>
      </trkpt>
      <trkpt lat="41.489176" lon="-6.264657">
        <ele>536.020</ele>
        <time>2017-09-22T08:44:41Z</time>
      </trkpt>
      <trkpt lat="41.489220" lon="-6.264621">
        <ele>536.044</ele>
        <time>2017-09-22T08:44:42Z</time>
      </trkpt>
      <trkpt lat="41.489805" lon="-6.263851">
        <ele>535.520</ele>
        <time>2017-09-22T08:44:57Z</time>
      </trkpt>
      <trkpt lat="41.490057" lon="-6.262791">
        <ele>535.194</ele>
        <time>2017-09-22T08:45:12Z</time>
      </trkpt>
      <trkpt lat="41.490072" lon="-6.262587">
        <ele>535.196</ele>
        <time>2017-09-22T08:45:15Z</time>
      </trkpt>
      <trkpt lat="41.490056" lon="-6.262313">
        <ele>535.531</ele>
        <time>2017-09-22T08:45:19Z</time>
      </trkpt>
      <trkpt lat="41.490045" lon="-6.262246">
        <ele>535.524</ele>
        <time>2017-09-22T08:45:20Z</time>
      </trkpt>
      <trkpt lat="41.490026" lon="-6.262186">
        <ele>535.508</ele>
        <time>2017-09-22T08:45:21Z</time>
      </trkpt>
      <trkpt lat="41.489995" lon="-6.262128">
        <ele>535.571</ele>
        <time>2017-09-22T08:45:22Z</time>
      </trkpt>
      <trkpt lat="41.489955" lon="-6.262086">
        <ele>535.579</ele>
        <time>2017-09-22T08:45:23Z</time>
      </trkpt>
      <trkpt lat="41.489912" lon="-6.262055">
        <ele>535.560</ele>
        <time>2017-09-22T08:45:24Z</time>
      </trkpt>
      <trkpt lat="41.489868" lon="-6.262027">
        <ele>535.552</ele>
        <time>2017-09-22T08:45:25Z</time>
      </trkpt>
      <trkpt lat="41.489526" lon="-6.261781">
        <ele>537.921</ele>
        <time>2017-09-22T08:45:37Z</time>
      </trkpt>
      <trkpt lat="41.489296" lon="-6.261551">
        <ele>540.485</ele>
        <time>2017-09-22T08:45:53Z</time>
      </trkpt>
      <trkpt lat="41.489110" lon="-6.261330">
        <ele>543.791</ele>
        <time>2017-09-22T08:46:09Z</time>
      </trkpt>
      <trkpt lat="41.488992" lon="-6.261060">
        <ele>545.235</ele>
        <time>2017-09-22T08:46:24Z</time>
      </trkpt>
      <trkpt lat="41.488927" lon="-6.260880">
        <ele>546.641</ele>
        <time>2017-09-22T08:46:34Z</time>
      </trkpt>
      <trkpt lat="41.488927" lon="-6.260862">
        <ele>546.681</ele>
        <time>2017-09-22T08:46:35Z</time>
      </trkpt>
      <trkpt lat="41.488930" lon="-6.260842">
        <ele>547.109</ele>
        <time>2017-09-22T08:46:36Z</time>
      </trkpt>
      <trkpt lat="41.488931" lon="-6.260822">
        <ele>547.108</ele>
        <time>2017-09-22T08:46:37Z</time>
      </trkpt>
      <trkpt lat="41.488930" lon="-6.260803">
        <ele>547.176</ele>
        <time>2017-09-22T08:46:38Z</time>
      </trkpt>
      <trkpt lat="41.488926" lon="-6.260780">
        <ele>547.614</ele>
        <time>2017-09-22T08:46:39Z</time>
      </trkpt>
      <trkpt lat="41.488923" lon="-6.260760">
        <ele>547.675</ele>
        <time>2017-09-22T08:46:40Z</time>
      </trkpt>
      <trkpt lat="41.488915" lon="-6.260601">
        <ele>548.567</ele>
        <time>2017-09-22T08:46:53Z</time>
      </trkpt>
      <trkpt lat="41.488937" lon="-6.260511">
        <ele>548.596</ele>
        <time>2017-09-22T08:47:06Z</time>
      </trkpt>
      <trkpt lat="41.488929" lon="-6.260489">
        <ele>549.010</ele>
        <time>2017-09-22T08:47:33Z</time>
      </trkpt>
      <trkpt lat="41.488906" lon="-6.260493">
        <ele>547.696</ele>
        <time>2017-09-22T08:48:02Z</time>
      </trkpt>
      <trkpt lat="41.488915" lon="-6.260487">
        <ele>547.670</ele>
        <time>2017-09-22T08:48:42Z</time>
      </trkpt>
      <trkpt lat="41.488905" lon="-6.260493">
        <ele>548.557</ele>
        <time>2017-09-22T08:49:29Z</time>
      </trkpt>
      <trkpt lat="41.488935" lon="-6.260457">
        <ele>547.100</ele>
        <time>2017-09-22T08:49:58Z</time>
      </trkpt>
      <trkpt lat="41.488946" lon="-6.260410">
        <ele>548.020</ele>
        <time>2017-09-22T08:50:11Z</time>
      </trkpt>
      <trkpt lat="41.488964" lon="-6.260384">
        <ele>548.008</ele>
        <time>2017-09-22T08:50:13Z</time>
      </trkpt>
      <trkpt lat="41.488970" lon="-6.260366">
        <ele>548.017</ele>
        <time>2017-09-22T08:50:14Z</time>
      </trkpt>
      <trkpt lat="41.488972" lon="-6.260348">
        <ele>548.045</ele>
        <time>2017-09-22T08:50:15Z</time>
      </trkpt>
      <trkpt lat="41.488972" lon="-6.260326">
        <ele>548.086</ele>
        <time>2017-09-22T08:50:16Z</time>
      </trkpt>
      <trkpt lat="41.488971" lon="-6.260303">
        <ele>548.578</ele>
        <time>2017-09-22T08:50:17Z</time>
      </trkpt>
      <trkpt lat="41.488971" lon="-6.260282">
        <ele>548.597</ele>
        <time>2017-09-22T08:50:18Z</time>
      </trkpt>
      <trkpt lat="41.488974" lon="-6.260261">
        <ele>548.511</ele>
        <time>2017-09-22T08:50:19Z</time>
      </trkpt>
      <trkpt lat="41.488977" lon="-6.260241">
        <ele>548.587</ele>
        <time>2017-09-22T08:50:20Z</time>
      </trkpt>
      <trkpt lat="41.488979" lon="-6.260218">
        <ele>549.041</ele>
        <time>2017-09-22T08:50:21Z</time>
      </trkpt>
      <trkpt lat="41.489050" lon="-6.259949">
        <ele>550.974</ele>
        <time>2017-09-22T08:50:34Z</time>
      </trkpt>
      <trkpt lat="41.489069" lon="-6.259640">
        <ele>551.456</ele>
        <time>2017-09-22T08:50:47Z</time>
      </trkpt>
      <trkpt lat="41.489019" lon="-6.259234">
        <ele>553.821</ele>
        <time>2017-09-22T08:51:04Z</time>
      </trkpt>
      <trkpt lat="41.488859" lon="-6.258941">
        <ele>555.708</ele>
        <time>2017-09-22T08:51:19Z</time>
      </trkpt>
      <trkpt lat="41.488609" lon="-6.258782">
        <ele>559.129</ele>
        <time>2017-09-22T08:51:36Z</time>
      </trkpt>
      <trkpt lat="41.488284" lon="-6.258879">
        <ele>562.597</ele>
        <time>2017-09-22T08:51:56Z</time>
      </trkpt>
      <trkpt lat="41.488016" lon="-6.259001">
        <ele>564.918</ele>
        <time>2017-09-22T08:52:14Z</time>
      </trkpt>
      <trkpt lat="41.487788" lon="-6.259032">
        <ele>565.880</ele>
        <time>2017-09-22T08:52:30Z</time>
      </trkpt>
      <trkpt lat="41.487776" lon="-6.259038">
        <ele>565.879</ele>
        <time>2017-09-22T08:52:31Z</time>
      </trkpt>
      <trkpt lat="41.487733" lon="-6.259034">
        <ele>566.333</ele>
        <time>2017-09-22T08:52:36Z</time>
      </trkpt>
      <trkpt lat="41.487716" lon="-6.259033">
        <ele>566.369</ele>
        <time>2017-09-22T08:52:37Z</time>
      </trkpt>
      <trkpt lat="41.487537" lon="-6.259041">
        <ele>568.283</ele>
        <time>2017-09-22T08:52:50Z</time>
      </trkpt>
      <trkpt lat="41.487273" lon="-6.259064">
        <ele>570.617</ele>
        <time>2017-09-22T08:53:08Z</time>
      </trkpt>
      <trkpt lat="41.486989" lon="-6.259076">
        <ele>574.087</ele>
        <time>2017-09-22T08:53:27Z</time>
      </trkpt>
      <trkpt lat="41.486962" lon="-6.259074">
        <ele>574.015</ele>
        <time>2017-09-22T08:53:29Z</time>
      </trkpt>
      <trkpt lat="41.486946" lon="-6.259069">
        <ele>574.008</ele>
        <time>2017-09-22T08:53:30Z</time>
      </trkpt>
      <trkpt lat="41.486928" lon="-6.259073">
        <ele>574.063</ele>
        <time>2017-09-22T08:53:31Z</time>
      </trkpt>
      <trkpt lat="41.486915" lon="-6.259076">
        <ele>574.081</ele>
        <time>2017-09-22T08:53:32Z</time>
      </trkpt>
      <trkpt lat="41.486899" lon="-6.259078">
        <ele>574.062</ele>
        <time>2017-09-22T08:53:33Z</time>
      </trkpt>
      <trkpt lat="41.486885" lon="-6.259079">
        <ele>574.044</ele>
        <time>2017-09-22T08:53:34Z</time>
      </trkpt>
      <trkpt lat="41.486808" lon="-6.259085">
        <ele>574.533</ele>
        <time>2017-09-22T08:53:39Z</time>
      </trkpt>
      <trkpt lat="41.486779" lon="-6.259075">
        <ele>574.567</ele>
        <time>2017-09-22T08:53:41Z</time>
      </trkpt>
      <trkpt lat="41.486733" lon="-6.259088">
        <ele>575.053</ele>
        <time>2017-09-22T08:53:44Z</time>
      </trkpt>
      <trkpt lat="41.486721" lon="-6.259094">
        <ele>575.087</ele>
        <time>2017-09-22T08:53:45Z</time>
      </trkpt>
      <trkpt lat="41.486704" lon="-6.259097">
        <ele>575.474</ele>
        <time>2017-09-22T08:53:46Z</time>
      </trkpt>
      <trkpt lat="41.486469" lon="-6.259105">
        <ele>577.856</ele>
        <time>2017-09-22T08:54:02Z</time>
      </trkpt>
      <trkpt lat="41.486202" lon="-6.259119">
        <ele>580.221</ele>
        <time>2017-09-22T08:54:20Z</time>
      </trkpt>
      <trkpt lat="41.485912" lon="-6.259116">
        <ele>584.108</ele>
        <time>2017-09-22T08:54:40Z</time>
      </trkpt>
      <trkpt lat="41.485667" lon="-6.259057">
        <ele>586.069</ele>
        <time>2017-09-22T08:54:57Z</time>
      </trkpt>
      <trkpt lat="41.485397" lon="-6.258915">
        <ele>586.037</ele>
        <time>2017-09-22T08:55:17Z</time>
      </trkpt>
      <trkpt lat="41.485276" lon="-6.258811">
        <ele>587.568</ele>
        <time>2017-09-22T08:55:26Z</time>
      </trkpt>
      <trkpt lat="41.485262" lon="-6.258799">
        <ele>587.580</ele>
        <time>2017-09-22T08:55:27Z</time>
      </trkpt>
      <trkpt lat="41.485249" lon="-6.258787">
        <ele>587.949</ele>
        <time>2017-09-22T08:55:28Z</time>
      </trkpt>
      <trkpt lat="41.485107" lon="-6.258597">
        <ele>587.973</ele>
        <time>2017-09-22T08:55:41Z</time>
      </trkpt>
      <trkpt lat="41.484952" lon="-6.258319">
        <ele>589.989</ele>
        <time>2017-09-22T08:55:58Z</time>
      </trkpt>
      <trkpt lat="41.484855" lon="-6.258034">
        <ele>590.863</ele>
        <time>2017-09-22T08:56:14Z</time>
      </trkpt>
      <trkpt lat="41.484817" lon="-6.257932">
        <ele>591.897</ele>
        <time>2017-09-22T08:56:20Z</time>
      </trkpt>
      <trkpt lat="41.484761" lon="-6.257674">
        <ele>593.223</ele>
        <time>2017-09-22T08:56:34Z</time>
      </trkpt>
      <trkpt lat="41.484667" lon="-6.257396">
        <ele>595.625</ele>
        <time>2017-09-22T08:56:50Z</time>
      </trkpt>
      <trkpt lat="41.484515" lon="-6.257113">
        <ele>598.508</ele>
        <time>2017-09-22T08:57:07Z</time>
      </trkpt>
      <trkpt lat="41.484344" lon="-6.256912">
        <ele>599.521</ele>
        <time>2017-09-22T08:57:23Z</time>
      </trkpt>
      <trkpt lat="41.484157" lon="-6.256733">
        <ele>600.949</ele>
        <time>2017-09-22T08:57:38Z</time>
      </trkpt>
      <trkpt lat="41.483939" lon="-6.256528">
        <ele>602.450</ele>
        <time>2017-09-22T08:57:56Z</time>
      </trkpt>
      <trkpt lat="41.483735" lon="-6.256347">
        <ele>604.312</ele>
        <time>2017-09-22T08:58:13Z</time>
      </trkpt>
      <trkpt lat="41.483539" lon="-6.256164">
        <ele>608.161</ele>
        <time>2017-09-22T08:58:30Z</time>
      </trkpt>
      <trkpt lat="41.483347" lon="-6.255998">
        <ele>610.585</ele>
        <time>2017-09-22T08:58:45Z</time>
      </trkpt>
      <trkpt lat="41.483121" lon="-6.255789">
        <ele>612.551</ele>
        <time>2017-09-22T08:59:04Z</time>
      </trkpt>
      <trkpt lat="41.482931" lon="-6.255613">
        <ele>613.915</ele>
        <time>2017-09-22T08:59:21Z</time>
      </trkpt>
      <trkpt lat="41.482734" lon="-6.255440">
        <ele>615.343</ele>
        <time>2017-09-22T08:59:37Z</time>
      </trkpt>
      <trkpt lat="41.482548" lon="-6.255258">
        <ele>616.864</ele>
        <time>2017-09-22T08:59:53Z</time>
      </trkpt>
      <trkpt lat="41.482393" lon="-6.255063">
        <ele>618.710</ele>
        <time>2017-09-22T09:00:08Z</time>
      </trkpt>
      <trkpt lat="41.482246" lon="-6.254855">
        <ele>620.108</ele>
        <time>2017-09-22T09:00:23Z</time>
      </trkpt>
      <trkpt lat="41.482097" lon="-6.254582">
        <ele>622.126</ele>
        <time>2017-09-22T09:00:39Z</time>
      </trkpt>
      <trkpt lat="41.481950" lon="-6.254317">
        <ele>624.564</ele>
        <time>2017-09-22T09:00:56Z</time>
      </trkpt>
      <trkpt lat="41.481832" lon="-6.254100">
        <ele>625.915</ele>
        <time>2017-09-22T09:01:10Z</time>
      </trkpt>
      <trkpt lat="41.481683" lon="-6.253838">
        <ele>626.997</ele>
        <time>2017-09-22T09:01:27Z</time>
      </trkpt>
      <trkpt lat="41.481504" lon="-6.253587">
        <ele>627.866</ele>
        <time>2017-09-22T09:01:45Z</time>
      </trkpt>
      <trkpt lat="41.481306" lon="-6.253401">
        <ele>630.270</ele>
        <time>2017-09-22T09:02:02Z</time>
      </trkpt>
      <trkpt lat="41.481292" lon="-6.253393">
        <ele>630.746</ele>
        <time>2017-09-22T09:02:03Z</time>
      </trkpt>
      <trkpt lat="41.481048" lon="-6.253309">
        <ele>633.620</ele>
        <time>2017-09-22T09:02:20Z</time>
      </trkpt>
      <trkpt lat="41.480779" lon="-6.253287">
        <ele>636.546</ele>
        <time>2017-09-22T09:02:38Z</time>
      </trkpt>
      <trkpt lat="41.480516" lon="-6.253275">
        <ele>638.988</ele>
        <time>2017-09-22T09:02:57Z</time>
      </trkpt>
      <trkpt lat="41.480254" lon="-6.253261">
        <ele>640.816</ele>
        <time>2017-09-22T09:03:15Z</time>
      </trkpt>
      <trkpt lat="41.479989" lon="-6.253225">
        <ele>642.708</ele>
        <time>2017-09-22T09:03:34Z</time>
      </trkpt>
      <trkpt lat="41.479787" lon="-6.253139">
        <ele>643.796</ele>
        <time>2017-09-22T09:03:49Z</time>
      </trkpt>
      <trkpt lat="41.479560" lon="-6.252958">
        <ele>645.674</ele>
        <time>2017-09-22T09:04:07Z</time>
      </trkpt>
      <trkpt lat="41.479422" lon="-6.252750">
        <ele>647.195</ele>
        <time>2017-09-22T09:04:21Z</time>
      </trkpt>
      <trkpt lat="41.479300" lon="-6.252445">
        <ele>648.047</ele>
        <time>2017-09-22T09:04:38Z</time>
      </trkpt>
      <trkpt lat="41.479290" lon="-6.252412">
        <ele>648.076</ele>
        <time>2017-09-22T09:04:40Z</time>
      </trkpt>
      <trkpt lat="41.479283" lon="-6.252395">
        <ele>648.590</ele>
        <time>2017-09-22T09:04:41Z</time>
      </trkpt>
      <trkpt lat="41.479278" lon="-6.252377">
        <ele>648.556</ele>
        <time>2017-09-22T09:04:42Z</time>
      </trkpt>
      <trkpt lat="41.479271" lon="-6.252359">
        <ele>648.520</ele>
        <time>2017-09-22T09:04:43Z</time>
      </trkpt>
      <trkpt lat="41.479266" lon="-6.252340">
        <ele>648.598</ele>
        <time>2017-09-22T09:04:44Z</time>
      </trkpt>
      <trkpt lat="41.479260" lon="-6.252320">
        <ele>649.015</ele>
        <time>2017-09-22T09:04:45Z</time>
      </trkpt>
      <trkpt lat="41.479255" lon="-6.252302">
        <ele>649.026</ele>
        <time>2017-09-22T09:04:46Z</time>
      </trkpt>
      <trkpt lat="41.479251" lon="-6.252285">
        <ele>649.008</ele>
        <time>2017-09-22T09:04:47Z</time>
      </trkpt>
      <trkpt lat="41.479245" lon="-6.252266">
        <ele>649.511</ele>
        <time>2017-09-22T09:04:48Z</time>
      </trkpt>
      <trkpt lat="41.479220" lon="-6.251971">
        <ele>650.949</ele>
        <time>2017-09-22T09:05:04Z</time>
      </trkpt>
      <trkpt lat="41.479241" lon="-6.251726">
        <ele>652.830</ele>
        <time>2017-09-22T09:05:17Z</time>
      </trkpt>
      <trkpt lat="41.479311" lon="-6.251450">
        <ele>654.822</ele>
        <time>2017-09-22T09:05:32Z</time>
      </trkpt>
      <trkpt lat="41.479433" lon="-6.251092">
        <ele>657.291</ele>
        <time>2017-09-22T09:05:51Z</time>
      </trkpt>
      <trkpt lat="41.479544" lon="-6.250750">
        <ele>659.635</ele>
        <time>2017-09-22T09:06:10Z</time>
      </trkpt>
      <trkpt lat="41.479652" lon="-6.250426">
        <ele>661.521</ele>
        <time>2017-09-22T09:06:28Z</time>
      </trkpt>
      <trkpt lat="41.479753" lon="-6.250112">
        <ele>663.425</ele>
        <time>2017-09-22T09:06:45Z</time>
      </trkpt>
      <trkpt lat="41.479839" lon="-6.249786">
        <ele>666.354</ele>
        <time>2017-09-22T09:07:03Z</time>
      </trkpt>
      <trkpt lat="41.479870" lon="-6.249487">
        <ele>667.256</ele>
        <time>2017-09-22T09:07:19Z</time>
      </trkpt>
      <trkpt lat="41.479827" lon="-6.249202">
        <ele>668.211</ele>
        <time>2017-09-22T09:07:34Z</time>
      </trkpt>
      <trkpt lat="41.479762" lon="-6.249009">
        <ele>669.708</ele>
        <time>2017-09-22T09:07:45Z</time>
      </trkpt>
      <trkpt lat="41.479648" lon="-6.248863">
        <ele>671.157</ele>
        <time>2017-09-22T09:07:56Z</time>
      </trkpt>
      <trkpt lat="41.479637" lon="-6.248849">
        <ele>671.675</ele>
        <time>2017-09-22T09:07:57Z</time>
      </trkpt>
      <trkpt lat="41.479622" lon="-6.248840">
        <ele>671.146</ele>
        <time>2017-09-22T09:07:58Z</time>
      </trkpt>
      <trkpt lat="41.479609" lon="-6.248827">
        <ele>671.148</ele>
        <time>2017-09-22T09:07:59Z</time>
      </trkpt>
      <trkpt lat="41.479597" lon="-6.248816">
        <ele>671.157</ele>
        <time>2017-09-22T09:08:00Z</time>
      </trkpt>
      <trkpt lat="41.479584" lon="-6.248806">
        <ele>671.181</ele>
        <time>2017-09-22T09:08:01Z</time>
      </trkpt>
      <trkpt lat="41.479572" lon="-6.248798">
        <ele>671.117</ele>
        <time>2017-09-22T09:08:02Z</time>
      </trkpt>
      <trkpt lat="41.479305" lon="-6.248664">
        <ele>673.041</ele>
        <time>2017-09-22T09:08:22Z</time>
      </trkpt>
      <trkpt lat="41.479052" lon="-6.248695">
        <ele>675.975</ele>
        <time>2017-09-22T09:08:40Z</time>
      </trkpt>
      <trkpt lat="41.478821" lon="-6.248857">
        <ele>678.828</ele>
        <time>2017-09-22T09:08:58Z</time>
      </trkpt>
      <trkpt lat="41.478639" lon="-6.249032">
        <ele>679.320</ele>
        <time>2017-09-22T09:09:14Z</time>
      </trkpt>
      <trkpt lat="41.478472" lon="-6.249245">
        <ele>681.208</ele>
        <time>2017-09-22T09:09:31Z</time>
      </trkpt>
      <trkpt lat="41.478336" lon="-6.249396">
        <ele>683.189</ele>
        <time>2017-09-22T09:09:43Z</time>
      </trkpt>
      <trkpt lat="41.478158" lon="-6.249619">
        <ele>685.537</ele>
        <time>2017-09-22T09:10:00Z</time>
      </trkpt>
      <trkpt lat="41.478002" lon="-6.249801">
        <ele>687.028</ele>
        <time>2017-09-22T09:10:14Z</time>
      </trkpt>
      <trkpt lat="41.477779" lon="-6.250016">
        <ele>688.470</ele>
        <time>2017-09-22T09:10:33Z</time>
      </trkpt>
      <trkpt lat="41.477578" lon="-6.250126">
        <ele>688.979</ele>
        <time>2017-09-22T09:10:47Z</time>
      </trkpt>
      <trkpt lat="41.477337" lon="-6.250208">
        <ele>690.373</ele>
        <time>2017-09-22T09:11:03Z</time>
      </trkpt>
      <trkpt lat="41.477065" lon="-6.250201">
        <ele>692.219</ele>
        <time>2017-09-22T09:11:20Z</time>
      </trkpt>
      <trkpt lat="41.476802" lon="-6.250078">
        <ele>693.263</ele>
        <time>2017-09-22T09:11:36Z</time>
      </trkpt>
      <trkpt lat="41.476539" lon="-6.249854">
        <ele>694.661</ele>
        <time>2017-09-22T09:11:52Z</time>
      </trkpt>
      <trkpt lat="41.476364" lon="-6.249536">
        <ele>696.121</ele>
        <time>2017-09-22T09:12:07Z</time>
      </trkpt>
      <trkpt lat="41.476235" lon="-6.249117">
        <ele>696.613</ele>
        <time>2017-09-22T09:12:24Z</time>
      </trkpt>
      <trkpt lat="41.476178" lon="-6.248682">
        <ele>696.608</ele>
        <time>2017-09-22T09:12:41Z</time>
      </trkpt>
      <trkpt lat="41.476178" lon="-6.248654">
        <ele>696.618</ele>
        <time>2017-09-22T09:12:42Z</time>
      </trkpt>
      <trkpt lat="41.476135" lon="-6.248223">
        <ele>698.026</ele>
        <time>2017-09-22T09:12:57Z</time>
      </trkpt>
      <trkpt lat="41.476099" lon="-6.247746">
        <ele>699.087</ele>
        <time>2017-09-22T09:13:14Z</time>
      </trkpt>
      <trkpt lat="41.476055" lon="-6.247225">
        <ele>699.999</ele>
        <time>2017-09-22T09:13:33Z</time>
      </trkpt>
      <trkpt lat="41.476012" lon="-6.246703">
        <ele>701.988</ele>
        <time>2017-09-22T09:13:54Z</time>
      </trkpt>
      <trkpt lat="41.475974" lon="-6.246229">
        <ele>704.392</ele>
        <time>2017-09-22T09:14:15Z</time>
      </trkpt>
      <trkpt lat="41.475934" lon="-6.245826">
        <ele>706.288</ele>
        <time>2017-09-22T09:14:34Z</time>
      </trkpt>
      <trkpt lat="41.475911" lon="-6.245470">
        <ele>708.192</ele>
        <time>2017-09-22T09:14:51Z</time>
      </trkpt>
      <trkpt lat="41.475900" lon="-6.245367">
        <ele>708.175</ele>
        <time>2017-09-22T09:14:56Z</time>
      </trkpt>
      <trkpt lat="41.475900" lon="-6.245345">
        <ele>708.628</ele>
        <time>2017-09-22T09:14:57Z</time>
      </trkpt>
      <trkpt lat="41.475872" lon="-6.245004">
        <ele>710.520</ele>
        <time>2017-09-22T09:15:14Z</time>
      </trkpt>
      <trkpt lat="41.475854" lon="-6.244666">
        <ele>712.408</ele>
        <time>2017-09-22T09:15:31Z</time>
      </trkpt>
      <trkpt lat="41.475819" lon="-6.244339">
        <ele>713.919</ele>
        <time>2017-09-22T09:15:48Z</time>
      </trkpt>
      <trkpt lat="41.475784" lon="-6.243968">
        <ele>715.847</ele>
        <time>2017-09-22T09:16:06Z</time>
      </trkpt>
      <trkpt lat="41.475756" lon="-6.243596">
        <ele>717.238</ele>
        <time>2017-09-22T09:16:24Z</time>
      </trkpt>
      <trkpt lat="41.475729" lon="-6.243251">
        <ele>718.710</ele>
        <time>2017-09-22T09:16:41Z</time>
      </trkpt>
      <trkpt lat="41.475698" lon="-6.242911">
        <ele>720.189</ele>
        <time>2017-09-22T09:16:58Z</time>
      </trkpt>
      <trkpt lat="41.475673" lon="-6.242587">
        <ele>721.613</ele>
        <time>2017-09-22T09:17:14Z</time>
      </trkpt>
      <trkpt lat="41.475650" lon="-6.242248">
        <ele>723.519</ele>
        <time>2017-09-22T09:17:30Z</time>
      </trkpt>
      <trkpt lat="41.475616" lon="-6.241902">
        <ele>724.443</ele>
        <time>2017-09-22T09:17:47Z</time>
      </trkpt>
      <trkpt lat="41.475580" lon="-6.241489">
        <ele>726.483</ele>
        <time>2017-09-22T09:18:07Z</time>
      </trkpt>
      <trkpt lat="41.475554" lon="-6.241104">
        <ele>727.825</ele>
        <time>2017-09-22T09:18:26Z</time>
      </trkpt>
      <trkpt lat="41.475519" lon="-6.240727">
        <ele>729.317</ele>
        <time>2017-09-22T09:18:43Z</time>
      </trkpt>
      <trkpt lat="41.475491" lon="-6.240264">
        <ele>730.708</ele>
        <time>2017-09-22T09:19:02Z</time>
      </trkpt>
      <trkpt lat="41.475465" lon="-6.239866">
        <ele>732.180</ele>
        <time>2017-09-22T09:19:19Z</time>
      </trkpt>
      <trkpt lat="41.475435" lon="-6.239447">
        <ele>733.118</ele>
        <time>2017-09-22T09:19:35Z</time>
      </trkpt>
      <trkpt lat="41.475430" lon="-6.239174">
        <ele>734.139</ele>
        <time>2017-09-22T09:19:46Z</time>
      </trkpt>
      <trkpt lat="41.475406" lon="-6.238621">
        <ele>735.041</ele>
        <time>2017-09-22T09:20:05Z</time>
      </trkpt>
      <trkpt lat="41.475397" lon="-6.238094">
        <ele>736.530</ele>
        <time>2017-09-22T09:20:23Z</time>
      </trkpt>
      <trkpt lat="41.475390" lon="-6.237599">
        <ele>737.484</ele>
        <time>2017-09-22T09:20:40Z</time>
      </trkpt>
      <trkpt lat="41.475375" lon="-6.237088">
        <ele>737.990</ele>
        <time>2017-09-22T09:20:57Z</time>
      </trkpt>
      <trkpt lat="41.475360" lon="-6.236575">
        <ele>738.934</ele>
        <time>2017-09-22T09:21:14Z</time>
      </trkpt>
      <trkpt lat="41.475288" lon="-6.236490">
        <ele>738.926</ele>
        <time>2017-09-22T09:21:18Z</time>
      </trkpt>
      <trkpt lat="41.475262" lon="-6.236485">
        <ele>738.947</ele>
        <time>2017-09-22T09:21:19Z</time>
      </trkpt>
      <trkpt lat="41.475244" lon="-6.236486">
        <ele>738.411</ele>
        <time>2017-09-22T09:21:20Z</time>
      </trkpt>
      <trkpt lat="41.475222" lon="-6.236490">
        <ele>738.408</ele>
        <time>2017-09-22T09:21:21Z</time>
      </trkpt>
      <trkpt lat="41.475202" lon="-6.236498">
        <ele>738.924</ele>
        <time>2017-09-22T09:21:22Z</time>
      </trkpt>
      <trkpt lat="41.475184" lon="-6.236509">
        <ele>738.952</ele>
        <time>2017-09-22T09:21:23Z</time>
      </trkpt>
      <trkpt lat="41.474838" lon="-6.236710">
        <ele>740.323</ele>
        <time>2017-09-22T09:21:37Z</time>
      </trkpt>
      <trkpt lat="41.474326" lon="-6.236989">
        <ele>741.725</ele>
        <time>2017-09-22T09:21:54Z</time>
      </trkpt>
      <trkpt lat="41.473813" lon="-6.237283">
        <ele>743.784</ele>
        <time>2017-09-22T09:22:12Z</time>
      </trkpt>
      <trkpt lat="41.473387" lon="-6.237524">
        <ele>745.648</ele>
        <time>2017-09-22T09:22:29Z</time>
      </trkpt>
      <trkpt lat="41.472879" lon="-6.237868">
        <ele>746.134</ele>
        <time>2017-09-22T09:22:51Z</time>
      </trkpt>
      <trkpt lat="41.472501" lon="-6.238297">
        <ele>745.148</ele>
        <time>2017-09-22T09:23:05Z</time>
      </trkpt>
      <trkpt lat="41.472470" lon="-6.238335">
        <ele>744.634</ele>
        <time>2017-09-22T09:23:06Z</time>
      </trkpt>
      <trkpt lat="41.471829" lon="-6.239078">
        <ele>743.755</ele>
        <time>2017-09-22T09:23:26Z</time>
      </trkpt>
      <trkpt lat="41.471121" lon="-6.239905">
        <ele>741.710</ele>
        <time>2017-09-22T09:23:43Z</time>
      </trkpt>
      <trkpt lat="41.470320" lon="-6.241048">
        <ele>739.308</ele>
        <time>2017-09-22T09:24:02Z</time>
      </trkpt>
      <trkpt lat="41.469690" lon="-6.241953">
        <ele>738.925</ele>
        <time>2017-09-22T09:24:20Z</time>
      </trkpt>
      <trkpt lat="41.469120" lon="-6.242745">
        <ele>739.323</ele>
        <time>2017-09-22T09:24:38Z</time>
      </trkpt>
      <trkpt lat="41.468533" lon="-6.243433">
        <ele>740.384</ele>
        <time>2017-09-22T09:24:57Z</time>
      </trkpt>
      <trkpt lat="41.467768" lon="-6.244005">
        <ele>739.336</ele>
        <time>2017-09-22T09:25:16Z</time>
      </trkpt>
      <trkpt lat="41.467083" lon="-6.244532">
        <ele>740.315</ele>
        <time>2017-09-22T09:25:34Z</time>
      </trkpt>
      <trkpt lat="41.466349" lon="-6.245090">
        <ele>740.839</ele>
        <time>2017-09-22T09:25:55Z</time>
      </trkpt>
      <trkpt lat="41.465777" lon="-6.245522">
        <ele>739.365</ele>
        <time>2017-09-22T09:26:10Z</time>
      </trkpt>
      <trkpt lat="41.464996" lon="-6.246125">
        <ele>734.199</ele>
        <time>2017-09-22T09:26:23Z</time>
      </trkpt>
      <trkpt lat="41.463878" lon="-6.246975">
        <ele>726.427</ele>
        <time>2017-09-22T09:26:37Z</time>
      </trkpt>
      <trkpt lat="41.462534" lon="-6.248090">
        <ele>723.068</ele>
        <time>2017-09-22T09:26:54Z</time>
      </trkpt>
      <trkpt lat="41.461634" lon="-6.248918">
        <ele>722.514</ele>
        <time>2017-09-22T09:27:10Z</time>
      </trkpt>
      <trkpt lat="41.460870" lon="-6.249636">
        <ele>722.008</ele>
        <time>2017-09-22T09:27:28Z</time>
      </trkpt>
      <trkpt lat="41.460028" lon="-6.250405">
        <ele>714.494</ele>
        <time>2017-09-22T09:27:42Z</time>
      </trkpt>
      <trkpt lat="41.459117" lon="-6.251242">
        <ele>705.742</ele>
        <time>2017-09-22T09:27:53Z</time>
      </trkpt>
      <trkpt lat="41.457661" lon="-6.252617">
        <ele>701.433</ele>
        <time>2017-09-22T09:28:10Z</time>
      </trkpt>
      <trkpt lat="41.457043" lon="-6.253519">
        <ele>701.435</ele>
        <time>2017-09-22T09:28:22Z</time>
      </trkpt>
      <trkpt lat="41.456554" lon="-6.254589">
        <ele>702.824</ele>
        <time>2017-09-22T09:28:39Z</time>
      </trkpt>
      <trkpt lat="41.456535" lon="-6.254651">
        <ele>702.818</ele>
        <time>2017-09-22T09:28:40Z</time>
      </trkpt>
      <trkpt lat="41.456522" lon="-6.254711">
        <ele>702.864</ele>
        <time>2017-09-22T09:28:41Z</time>
      </trkpt>
      <trkpt lat="41.456477" lon="-6.255052">
        <ele>701.998</ele>
        <time>2017-09-22T09:28:46Z</time>
      </trkpt>
      <trkpt lat="41.456448" lon="-6.255124">
        <ele>701.476</ele>
        <time>2017-09-22T09:28:47Z</time>
      </trkpt>
      <trkpt lat="41.456407" lon="-6.255186">
        <ele>700.490</ele>
        <time>2017-09-22T09:28:48Z</time>
      </trkpt>
      <trkpt lat="41.456350" lon="-6.255239">
        <ele>699.919</ele>
        <time>2017-09-22T09:28:49Z</time>
      </trkpt>
      <trkpt lat="41.456287" lon="-6.255277">
        <ele>699.508</ele>
        <time>2017-09-22T09:28:50Z</time>
      </trkpt>
      <trkpt lat="41.456220" lon="-6.255299">
        <ele>699.559</ele>
        <time>2017-09-22T09:28:51Z</time>
      </trkpt>
      <trkpt lat="41.456152" lon="-6.255311">
        <ele>699.057</ele>
        <time>2017-09-22T09:28:52Z</time>
      </trkpt>
      <trkpt lat="41.456087" lon="-6.255318">
        <ele>699.018</ele>
        <time>2017-09-22T09:28:53Z</time>
      </trkpt>
      <trkpt lat="41.455894" lon="-6.255318">
        <ele>698.520</ele>
        <time>2017-09-22T09:28:56Z</time>
      </trkpt>
      <trkpt lat="41.455835" lon="-6.255303">
        <ele>698.599</ele>
        <time>2017-09-22T09:28:57Z</time>
      </trkpt>
      <trkpt lat="41.455407" lon="-6.255182">
        <ele>696.663</ele>
        <time>2017-09-22T09:29:04Z</time>
      </trkpt>
      <trkpt lat="41.455342" lon="-6.255183">
        <ele>696.159</ele>
        <time>2017-09-22T09:29:05Z</time>
      </trkpt>
      <trkpt lat="41.455280" lon="-6.255192">
        <ele>696.163</ele>
        <time>2017-09-22T09:29:06Z</time>
      </trkpt>
      <trkpt lat="41.455219" lon="-6.255208">
        <ele>695.698</ele>
        <time>2017-09-22T09:29:07Z</time>
      </trkpt>
      <trkpt lat="41.455150" lon="-6.255231">
        <ele>695.615</ele>
        <time>2017-09-22T09:29:08Z</time>
      </trkpt>
      <trkpt lat="41.454087" lon="-6.255641">
        <ele>692.726</ele>
        <time>2017-09-22T09:29:24Z</time>
      </trkpt>
      <trkpt lat="41.453828" lon="-6.255790">
        <ele>691.808</ele>
        <time>2017-09-22T09:29:28Z</time>
      </trkpt>
      <trkpt lat="41.453350" lon="-6.256202">
        <ele>690.811</ele>
        <time>2017-09-22T09:29:36Z</time>
      </trkpt>
      <trkpt lat="41.453295" lon="-6.256225">
        <ele>690.349</ele>
        <time>2017-09-22T09:29:37Z</time>
      </trkpt>
      <trkpt lat="41.453230" lon="-6.256237">
        <ele>690.310</ele>
        <time>2017-09-22T09:29:38Z</time>
      </trkpt>
      <trkpt lat="41.453168" lon="-6.256233">
        <ele>690.372</ele>
        <time>2017-09-22T09:29:39Z</time>
      </trkpt>
      <trkpt lat="41.453103" lon="-6.256214">
        <ele>689.831</ele>
        <time>2017-09-22T09:29:40Z</time>
      </trkpt>
      <trkpt lat="41.453038" lon="-6.256183">
        <ele>689.485</ele>
        <time>2017-09-22T09:29:41Z</time>
      </trkpt>
      <trkpt lat="41.452973" lon="-6.256147">
        <ele>688.951</ele>
        <time>2017-09-22T09:29:42Z</time>
      </trkpt>
      <trkpt lat="41.452372" lon="-6.255533">
        <ele>685.515</ele>
        <time>2017-09-22T09:29:52Z</time>
      </trkpt>
      <trkpt lat="41.452272" lon="-6.255362">
        <ele>685.081</ele>
        <time>2017-09-22T09:29:55Z</time>
      </trkpt>
      <trkpt lat="41.452233" lon="-6.255317">
        <ele>685.061</ele>
        <time>2017-09-22T09:29:56Z</time>
      </trkpt>
      <trkpt lat="41.452189" lon="-6.255295">
        <ele>685.017</ele>
        <time>2017-09-22T09:29:57Z</time>
      </trkpt>
      <trkpt lat="41.452139" lon="-6.255293">
        <ele>685.008</ele>
        <time>2017-09-22T09:29:58Z</time>
      </trkpt>
      <trkpt lat="41.452114" lon="-6.255303">
        <ele>685.060</ele>
        <time>2017-09-22T09:29:59Z</time>
      </trkpt>
      <trkpt lat="41.452087" lon="-6.255325">
        <ele>685.088</ele>
        <time>2017-09-22T09:30:00Z</time>
      </trkpt>
      <trkpt lat="41.452070" lon="-6.255347">
        <ele>685.569</ele>
        <time>2017-09-22T09:30:01Z</time>
      </trkpt>
      <trkpt lat="41.452059" lon="-6.255367">
        <ele>685.551</ele>
        <time>2017-09-22T09:30:02Z</time>
      </trkpt>
      <trkpt lat="41.452062" lon="-6.255387">
        <ele>685.060</ele>
        <time>2017-09-22T09:30:11Z</time>
      </trkpt>
      <trkpt lat="41.452072" lon="-6.255386">
        <ele>686.534</ele>
        <time>2017-09-22T09:30:23Z</time>
      </trkpt>
      <trkpt lat="41.452083" lon="-6.255385">
        <ele>687.980</ele>
        <time>2017-09-22T09:30:41Z</time>
      </trkpt>
      <trkpt lat="41.452106" lon="-6.255366">
        <ele>688.914</ele>
        <time>2017-09-22T09:30:56Z</time>
      </trkpt>
      <trkpt lat="41.452107" lon="-6.255340">
        <ele>689.458</ele>
        <time>2017-09-22T09:31:02Z</time>
      </trkpt>
      <trkpt lat="41.452083" lon="-6.255348">
        <ele>689.452</ele>
        <time>2017-09-22T09:31:06Z</time>
      </trkpt>
      <trkpt lat="41.452069" lon="-6.255395">
        <ele>688.917</ele>
        <time>2017-09-22T09:31:22Z</time>
      </trkpt>
      <trkpt lat="41.452073" lon="-6.255415">
        <ele>688.908</ele>
        <time>2017-09-22T09:31:40Z</time>
      </trkpt>
      <trkpt lat="41.452064" lon="-6.255402">
        <ele>688.917</ele>
        <time>2017-09-22T09:32:06Z</time>
      </trkpt>
      <trkpt lat="41.452073" lon="-6.255410">
        <ele>687.955</ele>
        <time>2017-09-22T09:32:34Z</time>
      </trkpt>
      <trkpt lat="41.452065" lon="-6.255405">
        <ele>689.486</ele>
        <time>2017-09-22T09:33:19Z</time>
      </trkpt>
      <trkpt lat="41.452052" lon="-6.255411">
        <ele>688.498</ele>
        <time>2017-09-22T09:34:02Z</time>
      </trkpt>
      <trkpt lat="41.452056" lon="-6.255415">
        <ele>690.397</ele>
        <time>2017-09-22T09:34:48Z</time>
      </trkpt>
      <trkpt lat="41.452070" lon="-6.255396">
        <ele>690.381</ele>
        <time>2017-09-22T09:35:27Z</time>
      </trkpt>
      <trkpt lat="41.452018" lon="-6.255370">
        <ele>690.837</ele>
        <time>2017-09-22T09:35:41Z</time>
      </trkpt>
      <trkpt lat="41.452006" lon="-6.255371">
        <ele>690.861</ele>
        <time>2017-09-22T09:35:42Z</time>
      </trkpt>
      <trkpt lat="41.451988" lon="-6.255376">
        <ele>690.857</ele>
        <time>2017-09-22T09:35:43Z</time>
      </trkpt>
      <trkpt lat="41.451969" lon="-6.255384">
        <ele>690.300</ele>
        <time>2017-09-22T09:35:44Z</time>
      </trkpt>
      <trkpt lat="41.451946" lon="-6.255393">
        <ele>690.320</ele>
        <time>2017-09-22T09:35:45Z</time>
      </trkpt>
      <trkpt lat="41.451456" lon="-6.255712">
        <ele>688.408</ele>
        <time>2017-09-22T09:36:01Z</time>
      </trkpt>
      <trkpt lat="41.450819" lon="-6.256116">
        <ele>689.477</ele>
        <time>2017-09-22T09:36:22Z</time>
      </trkpt>
      <trkpt lat="41.450448" lon="-6.256242">
        <ele>691.345</ele>
        <time>2017-09-22T09:36:39Z</time>
      </trkpt>
      <trkpt lat="41.450049" lon="-6.256250">
        <ele>692.746</ele>
        <time>2017-09-22T09:36:59Z</time>
      </trkpt>
      <trkpt lat="41.449720" lon="-6.256158">
        <ele>693.758</ele>
        <time>2017-09-22T09:37:16Z</time>
      </trkpt>
      <trkpt lat="41.449440" lon="-6.255932">
        <ele>694.227</ele>
        <time>2017-09-22T09:37:32Z</time>
      </trkpt>
      <trkpt lat="41.449157" lon="-6.255804">
        <ele>695.191</ele>
        <time>2017-09-22T09:37:47Z</time>
      </trkpt>
      <trkpt lat="41.449137" lon="-6.255811">
        <ele>695.167</ele>
        <time>2017-09-22T09:37:48Z</time>
      </trkpt>
      <trkpt lat="41.449119" lon="-6.255816">
        <ele>695.651</ele>
        <time>2017-09-22T09:37:49Z</time>
      </trkpt>
      <trkpt lat="41.449099" lon="-6.255817">
        <ele>695.664</ele>
        <time>2017-09-22T09:37:50Z</time>
      </trkpt>
      <trkpt lat="41.449080" lon="-6.255814">
        <ele>695.606</ele>
        <time>2017-09-22T09:37:51Z</time>
      </trkpt>
      <trkpt lat="41.448970" lon="-6.255847">
        <ele>697.016</ele>
        <time>2017-09-22T09:37:57Z</time>
      </trkpt>
      <trkpt lat="41.448762" lon="-6.256129">
        <ele>699.008</ele>
        <time>2017-09-22T09:38:13Z</time>
      </trkpt>
      <trkpt lat="41.448644" lon="-6.256482">
        <ele>698.548</ele>
        <time>2017-09-22T09:38:26Z</time>
      </trkpt>
      <trkpt lat="41.448507" lon="-6.256803">
        <ele>697.536</ele>
        <time>2017-09-22T09:38:33Z</time>
      </trkpt>
      <trkpt lat="41.448478" lon="-6.256847">
        <ele>697.527</ele>
        <time>2017-09-22T09:38:34Z</time>
      </trkpt>
      <trkpt lat="41.448445" lon="-6.256887">
        <ele>697.589</ele>
        <time>2017-09-22T09:38:35Z</time>
      </trkpt>
      <trkpt lat="41.448406" lon="-6.256925">
        <ele>697.588</ele>
        <time>2017-09-22T09:38:36Z</time>
      </trkpt>
      <trkpt lat="41.448366" lon="-6.256956">
        <ele>698.022</ele>
        <time>2017-09-22T09:38:37Z</time>
      </trkpt>
      <trkpt lat="41.448321" lon="-6.256980">
        <ele>698.078</ele>
        <time>2017-09-22T09:38:38Z</time>
      </trkpt>
      <trkpt lat="41.448276" lon="-6.256999">
        <ele>698.012</ele>
        <time>2017-09-22T09:38:39Z</time>
      </trkpt>
      <trkpt lat="41.447525" lon="-6.257226">
        <ele>697.048</ele>
        <time>2017-09-22T09:38:55Z</time>
      </trkpt>
      <trkpt lat="41.446736" lon="-6.257176">
        <ele>695.661</ele>
        <time>2017-09-22T09:39:09Z</time>
      </trkpt>
      <trkpt lat="41.446689" lon="-6.257184">
        <ele>695.617</ele>
        <time>2017-09-22T09:39:10Z</time>
      </trkpt>
      <trkpt lat="41.446639" lon="-6.257199">
        <ele>695.608</ele>
        <time>2017-09-22T09:39:11Z</time>
      </trkpt>
      <trkpt lat="41.445955" lon="-6.257535">
        <ele>697.066</ele>
        <time>2017-09-22T09:39:25Z</time>
      </trkpt>
      <trkpt lat="41.445425" lon="-6.257796">
        <ele>699.594</ele>
        <time>2017-09-22T09:39:43Z</time>
      </trkpt>
      <trkpt lat="41.444797" lon="-6.258137">
        <ele>699.025</ele>
        <time>2017-09-22T09:40:02Z</time>
      </trkpt>
      <trkpt lat="41.444042" lon="-6.258579">
        <ele>698.057</ele>
        <time>2017-09-22T09:40:20Z</time>
      </trkpt>
      <trkpt lat="41.443160" lon="-6.259096">
        <ele>699.996</ele>
        <time>2017-09-22T09:40:42Z</time>
      </trkpt>
      <trkpt lat="41.442603" lon="-6.259409">
        <ele>702.330</ele>
        <time>2017-09-22T09:41:01Z</time>
      </trkpt>
      <trkpt lat="41.442064" lon="-6.259745">
        <ele>704.356</ele>
        <time>2017-09-22T09:41:23Z</time>
      </trkpt>
      <trkpt lat="41.441638" lon="-6.260056">
        <ele>705.220</ele>
        <time>2017-09-22T09:41:40Z</time>
      </trkpt>
      <trkpt lat="41.441119" lon="-6.260420">
        <ele>706.738</ele>
        <time>2017-09-22T09:41:58Z</time>
      </trkpt>
      <trkpt lat="41.440640" lon="-6.260767">
        <ele>708.170</ele>
        <time>2017-09-22T09:42:16Z</time>
      </trkpt>
      <trkpt lat="41.440127" lon="-6.261176">
        <ele>707.617</ele>
        <time>2017-09-22T09:42:35Z</time>
      </trkpt>
      <trkpt lat="41.439419" lon="-6.261830">
        <ele>708.108</ele>
        <time>2017-09-22T09:42:53Z</time>
      </trkpt>
      <trkpt lat="41.438674" lon="-6.262517">
        <ele>709.535</ele>
        <time>2017-09-22T09:43:14Z</time>
      </trkpt>
      <trkpt lat="41.438097" lon="-6.263054">
        <ele>711.093</ele>
        <time>2017-09-22T09:43:33Z</time>
      </trkpt>
      <trkpt lat="41.437497" lon="-6.263549">
        <ele>711.514</ele>
        <time>2017-09-22T09:43:53Z</time>
      </trkpt>
      <trkpt lat="41.436760" lon="-6.263930">
        <ele>709.126</ele>
        <time>2017-09-22T09:44:09Z</time>
      </trkpt>
      <trkpt lat="41.435665" lon="-6.264496">
        <ele>707.125</ele>
        <time>2017-09-22T09:44:28Z</time>
      </trkpt>
      <trkpt lat="41.434818" lon="-6.264940">
        <ele>708.199</ele>
        <time>2017-09-22T09:44:45Z</time>
      </trkpt>
      <trkpt lat="41.433917" lon="-6.265397">
        <ele>709.135</ele>
        <time>2017-09-22T09:45:04Z</time>
      </trkpt>
      <trkpt lat="41.432901" lon="-6.265850">
        <ele>710.079</ele>
        <time>2017-09-22T09:45:27Z</time>
      </trkpt>
      <trkpt lat="41.431866" lon="-6.266191">
        <ele>710.549</ele>
        <time>2017-09-22T09:45:49Z</time>
      </trkpt>
      <trkpt lat="41.431295" lon="-6.266278">
        <ele>712.402</ele>
        <time>2017-09-22T09:46:05Z</time>
      </trkpt>
      <trkpt lat="41.430781" lon="-6.266346">
        <ele>714.422</ele>
        <time>2017-09-22T09:46:24Z</time>
      </trkpt>
      <trkpt lat="41.430281" lon="-6.266396">
        <ele>715.808</ele>
        <time>2017-09-22T09:46:43Z</time>
      </trkpt>
      <trkpt lat="41.429823" lon="-6.266449">
        <ele>717.286</ele>
        <time>2017-09-22T09:47:00Z</time>
      </trkpt>
      <trkpt lat="41.429288" lon="-6.266518">
        <ele>717.764</ele>
        <time>2017-09-22T09:47:19Z</time>
      </trkpt>
      <trkpt lat="41.428975" lon="-6.266529">
        <ele>717.245</ele>
        <time>2017-09-22T09:47:27Z</time>
      </trkpt>
      <trkpt lat="41.428143" lon="-6.266415">
        <ele>713.427</ele>
        <time>2017-09-22T09:47:42Z</time>
      </trkpt>
      <trkpt lat="41.426968" lon="-6.266367">
        <ele>708.616</ele>
        <time>2017-09-22T09:47:58Z</time>
      </trkpt>
      <trkpt lat="41.426186" lon="-6.266490">
        <ele>705.280</ele>
        <time>2017-09-22T09:48:08Z</time>
      </trkpt>
      <trkpt lat="41.426108" lon="-6.266539">
        <ele>705.216</ele>
        <time>2017-09-22T09:48:09Z</time>
      </trkpt>
      <trkpt lat="41.424896" lon="-6.267459">
        <ele>702.870</ele>
        <time>2017-09-22T09:48:26Z</time>
      </trkpt>
      <trkpt lat="41.424220" lon="-6.268240">
        <ele>701.949</ele>
        <time>2017-09-22T09:48:38Z</time>
      </trkpt>
      <trkpt lat="41.423536" lon="-6.269120">
        <ele>701.402</ele>
        <time>2017-09-22T09:48:54Z</time>
      </trkpt>
      <trkpt lat="41.423053" lon="-6.269691">
        <ele>700.922</ele>
        <time>2017-09-22T09:49:07Z</time>
      </trkpt>
      <trkpt lat="41.422866" lon="-6.269808">
        <ele>700.408</ele>
        <time>2017-09-22T09:49:12Z</time>
      </trkpt>
      <trkpt lat="41.422850" lon="-6.269798">
        <ele>700.466</ele>
        <time>2017-09-22T09:49:13Z</time>
      </trkpt>
      <trkpt lat="41.422841" lon="-6.269779">
        <ele>700.494</ele>
        <time>2017-09-22T09:49:14Z</time>
      </trkpt>
      <trkpt lat="41.422844" lon="-6.269763">
        <ele>700.475</ele>
        <time>2017-09-22T09:49:15Z</time>
      </trkpt>
      <trkpt lat="41.422851" lon="-6.269743">
        <ele>700.417</ele>
        <time>2017-09-22T09:49:16Z</time>
      </trkpt>
      <trkpt lat="41.422862" lon="-6.269720">
        <ele>700.416</ele>
        <time>2017-09-22T09:49:17Z</time>
      </trkpt>
      <trkpt lat="41.422870" lon="-6.269708">
        <ele>700.470</ele>
        <time>2017-09-22T09:49:18Z</time>
      </trkpt>
      <trkpt lat="41.422884" lon="-6.269696">
        <ele>700.446</ele>
        <time>2017-09-22T09:49:19Z</time>
      </trkpt>
      <trkpt lat="41.422900" lon="-6.269685">
        <ele>700.460</ele>
        <time>2017-09-22T09:49:20Z</time>
      </trkpt>
      <trkpt lat="41.423185" lon="-6.269507">
        <ele>699.597</ele>
        <time>2017-09-22T09:49:33Z</time>
      </trkpt>
      <trkpt lat="41.423403" lon="-6.269197">
        <ele>699.523</ele>
        <time>2017-09-22T09:49:47Z</time>
      </trkpt>
      <trkpt lat="41.423430" lon="-6.269174">
        <ele>699.925</ele>
        <time>2017-09-22T09:49:59Z</time>
      </trkpt>
      <trkpt lat="41.423625" lon="-6.268942">
        <ele>700.408</ele>
        <time>2017-09-22T09:50:11Z</time>
      </trkpt>
      <trkpt lat="41.423934" lon="-6.268531">
        <ele>700.941</ele>
        <time>2017-09-22T09:50:26Z</time>
      </trkpt>
      <trkpt lat="41.424064" lon="-6.268383">
        <ele>700.459</ele>
        <time>2017-09-22T09:50:33Z</time>
      </trkpt>
      <trkpt lat="41.424087" lon="-6.268386">
        <ele>700.460</ele>
        <time>2017-09-22T09:50:34Z</time>
      </trkpt>
      <trkpt lat="41.424100" lon="-6.268402">
        <ele>700.482</ele>
        <time>2017-09-22T09:50:35Z</time>
      </trkpt>
      <trkpt lat="41.424105" lon="-6.268430">
        <ele>700.451</ele>
        <time>2017-09-22T09:50:36Z</time>
      </trkpt>
      <trkpt lat="41.424101" lon="-6.268453">
        <ele>700.465</ele>
        <time>2017-09-22T09:50:37Z</time>
      </trkpt>
      <trkpt lat="41.424087" lon="-6.268476">
        <ele>700.471</ele>
        <time>2017-09-22T09:50:38Z</time>
      </trkpt>
      <trkpt lat="41.424066" lon="-6.268485">
        <ele>700.445</ele>
        <time>2017-09-22T09:50:39Z</time>
      </trkpt>
      <trkpt lat="41.424043" lon="-6.268491">
        <ele>700.419</ele>
        <time>2017-09-22T09:50:40Z</time>
      </trkpt>
      <trkpt lat="41.423764" lon="-6.268833">
        <ele>701.409</ele>
        <time>2017-09-22T09:50:51Z</time>
      </trkpt>
      <trkpt lat="41.423611" lon="-6.269043">
        <ele>700.919</ele>
        <time>2017-09-22T09:50:56Z</time>
      </trkpt>
      <trkpt lat="41.423454" lon="-6.269252">
        <ele>701.408</ele>
        <time>2017-09-22T09:51:01Z</time>
      </trkpt>
      <trkpt lat="41.422901" lon="-6.269802">
        <ele>701.483</ele>
        <time>2017-09-22T09:51:18Z</time>
      </trkpt>
      <trkpt lat="41.422472" lon="-6.270142">
        <ele>701.951</ele>
        <time>2017-09-22T09:51:32Z</time>
      </trkpt>
      <trkpt lat="41.422108" lon="-6.270744">
        <ele>702.322</ele>
        <time>2017-09-22T09:51:47Z</time>
      </trkpt>
      <trkpt lat="41.421820" lon="-6.271454">
        <ele>702.864</ele>
        <time>2017-09-22T09:52:04Z</time>
      </trkpt>
      <trkpt lat="41.421672" lon="-6.271747">
        <ele>703.853</ele>
        <time>2017-09-22T09:52:13Z</time>
      </trkpt>
      <trkpt lat="41.421644" lon="-6.271744">
        <ele>703.887</ele>
        <time>2017-09-22T09:52:14Z</time>
      </trkpt>
      <trkpt lat="41.421617" lon="-6.271732">
        <ele>703.853</ele>
        <time>2017-09-22T09:52:15Z</time>
      </trkpt>
      <trkpt lat="41.421333" lon="-6.271477">
        <ele>705.797</ele>
        <time>2017-09-22T09:52:30Z</time>
      </trkpt>
      <trkpt lat="41.421018" lon="-6.271235">
        <ele>707.173</ele>
        <time>2017-09-22T09:52:45Z</time>
      </trkpt>
      <trkpt lat="41.420755" lon="-6.271057">
        <ele>708.685</ele>
        <time>2017-09-22T09:52:59Z</time>
      </trkpt>
      <trkpt lat="41.420532" lon="-6.270822">
        <ele>710.513</ele>
        <time>2017-09-22T09:53:14Z</time>
      </trkpt>
      <trkpt lat="41.420342" lon="-6.270570">
        <ele>715.308</ele>
        <time>2017-09-22T09:53:28Z</time>
      </trkpt>
      <trkpt lat="41.420326" lon="-6.270561">
        <ele>715.319</ele>
        <time>2017-09-22T09:53:29Z</time>
      </trkpt>
      <trkpt lat="41.420315" lon="-6.270552">
        <ele>715.337</ele>
        <time>2017-09-22T09:53:30Z</time>
      </trkpt>
      <trkpt lat="41.420299" lon="-6.270545">
        <ele>715.348</ele>
        <time>2017-09-22T09:53:31Z</time>
      </trkpt>
      <trkpt lat="41.420283" lon="-6.270542">
        <ele>715.340</ele>
        <time>2017-09-22T09:53:32Z</time>
      </trkpt>
      <trkpt lat="41.420267" lon="-6.270539">
        <ele>714.849</ele>
        <time>2017-09-22T09:53:33Z</time>
      </trkpt>
      <trkpt lat="41.420253" lon="-6.270535">
        <ele>714.843</ele>
        <time>2017-09-22T09:53:34Z</time>
      </trkpt>
      <trkpt lat="41.420238" lon="-6.270529">
        <ele>714.889</ele>
        <time>2017-09-22T09:53:35Z</time>
      </trkpt>
      <trkpt lat="41.420220" lon="-6.270527">
        <ele>714.493</ele>
        <time>2017-09-22T09:53:36Z</time>
      </trkpt>
      <trkpt lat="41.420201" lon="-6.270529">
        <ele>714.487</ele>
        <time>2017-09-22T09:53:37Z</time>
      </trkpt>
      <trkpt lat="41.420181" lon="-6.270530">
        <ele>713.942</ele>
        <time>2017-09-22T09:53:38Z</time>
      </trkpt>
      <trkpt lat="41.420129" lon="-6.270535">
        <ele>712.926</ele>
        <time>2017-09-22T09:53:41Z</time>
      </trkpt>
      <trkpt lat="41.420116" lon="-6.270547">
        <ele>712.408</ele>
        <time>2017-09-22T09:53:42Z</time>
      </trkpt>
      <trkpt lat="41.420105" lon="-6.270569">
        <ele>711.970</ele>
        <time>2017-09-22T09:53:43Z</time>
      </trkpt>
      <trkpt lat="41.420055" lon="-6.270770">
        <ele>711.098</ele>
        <time>2017-09-22T09:53:48Z</time>
      </trkpt>
      <trkpt lat="41.420049" lon="-6.270826">
        <ele>710.519</ele>
        <time>2017-09-22T09:53:49Z</time>
      </trkpt>
      <trkpt lat="41.420049" lon="-6.270881">
        <ele>710.011</ele>
        <time>2017-09-22T09:53:50Z</time>
      </trkpt>
      <trkpt lat="41.420046" lon="-6.270931">
        <ele>709.590</ele>
        <time>2017-09-22T09:53:51Z</time>
      </trkpt>
      <trkpt lat="41.420038" lon="-6.270978">
        <ele>709.544</ele>
        <time>2017-09-22T09:53:52Z</time>
      </trkpt>
      <trkpt lat="41.420021" lon="-6.271023">
        <ele>709.140</ele>
        <time>2017-09-22T09:53:53Z</time>
      </trkpt>
      <trkpt lat="41.419997" lon="-6.271065">
        <ele>709.194</ele>
        <time>2017-09-22T09:53:54Z</time>
      </trkpt>
      <trkpt lat="41.419963" lon="-6.271107">
        <ele>709.123</ele>
        <time>2017-09-22T09:53:55Z</time>
      </trkpt>
      <trkpt lat="41.419940" lon="-6.271131">
        <ele>709.183</ele>
        <time>2017-09-22T09:53:56Z</time>
      </trkpt>
      <trkpt lat="41.419518" lon="-6.271511">
        <ele>710.011</ele>
        <time>2017-09-22T09:54:10Z</time>
      </trkpt>
      <trkpt lat="41.418926" lon="-6.271963">
        <ele>711.008</ele>
        <time>2017-09-22T09:54:29Z</time>
      </trkpt>
      <trkpt lat="41.418285" lon="-6.272157">
        <ele>712.494</ele>
        <time>2017-09-22T09:54:48Z</time>
      </trkpt>
      <trkpt lat="41.418082" lon="-6.272380">
        <ele>713.442</ele>
        <time>2017-09-22T09:54:59Z</time>
      </trkpt>
      <trkpt lat="41.418075" lon="-6.272563">
        <ele>713.453</ele>
        <time>2017-09-22T09:55:05Z</time>
      </trkpt>
      <trkpt lat="41.418012" lon="-6.272593">
        <ele>713.465</ele>
        <time>2017-09-22T09:55:09Z</time>
      </trkpt>
      <trkpt lat="41.418008" lon="-6.272618">
        <ele>713.974</ele>
        <time>2017-09-22T09:55:10Z</time>
      </trkpt>
      <trkpt lat="41.418010" lon="-6.272649">
        <ele>713.968</ele>
        <time>2017-09-22T09:55:11Z</time>
      </trkpt>
      <trkpt lat="41.418012" lon="-6.272681">
        <ele>713.984</ele>
        <time>2017-09-22T09:55:12Z</time>
      </trkpt>
      <trkpt lat="41.417969" lon="-6.273242">
        <ele>715.328</ele>
        <time>2017-09-22T09:55:28Z</time>
      </trkpt>
      <trkpt lat="41.417960" lon="-6.273860">
        <ele>716.357</ele>
        <time>2017-09-22T09:55:45Z</time>
      </trkpt>
      <trkpt lat="41.417906" lon="-6.274444">
        <ele>717.700</ele>
        <time>2017-09-22T09:56:00Z</time>
      </trkpt>
      <trkpt lat="41.417861" lon="-6.275000">
        <ele>718.720</ele>
        <time>2017-09-22T09:56:15Z</time>
      </trkpt>
      <trkpt lat="41.417840" lon="-6.275436">
        <ele>720.608</ele>
        <time>2017-09-22T09:56:31Z</time>
      </trkpt>
      <trkpt lat="41.417821" lon="-6.275803">
        <ele>722.047</ele>
        <time>2017-09-22T09:56:45Z</time>
      </trkpt>
      <trkpt lat="41.417823" lon="-6.276333">
        <ele>722.025</ele>
        <time>2017-09-22T09:57:02Z</time>
      </trkpt>
      <trkpt lat="41.417973" lon="-6.277025">
        <ele>720.616</ele>
        <time>2017-09-22T09:57:19Z</time>
      </trkpt>
      <trkpt lat="41.418285" lon="-6.277687">
        <ele>717.788</ele>
        <time>2017-09-22T09:57:30Z</time>
      </trkpt>
      <trkpt lat="41.418308" lon="-6.277768">
        <ele>717.717</ele>
        <time>2017-09-22T09:57:31Z</time>
      </trkpt>
      <trkpt lat="41.418326" lon="-6.277858">
        <ele>717.251</ele>
        <time>2017-09-22T09:57:32Z</time>
      </trkpt>
      <trkpt lat="41.418335" lon="-6.277936">
        <ele>717.217</ele>
        <time>2017-09-22T09:57:33Z</time>
      </trkpt>
      <trkpt lat="41.418338" lon="-6.278016">
        <ele>717.241</ele>
        <time>2017-09-22T09:57:34Z</time>
      </trkpt>
      <trkpt lat="41.418336" lon="-6.278093">
        <ele>717.252</ele>
        <time>2017-09-22T09:57:35Z</time>
      </trkpt>
      <trkpt lat="41.418329" lon="-6.278166">
        <ele>717.753</ele>
        <time>2017-09-22T09:57:36Z</time>
      </trkpt>
      <trkpt lat="41.418318" lon="-6.278229">
        <ele>717.708</ele>
        <time>2017-09-22T09:57:37Z</time>
      </trkpt>
      <trkpt lat="41.418302" lon="-6.278288">
        <ele>718.208</ele>
        <time>2017-09-22T09:57:38Z</time>
      </trkpt>
      <trkpt lat="41.418284" lon="-6.278337">
        <ele>718.237</ele>
        <time>2017-09-22T09:57:39Z</time>
      </trkpt>
      <trkpt lat="41.418266" lon="-6.278384">
        <ele>718.795</ele>
        <time>2017-09-22T09:57:40Z</time>
      </trkpt>
      <trkpt lat="41.418250" lon="-6.278425">
        <ele>719.216</ele>
        <time>2017-09-22T09:57:41Z</time>
      </trkpt>
      <trkpt lat="41.417957" lon="-6.278977">
        <ele>722.558</ele>
        <time>2017-09-22T09:57:58Z</time>
      </trkpt>
      <trkpt lat="41.417678" lon="-6.279527">
        <ele>724.027</ele>
        <time>2017-09-22T09:58:15Z</time>
      </trkpt>
      <trkpt lat="41.417559" lon="-6.279978">
        <ele>725.911</ele>
        <time>2017-09-22T09:58:29Z</time>
      </trkpt>
      <trkpt lat="41.417383" lon="-6.280541">
        <ele>728.347</ele>
        <time>2017-09-22T09:58:49Z</time>
      </trkpt>
      <trkpt lat="41.417236" lon="-6.280968">
        <ele>731.281</ele>
        <time>2017-09-22T09:59:06Z</time>
      </trkpt>
      <trkpt lat="41.417106" lon="-6.281330">
        <ele>733.165</ele>
        <time>2017-09-22T09:59:21Z</time>
      </trkpt>
      <trkpt lat="41.416911" lon="-6.281761">
        <ele>732.668</ele>
        <time>2017-09-22T09:59:39Z</time>
      </trkpt>
      <trkpt lat="41.416718" lon="-6.282195">
        <ele>734.114</ele>
        <time>2017-09-22T09:59:55Z</time>
      </trkpt>
      <trkpt lat="41.416509" lon="-6.282685">
        <ele>734.108</ele>
        <time>2017-09-22T10:00:10Z</time>
      </trkpt>
      <trkpt lat="41.416275" lon="-6.283286">
        <ele>733.148</ele>
        <time>2017-09-22T10:00:23Z</time>
      </trkpt>
      <trkpt lat="41.416232" lon="-6.283497">
        <ele>733.156</ele>
        <time>2017-09-22T10:00:27Z</time>
      </trkpt>
      <trkpt lat="41.416224" lon="-6.283611">
        <ele>732.677</ele>
        <time>2017-09-22T10:00:29Z</time>
      </trkpt>
      <trkpt lat="41.416222" lon="-6.283672">
        <ele>732.679</ele>
        <time>2017-09-22T10:00:30Z</time>
      </trkpt>
      <trkpt lat="41.416208" lon="-6.284732">
        <ele>733.138</ele>
        <time>2017-09-22T10:00:48Z</time>
      </trkpt>
      <trkpt lat="41.416086" lon="-6.285754">
        <ele>734.152</ele>
        <time>2017-09-22T10:01:07Z</time>
      </trkpt>
      <trkpt lat="41.415854" lon="-6.286610">
        <ele>735.558</ele>
        <time>2017-09-22T10:01:26Z</time>
      </trkpt>
      <trkpt lat="41.415562" lon="-6.287110">
        <ele>736.592</ele>
        <time>2017-09-22T10:01:43Z</time>
      </trkpt>
      <trkpt lat="41.415132" lon="-6.287507">
        <ele>735.555</ele>
        <time>2017-09-22T10:01:59Z</time>
      </trkpt>
      <trkpt lat="41.414914" lon="-6.287635">
        <ele>734.507</ele>
        <time>2017-09-22T10:02:04Z</time>
      </trkpt>
      <trkpt lat="41.414115" lon="-6.287947">
        <ele>730.217</ele>
        <time>2017-09-22T10:02:17Z</time>
      </trkpt>
      <trkpt lat="41.413020" lon="-6.288414">
        <ele>727.308</ele>
        <time>2017-09-22T10:02:33Z</time>
      </trkpt>
      <trkpt lat="41.411753" lon="-6.289169">
        <ele>723.557</ele>
        <time>2017-09-22T10:02:51Z</time>
      </trkpt>
      <trkpt lat="41.410431" lon="-6.290075">
        <ele>716.875</ele>
        <time>2017-09-22T10:03:08Z</time>
      </trkpt>
      <trkpt lat="41.409828" lon="-6.290874">
        <ele>717.286</ele>
        <time>2017-09-22T10:03:18Z</time>
      </trkpt>
      <trkpt lat="41.409306" lon="-6.291680">
        <ele>718.258</ele>
        <time>2017-09-22T10:03:32Z</time>
      </trkpt>
      <trkpt lat="41.408614" lon="-6.292757">
        <ele>720.687</ele>
        <time>2017-09-22T10:03:53Z</time>
      </trkpt>
      <trkpt lat="41.408265" lon="-6.293419">
        <ele>723.091</ele>
        <time>2017-09-22T10:04:11Z</time>
      </trkpt>
      <trkpt lat="41.407872" lon="-6.293936">
        <ele>722.047</ele>
        <time>2017-09-22T10:04:25Z</time>
      </trkpt>
      <trkpt lat="41.407670" lon="-6.294170">
        <ele>721.121</ele>
        <time>2017-09-22T10:04:30Z</time>
      </trkpt>
      <trkpt lat="41.406977" lon="-6.295100">
        <ele>717.779</ele>
        <time>2017-09-22T10:04:45Z</time>
      </trkpt>
      <trkpt lat="41.406070" lon="-6.296525">
        <ele>711.905</ele>
        <time>2017-09-22T10:05:01Z</time>
      </trkpt>
      <trkpt lat="41.405690" lon="-6.297362">
        <ele>709.525</ele>
        <time>2017-09-22T10:05:10Z</time>
      </trkpt>
      <trkpt lat="41.405644" lon="-6.297444">
        <ele>709.508</ele>
        <time>2017-09-22T10:05:11Z</time>
      </trkpt>
      <trkpt lat="41.405593" lon="-6.297519">
        <ele>709.179</ele>
        <time>2017-09-22T10:05:12Z</time>
      </trkpt>
      <trkpt lat="41.405532" lon="-6.297588">
        <ele>708.647</ele>
        <time>2017-09-22T10:05:13Z</time>
      </trkpt>
      <trkpt lat="41.405464" lon="-6.297646">
        <ele>708.678</ele>
        <time>2017-09-22T10:05:14Z</time>
      </trkpt>
      <trkpt lat="41.405395" lon="-6.297693">
        <ele>708.110</ele>
        <time>2017-09-22T10:05:15Z</time>
      </trkpt>
      <trkpt lat="41.405325" lon="-6.297733">
        <ele>707.699</ele>
        <time>2017-09-22T10:05:16Z</time>
      </trkpt>
      <trkpt lat="41.404394" lon="-6.298223">
        <ele>700.993</ele>
        <time>2017-09-22T10:05:28Z</time>
      </trkpt>
      <trkpt lat="41.404314" lon="-6.298266">
        <ele>700.419</ele>
        <time>2017-09-22T10:05:29Z</time>
      </trkpt>
      <trkpt lat="41.404222" lon="-6.298304">
        <ele>699.953</ele>
        <time>2017-09-22T10:05:30Z</time>
      </trkpt>
      <trkpt lat="41.402775" lon="-6.298763">
        <ele>692.723</ele>
        <time>2017-09-22T10:05:46Z</time>
      </trkpt>
      <trkpt lat="41.402703" lon="-6.298815">
        <ele>692.283</ele>
        <time>2017-09-22T10:05:47Z</time>
      </trkpt>
      <trkpt lat="41.402640" lon="-6.298882">
        <ele>691.811</ele>
        <time>2017-09-22T10:05:48Z</time>
      </trkpt>
      <trkpt lat="41.402592" lon="-6.298964">
        <ele>691.308</ele>
        <time>2017-09-22T10:05:49Z</time>
      </trkpt>
      <trkpt lat="41.402560" lon="-6.299055">
        <ele>691.374</ele>
        <time>2017-09-22T10:05:50Z</time>
      </trkpt>
      <trkpt lat="41.402543" lon="-6.299163">
        <ele>690.852</ele>
        <time>2017-09-22T10:05:51Z</time>
      </trkpt>
      <trkpt lat="41.402537" lon="-6.299281">
        <ele>690.333</ele>
        <time>2017-09-22T10:05:52Z</time>
      </trkpt>
      <trkpt lat="41.402534" lon="-6.299392">
        <ele>690.325</ele>
        <time>2017-09-22T10:05:53Z</time>
      </trkpt>
      <trkpt lat="41.402485" lon="-6.300463">
        <ele>686.554</ele>
        <time>2017-09-22T10:06:02Z</time>
      </trkpt>
      <trkpt lat="41.402452" lon="-6.300579">
        <ele>686.098</ele>
        <time>2017-09-22T10:06:03Z</time>
      </trkpt>
      <trkpt lat="41.402410" lon="-6.300684">
        <ele>685.554</ele>
        <time>2017-09-22T10:06:04Z</time>
      </trkpt>
      <trkpt lat="41.402364" lon="-6.300776">
        <ele>685.518</ele>
        <time>2017-09-22T10:06:05Z</time>
      </trkpt>
      <trkpt lat="41.402315" lon="-6.300865">
        <ele>685.068</ele>
        <time>2017-09-22T10:06:06Z</time>
      </trkpt>
      <trkpt lat="41.402164" lon="-6.301150">
        <ele>684.142</ele>
        <time>2017-09-22T10:06:10Z</time>
      </trkpt>
      <trkpt lat="41.402129" lon="-6.301198">
        <ele>684.126</ele>
        <time>2017-09-22T10:06:11Z</time>
      </trkpt>
      <trkpt lat="41.402090" lon="-6.301229">
        <ele>683.608</ele>
        <time>2017-09-22T10:06:12Z</time>
      </trkpt>
      <trkpt lat="41.402030" lon="-6.301326">
        <ele>683.698</ele>
        <time>2017-09-22T10:06:31Z</time>
      </trkpt>
      <trkpt lat="41.402054" lon="-6.301401">
        <ele>683.176</ele>
        <time>2017-09-22T10:06:32Z</time>
      </trkpt>
      <trkpt lat="41.402070" lon="-6.301479">
        <ele>682.677</ele>
        <time>2017-09-22T10:06:33Z</time>
      </trkpt>
      <trkpt lat="41.402083" lon="-6.301570">
        <ele>682.649</ele>
        <time>2017-09-22T10:06:34Z</time>
      </trkpt>
      <trkpt lat="41.402091" lon="-6.301657">
        <ele>682.678</ele>
        <time>2017-09-22T10:06:35Z</time>
      </trkpt>
      <trkpt lat="41.402101" lon="-6.302295">
        <ele>680.282</ele>
        <time>2017-09-22T10:06:45Z</time>
      </trkpt>
      <trkpt lat="41.401887" lon="-6.302440">
        <ele>681.248</ele>
        <time>2017-09-22T10:06:57Z</time>
      </trkpt>
      <trkpt lat="41.401613" lon="-6.302784">
        <ele>682.162</ele>
        <time>2017-09-22T10:07:13Z</time>
      </trkpt>
      <trkpt lat="41.401373" lon="-6.303030">
        <ele>680.288</ele>
        <time>2017-09-22T10:07:24Z</time>
      </trkpt>
      <trkpt lat="41.401274" lon="-6.303391">
        <ele>676.924</ele>
        <time>2017-09-22T10:07:35Z</time>
      </trkpt>
      <trkpt lat="41.401149" lon="-6.303666">
        <ele>674.026</ele>
        <time>2017-09-22T10:07:45Z</time>
      </trkpt>
      <trkpt lat="41.401139" lon="-6.303696">
        <ele>673.508</ele>
        <time>2017-09-22T10:07:46Z</time>
      </trkpt>
      <trkpt lat="41.401093" lon="-6.303929">
        <ele>673.060</ele>
        <time>2017-09-22T10:07:52Z</time>
      </trkpt>
      <trkpt lat="41.400962" lon="-6.304393">
        <ele>671.678</ele>
        <time>2017-09-22T10:08:04Z</time>
      </trkpt>
      <trkpt lat="41.400840" lon="-6.304803">
        <ele>672.169</ele>
        <time>2017-09-22T10:10:31Z</time>
      </trkpt>
      <trkpt lat="41.400831" lon="-6.304779">
        <ele>672.591</ele>
        <time>2017-09-22T10:10:32Z</time>
      </trkpt>
      <trkpt lat="41.400820" lon="-6.304762">
        <ele>672.520</ele>
        <time>2017-09-22T10:10:33Z</time>
      </trkpt>
      <trkpt lat="41.400734" lon="-6.304676">
        <ele>674.024</ele>
        <time>2017-09-22T10:10:45Z</time>
      </trkpt>
      <trkpt lat="41.400673" lon="-6.304614">
        <ele>674.990</ele>
        <time>2017-09-22T10:10:56Z</time>
      </trkpt>
      <trkpt lat="41.400535" lon="-6.304498">
        <ele>676.494</ele>
        <time>2017-09-22T10:11:14Z</time>
      </trkpt>
      <trkpt lat="41.400397" lon="-6.304468">
        <ele>678.398</ele>
        <time>2017-09-22T10:11:29Z</time>
      </trkpt>
      <trkpt lat="41.400213" lon="-6.304423">
        <ele>679.715</ele>
        <time>2017-09-22T10:11:47Z</time>
      </trkpt>
      <trkpt lat="41.400014" lon="-6.304358">
        <ele>681.726</ele>
        <time>2017-09-22T10:12:04Z</time>
      </trkpt>
      <trkpt lat="41.399817" lon="-6.304362">
        <ele>686.508</ele>
        <time>2017-09-22T10:12:24Z</time>
      </trkpt>
      <trkpt lat="41.399746" lon="-6.304306">
        <ele>686.531</ele>
        <time>2017-09-22T10:12:38Z</time>
      </trkpt>
      <trkpt lat="41.399507" lon="-6.304165">
        <ele>686.069</ele>
        <time>2017-09-22T10:12:51Z</time>
      </trkpt>
      <trkpt lat="41.399216" lon="-6.304104">
        <ele>685.560</ele>
        <time>2017-09-22T10:13:04Z</time>
      </trkpt>
      <trkpt lat="41.398873" lon="-6.304162">
        <ele>683.682</ele>
        <time>2017-09-22T10:13:14Z</time>
      </trkpt>
      <trkpt lat="41.398489" lon="-6.304099">
        <ele>687.411</ele>
        <time>2017-09-22T10:13:29Z</time>
      </trkpt>
      <trkpt lat="41.398200" lon="-6.304030">
        <ele>688.965</ele>
        <time>2017-09-22T10:13:44Z</time>
      </trkpt>
      <trkpt lat="41.397908" lon="-6.303938">
        <ele>688.951</ele>
        <time>2017-09-22T10:13:59Z</time>
      </trkpt>
      <trkpt lat="41.397531" lon="-6.303835">
        <ele>687.975</ele>
        <time>2017-09-22T10:14:14Z</time>
      </trkpt>
      <trkpt lat="41.397288" lon="-6.303803">
        <ele>688.495</ele>
        <time>2017-09-22T10:15:42Z</time>
      </trkpt>
      <trkpt lat="41.397271" lon="-6.303802">
        <ele>688.449</ele>
        <time>2017-09-22T10:15:43Z</time>
      </trkpt>
      <trkpt lat="41.397243" lon="-6.303801">
        <ele>688.423</ele>
        <time>2017-09-22T10:15:44Z</time>
      </trkpt>
      <trkpt lat="41.397205" lon="-6.303809">
        <ele>687.908</ele>
        <time>2017-09-22T10:15:45Z</time>
      </trkpt>
      <trkpt lat="41.397179" lon="-6.303815">
        <ele>687.971</ele>
        <time>2017-09-22T10:15:46Z</time>
      </trkpt>
      <trkpt lat="41.396748" lon="-6.303826">
        <ele>687.019</ele>
        <time>2017-09-22T10:15:59Z</time>
      </trkpt>
      <trkpt lat="41.396593" lon="-6.303787">
        <ele>686.510</ele>
        <time>2017-09-22T10:16:05Z</time>
      </trkpt>
      <trkpt lat="41.396571" lon="-6.303784">
        <ele>686.572</ele>
        <time>2017-09-22T10:16:06Z</time>
      </trkpt>
      <trkpt lat="41.396553" lon="-6.303781">
        <ele>686.021</ele>
        <time>2017-09-22T10:16:07Z</time>
      </trkpt>
      <trkpt lat="41.396499" lon="-6.303773">
        <ele>686.095</ele>
        <time>2017-09-22T10:16:10Z</time>
      </trkpt>
      <trkpt lat="41.396485" lon="-6.303774">
        <ele>686.011</ele>
        <time>2017-09-22T10:16:11Z</time>
      </trkpt>
      <trkpt lat="41.396408" lon="-6.303779">
        <ele>685.545</ele>
        <time>2017-09-22T10:16:16Z</time>
      </trkpt>
      <trkpt lat="41.396388" lon="-6.303782">
        <ele>685.514</ele>
        <time>2017-09-22T10:16:17Z</time>
      </trkpt>
      <trkpt lat="41.396368" lon="-6.303787">
        <ele>685.554</ele>
        <time>2017-09-22T10:16:18Z</time>
      </trkpt>
      <trkpt lat="41.396350" lon="-6.303786">
        <ele>685.509</ele>
        <time>2017-09-22T10:16:19Z</time>
      </trkpt>
      <trkpt lat="41.396332" lon="-6.303780">
        <ele>685.508</ele>
        <time>2017-09-22T10:16:20Z</time>
      </trkpt>
      <trkpt lat="41.396317" lon="-6.303769">
        <ele>685.563</ele>
        <time>2017-09-22T10:16:21Z</time>
      </trkpt>
      <trkpt lat="41.396214" lon="-6.303757">
        <ele>684.611</ele>
        <time>2017-09-22T10:16:33Z</time>
      </trkpt>
      <trkpt lat="41.396064" lon="-6.303797">
        <ele>682.652</ele>
        <time>2017-09-22T10:16:47Z</time>
      </trkpt>
      <trkpt lat="41.395948" lon="-6.303821">
        <ele>681.794</ele>
        <time>2017-09-22T10:16:57Z</time>
      </trkpt>
      <trkpt lat="41.395699" lon="-6.303852">
        <ele>679.383</ele>
        <time>2017-09-22T10:17:10Z</time>
      </trkpt>
      <trkpt lat="41.395432" lon="-6.303862">
        <ele>678.377</ele>
        <time>2017-09-22T10:17:22Z</time>
      </trkpt>
      <trkpt lat="41.395425" lon="-6.303862">
        <ele>678.333</ele>
        <time>2017-09-22T10:17:23Z</time>
      </trkpt>
      <trkpt lat="41.395399" lon="-6.303867">
        <ele>677.877</ele>
        <time>2017-09-22T10:17:25Z</time>
      </trkpt>
      <trkpt lat="41.395385" lon="-6.303866">
        <ele>677.884</ele>
        <time>2017-09-22T10:17:26Z</time>
      </trkpt>
      <trkpt lat="41.395371" lon="-6.303866">
        <ele>677.807</ele>
        <time>2017-09-22T10:17:27Z</time>
      </trkpt>
      <trkpt lat="41.395356" lon="-6.303865">
        <ele>677.817</ele>
        <time>2017-09-22T10:17:28Z</time>
      </trkpt>
      <trkpt lat="41.395339" lon="-6.303864">
        <ele>677.808</ele>
        <time>2017-09-22T10:17:29Z</time>
      </trkpt>
      <trkpt lat="41.395323" lon="-6.303864">
        <ele>677.870</ele>
        <time>2017-09-22T10:17:30Z</time>
      </trkpt>
      <trkpt lat="41.395305" lon="-6.303866">
        <ele>677.858</ele>
        <time>2017-09-22T10:17:31Z</time>
      </trkpt>
      <trkpt lat="41.395157" lon="-6.303865">
        <ele>676.989</ele>
        <time>2017-09-22T10:17:39Z</time>
      </trkpt>
      <trkpt lat="41.395140" lon="-6.303867">
        <ele>676.911</ele>
        <time>2017-09-22T10:17:40Z</time>
      </trkpt>
      <trkpt lat="41.395119" lon="-6.303868">
        <ele>676.950</ele>
        <time>2017-09-22T10:17:41Z</time>
      </trkpt>
      <trkpt lat="41.395094" lon="-6.303863">
        <ele>677.344</ele>
        <time>2017-09-22T10:17:42Z</time>
      </trkpt>
      <trkpt lat="41.395070" lon="-6.303857">
        <ele>676.990</ele>
        <time>2017-09-22T10:17:43Z</time>
      </trkpt>
      <trkpt lat="41.394883" lon="-6.303847">
        <ele>677.344</ele>
        <time>2017-09-22T10:17:54Z</time>
      </trkpt>
      <trkpt lat="41.394856" lon="-6.303851">
        <ele>676.916</ele>
        <time>2017-09-22T10:17:56Z</time>
      </trkpt>
      <trkpt lat="41.394841" lon="-6.303846">
        <ele>676.976</ele>
        <time>2017-09-22T10:17:57Z</time>
      </trkpt>
      <trkpt lat="41.394825" lon="-6.303840">
        <ele>676.413</ele>
        <time>2017-09-22T10:17:58Z</time>
      </trkpt>
      <trkpt lat="41.394690" lon="-6.303821">
        <ele>674.908</ele>
        <time>2017-09-22T10:18:06Z</time>
      </trkpt>
      <trkpt lat="41.394676" lon="-6.303827">
        <ele>674.923</ele>
        <time>2017-09-22T10:18:07Z</time>
      </trkpt>
      <trkpt lat="41.394660" lon="-6.303828">
        <ele>674.911</ele>
        <time>2017-09-22T10:18:08Z</time>
      </trkpt>
      <trkpt lat="41.394644" lon="-6.303825">
        <ele>674.582</ele>
        <time>2017-09-22T10:18:09Z</time>
      </trkpt>
      <trkpt lat="41.394627" lon="-6.303825">
        <ele>674.534</ele>
        <time>2017-09-22T10:18:10Z</time>
      </trkpt>
      <trkpt lat="41.394614" lon="-6.303828">
        <ele>674.573</ele>
        <time>2017-09-22T10:18:11Z</time>
      </trkpt>
      <trkpt lat="41.394600" lon="-6.303832">
        <ele>674.077</ele>
        <time>2017-09-22T10:18:12Z</time>
      </trkpt>
      <trkpt lat="41.394586" lon="-6.303833">
        <ele>674.093</ele>
        <time>2017-09-22T10:18:13Z</time>
      </trkpt>
      <trkpt lat="41.394572" lon="-6.303830">
        <ele>673.567</ele>
        <time>2017-09-22T10:18:14Z</time>
      </trkpt>
      <trkpt lat="41.394557" lon="-6.303827">
        <ele>673.523</ele>
        <time>2017-09-22T10:18:15Z</time>
      </trkpt>
      <trkpt lat="41.394538" lon="-6.303826">
        <ele>673.083</ele>
        <time>2017-09-22T10:18:16Z</time>
      </trkpt>
      <trkpt lat="41.394522" lon="-6.303826">
        <ele>673.011</ele>
        <time>2017-09-22T10:18:17Z</time>
      </trkpt>
      <trkpt lat="41.394278" lon="-6.303879">
        <ele>671.108</ele>
        <time>2017-09-22T10:18:30Z</time>
      </trkpt>
      <trkpt lat="41.393970" lon="-6.304040">
        <ele>669.734</ele>
        <time>2017-09-22T10:18:44Z</time>
      </trkpt>
      <trkpt lat="41.393885" lon="-6.304074">
        <ele>669.252</ele>
        <time>2017-09-22T10:18:48Z</time>
      </trkpt>
      <trkpt lat="41.393872" lon="-6.304068">
        <ele>669.243</ele>
        <time>2017-09-22T10:18:49Z</time>
      </trkpt>
      <trkpt lat="41.393860" lon="-6.304055">
        <ele>669.235</ele>
        <time>2017-09-22T10:18:50Z</time>
      </trkpt>
      <trkpt lat="41.393851" lon="-6.304032">
        <ele>668.744</ele>
        <time>2017-09-22T10:18:51Z</time>
      </trkpt>
      <trkpt lat="41.393847" lon="-6.304009">
        <ele>668.758</ele>
        <time>2017-09-22T10:18:52Z</time>
      </trkpt>
      <trkpt lat="41.393847" lon="-6.303981">
        <ele>668.224</ele>
        <time>2017-09-22T10:18:53Z</time>
      </trkpt>
      <trkpt lat="41.393855" lon="-6.303956">
        <ele>668.288</ele>
        <time>2017-09-22T10:18:54Z</time>
      </trkpt>
      <trkpt lat="41.393867" lon="-6.303928">
        <ele>668.272</ele>
        <time>2017-09-22T10:18:55Z</time>
      </trkpt>
      <trkpt lat="41.393876" lon="-6.303900">
        <ele>668.213</ele>
        <time>2017-09-22T10:18:56Z</time>
      </trkpt>
      <trkpt lat="41.393879" lon="-6.303870">
        <ele>668.214</ele>
        <time>2017-09-22T10:18:57Z</time>
      </trkpt>
      <trkpt lat="41.393871" lon="-6.303847">
        <ele>668.208</ele>
        <time>2017-09-22T10:18:58Z</time>
      </trkpt>
      <trkpt lat="41.393797" lon="-6.303813">
        <ele>668.269</ele>
        <time>2017-09-22T10:19:02Z</time>
      </trkpt>
      <trkpt lat="41.393445" lon="-6.303768">
        <ele>664.887</ele>
        <time>2017-09-22T10:19:16Z</time>
      </trkpt>
      <trkpt lat="41.393317" lon="-6.303752">
        <ele>662.488</ele>
        <time>2017-09-22T10:19:22Z</time>
      </trkpt>
      <trkpt lat="41.393298" lon="-6.303738">
        <ele>662.080</ele>
        <time>2017-09-22T10:19:23Z</time>
      </trkpt>
      <trkpt lat="41.393281" lon="-6.303723">
        <ele>661.579</ele>
        <time>2017-09-22T10:19:24Z</time>
      </trkpt>
      <trkpt lat="41.392987" lon="-6.303404">
        <ele>662.093</ele>
        <time>2017-09-22T10:19:38Z</time>
      </trkpt>
      <trkpt lat="41.392617" lon="-6.303074">
        <ele>659.159</ele>
        <time>2017-09-22T10:19:51Z</time>
      </trkpt>
      <trkpt lat="41.392396" lon="-6.302799">
        <ele>658.643</ele>
        <time>2017-09-22T10:20:01Z</time>
      </trkpt>
      <trkpt lat="41.392208" lon="-6.302475">
        <ele>659.687</ele>
        <time>2017-09-22T10:20:13Z</time>
      </trkpt>
      <trkpt lat="41.392118" lon="-6.302340">
        <ele>659.142</ele>
        <time>2017-09-22T10:20:21Z</time>
      </trkpt>
      <trkpt lat="41.392102" lon="-6.302336">
        <ele>659.126</ele>
        <time>2017-09-22T10:20:22Z</time>
      </trkpt>
      <trkpt lat="41.392078" lon="-6.302326">
        <ele>660.008</ele>
        <time>2017-09-22T10:20:32Z</time>
      </trkpt>
      <trkpt lat="41.392093" lon="-6.302330">
        <ele>660.020</ele>
        <time>2017-09-22T10:20:51Z</time>
      </trkpt>
      <trkpt lat="41.392116" lon="-6.302316">
        <ele>661.088</ele>
        <time>2017-09-22T10:21:25Z</time>
      </trkpt>
      <trkpt lat="41.392103" lon="-6.302337">
        <ele>662.039</ele>
        <time>2017-09-22T10:22:06Z</time>
      </trkpt>
      <trkpt lat="41.392067" lon="-6.302341">
        <ele>661.021</ele>
        <time>2017-09-22T10:22:30Z</time>
      </trkpt>
      <trkpt lat="41.392050" lon="-6.302347">
        <ele>661.020</ele>
        <time>2017-09-22T10:22:43Z</time>
      </trkpt>
      <trkpt lat="41.392048" lon="-6.302340">
        <ele>661.064</ele>
        <time>2017-09-22T10:23:21Z</time>
      </trkpt>
      <trkpt lat="41.392048" lon="-6.302330">
        <ele>659.620</ele>
        <time>2017-09-22T10:23:56Z</time>
      </trkpt>
      <trkpt lat="41.392039" lon="-6.302344">
        <ele>659.684</ele>
        <time>2017-09-22T10:24:16Z</time>
      </trkpt>
      <trkpt lat="41.391873" lon="-6.302479">
        <ele>657.279</ele>
        <time>2017-09-22T10:24:28Z</time>
      </trkpt>
      <trkpt lat="41.391564" lon="-6.302949">
        <ele>649.905</ele>
        <time>2017-09-22T10:24:41Z</time>
      </trkpt>
      <trkpt lat="41.391532" lon="-6.303001">
        <ele>649.925</ele>
        <time>2017-09-22T10:24:42Z</time>
      </trkpt>
      <trkpt lat="41.391497" lon="-6.303043">
        <ele>649.908</ele>
        <time>2017-09-22T10:24:43Z</time>
      </trkpt>
      <trkpt lat="41.391461" lon="-6.303073">
        <ele>649.529</ele>
        <time>2017-09-22T10:24:44Z</time>
      </trkpt>
      <trkpt lat="41.391424" lon="-6.303094">
        <ele>649.557</ele>
        <time>2017-09-22T10:24:45Z</time>
      </trkpt>
      <trkpt lat="41.391384" lon="-6.303116">
        <ele>649.528</ele>
        <time>2017-09-22T10:24:46Z</time>
      </trkpt>
      <trkpt lat="41.391350" lon="-6.303140">
        <ele>649.590</ele>
        <time>2017-09-22T10:24:47Z</time>
      </trkpt>
      <trkpt lat="41.391319" lon="-6.303165">
        <ele>649.029</ele>
        <time>2017-09-22T10:24:48Z</time>
      </trkpt>
      <trkpt lat="41.391083" lon="-6.303459">
        <ele>650.943</ele>
        <time>2017-09-22T10:25:00Z</time>
      </trkpt>
      <trkpt lat="41.390930" lon="-6.303799">
        <ele>653.319</ele>
        <time>2017-09-22T10:25:16Z</time>
      </trkpt>
      <trkpt lat="41.390844" lon="-6.304152">
        <ele>657.213</ele>
        <time>2017-09-22T10:25:34Z</time>
      </trkpt>
      <trkpt lat="41.390757" lon="-6.304538">
        <ele>658.157</ele>
        <time>2017-09-22T10:25:51Z</time>
      </trkpt>
      <trkpt lat="41.390670" lon="-6.304935">
        <ele>660.000</ele>
        <time>2017-09-22T10:26:08Z</time>
      </trkpt>
      <trkpt lat="41.390444" lon="-6.305178">
        <ele>660.020</ele>
        <time>2017-09-22T10:26:23Z</time>
      </trkpt>
      <trkpt lat="41.390103" lon="-6.305245">
        <ele>661.008</ele>
        <time>2017-09-22T10:26:39Z</time>
      </trkpt>
      <trkpt lat="41.389695" lon="-6.305290">
        <ele>662.017</ele>
        <time>2017-09-22T10:26:58Z</time>
      </trkpt>
      <trkpt lat="41.389346" lon="-6.305492">
        <ele>663.425</ele>
        <time>2017-09-22T10:27:16Z</time>
      </trkpt>
      <trkpt lat="41.389100" lon="-6.305876">
        <ele>665.836</ele>
        <time>2017-09-22T10:27:34Z</time>
      </trkpt>
      <trkpt lat="41.388779" lon="-6.306326">
        <ele>665.848</ele>
        <time>2017-09-22T10:27:52Z</time>
      </trkpt>
      <trkpt lat="41.388355" lon="-6.306722">
        <ele>666.847</ele>
        <time>2017-09-22T10:28:12Z</time>
      </trkpt>
      <trkpt lat="41.387987" lon="-6.307095">
        <ele>668.271</ele>
        <time>2017-09-22T10:28:31Z</time>
      </trkpt>
      <trkpt lat="41.387670" lon="-6.307405">
        <ele>671.197</ele>
        <time>2017-09-22T10:28:49Z</time>
      </trkpt>
      <trkpt lat="41.387365" lon="-6.307599">
        <ele>673.511</ele>
        <time>2017-09-22T10:29:07Z</time>
      </trkpt>
      <trkpt lat="41.387127" lon="-6.307734">
        <ele>674.944</ele>
        <time>2017-09-22T10:29:25Z</time>
      </trkpt>
      <trkpt lat="41.386851" lon="-6.307788">
        <ele>673.505</ele>
        <time>2017-09-22T10:29:37Z</time>
      </trkpt>
      <trkpt lat="41.386184" lon="-6.307833">
        <ele>672.515</ele>
        <time>2017-09-22T10:29:52Z</time>
      </trkpt>
      <trkpt lat="41.385598" lon="-6.308070">
        <ele>673.008</ele>
        <time>2017-09-22T10:30:07Z</time>
      </trkpt>
      <trkpt lat="41.385120" lon="-6.308263">
        <ele>674.966</ele>
        <time>2017-09-22T10:30:24Z</time>
      </trkpt>
      <trkpt lat="41.384826" lon="-6.308363">
        <ele>675.994</ele>
        <time>2017-09-22T10:30:36Z</time>
      </trkpt>
      <trkpt lat="41.384806" lon="-6.308369">
        <ele>675.415</ele>
        <time>2017-09-22T10:30:49Z</time>
      </trkpt>
      <trkpt lat="41.384823" lon="-6.308370">
        <ele>675.477</ele>
        <time>2017-09-22T10:31:05Z</time>
      </trkpt>
      <trkpt lat="41.384619" lon="-6.308454">
        <ele>675.936</ele>
        <time>2017-09-22T10:31:26Z</time>
      </trkpt>
      <trkpt lat="41.384492" lon="-6.308516">
        <ele>676.940</ele>
        <time>2017-09-22T10:31:43Z</time>
      </trkpt>
      <trkpt lat="41.384488" lon="-6.308510">
        <ele>676.916</ele>
        <time>2017-09-22T10:32:01Z</time>
      </trkpt>
      <trkpt lat="41.384474" lon="-6.308475">
        <ele>676.480</ele>
        <time>2017-09-22T10:32:10Z</time>
      </trkpt>
      <trkpt lat="41.384485" lon="-6.308469">
        <ele>676.482</ele>
        <time>2017-09-22T10:32:11Z</time>
      </trkpt>
      <trkpt lat="41.384497" lon="-6.308468">
        <ele>676.443</ele>
        <time>2017-09-22T10:32:12Z</time>
      </trkpt>
      <trkpt lat="41.384511" lon="-6.308468">
        <ele>676.417</ele>
        <time>2017-09-22T10:32:13Z</time>
      </trkpt>
      <trkpt lat="41.384524" lon="-6.308468">
        <ele>676.408</ele>
        <time>2017-09-22T10:32:14Z</time>
      </trkpt>
      <trkpt lat="41.384537" lon="-6.308464">
        <ele>675.920</ele>
        <time>2017-09-22T10:32:15Z</time>
      </trkpt>
      <trkpt lat="41.384551" lon="-6.308460">
        <ele>675.958</ele>
        <time>2017-09-22T10:32:16Z</time>
      </trkpt>
      <trkpt lat="41.384744" lon="-6.308371">
        <ele>674.979</ele>
        <time>2017-09-22T10:32:33Z</time>
      </trkpt>
      <trkpt lat="41.384739" lon="-6.308389">
        <ele>675.491</ele>
        <time>2017-09-22T10:32:44Z</time>
      </trkpt>
      <trkpt lat="41.384768" lon="-6.308385">
        <ele>675.460</ele>
        <time>2017-09-22T10:32:56Z</time>
      </trkpt>
      <trkpt lat="41.384770" lon="-6.308381">
        <ele>675.964</ele>
        <time>2017-09-22T10:33:41Z</time>
      </trkpt>
      <trkpt lat="41.384762" lon="-6.308390">
        <ele>676.440</ele>
        <time>2017-09-22T10:34:17Z</time>
      </trkpt>
      <trkpt lat="41.384767" lon="-6.308386">
        <ele>676.424</ele>
        <time>2017-09-22T10:34:59Z</time>
      </trkpt>
      <trkpt lat="41.384767" lon="-6.308385">
        <ele>674.534</ele>
        <time>2017-09-22T10:35:38Z</time>
      </trkpt>
      <trkpt lat="41.384756" lon="-6.308384">
        <ele>674.955</ele>
        <time>2017-09-22T10:36:12Z</time>
      </trkpt>
      <trkpt lat="41.384765" lon="-6.308387">
        <ele>674.510</ele>
        <time>2017-09-22T10:36:54Z</time>
      </trkpt>
      <trkpt lat="41.384754" lon="-6.308390">
        <ele>675.908</ele>
        <time>2017-09-22T10:37:34Z</time>
      </trkpt>
      <trkpt lat="41.384755" lon="-6.308381">
        <ele>677.895</ele>
        <time>2017-09-22T10:38:23Z</time>
      </trkpt>
      <trkpt lat="41.384751" lon="-6.308386">
        <ele>677.333</ele>
        <time>2017-09-22T10:39:09Z</time>
      </trkpt>
      <trkpt lat="41.384749" lon="-6.308385">
        <ele>678.384</ele>
        <time>2017-09-22T10:39:52Z</time>
      </trkpt>
      <trkpt lat="41.384749" lon="-6.308390">
        <ele>677.396</ele>
        <time>2017-09-22T10:40:17Z</time>
      </trkpt>
      <trkpt lat="41.384742" lon="-6.308386">
        <ele>678.895</ele>
        <time>2017-09-22T10:40:57Z</time>
      </trkpt>
      <trkpt lat="41.384736" lon="-6.308374">
        <ele>675.499</ele>
        <time>2017-09-22T10:41:31Z</time>
      </trkpt>
      <trkpt lat="41.384754" lon="-6.308381">
        <ele>675.945</ele>
        <time>2017-09-22T10:42:13Z</time>
      </trkpt>
      <trkpt lat="41.384742" lon="-6.308391">
        <ele>675.469</ele>
        <time>2017-09-22T10:42:38Z</time>
      </trkpt>
      <trkpt lat="41.384753" lon="-6.308389">
        <ele>675.915</ele>
        <time>2017-09-22T10:42:55Z</time>
      </trkpt>
      <trkpt lat="41.384749" lon="-6.308396">
        <ele>676.965</ele>
        <time>2017-09-22T10:43:10Z</time>
      </trkpt>
      <trkpt lat="41.384514" lon="-6.308489">
        <ele>677.311</ele>
        <time>2017-09-22T10:43:23Z</time>
      </trkpt>
      <trkpt lat="41.384183" lon="-6.308607">
        <ele>678.308</ele>
        <time>2017-09-22T10:43:38Z</time>
      </trkpt>
      <trkpt lat="41.383803" lon="-6.308717">
        <ele>680.233</ele>
        <time>2017-09-22T10:43:56Z</time>
      </trkpt>
      <trkpt lat="41.383490" lon="-6.308878">
        <ele>681.261</ele>
        <time>2017-09-22T10:44:14Z</time>
      </trkpt>
      <trkpt lat="41.383178" lon="-6.309010">
        <ele>681.282</ele>
        <time>2017-09-22T10:44:30Z</time>
      </trkpt>
      <trkpt lat="41.382784" lon="-6.309267">
        <ele>681.754</ele>
        <time>2017-09-22T10:44:44Z</time>
      </trkpt>
      <trkpt lat="41.382395" lon="-6.309454">
        <ele>682.663</ele>
        <time>2017-09-22T10:45:00Z</time>
      </trkpt>
      <trkpt lat="41.382000" lon="-6.309860">
        <ele>684.677</ele>
        <time>2017-09-22T10:45:19Z</time>
      </trkpt>
      <trkpt lat="41.381737" lon="-6.310485">
        <ele>687.413</ele>
        <time>2017-09-22T10:45:39Z</time>
      </trkpt>
      <trkpt lat="41.381457" lon="-6.311087">
        <ele>687.947</ele>
        <time>2017-09-22T10:45:55Z</time>
      </trkpt>
      <trkpt lat="41.381172" lon="-6.311434">
        <ele>689.421</ele>
        <time>2017-09-22T10:46:11Z</time>
      </trkpt>
      <trkpt lat="41.380993" lon="-6.311675">
        <ele>690.341</ele>
        <time>2017-09-22T10:46:27Z</time>
      </trkpt>
      <trkpt lat="41.380921" lon="-6.311754">
        <ele>690.805</ele>
        <time>2017-09-22T10:46:33Z</time>
      </trkpt>
      <trkpt lat="41.380912" lon="-6.311769">
        <ele>690.808</ele>
        <time>2017-09-22T10:46:34Z</time>
      </trkpt>
      <trkpt lat="41.380905" lon="-6.311783">
        <ele>690.864</ele>
        <time>2017-09-22T10:46:35Z</time>
      </trkpt>
      <trkpt lat="41.380895" lon="-6.311799">
        <ele>690.892</ele>
        <time>2017-09-22T10:46:36Z</time>
      </trkpt>
      <trkpt lat="41.380885" lon="-6.311813">
        <ele>691.313</ele>
        <time>2017-09-22T10:46:37Z</time>
      </trkpt>
      <trkpt lat="41.380718" lon="-6.312044">
        <ele>693.745</ele>
        <time>2017-09-22T10:46:53Z</time>
      </trkpt>
      <trkpt lat="41.380708" lon="-6.312057">
        <ele>694.224</ele>
        <time>2017-09-22T10:46:54Z</time>
      </trkpt>
      <trkpt lat="41.380699" lon="-6.312073">
        <ele>694.298</ele>
        <time>2017-09-22T10:46:55Z</time>
      </trkpt>
      <trkpt lat="41.380689" lon="-6.312090">
        <ele>694.254</ele>
        <time>2017-09-22T10:46:56Z</time>
      </trkpt>
      <trkpt lat="41.380679" lon="-6.312103">
        <ele>694.298</ele>
        <time>2017-09-22T10:46:57Z</time>
      </trkpt>
      <trkpt lat="41.380669" lon="-6.312114">
        <ele>694.698</ele>
        <time>2017-09-22T10:46:58Z</time>
      </trkpt>
      <trkpt lat="41.380544" lon="-6.312324">
        <ele>696.115</ele>
        <time>2017-09-22T10:47:13Z</time>
      </trkpt>
      <trkpt lat="41.380412" lon="-6.312596">
        <ele>697.526</ele>
        <time>2017-09-22T10:47:30Z</time>
      </trkpt>
      <trkpt lat="41.380115" lon="-6.312973">
        <ele>696.608</ele>
        <time>2017-09-22T10:47:44Z</time>
      </trkpt>
      <trkpt lat="41.379625" lon="-6.313312">
        <ele>696.141</ele>
        <time>2017-09-22T10:48:02Z</time>
      </trkpt>
      <trkpt lat="41.379267" lon="-6.313555">
        <ele>698.059</ele>
        <time>2017-09-22T10:48:19Z</time>
      </trkpt>
      <trkpt lat="41.379125" lon="-6.313657">
        <ele>698.570</ele>
        <time>2017-09-22T10:48:29Z</time>
      </trkpt>
      <trkpt lat="41.379020" lon="-6.313732">
        <ele>699.532</ele>
        <time>2017-09-22T10:48:44Z</time>
      </trkpt>
      <trkpt lat="41.378994" lon="-6.313760">
        <ele>699.581</ele>
        <time>2017-09-22T10:48:58Z</time>
      </trkpt>
      <trkpt lat="41.379000" lon="-6.313742">
        <ele>699.045</ele>
        <time>2017-09-22T10:49:13Z</time>
      </trkpt>
      <trkpt lat="41.378961" lon="-6.313777">
        <ele>699.011</ele>
        <time>2017-09-22T10:49:32Z</time>
      </trkpt>
      <trkpt lat="41.378946" lon="-6.313795">
        <ele>699.915</ele>
        <time>2017-09-22T10:49:56Z</time>
      </trkpt>
      <trkpt lat="41.378794" lon="-6.313909">
        <ele>699.965</ele>
        <time>2017-09-22T10:50:09Z</time>
      </trkpt>
      <trkpt lat="41.378460" lon="-6.314027">
        <ele>701.468</ele>
        <time>2017-09-22T10:50:27Z</time>
      </trkpt>
      <trkpt lat="41.378242" lon="-6.314114">
        <ele>702.814</ele>
        <time>2017-09-22T10:50:41Z</time>
      </trkpt>
      <trkpt lat="41.378014" lon="-6.314243">
        <ele>704.708</ele>
        <time>2017-09-22T10:50:58Z</time>
      </trkpt>
      <trkpt lat="41.377747" lon="-6.314294">
        <ele>706.778</ele>
        <time>2017-09-22T10:51:16Z</time>
      </trkpt>
      <trkpt lat="41.377544" lon="-6.314387">
        <ele>708.636</ele>
        <time>2017-09-22T10:51:31Z</time>
      </trkpt>
      <trkpt lat="41.377534" lon="-6.314404">
        <ele>708.637</ele>
        <time>2017-09-22T10:51:32Z</time>
      </trkpt>
      <trkpt lat="41.377523" lon="-6.314420">
        <ele>708.669</ele>
        <time>2017-09-22T10:51:33Z</time>
      </trkpt>
      <trkpt lat="41.377510" lon="-6.314432">
        <ele>708.628</ele>
        <time>2017-09-22T10:51:34Z</time>
      </trkpt>
      <trkpt lat="41.377495" lon="-6.314434">
        <ele>708.662</ele>
        <time>2017-09-22T10:51:35Z</time>
      </trkpt>
      <trkpt lat="41.377478" lon="-6.314432">
        <ele>708.698</ele>
        <time>2017-09-22T10:51:36Z</time>
      </trkpt>
      <trkpt lat="41.377465" lon="-6.314433">
        <ele>709.122</ele>
        <time>2017-09-22T10:51:37Z</time>
      </trkpt>
      <trkpt lat="41.377450" lon="-6.314438">
        <ele>709.112</ele>
        <time>2017-09-22T10:51:38Z</time>
      </trkpt>
      <trkpt lat="41.377434" lon="-6.314446">
        <ele>709.132</ele>
        <time>2017-09-22T10:51:39Z</time>
      </trkpt>
      <trkpt lat="41.377161" lon="-6.314508">
        <ele>710.505</ele>
        <time>2017-09-22T10:51:56Z</time>
      </trkpt>
      <trkpt lat="41.377059" lon="-6.314552">
        <ele>711.508</ele>
        <time>2017-09-22T10:52:02Z</time>
      </trkpt>
      <trkpt lat="41.376715" lon="-6.314624">
        <ele>712.433</ele>
        <time>2017-09-22T10:52:22Z</time>
      </trkpt>
      <trkpt lat="41.376405" lon="-6.314745">
        <ele>712.911</ele>
        <time>2017-09-22T10:52:40Z</time>
      </trkpt>
      <trkpt lat="41.376122" lon="-6.314878">
        <ele>713.422</ele>
        <time>2017-09-22T10:52:56Z</time>
      </trkpt>
      <trkpt lat="41.375807" lon="-6.315019">
        <ele>714.814</ele>
        <time>2017-09-22T10:53:14Z</time>
      </trkpt>
      <trkpt lat="41.375573" lon="-6.315089">
        <ele>716.823</ele>
        <time>2017-09-22T10:53:28Z</time>
      </trkpt>
      <trkpt lat="41.375493" lon="-6.315157">
        <ele>717.777</ele>
        <time>2017-09-22T10:53:34Z</time>
      </trkpt>
      <trkpt lat="41.375484" lon="-6.315176">
        <ele>717.743</ele>
        <time>2017-09-22T10:53:35Z</time>
      </trkpt>
      <trkpt lat="41.375472" lon="-6.315193">
        <ele>717.757</ele>
        <time>2017-09-22T10:53:36Z</time>
      </trkpt>
      <trkpt lat="41.375459" lon="-6.315211">
        <ele>718.271</ele>
        <time>2017-09-22T10:53:37Z</time>
      </trkpt>
      <trkpt lat="41.375446" lon="-6.315228">
        <ele>718.241</ele>
        <time>2017-09-22T10:53:38Z</time>
      </trkpt>
      <trkpt lat="41.375432" lon="-6.315245">
        <ele>718.215</ele>
        <time>2017-09-22T10:53:39Z</time>
      </trkpt>
      <trkpt lat="41.375281" lon="-6.315474">
        <ele>720.108</ele>
        <time>2017-09-22T10:53:52Z</time>
      </trkpt>
      <trkpt lat="41.375122" lon="-6.315701">
        <ele>721.639</ele>
        <time>2017-09-22T10:54:06Z</time>
      </trkpt>
      <trkpt lat="41.375082" lon="-6.315746">
        <ele>722.047</ele>
        <time>2017-09-22T10:54:09Z</time>
      </trkpt>
      <trkpt lat="41.375072" lon="-6.315766">
        <ele>722.598</ele>
        <time>2017-09-22T10:54:10Z</time>
      </trkpt>
      <trkpt lat="41.375063" lon="-6.315786">
        <ele>722.550</ele>
        <time>2017-09-22T10:54:11Z</time>
      </trkpt>
      <trkpt lat="41.374932" lon="-6.316072">
        <ele>724.069</ele>
        <time>2017-09-22T10:54:27Z</time>
      </trkpt>
      <trkpt lat="41.374922" lon="-6.316335">
        <ele>725.913</ele>
        <time>2017-09-22T10:54:42Z</time>
      </trkpt>
      <trkpt lat="41.374922" lon="-6.316354">
        <ele>725.979</ele>
        <time>2017-09-22T10:54:43Z</time>
      </trkpt>
      <trkpt lat="41.374810" lon="-6.316645">
        <ele>725.983</ele>
        <time>2017-09-22T10:54:56Z</time>
      </trkpt>
      <trkpt lat="41.374697" lon="-6.317061">
        <ele>726.448</ele>
        <time>2017-09-22T10:55:10Z</time>
      </trkpt>
      <trkpt lat="41.374700" lon="-6.317528">
        <ele>726.861</ele>
        <time>2017-09-22T10:55:23Z</time>
      </trkpt>
      <trkpt lat="41.374719" lon="-6.317953">
        <ele>727.817</ele>
        <time>2017-09-22T10:55:36Z</time>
      </trkpt>
      <trkpt lat="41.374620" lon="-6.318479">
        <ele>729.308</ele>
        <time>2017-09-22T10:55:54Z</time>
      </trkpt>
      <trkpt lat="41.374491" lon="-6.318981">
        <ele>731.236</ele>
        <time>2017-09-22T10:56:12Z</time>
      </trkpt>
      <trkpt lat="41.374390" lon="-6.319277">
        <ele>733.124</ele>
        <time>2017-09-22T10:56:27Z</time>
      </trkpt>
      <trkpt lat="41.374380" lon="-6.319293">
        <ele>733.685</ele>
        <time>2017-09-22T10:56:28Z</time>
      </trkpt>
      <trkpt lat="41.374370" lon="-6.319315">
        <ele>733.687</ele>
        <time>2017-09-22T10:56:29Z</time>
      </trkpt>
      <trkpt lat="41.374363" lon="-6.319335">
        <ele>733.676</ele>
        <time>2017-09-22T10:56:30Z</time>
      </trkpt>
      <trkpt lat="41.374356" lon="-6.319354">
        <ele>733.620</ele>
        <time>2017-09-22T10:56:31Z</time>
      </trkpt>
      <trkpt lat="41.374254" lon="-6.319713">
        <ele>735.596</ele>
        <time>2017-09-22T10:56:47Z</time>
      </trkpt>
      <trkpt lat="41.374169" lon="-6.320066">
        <ele>736.510</ele>
        <time>2017-09-22T10:57:03Z</time>
      </trkpt>
      <trkpt lat="41.374137" lon="-6.320297">
        <ele>737.453</ele>
        <time>2017-09-22T10:57:14Z</time>
      </trkpt>
      <trkpt lat="41.374129" lon="-6.320317">
        <ele>737.404</ele>
        <time>2017-09-22T10:57:15Z</time>
      </trkpt>
      <trkpt lat="41.374122" lon="-6.320340">
        <ele>737.414</ele>
        <time>2017-09-22T10:57:16Z</time>
      </trkpt>
      <trkpt lat="41.374118" lon="-6.320360">
        <ele>737.408</ele>
        <time>2017-09-22T10:57:17Z</time>
      </trkpt>
      <trkpt lat="41.374117" lon="-6.320382">
        <ele>737.487</ele>
        <time>2017-09-22T10:57:18Z</time>
      </trkpt>
      <trkpt lat="41.374117" lon="-6.320402">
        <ele>737.455</ele>
        <time>2017-09-22T10:57:19Z</time>
      </trkpt>
      <trkpt lat="41.374117" lon="-6.320424">
        <ele>737.986</ele>
        <time>2017-09-22T10:57:20Z</time>
      </trkpt>
      <trkpt lat="41.374092" lon="-6.320790">
        <ele>740.328</ele>
        <time>2017-09-22T10:57:37Z</time>
      </trkpt>
      <trkpt lat="41.374092" lon="-6.320918">
        <ele>740.367</ele>
        <time>2017-09-22T10:57:43Z</time>
      </trkpt>
      <trkpt lat="41.374087" lon="-6.320941">
        <ele>740.361</ele>
        <time>2017-09-22T10:57:44Z</time>
      </trkpt>
      <trkpt lat="41.374089" lon="-6.320963">
        <ele>740.357</ele>
        <time>2017-09-22T10:57:45Z</time>
      </trkpt>
      <trkpt lat="41.374090" lon="-6.321396">
        <ele>742.261</ele>
        <time>2017-09-22T10:58:03Z</time>
      </trkpt>
      <trkpt lat="41.374042" lon="-6.321674">
        <ele>745.153</ele>
        <time>2017-09-22T10:58:16Z</time>
      </trkpt>
      <trkpt lat="41.374042" lon="-6.321691">
        <ele>745.104</ele>
        <time>2017-09-22T10:58:17Z</time>
      </trkpt>
      <trkpt lat="41.374041" lon="-6.321710">
        <ele>745.114</ele>
        <time>2017-09-22T10:58:18Z</time>
      </trkpt>
      <trkpt lat="41.374036" lon="-6.321728">
        <ele>745.108</ele>
        <time>2017-09-22T10:58:19Z</time>
      </trkpt>
      <trkpt lat="41.374031" lon="-6.321751">
        <ele>745.137</ele>
        <time>2017-09-22T10:58:20Z</time>
      </trkpt>
      <trkpt lat="41.374028" lon="-6.321772">
        <ele>745.135</ele>
        <time>2017-09-22T10:58:21Z</time>
      </trkpt>
      <trkpt lat="41.374022" lon="-6.321796">
        <ele>745.136</ele>
        <time>2017-09-22T10:58:22Z</time>
      </trkpt>
      <trkpt lat="41.374018" lon="-6.321815">
        <ele>745.698</ele>
        <time>2017-09-22T10:58:23Z</time>
      </trkpt>
      <trkpt lat="41.374016" lon="-6.321836">
        <ele>745.667</ele>
        <time>2017-09-22T10:58:24Z</time>
      </trkpt>
      <trkpt lat="41.374013" lon="-6.321852">
        <ele>745.611</ele>
        <time>2017-09-22T10:58:25Z</time>
      </trkpt>
      <trkpt lat="41.374006" lon="-6.321871">
        <ele>745.617</ele>
        <time>2017-09-22T10:58:26Z</time>
      </trkpt>
      <trkpt lat="41.373998" lon="-6.321889">
        <ele>746.111</ele>
        <time>2017-09-22T10:58:27Z</time>
      </trkpt>
      <trkpt lat="41.373921" lon="-6.322177">
        <ele>747.575</ele>
        <time>2017-09-22T10:58:44Z</time>
      </trkpt>
      <trkpt lat="41.373903" lon="-6.322340">
        <ele>749.428</ele>
        <time>2017-09-22T10:58:54Z</time>
      </trkpt>
      <trkpt lat="41.373901" lon="-6.322678">
        <ele>749.020</ele>
        <time>2017-09-22T10:59:08Z</time>
      </trkpt>
      <trkpt lat="41.373886" lon="-6.322774">
        <ele>748.508</ele>
        <time>2017-09-22T10:59:12Z</time>
      </trkpt>
      <trkpt lat="41.373720" lon="-6.323361">
        <ele>747.019</ele>
        <time>2017-09-22T10:59:28Z</time>
      </trkpt>
      <trkpt lat="41.373648" lon="-6.323557">
        <ele>747.017</ele>
        <time>2017-09-22T10:59:32Z</time>
      </trkpt>
      <trkpt lat="41.373346" lon="-6.324109">
        <ele>745.188</ele>
        <time>2017-09-22T10:59:46Z</time>
      </trkpt>
      <trkpt lat="41.373287" lon="-6.324281">
        <ele>744.280</ele>
        <time>2017-09-22T10:59:50Z</time>
      </trkpt>
      <trkpt lat="41.373279" lon="-6.324338">
        <ele>744.239</ele>
        <time>2017-09-22T10:59:51Z</time>
      </trkpt>
      <trkpt lat="41.373272" lon="-6.324519">
        <ele>743.753</ele>
        <time>2017-09-22T10:59:54Z</time>
      </trkpt>
      <trkpt lat="41.373241" lon="-6.324984">
        <ele>742.749</ele>
        <time>2017-09-22T11:00:01Z</time>
      </trkpt>
      <trkpt lat="41.373218" lon="-6.325049">
        <ele>742.743</ele>
        <time>2017-09-22T11:00:02Z</time>
      </trkpt>
      <trkpt lat="41.373193" lon="-6.325106">
        <ele>742.768</ele>
        <time>2017-09-22T11:00:03Z</time>
      </trkpt>
      <trkpt lat="41.373164" lon="-6.325161">
        <ele>742.242</ele>
        <time>2017-09-22T11:00:04Z</time>
      </trkpt>
      <trkpt lat="41.373131" lon="-6.325206">
        <ele>742.726</ele>
        <time>2017-09-22T11:00:05Z</time>
      </trkpt>
      <trkpt lat="41.373098" lon="-6.325247">
        <ele>742.708</ele>
        <time>2017-09-22T11:00:06Z</time>
      </trkpt>
      <trkpt lat="41.373069" lon="-6.325292">
        <ele>742.248</ele>
        <time>2017-09-22T11:00:07Z</time>
      </trkpt>
      <trkpt lat="41.373042" lon="-6.325332">
        <ele>742.256</ele>
        <time>2017-09-22T11:00:08Z</time>
      </trkpt>
      <trkpt lat="41.372621" lon="-6.326109">
        <ele>741.757</ele>
        <time>2017-09-22T11:00:25Z</time>
      </trkpt>
      <trkpt lat="41.372376" lon="-6.326725">
        <ele>739.899</ele>
        <time>2017-09-22T11:00:36Z</time>
      </trkpt>
      <trkpt lat="41.372347" lon="-6.326776">
        <ele>739.378</ele>
        <time>2017-09-22T11:00:37Z</time>
      </trkpt>
      <trkpt lat="41.372279" lon="-6.326872">
        <ele>738.942</ele>
        <time>2017-09-22T11:00:39Z</time>
      </trkpt>
      <trkpt lat="41.372239" lon="-6.326916">
        <ele>738.428</ele>
        <time>2017-09-22T11:00:40Z</time>
      </trkpt>
      <trkpt lat="41.372202" lon="-6.326955">
        <ele>738.492</ele>
        <time>2017-09-22T11:00:41Z</time>
      </trkpt>
      <trkpt lat="41.372159" lon="-6.326986">
        <ele>738.497</ele>
        <time>2017-09-22T11:00:42Z</time>
      </trkpt>
      <trkpt lat="41.372116" lon="-6.327011">
        <ele>737.923</ele>
        <time>2017-09-22T11:00:43Z</time>
      </trkpt>
      <trkpt lat="41.372068" lon="-6.327033">
        <ele>737.925</ele>
        <time>2017-09-22T11:00:44Z</time>
      </trkpt>
      <trkpt lat="41.372019" lon="-6.327052">
        <ele>737.408</ele>
        <time>2017-09-22T11:00:45Z</time>
      </trkpt>
      <trkpt lat="41.371965" lon="-6.327067">
        <ele>736.951</ele>
        <time>2017-09-22T11:00:46Z</time>
      </trkpt>
      <trkpt lat="41.371912" lon="-6.327079">
        <ele>736.989</ele>
        <time>2017-09-22T11:00:47Z</time>
      </trkpt>
      <trkpt lat="41.371193" lon="-6.327276">
        <ele>736.570</ele>
        <time>2017-09-22T11:01:01Z</time>
      </trkpt>
      <trkpt lat="41.370520" lon="-6.327546">
        <ele>736.922</ele>
        <time>2017-09-22T11:01:17Z</time>
      </trkpt>
      <trkpt lat="41.370069" lon="-6.327741">
        <ele>736.921</ele>
        <time>2017-09-22T11:01:29Z</time>
      </trkpt>
      <trkpt lat="41.369842" lon="-6.327793">
        <ele>736.555</ele>
        <time>2017-09-22T11:01:34Z</time>
      </trkpt>
      <trkpt lat="41.369802" lon="-6.327811">
        <ele>736.571</ele>
        <time>2017-09-22T11:01:35Z</time>
      </trkpt>
      <trkpt lat="41.369758" lon="-6.327836">
        <ele>736.575</ele>
        <time>2017-09-22T11:01:36Z</time>
      </trkpt>
      <trkpt lat="41.369678" lon="-6.327892">
        <ele>736.546</ele>
        <time>2017-09-22T11:01:38Z</time>
      </trkpt>
      <trkpt lat="41.369645" lon="-6.327927">
        <ele>736.988</ele>
        <time>2017-09-22T11:01:39Z</time>
      </trkpt>
      <trkpt lat="41.369608" lon="-6.327962">
        <ele>736.916</ele>
        <time>2017-09-22T11:01:40Z</time>
      </trkpt>
      <trkpt lat="41.369084" lon="-6.328322">
        <ele>735.008</ele>
        <time>2017-09-22T11:01:54Z</time>
      </trkpt>
      <trkpt lat="41.368359" lon="-6.328830">
        <ele>729.736</ele>
        <time>2017-09-22T11:02:09Z</time>
      </trkpt>
      <trkpt lat="41.368262" lon="-6.328892">
        <ele>728.854</ele>
        <time>2017-09-22T11:02:11Z</time>
      </trkpt>
      <trkpt lat="41.367553" lon="-6.329112">
        <ele>724.075</ele>
        <time>2017-09-22T11:02:24Z</time>
      </trkpt>
      <trkpt lat="41.366928" lon="-6.329072">
        <ele>720.677</ele>
        <time>2017-09-22T11:02:36Z</time>
      </trkpt>
      <trkpt lat="41.366774" lon="-6.329020">
        <ele>720.136</ele>
        <time>2017-09-22T11:02:39Z</time>
      </trkpt>
      <trkpt lat="41.366681" lon="-6.328968">
        <ele>719.640</ele>
        <time>2017-09-22T11:02:41Z</time>
      </trkpt>
      <trkpt lat="41.366443" lon="-6.328875">
        <ele>719.266</ele>
        <time>2017-09-22T11:02:46Z</time>
      </trkpt>
      <trkpt lat="41.365842" lon="-6.328700">
        <ele>716.830</ele>
        <time>2017-09-22T11:03:01Z</time>
      </trkpt>
      <trkpt lat="41.365802" lon="-6.328686">
        <ele>716.392</ele>
        <time>2017-09-22T11:03:02Z</time>
      </trkpt>
      <trkpt lat="41.365713" lon="-6.328640">
        <ele>715.373</ele>
        <time>2017-09-22T11:03:04Z</time>
      </trkpt>
      <trkpt lat="41.365669" lon="-6.328603">
        <ele>715.320</ele>
        <time>2017-09-22T11:03:05Z</time>
      </trkpt>
      <trkpt lat="41.365587" lon="-6.328509">
        <ele>715.308</ele>
        <time>2017-09-22T11:03:07Z</time>
      </trkpt>
      <trkpt lat="41.365546" lon="-6.328458">
        <ele>714.831</ele>
        <time>2017-09-22T11:03:08Z</time>
      </trkpt>
      <trkpt lat="41.365504" lon="-6.328418">
        <ele>714.849</ele>
        <time>2017-09-22T11:03:09Z</time>
      </trkpt>
      <trkpt lat="41.365457" lon="-6.328388">
        <ele>714.810</ele>
        <time>2017-09-22T11:03:10Z</time>
      </trkpt>
      <trkpt lat="41.365410" lon="-6.328365">
        <ele>714.812</ele>
        <time>2017-09-22T11:03:11Z</time>
      </trkpt>
      <trkpt lat="41.365361" lon="-6.328345">
        <ele>714.891</ele>
        <time>2017-09-22T11:03:12Z</time>
      </trkpt>
      <trkpt lat="41.365115" lon="-6.328274">
        <ele>714.835</ele>
        <time>2017-09-22T11:03:18Z</time>
      </trkpt>
      <trkpt lat="41.364860" lon="-6.328267">
        <ele>714.871</ele>
        <time>2017-09-22T11:03:24Z</time>
      </trkpt>
      <trkpt lat="41.364610" lon="-6.328300">
        <ele>717.225</ele>
        <time>2017-09-22T11:06:00Z</time>
      </trkpt>
      <trkpt lat="41.364594" lon="-6.328307">
        <ele>717.267</ele>
        <time>2017-09-22T11:06:01Z</time>
      </trkpt>
      <trkpt lat="41.364583" lon="-6.328322">
        <ele>717.781</ele>
        <time>2017-09-22T11:06:02Z</time>
      </trkpt>
      <trkpt lat="41.364574" lon="-6.328342">
        <ele>717.719</ele>
        <time>2017-09-22T11:06:03Z</time>
      </trkpt>
      <trkpt lat="41.364563" lon="-6.328365">
        <ele>717.708</ele>
        <time>2017-09-22T11:06:04Z</time>
      </trkpt>
      <trkpt lat="41.364550" lon="-6.328386">
        <ele>717.728</ele>
        <time>2017-09-22T11:06:05Z</time>
      </trkpt>
      <trkpt lat="41.364532" lon="-6.328411">
        <ele>717.716</ele>
        <time>2017-09-22T11:06:06Z</time>
      </trkpt>
      <trkpt lat="41.364310" lon="-6.328788">
        <ele>717.717</ele>
        <time>2017-09-22T11:06:18Z</time>
      </trkpt>
      <trkpt lat="41.364172" lon="-6.328910">
        <ele>718.229</ele>
        <time>2017-09-22T11:06:22Z</time>
      </trkpt>
      <trkpt lat="41.364134" lon="-6.328934">
        <ele>717.718</ele>
        <time>2017-09-22T11:06:23Z</time>
      </trkpt>
      <trkpt lat="41.364091" lon="-6.328954">
        <ele>717.722</ele>
        <time>2017-09-22T11:06:24Z</time>
      </trkpt>
      <trkpt lat="41.364048" lon="-6.328968">
        <ele>717.718</ele>
        <time>2017-09-22T11:06:25Z</time>
      </trkpt>
      <trkpt lat="41.364006" lon="-6.328977">
        <ele>717.792</ele>
        <time>2017-09-22T11:06:26Z</time>
      </trkpt>
      <trkpt lat="41.363973" lon="-6.328974">
        <ele>717.252</ele>
        <time>2017-09-22T11:06:27Z</time>
      </trkpt>
      <trkpt lat="41.363945" lon="-6.328967">
        <ele>717.253</ele>
        <time>2017-09-22T11:06:28Z</time>
      </trkpt>
      <trkpt lat="41.363905" lon="-6.328965">
        <ele>717.208</ele>
        <time>2017-09-22T11:06:30Z</time>
      </trkpt>
      <trkpt lat="41.363889" lon="-6.328974">
        <ele>717.208</ele>
        <time>2017-09-22T11:06:31Z</time>
      </trkpt>
      <trkpt lat="41.363877" lon="-6.328983">
        <ele>717.237</ele>
        <time>2017-09-22T11:06:32Z</time>
      </trkpt>
      <trkpt lat="41.363867" lon="-6.328993">
        <ele>716.865</ele>
        <time>2017-09-22T11:06:33Z</time>
      </trkpt>
      <trkpt lat="41.363858" lon="-6.329002">
        <ele>716.886</ele>
        <time>2017-09-22T11:06:34Z</time>
      </trkpt>
      <trkpt lat="41.363836" lon="-6.329012">
        <ele>717.218</ele>
        <time>2017-09-22T11:06:49Z</time>
      </trkpt>
      <trkpt lat="41.363853" lon="-6.328997">
        <ele>718.777</ele>
        <time>2017-09-22T11:07:06Z</time>
      </trkpt>
      <trkpt lat="41.363859" lon="-6.328999">
        <ele>717.791</ele>
        <time>2017-09-22T11:07:50Z</time>
      </trkpt>
      <trkpt lat="41.363872" lon="-6.328987">
        <ele>716.397</ele>
        <time>2017-09-22T11:08:44Z</time>
      </trkpt>
      <trkpt lat="41.363875" lon="-6.328983">
        <ele>718.741</ele>
        <time>2017-09-22T11:09:44Z</time>
      </trkpt>
      <trkpt lat="41.363849" lon="-6.329012">
        <ele>719.659</ele>
        <time>2017-09-22T11:10:06Z</time>
      </trkpt>
      <trkpt lat="41.363716" lon="-6.329147">
        <ele>719.203</ele>
        <time>2017-09-22T11:10:16Z</time>
      </trkpt>
      <trkpt lat="41.363711" lon="-6.329197">
        <ele>718.723</ele>
        <time>2017-09-22T11:10:17Z</time>
      </trkpt>
      <trkpt lat="41.363713" lon="-6.329236">
        <ele>718.208</ele>
        <time>2017-09-22T11:10:18Z</time>
      </trkpt>
      <trkpt lat="41.363709" lon="-6.329282">
        <ele>717.727</ele>
        <time>2017-09-22T11:10:19Z</time>
      </trkpt>
      <trkpt lat="41.363700" lon="-6.329330">
        <ele>717.725</ele>
        <time>2017-09-22T11:10:20Z</time>
      </trkpt>
      <trkpt lat="41.363689" lon="-6.329376">
        <ele>717.266</ele>
        <time>2017-09-22T11:10:21Z</time>
      </trkpt>
      <trkpt lat="41.363563" lon="-6.330124">
        <ele>714.458</ele>
        <time>2017-09-22T11:10:35Z</time>
      </trkpt>
      <trkpt lat="41.363452" lon="-6.330577">
        <ele>712.977</ele>
        <time>2017-09-22T11:10:48Z</time>
      </trkpt>
      <trkpt lat="41.363366" lon="-6.330695">
        <ele>711.911</ele>
        <time>2017-09-22T11:10:51Z</time>
      </trkpt>
      <trkpt lat="41.363344" lon="-6.330741">
        <ele>711.927</ele>
        <time>2017-09-22T11:10:52Z</time>
      </trkpt>
      <trkpt lat="41.363328" lon="-6.330779">
        <ele>711.541</ele>
        <time>2017-09-22T11:10:53Z</time>
      </trkpt>
      <trkpt lat="41.363316" lon="-6.330809">
        <ele>711.572</ele>
        <time>2017-09-22T11:10:54Z</time>
      </trkpt>
      <trkpt lat="41.363307" lon="-6.330840">
        <ele>711.513</ele>
        <time>2017-09-22T11:10:55Z</time>
      </trkpt>
      <trkpt lat="41.363310" lon="-6.330872">
        <ele>711.014</ele>
        <time>2017-09-22T11:10:56Z</time>
      </trkpt>
      <trkpt lat="41.363318" lon="-6.330899">
        <ele>711.008</ele>
        <time>2017-09-22T11:10:57Z</time>
      </trkpt>
      <trkpt lat="41.363320" lon="-6.330949">
        <ele>710.529</ele>
        <time>2017-09-22T11:10:59Z</time>
      </trkpt>
      <trkpt lat="41.363310" lon="-6.330974">
        <ele>710.537</ele>
        <time>2017-09-22T11:11:00Z</time>
      </trkpt>
      <trkpt lat="41.363298" lon="-6.330998">
        <ele>710.558</ele>
        <time>2017-09-22T11:11:01Z</time>
      </trkpt>
      <trkpt lat="41.363289" lon="-6.331016">
        <ele>710.050</ele>
        <time>2017-09-22T11:11:02Z</time>
      </trkpt>
      <trkpt lat="41.363281" lon="-6.331032">
        <ele>710.099</ele>
        <time>2017-09-22T11:11:03Z</time>
      </trkpt>
      <trkpt lat="41.363264" lon="-6.331055">
        <ele>710.013</ele>
        <time>2017-09-22T11:11:04Z</time>
      </trkpt>
      <trkpt lat="41.363241" lon="-6.331083">
        <ele>709.539</ele>
        <time>2017-09-22T11:11:05Z</time>
      </trkpt>
      <trkpt lat="41.362928" lon="-6.331241">
        <ele>706.733</ele>
        <time>2017-09-22T11:11:15Z</time>
      </trkpt>
      <trkpt lat="41.362715" lon="-6.331387">
        <ele>703.886</ele>
        <time>2017-09-22T11:11:25Z</time>
      </trkpt>
      <trkpt lat="41.362472" lon="-6.331598">
        <ele>701.960</ele>
        <time>2017-09-22T11:11:33Z</time>
      </trkpt>
      <trkpt lat="41.362434" lon="-6.331631">
        <ele>701.926</ele>
        <time>2017-09-22T11:11:34Z</time>
      </trkpt>
      <trkpt lat="41.362401" lon="-6.331665">
        <ele>701.408</ele>
        <time>2017-09-22T11:11:35Z</time>
      </trkpt>
      <trkpt lat="41.362369" lon="-6.331705">
        <ele>701.460</ele>
        <time>2017-09-22T11:11:36Z</time>
      </trkpt>
      <trkpt lat="41.362337" lon="-6.331752">
        <ele>701.468</ele>
        <time>2017-09-22T11:11:37Z</time>
      </trkpt>
      <trkpt lat="41.362308" lon="-6.331799">
        <ele>700.939</ele>
        <time>2017-09-22T11:11:38Z</time>
      </trkpt>
      <trkpt lat="41.362280" lon="-6.331847">
        <ele>700.421</ele>
        <time>2017-09-22T11:11:39Z</time>
      </trkpt>
      <trkpt lat="41.362251" lon="-6.331887">
        <ele>700.460</ele>
        <time>2017-09-22T11:11:40Z</time>
      </trkpt>
      <trkpt lat="41.362219" lon="-6.331922">
        <ele>699.974</ele>
        <time>2017-09-22T11:11:41Z</time>
      </trkpt>
      <trkpt lat="41.362183" lon="-6.331953">
        <ele>699.510</ele>
        <time>2017-09-22T11:11:42Z</time>
      </trkpt>
      <trkpt lat="41.362143" lon="-6.331977">
        <ele>699.574</ele>
        <time>2017-09-22T11:11:43Z</time>
      </trkpt>
      <trkpt lat="41.362097" lon="-6.331997">
        <ele>699.517</ele>
        <time>2017-09-22T11:11:44Z</time>
      </trkpt>
      <trkpt lat="41.362049" lon="-6.332017">
        <ele>699.087</ele>
        <time>2017-09-22T11:11:45Z</time>
      </trkpt>
      <trkpt lat="41.361826" lon="-6.332130">
        <ele>698.015</ele>
        <time>2017-09-22T11:11:50Z</time>
      </trkpt>
      <trkpt lat="41.361793" lon="-6.332166">
        <ele>698.008</ele>
        <time>2017-09-22T11:11:51Z</time>
      </trkpt>
      <trkpt lat="41.361766" lon="-6.332203">
        <ele>697.563</ele>
        <time>2017-09-22T11:11:52Z</time>
      </trkpt>
      <trkpt lat="41.361740" lon="-6.332246">
        <ele>697.571</ele>
        <time>2017-09-22T11:11:53Z</time>
      </trkpt>
      <trkpt lat="41.361719" lon="-6.332294">
        <ele>697.022</ele>
        <time>2017-09-22T11:11:54Z</time>
      </trkpt>
      <trkpt lat="41.361707" lon="-6.332332">
        <ele>697.044</ele>
        <time>2017-09-22T11:11:55Z</time>
      </trkpt>
      <trkpt lat="41.361697" lon="-6.332378">
        <ele>697.013</ele>
        <time>2017-09-22T11:11:56Z</time>
      </trkpt>
      <trkpt lat="41.361613" lon="-6.332712">
        <ele>695.627</ele>
        <time>2017-09-22T11:12:02Z</time>
      </trkpt>
      <trkpt lat="41.361594" lon="-6.332759">
        <ele>695.693</ele>
        <time>2017-09-22T11:12:03Z</time>
      </trkpt>
      <trkpt lat="41.361408" lon="-6.333430">
        <ele>689.447</ele>
        <time>2017-09-22T11:12:17Z</time>
      </trkpt>
      <trkpt lat="41.361516" lon="-6.334076">
        <ele>686.087</ele>
        <time>2017-09-22T11:12:28Z</time>
      </trkpt>
      <trkpt lat="41.361527" lon="-6.334343">
        <ele>685.042</ele>
        <time>2017-09-22T11:12:33Z</time>
      </trkpt>
      <trkpt lat="41.361527" lon="-6.334401">
        <ele>684.626</ele>
        <time>2017-09-22T11:12:34Z</time>
      </trkpt>
      <trkpt lat="41.361530" lon="-6.334450">
        <ele>684.608</ele>
        <time>2017-09-22T11:12:35Z</time>
      </trkpt>
      <trkpt lat="41.361540" lon="-6.334505">
        <ele>684.620</ele>
        <time>2017-09-22T11:12:36Z</time>
      </trkpt>
      <trkpt lat="41.361551" lon="-6.334549">
        <ele>684.688</ele>
        <time>2017-09-22T11:12:37Z</time>
      </trkpt>
      <trkpt lat="41.361787" lon="-6.335182">
        <ele>685.519</ele>
        <time>2017-09-22T11:12:52Z</time>
      </trkpt>
      <trkpt lat="41.361978" lon="-6.335686">
        <ele>686.581</ele>
        <time>2017-09-22T11:13:05Z</time>
      </trkpt>
      <trkpt lat="41.362188" lon="-6.336188">
        <ele>688.450</ele>
        <time>2017-09-22T11:13:20Z</time>
      </trkpt>
      <trkpt lat="41.362200" lon="-6.336243">
        <ele>688.484</ele>
        <time>2017-09-22T11:13:22Z</time>
      </trkpt>
      <trkpt lat="41.362206" lon="-6.336271">
        <ele>688.920</ele>
        <time>2017-09-22T11:13:23Z</time>
      </trkpt>
      <trkpt lat="41.362211" lon="-6.336291">
        <ele>689.414</ele>
        <time>2017-09-22T11:13:24Z</time>
      </trkpt>
      <trkpt lat="41.362215" lon="-6.336319">
        <ele>689.467</ele>
        <time>2017-09-22T11:13:25Z</time>
      </trkpt>
      <trkpt lat="41.362215" lon="-6.336342">
        <ele>689.881</ele>
        <time>2017-09-22T11:13:26Z</time>
      </trkpt>
      <trkpt lat="41.362215" lon="-6.336371">
        <ele>689.819</ele>
        <time>2017-09-22T11:13:27Z</time>
      </trkpt>
      <trkpt lat="41.362217" lon="-6.336396">
        <ele>689.808</ele>
        <time>2017-09-22T11:13:28Z</time>
      </trkpt>
      <trkpt lat="41.362219" lon="-6.336423">
        <ele>689.868</ele>
        <time>2017-09-22T11:13:29Z</time>
      </trkpt>
      <trkpt lat="41.362285" lon="-6.336707">
        <ele>692.786</ele>
        <time>2017-09-22T11:13:43Z</time>
      </trkpt>
      <trkpt lat="41.362282" lon="-6.336725">
        <ele>692.797</ele>
        <time>2017-09-22T11:13:44Z</time>
      </trkpt>
      <trkpt lat="41.362276" lon="-6.336747">
        <ele>692.719</ele>
        <time>2017-09-22T11:13:45Z</time>
      </trkpt>
      <trkpt lat="41.362246" lon="-6.336821">
        <ele>693.218</ele>
        <time>2017-09-22T11:13:49Z</time>
      </trkpt>
      <trkpt lat="41.362146" lon="-6.337053">
        <ele>693.732</ele>
        <time>2017-09-22T11:14:02Z</time>
      </trkpt>
      <trkpt lat="41.362146" lon="-6.337076">
        <ele>693.748</ele>
        <time>2017-09-22T11:14:03Z</time>
      </trkpt>
      <trkpt lat="41.362143" lon="-6.337097">
        <ele>693.722</ele>
        <time>2017-09-22T11:14:04Z</time>
      </trkpt>
      <trkpt lat="41.362140" lon="-6.337121">
        <ele>693.791</ele>
        <time>2017-09-22T11:14:05Z</time>
      </trkpt>
      <trkpt lat="41.362137" lon="-6.337137">
        <ele>693.781</ele>
        <time>2017-09-22T11:14:06Z</time>
      </trkpt>
      <trkpt lat="41.362134" lon="-6.337156">
        <ele>693.719</ele>
        <time>2017-09-22T11:14:07Z</time>
      </trkpt>
      <trkpt lat="41.362129" lon="-6.337172">
        <ele>694.208</ele>
        <time>2017-09-22T11:14:08Z</time>
      </trkpt>
      <trkpt lat="41.362126" lon="-6.337189">
        <ele>694.211</ele>
        <time>2017-09-22T11:14:09Z</time>
      </trkpt>
      <trkpt lat="41.362125" lon="-6.337206">
        <ele>694.289</ele>
        <time>2017-09-22T11:14:10Z</time>
      </trkpt>
      <trkpt lat="41.362124" lon="-6.337228">
        <ele>694.220</ele>
        <time>2017-09-22T11:14:11Z</time>
      </trkpt>
      <trkpt lat="41.362123" lon="-6.337248">
        <ele>694.282</ele>
        <time>2017-09-22T11:14:12Z</time>
      </trkpt>
      <trkpt lat="41.362103" lon="-6.337617">
        <ele>694.661</ele>
        <time>2017-09-22T11:14:26Z</time>
      </trkpt>
      <trkpt lat="41.362013" lon="-6.338008">
        <ele>695.135</ele>
        <time>2017-09-22T11:14:42Z</time>
      </trkpt>
      <trkpt lat="41.361965" lon="-6.338258">
        <ele>696.141</ele>
        <time>2017-09-22T11:14:52Z</time>
      </trkpt>
      <trkpt lat="41.361956" lon="-6.338278">
        <ele>696.125</ele>
        <time>2017-09-22T11:14:53Z</time>
      </trkpt>
      <trkpt lat="41.361949" lon="-6.338301">
        <ele>696.668</ele>
        <time>2017-09-22T11:14:54Z</time>
      </trkpt>
      <trkpt lat="41.361923" lon="-6.338626">
        <ele>697.542</ele>
        <time>2017-09-22T11:15:08Z</time>
      </trkpt>
      <trkpt lat="41.361955" lon="-6.338968">
        <ele>700.426</ele>
        <time>2017-09-22T11:15:25Z</time>
      </trkpt>
      <trkpt lat="41.361980" lon="-6.339138">
        <ele>701.408</ele>
        <time>2017-09-22T11:15:34Z</time>
      </trkpt>
      <trkpt lat="41.361983" lon="-6.339162">
        <ele>701.438</ele>
        <time>2017-09-22T11:15:35Z</time>
      </trkpt>
      <trkpt lat="41.361984" lon="-6.339181">
        <ele>701.946</ele>
        <time>2017-09-22T11:15:36Z</time>
      </trkpt>
      <trkpt lat="41.361911" lon="-6.339472">
        <ele>703.837</ele>
        <time>2017-09-22T11:15:52Z</time>
      </trkpt>
      <trkpt lat="41.361811" lon="-6.339763">
        <ele>705.219</ele>
        <time>2017-09-22T11:16:09Z</time>
      </trkpt>
      <trkpt lat="41.361738" lon="-6.339904">
        <ele>706.298</ele>
        <time>2017-09-22T11:16:18Z</time>
      </trkpt>
      <trkpt lat="41.361738" lon="-6.339924">
        <ele>706.292</ele>
        <time>2017-09-22T11:16:19Z</time>
      </trkpt>
      <trkpt lat="41.361739" lon="-6.339941">
        <ele>706.238</ele>
        <time>2017-09-22T11:16:20Z</time>
      </trkpt>
      <trkpt lat="41.361735" lon="-6.339959">
        <ele>706.272</ele>
        <time>2017-09-22T11:16:21Z</time>
      </trkpt>
      <trkpt lat="41.361733" lon="-6.339974">
        <ele>706.293</ele>
        <time>2017-09-22T11:16:22Z</time>
      </trkpt>
      <trkpt lat="41.361729" lon="-6.339991">
        <ele>706.265</ele>
        <time>2017-09-22T11:16:23Z</time>
      </trkpt>
      <trkpt lat="41.361725" lon="-6.340005">
        <ele>706.221</ele>
        <time>2017-09-22T11:16:24Z</time>
      </trkpt>
      <trkpt lat="41.361703" lon="-6.340056">
        <ele>706.208</ele>
        <time>2017-09-22T11:16:28Z</time>
      </trkpt>
      <trkpt lat="41.361696" lon="-6.340068">
        <ele>706.251</ele>
        <time>2017-09-22T11:16:29Z</time>
      </trkpt>
      <trkpt lat="41.361672" lon="-6.340115">
        <ele>706.739</ele>
        <time>2017-09-22T11:16:33Z</time>
      </trkpt>
      <trkpt lat="41.361663" lon="-6.340139">
        <ele>706.760</ele>
        <time>2017-09-22T11:16:35Z</time>
      </trkpt>
      <trkpt lat="41.361627" lon="-6.340193">
        <ele>706.782</ele>
        <time>2017-09-22T11:16:39Z</time>
      </trkpt>
      <trkpt lat="41.361618" lon="-6.340201">
        <ele>706.771</ele>
        <time>2017-09-22T11:16:40Z</time>
      </trkpt>
      <trkpt lat="41.361604" lon="-6.340224">
        <ele>706.745</ele>
        <time>2017-09-22T11:16:52Z</time>
      </trkpt>
      <trkpt lat="41.361606" lon="-6.340222">
        <ele>706.251</ele>
        <time>2017-09-22T11:17:11Z</time>
      </trkpt>
      <trkpt lat="41.361614" lon="-6.340207">
        <ele>705.295</ele>
        <time>2017-09-22T11:17:37Z</time>
      </trkpt>
      <trkpt lat="41.361607" lon="-6.340193">
        <ele>708.167</ele>
        <time>2017-09-22T11:18:11Z</time>
      </trkpt>
      <trkpt lat="41.361607" lon="-6.340201">
        <ele>707.681</ele>
        <time>2017-09-22T11:19:03Z</time>
      </trkpt>
      <trkpt lat="41.361609" lon="-6.340205">
        <ele>708.119</ele>
        <time>2017-09-22T11:20:00Z</time>
      </trkpt>
      <trkpt lat="41.361618" lon="-6.340223">
        <ele>705.708</ele>
        <time>2017-09-22T11:20:47Z</time>
      </trkpt>
      <trkpt lat="41.361620" lon="-6.340232">
        <ele>705.788</ele>
        <time>2017-09-22T11:21:33Z</time>
      </trkpt>
      <trkpt lat="41.361616" lon="-6.340214">
        <ele>706.796</ele>
        <time>2017-09-22T11:22:17Z</time>
      </trkpt>
      <trkpt lat="41.361623" lon="-6.340220">
        <ele>705.757</ele>
        <time>2017-09-22T11:23:04Z</time>
      </trkpt>
      <trkpt lat="41.361632" lon="-6.340228">
        <ele>706.269</ele>
        <time>2017-09-22T11:23:33Z</time>
      </trkpt>
      <trkpt lat="41.361628" lon="-6.340231">
        <ele>705.228</ele>
        <time>2017-09-22T11:24:03Z</time>
      </trkpt>
      <trkpt lat="41.361636" lon="-6.340242">
        <ele>703.812</ele>
        <time>2017-09-22T11:24:32Z</time>
      </trkpt>
      <trkpt lat="41.361624" lon="-6.340229">
        <ele>704.358</ele>
        <time>2017-09-22T11:25:18Z</time>
      </trkpt>
      <trkpt lat="41.361618" lon="-6.340231">
        <ele>703.852</ele>
        <time>2017-09-22T11:25:58Z</time>
      </trkpt>
      <trkpt lat="41.361602" lon="-6.340212">
        <ele>705.242</ele>
        <time>2017-09-22T11:26:42Z</time>
      </trkpt>
      <trkpt lat="41.361616" lon="-6.340201">
        <ele>702.822</ele>
        <time>2017-09-22T11:27:24Z</time>
      </trkpt>
      <trkpt lat="41.361614" lon="-6.340213">
        <ele>704.314</ele>
        <time>2017-09-22T11:27:50Z</time>
      </trkpt>
      <trkpt lat="41.361614" lon="-6.340211">
        <ele>705.708</ele>
        <time>2017-09-22T11:28:21Z</time>
      </trkpt>
      <trkpt lat="41.361609" lon="-6.340227">
        <ele>704.716</ele>
        <time>2017-09-22T11:28:56Z</time>
      </trkpt>
      <trkpt lat="41.361585" lon="-6.340279">
        <ele>706.784</ele>
        <time>2017-09-22T11:29:10Z</time>
      </trkpt>
      <trkpt lat="41.361578" lon="-6.340296">
        <ele>706.785</ele>
        <time>2017-09-22T11:29:11Z</time>
      </trkpt>
      <trkpt lat="41.361566" lon="-6.340312">
        <ele>706.777</ele>
        <time>2017-09-22T11:29:12Z</time>
      </trkpt>
      <trkpt lat="41.361555" lon="-6.340333">
        <ele>706.756</ele>
        <time>2017-09-22T11:29:13Z</time>
      </trkpt>
      <trkpt lat="41.361548" lon="-6.340354">
        <ele>706.730</ele>
        <time>2017-09-22T11:29:14Z</time>
      </trkpt>
      <trkpt lat="41.361532" lon="-6.340387">
        <ele>706.796</ele>
        <time>2017-09-22T11:29:16Z</time>
      </trkpt>
      <trkpt lat="41.361524" lon="-6.340403">
        <ele>706.790</ele>
        <time>2017-09-22T11:29:17Z</time>
      </trkpt>
      <trkpt lat="41.361461" lon="-6.340611">
        <ele>709.129</ele>
        <time>2017-09-22T11:29:29Z</time>
      </trkpt>
      <trkpt lat="41.361467" lon="-6.340915">
        <ele>709.500</ele>
        <time>2017-09-22T11:29:44Z</time>
      </trkpt>
      <trkpt lat="41.361450" lon="-6.341220">
        <ele>710.520</ele>
        <time>2017-09-22T11:29:58Z</time>
      </trkpt>
      <trkpt lat="41.361357" lon="-6.341385">
        <ele>713.908</ele>
        <time>2017-09-22T11:30:09Z</time>
      </trkpt>
      <trkpt lat="41.361311" lon="-6.341481">
        <ele>715.354</ele>
        <time>2017-09-22T11:30:15Z</time>
      </trkpt>
      <trkpt lat="41.361307" lon="-6.341502">
        <ele>715.332</ele>
        <time>2017-09-22T11:30:16Z</time>
      </trkpt>
      <trkpt lat="41.361241" lon="-6.341728">
        <ele>716.313</ele>
        <time>2017-09-22T11:30:31Z</time>
      </trkpt>
      <trkpt lat="41.361163" lon="-6.341949">
        <ele>717.265</ele>
        <time>2017-09-22T11:30:44Z</time>
      </trkpt>
      <trkpt lat="41.361016" lon="-6.342182">
        <ele>717.254</ele>
        <time>2017-09-22T11:30:58Z</time>
      </trkpt>
      <trkpt lat="41.360982" lon="-6.342521">
        <ele>718.258</ele>
        <time>2017-09-22T11:31:11Z</time>
      </trkpt>
      <trkpt lat="41.361006" lon="-6.342732">
        <ele>717.744</ele>
        <time>2017-09-22T11:31:20Z</time>
      </trkpt>
      <trkpt lat="41.361012" lon="-6.342750">
        <ele>717.758</ele>
        <time>2017-09-22T11:31:21Z</time>
      </trkpt>
      <trkpt lat="41.361067" lon="-6.343001">
        <ele>719.293</ele>
        <time>2017-09-22T11:31:34Z</time>
      </trkpt>
      <trkpt lat="41.361152" lon="-6.343308">
        <ele>723.065</ele>
        <time>2017-09-22T11:31:51Z</time>
      </trkpt>
      <trkpt lat="41.361209" lon="-6.343559">
        <ele>725.421</ele>
        <time>2017-09-22T11:32:05Z</time>
      </trkpt>
      <trkpt lat="41.361234" lon="-6.343654">
        <ele>726.408</ele>
        <time>2017-09-22T11:32:11Z</time>
      </trkpt>
      <trkpt lat="41.361273" lon="-6.343712">
        <ele>726.871</ele>
        <time>2017-09-22T11:32:15Z</time>
      </trkpt>
      <trkpt lat="41.361273" lon="-6.343727">
        <ele>726.859</ele>
        <time>2017-09-22T11:32:16Z</time>
      </trkpt>
      <trkpt lat="41.361269" lon="-6.343743">
        <ele>726.850</ele>
        <time>2017-09-22T11:32:17Z</time>
      </trkpt>
      <trkpt lat="41.361260" lon="-6.343753">
        <ele>726.882</ele>
        <time>2017-09-22T11:32:18Z</time>
      </trkpt>
      <trkpt lat="41.361251" lon="-6.343785">
        <ele>727.821</ele>
        <time>2017-09-22T11:32:32Z</time>
      </trkpt>
      <trkpt lat="41.361248" lon="-6.343810">
        <ele>728.375</ele>
        <time>2017-09-22T11:32:51Z</time>
      </trkpt>
      <trkpt lat="41.361270" lon="-6.343844">
        <ele>728.891</ele>
        <time>2017-09-22T11:32:57Z</time>
      </trkpt>
      <trkpt lat="41.361279" lon="-6.343860">
        <ele>728.815</ele>
        <time>2017-09-22T11:32:58Z</time>
      </trkpt>
      <trkpt lat="41.361285" lon="-6.343879">
        <ele>728.828</ele>
        <time>2017-09-22T11:32:59Z</time>
      </trkpt>
      <trkpt lat="41.361328" lon="-6.344168">
        <ele>731.789</ele>
        <time>2017-09-22T11:33:14Z</time>
      </trkpt>
      <trkpt lat="41.361400" lon="-6.344427">
        <ele>733.117</ele>
        <time>2017-09-22T11:33:29Z</time>
      </trkpt>
      <trkpt lat="41.361435" lon="-6.344528">
        <ele>733.108</ele>
        <time>2017-09-22T11:33:35Z</time>
      </trkpt>
      <trkpt lat="41.361437" lon="-6.344546">
        <ele>733.154</ele>
        <time>2017-09-22T11:33:36Z</time>
      </trkpt>
      <trkpt lat="41.361443" lon="-6.344625">
        <ele>733.122</ele>
        <time>2017-09-22T11:33:41Z</time>
      </trkpt>
      <trkpt lat="41.361447" lon="-6.344640">
        <ele>733.163</ele>
        <time>2017-09-22T11:33:42Z</time>
      </trkpt>
      <trkpt lat="41.361446" lon="-6.344656">
        <ele>733.155</ele>
        <time>2017-09-22T11:33:43Z</time>
      </trkpt>
      <trkpt lat="41.361441" lon="-6.344675">
        <ele>733.124</ele>
        <time>2017-09-22T11:33:44Z</time>
      </trkpt>
      <trkpt lat="41.361434" lon="-6.344692">
        <ele>733.148</ele>
        <time>2017-09-22T11:33:45Z</time>
      </trkpt>
      <trkpt lat="41.361429" lon="-6.344707">
        <ele>733.154</ele>
        <time>2017-09-22T11:33:46Z</time>
      </trkpt>
      <trkpt lat="41.361426" lon="-6.344720">
        <ele>733.138</ele>
        <time>2017-09-22T11:33:47Z</time>
      </trkpt>
      <trkpt lat="41.361424" lon="-6.344735">
        <ele>733.157</ele>
        <time>2017-09-22T11:33:48Z</time>
      </trkpt>
      <trkpt lat="41.361426" lon="-6.344751">
        <ele>733.100</ele>
        <time>2017-09-22T11:33:49Z</time>
      </trkpt>
      <trkpt lat="41.361428" lon="-6.344765">
        <ele>732.620</ele>
        <time>2017-09-22T11:33:50Z</time>
      </trkpt>
      <trkpt lat="41.361427" lon="-6.344780">
        <ele>732.608</ele>
        <time>2017-09-22T11:33:51Z</time>
      </trkpt>
      <trkpt lat="41.361425" lon="-6.344793">
        <ele>732.697</ele>
        <time>2017-09-22T11:33:52Z</time>
      </trkpt>
      <trkpt lat="41.361424" lon="-6.344807">
        <ele>732.645</ele>
        <time>2017-09-22T11:33:53Z</time>
      </trkpt>
      <trkpt lat="41.361371" lon="-6.345040">
        <ele>732.686</ele>
        <time>2017-09-22T11:34:04Z</time>
      </trkpt>
      <trkpt lat="41.361323" lon="-6.345624">
        <ele>729.758</ele>
        <time>2017-09-22T11:34:19Z</time>
      </trkpt>
      <trkpt lat="41.361295" lon="-6.346147">
        <ele>726.837</ele>
        <time>2017-09-22T11:34:31Z</time>
      </trkpt>
      <trkpt lat="41.361283" lon="-6.346589">
        <ele>724.951</ele>
        <time>2017-09-22T11:34:45Z</time>
      </trkpt>
      <trkpt lat="41.361268" lon="-6.346653">
        <ele>725.447</ele>
        <time>2017-09-22T11:36:04Z</time>
      </trkpt>
      <trkpt lat="41.361318" lon="-6.346763">
        <ele>725.481</ele>
        <time>2017-09-22T11:36:11Z</time>
      </trkpt>
      <trkpt lat="41.361442" lon="-6.347006">
        <ele>724.482</ele>
        <time>2017-09-22T11:36:24Z</time>
      </trkpt>
      <trkpt lat="41.361525" lon="-6.347162">
        <ele>723.543</ele>
        <time>2017-09-22T11:36:33Z</time>
      </trkpt>
      <trkpt lat="41.361675" lon="-6.347518">
        <ele>723.517</ele>
        <time>2017-09-22T11:36:47Z</time>
      </trkpt>
      <trkpt lat="41.361866" lon="-6.347935">
        <ele>722.508</ele>
        <time>2017-09-22T11:36:59Z</time>
      </trkpt>
      <trkpt lat="41.362139" lon="-6.348470">
        <ele>719.660</ele>
        <time>2017-09-22T11:37:12Z</time>
      </trkpt>
      <trkpt lat="41.362393" lon="-6.348918">
        <ele>720.168</ele>
        <time>2017-09-22T11:37:24Z</time>
      </trkpt>
      <trkpt lat="41.362544" lon="-6.349370">
        <ele>723.079</ele>
        <time>2017-09-22T11:37:39Z</time>
      </trkpt>
      <trkpt lat="41.362585" lon="-6.349671">
        <ele>723.571</ele>
        <time>2017-09-22T11:37:54Z</time>
      </trkpt>
      <trkpt lat="41.362570" lon="-6.349655">
        <ele>723.520</ele>
        <time>2017-09-22T11:38:09Z</time>
      </trkpt>
      <trkpt lat="41.362587" lon="-6.349658">
        <ele>725.494</ele>
        <time>2017-09-22T11:38:38Z</time>
      </trkpt>
      <trkpt lat="41.362587" lon="-6.349687">
        <ele>724.940</ele>
        <time>2017-09-22T11:38:47Z</time>
      </trkpt>
      <trkpt lat="41.362663" lon="-6.349980">
        <ele>724.054</ele>
        <time>2017-09-22T11:38:59Z</time>
      </trkpt>
      <trkpt lat="41.362899" lon="-6.350570">
        <ele>722.598</ele>
        <time>2017-09-22T11:39:16Z</time>
      </trkpt>
      <trkpt lat="41.363182" lon="-6.350893">
        <ele>719.615</ele>
        <time>2017-09-22T11:39:30Z</time>
      </trkpt>
      <trkpt lat="41.363383" lon="-6.351281">
        <ele>717.726</ele>
        <time>2017-09-22T11:39:44Z</time>
      </trkpt>
      <trkpt lat="41.363365" lon="-6.351811">
        <ele>714.408</ele>
        <time>2017-09-22T11:39:55Z</time>
      </trkpt>
      <trkpt lat="41.363288" lon="-6.352468">
        <ele>710.061</ele>
        <time>2017-09-22T11:40:09Z</time>
      </trkpt>
      <trkpt lat="41.363278" lon="-6.352581">
        <ele>709.159</ele>
        <time>2017-09-22T11:40:11Z</time>
      </trkpt>
      <trkpt lat="41.363265" lon="-6.352765">
        <ele>708.180</ele>
        <time>2017-09-22T11:40:14Z</time>
      </trkpt>
      <trkpt lat="41.363265" lon="-6.352829">
        <ele>708.182</ele>
        <time>2017-09-22T11:40:15Z</time>
      </trkpt>
      <trkpt lat="41.363325" lon="-6.353348">
        <ele>706.271</ele>
        <time>2017-09-22T11:40:26Z</time>
      </trkpt>
      <trkpt lat="41.363389" lon="-6.353780">
        <ele>705.775</ele>
        <time>2017-09-22T11:40:38Z</time>
      </trkpt>
      <trkpt lat="41.363227" lon="-6.354450">
        <ele>703.821</ele>
        <time>2017-09-22T11:40:53Z</time>
      </trkpt>
      <trkpt lat="41.363155" lon="-6.354957">
        <ele>706.295</ele>
        <time>2017-09-22T11:41:05Z</time>
      </trkpt>
      <trkpt lat="41.363149" lon="-6.355099">
        <ele>706.265</ele>
        <time>2017-09-22T11:41:10Z</time>
      </trkpt>
      <trkpt lat="41.363160" lon="-6.355126">
        <ele>706.268</ele>
        <time>2017-09-22T11:41:11Z</time>
      </trkpt>
      <trkpt lat="41.363177" lon="-6.355150">
        <ele>706.214</ele>
        <time>2017-09-22T11:41:12Z</time>
      </trkpt>
      <trkpt lat="41.363195" lon="-6.355171">
        <ele>706.208</ele>
        <time>2017-09-22T11:41:13Z</time>
      </trkpt>
      <trkpt lat="41.363212" lon="-6.355192">
        <ele>706.258</ele>
        <time>2017-09-22T11:41:14Z</time>
      </trkpt>
      <trkpt lat="41.363225" lon="-6.355217">
        <ele>706.276</ele>
        <time>2017-09-22T11:41:15Z</time>
      </trkpt>
      <trkpt lat="41.363236" lon="-6.355243">
        <ele>706.277</ele>
        <time>2017-09-22T11:41:16Z</time>
      </trkpt>
      <trkpt lat="41.363250" lon="-6.355680">
        <ele>705.229</ele>
        <time>2017-09-22T11:41:26Z</time>
      </trkpt>
      <trkpt lat="41.363372" lon="-6.356232">
        <ele>704.348</ele>
        <time>2017-09-22T11:41:40Z</time>
      </trkpt>
      <trkpt lat="41.363496" lon="-6.356554">
        <ele>703.842</ele>
        <time>2017-09-22T11:41:51Z</time>
      </trkpt>
      <trkpt lat="41.363490" lon="-6.356582">
        <ele>703.878</ele>
        <time>2017-09-22T11:41:52Z</time>
      </trkpt>
      <trkpt lat="41.363486" lon="-6.356614">
        <ele>703.892</ele>
        <time>2017-09-22T11:41:53Z</time>
      </trkpt>
      <trkpt lat="41.363483" lon="-6.356648">
        <ele>703.392</ele>
        <time>2017-09-22T11:41:54Z</time>
      </trkpt>
      <trkpt lat="41.363483" lon="-6.356683">
        <ele>703.373</ele>
        <time>2017-09-22T11:41:55Z</time>
      </trkpt>
      <trkpt lat="41.363484" lon="-6.356718">
        <ele>703.320</ele>
        <time>2017-09-22T11:41:56Z</time>
      </trkpt>
      <trkpt lat="41.363474" lon="-6.357210">
        <ele>704.308</ele>
        <time>2017-09-22T11:42:10Z</time>
      </trkpt>
      <trkpt lat="41.363473" lon="-6.357282">
        <ele>705.741</ele>
        <time>2017-09-22T11:42:22Z</time>
      </trkpt>
      <trkpt lat="41.363465" lon="-6.357391">
        <ele>705.739</ele>
        <time>2017-09-22T11:42:45Z</time>
      </trkpt>
      <trkpt lat="41.363451" lon="-6.357393">
        <ele>705.720</ele>
        <time>2017-09-22T11:42:46Z</time>
      </trkpt>
      <trkpt lat="41.363435" lon="-6.357383">
        <ele>705.762</ele>
        <time>2017-09-22T11:42:47Z</time>
      </trkpt>
      <trkpt lat="41.363422" lon="-6.357369">
        <ele>705.211</ele>
        <time>2017-09-22T11:42:48Z</time>
      </trkpt>
      <trkpt lat="41.363403" lon="-6.357350">
        <ele>705.275</ele>
        <time>2017-09-22T11:42:49Z</time>
      </trkpt>
      <trkpt lat="41.363448" lon="-6.357394">
        <ele>705.211</ele>
        <time>2017-09-22T11:47:31Z</time>
      </trkpt>
      <trkpt lat="41.363412" lon="-6.357350">
        <ele>705.285</ele>
        <time>2017-09-22T11:47:33Z</time>
      </trkpt>
      <trkpt lat="41.363381" lon="-6.357337">
        <ele>705.219</ele>
        <time>2017-09-22T11:47:34Z</time>
      </trkpt>
      <trkpt lat="41.363356" lon="-6.357332">
        <ele>704.709</ele>
        <time>2017-09-22T11:47:35Z</time>
      </trkpt>
      <trkpt lat="41.363013" lon="-6.357147">
        <ele>702.819</ele>
        <time>2017-09-22T11:47:47Z</time>
      </trkpt>
      <trkpt lat="41.362512" lon="-6.357036">
        <ele>698.008</ele>
        <time>2017-09-22T11:47:59Z</time>
      </trkpt>
      <trkpt lat="41.362142" lon="-6.356976">
        <ele>695.663</ele>
        <time>2017-09-22T11:48:08Z</time>
      </trkpt>
      <trkpt lat="41.361585" lon="-6.357067">
        <ele>691.391</ele>
        <time>2017-09-22T11:48:20Z</time>
      </trkpt>
      <trkpt lat="41.361535" lon="-6.357074">
        <ele>691.362</ele>
        <time>2017-09-22T11:48:21Z</time>
      </trkpt>
      <trkpt lat="41.361348" lon="-6.357096">
        <ele>690.874</ele>
        <time>2017-09-22T11:48:25Z</time>
      </trkpt>
      <trkpt lat="41.360889" lon="-6.357308">
        <ele>684.173</ele>
        <time>2017-09-22T11:48:38Z</time>
      </trkpt>
      <trkpt lat="41.360659" lon="-6.357370">
        <ele>681.797</ele>
        <time>2017-09-22T11:48:44Z</time>
      </trkpt>
      <trkpt lat="41.360566" lon="-6.357377">
        <ele>681.253</ele>
        <time>2017-09-22T11:48:46Z</time>
      </trkpt>
      <trkpt lat="41.360525" lon="-6.357369">
        <ele>680.717</ele>
        <time>2017-09-22T11:48:47Z</time>
      </trkpt>
      <trkpt lat="41.360328" lon="-6.357350">
        <ele>678.396</ele>
        <time>2017-09-22T11:48:52Z</time>
      </trkpt>
      <trkpt lat="41.360285" lon="-6.357352">
        <ele>677.831</ele>
        <time>2017-09-22T11:48:53Z</time>
      </trkpt>
      <trkpt lat="41.360241" lon="-6.357348">
        <ele>677.824</ele>
        <time>2017-09-22T11:48:54Z</time>
      </trkpt>
      <trkpt lat="41.360202" lon="-6.357346">
        <ele>677.308</ele>
        <time>2017-09-22T11:48:55Z</time>
      </trkpt>
      <trkpt lat="41.360163" lon="-6.357340">
        <ele>676.941</ele>
        <time>2017-09-22T11:48:56Z</time>
      </trkpt>
      <trkpt lat="41.360120" lon="-6.357324">
        <ele>676.969</ele>
        <time>2017-09-22T11:48:57Z</time>
      </trkpt>
      <trkpt lat="41.360078" lon="-6.357309">
        <ele>676.480</ele>
        <time>2017-09-22T11:48:58Z</time>
      </trkpt>
      <trkpt lat="41.360032" lon="-6.357299">
        <ele>675.962</ele>
        <time>2017-09-22T11:48:59Z</time>
      </trkpt>
      <trkpt lat="41.359986" lon="-6.357291">
        <ele>675.451</ele>
        <time>2017-09-22T11:49:00Z</time>
      </trkpt>
      <trkpt lat="41.359425" lon="-6.357137">
        <ele>671.625</ele>
        <time>2017-09-22T11:49:12Z</time>
      </trkpt>
      <trkpt lat="41.359381" lon="-6.357123">
        <ele>671.621</ele>
        <time>2017-09-22T11:49:13Z</time>
      </trkpt>
      <trkpt lat="41.359340" lon="-6.357102">
        <ele>671.115</ele>
        <time>2017-09-22T11:49:14Z</time>
      </trkpt>
      <trkpt lat="41.359301" lon="-6.357072">
        <ele>671.184</ele>
        <time>2017-09-22T11:49:15Z</time>
      </trkpt>
      <trkpt lat="41.359186" lon="-6.356981">
        <ele>670.607</ele>
        <time>2017-09-22T11:49:18Z</time>
      </trkpt>
      <trkpt lat="41.359141" lon="-6.356961">
        <ele>670.117</ele>
        <time>2017-09-22T11:49:19Z</time>
      </trkpt>
      <trkpt lat="41.358981" lon="-6.356893">
        <ele>669.708</ele>
        <time>2017-09-22T11:49:23Z</time>
      </trkpt>
      <trkpt lat="41.358936" lon="-6.356888">
        <ele>669.210</ele>
        <time>2017-09-22T11:49:24Z</time>
      </trkpt>
      <trkpt lat="41.358892" lon="-6.356893">
        <ele>669.298</ele>
        <time>2017-09-22T11:49:25Z</time>
      </trkpt>
      <trkpt lat="41.358845" lon="-6.356902">
        <ele>669.259</ele>
        <time>2017-09-22T11:49:26Z</time>
      </trkpt>
      <trkpt lat="41.358802" lon="-6.356909">
        <ele>669.231</ele>
        <time>2017-09-22T11:49:27Z</time>
      </trkpt>
      <trkpt lat="41.358759" lon="-6.356914">
        <ele>668.740</ele>
        <time>2017-09-22T11:49:28Z</time>
      </trkpt>
      <trkpt lat="41.358383" lon="-6.356889">
        <ele>666.874</ele>
        <time>2017-09-22T11:49:36Z</time>
      </trkpt>
      <trkpt lat="41.358340" lon="-6.356879">
        <ele>666.890</ele>
        <time>2017-09-22T11:49:37Z</time>
      </trkpt>
      <trkpt lat="41.358296" lon="-6.356876">
        <ele>666.334</ele>
        <time>2017-09-22T11:49:38Z</time>
      </trkpt>
      <trkpt lat="41.358030" lon="-6.356835">
        <ele>665.856</ele>
        <time>2017-09-22T11:49:48Z</time>
      </trkpt>
      <trkpt lat="41.357653" lon="-6.357072">
        <ele>665.359</ele>
        <time>2017-09-22T11:50:01Z</time>
      </trkpt>
      <trkpt lat="41.357270" lon="-6.357223">
        <ele>664.414</ele>
        <time>2017-09-22T11:50:12Z</time>
      </trkpt>
      <trkpt lat="41.356917" lon="-6.357488">
        <ele>662.408</ele>
        <time>2017-09-22T11:50:24Z</time>
      </trkpt>
      <trkpt lat="41.356884" lon="-6.357521">
        <ele>662.447</ele>
        <time>2017-09-22T11:50:25Z</time>
      </trkpt>
      <trkpt lat="41.356845" lon="-6.357552">
        <ele>662.055</ele>
        <time>2017-09-22T11:50:26Z</time>
      </trkpt>
      <trkpt lat="41.356434" lon="-6.357699">
        <ele>659.676</ele>
        <time>2017-09-22T11:50:39Z</time>
      </trkpt>
      <trkpt lat="41.356140" lon="-6.357560">
        <ele>662.058</ele>
        <time>2017-09-22T11:50:52Z</time>
      </trkpt>
      <trkpt lat="41.355924" lon="-6.357478">
        <ele>663.997</ele>
        <time>2017-09-22T11:51:04Z</time>
      </trkpt>
      <trkpt lat="41.355692" lon="-6.357419">
        <ele>666.341</ele>
        <time>2017-09-22T11:51:18Z</time>
      </trkpt>
      <trkpt lat="41.355492" lon="-6.357330">
        <ele>667.747</ele>
        <time>2017-09-22T11:51:32Z</time>
      </trkpt>
      <trkpt lat="41.355257" lon="-6.357381">
        <ele>668.721</ele>
        <time>2017-09-22T11:51:47Z</time>
      </trkpt>
      <trkpt lat="41.354931" lon="-6.357419">
        <ele>669.792</ele>
        <time>2017-09-22T11:52:03Z</time>
      </trkpt>
      <trkpt lat="41.354879" lon="-6.357423">
        <ele>670.173</ele>
        <time>2017-09-22T11:52:06Z</time>
      </trkpt>
      <trkpt lat="41.354863" lon="-6.357417">
        <ele>670.120</ele>
        <time>2017-09-22T11:52:07Z</time>
      </trkpt>
      <trkpt lat="41.354848" lon="-6.357414">
        <ele>670.108</ele>
        <time>2017-09-22T11:52:08Z</time>
      </trkpt>
      <trkpt lat="41.354832" lon="-6.357413">
        <ele>670.171</ele>
        <time>2017-09-22T11:52:09Z</time>
      </trkpt>
      <trkpt lat="41.354819" lon="-6.357413">
        <ele>670.649</ele>
        <time>2017-09-22T11:52:10Z</time>
      </trkpt>
      <trkpt lat="41.354803" lon="-6.357411">
        <ele>670.160</ele>
        <time>2017-09-22T11:52:11Z</time>
      </trkpt>
      <trkpt lat="41.354788" lon="-6.357405">
        <ele>670.152</ele>
        <time>2017-09-22T11:52:12Z</time>
      </trkpt>
      <trkpt lat="41.354771" lon="-6.357399">
        <ele>670.161</ele>
        <time>2017-09-22T11:52:13Z</time>
      </trkpt>
      <trkpt lat="41.354750" lon="-6.357393">
        <ele>670.115</ele>
        <time>2017-09-22T11:52:14Z</time>
      </trkpt>
      <trkpt lat="41.354559" lon="-6.357304">
        <ele>671.131</ele>
        <time>2017-09-22T11:52:25Z</time>
      </trkpt>
      <trkpt lat="41.354236" lon="-6.357199">
        <ele>671.645</ele>
        <time>2017-09-22T11:52:41Z</time>
      </trkpt>
      <trkpt lat="41.353946" lon="-6.357385">
        <ele>673.537</ele>
        <time>2017-09-22T11:52:57Z</time>
      </trkpt>
      <trkpt lat="41.353754" lon="-6.357551">
        <ele>677.349</ele>
        <time>2017-09-22T11:53:11Z</time>
      </trkpt>
      <trkpt lat="41.353691" lon="-6.357600">
        <ele>678.313</ele>
        <time>2017-09-22T11:53:16Z</time>
      </trkpt>
      <trkpt lat="41.353680" lon="-6.357612">
        <ele>678.308</ele>
        <time>2017-09-22T11:53:17Z</time>
      </trkpt>
      <trkpt lat="41.353667" lon="-6.357620">
        <ele>678.875</ele>
        <time>2017-09-22T11:53:18Z</time>
      </trkpt>
      <trkpt lat="41.353651" lon="-6.357626">
        <ele>678.893</ele>
        <time>2017-09-22T11:53:19Z</time>
      </trkpt>
      <trkpt lat="41.353638" lon="-6.357634">
        <ele>679.394</ele>
        <time>2017-09-22T11:53:20Z</time>
      </trkpt>
      <trkpt lat="41.353623" lon="-6.357642">
        <ele>679.346</ele>
        <time>2017-09-22T11:53:21Z</time>
      </trkpt>
      <trkpt lat="41.353608" lon="-6.357651">
        <ele>679.365</ele>
        <time>2017-09-22T11:53:22Z</time>
      </trkpt>
      <trkpt lat="41.353372" lon="-6.357786">
        <ele>679.379</ele>
        <time>2017-09-22T11:53:36Z</time>
      </trkpt>
      <trkpt lat="41.353087" lon="-6.357901">
        <ele>680.235</ele>
        <time>2017-09-22T11:53:51Z</time>
      </trkpt>
      <trkpt lat="41.352722" lon="-6.357903">
        <ele>679.779</ele>
        <time>2017-09-22T11:54:05Z</time>
      </trkpt>
      <trkpt lat="41.352374" lon="-6.357755">
        <ele>680.721</ele>
        <time>2017-09-22T11:54:20Z</time>
      </trkpt>
      <trkpt lat="41.352000" lon="-6.357670">
        <ele>681.241</ele>
        <time>2017-09-22T11:54:34Z</time>
      </trkpt>
      <trkpt lat="41.351721" lon="-6.357759">
        <ele>680.705</ele>
        <time>2017-09-22T11:54:46Z</time>
      </trkpt>
      <trkpt lat="41.351332" lon="-6.357841">
        <ele>682.108</ele>
        <time>2017-09-22T11:55:01Z</time>
      </trkpt>
      <trkpt lat="41.351072" lon="-6.357898">
        <ele>685.054</ele>
        <time>2017-09-22T11:55:16Z</time>
      </trkpt>
      <trkpt lat="41.350907" lon="-6.357852">
        <ele>686.032</ele>
        <time>2017-09-22T11:55:27Z</time>
      </trkpt>
      <trkpt lat="41.350647" lon="-6.357863">
        <ele>687.053</ele>
        <time>2017-09-22T11:55:41Z</time>
      </trkpt>
      <trkpt lat="41.350333" lon="-6.357989">
        <ele>687.475</ele>
        <time>2017-09-22T11:55:56Z</time>
      </trkpt>
      <trkpt lat="41.350097" lon="-6.358054">
        <ele>689.464</ele>
        <time>2017-09-22T11:56:09Z</time>
      </trkpt>
      <trkpt lat="41.350078" lon="-6.358055">
        <ele>689.448</ele>
        <time>2017-09-22T11:56:21Z</time>
      </trkpt>
      <trkpt lat="41.350100" lon="-6.358056">
        <ele>689.484</ele>
        <time>2017-09-22T11:56:33Z</time>
      </trkpt>
      <trkpt lat="41.350101" lon="-6.358055">
        <ele>689.478</ele>
        <time>2017-09-22T11:56:35Z</time>
      </trkpt>
      <trkpt lat="41.350167" lon="-6.358042">
        <ele>689.446</ele>
        <time>2017-09-22T11:56:40Z</time>
      </trkpt>
      <trkpt lat="41.350330" lon="-6.358037">
        <ele>688.988</ele>
        <time>2017-09-22T11:56:50Z</time>
      </trkpt>
      <trkpt lat="41.350380" lon="-6.358500">
        <ele>687.916</ele>
        <time>2017-09-22T11:57:04Z</time>
      </trkpt>
      <trkpt lat="41.350389" lon="-6.358935">
        <ele>689.408</ele>
        <time>2017-09-22T11:57:17Z</time>
      </trkpt>
      <trkpt lat="41.350330" lon="-6.359339">
        <ele>691.846</ele>
        <time>2017-09-22T11:57:32Z</time>
      </trkpt>
      <trkpt lat="41.350140" lon="-6.359547">
        <ele>694.294</ele>
        <time>2017-09-22T11:57:47Z</time>
      </trkpt>
      <trkpt lat="41.350003" lon="-6.359749">
        <ele>696.125</ele>
        <time>2017-09-22T11:58:01Z</time>
      </trkpt>
      <trkpt lat="41.349850" lon="-6.360013">
        <ele>698.047</ele>
        <time>2017-09-22T11:58:18Z</time>
      </trkpt>
      <trkpt lat="41.349741" lon="-6.360133">
        <ele>699.596</ele>
        <time>2017-09-22T11:58:28Z</time>
      </trkpt>
      <trkpt lat="41.349649" lon="-6.360291">
        <ele>699.090</ele>
        <time>2017-09-22T11:58:38Z</time>
      </trkpt>
      <trkpt lat="41.349631" lon="-6.360313">
        <ele>699.036</ele>
        <time>2017-09-22T11:58:39Z</time>
      </trkpt>
      <trkpt lat="41.349604" lon="-6.360334">
        <ele>699.010</ele>
        <time>2017-09-22T11:58:41Z</time>
      </trkpt>
      <trkpt lat="41.349589" lon="-6.360339">
        <ele>699.098</ele>
        <time>2017-09-22T11:58:42Z</time>
      </trkpt>
      <trkpt lat="41.349573" lon="-6.360345">
        <ele>699.015</ele>
        <time>2017-09-22T11:58:43Z</time>
      </trkpt>
      <trkpt lat="41.349555" lon="-6.360346">
        <ele>699.026</ele>
        <time>2017-09-22T11:58:44Z</time>
      </trkpt>
      <trkpt lat="41.349536" lon="-6.360337">
        <ele>698.508</ele>
        <time>2017-09-22T11:58:45Z</time>
      </trkpt>
      <trkpt lat="41.349518" lon="-6.360330">
        <ele>698.521</ele>
        <time>2017-09-22T11:58:46Z</time>
      </trkpt>
      <trkpt lat="41.349497" lon="-6.360325">
        <ele>698.539</ele>
        <time>2017-09-22T11:58:47Z</time>
      </trkpt>
      <trkpt lat="41.349474" lon="-6.360323">
        <ele>698.070</ele>
        <time>2017-09-22T11:58:48Z</time>
      </trkpt>
      <trkpt lat="41.349087" lon="-6.360221">
        <ele>697.072</ele>
        <time>2017-09-22T11:59:01Z</time>
      </trkpt>
      <trkpt lat="41.348782" lon="-6.360137">
        <ele>696.191</ele>
        <time>2017-09-22T11:59:08Z</time>
      </trkpt>
      <trkpt lat="41.348681" lon="-6.360118">
        <ele>695.645</ele>
        <time>2017-09-22T11:59:10Z</time>
      </trkpt>
      <trkpt lat="41.348630" lon="-6.360116">
        <ele>695.661</ele>
        <time>2017-09-22T11:59:11Z</time>
      </trkpt>
      <trkpt lat="41.348572" lon="-6.360120">
        <ele>694.615</ele>
        <time>2017-09-22T11:59:12Z</time>
      </trkpt>
      <trkpt lat="41.348515" lon="-6.360131">
        <ele>694.693</ele>
        <time>2017-09-22T11:59:13Z</time>
      </trkpt>
      <trkpt lat="41.348456" lon="-6.360149">
        <ele>694.265</ele>
        <time>2017-09-22T11:59:14Z</time>
      </trkpt>
      <trkpt lat="41.348390" lon="-6.360173">
        <ele>693.721</ele>
        <time>2017-09-22T11:59:15Z</time>
      </trkpt>
      <trkpt lat="41.347609" lon="-6.360586">
        <ele>685.508</ele>
        <time>2017-09-22T11:59:25Z</time>
      </trkpt>
      <trkpt lat="41.346544" lon="-6.361213">
        <ele>679.731</ele>
        <time>2017-09-22T11:59:38Z</time>
      </trkpt>
      <trkpt lat="41.345405" lon="-6.361907">
        <ele>674.999</ele>
        <time>2017-09-22T11:59:53Z</time>
      </trkpt>
      <trkpt lat="41.344704" lon="-6.362402">
        <ele>668.230</ele>
        <time>2017-09-22T12:00:04Z</time>
      </trkpt>
      <trkpt lat="41.343950" lon="-6.362941">
        <ele>659.672</ele>
        <time>2017-09-22T12:00:17Z</time>
      </trkpt>
      <trkpt lat="41.343706" lon="-6.363081">
        <ele>657.271</ele>
        <time>2017-09-22T12:00:21Z</time>
      </trkpt>
      <trkpt lat="41.343634" lon="-6.363101">
        <ele>656.755</ele>
        <time>2017-09-22T12:00:22Z</time>
      </trkpt>
      <trkpt lat="41.343557" lon="-6.363111">
        <ele>655.741</ele>
        <time>2017-09-22T12:00:23Z</time>
      </trkpt>
      <trkpt lat="41.343479" lon="-6.363110">
        <ele>654.885</ele>
        <time>2017-09-22T12:00:24Z</time>
      </trkpt>
      <trkpt lat="41.343399" lon="-6.363093">
        <ele>653.845</ele>
        <time>2017-09-22T12:00:25Z</time>
      </trkpt>
      <trkpt lat="41.343320" lon="-6.363058">
        <ele>653.347</ele>
        <time>2017-09-22T12:00:26Z</time>
      </trkpt>
      <trkpt lat="41.343244" lon="-6.363007">
        <ele>652.311</ele>
        <time>2017-09-22T12:00:27Z</time>
      </trkpt>
      <trkpt lat="41.343168" lon="-6.362953">
        <ele>651.908</ele>
        <time>2017-09-22T12:00:28Z</time>
      </trkpt>
      <trkpt lat="41.342864" lon="-6.362781">
        <ele>649.046</ele>
        <time>2017-09-22T12:00:32Z</time>
      </trkpt>
      <trkpt lat="41.342791" lon="-6.362775">
        <ele>648.084</ele>
        <time>2017-09-22T12:00:33Z</time>
      </trkpt>
      <trkpt lat="41.342718" lon="-6.362798">
        <ele>647.155</ele>
        <time>2017-09-22T12:00:34Z</time>
      </trkpt>
      <trkpt lat="41.342646" lon="-6.362850">
        <ele>646.627</ele>
        <time>2017-09-22T12:00:35Z</time>
      </trkpt>
      <trkpt lat="41.342583" lon="-6.362924">
        <ele>645.666</ele>
        <time>2017-09-22T12:00:36Z</time>
      </trkpt>
      <trkpt lat="41.342524" lon="-6.363009">
        <ele>645.180</ele>
        <time>2017-09-22T12:00:37Z</time>
      </trkpt>
      <trkpt lat="41.342468" lon="-6.363101">
        <ele>645.116</ele>
        <time>2017-09-22T12:00:38Z</time>
      </trkpt>
      <trkpt lat="41.342416" lon="-6.363198">
        <ele>644.740</ele>
        <time>2017-09-22T12:00:39Z</time>
      </trkpt>
      <trkpt lat="41.341872" lon="-6.364217">
        <ele>646.678</ele>
        <time>2017-09-22T12:00:51Z</time>
      </trkpt>
      <trkpt lat="41.341705" lon="-6.364466">
        <ele>649.933</ele>
        <time>2017-09-22T12:01:01Z</time>
      </trkpt>
      <trkpt lat="41.341496" lon="-6.364481">
        <ele>652.326</ele>
        <time>2017-09-22T12:01:14Z</time>
      </trkpt>
      <trkpt lat="41.341388" lon="-6.364323">
        <ele>653.808</ele>
        <time>2017-09-22T12:01:25Z</time>
      </trkpt>
      <trkpt lat="41.341278" lon="-6.364133">
        <ele>655.269</ele>
        <time>2017-09-22T12:01:37Z</time>
      </trkpt>
      <trkpt lat="41.341272" lon="-6.364116">
        <ele>655.767</ele>
        <time>2017-09-22T12:01:38Z</time>
      </trkpt>
      <trkpt lat="41.341259" lon="-6.364102">
        <ele>655.738</ele>
        <time>2017-09-22T12:01:39Z</time>
      </trkpt>
      <trkpt lat="41.341249" lon="-6.364090">
        <ele>656.270</ele>
        <time>2017-09-22T12:01:40Z</time>
      </trkpt>
      <trkpt lat="41.341241" lon="-6.364076">
        <ele>655.769</ele>
        <time>2017-09-22T12:01:41Z</time>
      </trkpt>
      <trkpt lat="41.341233" lon="-6.364058">
        <ele>656.233</ele>
        <time>2017-09-22T12:01:42Z</time>
      </trkpt>
      <trkpt lat="41.341084" lon="-6.363803">
        <ele>657.629</ele>
        <time>2017-09-22T12:01:59Z</time>
      </trkpt>
      <trkpt lat="41.340952" lon="-6.363582">
        <ele>660.043</ele>
        <time>2017-09-22T12:02:14Z</time>
      </trkpt>
      <trkpt lat="41.340813" lon="-6.363342">
        <ele>662.423</ele>
        <time>2017-09-22T12:02:31Z</time>
      </trkpt>
      <trkpt lat="41.340808" lon="-6.363328">
        <ele>662.983</ele>
        <time>2017-09-22T12:02:32Z</time>
      </trkpt>
      <trkpt lat="41.340804" lon="-6.363311">
        <ele>662.911</ele>
        <time>2017-09-22T12:02:33Z</time>
      </trkpt>
      <trkpt lat="41.340798" lon="-6.363297">
        <ele>663.408</ele>
        <time>2017-09-22T12:02:34Z</time>
      </trkpt>
      <trkpt lat="41.340789" lon="-6.363284">
        <ele>663.484</ele>
        <time>2017-09-22T12:02:35Z</time>
      </trkpt>
      <trkpt lat="41.340778" lon="-6.363271">
        <ele>663.442</ele>
        <time>2017-09-22T12:02:36Z</time>
      </trkpt>
      <trkpt lat="41.340768" lon="-6.363259">
        <ele>663.423</ele>
        <time>2017-09-22T12:02:37Z</time>
      </trkpt>
      <trkpt lat="41.340760" lon="-6.363246">
        <ele>663.435</ele>
        <time>2017-09-22T12:02:38Z</time>
      </trkpt>
      <trkpt lat="41.340752" lon="-6.363234">
        <ele>663.424</ele>
        <time>2017-09-22T12:02:39Z</time>
      </trkpt>
      <trkpt lat="41.340742" lon="-6.363223">
        <ele>663.928</ele>
        <time>2017-09-22T12:02:40Z</time>
      </trkpt>
      <trkpt lat="41.340731" lon="-6.363212">
        <ele>663.954</ele>
        <time>2017-09-22T12:02:41Z</time>
      </trkpt>
      <trkpt lat="41.340724" lon="-6.363199">
        <ele>663.918</ele>
        <time>2017-09-22T12:02:42Z</time>
      </trkpt>
      <trkpt lat="41.340720" lon="-6.363184">
        <ele>663.919</ele>
        <time>2017-09-22T12:02:43Z</time>
      </trkpt>
      <trkpt lat="41.340714" lon="-6.363167">
        <ele>663.909</ele>
        <time>2017-09-22T12:02:44Z</time>
      </trkpt>
      <trkpt lat="41.340706" lon="-6.363149">
        <ele>664.419</ele>
        <time>2017-09-22T12:02:45Z</time>
      </trkpt>
      <trkpt lat="41.340692" lon="-6.363136">
        <ele>664.808</ele>
        <time>2017-09-22T12:02:46Z</time>
      </trkpt>
      <trkpt lat="41.340678" lon="-6.363131">
        <ele>664.833</ele>
        <time>2017-09-22T12:02:47Z</time>
      </trkpt>
      <trkpt lat="41.340664" lon="-6.363133">
        <ele>664.821</ele>
        <time>2017-09-22T12:02:48Z</time>
      </trkpt>
      <trkpt lat="41.340648" lon="-6.363131">
        <ele>664.822</ele>
        <time>2017-09-22T12:02:49Z</time>
      </trkpt>
      <trkpt lat="41.340635" lon="-6.363127">
        <ele>665.324</ele>
        <time>2017-09-22T12:02:50Z</time>
      </trkpt>
      <trkpt lat="41.340599" lon="-6.363137">
        <ele>665.383</ele>
        <time>2017-09-22T12:02:53Z</time>
      </trkpt>
      <trkpt lat="41.340587" lon="-6.363149">
        <ele>665.357</ele>
        <time>2017-09-22T12:02:54Z</time>
      </trkpt>
      <trkpt lat="41.340500" lon="-6.363403">
        <ele>668.283</ele>
        <time>2017-09-22T12:03:10Z</time>
      </trkpt>
      <trkpt lat="41.340447" lon="-6.363667">
        <ele>669.727</ele>
        <time>2017-09-22T12:03:25Z</time>
      </trkpt>
      <trkpt lat="41.340358" lon="-6.363964">
        <ele>671.657</ele>
        <time>2017-09-22T12:03:43Z</time>
      </trkpt>
      <trkpt lat="41.340323" lon="-6.364018">
        <ele>672.500</ele>
        <time>2017-09-22T12:03:47Z</time>
      </trkpt>
      <trkpt lat="41.340310" lon="-6.364028">
        <ele>672.520</ele>
        <time>2017-09-22T12:03:48Z</time>
      </trkpt>
      <trkpt lat="41.340123" lon="-6.364139">
        <ele>674.008</ele>
        <time>2017-09-22T12:04:03Z</time>
      </trkpt>
      <trkpt lat="41.340075" lon="-6.364160">
        <ele>673.537</ele>
        <time>2017-09-22T12:04:07Z</time>
      </trkpt>
      <trkpt lat="41.340045" lon="-6.364153">
        <ele>674.045</ele>
        <time>2017-09-22T12:04:09Z</time>
      </trkpt>
      <trkpt lat="41.340032" lon="-6.364162">
        <ele>674.056</ele>
        <time>2017-09-22T12:04:10Z</time>
      </trkpt>
      <trkpt lat="41.340021" lon="-6.364177">
        <ele>674.038</ele>
        <time>2017-09-22T12:04:11Z</time>
      </trkpt>
      <trkpt lat="41.340009" lon="-6.364187">
        <ele>674.537</ele>
        <time>2017-09-22T12:04:12Z</time>
      </trkpt>
      <trkpt lat="41.339995" lon="-6.364192">
        <ele>674.531</ele>
        <time>2017-09-22T12:04:13Z</time>
      </trkpt>
      <trkpt lat="41.339980" lon="-6.364193">
        <ele>674.957</ele>
        <time>2017-09-22T12:04:14Z</time>
      </trkpt>
      <trkpt lat="41.339966" lon="-6.364190">
        <ele>674.951</ele>
        <time>2017-09-22T12:04:15Z</time>
      </trkpt>
      <trkpt lat="41.339953" lon="-6.364192">
        <ele>675.462</ele>
        <time>2017-09-22T12:04:16Z</time>
      </trkpt>
      <trkpt lat="41.339940" lon="-6.364197">
        <ele>675.483</ele>
        <time>2017-09-22T12:04:17Z</time>
      </trkpt>
      <trkpt lat="41.339928" lon="-6.364205">
        <ele>675.411</ele>
        <time>2017-09-22T12:04:18Z</time>
      </trkpt>
      <trkpt lat="41.339859" lon="-6.364231">
        <ele>675.408</ele>
        <time>2017-09-22T12:04:23Z</time>
      </trkpt>
      <trkpt lat="41.339684" lon="-6.364301">
        <ele>677.378</ele>
        <time>2017-09-22T12:04:37Z</time>
      </trkpt>
      <trkpt lat="41.339671" lon="-6.364310">
        <ele>677.396</ele>
        <time>2017-09-22T12:04:38Z</time>
      </trkpt>
      <trkpt lat="41.339656" lon="-6.364316">
        <ele>677.397</ele>
        <time>2017-09-22T12:04:39Z</time>
      </trkpt>
      <trkpt lat="41.339553" lon="-6.364359">
        <ele>677.849</ele>
        <time>2017-09-22T12:04:47Z</time>
      </trkpt>
      <trkpt lat="41.339540" lon="-6.364360">
        <ele>678.328</ele>
        <time>2017-09-22T12:04:48Z</time>
      </trkpt>
      <trkpt lat="41.339524" lon="-6.364361">
        <ele>678.332</ele>
        <time>2017-09-22T12:04:49Z</time>
      </trkpt>
      <trkpt lat="41.339510" lon="-6.364365">
        <ele>678.848</ele>
        <time>2017-09-22T12:04:50Z</time>
      </trkpt>
      <trkpt lat="41.339499" lon="-6.364374">
        <ele>678.822</ele>
        <time>2017-09-22T12:04:51Z</time>
      </trkpt>
      <trkpt lat="41.339485" lon="-6.364383">
        <ele>678.834</ele>
        <time>2017-09-22T12:04:52Z</time>
      </trkpt>
      <trkpt lat="41.339469" lon="-6.364383">
        <ele>678.855</ele>
        <time>2017-09-22T12:04:53Z</time>
      </trkpt>
      <trkpt lat="41.339341" lon="-6.364430">
        <ele>680.210</ele>
        <time>2017-09-22T12:05:03Z</time>
      </trkpt>
      <trkpt lat="41.339328" lon="-6.364435">
        <ele>680.208</ele>
        <time>2017-09-22T12:05:04Z</time>
      </trkpt>
      <trkpt lat="41.339313" lon="-6.364438">
        <ele>680.295</ele>
        <time>2017-09-22T12:05:05Z</time>
      </trkpt>
      <trkpt lat="41.339297" lon="-6.364440">
        <ele>680.793</ele>
        <time>2017-09-22T12:05:06Z</time>
      </trkpt>
      <trkpt lat="41.339284" lon="-6.364446">
        <ele>681.274</ele>
        <time>2017-09-22T12:05:07Z</time>
      </trkpt>
      <trkpt lat="41.339271" lon="-6.364453">
        <ele>681.226</ele>
        <time>2017-09-22T12:05:08Z</time>
      </trkpt>
      <trkpt lat="41.339259" lon="-6.364457">
        <ele>681.235</ele>
        <time>2017-09-22T12:05:09Z</time>
      </trkpt>
      <trkpt lat="41.339246" lon="-6.364463">
        <ele>681.219</ele>
        <time>2017-09-22T12:05:10Z</time>
      </trkpt>
      <trkpt lat="41.339235" lon="-6.364468">
        <ele>681.265</ele>
        <time>2017-09-22T12:05:11Z</time>
      </trkpt>
      <trkpt lat="41.339223" lon="-6.364472">
        <ele>681.789</ele>
        <time>2017-09-22T12:05:12Z</time>
      </trkpt>
      <trkpt lat="41.339210" lon="-6.364476">
        <ele>681.742</ele>
        <time>2017-09-22T12:05:13Z</time>
      </trkpt>
      <trkpt lat="41.339197" lon="-6.364479">
        <ele>681.722</ele>
        <time>2017-09-22T12:05:14Z</time>
      </trkpt>
      <trkpt lat="41.339183" lon="-6.364479">
        <ele>682.114</ele>
        <time>2017-09-22T12:05:15Z</time>
      </trkpt>
      <trkpt lat="41.339171" lon="-6.364484">
        <ele>682.108</ele>
        <time>2017-09-22T12:05:16Z</time>
      </trkpt>
      <trkpt lat="41.339160" lon="-6.364491">
        <ele>682.186</ele>
        <time>2017-09-22T12:05:17Z</time>
      </trkpt>
      <trkpt lat="41.339149" lon="-6.364501">
        <ele>682.634</ele>
        <time>2017-09-22T12:05:18Z</time>
      </trkpt>
      <trkpt lat="41.339139" lon="-6.364508">
        <ele>682.695</ele>
        <time>2017-09-22T12:05:19Z</time>
      </trkpt>
      <trkpt lat="41.339011" lon="-6.364535">
        <ele>683.617</ele>
        <time>2017-09-22T12:05:28Z</time>
      </trkpt>
      <trkpt lat="41.338999" lon="-6.364545">
        <ele>683.666</ele>
        <time>2017-09-22T12:05:29Z</time>
      </trkpt>
      <trkpt lat="41.338988" lon="-6.364554">
        <ele>684.140</ele>
        <time>2017-09-22T12:05:30Z</time>
      </trkpt>
      <trkpt lat="41.338975" lon="-6.364559">
        <ele>684.156</ele>
        <time>2017-09-22T12:05:31Z</time>
      </trkpt>
      <trkpt lat="41.338960" lon="-6.364563">
        <ele>684.140</ele>
        <time>2017-09-22T12:05:32Z</time>
      </trkpt>
      <trkpt lat="41.338948" lon="-6.364570">
        <ele>684.126</ele>
        <time>2017-09-22T12:05:33Z</time>
      </trkpt>
      <trkpt lat="41.338940" lon="-6.364579">
        <ele>684.647</ele>
        <time>2017-09-22T12:05:34Z</time>
      </trkpt>
      <trkpt lat="41.338927" lon="-6.364587">
        <ele>684.611</ele>
        <time>2017-09-22T12:05:35Z</time>
      </trkpt>
      <trkpt lat="41.338874" lon="-6.364607">
        <ele>684.608</ele>
        <time>2017-09-22T12:05:39Z</time>
      </trkpt>
      <trkpt lat="41.338687" lon="-6.364663">
        <ele>686.544</ele>
        <time>2017-09-22T12:05:53Z</time>
      </trkpt>
      <trkpt lat="41.338464" lon="-6.364751">
        <ele>688.972</ele>
        <time>2017-09-22T12:06:10Z</time>
      </trkpt>
      <trkpt lat="41.338319" lon="-6.364807">
        <ele>690.313</ele>
        <time>2017-09-22T12:06:24Z</time>
      </trkpt>
      <trkpt lat="41.338322" lon="-6.364808">
        <ele>689.845</ele>
        <time>2017-09-22T12:06:47Z</time>
      </trkpt>
      <trkpt lat="41.338294" lon="-6.364821">
        <ele>691.334</ele>
        <time>2017-09-22T12:07:04Z</time>
      </trkpt>
      <trkpt lat="41.338277" lon="-6.364824">
        <ele>691.318</ele>
        <time>2017-09-22T12:07:05Z</time>
      </trkpt>
      <trkpt lat="41.338261" lon="-6.364826">
        <ele>691.854</ele>
        <time>2017-09-22T12:07:06Z</time>
      </trkpt>
      <trkpt lat="41.338246" lon="-6.364828">
        <ele>691.888</ele>
        <time>2017-09-22T12:07:07Z</time>
      </trkpt>
      <trkpt lat="41.338232" lon="-6.364834">
        <ele>692.281</ele>
        <time>2017-09-22T12:07:08Z</time>
      </trkpt>
      <trkpt lat="41.338217" lon="-6.364841">
        <ele>692.261</ele>
        <time>2017-09-22T12:07:09Z</time>
      </trkpt>
      <trkpt lat="41.338001" lon="-6.364942">
        <ele>693.217</ele>
        <time>2017-09-22T12:07:24Z</time>
      </trkpt>
      <trkpt lat="41.337774" lon="-6.365024">
        <ele>695.108</ele>
        <time>2017-09-22T12:07:40Z</time>
      </trkpt>
      <trkpt lat="41.337593" lon="-6.365094">
        <ele>696.110</ele>
        <time>2017-09-22T12:07:53Z</time>
      </trkpt>
      <trkpt lat="41.337391" lon="-6.365173">
        <ele>697.518</ele>
        <time>2017-09-22T12:08:08Z</time>
      </trkpt>
      <trkpt lat="41.337205" lon="-6.365222">
        <ele>699.519</ele>
        <time>2017-09-22T12:08:22Z</time>
      </trkpt>
      <trkpt lat="41.337193" lon="-6.365231">
        <ele>699.581</ele>
        <time>2017-09-22T12:08:23Z</time>
      </trkpt>
      <trkpt lat="41.337157" lon="-6.365253">
        <ele>699.970</ele>
        <time>2017-09-22T12:08:26Z</time>
      </trkpt>
      <trkpt lat="41.337143" lon="-6.365253">
        <ele>699.944</ele>
        <time>2017-09-22T12:08:27Z</time>
      </trkpt>
      <trkpt lat="41.337128" lon="-6.365252">
        <ele>700.450</ele>
        <time>2017-09-22T12:08:28Z</time>
      </trkpt>
      <trkpt lat="41.337114" lon="-6.365253">
        <ele>700.424</ele>
        <time>2017-09-22T12:08:29Z</time>
      </trkpt>
      <trkpt lat="41.337101" lon="-6.365259">
        <ele>700.497</ele>
        <time>2017-09-22T12:08:30Z</time>
      </trkpt>
      <trkpt lat="41.337088" lon="-6.365267">
        <ele>700.923</ele>
        <time>2017-09-22T12:08:31Z</time>
      </trkpt>
      <trkpt lat="41.337076" lon="-6.365277">
        <ele>700.925</ele>
        <time>2017-09-22T12:08:32Z</time>
      </trkpt>
      <trkpt lat="41.337067" lon="-6.365287">
        <ele>701.408</ele>
        <time>2017-09-22T12:08:33Z</time>
      </trkpt>
      <trkpt lat="41.337055" lon="-6.365295">
        <ele>701.431</ele>
        <time>2017-09-22T12:08:34Z</time>
      </trkpt>
      <trkpt lat="41.337040" lon="-6.365298">
        <ele>701.489</ele>
        <time>2017-09-22T12:08:35Z</time>
      </trkpt>
      <trkpt lat="41.336949" lon="-6.365330">
        <ele>702.370</ele>
        <time>2017-09-22T12:08:42Z</time>
      </trkpt>
      <trkpt lat="41.336873" lon="-6.365366">
        <ele>702.862</ele>
        <time>2017-09-22T12:08:48Z</time>
      </trkpt>
      <trkpt lat="41.336864" lon="-6.365374">
        <ele>702.841</ele>
        <time>2017-09-22T12:08:49Z</time>
      </trkpt>
      <trkpt lat="41.336851" lon="-6.365378">
        <ele>703.395</ele>
        <time>2017-09-22T12:08:50Z</time>
      </trkpt>
      <trkpt lat="41.336834" lon="-6.365381">
        <ele>703.351</ele>
        <time>2017-09-22T12:08:51Z</time>
      </trkpt>
      <trkpt lat="41.336819" lon="-6.365383">
        <ele>703.345</ele>
        <time>2017-09-22T12:08:52Z</time>
      </trkpt>
      <trkpt lat="41.336808" lon="-6.365390">
        <ele>703.352</ele>
        <time>2017-09-22T12:08:53Z</time>
      </trkpt>
      <trkpt lat="41.336795" lon="-6.365395">
        <ele>703.353</ele>
        <time>2017-09-22T12:08:54Z</time>
      </trkpt>
      <trkpt lat="41.336781" lon="-6.365395">
        <ele>703.808</ele>
        <time>2017-09-22T12:08:55Z</time>
      </trkpt>
      <trkpt lat="41.336583" lon="-6.365468">
        <ele>705.708</ele>
        <time>2017-09-22T12:09:10Z</time>
      </trkpt>
      <trkpt lat="41.336515" lon="-6.365495">
        <ele>706.267</ele>
        <time>2017-09-22T12:09:15Z</time>
      </trkpt>
      <trkpt lat="41.336501" lon="-6.365491">
        <ele>706.275</ele>
        <time>2017-09-22T12:09:16Z</time>
      </trkpt>
      <trkpt lat="41.336488" lon="-6.365493">
        <ele>706.256</ele>
        <time>2017-09-22T12:09:17Z</time>
      </trkpt>
      <trkpt lat="41.336475" lon="-6.365499">
        <ele>706.218</ele>
        <time>2017-09-22T12:09:18Z</time>
      </trkpt>
      <trkpt lat="41.336460" lon="-6.365508">
        <ele>706.797</ele>
        <time>2017-09-22T12:09:19Z</time>
      </trkpt>
      <trkpt lat="41.336448" lon="-6.365517">
        <ele>706.711</ele>
        <time>2017-09-22T12:09:20Z</time>
      </trkpt>
      <trkpt lat="41.336435" lon="-6.365521">
        <ele>706.787</ele>
        <time>2017-09-22T12:09:21Z</time>
      </trkpt>
      <trkpt lat="41.336423" lon="-6.365525">
        <ele>706.731</ele>
        <time>2017-09-22T12:09:22Z</time>
      </trkpt>
      <trkpt lat="41.336410" lon="-6.365528">
        <ele>706.732</ele>
        <time>2017-09-22T12:09:23Z</time>
      </trkpt>
      <trkpt lat="41.336218" lon="-6.365602">
        <ele>708.692</ele>
        <time>2017-09-22T12:09:38Z</time>
      </trkpt>
      <trkpt lat="41.336038" lon="-6.365682">
        <ele>710.011</ele>
        <time>2017-09-22T12:09:52Z</time>
      </trkpt>
      <trkpt lat="41.336024" lon="-6.365688">
        <ele>710.508</ele>
        <time>2017-09-22T12:09:53Z</time>
      </trkpt>
      <trkpt lat="41.336010" lon="-6.365693">
        <ele>710.555</ele>
        <time>2017-09-22T12:09:54Z</time>
      </trkpt>
      <trkpt lat="41.335994" lon="-6.365697">
        <ele>711.033</ele>
        <time>2017-09-22T12:09:55Z</time>
      </trkpt>
      <trkpt lat="41.335979" lon="-6.365699">
        <ele>711.064</ele>
        <time>2017-09-22T12:09:56Z</time>
      </trkpt>
      <trkpt lat="41.335965" lon="-6.365702">
        <ele>711.096</ele>
        <time>2017-09-22T12:09:57Z</time>
      </trkpt>
      <trkpt lat="41.335952" lon="-6.365707">
        <ele>711.045</ele>
        <time>2017-09-22T12:09:58Z</time>
      </trkpt>
      <trkpt lat="41.335937" lon="-6.365714">
        <ele>711.529</ele>
        <time>2017-09-22T12:09:59Z</time>
      </trkpt>
      <trkpt lat="41.335731" lon="-6.365787">
        <ele>713.445</ele>
        <time>2017-09-22T12:10:14Z</time>
      </trkpt>
      <trkpt lat="41.335718" lon="-6.365788">
        <ele>713.919</ele>
        <time>2017-09-22T12:10:15Z</time>
      </trkpt>
      <trkpt lat="41.335529" lon="-6.365859">
        <ele>714.873</ele>
        <time>2017-09-22T12:10:29Z</time>
      </trkpt>
      <trkpt lat="41.335263" lon="-6.365971">
        <ele>717.285</ele>
        <time>2017-09-22T12:10:48Z</time>
      </trkpt>
      <trkpt lat="41.335143" lon="-6.365974">
        <ele>717.713</ele>
        <time>2017-09-22T12:10:56Z</time>
      </trkpt>
      <trkpt lat="41.335125" lon="-6.365967">
        <ele>717.708</ele>
        <time>2017-09-22T12:10:57Z</time>
      </trkpt>
      <trkpt lat="41.335110" lon="-6.365960">
        <ele>718.229</ele>
        <time>2017-09-22T12:10:58Z</time>
      </trkpt>
      <trkpt lat="41.335051" lon="-6.365933">
        <ele>718.737</ele>
        <time>2017-09-22T12:11:02Z</time>
      </trkpt>
      <trkpt lat="41.335037" lon="-6.365935">
        <ele>719.278</ele>
        <time>2017-09-22T12:11:03Z</time>
      </trkpt>
      <trkpt lat="41.335024" lon="-6.365929">
        <ele>719.210</ele>
        <time>2017-09-22T12:11:04Z</time>
      </trkpt>
      <trkpt lat="41.335010" lon="-6.365916">
        <ele>719.299</ele>
        <time>2017-09-22T12:11:05Z</time>
      </trkpt>
      <trkpt lat="41.334997" lon="-6.365902">
        <ele>719.243</ele>
        <time>2017-09-22T12:11:06Z</time>
      </trkpt>
      <trkpt lat="41.334985" lon="-6.365889">
        <ele>719.619</ele>
        <time>2017-09-22T12:11:07Z</time>
      </trkpt>
      <trkpt lat="41.334975" lon="-6.365874">
        <ele>719.623</ele>
        <time>2017-09-22T12:11:08Z</time>
      </trkpt>
      <trkpt lat="41.334968" lon="-6.365858">
        <ele>719.678</ele>
        <time>2017-09-22T12:11:09Z</time>
      </trkpt>
      <trkpt lat="41.334914" lon="-6.365807">
        <ele>720.133</ele>
        <time>2017-09-22T12:11:13Z</time>
      </trkpt>
      <trkpt lat="41.334896" lon="-6.365810">
        <ele>720.126</ele>
        <time>2017-09-22T12:11:14Z</time>
      </trkpt>
      <trkpt lat="41.334878" lon="-6.365824">
        <ele>720.108</ele>
        <time>2017-09-22T12:11:15Z</time>
      </trkpt>
      <trkpt lat="41.334869" lon="-6.365838">
        <ele>720.119</ele>
        <time>2017-09-22T12:11:16Z</time>
      </trkpt>
      <trkpt lat="41.334862" lon="-6.365857">
        <ele>720.657</ele>
        <time>2017-09-22T12:11:17Z</time>
      </trkpt>
      <trkpt lat="41.334860" lon="-6.365872">
        <ele>720.668</ele>
        <time>2017-09-22T12:11:18Z</time>
      </trkpt>
      <trkpt lat="41.334860" lon="-6.365889">
        <ele>721.180</ele>
        <time>2017-09-22T12:11:19Z</time>
      </trkpt>
      <trkpt lat="41.334870" lon="-6.365907">
        <ele>721.119</ele>
        <time>2017-09-22T12:11:20Z</time>
      </trkpt>
      <trkpt lat="41.334887" lon="-6.365925">
        <ele>721.143</ele>
        <time>2017-09-22T12:11:21Z</time>
      </trkpt>
      <trkpt lat="41.334899" lon="-6.365939">
        <ele>721.129</ele>
        <time>2017-09-22T12:11:22Z</time>
      </trkpt>
      <trkpt lat="41.334910" lon="-6.365957">
        <ele>721.153</ele>
        <time>2017-09-22T12:11:23Z</time>
      </trkpt>
      <trkpt lat="41.334923" lon="-6.365974">
        <ele>721.122</ele>
        <time>2017-09-22T12:11:24Z</time>
      </trkpt>
      <trkpt lat="41.335065" lon="-6.366100">
        <ele>721.162</ele>
        <time>2017-09-22T12:11:34Z</time>
      </trkpt>
      <trkpt lat="41.335079" lon="-6.366119">
        <ele>721.108</ele>
        <time>2017-09-22T12:11:35Z</time>
      </trkpt>
      <trkpt lat="41.335141" lon="-6.366195">
        <ele>721.608</ele>
        <time>2017-09-22T12:11:40Z</time>
      </trkpt>
      <trkpt lat="41.335300" lon="-6.366476">
        <ele>721.614</ele>
        <time>2017-09-22T12:11:54Z</time>
      </trkpt>
      <trkpt lat="41.335556" lon="-6.366791">
        <ele>719.612</ele>
        <time>2017-09-22T12:12:06Z</time>
      </trkpt>
      <trkpt lat="41.335882" lon="-6.367246">
        <ele>716.893</ele>
        <time>2017-09-22T12:12:20Z</time>
      </trkpt>
      <trkpt lat="41.336063" lon="-6.367470">
        <ele>715.385</ele>
        <time>2017-09-22T12:12:34Z</time>
      </trkpt>
      <trkpt lat="41.336073" lon="-6.367454">
        <ele>716.894</ele>
        <time>2017-09-22T12:13:03Z</time>
      </trkpt>
      <trkpt lat="41.336147" lon="-6.367530">
        <ele>715.898</ele>
        <time>2017-09-22T12:13:21Z</time>
      </trkpt>
      <trkpt lat="41.336488" lon="-6.367855">
        <ele>714.484</ele>
        <time>2017-09-22T12:13:36Z</time>
      </trkpt>
      <trkpt lat="41.336812" lon="-6.368068">
        <ele>711.538</ele>
        <time>2017-09-22T12:13:50Z</time>
      </trkpt>
      <trkpt lat="41.337191" lon="-6.368382">
        <ele>707.669</ele>
        <time>2017-09-22T12:14:04Z</time>
      </trkpt>
      <trkpt lat="41.337375" lon="-6.368609">
        <ele>707.104</ele>
        <time>2017-09-22T12:14:13Z</time>
      </trkpt>
      <trkpt lat="41.337375" lon="-6.368640">
        <ele>707.624</ele>
        <time>2017-09-22T12:14:14Z</time>
      </trkpt>
      <trkpt lat="41.337366" lon="-6.368661">
        <ele>707.608</ele>
        <time>2017-09-22T12:14:15Z</time>
      </trkpt>
      <trkpt lat="41.337355" lon="-6.368678">
        <ele>707.638</ele>
        <time>2017-09-22T12:14:16Z</time>
      </trkpt>
      <trkpt lat="41.337344" lon="-6.368699">
        <ele>707.646</ele>
        <time>2017-09-22T12:14:17Z</time>
      </trkpt>
      <trkpt lat="41.337332" lon="-6.368721">
        <ele>707.667</ele>
        <time>2017-09-22T12:14:18Z</time>
      </trkpt>
      <trkpt lat="41.337318" lon="-6.368745">
        <ele>707.649</ele>
        <time>2017-09-22T12:14:19Z</time>
      </trkpt>
      <trkpt lat="41.337125" lon="-6.369044">
        <ele>706.298</ele>
        <time>2017-09-22T12:14:31Z</time>
      </trkpt>
      <trkpt lat="41.337094" lon="-6.369087">
        <ele>705.742</ele>
        <time>2017-09-22T12:14:33Z</time>
      </trkpt>
      <trkpt lat="41.337080" lon="-6.369108">
        <ele>705.718</ele>
        <time>2017-09-22T12:14:34Z</time>
      </trkpt>
      <trkpt lat="41.336820" lon="-6.369395">
        <ele>702.872</ele>
        <time>2017-09-22T12:14:48Z</time>
      </trkpt>
      <trkpt lat="41.336691" lon="-6.369652">
        <ele>701.474</ele>
        <time>2017-09-22T12:14:59Z</time>
      </trkpt>
      <trkpt lat="41.336629" lon="-6.369789">
        <ele>700.456</ele>
        <time>2017-09-22T12:15:05Z</time>
      </trkpt>
      <trkpt lat="41.336615" lon="-6.369804">
        <ele>700.421</ele>
        <time>2017-09-22T12:15:06Z</time>
      </trkpt>
      <trkpt lat="41.336606" lon="-6.369828">
        <ele>700.408</ele>
        <time>2017-09-22T12:15:07Z</time>
      </trkpt>
      <trkpt lat="41.336565" lon="-6.369930">
        <ele>699.519</ele>
        <time>2017-09-22T12:15:11Z</time>
      </trkpt>
      <trkpt lat="41.336550" lon="-6.369944">
        <ele>699.517</ele>
        <time>2017-09-22T12:15:12Z</time>
      </trkpt>
      <trkpt lat="41.336536" lon="-6.369954">
        <ele>699.588</ele>
        <time>2017-09-22T12:15:13Z</time>
      </trkpt>
      <trkpt lat="41.336509" lon="-6.369985">
        <ele>699.030</ele>
        <time>2017-09-22T12:15:15Z</time>
      </trkpt>
      <trkpt lat="41.336496" lon="-6.370005">
        <ele>698.559</ele>
        <time>2017-09-22T12:15:16Z</time>
      </trkpt>
      <trkpt lat="41.336484" lon="-6.370021">
        <ele>698.563</ele>
        <time>2017-09-22T12:15:17Z</time>
      </trkpt>
      <trkpt lat="41.336474" lon="-6.370031">
        <ele>698.579</ele>
        <time>2017-09-22T12:15:18Z</time>
      </trkpt>
      <trkpt lat="41.336464" lon="-6.370048">
        <ele>698.023</ele>
        <time>2017-09-22T12:15:19Z</time>
      </trkpt>
      <trkpt lat="41.336329" lon="-6.370124">
        <ele>696.633</ele>
        <time>2017-09-22T12:15:29Z</time>
      </trkpt>
      <trkpt lat="41.336311" lon="-6.370138">
        <ele>696.123</ele>
        <time>2017-09-22T12:15:30Z</time>
      </trkpt>
      <trkpt lat="41.336295" lon="-6.370156">
        <ele>695.615</ele>
        <time>2017-09-22T12:15:31Z</time>
      </trkpt>
      <trkpt lat="41.336106" lon="-6.370279">
        <ele>692.708</ele>
        <time>2017-09-22T12:15:41Z</time>
      </trkpt>
      <trkpt lat="41.336012" lon="-6.370504">
        <ele>692.225</ele>
        <time>2017-09-22T12:15:51Z</time>
      </trkpt>
      <trkpt lat="41.335941" lon="-6.370785">
        <ele>692.253</ele>
        <time>2017-09-22T12:16:05Z</time>
      </trkpt>
      <trkpt lat="41.335938" lon="-6.370798">
        <ele>692.224</ele>
        <time>2017-09-22T12:16:06Z</time>
      </trkpt>
      <trkpt lat="41.335939" lon="-6.370812">
        <ele>692.246</ele>
        <time>2017-09-22T12:16:07Z</time>
      </trkpt>
      <trkpt lat="41.335941" lon="-6.370831">
        <ele>692.215</ele>
        <time>2017-09-22T12:16:08Z</time>
      </trkpt>
      <trkpt lat="41.335867" lon="-6.371070">
        <ele>692.229</ele>
        <time>2017-09-22T12:16:18Z</time>
      </trkpt>
      <trkpt lat="41.335849" lon="-6.371201">
        <ele>693.275</ele>
        <time>2017-09-22T12:16:24Z</time>
      </trkpt>
      <trkpt lat="41.335845" lon="-6.371223">
        <ele>693.279</ele>
        <time>2017-09-22T12:16:25Z</time>
      </trkpt>
      <trkpt lat="41.335842" lon="-6.371249">
        <ele>693.251</ele>
        <time>2017-09-22T12:16:26Z</time>
      </trkpt>
      <trkpt lat="41.335787" lon="-6.371627">
        <ele>694.601</ele>
        <time>2017-09-22T12:16:41Z</time>
      </trkpt>
      <trkpt lat="41.335788" lon="-6.371793">
        <ele>695.111</ele>
        <time>2017-09-22T12:16:49Z</time>
      </trkpt>
      <trkpt lat="41.335793" lon="-6.371813">
        <ele>695.108</ele>
        <time>2017-09-22T12:16:50Z</time>
      </trkpt>
      <trkpt lat="41.335798" lon="-6.371923">
        <ele>695.137</ele>
        <time>2017-09-22T12:17:04Z</time>
      </trkpt>
      <trkpt lat="41.335788" lon="-6.371949">
        <ele>695.655</ele>
        <time>2017-09-22T12:17:25Z</time>
      </trkpt>
      <trkpt lat="41.335778" lon="-6.372004">
        <ele>695.126</ele>
        <time>2017-09-22T12:17:37Z</time>
      </trkpt>
      <trkpt lat="41.335783" lon="-6.372024">
        <ele>695.188</ele>
        <time>2017-09-22T12:17:47Z</time>
      </trkpt>
      <trkpt lat="41.335783" lon="-6.372047">
        <ele>695.127</ele>
        <time>2017-09-22T12:17:51Z</time>
      </trkpt>
      <trkpt lat="41.335786" lon="-6.372061">
        <ele>695.171</ele>
        <time>2017-09-22T12:17:52Z</time>
      </trkpt>
      <trkpt lat="41.335788" lon="-6.372077">
        <ele>695.127</ele>
        <time>2017-09-22T12:17:53Z</time>
      </trkpt>
      <trkpt lat="41.335809" lon="-6.372361">
        <ele>696.631</ele>
        <time>2017-09-22T12:18:10Z</time>
      </trkpt>
      <trkpt lat="41.335824" lon="-6.372602">
        <ele>697.036</ele>
        <time>2017-09-22T12:18:26Z</time>
      </trkpt>
      <trkpt lat="41.335800" lon="-6.372732">
        <ele>697.517</ele>
        <time>2017-09-22T12:18:41Z</time>
      </trkpt>
      <trkpt lat="41.335785" lon="-6.372812">
        <ele>698.018</ele>
        <time>2017-09-22T12:18:45Z</time>
      </trkpt>
      <trkpt lat="41.335779" lon="-6.372832">
        <ele>698.008</ele>
        <time>2017-09-22T12:18:46Z</time>
      </trkpt>
      <trkpt lat="41.335774" lon="-6.373204">
        <ele>699.045</ele>
        <time>2017-09-22T12:19:02Z</time>
      </trkpt>
      <trkpt lat="41.335813" lon="-6.373606">
        <ele>699.963</ele>
        <time>2017-09-22T12:19:19Z</time>
      </trkpt>
      <trkpt lat="41.335847" lon="-6.373999">
        <ele>700.444</ele>
        <time>2017-09-22T12:19:34Z</time>
      </trkpt>
      <trkpt lat="41.335949" lon="-6.374509">
        <ele>699.946</ele>
        <time>2017-09-22T12:19:50Z</time>
      </trkpt>
      <trkpt lat="41.336021" lon="-6.375059">
        <ele>701.915</ele>
        <time>2017-09-22T12:20:08Z</time>
      </trkpt>
      <trkpt lat="41.335919" lon="-6.375502">
        <ele>704.379</ele>
        <time>2017-09-22T12:20:25Z</time>
      </trkpt>
      <trkpt lat="41.335784" lon="-6.375932">
        <ele>703.345</ele>
        <time>2017-09-22T12:20:41Z</time>
      </trkpt>
      <trkpt lat="41.335600" lon="-6.376515">
        <ele>700.949</ele>
        <time>2017-09-22T12:20:55Z</time>
      </trkpt>
      <trkpt lat="41.335297" lon="-6.377150">
        <ele>699.022</ele>
        <time>2017-09-22T12:21:09Z</time>
      </trkpt>
      <trkpt lat="41.335186" lon="-6.377736">
        <ele>698.562</ele>
        <time>2017-09-22T12:21:22Z</time>
      </trkpt>
      <trkpt lat="41.335032" lon="-6.378137">
        <ele>699.908</ele>
        <time>2017-09-22T12:21:34Z</time>
      </trkpt>
      <trkpt lat="41.334718" lon="-6.378411">
        <ele>700.908</ele>
        <time>2017-09-22T12:21:50Z</time>
      </trkpt>
      <trkpt lat="41.334580" lon="-6.378545">
        <ele>702.384</ele>
        <time>2017-09-22T12:22:06Z</time>
      </trkpt>
      <trkpt lat="41.334579" lon="-6.378546">
        <ele>703.392</ele>
        <time>2017-09-22T12:22:26Z</time>
      </trkpt>
      <trkpt lat="41.334450" lon="-6.378702">
        <ele>703.853</ele>
        <time>2017-09-22T12:22:37Z</time>
      </trkpt>
      <trkpt lat="41.334283" lon="-6.378900">
        <ele>705.285</ele>
        <time>2017-09-22T12:22:51Z</time>
      </trkpt>
      <trkpt lat="41.334092" lon="-6.379092">
        <ele>707.144</ele>
        <time>2017-09-22T12:23:07Z</time>
      </trkpt>
      <trkpt lat="41.333916" lon="-6.379290">
        <ele>708.148</ele>
        <time>2017-09-22T12:23:23Z</time>
      </trkpt>
      <trkpt lat="41.333714" lon="-6.379417">
        <ele>710.064</ele>
        <time>2017-09-22T12:23:39Z</time>
      </trkpt>
      <trkpt lat="41.333498" lon="-6.379584">
        <ele>713.928</ele>
        <time>2017-09-22T12:23:57Z</time>
      </trkpt>
      <trkpt lat="41.333407" lon="-6.379668">
        <ele>714.467</ele>
        <time>2017-09-22T12:24:05Z</time>
      </trkpt>
      <trkpt lat="41.333397" lon="-6.379681">
        <ele>714.481</ele>
        <time>2017-09-22T12:24:06Z</time>
      </trkpt>
      <trkpt lat="41.333386" lon="-6.379691">
        <ele>714.419</ele>
        <time>2017-09-22T12:24:07Z</time>
      </trkpt>
      <trkpt lat="41.333372" lon="-6.379700">
        <ele>714.808</ele>
        <time>2017-09-22T12:24:08Z</time>
      </trkpt>
      <trkpt lat="41.333361" lon="-6.379712">
        <ele>714.898</ele>
        <time>2017-09-22T12:24:09Z</time>
      </trkpt>
      <trkpt lat="41.333350" lon="-6.379726">
        <ele>715.326</ele>
        <time>2017-09-22T12:24:10Z</time>
      </trkpt>
      <trkpt lat="41.333341" lon="-6.379739">
        <ele>715.357</ele>
        <time>2017-09-22T12:24:11Z</time>
      </trkpt>
      <trkpt lat="41.333330" lon="-6.379749">
        <ele>715.329</ele>
        <time>2017-09-22T12:24:12Z</time>
      </trkpt>
      <trkpt lat="41.333318" lon="-6.379759">
        <ele>715.338</ele>
        <time>2017-09-22T12:24:13Z</time>
      </trkpt>
      <trkpt lat="41.333129" lon="-6.379939">
        <ele>716.842</ele>
        <time>2017-09-22T12:24:29Z</time>
      </trkpt>
      <trkpt lat="41.332996" lon="-6.380109">
        <ele>717.758</ele>
        <time>2017-09-22T12:24:42Z</time>
      </trkpt>
      <trkpt lat="41.332975" lon="-6.380136">
        <ele>718.262</ele>
        <time>2017-09-22T12:24:44Z</time>
      </trkpt>
      <trkpt lat="41.332968" lon="-6.380152">
        <ele>718.234</ele>
        <time>2017-09-22T12:24:45Z</time>
      </trkpt>
      <trkpt lat="41.332958" lon="-6.380166">
        <ele>718.255</ele>
        <time>2017-09-22T12:24:46Z</time>
      </trkpt>
      <trkpt lat="41.332947" lon="-6.380180">
        <ele>718.210</ele>
        <time>2017-09-22T12:24:47Z</time>
      </trkpt>
      <trkpt lat="41.332938" lon="-6.380195">
        <ele>718.708</ele>
        <time>2017-09-22T12:24:48Z</time>
      </trkpt>
      <trkpt lat="41.332847" lon="-6.380448">
        <ele>721.145</ele>
        <time>2017-09-22T12:25:03Z</time>
      </trkpt>
      <trkpt lat="41.332844" lon="-6.380465">
        <ele>721.163</ele>
        <time>2017-09-22T12:25:04Z</time>
      </trkpt>
      <trkpt lat="41.332841" lon="-6.380483">
        <ele>721.684</ele>
        <time>2017-09-22T12:25:05Z</time>
      </trkpt>
      <trkpt lat="41.332836" lon="-6.380500">
        <ele>721.656</ele>
        <time>2017-09-22T12:25:06Z</time>
      </trkpt>
      <trkpt lat="41.332834" lon="-6.380517">
        <ele>721.625</ele>
        <time>2017-09-22T12:25:07Z</time>
      </trkpt>
      <trkpt lat="41.332835" lon="-6.380534">
        <ele>722.059</ele>
        <time>2017-09-22T12:25:08Z</time>
      </trkpt>
      <trkpt lat="41.332832" lon="-6.380552">
        <ele>722.075</ele>
        <time>2017-09-22T12:25:09Z</time>
      </trkpt>
      <trkpt lat="41.332827" lon="-6.380569">
        <ele>722.089</ele>
        <time>2017-09-22T12:25:10Z</time>
      </trkpt>
      <trkpt lat="41.332823" lon="-6.380587">
        <ele>722.081</ele>
        <time>2017-09-22T12:25:11Z</time>
      </trkpt>
      <trkpt lat="41.332789" lon="-6.380812">
        <ele>723.561</ele>
        <time>2017-09-22T12:25:25Z</time>
      </trkpt>
      <trkpt lat="41.332788" lon="-6.380833">
        <ele>723.517</ele>
        <time>2017-09-22T12:25:26Z</time>
      </trkpt>
      <trkpt lat="41.332782" lon="-6.380857">
        <ele>723.008</ele>
        <time>2017-09-22T12:25:27Z</time>
      </trkpt>
      <trkpt lat="41.332775" lon="-6.380882">
        <ele>723.040</ele>
        <time>2017-09-22T12:25:28Z</time>
      </trkpt>
      <trkpt lat="41.332767" lon="-6.380909">
        <ele>723.028</ele>
        <time>2017-09-22T12:25:29Z</time>
      </trkpt>
      <trkpt lat="41.332569" lon="-6.381450">
        <ele>720.159</ele>
        <time>2017-09-22T12:25:44Z</time>
      </trkpt>
      <trkpt lat="41.332393" lon="-6.381810">
        <ele>717.761</ele>
        <time>2017-09-22T12:25:56Z</time>
      </trkpt>
      <trkpt lat="41.332281" lon="-6.382033">
        <ele>716.390</ele>
        <time>2017-09-22T12:26:01Z</time>
      </trkpt>
      <trkpt lat="41.332126" lon="-6.382311">
        <ele>713.924</ele>
        <time>2017-09-22T12:26:10Z</time>
      </trkpt>
      <trkpt lat="41.331810" lon="-6.382755">
        <ele>711.560</ele>
        <time>2017-09-22T12:26:21Z</time>
      </trkpt>
      <trkpt lat="41.331657" lon="-6.382919">
        <ele>710.064</ele>
        <time>2017-09-22T12:26:27Z</time>
      </trkpt>
      <trkpt lat="41.331326" lon="-6.383379">
        <ele>710.067</ele>
        <time>2017-09-22T12:26:41Z</time>
      </trkpt>
      <trkpt lat="41.331182" lon="-6.383645">
        <ele>711.581</ele>
        <time>2017-09-22T12:26:53Z</time>
      </trkpt>
      <trkpt lat="41.330940" lon="-6.383861">
        <ele>713.419</ele>
        <time>2017-09-22T12:27:09Z</time>
      </trkpt>
      <trkpt lat="41.330687" lon="-6.383967">
        <ele>715.308</ele>
        <time>2017-09-22T12:27:25Z</time>
      </trkpt>
      <trkpt lat="41.330372" lon="-6.384140">
        <ele>716.328</ele>
        <time>2017-09-22T12:27:42Z</time>
      </trkpt>
      <trkpt lat="41.330358" lon="-6.384144">
        <ele>716.386</ele>
        <time>2017-09-22T12:27:43Z</time>
      </trkpt>
      <trkpt lat="41.330310" lon="-6.384153">
        <ele>715.897</ele>
        <time>2017-09-22T12:27:46Z</time>
      </trkpt>
      <trkpt lat="41.330293" lon="-6.384166">
        <ele>715.899</ele>
        <time>2017-09-22T12:27:47Z</time>
      </trkpt>
      <trkpt lat="41.330272" lon="-6.384181">
        <ele>715.848</ele>
        <time>2017-09-22T12:27:48Z</time>
      </trkpt>
      <trkpt lat="41.330252" lon="-6.384200">
        <ele>715.852</ele>
        <time>2017-09-22T12:27:49Z</time>
      </trkpt>
      <trkpt lat="41.330230" lon="-6.384221">
        <ele>715.898</ele>
        <time>2017-09-22T12:27:50Z</time>
      </trkpt>
      <trkpt lat="41.329995" lon="-6.384429">
        <ele>714.422</ele>
        <time>2017-09-22T12:28:04Z</time>
      </trkpt>
      <trkpt lat="41.329864" lon="-6.384672">
        <ele>712.914</ele>
        <time>2017-09-22T12:28:16Z</time>
      </trkpt>
      <trkpt lat="41.329631" lon="-6.384866">
        <ele>710.054</ele>
        <time>2017-09-22T12:28:27Z</time>
      </trkpt>
      <trkpt lat="41.329289" lon="-6.385122">
        <ele>708.109</ele>
        <time>2017-09-22T12:28:40Z</time>
      </trkpt>
      <trkpt lat="41.329011" lon="-6.385335">
        <ele>706.208</ele>
        <time>2017-09-22T12:28:49Z</time>
      </trkpt>
      <trkpt lat="41.328972" lon="-6.385354">
        <ele>705.773</ele>
        <time>2017-09-22T12:28:50Z</time>
      </trkpt>
      <trkpt lat="41.328506" lon="-6.385564">
        <ele>705.291</ele>
        <time>2017-09-22T12:29:04Z</time>
      </trkpt>
      <trkpt lat="41.328092" lon="-6.385880">
        <ele>701.422</ele>
        <time>2017-09-22T12:29:17Z</time>
      </trkpt>
      <trkpt lat="41.328053" lon="-6.385903">
        <ele>701.414</ele>
        <time>2017-09-22T12:29:18Z</time>
      </trkpt>
      <trkpt lat="41.327537" lon="-6.386179">
        <ele>700.423</ele>
        <time>2017-09-22T12:29:33Z</time>
      </trkpt>
      <trkpt lat="41.327239" lon="-6.386231">
        <ele>699.967</ele>
        <time>2017-09-22T12:29:45Z</time>
      </trkpt>
      <trkpt lat="41.326991" lon="-6.386282">
        <ele>699.013</ele>
        <time>2017-09-22T12:29:57Z</time>
      </trkpt>
      <trkpt lat="41.326829" lon="-6.386379">
        <ele>697.537</ele>
        <time>2017-09-22T12:30:09Z</time>
      </trkpt>
      <trkpt lat="41.326738" lon="-6.386386">
        <ele>696.638</ele>
        <time>2017-09-22T12:30:18Z</time>
      </trkpt>
      <trkpt lat="41.326724" lon="-6.386398">
        <ele>696.670</ele>
        <time>2017-09-22T12:30:19Z</time>
      </trkpt>
      <trkpt lat="41.326637" lon="-6.386455">
        <ele>695.117</ele>
        <time>2017-09-22T12:30:25Z</time>
      </trkpt>
      <trkpt lat="41.326626" lon="-6.386469">
        <ele>694.608</ele>
        <time>2017-09-22T12:30:26Z</time>
      </trkpt>
      <trkpt lat="41.326616" lon="-6.386483">
        <ele>694.615</ele>
        <time>2017-09-22T12:30:27Z</time>
      </trkpt>
      <trkpt lat="41.326604" lon="-6.386495">
        <ele>694.293</ele>
        <time>2017-09-22T12:30:28Z</time>
      </trkpt>
      <trkpt lat="41.326589" lon="-6.386505">
        <ele>694.234</ele>
        <time>2017-09-22T12:30:29Z</time>
      </trkpt>
      <trkpt lat="41.326578" lon="-6.386516">
        <ele>694.296</ele>
        <time>2017-09-22T12:30:30Z</time>
      </trkpt>
      <trkpt lat="41.326568" lon="-6.386524">
        <ele>694.275</ele>
        <time>2017-09-22T12:30:31Z</time>
      </trkpt>
      <trkpt lat="41.326555" lon="-6.386529">
        <ele>693.719</ele>
        <time>2017-09-22T12:30:32Z</time>
      </trkpt>
      <trkpt lat="41.326534" lon="-6.386519">
        <ele>693.715</ele>
        <time>2017-09-22T12:30:43Z</time>
      </trkpt>
      <trkpt lat="41.326540" lon="-6.386519">
        <ele>694.229</ele>
        <time>2017-09-22T12:31:08Z</time>
      </trkpt>
      <trkpt lat="41.326546" lon="-6.386521">
        <ele>693.712</ele>
        <time>2017-09-22T12:31:47Z</time>
      </trkpt>
      <trkpt lat="41.326537" lon="-6.386522">
        <ele>694.232</ele>
        <time>2017-09-22T12:32:17Z</time>
      </trkpt>
      <trkpt lat="41.326537" lon="-6.386514">
        <ele>693.705</ele>
        <time>2017-09-22T12:33:03Z</time>
      </trkpt>
      <trkpt lat="41.326533" lon="-6.386524">
        <ele>693.208</ele>
        <time>2017-09-22T12:34:42Z</time>
      </trkpt>
      <trkpt lat="41.326542" lon="-6.386527">
        <ele>694.243</ele>
        <time>2017-09-22T12:35:30Z</time>
      </trkpt>
      <trkpt lat="41.326536" lon="-6.386532">
        <ele>693.251</ele>
        <time>2017-09-22T12:36:10Z</time>
      </trkpt>
      <trkpt lat="41.326517" lon="-6.386521">
        <ele>693.212</ele>
        <time>2017-09-22T12:36:39Z</time>
      </trkpt>
      <trkpt lat="41.326496" lon="-6.386487">
        <ele>693.214</ele>
        <time>2017-09-22T12:36:44Z</time>
      </trkpt>
      <trkpt lat="41.326484" lon="-6.386477">
        <ele>692.773</ele>
        <time>2017-09-22T12:36:45Z</time>
      </trkpt>
      <trkpt lat="41.326467" lon="-6.386476">
        <ele>692.777</ele>
        <time>2017-09-22T12:36:46Z</time>
      </trkpt>
      <trkpt lat="41.326451" lon="-6.386485">
        <ele>692.243</ele>
        <time>2017-09-22T12:36:47Z</time>
      </trkpt>
      <trkpt lat="41.326438" lon="-6.386502">
        <ele>692.217</ele>
        <time>2017-09-22T12:36:48Z</time>
      </trkpt>
      <trkpt lat="41.326429" lon="-6.386521">
        <ele>691.873</ele>
        <time>2017-09-22T12:36:49Z</time>
      </trkpt>
      <trkpt lat="41.326420" lon="-6.386542">
        <ele>691.885</ele>
        <time>2017-09-22T12:36:50Z</time>
      </trkpt>
      <trkpt lat="41.326409" lon="-6.386562">
        <ele>691.313</ele>
        <time>2017-09-22T12:36:51Z</time>
      </trkpt>
      <trkpt lat="41.326397" lon="-6.386584">
        <ele>690.808</ele>
        <time>2017-09-22T12:36:52Z</time>
      </trkpt>
      <trkpt lat="41.326328" lon="-6.386633">
        <ele>689.459</ele>
        <time>2017-09-22T12:36:56Z</time>
      </trkpt>
      <trkpt lat="41.326307" lon="-6.386626">
        <ele>689.447</ele>
        <time>2017-09-22T12:36:57Z</time>
      </trkpt>
      <trkpt lat="41.325993" lon="-6.386475">
        <ele>685.098</ele>
        <time>2017-09-22T12:37:08Z</time>
      </trkpt>
      <trkpt lat="41.325793" lon="-6.386530">
        <ele>682.140</ele>
        <time>2017-09-22T12:37:19Z</time>
      </trkpt>
      <trkpt lat="41.325541" lon="-6.386647">
        <ele>679.399</ele>
        <time>2017-09-22T12:37:31Z</time>
      </trkpt>
      <trkpt lat="41.325291" lon="-6.386715">
        <ele>675.493</ele>
        <time>2017-09-22T12:37:43Z</time>
      </trkpt>
      <trkpt lat="41.325015" lon="-6.386647">
        <ele>673.089</ele>
        <time>2017-09-22T12:37:55Z</time>
      </trkpt>
      <trkpt lat="41.324709" lon="-6.386416">
        <ele>670.113</ele>
        <time>2017-09-22T12:38:08Z</time>
      </trkpt>
      <trkpt lat="41.324535" lon="-6.386683">
        <ele>670.121</ele>
        <time>2017-09-22T12:38:18Z</time>
      </trkpt>
      <trkpt lat="41.324345" lon="-6.386917">
        <ele>671.141</ele>
        <time>2017-09-22T12:38:31Z</time>
      </trkpt>
      <trkpt lat="41.324094" lon="-6.387313">
        <ele>669.705</ele>
        <time>2017-09-22T12:38:42Z</time>
      </trkpt>
      <trkpt lat="41.323918" lon="-6.387654">
        <ele>670.108</ele>
        <time>2017-09-22T12:38:54Z</time>
      </trkpt>
      <trkpt lat="41.323636" lon="-6.387729">
        <ele>670.114</ele>
        <time>2017-09-22T12:39:06Z</time>
      </trkpt>
      <trkpt lat="41.323234" lon="-6.387975">
        <ele>667.722</ele>
        <time>2017-09-22T12:39:19Z</time>
      </trkpt>
      <trkpt lat="41.322949" lon="-6.388283">
        <ele>670.183</ele>
        <time>2017-09-22T12:39:33Z</time>
      </trkpt>
      <trkpt lat="41.322720" lon="-6.388510">
        <ele>672.135</ele>
        <time>2017-09-22T12:39:49Z</time>
      </trkpt>
      <trkpt lat="41.322703" lon="-6.388525">
        <ele>673.044</ele>
        <time>2017-09-22T12:40:01Z</time>
      </trkpt>
      <trkpt lat="41.322684" lon="-6.388552">
        <ele>673.018</ele>
        <time>2017-09-22T12:40:11Z</time>
      </trkpt>
      <trkpt lat="41.322681" lon="-6.388565">
        <ele>673.094</ele>
        <time>2017-09-22T12:40:16Z</time>
      </trkpt>
      <trkpt lat="41.322633" lon="-6.388613">
        <ele>673.578</ele>
        <time>2017-09-22T12:40:21Z</time>
      </trkpt>
      <trkpt lat="41.322626" lon="-6.388630">
        <ele>673.521</ele>
        <time>2017-09-22T12:40:22Z</time>
      </trkpt>
      <trkpt lat="41.322618" lon="-6.388647">
        <ele>673.541</ele>
        <time>2017-09-22T12:40:23Z</time>
      </trkpt>
      <trkpt lat="41.322609" lon="-6.388664">
        <ele>673.505</ele>
        <time>2017-09-22T12:40:24Z</time>
      </trkpt>
      <trkpt lat="41.322598" lon="-6.388678">
        <ele>674.008</ele>
        <time>2017-09-22T12:40:25Z</time>
      </trkpt>
      <trkpt lat="41.322585" lon="-6.388685">
        <ele>674.014</ele>
        <time>2017-09-22T12:40:26Z</time>
      </trkpt>
      <trkpt lat="41.322572" lon="-6.388694">
        <ele>674.032</ele>
        <time>2017-09-22T12:40:27Z</time>
      </trkpt>
      <trkpt lat="41.322563" lon="-6.388709">
        <ele>674.553</ele>
        <time>2017-09-22T12:40:28Z</time>
      </trkpt>
      <trkpt lat="41.322556" lon="-6.388724">
        <ele>674.575</ele>
        <time>2017-09-22T12:40:29Z</time>
      </trkpt>
      <trkpt lat="41.322547" lon="-6.388736">
        <ele>674.514</ele>
        <time>2017-09-22T12:40:30Z</time>
      </trkpt>
      <trkpt lat="41.322538" lon="-6.388751">
        <ele>674.598</ele>
        <time>2017-09-22T12:40:31Z</time>
      </trkpt>
      <trkpt lat="41.322531" lon="-6.388770">
        <ele>674.594</ele>
        <time>2017-09-22T12:40:32Z</time>
      </trkpt>
      <trkpt lat="41.322524" lon="-6.388788">
        <ele>674.558</ele>
        <time>2017-09-22T12:40:33Z</time>
      </trkpt>
      <trkpt lat="41.322515" lon="-6.388805">
        <ele>674.563</ele>
        <time>2017-09-22T12:40:34Z</time>
      </trkpt>
      <trkpt lat="41.322506" lon="-6.388823">
        <ele>674.944</ele>
        <time>2017-09-22T12:40:35Z</time>
      </trkpt>
      <trkpt lat="41.322339" lon="-6.389133">
        <ele>677.818</ele>
        <time>2017-09-22T12:40:54Z</time>
      </trkpt>
      <trkpt lat="41.322292" lon="-6.389167">
        <ele>678.308</ele>
        <time>2017-09-22T12:40:58Z</time>
      </trkpt>
      <trkpt lat="41.322279" lon="-6.389171">
        <ele>678.318</ele>
        <time>2017-09-22T12:40:59Z</time>
      </trkpt>
      <trkpt lat="41.322241" lon="-6.389198">
        <ele>678.836</ele>
        <time>2017-09-22T12:41:02Z</time>
      </trkpt>
      <trkpt lat="41.322227" lon="-6.389200">
        <ele>678.837</ele>
        <time>2017-09-22T12:41:03Z</time>
      </trkpt>
      <trkpt lat="41.322213" lon="-6.389199">
        <ele>678.829</ele>
        <time>2017-09-22T12:41:04Z</time>
      </trkpt>
      <trkpt lat="41.322053" lon="-6.389092">
        <ele>680.228</ele>
        <time>2017-09-22T12:41:17Z</time>
      </trkpt>
      <trkpt lat="41.321859" lon="-6.388935">
        <ele>682.642</ele>
        <time>2017-09-22T12:41:34Z</time>
      </trkpt>
      <trkpt lat="41.321718" lon="-6.388829">
        <ele>683.678</ele>
        <time>2017-09-22T12:41:46Z</time>
      </trkpt>
      <trkpt lat="41.321688" lon="-6.388794">
        <ele>684.122</ele>
        <time>2017-09-22T12:41:49Z</time>
      </trkpt>
      <trkpt lat="41.321676" lon="-6.388789">
        <ele>684.118</ele>
        <time>2017-09-22T12:41:50Z</time>
      </trkpt>
      <trkpt lat="41.321663" lon="-6.388782">
        <ele>684.198</ele>
        <time>2017-09-22T12:41:51Z</time>
      </trkpt>
      <trkpt lat="41.321650" lon="-6.388773">
        <ele>684.617</ele>
        <time>2017-09-22T12:41:52Z</time>
      </trkpt>
      <trkpt lat="41.321641" lon="-6.388765">
        <ele>684.608</ele>
        <time>2017-09-22T12:41:53Z</time>
      </trkpt>
      <trkpt lat="41.321630" lon="-6.388755">
        <ele>684.613</ele>
        <time>2017-09-22T12:41:54Z</time>
      </trkpt>
      <trkpt lat="41.321617" lon="-6.388748">
        <ele>684.631</ele>
        <time>2017-09-22T12:41:55Z</time>
      </trkpt>
      <trkpt lat="41.321607" lon="-6.388741">
        <ele>684.692</ele>
        <time>2017-09-22T12:41:56Z</time>
      </trkpt>
      <trkpt lat="41.321597" lon="-6.388730">
        <ele>685.094</ele>
        <time>2017-09-22T12:41:57Z</time>
      </trkpt>
      <trkpt lat="41.321586" lon="-6.388719">
        <ele>685.073</ele>
        <time>2017-09-22T12:41:58Z</time>
      </trkpt>
      <trkpt lat="41.321575" lon="-6.388709">
        <ele>685.077</ele>
        <time>2017-09-22T12:41:59Z</time>
      </trkpt>
      <trkpt lat="41.321551" lon="-6.388698">
        <ele>685.533</ele>
        <time>2017-09-22T12:42:01Z</time>
      </trkpt>
      <trkpt lat="41.321541" lon="-6.388699">
        <ele>685.537</ele>
        <time>2017-09-22T12:42:02Z</time>
      </trkpt>
      <trkpt lat="41.321528" lon="-6.388698">
        <ele>685.532</ele>
        <time>2017-09-22T12:42:03Z</time>
      </trkpt>
      <trkpt lat="41.321517" lon="-6.388696">
        <ele>686.092</ele>
        <time>2017-09-22T12:42:04Z</time>
      </trkpt>
      <trkpt lat="41.321504" lon="-6.388696">
        <ele>686.011</ele>
        <time>2017-09-22T12:42:05Z</time>
      </trkpt>
      <trkpt lat="41.321491" lon="-6.388696">
        <ele>686.008</ele>
        <time>2017-09-22T12:42:06Z</time>
      </trkpt>
      <trkpt lat="41.321478" lon="-6.388701">
        <ele>686.095</ele>
        <time>2017-09-22T12:42:07Z</time>
      </trkpt>
      <trkpt lat="41.321467" lon="-6.388712">
        <ele>686.093</ele>
        <time>2017-09-22T12:42:08Z</time>
      </trkpt>
      <trkpt lat="41.321455" lon="-6.388726">
        <ele>686.524</ele>
        <time>2017-09-22T12:42:09Z</time>
      </trkpt>
      <trkpt lat="41.321445" lon="-6.388744">
        <ele>686.076</ele>
        <time>2017-09-22T12:42:10Z</time>
      </trkpt>
      <trkpt lat="41.321437" lon="-6.388764">
        <ele>686.525</ele>
        <time>2017-09-22T12:42:11Z</time>
      </trkpt>
      <trkpt lat="41.321429" lon="-6.388784">
        <ele>686.019</ele>
        <time>2017-09-22T12:42:12Z</time>
      </trkpt>
      <trkpt lat="41.321425" lon="-6.388803">
        <ele>686.085</ele>
        <time>2017-09-22T12:42:13Z</time>
      </trkpt>
      <trkpt lat="41.321421" lon="-6.388821">
        <ele>686.039</ele>
        <time>2017-09-22T12:42:14Z</time>
      </trkpt>
      <trkpt lat="41.321414" lon="-6.388837">
        <ele>686.537</ele>
        <time>2017-09-22T12:42:15Z</time>
      </trkpt>
      <trkpt lat="41.321409" lon="-6.388853">
        <ele>686.549</ele>
        <time>2017-09-22T12:42:16Z</time>
      </trkpt>
      <trkpt lat="41.321403" lon="-6.388867">
        <ele>686.513</ele>
        <time>2017-09-22T12:42:17Z</time>
      </trkpt>
      <trkpt lat="41.321398" lon="-6.388882">
        <ele>687.008</ele>
        <time>2017-09-22T12:42:18Z</time>
      </trkpt>
      <trkpt lat="41.321392" lon="-6.388898">
        <ele>687.035</ele>
        <time>2017-09-22T12:42:19Z</time>
      </trkpt>
      <trkpt lat="41.321375" lon="-6.388945">
        <ele>687.453</ele>
        <time>2017-09-22T12:42:22Z</time>
      </trkpt>
      <trkpt lat="41.321366" lon="-6.388957">
        <ele>687.434</ele>
        <time>2017-09-22T12:42:23Z</time>
      </trkpt>
      <trkpt lat="41.321358" lon="-6.388974">
        <ele>687.466</ele>
        <time>2017-09-22T12:42:24Z</time>
      </trkpt>
      <trkpt lat="41.321350" lon="-6.388993">
        <ele>687.465</ele>
        <time>2017-09-22T12:42:25Z</time>
      </trkpt>
      <trkpt lat="41.321343" lon="-6.389012">
        <ele>687.439</ele>
        <time>2017-09-22T12:42:26Z</time>
      </trkpt>
      <trkpt lat="41.321337" lon="-6.389032">
        <ele>687.435</ele>
        <time>2017-09-22T12:42:27Z</time>
      </trkpt>
      <trkpt lat="41.321328" lon="-6.389052">
        <ele>687.479</ele>
        <time>2017-09-22T12:42:28Z</time>
      </trkpt>
      <trkpt lat="41.321317" lon="-6.389069">
        <ele>687.479</ele>
        <time>2017-09-22T12:42:29Z</time>
      </trkpt>
      <trkpt lat="41.321254" lon="-6.389173">
        <ele>687.905</ele>
        <time>2017-09-22T12:42:35Z</time>
      </trkpt>
      <trkpt lat="41.321246" lon="-6.389196">
        <ele>687.925</ele>
        <time>2017-09-22T12:42:36Z</time>
      </trkpt>
      <trkpt lat="41.320947" lon="-6.389574">
        <ele>686.508</ele>
        <time>2017-09-22T12:42:53Z</time>
      </trkpt>
      <trkpt lat="41.320695" lon="-6.389786">
        <ele>684.179</ele>
        <time>2017-09-22T12:42:59Z</time>
      </trkpt>
      <trkpt lat="41.320362" lon="-6.390186">
        <ele>679.727</ele>
        <time>2017-09-22T12:43:07Z</time>
      </trkpt>
      <trkpt lat="41.320309" lon="-6.390208">
        <ele>679.768</ele>
        <time>2017-09-22T12:43:08Z</time>
      </trkpt>
      <trkpt lat="41.320254" lon="-6.390219">
        <ele>679.360</ele>
        <time>2017-09-22T12:43:09Z</time>
      </trkpt>
      <trkpt lat="41.320197" lon="-6.390222">
        <ele>678.819</ele>
        <time>2017-09-22T12:43:10Z</time>
      </trkpt>
      <trkpt lat="41.320139" lon="-6.390225">
        <ele>678.893</ele>
        <time>2017-09-22T12:43:11Z</time>
      </trkpt>
      <trkpt lat="41.320081" lon="-6.390234">
        <ele>678.319</ele>
        <time>2017-09-22T12:43:12Z</time>
      </trkpt>
      <trkpt lat="41.320018" lon="-6.390255">
        <ele>677.873</ele>
        <time>2017-09-22T12:43:13Z</time>
      </trkpt>
      <trkpt lat="41.319959" lon="-6.390296">
        <ele>677.388</ele>
        <time>2017-09-22T12:43:14Z</time>
      </trkpt>
      <trkpt lat="41.319900" lon="-6.390343">
        <ele>676.924</ele>
        <time>2017-09-22T12:43:15Z</time>
      </trkpt>
      <trkpt lat="41.319785" lon="-6.390452">
        <ele>675.426</ele>
        <time>2017-09-22T12:43:17Z</time>
      </trkpt>
      <trkpt lat="41.319731" lon="-6.390520">
        <ele>674.908</ele>
        <time>2017-09-22T12:43:18Z</time>
      </trkpt>
      <trkpt lat="41.319138" lon="-6.391328">
        <ele>673.550</ele>
        <time>2017-09-22T12:43:30Z</time>
      </trkpt>
      <trkpt lat="41.318828" lon="-6.391737">
        <ele>676.428</ele>
        <time>2017-09-22T12:43:41Z</time>
      </trkpt>
      <trkpt lat="41.318647" lon="-6.392023">
        <ele>677.859</ele>
        <time>2017-09-22T12:43:55Z</time>
      </trkpt>
      <trkpt lat="41.318630" lon="-6.392069">
        <ele>678.331</ele>
        <time>2017-09-22T12:43:57Z</time>
      </trkpt>
      <trkpt lat="41.318627" lon="-6.392097">
        <ele>678.370</ele>
        <time>2017-09-22T12:43:58Z</time>
      </trkpt>
      <trkpt lat="41.318630" lon="-6.392127">
        <ele>677.854</ele>
        <time>2017-09-22T12:43:59Z</time>
      </trkpt>
      <trkpt lat="41.318592" lon="-6.392243">
        <ele>674.920</ele>
        <time>2017-09-22T12:45:40Z</time>
      </trkpt>
      <trkpt lat="41.318579" lon="-6.392250">
        <ele>674.934</ele>
        <time>2017-09-22T12:45:41Z</time>
      </trkpt>
      <trkpt lat="41.318569" lon="-6.392265">
        <ele>674.975</ele>
        <time>2017-09-22T12:45:42Z</time>
      </trkpt>
      <trkpt lat="41.318560" lon="-6.392283">
        <ele>674.928</ele>
        <time>2017-09-22T12:45:43Z</time>
      </trkpt>
      <trkpt lat="41.318550" lon="-6.392300">
        <ele>674.920</ele>
        <time>2017-09-22T12:45:44Z</time>
      </trkpt>
      <trkpt lat="41.318538" lon="-6.392317">
        <ele>674.908</ele>
        <time>2017-09-22T12:45:45Z</time>
      </trkpt>
      <trkpt lat="41.318424" lon="-6.392641">
        <ele>675.419</ele>
        <time>2017-09-22T12:45:58Z</time>
      </trkpt>
      <trkpt lat="41.318323" lon="-6.392962">
        <ele>678.317</ele>
        <time>2017-09-22T12:46:11Z</time>
      </trkpt>
      <trkpt lat="41.318205" lon="-6.393361">
        <ele>680.258</ele>
        <time>2017-09-22T12:46:26Z</time>
      </trkpt>
      <trkpt lat="41.318156" lon="-6.393463">
        <ele>680.250</ele>
        <time>2017-09-22T12:46:30Z</time>
      </trkpt>
      <trkpt lat="41.318087" lon="-6.393564">
        <ele>679.719</ele>
        <time>2017-09-22T12:46:35Z</time>
      </trkpt>
      <trkpt lat="41.317885" lon="-6.393826">
        <ele>681.763</ele>
        <time>2017-09-22T12:46:48Z</time>
      </trkpt>
      <trkpt lat="41.317815" lon="-6.394169">
        <ele>687.929</ele>
        <time>2017-09-22T12:47:01Z</time>
      </trkpt>
      <trkpt lat="41.317875" lon="-6.394580">
        <ele>689.823</ele>
        <time>2017-09-22T12:47:18Z</time>
      </trkpt>
      <trkpt lat="41.317941" lon="-6.394956">
        <ele>688.424</ele>
        <time>2017-09-22T12:47:32Z</time>
      </trkpt>
      <trkpt lat="41.318013" lon="-6.395371">
        <ele>687.004</ele>
        <time>2017-09-22T12:47:45Z</time>
      </trkpt>
      <trkpt lat="41.318124" lon="-6.395744">
        <ele>685.514</ele>
        <time>2017-09-22T12:47:55Z</time>
      </trkpt>
      <trkpt lat="41.318320" lon="-6.396131">
        <ele>687.008</ele>
        <time>2017-09-22T12:48:07Z</time>
      </trkpt>
      <trkpt lat="41.318483" lon="-6.396499">
        <ele>689.494</ele>
        <time>2017-09-22T12:48:21Z</time>
      </trkpt>
      <trkpt lat="41.318537" lon="-6.396850">
        <ele>688.982</ele>
        <time>2017-09-22T12:48:34Z</time>
      </trkpt>
      <trkpt lat="41.318579" lon="-6.397146">
        <ele>688.953</ele>
        <time>2017-09-22T12:48:45Z</time>
      </trkpt>
      <trkpt lat="41.318583" lon="-6.397172">
        <ele>689.415</ele>
        <time>2017-09-22T12:48:46Z</time>
      </trkpt>
      <trkpt lat="41.318587" lon="-6.397193">
        <ele>689.454</ele>
        <time>2017-09-22T12:48:47Z</time>
      </trkpt>
      <trkpt lat="41.318591" lon="-6.397214">
        <ele>689.458</ele>
        <time>2017-09-22T12:48:48Z</time>
      </trkpt>
      <trkpt lat="41.318594" lon="-6.397237">
        <ele>689.444</ele>
        <time>2017-09-22T12:48:49Z</time>
      </trkpt>
      <trkpt lat="41.318597" lon="-6.397257">
        <ele>689.448</ele>
        <time>2017-09-22T12:48:50Z</time>
      </trkpt>
      <trkpt lat="41.318592" lon="-6.397335">
        <ele>690.381</ele>
        <time>2017-09-22T12:48:55Z</time>
      </trkpt>
      <trkpt lat="41.318626" lon="-6.397491">
        <ele>689.861</ele>
        <time>2017-09-22T12:49:06Z</time>
      </trkpt>
      <trkpt lat="41.318643" lon="-6.397588">
        <ele>688.917</ele>
        <time>2017-09-22T12:49:21Z</time>
      </trkpt>
      <trkpt lat="41.318811" lon="-6.397907">
        <ele>686.508</ele>
        <time>2017-09-22T12:49:34Z</time>
      </trkpt>
      <trkpt lat="41.318954" lon="-6.398244">
        <ele>678.370</ele>
        <time>2017-09-22T12:49:45Z</time>
      </trkpt>
      <trkpt lat="41.319089" lon="-6.399803">
        <ele>681.298</ele>
        <time>2017-09-22T13:49:29Z</time>
      </trkpt>
      <trkpt lat="41.319074" lon="-6.399802">
        <ele>681.769</ele>
        <time>2017-09-22T13:49:30Z</time>
      </trkpt>
      <trkpt lat="41.319059" lon="-6.399791">
        <ele>681.781</ele>
        <time>2017-09-22T13:49:31Z</time>
      </trkpt>
      <trkpt lat="41.319047" lon="-6.399769">
        <ele>681.770</ele>
        <time>2017-09-22T13:49:32Z</time>
      </trkpt>
      <trkpt lat="41.319044" lon="-6.399745">
        <ele>681.724</ele>
        <time>2017-09-22T13:49:33Z</time>
      </trkpt>
      <trkpt lat="41.319045" lon="-6.399722">
        <ele>681.770</ele>
        <time>2017-09-22T13:49:34Z</time>
      </trkpt>
      <trkpt lat="41.319042" lon="-6.399672">
        <ele>681.784</ele>
        <time>2017-09-22T13:49:36Z</time>
      </trkpt>
      <trkpt lat="41.319032" lon="-6.399656">
        <ele>681.255</ele>
        <time>2017-09-22T13:49:37Z</time>
      </trkpt>
      <trkpt lat="41.319019" lon="-6.399635">
        <ele>680.707</ele>
        <time>2017-09-22T13:49:38Z</time>
      </trkpt>
      <trkpt lat="41.319011" lon="-6.399615">
        <ele>680.717</ele>
        <time>2017-09-22T13:49:39Z</time>
      </trkpt>
      <trkpt lat="41.319002" lon="-6.399597">
        <ele>680.208</ele>
        <time>2017-09-22T13:49:40Z</time>
      </trkpt>
      <trkpt lat="41.318980" lon="-6.399581">
        <ele>679.747</ele>
        <time>2017-09-22T13:49:41Z</time>
      </trkpt>
      <trkpt lat="41.318943" lon="-6.399576">
        <ele>679.325</ele>
        <time>2017-09-22T13:49:42Z</time>
      </trkpt>
      <trkpt lat="41.318913" lon="-6.399578">
        <ele>678.876</ele>
        <time>2017-09-22T13:49:43Z</time>
      </trkpt>
      <trkpt lat="41.318872" lon="-6.399581">
        <ele>678.388</ele>
        <time>2017-09-22T13:49:44Z</time>
      </trkpt>
      <trkpt lat="41.318788" lon="-6.399566">
        <ele>677.327</ele>
        <time>2017-09-22T13:49:46Z</time>
      </trkpt>
      <trkpt lat="41.318747" lon="-6.399553">
        <ele>676.951</ele>
        <time>2017-09-22T13:49:47Z</time>
      </trkpt>
      <trkpt lat="41.318661" lon="-6.399530">
        <ele>676.917</ele>
        <time>2017-09-22T13:49:49Z</time>
      </trkpt>
      <trkpt lat="41.318621" lon="-6.399511">
        <ele>676.931</ele>
        <time>2017-09-22T13:49:50Z</time>
      </trkpt>
      <trkpt lat="41.318579" lon="-6.399491">
        <ele>676.472</ele>
        <time>2017-09-22T13:49:51Z</time>
      </trkpt>
      <trkpt lat="41.318535" lon="-6.399472">
        <ele>676.413</ele>
        <time>2017-09-22T13:49:52Z</time>
      </trkpt>
      <trkpt lat="41.318490" lon="-6.399452">
        <ele>676.414</ele>
        <time>2017-09-22T13:49:53Z</time>
      </trkpt>
      <trkpt lat="41.318441" lon="-6.399433">
        <ele>675.908</ele>
        <time>2017-09-22T13:49:54Z</time>
      </trkpt>
      <trkpt lat="41.318390" lon="-6.399416">
        <ele>675.979</ele>
        <time>2017-09-22T13:49:55Z</time>
      </trkpt>
      <trkpt lat="41.318338" lon="-6.399399">
        <ele>675.477</ele>
        <time>2017-09-22T13:49:56Z</time>
      </trkpt>
      <trkpt lat="41.317890" lon="-6.399255">
        <ele>672.598</ele>
        <time>2017-09-22T13:50:08Z</time>
      </trkpt>
      <trkpt lat="41.317705" lon="-6.398793">
        <ele>668.790</ele>
        <time>2017-09-22T13:50:20Z</time>
      </trkpt>
      <trkpt lat="41.317643" lon="-6.398666">
        <ele>667.299</ele>
        <time>2017-09-22T13:50:27Z</time>
      </trkpt>
      <trkpt lat="41.317627" lon="-6.398645">
        <ele>666.823</ele>
        <time>2017-09-22T13:50:28Z</time>
      </trkpt>
      <trkpt lat="41.317609" lon="-6.398617">
        <ele>666.859</ele>
        <time>2017-09-22T13:50:29Z</time>
      </trkpt>
      <trkpt lat="41.317588" lon="-6.398590">
        <ele>666.363</ele>
        <time>2017-09-22T13:50:30Z</time>
      </trkpt>
      <trkpt lat="41.317556" lon="-6.398561">
        <ele>666.395</ele>
        <time>2017-09-22T13:50:31Z</time>
      </trkpt>
      <trkpt lat="41.317523" lon="-6.398538">
        <ele>665.849</ele>
        <time>2017-09-22T13:50:32Z</time>
      </trkpt>
      <trkpt lat="41.317493" lon="-6.398520">
        <ele>665.823</ele>
        <time>2017-09-22T13:50:33Z</time>
      </trkpt>
      <trkpt lat="41.317467" lon="-6.398505">
        <ele>665.308</ele>
        <time>2017-09-22T13:50:34Z</time>
      </trkpt>
      <trkpt lat="41.317442" lon="-6.398487">
        <ele>665.351</ele>
        <time>2017-09-22T13:50:35Z</time>
      </trkpt>
      <trkpt lat="41.317197" lon="-6.398275">
        <ele>663.469</ele>
        <time>2017-09-22T13:50:47Z</time>
      </trkpt>
      <trkpt lat="41.316930" lon="-6.398198">
        <ele>663.470</ele>
        <time>2017-09-22T13:50:56Z</time>
      </trkpt>
      <trkpt lat="41.316905" lon="-6.398184">
        <ele>663.472</ele>
        <time>2017-09-22T13:50:57Z</time>
      </trkpt>
      <trkpt lat="41.316886" lon="-6.398160">
        <ele>663.461</ele>
        <time>2017-09-22T13:50:58Z</time>
      </trkpt>
      <trkpt lat="41.316867" lon="-6.398132">
        <ele>663.465</ele>
        <time>2017-09-22T13:50:59Z</time>
      </trkpt>
      <trkpt lat="41.316847" lon="-6.398109">
        <ele>662.981</ele>
        <time>2017-09-22T13:51:00Z</time>
      </trkpt>
      <trkpt lat="41.316828" lon="-6.398087">
        <ele>663.415</ele>
        <time>2017-09-22T13:51:01Z</time>
      </trkpt>
      <trkpt lat="41.316809" lon="-6.398075">
        <ele>663.446</ele>
        <time>2017-09-22T13:51:02Z</time>
      </trkpt>
      <trkpt lat="41.316792" lon="-6.398069">
        <ele>663.488</ele>
        <time>2017-09-22T13:51:03Z</time>
      </trkpt>
      <trkpt lat="41.316779" lon="-6.398070">
        <ele>663.916</ele>
        <time>2017-09-22T13:51:04Z</time>
      </trkpt>
      <trkpt lat="41.316767" lon="-6.398083">
        <ele>663.908</ele>
        <time>2017-09-22T13:51:05Z</time>
      </trkpt>
      <trkpt lat="41.316754" lon="-6.398096">
        <ele>663.436</ele>
        <time>2017-09-22T13:51:06Z</time>
      </trkpt>
      <trkpt lat="41.316736" lon="-6.398112">
        <ele>663.494</ele>
        <time>2017-09-22T13:51:07Z</time>
      </trkpt>
      <trkpt lat="41.316719" lon="-6.398132">
        <ele>663.475</ele>
        <time>2017-09-22T13:51:08Z</time>
      </trkpt>
      <trkpt lat="41.316612" lon="-6.398237">
        <ele>662.457</ele>
        <time>2017-09-22T13:52:47Z</time>
      </trkpt>
      <trkpt lat="41.316601" lon="-6.398215">
        <ele>662.416</ele>
        <time>2017-09-22T13:52:48Z</time>
      </trkpt>
      <trkpt lat="41.316591" lon="-6.398195">
        <ele>662.490</ele>
        <time>2017-09-22T13:52:49Z</time>
      </trkpt>
      <trkpt lat="41.316580" lon="-6.398178">
        <ele>662.966</ele>
        <time>2017-09-22T13:52:50Z</time>
      </trkpt>
      <trkpt lat="41.316566" lon="-6.398168">
        <ele>662.920</ele>
        <time>2017-09-22T13:52:51Z</time>
      </trkpt>
      <trkpt lat="41.316551" lon="-6.398159">
        <ele>662.965</ele>
        <time>2017-09-22T13:52:52Z</time>
      </trkpt>
      <trkpt lat="41.316535" lon="-6.398154">
        <ele>662.968</ele>
        <time>2017-09-22T13:52:53Z</time>
      </trkpt>
      <trkpt lat="41.316519" lon="-6.398154">
        <ele>662.414</ele>
        <time>2017-09-22T13:52:54Z</time>
      </trkpt>
      <trkpt lat="41.316505" lon="-6.398155">
        <ele>662.908</ele>
        <time>2017-09-22T13:52:55Z</time>
      </trkpt>
      <trkpt lat="41.316438" lon="-6.398158">
        <ele>663.458</ele>
        <time>2017-09-22T13:53:09Z</time>
      </trkpt>
      <trkpt lat="41.316443" lon="-6.398138">
        <ele>663.486</ele>
        <time>2017-09-22T13:53:26Z</time>
      </trkpt>
      <trkpt lat="41.316300" lon="-6.398202">
        <ele>663.927</ele>
        <time>2017-09-22T13:53:41Z</time>
      </trkpt>
      <trkpt lat="41.316115" lon="-6.398363">
        <ele>668.249</ele>
        <time>2017-09-22T13:53:55Z</time>
      </trkpt>
      <trkpt lat="41.316040" lon="-6.398429">
        <ele>676.418</ele>
        <time>2017-09-22T13:54:06Z</time>
      </trkpt>
      <trkpt lat="41.316022" lon="-6.398462">
        <ele>674.972</ele>
        <time>2017-09-22T13:54:25Z</time>
      </trkpt>
      <trkpt lat="41.315976" lon="-6.398596">
        <ele>674.948</ele>
        <time>2017-09-22T13:54:41Z</time>
      </trkpt>
      <trkpt lat="41.315915" lon="-6.398801">
        <ele>676.492</ele>
        <time>2017-09-22T13:54:57Z</time>
      </trkpt>
      <trkpt lat="41.315822" lon="-6.398875">
        <ele>678.884</ele>
        <time>2017-09-22T13:55:11Z</time>
      </trkpt>
      <trkpt lat="41.315793" lon="-6.398850">
        <ele>679.307</ele>
        <time>2017-09-22T13:55:29Z</time>
      </trkpt>
      <trkpt lat="41.315697" lon="-6.398735">
        <ele>682.117</ele>
        <time>2017-09-22T13:55:43Z</time>
      </trkpt>
      <trkpt lat="41.315600" lon="-6.398535">
        <ele>682.608</ele>
        <time>2017-09-22T13:55:58Z</time>
      </trkpt>
      <trkpt lat="41.315529" lon="-6.398449">
        <ele>682.170</ele>
        <time>2017-09-22T13:56:14Z</time>
      </trkpt>
      <trkpt lat="41.315518" lon="-6.398417">
        <ele>682.198</ele>
        <time>2017-09-22T13:56:24Z</time>
      </trkpt>
      <trkpt lat="41.315471" lon="-6.398296">
        <ele>680.779</ele>
        <time>2017-09-22T13:56:31Z</time>
      </trkpt>
      <trkpt lat="41.315385" lon="-6.398237">
        <ele>680.261</ele>
        <time>2017-09-22T13:56:37Z</time>
      </trkpt>
      <trkpt lat="41.315196" lon="-6.397930">
        <ele>681.210</ele>
        <time>2017-09-22T13:56:51Z</time>
      </trkpt>
      <trkpt lat="41.314985" lon="-6.397521">
        <ele>683.174</ele>
        <time>2017-09-22T13:57:06Z</time>
      </trkpt>
      <trkpt lat="41.314729" lon="-6.397110">
        <ele>684.690</ele>
        <time>2017-09-22T13:57:20Z</time>
      </trkpt>
      <trkpt lat="41.314444" lon="-6.396797">
        <ele>688.424</ele>
        <time>2017-09-22T13:57:34Z</time>
      </trkpt>
      <trkpt lat="41.314289" lon="-6.396379">
        <ele>688.998</ele>
        <time>2017-09-22T13:57:49Z</time>
      </trkpt>
      <trkpt lat="41.314215" lon="-6.395855">
        <ele>689.815</ele>
        <time>2017-09-22T13:58:04Z</time>
      </trkpt>
      <trkpt lat="41.314121" lon="-6.395322">
        <ele>690.326</ele>
        <time>2017-09-22T13:58:19Z</time>
      </trkpt>
      <trkpt lat="41.314129" lon="-6.394979">
        <ele>689.808</ele>
        <time>2017-09-22T13:58:33Z</time>
      </trkpt>
      <trkpt lat="41.314125" lon="-6.394999">
        <ele>689.461</ele>
        <time>2017-09-22T13:58:58Z</time>
      </trkpt>
      <trkpt lat="41.314125" lon="-6.394974">
        <ele>690.879</ele>
        <time>2017-09-22T13:59:25Z</time>
      </trkpt>
      <trkpt lat="41.314164" lon="-6.394701">
        <ele>689.440</ele>
        <time>2017-09-22T13:59:39Z</time>
      </trkpt>
      <trkpt lat="41.314039" lon="-6.394468">
        <ele>687.462</ele>
        <time>2017-09-22T13:59:47Z</time>
      </trkpt>
      <trkpt lat="41.313996" lon="-6.394450">
        <ele>687.471</ele>
        <time>2017-09-22T13:59:48Z</time>
      </trkpt>
      <trkpt lat="41.313952" lon="-6.394435">
        <ele>686.515</ele>
        <time>2017-09-22T13:59:49Z</time>
      </trkpt>
      <trkpt lat="41.313146" lon="-6.394250">
        <ele>681.711</ele>
        <time>2017-09-22T14:00:01Z</time>
      </trkpt>
      <trkpt lat="41.312047" lon="-6.394019">
        <ele>677.855</ele>
        <time>2017-09-22T14:00:16Z</time>
      </trkpt>
      <trkpt lat="41.311523" lon="-6.393866">
        <ele>675.449</ele>
        <time>2017-09-22T14:00:23Z</time>
      </trkpt>
      <trkpt lat="41.311447" lon="-6.393811">
        <ele>675.402</ele>
        <time>2017-09-22T14:00:24Z</time>
      </trkpt>
      <trkpt lat="41.311374" lon="-6.393747">
        <ele>674.922</ele>
        <time>2017-09-22T14:00:25Z</time>
      </trkpt>
      <trkpt lat="41.310403" lon="-6.392661">
        <ele>667.208</ele>
        <time>2017-09-22T14:00:38Z</time>
      </trkpt>
      <trkpt lat="41.309607" lon="-6.392113">
        <ele>665.326</ele>
        <time>2017-09-22T14:00:47Z</time>
      </trkpt>
      <trkpt lat="41.309067" lon="-6.391938">
        <ele>668.284</ele>
        <time>2017-09-22T14:00:56Z</time>
      </trkpt>
      <trkpt lat="41.308537" lon="-6.391763">
        <ele>671.175</ele>
        <time>2017-09-22T14:01:11Z</time>
      </trkpt>
      <trkpt lat="41.308148" lon="-6.391629">
        <ele>672.547</ele>
        <time>2017-09-22T14:01:25Z</time>
      </trkpt>
      <trkpt lat="41.307795" lon="-6.391501">
        <ele>673.526</ele>
        <time>2017-09-22T14:01:41Z</time>
      </trkpt>
      <trkpt lat="41.307422" lon="-6.391369">
        <ele>675.450</ele>
        <time>2017-09-22T14:01:59Z</time>
      </trkpt>
      <trkpt lat="41.307033" lon="-6.391212">
        <ele>674.086</ele>
        <time>2017-09-22T14:02:13Z</time>
      </trkpt>
      <trkpt lat="41.306295" lon="-6.390928">
        <ele>670.620</ele>
        <time>2017-09-22T14:02:27Z</time>
      </trkpt>
      <trkpt lat="41.305171" lon="-6.390454">
        <ele>666.382</ele>
        <time>2017-09-22T14:02:43Z</time>
      </trkpt>
      <trkpt lat="41.303881" lon="-6.389992">
        <ele>661.543</ele>
        <time>2017-09-22T14:03:00Z</time>
      </trkpt>
      <trkpt lat="41.302446" lon="-6.389495">
        <ele>655.717</ele>
        <time>2017-09-22T14:03:17Z</time>
      </trkpt>
      <trkpt lat="41.301335" lon="-6.388880">
        <ele>650.908</ele>
        <time>2017-09-22T14:03:30Z</time>
      </trkpt>
      <trkpt lat="41.300119" lon="-6.388002">
        <ele>646.110</ele>
        <time>2017-09-22T14:03:45Z</time>
      </trkpt>
      <trkpt lat="41.299983" lon="-6.387876">
        <ele>645.698</ele>
        <time>2017-09-22T14:03:47Z</time>
      </trkpt>
      <trkpt lat="41.299267" lon="-6.386705">
        <ele>640.369</ele>
        <time>2017-09-22T14:04:00Z</time>
      </trkpt>
      <trkpt lat="41.298533" lon="-6.385470">
        <ele>636.541</ele>
        <time>2017-09-22T14:04:14Z</time>
      </trkpt>
      <trkpt lat="41.298037" lon="-6.384624">
        <ele>637.020</ele>
        <time>2017-09-22T14:04:28Z</time>
      </trkpt>
      <trkpt lat="41.297810" lon="-6.384257">
        <ele>636.564</ele>
        <time>2017-09-22T14:04:35Z</time>
      </trkpt>
      <trkpt lat="41.297667" lon="-6.384022">
        <ele>635.530</ele>
        <time>2017-09-22T14:04:39Z</time>
      </trkpt>
      <trkpt lat="41.297624" lon="-6.383972">
        <ele>635.074</ele>
        <time>2017-09-22T14:04:40Z</time>
      </trkpt>
      <trkpt lat="41.297578" lon="-6.383928">
        <ele>635.099</ele>
        <time>2017-09-22T14:04:41Z</time>
      </trkpt>
      <trkpt lat="41.296737" lon="-6.383265">
        <ele>627.807</ele>
        <time>2017-09-22T14:04:54Z</time>
      </trkpt>
      <trkpt lat="41.295967" lon="-6.382669">
        <ele>620.627</ele>
        <time>2017-09-22T14:05:05Z</time>
      </trkpt>
      <trkpt lat="41.295841" lon="-6.382580">
        <ele>619.208</ele>
        <time>2017-09-22T14:05:07Z</time>
      </trkpt>
      <trkpt lat="41.295779" lon="-6.382549">
        <ele>618.761</ele>
        <time>2017-09-22T14:05:08Z</time>
      </trkpt>
      <trkpt lat="41.295718" lon="-6.382530">
        <ele>618.239</ele>
        <time>2017-09-22T14:05:09Z</time>
      </trkpt>
      <trkpt lat="41.295654" lon="-6.382528">
        <ele>617.740</ele>
        <time>2017-09-22T14:05:10Z</time>
      </trkpt>
      <trkpt lat="41.295591" lon="-6.382546">
        <ele>617.332</ele>
        <time>2017-09-22T14:05:11Z</time>
      </trkpt>
      <trkpt lat="41.295530" lon="-6.382585">
        <ele>616.821</ele>
        <time>2017-09-22T14:05:12Z</time>
      </trkpt>
      <trkpt lat="41.295469" lon="-6.382645">
        <ele>616.365</ele>
        <time>2017-09-22T14:05:13Z</time>
      </trkpt>
      <trkpt lat="41.295418" lon="-6.382717">
        <ele>615.851</ele>
        <time>2017-09-22T14:05:14Z</time>
      </trkpt>
      <trkpt lat="41.295372" lon="-6.382801">
        <ele>615.365</ele>
        <time>2017-09-22T14:05:15Z</time>
      </trkpt>
      <trkpt lat="41.295328" lon="-6.382897">
        <ele>614.495</ele>
        <time>2017-09-22T14:05:16Z</time>
      </trkpt>
      <trkpt lat="41.294778" lon="-6.384090">
        <ele>605.749</ele>
        <time>2017-09-22T14:05:29Z</time>
      </trkpt>
      <trkpt lat="41.294702" lon="-6.384229">
        <ele>604.323</ele>
        <time>2017-09-22T14:05:31Z</time>
      </trkpt>
      <trkpt lat="41.294660" lon="-6.384279">
        <ele>603.808</ele>
        <time>2017-09-22T14:05:32Z</time>
      </trkpt>
      <trkpt lat="41.294612" lon="-6.384314">
        <ele>603.351</ele>
        <time>2017-09-22T14:05:33Z</time>
      </trkpt>
      <trkpt lat="41.294556" lon="-6.384332">
        <ele>603.369</ele>
        <time>2017-09-22T14:05:34Z</time>
      </trkpt>
      <trkpt lat="41.294501" lon="-6.384332">
        <ele>602.870</ele>
        <time>2017-09-22T14:05:35Z</time>
      </trkpt>
      <trkpt lat="41.294439" lon="-6.384312">
        <ele>602.482</ele>
        <time>2017-09-22T14:05:36Z</time>
      </trkpt>
      <trkpt lat="41.294385" lon="-6.384275">
        <ele>601.451</ele>
        <time>2017-09-22T14:05:37Z</time>
      </trkpt>
      <trkpt lat="41.294337" lon="-6.384225">
        <ele>600.985</ele>
        <time>2017-09-22T14:05:38Z</time>
      </trkpt>
      <trkpt lat="41.294288" lon="-6.384158">
        <ele>600.491</ele>
        <time>2017-09-22T14:05:39Z</time>
      </trkpt>
      <trkpt lat="41.294240" lon="-6.384091">
        <ele>600.035</ele>
        <time>2017-09-22T14:05:40Z</time>
      </trkpt>
      <trkpt lat="41.293978" lon="-6.383711">
        <ele>597.111</ele>
        <time>2017-09-22T14:05:46Z</time>
      </trkpt>
      <trkpt lat="41.293933" lon="-6.383670">
        <ele>596.621</ele>
        <time>2017-09-22T14:05:47Z</time>
      </trkpt>
      <trkpt lat="41.293882" lon="-6.383638">
        <ele>596.103</ele>
        <time>2017-09-22T14:05:48Z</time>
      </trkpt>
      <trkpt lat="41.293824" lon="-6.383614">
        <ele>595.608</ele>
        <time>2017-09-22T14:05:49Z</time>
      </trkpt>
      <trkpt lat="41.293764" lon="-6.383604">
        <ele>595.133</ele>
        <time>2017-09-22T14:05:50Z</time>
      </trkpt>
      <trkpt lat="41.293698" lon="-6.383608">
        <ele>594.721</ele>
        <time>2017-09-22T14:05:51Z</time>
      </trkpt>
      <trkpt lat="41.293634" lon="-6.383628">
        <ele>594.212</ele>
        <time>2017-09-22T14:05:52Z</time>
      </trkpt>
      <trkpt lat="41.293570" lon="-6.383661">
        <ele>593.234</ele>
        <time>2017-09-22T14:05:53Z</time>
      </trkpt>
      <trkpt lat="41.293507" lon="-6.383710">
        <ele>592.733</ele>
        <time>2017-09-22T14:05:54Z</time>
      </trkpt>
      <trkpt lat="41.293449" lon="-6.383767">
        <ele>591.837</ele>
        <time>2017-09-22T14:05:55Z</time>
      </trkpt>
      <trkpt lat="41.293167" lon="-6.384022">
        <ele>588.993</ele>
        <time>2017-09-22T14:06:00Z</time>
      </trkpt>
      <trkpt lat="41.293108" lon="-6.384038">
        <ele>588.497</ele>
        <time>2017-09-22T14:06:01Z</time>
      </trkpt>
      <trkpt lat="41.293046" lon="-6.384032">
        <ele>587.946</ele>
        <time>2017-09-22T14:06:02Z</time>
      </trkpt>
      <trkpt lat="41.292983" lon="-6.384002">
        <ele>587.588</ele>
        <time>2017-09-22T14:06:03Z</time>
      </trkpt>
      <trkpt lat="41.292923" lon="-6.383946">
        <ele>587.016</ele>
        <time>2017-09-22T14:06:04Z</time>
      </trkpt>
      <trkpt lat="41.292879" lon="-6.383877">
        <ele>587.008</ele>
        <time>2017-09-22T14:06:05Z</time>
      </trkpt>
      <trkpt lat="41.292843" lon="-6.383793">
        <ele>586.546</ele>
        <time>2017-09-22T14:06:06Z</time>
      </trkpt>
      <trkpt lat="41.292812" lon="-6.383708">
        <ele>586.014</ele>
        <time>2017-09-22T14:06:07Z</time>
      </trkpt>
      <trkpt lat="41.292620" lon="-6.383303">
        <ele>583.125</ele>
        <time>2017-09-22T14:06:12Z</time>
      </trkpt>
      <trkpt lat="41.292564" lon="-6.383245">
        <ele>582.757</ele>
        <time>2017-09-22T14:06:13Z</time>
      </trkpt>
      <trkpt lat="41.292159" lon="-6.382795">
        <ele>577.836</ele>
        <time>2017-09-22T14:06:22Z</time>
      </trkpt>
      <trkpt lat="41.292133" lon="-6.382734">
        <ele>577.840</ele>
        <time>2017-09-22T14:06:23Z</time>
      </trkpt>
      <trkpt lat="41.292125" lon="-6.382665">
        <ele>577.426</ele>
        <time>2017-09-22T14:06:24Z</time>
      </trkpt>
      <trkpt lat="41.292136" lon="-6.382604">
        <ele>577.440</ele>
        <time>2017-09-22T14:06:25Z</time>
      </trkpt>
      <trkpt lat="41.292160" lon="-6.382541">
        <ele>577.496</ele>
        <time>2017-09-22T14:06:26Z</time>
      </trkpt>
      <trkpt lat="41.292196" lon="-6.382495">
        <ele>576.931</ele>
        <time>2017-09-22T14:06:27Z</time>
      </trkpt>
      <trkpt lat="41.292245" lon="-6.382464">
        <ele>576.924</ele>
        <time>2017-09-22T14:06:28Z</time>
      </trkpt>
      <trkpt lat="41.292298" lon="-6.382455">
        <ele>576.908</ele>
        <time>2017-09-22T14:06:29Z</time>
      </trkpt>
      <trkpt lat="41.292353" lon="-6.382466">
        <ele>576.991</ele>
        <time>2017-09-22T14:06:30Z</time>
      </trkpt>
      <trkpt lat="41.292401" lon="-6.382493">
        <ele>576.449</ele>
        <time>2017-09-22T14:06:31Z</time>
      </trkpt>
      <trkpt lat="41.292454" lon="-6.382533">
        <ele>576.470</ele>
        <time>2017-09-22T14:06:32Z</time>
      </trkpt>
      <trkpt lat="41.292504" lon="-6.382574">
        <ele>575.962</ele>
        <time>2017-09-22T14:06:33Z</time>
      </trkpt>
      <trkpt lat="41.292812" lon="-6.382849">
        <ele>574.021</ele>
        <time>2017-09-22T14:06:42Z</time>
      </trkpt>
      <trkpt lat="41.292827" lon="-6.382863">
        <ele>575.085</ele>
        <time>2017-09-22T14:07:01Z</time>
      </trkpt>
      <trkpt lat="41.292836" lon="-6.382880">
        <ele>575.071</ele>
        <time>2017-09-22T14:07:02Z</time>
      </trkpt>
      <trkpt lat="41.292847" lon="-6.382900">
        <ele>575.095</ele>
        <time>2017-09-22T14:07:03Z</time>
      </trkpt>
      <trkpt lat="41.292863" lon="-6.382917">
        <ele>575.032</ele>
        <time>2017-09-22T14:07:04Z</time>
      </trkpt>
      <trkpt lat="41.292888" lon="-6.382939">
        <ele>574.592</ele>
        <time>2017-09-22T14:07:05Z</time>
      </trkpt>
      <trkpt lat="41.292915" lon="-6.382954">
        <ele>574.511</ele>
        <time>2017-09-22T14:07:06Z</time>
      </trkpt>
      <trkpt lat="41.292949" lon="-6.382970">
        <ele>574.508</ele>
        <time>2017-09-22T14:07:07Z</time>
      </trkpt>
      <trkpt lat="41.293147" lon="-6.382757">
        <ele>572.695</ele>
        <time>2017-09-22T14:07:15Z</time>
      </trkpt>
      <trkpt lat="41.293146" lon="-6.382704">
        <ele>572.693</ele>
        <time>2017-09-22T14:07:16Z</time>
      </trkpt>
      <trkpt lat="41.293134" lon="-6.382648">
        <ele>572.174</ele>
        <time>2017-09-22T14:07:17Z</time>
      </trkpt>
      <trkpt lat="41.293111" lon="-6.382599">
        <ele>571.616</ele>
        <time>2017-09-22T14:07:18Z</time>
      </trkpt>
      <trkpt lat="41.293077" lon="-6.382550">
        <ele>571.635</ele>
        <time>2017-09-22T14:07:19Z</time>
      </trkpt>
      <trkpt lat="41.293036" lon="-6.382508">
        <ele>571.119</ele>
        <time>2017-09-22T14:07:20Z</time>
      </trkpt>
      <trkpt lat="41.292997" lon="-6.382472">
        <ele>570.655</ele>
        <time>2017-09-22T14:07:21Z</time>
      </trkpt>
      <trkpt lat="41.292316" lon="-6.381822">
        <ele>563.979</ele>
        <time>2017-09-22T14:07:34Z</time>
      </trkpt>
      <trkpt lat="41.292056" lon="-6.381629">
        <ele>561.095</ele>
        <time>2017-09-22T14:07:39Z</time>
      </trkpt>
      <trkpt lat="41.291991" lon="-6.381608">
        <ele>560.549</ele>
        <time>2017-09-22T14:07:40Z</time>
      </trkpt>
      <trkpt lat="41.291921" lon="-6.381595">
        <ele>560.123</ele>
        <time>2017-09-22T14:07:41Z</time>
      </trkpt>
      <trkpt lat="41.290929" lon="-6.381548">
        <ele>551.908</ele>
        <time>2017-09-22T14:07:54Z</time>
      </trkpt>
      <trkpt lat="41.290159" lon="-6.381531">
        <ele>546.151</ele>
        <time>2017-09-22T14:08:05Z</time>
      </trkpt>
      <trkpt lat="41.290113" lon="-6.381547">
        <ele>545.629</ele>
        <time>2017-09-22T14:08:06Z</time>
      </trkpt>
      <trkpt lat="41.290074" lon="-6.381580">
        <ele>545.220</ele>
        <time>2017-09-22T14:08:07Z</time>
      </trkpt>
      <trkpt lat="41.290041" lon="-6.381627">
        <ele>544.762</ele>
        <time>2017-09-22T14:08:08Z</time>
      </trkpt>
      <trkpt lat="41.290024" lon="-6.381692">
        <ele>544.241</ele>
        <time>2017-09-22T14:08:09Z</time>
      </trkpt>
      <trkpt lat="41.290031" lon="-6.381769">
        <ele>543.775</ele>
        <time>2017-09-22T14:08:10Z</time>
      </trkpt>
      <trkpt lat="41.290057" lon="-6.381842">
        <ele>543.711</ele>
        <time>2017-09-22T14:08:11Z</time>
      </trkpt>
      <trkpt lat="41.290100" lon="-6.381905">
        <ele>543.275</ele>
        <time>2017-09-22T14:08:12Z</time>
      </trkpt>
      <trkpt lat="41.290150" lon="-6.381956">
        <ele>543.261</ele>
        <time>2017-09-22T14:08:13Z</time>
      </trkpt>
      <trkpt lat="41.290206" lon="-6.381993">
        <ele>543.221</ele>
        <time>2017-09-22T14:08:14Z</time>
      </trkpt>
      <trkpt lat="41.290269" lon="-6.382023">
        <ele>542.813</ele>
        <time>2017-09-22T14:08:15Z</time>
      </trkpt>
      <trkpt lat="41.290337" lon="-6.382050">
        <ele>542.308</ele>
        <time>2017-09-22T14:08:16Z</time>
      </trkpt>
      <trkpt lat="41.290672" lon="-6.382204">
        <ele>540.448</ele>
        <time>2017-09-22T14:08:21Z</time>
      </trkpt>
      <trkpt lat="41.290724" lon="-6.382249">
        <ele>539.966</ele>
        <time>2017-09-22T14:08:22Z</time>
      </trkpt>
      <trkpt lat="41.290772" lon="-6.382315">
        <ele>539.467</ele>
        <time>2017-09-22T14:08:23Z</time>
      </trkpt>
      <trkpt lat="41.290799" lon="-6.382390">
        <ele>538.919</ele>
        <time>2017-09-22T14:08:24Z</time>
      </trkpt>
      <trkpt lat="41.290806" lon="-6.382472">
        <ele>538.928</ele>
        <time>2017-09-22T14:08:25Z</time>
      </trkpt>
      <trkpt lat="41.290791" lon="-6.382547">
        <ele>538.452</ele>
        <time>2017-09-22T14:08:26Z</time>
      </trkpt>
      <trkpt lat="41.290756" lon="-6.382609">
        <ele>537.928</ele>
        <time>2017-09-22T14:08:27Z</time>
      </trkpt>
      <trkpt lat="41.290707" lon="-6.382651">
        <ele>537.572</ele>
        <time>2017-09-22T14:08:28Z</time>
      </trkpt>
      <trkpt lat="41.290640" lon="-6.382677">
        <ele>537.077</ele>
        <time>2017-09-22T14:08:29Z</time>
      </trkpt>
      <trkpt lat="41.290576" lon="-6.382680">
        <ele>537.061</ele>
        <time>2017-09-22T14:08:30Z</time>
      </trkpt>
      <trkpt lat="41.290514" lon="-6.382670">
        <ele>537.027</ele>
        <time>2017-09-22T14:08:31Z</time>
      </trkpt>
      <trkpt lat="41.290438" lon="-6.382653">
        <ele>536.508</ele>
        <time>2017-09-22T14:08:32Z</time>
      </trkpt>
      <trkpt lat="41.289769" lon="-6.382397">
        <ele>532.289</ele>
        <time>2017-09-22T14:08:41Z</time>
      </trkpt>
      <trkpt lat="41.289711" lon="-6.382344">
        <ele>531.787</ele>
        <time>2017-09-22T14:08:42Z</time>
      </trkpt>
      <trkpt lat="41.289661" lon="-6.382287">
        <ele>531.258</ele>
        <time>2017-09-22T14:08:43Z</time>
      </trkpt>
      <trkpt lat="41.289614" lon="-6.382217">
        <ele>530.760</ele>
        <time>2017-09-22T14:08:44Z</time>
      </trkpt>
      <trkpt lat="41.289572" lon="-6.382135">
        <ele>530.329</ele>
        <time>2017-09-22T14:08:45Z</time>
      </trkpt>
      <trkpt lat="41.289541" lon="-6.382060">
        <ele>529.863</ele>
        <time>2017-09-22T14:08:46Z</time>
      </trkpt>
      <trkpt lat="41.289516" lon="-6.381977">
        <ele>529.359</ele>
        <time>2017-09-22T14:08:47Z</time>
      </trkpt>
      <trkpt lat="41.289500" lon="-6.381881">
        <ele>528.893</ele>
        <time>2017-09-22T14:08:48Z</time>
      </trkpt>
      <trkpt lat="41.289495" lon="-6.381793">
        <ele>528.359</ele>
        <time>2017-09-22T14:08:49Z</time>
      </trkpt>
      <trkpt lat="41.289496" lon="-6.381697">
        <ele>527.903</ele>
        <time>2017-09-22T14:08:50Z</time>
      </trkpt>
      <trkpt lat="41.289522" lon="-6.381066">
        <ele>525.023</ele>
        <time>2017-09-22T14:08:57Z</time>
      </trkpt>
      <trkpt lat="41.289542" lon="-6.381000">
        <ele>524.508</ele>
        <time>2017-09-22T14:08:58Z</time>
      </trkpt>
      <trkpt lat="41.289573" lon="-6.380932">
        <ele>524.097</ele>
        <time>2017-09-22T14:08:59Z</time>
      </trkpt>
      <trkpt lat="41.289617" lon="-6.380862">
        <ele>524.075</ele>
        <time>2017-09-22T14:09:00Z</time>
      </trkpt>
      <trkpt lat="41.289664" lon="-6.380801">
        <ele>523.536</ele>
        <time>2017-09-22T14:09:01Z</time>
      </trkpt>
      <trkpt lat="41.290211" lon="-6.380177">
        <ele>518.718</ele>
        <time>2017-09-22T14:09:12Z</time>
      </trkpt>
      <trkpt lat="41.290231" lon="-6.380113">
        <ele>518.257</ele>
        <time>2017-09-22T14:09:13Z</time>
      </trkpt>
      <trkpt lat="41.290232" lon="-6.380048">
        <ele>518.221</ele>
        <time>2017-09-22T14:09:14Z</time>
      </trkpt>
      <trkpt lat="41.290214" lon="-6.379986">
        <ele>517.837</ele>
        <time>2017-09-22T14:09:15Z</time>
      </trkpt>
      <trkpt lat="41.290180" lon="-6.379936">
        <ele>517.821</ele>
        <time>2017-09-22T14:09:16Z</time>
      </trkpt>
      <trkpt lat="41.290137" lon="-6.379910">
        <ele>517.388</ele>
        <time>2017-09-22T14:09:17Z</time>
      </trkpt>
      <trkpt lat="41.290089" lon="-6.379907">
        <ele>516.824</ele>
        <time>2017-09-22T14:09:18Z</time>
      </trkpt>
      <trkpt lat="41.290039" lon="-6.379930">
        <ele>516.326</ele>
        <time>2017-09-22T14:09:19Z</time>
      </trkpt>
      <trkpt lat="41.289999" lon="-6.379972">
        <ele>516.308</ele>
        <time>2017-09-22T14:09:20Z</time>
      </trkpt>
      <trkpt lat="41.289964" lon="-6.380023">
        <ele>515.850</ele>
        <time>2017-09-22T14:09:21Z</time>
      </trkpt>
      <trkpt lat="41.289928" lon="-6.380083">
        <ele>515.428</ele>
        <time>2017-09-22T14:09:22Z</time>
      </trkpt>
      <trkpt lat="41.289715" lon="-6.380410">
        <ele>513.919</ele>
        <time>2017-09-22T14:09:27Z</time>
      </trkpt>
      <trkpt lat="41.289660" lon="-6.380461">
        <ele>513.441</ele>
        <time>2017-09-22T14:09:28Z</time>
      </trkpt>
      <trkpt lat="41.289601" lon="-6.380502">
        <ele>513.050</ele>
        <time>2017-09-22T14:09:29Z</time>
      </trkpt>
      <trkpt lat="41.289168" lon="-6.380846">
        <ele>509.654</ele>
        <time>2017-09-22T14:09:38Z</time>
      </trkpt>
      <trkpt lat="41.289122" lon="-6.380903">
        <ele>509.180</ele>
        <time>2017-09-22T14:09:39Z</time>
      </trkpt>
      <trkpt lat="41.289082" lon="-6.380965">
        <ele>508.614</ele>
        <time>2017-09-22T14:09:40Z</time>
      </trkpt>
      <trkpt lat="41.289046" lon="-6.381035">
        <ele>508.674</ele>
        <time>2017-09-22T14:09:41Z</time>
      </trkpt>
      <trkpt lat="41.289014" lon="-6.381113">
        <ele>508.156</ele>
        <time>2017-09-22T14:09:42Z</time>
      </trkpt>
      <trkpt lat="41.288992" lon="-6.381196">
        <ele>507.721</ele>
        <time>2017-09-22T14:09:43Z</time>
      </trkpt>
      <trkpt lat="41.288972" lon="-6.381284">
        <ele>507.208</ele>
        <time>2017-09-22T14:09:44Z</time>
      </trkpt>
      <trkpt lat="41.288808" lon="-6.381837">
        <ele>504.349</ele>
        <time>2017-09-22T14:09:50Z</time>
      </trkpt>
      <trkpt lat="41.288761" lon="-6.381900">
        <ele>503.897</ele>
        <time>2017-09-22T14:09:51Z</time>
      </trkpt>
      <trkpt lat="41.288701" lon="-6.381951">
        <ele>503.328</ele>
        <time>2017-09-22T14:09:52Z</time>
      </trkpt>
      <trkpt lat="41.288629" lon="-6.381993">
        <ele>502.960</ele>
        <time>2017-09-22T14:09:53Z</time>
      </trkpt>
      <trkpt lat="41.288554" lon="-6.382025">
        <ele>502.459</ele>
        <time>2017-09-22T14:09:54Z</time>
      </trkpt>
      <trkpt lat="41.288480" lon="-6.382046">
        <ele>501.963</ele>
        <time>2017-09-22T14:09:55Z</time>
      </trkpt>
      <trkpt lat="41.288403" lon="-6.382065">
        <ele>501.429</ele>
        <time>2017-09-22T14:09:56Z</time>
      </trkpt>
      <trkpt lat="41.288100" lon="-6.382189">
        <ele>499.543</ele>
        <time>2017-09-22T14:10:01Z</time>
      </trkpt>
      <trkpt lat="41.288060" lon="-6.382234">
        <ele>499.081</ele>
        <time>2017-09-22T14:10:02Z</time>
      </trkpt>
      <trkpt lat="41.288027" lon="-6.382292">
        <ele>498.161</ele>
        <time>2017-09-22T14:10:03Z</time>
      </trkpt>
      <trkpt lat="41.288010" lon="-6.382360">
        <ele>497.617</ele>
        <time>2017-09-22T14:10:04Z</time>
      </trkpt>
      <trkpt lat="41.288013" lon="-6.382429">
        <ele>497.608</ele>
        <time>2017-09-22T14:10:05Z</time>
      </trkpt>
      <trkpt lat="41.288035" lon="-6.382492">
        <ele>497.130</ele>
        <time>2017-09-22T14:10:06Z</time>
      </trkpt>
      <trkpt lat="41.288074" lon="-6.382553">
        <ele>497.198</ele>
        <time>2017-09-22T14:10:07Z</time>
      </trkpt>
      <trkpt lat="41.288120" lon="-6.382607">
        <ele>496.699</ele>
        <time>2017-09-22T14:10:08Z</time>
      </trkpt>
      <trkpt lat="41.288169" lon="-6.382662">
        <ele>496.191</ele>
        <time>2017-09-22T14:10:09Z</time>
      </trkpt>
      <trkpt lat="41.288314" lon="-6.382846">
        <ele>494.230</ele>
        <time>2017-09-22T14:10:12Z</time>
      </trkpt>
      <trkpt lat="41.288347" lon="-6.382913">
        <ele>494.274</ele>
        <time>2017-09-22T14:10:13Z</time>
      </trkpt>
      <trkpt lat="41.288366" lon="-6.382996">
        <ele>493.210</ele>
        <time>2017-09-22T14:10:14Z</time>
      </trkpt>
      <trkpt lat="41.288370" lon="-6.383074">
        <ele>493.244</ele>
        <time>2017-09-22T14:10:15Z</time>
      </trkpt>
      <trkpt lat="41.288358" lon="-6.383158">
        <ele>492.347</ele>
        <time>2017-09-22T14:10:16Z</time>
      </trkpt>
      <trkpt lat="41.288330" lon="-6.383227">
        <ele>492.329</ele>
        <time>2017-09-22T14:10:17Z</time>
      </trkpt>
      <trkpt lat="41.288290" lon="-6.383282">
        <ele>491.321</ele>
        <time>2017-09-22T14:10:18Z</time>
      </trkpt>
      <trkpt lat="41.288233" lon="-6.383325">
        <ele>490.808</ele>
        <time>2017-09-22T14:10:19Z</time>
      </trkpt>
      <trkpt lat="41.288169" lon="-6.383351">
        <ele>490.456</ele>
        <time>2017-09-22T14:10:20Z</time>
      </trkpt>
      <trkpt lat="41.288102" lon="-6.383369">
        <ele>490.434</ele>
        <time>2017-09-22T14:10:21Z</time>
      </trkpt>
      <trkpt lat="41.288030" lon="-6.383384">
        <ele>489.995</ele>
        <time>2017-09-22T14:10:22Z</time>
      </trkpt>
      <trkpt lat="41.287074" lon="-6.383638">
        <ele>482.717</ele>
        <time>2017-09-22T14:10:34Z</time>
      </trkpt>
      <trkpt lat="41.286689" lon="-6.383728">
        <ele>481.276</ele>
        <time>2017-09-22T14:10:39Z</time>
      </trkpt>
      <trkpt lat="41.286614" lon="-6.383722">
        <ele>481.240</ele>
        <time>2017-09-22T14:10:40Z</time>
      </trkpt>
      <trkpt lat="41.286278" lon="-6.383675">
        <ele>479.336</ele>
        <time>2017-09-22T14:10:45Z</time>
      </trkpt>
      <trkpt lat="41.286215" lon="-6.383691">
        <ele>479.330</ele>
        <time>2017-09-22T14:10:46Z</time>
      </trkpt>
      <trkpt lat="41.286161" lon="-6.383727">
        <ele>478.898</ele>
        <time>2017-09-22T14:10:47Z</time>
      </trkpt>
      <trkpt lat="41.286114" lon="-6.383785">
        <ele>478.315</ele>
        <time>2017-09-22T14:10:48Z</time>
      </trkpt>
      <trkpt lat="41.286074" lon="-6.383863">
        <ele>477.926</ele>
        <time>2017-09-22T14:10:49Z</time>
      </trkpt>
      <trkpt lat="41.286046" lon="-6.383945">
        <ele>477.408</ele>
        <time>2017-09-22T14:10:50Z</time>
      </trkpt>
      <trkpt lat="41.286019" lon="-6.384036">
        <ele>476.991</ele>
        <time>2017-09-22T14:10:51Z</time>
      </trkpt>
      <trkpt lat="41.285978" lon="-6.384240">
        <ele>475.569</ele>
        <time>2017-09-22T14:10:53Z</time>
      </trkpt>
      <trkpt lat="41.285973" lon="-6.384340">
        <ele>475.090</ele>
        <time>2017-09-22T14:10:54Z</time>
      </trkpt>
      <trkpt lat="41.285981" lon="-6.384444">
        <ele>475.082</ele>
        <time>2017-09-22T14:10:55Z</time>
      </trkpt>
      <trkpt lat="41.285992" lon="-6.384656">
        <ele>474.021</ele>
        <time>2017-09-22T14:10:57Z</time>
      </trkpt>
      <trkpt lat="41.285981" lon="-6.384742">
        <ele>473.535</ele>
        <time>2017-09-22T14:10:58Z</time>
      </trkpt>
      <trkpt lat="41.285949" lon="-6.384817">
        <ele>473.141</ele>
        <time>2017-09-22T14:10:59Z</time>
      </trkpt>
      <trkpt lat="41.285898" lon="-6.384867">
        <ele>472.695</ele>
        <time>2017-09-22T14:11:00Z</time>
      </trkpt>
      <trkpt lat="41.285831" lon="-6.384890">
        <ele>472.665</ele>
        <time>2017-09-22T14:11:01Z</time>
      </trkpt>
      <trkpt lat="41.285766" lon="-6.384886">
        <ele>472.668</ele>
        <time>2017-09-22T14:11:02Z</time>
      </trkpt>
      <trkpt lat="41.285697" lon="-6.384863">
        <ele>472.114</ele>
        <time>2017-09-22T14:11:03Z</time>
      </trkpt>
      <trkpt lat="41.285627" lon="-6.384836">
        <ele>472.108</ele>
        <time>2017-09-22T14:11:04Z</time>
      </trkpt>
      <trkpt lat="41.285555" lon="-6.384820">
        <ele>471.628</ele>
        <time>2017-09-22T14:11:05Z</time>
      </trkpt>
      <trkpt lat="41.285479" lon="-6.384826">
        <ele>471.146</ele>
        <time>2017-09-22T14:11:06Z</time>
      </trkpt>
      <trkpt lat="41.285411" lon="-6.384854">
        <ele>470.717</ele>
        <time>2017-09-22T14:11:07Z</time>
      </trkpt>
      <trkpt lat="41.285338" lon="-6.384901">
        <ele>469.779</ele>
        <time>2017-09-22T14:11:08Z</time>
      </trkpt>
      <trkpt lat="41.285260" lon="-6.384961">
        <ele>468.798</ele>
        <time>2017-09-22T14:11:09Z</time>
      </trkpt>
      <trkpt lat="41.285190" lon="-6.385020">
        <ele>468.332</ele>
        <time>2017-09-22T14:11:10Z</time>
      </trkpt>
      <trkpt lat="41.284637" lon="-6.385512">
        <ele>463.068</ele>
        <time>2017-09-22T14:11:18Z</time>
      </trkpt>
      <trkpt lat="41.284597" lon="-6.385591">
        <ele>462.572</ele>
        <time>2017-09-22T14:11:19Z</time>
      </trkpt>
      <trkpt lat="41.284528" lon="-6.385737">
        <ele>461.052</ele>
        <time>2017-09-22T14:11:21Z</time>
      </trkpt>
      <trkpt lat="41.284479" lon="-6.385786">
        <ele>460.653</ele>
        <time>2017-09-22T14:11:22Z</time>
      </trkpt>
      <trkpt lat="41.284416" lon="-6.385814">
        <ele>460.108</ele>
        <time>2017-09-22T14:11:23Z</time>
      </trkpt>
      <trkpt lat="41.284347" lon="-6.385832">
        <ele>459.608</ele>
        <time>2017-09-22T14:11:24Z</time>
      </trkpt>
      <trkpt lat="41.284275" lon="-6.385848">
        <ele>459.127</ele>
        <time>2017-09-22T14:11:25Z</time>
      </trkpt>
      <trkpt lat="41.284142" lon="-6.385891">
        <ele>457.735</ele>
        <time>2017-09-22T14:11:27Z</time>
      </trkpt>
      <trkpt lat="41.284090" lon="-6.385929">
        <ele>457.226</ele>
        <time>2017-09-22T14:11:28Z</time>
      </trkpt>
      <trkpt lat="41.284050" lon="-6.385980">
        <ele>456.228</ele>
        <time>2017-09-22T14:11:29Z</time>
      </trkpt>
      <trkpt lat="41.284022" lon="-6.386045">
        <ele>455.847</ele>
        <time>2017-09-22T14:11:30Z</time>
      </trkpt>
      <trkpt lat="41.284005" lon="-6.386125">
        <ele>455.391</ele>
        <time>2017-09-22T14:11:31Z</time>
      </trkpt>
      <trkpt lat="41.283997" lon="-6.386210">
        <ele>454.867</ele>
        <time>2017-09-22T14:11:32Z</time>
      </trkpt>
      <trkpt lat="41.283996" lon="-6.386297">
        <ele>454.311</ele>
        <time>2017-09-22T14:11:33Z</time>
      </trkpt>
      <trkpt lat="41.283991" lon="-6.386372">
        <ele>454.382</ele>
        <time>2017-09-22T14:11:34Z</time>
      </trkpt>
      <trkpt lat="41.283971" lon="-6.386433">
        <ele>453.843</ele>
        <time>2017-09-22T14:11:35Z</time>
      </trkpt>
      <trkpt lat="41.283934" lon="-6.386475">
        <ele>453.417</ele>
        <time>2017-09-22T14:11:36Z</time>
      </trkpt>
      <trkpt lat="41.283883" lon="-6.386495">
        <ele>453.408</ele>
        <time>2017-09-22T14:11:37Z</time>
      </trkpt>
      <trkpt lat="41.283829" lon="-6.386488">
        <ele>452.990</ele>
        <time>2017-09-22T14:11:38Z</time>
      </trkpt>
      <trkpt lat="41.283782" lon="-6.386450">
        <ele>452.428</ele>
        <time>2017-09-22T14:11:39Z</time>
      </trkpt>
      <trkpt lat="41.283750" lon="-6.386388">
        <ele>452.439</ele>
        <time>2017-09-22T14:11:40Z</time>
      </trkpt>
      <trkpt lat="41.283731" lon="-6.386313">
        <ele>452.431</ele>
        <time>2017-09-22T14:11:41Z</time>
      </trkpt>
      <trkpt lat="41.283722" lon="-6.386231">
        <ele>451.930</ele>
        <time>2017-09-22T14:11:42Z</time>
      </trkpt>
      <trkpt lat="41.283718" lon="-6.386145">
        <ele>451.944</ele>
        <time>2017-09-22T14:11:43Z</time>
      </trkpt>
      <trkpt lat="41.283690" lon="-6.385699">
        <ele>449.520</ele>
        <time>2017-09-22T14:11:49Z</time>
      </trkpt>
      <trkpt lat="41.283666" lon="-6.385647">
        <ele>449.014</ele>
        <time>2017-09-22T14:11:50Z</time>
      </trkpt>
      <trkpt lat="41.283629" lon="-6.385608">
        <ele>449.086</ele>
        <time>2017-09-22T14:11:51Z</time>
      </trkpt>
      <trkpt lat="41.283586" lon="-6.385588">
        <ele>448.560</ele>
        <time>2017-09-22T14:11:52Z</time>
      </trkpt>
      <trkpt lat="41.283541" lon="-6.385591">
        <ele>448.126</ele>
        <time>2017-09-22T14:11:53Z</time>
      </trkpt>
      <trkpt lat="41.283500" lon="-6.385622">
        <ele>447.608</ele>
        <time>2017-09-22T14:11:54Z</time>
      </trkpt>
      <trkpt lat="41.283471" lon="-6.385678">
        <ele>447.140</ele>
        <time>2017-09-22T14:11:55Z</time>
      </trkpt>
      <trkpt lat="41.283455" lon="-6.385749">
        <ele>446.618</ele>
        <time>2017-09-22T14:11:56Z</time>
      </trkpt>
      <trkpt lat="41.283451" lon="-6.385822">
        <ele>446.189</ele>
        <time>2017-09-22T14:11:57Z</time>
      </trkpt>
      <trkpt lat="41.283456" lon="-6.385902">
        <ele>445.721</ele>
        <time>2017-09-22T14:11:58Z</time>
      </trkpt>
      <trkpt lat="41.283462" lon="-6.385986">
        <ele>445.770</ele>
        <time>2017-09-22T14:11:59Z</time>
      </trkpt>
      <trkpt lat="41.283478" lon="-6.386250">
        <ele>444.294</ele>
        <time>2017-09-22T14:12:02Z</time>
      </trkpt>
      <trkpt lat="41.283473" lon="-6.386339">
        <ele>443.770</ele>
        <time>2017-09-22T14:12:03Z</time>
      </trkpt>
      <trkpt lat="41.283459" lon="-6.386428">
        <ele>443.364</ele>
        <time>2017-09-22T14:12:04Z</time>
      </trkpt>
      <trkpt lat="41.283439" lon="-6.386514">
        <ele>443.332</ele>
        <time>2017-09-22T14:12:05Z</time>
      </trkpt>
      <trkpt lat="41.283416" lon="-6.386602">
        <ele>442.892</ele>
        <time>2017-09-22T14:12:06Z</time>
      </trkpt>
      <trkpt lat="41.283124" lon="-6.387566">
        <ele>438.011</ele>
        <time>2017-09-22T14:12:17Z</time>
      </trkpt>
      <trkpt lat="41.283097" lon="-6.387624">
        <ele>437.508</ele>
        <time>2017-09-22T14:12:18Z</time>
      </trkpt>
      <trkpt lat="41.283061" lon="-6.387669">
        <ele>437.035</ele>
        <time>2017-09-22T14:12:19Z</time>
      </trkpt>
      <trkpt lat="41.283020" lon="-6.387695">
        <ele>437.043</ele>
        <time>2017-09-22T14:12:20Z</time>
      </trkpt>
      <trkpt lat="41.282970" lon="-6.387702">
        <ele>436.534</ele>
        <time>2017-09-22T14:12:21Z</time>
      </trkpt>
      <trkpt lat="41.282922" lon="-6.387685">
        <ele>436.196</ele>
        <time>2017-09-22T14:12:22Z</time>
      </trkpt>
      <trkpt lat="41.282881" lon="-6.387642">
        <ele>436.125</ele>
        <time>2017-09-22T14:12:23Z</time>
      </trkpt>
      <trkpt lat="41.282859" lon="-6.387580">
        <ele>435.649</ele>
        <time>2017-09-22T14:12:24Z</time>
      </trkpt>
      <trkpt lat="41.282857" lon="-6.387506">
        <ele>435.165</ele>
        <time>2017-09-22T14:12:25Z</time>
      </trkpt>
      <trkpt lat="41.282872" lon="-6.387428">
        <ele>434.619</ele>
        <time>2017-09-22T14:12:26Z</time>
      </trkpt>
      <trkpt lat="41.282904" lon="-6.387330">
        <ele>434.615</ele>
        <time>2017-09-22T14:12:27Z</time>
      </trkpt>
      <trkpt lat="41.282922" lon="-6.387276">
        <ele>434.165</ele>
        <time>2017-09-22T14:12:28Z</time>
      </trkpt>
      <trkpt lat="41.283138" lon="-6.386456">
        <ele>431.211</ele>
        <time>2017-09-22T14:12:38Z</time>
      </trkpt>
      <trkpt lat="41.283143" lon="-6.386362">
        <ele>430.808</ele>
        <time>2017-09-22T14:12:39Z</time>
      </trkpt>
      <trkpt lat="41.283141" lon="-6.386267">
        <ele>430.383</ele>
        <time>2017-09-22T14:12:40Z</time>
      </trkpt>
      <trkpt lat="41.283134" lon="-6.386167">
        <ele>429.811</ele>
        <time>2017-09-22T14:12:41Z</time>
      </trkpt>
      <trkpt lat="41.283119" lon="-6.386075">
        <ele>429.352</ele>
        <time>2017-09-22T14:12:42Z</time>
      </trkpt>
      <trkpt lat="41.283091" lon="-6.385993">
        <ele>428.834</ele>
        <time>2017-09-22T14:12:43Z</time>
      </trkpt>
      <trkpt lat="41.283047" lon="-6.385925">
        <ele>427.923</ele>
        <time>2017-09-22T14:12:44Z</time>
      </trkpt>
      <trkpt lat="41.282991" lon="-6.385871">
        <ele>427.417</ele>
        <time>2017-09-22T14:12:45Z</time>
      </trkpt>
      <trkpt lat="41.282930" lon="-6.385831">
        <ele>427.433</ele>
        <time>2017-09-22T14:12:46Z</time>
      </trkpt>
      <trkpt lat="41.282863" lon="-6.385798">
        <ele>427.427</ele>
        <time>2017-09-22T14:12:47Z</time>
      </trkpt>
      <trkpt lat="41.282124" lon="-6.385456">
        <ele>426.452</ele>
        <time>2017-09-22T14:13:01Z</time>
      </trkpt>
      <trkpt lat="41.281996" lon="-6.385393">
        <ele>426.453</ele>
        <time>2017-09-22T14:13:04Z</time>
      </trkpt>
      <trkpt lat="41.281954" lon="-6.385367">
        <ele>426.408</ele>
        <time>2017-09-22T14:13:05Z</time>
      </trkpt>
      <trkpt lat="41.281664" lon="-6.385097">
        <ele>427.408</ele>
        <time>2017-09-22T14:13:16Z</time>
      </trkpt>
      <trkpt lat="41.281678" lon="-6.384799">
        <ele>429.397</ele>
        <time>2017-09-22T14:13:27Z</time>
      </trkpt>
      <trkpt lat="41.281757" lon="-6.384361">
        <ele>431.285</ele>
        <time>2017-09-22T14:13:42Z</time>
      </trkpt>
      <trkpt lat="41.281916" lon="-6.383912">
        <ele>434.656</ele>
        <time>2017-09-22T14:14:00Z</time>
      </trkpt>
      <trkpt lat="41.282078" lon="-6.383623">
        <ele>436.118</ele>
        <time>2017-09-22T14:14:16Z</time>
      </trkpt>
      <trkpt lat="41.282115" lon="-6.383561">
        <ele>437.077</ele>
        <time>2017-09-22T14:14:20Z</time>
      </trkpt>
      <trkpt lat="41.282123" lon="-6.383542">
        <ele>437.061</ele>
        <time>2017-09-22T14:14:21Z</time>
      </trkpt>
      <trkpt lat="41.282133" lon="-6.383526">
        <ele>437.057</ele>
        <time>2017-09-22T14:14:22Z</time>
      </trkpt>
      <trkpt lat="41.282144" lon="-6.383509">
        <ele>437.061</ele>
        <time>2017-09-22T14:14:23Z</time>
      </trkpt>
      <trkpt lat="41.282156" lon="-6.383493">
        <ele>437.089</ele>
        <time>2017-09-22T14:14:24Z</time>
      </trkpt>
      <trkpt lat="41.282168" lon="-6.383479">
        <ele>437.506</ele>
        <time>2017-09-22T14:14:25Z</time>
      </trkpt>
      <trkpt lat="41.282180" lon="-6.383460">
        <ele>437.526</ele>
        <time>2017-09-22T14:14:26Z</time>
      </trkpt>
      <trkpt lat="41.282188" lon="-6.383444">
        <ele>437.508</ele>
        <time>2017-09-22T14:14:27Z</time>
      </trkpt>
      <trkpt lat="41.282195" lon="-6.383426">
        <ele>437.550</ele>
        <time>2017-09-22T14:14:28Z</time>
      </trkpt>
      <trkpt lat="41.282202" lon="-6.383406">
        <ele>437.568</ele>
        <time>2017-09-22T14:14:29Z</time>
      </trkpt>
      <trkpt lat="41.282212" lon="-6.383390">
        <ele>437.579</ele>
        <time>2017-09-22T14:14:30Z</time>
      </trkpt>
      <trkpt lat="41.282225" lon="-6.383379">
        <ele>437.571</ele>
        <time>2017-09-22T14:14:31Z</time>
      </trkpt>
      <trkpt lat="41.282238" lon="-6.383366">
        <ele>437.550</ele>
        <time>2017-09-22T14:14:32Z</time>
      </trkpt>
      <trkpt lat="41.282248" lon="-6.383349">
        <ele>438.044</ele>
        <time>2017-09-22T14:14:33Z</time>
      </trkpt>
      <trkpt lat="41.282255" lon="-6.383331">
        <ele>438.050</ele>
        <time>2017-09-22T14:14:34Z</time>
      </trkpt>
      <trkpt lat="41.282416" lon="-6.383055">
        <ele>439.924</ele>
        <time>2017-09-22T14:14:50Z</time>
      </trkpt>
      <trkpt lat="41.282559" lon="-6.382822">
        <ele>441.344</ele>
        <time>2017-09-22T14:15:05Z</time>
      </trkpt>
      <trkpt lat="41.282694" lon="-6.382578">
        <ele>442.305</ele>
        <time>2017-09-22T14:15:19Z</time>
      </trkpt>
      <trkpt lat="41.282818" lon="-6.382355">
        <ele>443.715</ele>
        <time>2017-09-22T14:15:32Z</time>
      </trkpt>
      <trkpt lat="41.282830" lon="-6.382341">
        <ele>443.708</ele>
        <time>2017-09-22T14:15:33Z</time>
      </trkpt>
      <trkpt lat="41.282989" lon="-6.382067">
        <ele>445.746</ele>
        <time>2017-09-22T14:15:50Z</time>
      </trkpt>
      <trkpt lat="41.283063" lon="-6.381948">
        <ele>446.674</ele>
        <time>2017-09-22T14:15:57Z</time>
      </trkpt>
      <trkpt lat="41.283206" lon="-6.381654">
        <ele>448.515</ele>
        <time>2017-09-22T14:16:13Z</time>
      </trkpt>
      <trkpt lat="41.283344" lon="-6.381356">
        <ele>450.047</ele>
        <time>2017-09-22T14:16:29Z</time>
      </trkpt>
      <trkpt lat="41.283472" lon="-6.381075">
        <ele>451.046</ele>
        <time>2017-09-22T14:16:43Z</time>
      </trkpt>
      <trkpt lat="41.283636" lon="-6.380709">
        <ele>453.890</ele>
        <time>2017-09-22T14:17:00Z</time>
      </trkpt>
      <trkpt lat="41.283681" lon="-6.380643">
        <ele>453.826</ele>
        <time>2017-09-22T14:17:04Z</time>
      </trkpt>
      <trkpt lat="41.283685" lon="-6.380622">
        <ele>453.850</ele>
        <time>2017-09-22T14:17:05Z</time>
      </trkpt>
      <trkpt lat="41.283689" lon="-6.380597">
        <ele>453.815</ele>
        <time>2017-09-22T14:17:06Z</time>
      </trkpt>
      <trkpt lat="41.283697" lon="-6.380579">
        <ele>453.865</ele>
        <time>2017-09-22T14:17:07Z</time>
      </trkpt>
      <trkpt lat="41.283708" lon="-6.380563">
        <ele>453.811</ele>
        <time>2017-09-22T14:17:08Z</time>
      </trkpt>
      <trkpt lat="41.283754" lon="-6.380493">
        <ele>453.808</ele>
        <time>2017-09-22T14:17:12Z</time>
      </trkpt>
      <trkpt lat="41.283760" lon="-6.380471">
        <ele>453.863</ele>
        <time>2017-09-22T14:17:13Z</time>
      </trkpt>
      <trkpt lat="41.283899" lon="-6.380129">
        <ele>456.241</ele>
        <time>2017-09-22T14:17:29Z</time>
      </trkpt>
      <trkpt lat="41.284009" lon="-6.379796">
        <ele>457.752</ele>
        <time>2017-09-22T14:17:45Z</time>
      </trkpt>
      <trkpt lat="41.284113" lon="-6.379431">
        <ele>459.194</ele>
        <time>2017-09-22T14:18:01Z</time>
      </trkpt>
      <trkpt lat="41.284226" lon="-6.379069">
        <ele>460.643</ele>
        <time>2017-09-22T14:18:17Z</time>
      </trkpt>
      <trkpt lat="41.284305" lon="-6.378786">
        <ele>462.597</ele>
        <time>2017-09-22T14:18:30Z</time>
      </trkpt>
      <trkpt lat="41.284418" lon="-6.378414">
        <ele>463.963</ele>
        <time>2017-09-22T14:18:46Z</time>
      </trkpt>
      <trkpt lat="41.284426" lon="-6.378388">
        <ele>463.947</ele>
        <time>2017-09-22T14:18:47Z</time>
      </trkpt>
      <trkpt lat="41.284531" lon="-6.378012">
        <ele>464.974</ele>
        <time>2017-09-22T14:19:03Z</time>
      </trkpt>
      <trkpt lat="41.284650" lon="-6.377637">
        <ele>466.356</ele>
        <time>2017-09-22T14:19:20Z</time>
      </trkpt>
      <trkpt lat="41.284763" lon="-6.377261">
        <ele>467.321</ele>
        <time>2017-09-22T14:19:36Z</time>
      </trkpt>
      <trkpt lat="41.284874" lon="-6.376913">
        <ele>468.308</ele>
        <time>2017-09-22T14:19:52Z</time>
      </trkpt>
      <trkpt lat="41.284975" lon="-6.376614">
        <ele>468.729</ele>
        <time>2017-09-22T14:20:05Z</time>
      </trkpt>
      <trkpt lat="41.285121" lon="-6.376186">
        <ele>468.727</ele>
        <time>2017-09-22T14:20:22Z</time>
      </trkpt>
      <trkpt lat="41.285121" lon="-6.376004">
        <ele>469.248</ele>
        <time>2017-09-22T14:20:29Z</time>
      </trkpt>
      <trkpt lat="41.285106" lon="-6.375986">
        <ele>469.230</ele>
        <time>2017-09-22T14:20:30Z</time>
      </trkpt>
      <trkpt lat="41.285091" lon="-6.375975">
        <ele>469.759</ele>
        <time>2017-09-22T14:20:31Z</time>
      </trkpt>
      <trkpt lat="41.285070" lon="-6.375969">
        <ele>469.773</ele>
        <time>2017-09-22T14:20:32Z</time>
      </trkpt>
      <trkpt lat="41.285046" lon="-6.375963">
        <ele>470.279</ele>
        <time>2017-09-22T14:20:33Z</time>
      </trkpt>
      <trkpt lat="41.285009" lon="-6.375959">
        <ele>470.743</ele>
        <time>2017-09-22T14:20:35Z</time>
      </trkpt>
      <trkpt lat="41.284987" lon="-6.375972">
        <ele>471.166</ele>
        <time>2017-09-22T14:20:36Z</time>
      </trkpt>
      <trkpt lat="41.284973" lon="-6.375985">
        <ele>471.129</ele>
        <time>2017-09-22T14:20:37Z</time>
      </trkpt>
      <trkpt lat="41.284957" lon="-6.376006">
        <ele>471.121</ele>
        <time>2017-09-22T14:20:38Z</time>
      </trkpt>
      <trkpt lat="41.284942" lon="-6.376030">
        <ele>471.108</ele>
        <time>2017-09-22T14:20:39Z</time>
      </trkpt>
      <trkpt lat="41.284928" lon="-6.376061">
        <ele>471.178</ele>
        <time>2017-09-22T14:20:40Z</time>
      </trkpt>
      <trkpt lat="41.284856" lon="-6.376433">
        <ele>473.116</ele>
        <time>2017-09-22T14:20:55Z</time>
      </trkpt>
      <trkpt lat="41.284751" lon="-6.376855">
        <ele>473.177</ele>
        <time>2017-09-22T14:21:11Z</time>
      </trkpt>
      <trkpt lat="41.284584" lon="-6.377324">
        <ele>473.199</ele>
        <time>2017-09-22T14:21:26Z</time>
      </trkpt>
      <trkpt lat="41.284395" lon="-6.377681">
        <ele>475.018</ele>
        <time>2017-09-22T14:21:40Z</time>
      </trkpt>
      <trkpt lat="41.284207" lon="-6.378000">
        <ele>476.912</ele>
        <time>2017-09-22T14:21:55Z</time>
      </trkpt>
      <trkpt lat="41.283999" lon="-6.378350">
        <ele>476.948</ele>
        <time>2017-09-22T14:22:12Z</time>
      </trkpt>
      <trkpt lat="41.283857" lon="-6.378680">
        <ele>478.332</ele>
        <time>2017-09-22T14:22:27Z</time>
      </trkpt>
      <trkpt lat="41.283680" lon="-6.379123">
        <ele>479.882</ele>
        <time>2017-09-22T14:22:45Z</time>
      </trkpt>
      <trkpt lat="41.283447" lon="-6.379559">
        <ele>481.743</ele>
        <time>2017-09-22T14:23:03Z</time>
      </trkpt>
      <trkpt lat="41.283262" lon="-6.379849">
        <ele>483.217</ele>
        <time>2017-09-22T14:23:18Z</time>
      </trkpt>
      <trkpt lat="41.283061" lon="-6.380095">
        <ele>484.608</ele>
        <time>2017-09-22T14:23:34Z</time>
      </trkpt>
      <trkpt lat="41.282893" lon="-6.380259">
        <ele>486.510</ele>
        <time>2017-09-22T14:23:47Z</time>
      </trkpt>
      <trkpt lat="41.282841" lon="-6.380301">
        <ele>487.048</ele>
        <time>2017-09-22T14:23:51Z</time>
      </trkpt>
      <trkpt lat="41.282636" lon="-6.380465">
        <ele>488.999</ele>
        <time>2017-09-22T14:24:07Z</time>
      </trkpt>
      <trkpt lat="41.282428" lon="-6.380599">
        <ele>490.881</ele>
        <time>2017-09-22T14:24:22Z</time>
      </trkpt>
      <trkpt lat="41.282356" lon="-6.380648">
        <ele>491.870</ele>
        <time>2017-09-22T14:24:28Z</time>
      </trkpt>
      <trkpt lat="41.282342" lon="-6.380660">
        <ele>491.884</ele>
        <time>2017-09-22T14:24:29Z</time>
      </trkpt>
      <trkpt lat="41.282135" lon="-6.380766">
        <ele>492.840</ele>
        <time>2017-09-22T14:24:44Z</time>
      </trkpt>
      <trkpt lat="41.281920" lon="-6.380871">
        <ele>493.214</ele>
        <time>2017-09-22T14:24:59Z</time>
      </trkpt>
      <trkpt lat="41.281760" lon="-6.381000">
        <ele>494.728</ele>
        <time>2017-09-22T14:25:10Z</time>
      </trkpt>
      <trkpt lat="41.281748" lon="-6.381019">
        <ele>494.789</ele>
        <time>2017-09-22T14:25:11Z</time>
      </trkpt>
      <trkpt lat="41.281738" lon="-6.381040">
        <ele>495.217</ele>
        <time>2017-09-22T14:25:12Z</time>
      </trkpt>
      <trkpt lat="41.281728" lon="-6.381060">
        <ele>495.208</ele>
        <time>2017-09-22T14:25:13Z</time>
      </trkpt>
      <trkpt lat="41.281720" lon="-6.381083">
        <ele>494.724</ele>
        <time>2017-09-22T14:25:14Z</time>
      </trkpt>
      <trkpt lat="41.281712" lon="-6.381105">
        <ele>494.762</ele>
        <time>2017-09-22T14:25:15Z</time>
      </trkpt>
      <trkpt lat="41.281561" lon="-6.381447">
        <ele>496.673</ele>
        <time>2017-09-22T14:25:30Z</time>
      </trkpt>
      <trkpt lat="41.281403" lon="-6.381748">
        <ele>498.195</ele>
        <time>2017-09-22T14:25:44Z</time>
      </trkpt>
      <trkpt lat="41.281213" lon="-6.382053">
        <ele>499.014</ele>
        <time>2017-09-22T14:25:59Z</time>
      </trkpt>
      <trkpt lat="41.281106" lon="-6.382440">
        <ele>500.928</ele>
        <time>2017-09-22T14:26:15Z</time>
      </trkpt>
      <trkpt lat="41.281060" lon="-6.382832">
        <ele>502.464</ele>
        <time>2017-09-22T14:26:31Z</time>
      </trkpt>
      <trkpt lat="41.280937" lon="-6.383105">
        <ele>502.438</ele>
        <time>2017-09-22T14:26:45Z</time>
      </trkpt>
      <trkpt lat="41.280799" lon="-6.383362">
        <ele>505.346</ele>
        <time>2017-09-22T14:27:00Z</time>
      </trkpt>
      <trkpt lat="41.280756" lon="-6.383434">
        <ele>505.788</ele>
        <time>2017-09-22T14:27:05Z</time>
      </trkpt>
      <trkpt lat="41.280743" lon="-6.383433">
        <ele>505.716</ele>
        <time>2017-09-22T14:27:06Z</time>
      </trkpt>
      <trkpt lat="41.280728" lon="-6.383436">
        <ele>505.708</ele>
        <time>2017-09-22T14:27:07Z</time>
      </trkpt>
      <trkpt lat="41.280664" lon="-6.383471">
        <ele>506.736</ele>
        <time>2017-09-22T14:27:20Z</time>
      </trkpt>
      <trkpt lat="41.280670" lon="-6.383474">
        <ele>506.794</ele>
        <time>2017-09-22T14:27:45Z</time>
      </trkpt>
      <trkpt lat="41.280659" lon="-6.383458">
        <ele>506.745</ele>
        <time>2017-09-22T14:28:18Z</time>
      </trkpt>
      <trkpt lat="41.280659" lon="-6.383468">
        <ele>505.377</ele>
        <time>2017-09-22T14:28:55Z</time>
      </trkpt>
      <trkpt lat="41.280658" lon="-6.383462">
        <ele>505.746</ele>
        <time>2017-09-22T14:29:29Z</time>
      </trkpt>
      <trkpt lat="41.280659" lon="-6.383472">
        <ele>506.290</ele>
        <time>2017-09-22T14:29:58Z</time>
      </trkpt>
      <trkpt lat="41.280676" lon="-6.383466">
        <ele>506.716</ele>
        <time>2017-09-22T14:30:33Z</time>
      </trkpt>
      <trkpt lat="41.280665" lon="-6.383473">
        <ele>507.260</ele>
        <time>2017-09-22T14:31:01Z</time>
      </trkpt>
      <trkpt lat="41.280663" lon="-6.383483">
        <ele>506.717</ele>
        <time>2017-09-22T14:31:17Z</time>
      </trkpt>
      <trkpt lat="41.280667" lon="-6.383482">
        <ele>506.787</ele>
        <time>2017-09-22T14:31:35Z</time>
      </trkpt>
      <trkpt lat="41.280674" lon="-6.383498">
        <ele>507.215</ele>
        <time>2017-09-22T14:31:47Z</time>
      </trkpt>
      <trkpt lat="41.280680" lon="-6.383571">
        <ele>507.208</ele>
        <time>2017-09-22T14:31:51Z</time>
      </trkpt>
      <trkpt lat="41.280673" lon="-6.383592">
        <ele>507.213</ele>
        <time>2017-09-22T14:31:52Z</time>
      </trkpt>
      <trkpt lat="41.280665" lon="-6.383612">
        <ele>507.771</ele>
        <time>2017-09-22T14:31:53Z</time>
      </trkpt>
      <trkpt lat="41.280540" lon="-6.383845">
        <ele>509.662</ele>
        <time>2017-09-22T14:32:07Z</time>
      </trkpt>
      <trkpt lat="41.280456" lon="-6.383999">
        <ele>511.084</ele>
        <time>2017-09-22T14:32:18Z</time>
      </trkpt>
      <trkpt lat="41.280441" lon="-6.384025">
        <ele>511.523</ele>
        <time>2017-09-22T14:32:20Z</time>
      </trkpt>
      <trkpt lat="41.280358" lon="-6.384204">
        <ele>513.067</ele>
        <time>2017-09-22T14:32:32Z</time>
      </trkpt>
      <trkpt lat="41.280348" lon="-6.384216">
        <ele>513.443</ele>
        <time>2017-09-22T14:32:33Z</time>
      </trkpt>
      <trkpt lat="41.280339" lon="-6.384228">
        <ele>513.497</ele>
        <time>2017-09-22T14:32:34Z</time>
      </trkpt>
      <trkpt lat="41.280331" lon="-6.384242">
        <ele>513.464</ele>
        <time>2017-09-22T14:32:35Z</time>
      </trkpt>
      <trkpt lat="41.280324" lon="-6.384254">
        <ele>513.406</ele>
        <time>2017-09-22T14:32:36Z</time>
      </trkpt>
      <trkpt lat="41.280317" lon="-6.384268">
        <ele>513.416</ele>
        <time>2017-09-22T14:32:37Z</time>
      </trkpt>
      <trkpt lat="41.280307" lon="-6.384283">
        <ele>513.408</ele>
        <time>2017-09-22T14:32:38Z</time>
      </trkpt>
      <trkpt lat="41.280297" lon="-6.384296">
        <ele>513.468</ele>
        <time>2017-09-22T14:32:39Z</time>
      </trkpt>
      <trkpt lat="41.280287" lon="-6.384306">
        <ele>513.956</ele>
        <time>2017-09-22T14:32:40Z</time>
      </trkpt>
      <trkpt lat="41.280278" lon="-6.384321">
        <ele>513.957</ele>
        <time>2017-09-22T14:32:41Z</time>
      </trkpt>
      <trkpt lat="41.280270" lon="-6.384338">
        <ele>513.929</ele>
        <time>2017-09-22T14:32:42Z</time>
      </trkpt>
      <trkpt lat="41.280263" lon="-6.384352">
        <ele>513.918</ele>
        <time>2017-09-22T14:32:43Z</time>
      </trkpt>
      <trkpt lat="41.280254" lon="-6.384361">
        <ele>513.942</ele>
        <time>2017-09-22T14:32:44Z</time>
      </trkpt>
      <trkpt lat="41.280241" lon="-6.384367">
        <ele>513.978</ele>
        <time>2017-09-22T14:32:45Z</time>
      </trkpt>
      <trkpt lat="41.280229" lon="-6.384378">
        <ele>513.962</ele>
        <time>2017-09-22T14:32:46Z</time>
      </trkpt>
      <trkpt lat="41.280220" lon="-6.384392">
        <ele>513.919</ele>
        <time>2017-09-22T14:32:47Z</time>
      </trkpt>
      <trkpt lat="41.280209" lon="-6.384402">
        <ele>513.909</ele>
        <time>2017-09-22T14:32:48Z</time>
      </trkpt>
      <trkpt lat="41.280197" lon="-6.384410">
        <ele>514.419</ele>
        <time>2017-09-22T14:32:49Z</time>
      </trkpt>
      <trkpt lat="41.280185" lon="-6.384415">
        <ele>514.408</ele>
        <time>2017-09-22T14:32:50Z</time>
      </trkpt>
      <trkpt lat="41.280173" lon="-6.384420">
        <ele>514.493</ele>
        <time>2017-09-22T14:32:51Z</time>
      </trkpt>
      <trkpt lat="41.280057" lon="-6.384424">
        <ele>515.871</ele>
        <time>2017-09-22T14:33:00Z</time>
      </trkpt>
      <trkpt lat="41.280042" lon="-6.384423">
        <ele>516.352</ele>
        <time>2017-09-22T14:33:01Z</time>
      </trkpt>
      <trkpt lat="41.280028" lon="-6.384417">
        <ele>516.314</ele>
        <time>2017-09-22T14:33:02Z</time>
      </trkpt>
      <trkpt lat="41.280013" lon="-6.384408">
        <ele>516.393</ele>
        <time>2017-09-22T14:33:03Z</time>
      </trkpt>
      <trkpt lat="41.279998" lon="-6.384400">
        <ele>516.367</ele>
        <time>2017-09-22T14:33:04Z</time>
      </trkpt>
      <trkpt lat="41.279984" lon="-6.384392">
        <ele>516.833</ele>
        <time>2017-09-22T14:33:05Z</time>
      </trkpt>
      <trkpt lat="41.279910" lon="-6.384314">
        <ele>517.837</ele>
        <time>2017-09-22T14:33:12Z</time>
      </trkpt>
      <trkpt lat="41.279834" lon="-6.384078">
        <ele>519.711</ele>
        <time>2017-09-22T14:33:27Z</time>
      </trkpt>
      <trkpt lat="41.279807" lon="-6.383966">
        <ele>520.621</ele>
        <time>2017-09-22T14:33:34Z</time>
      </trkpt>
      <trkpt lat="41.279773" lon="-6.383661">
        <ele>522.603</ele>
        <time>2017-09-22T14:33:51Z</time>
      </trkpt>
      <trkpt lat="41.279685" lon="-6.383416">
        <ele>524.508</ele>
        <time>2017-09-22T14:34:05Z</time>
      </trkpt>
      <trkpt lat="41.279657" lon="-6.383400">
        <ele>524.523</ele>
        <time>2017-09-22T14:34:07Z</time>
      </trkpt>
      <trkpt lat="41.279450" lon="-6.383478">
        <ele>526.971</ele>
        <time>2017-09-22T14:34:22Z</time>
      </trkpt>
      <trkpt lat="41.279382" lon="-6.383535">
        <ele>527.932</ele>
        <time>2017-09-22T14:34:28Z</time>
      </trkpt>
      <trkpt lat="41.279371" lon="-6.383547">
        <ele>527.924</ele>
        <time>2017-09-22T14:34:29Z</time>
      </trkpt>
      <trkpt lat="41.279196" lon="-6.383662">
        <ele>529.873</ele>
        <time>2017-09-22T14:34:43Z</time>
      </trkpt>
      <trkpt lat="41.278997" lon="-6.383821">
        <ele>531.717</ele>
        <time>2017-09-22T14:34:59Z</time>
      </trkpt>
      <trkpt lat="41.278813" lon="-6.383928">
        <ele>533.163</ele>
        <time>2017-09-22T14:35:13Z</time>
      </trkpt>
      <trkpt lat="41.278801" lon="-6.383940">
        <ele>533.667</ele>
        <time>2017-09-22T14:35:14Z</time>
      </trkpt>
      <trkpt lat="41.278610" lon="-6.384070">
        <ele>535.563</ele>
        <time>2017-09-22T14:35:29Z</time>
      </trkpt>
      <trkpt lat="41.278356" lon="-6.384225">
        <ele>536.544</ele>
        <time>2017-09-22T14:35:48Z</time>
      </trkpt>
      <trkpt lat="41.278101" lon="-6.384358">
        <ele>539.418</ele>
        <time>2017-09-22T14:36:06Z</time>
      </trkpt>
      <trkpt lat="41.278044" lon="-6.384399">
        <ele>539.908</ele>
        <time>2017-09-22T14:36:10Z</time>
      </trkpt>
      <trkpt lat="41.278030" lon="-6.384407">
        <ele>539.928</ele>
        <time>2017-09-22T14:36:11Z</time>
      </trkpt>
      <trkpt lat="41.278017" lon="-6.384415">
        <ele>539.976</ele>
        <time>2017-09-22T14:36:12Z</time>
      </trkpt>
      <trkpt lat="41.278003" lon="-6.384427">
        <ele>539.927</ele>
        <time>2017-09-22T14:36:13Z</time>
      </trkpt>
      <trkpt lat="41.277990" lon="-6.384437">
        <ele>539.929</ele>
        <time>2017-09-22T14:36:14Z</time>
      </trkpt>
      <trkpt lat="41.277976" lon="-6.384444">
        <ele>540.468</ele>
        <time>2017-09-22T14:36:15Z</time>
      </trkpt>
      <trkpt lat="41.277961" lon="-6.384451">
        <ele>540.412</ele>
        <time>2017-09-22T14:36:16Z</time>
      </trkpt>
      <trkpt lat="41.277676" lon="-6.384578">
        <ele>542.838</ele>
        <time>2017-09-22T14:36:36Z</time>
      </trkpt>
      <trkpt lat="41.277484" lon="-6.384608">
        <ele>544.232</ele>
        <time>2017-09-22T14:36:49Z</time>
      </trkpt>
      <trkpt lat="41.277266" lon="-6.384587">
        <ele>544.282</ele>
        <time>2017-09-22T14:37:04Z</time>
      </trkpt>
      <trkpt lat="41.277224" lon="-6.384575">
        <ele>544.243</ele>
        <time>2017-09-22T14:37:07Z</time>
      </trkpt>
      <trkpt lat="41.276958" lon="-6.384525">
        <ele>547.117</ele>
        <time>2017-09-22T14:37:25Z</time>
      </trkpt>
      <trkpt lat="41.276725" lon="-6.384495">
        <ele>549.008</ele>
        <time>2017-09-22T14:37:41Z</time>
      </trkpt>
      <trkpt lat="41.276477" lon="-6.384460">
        <ele>549.570</ele>
        <time>2017-09-22T14:37:57Z</time>
      </trkpt>
      <trkpt lat="41.276324" lon="-6.384456">
        <ele>552.428</ele>
        <time>2017-09-22T14:38:12Z</time>
      </trkpt>
      <trkpt lat="41.276339" lon="-6.384466">
        <ele>552.999</ele>
        <time>2017-09-22T14:38:25Z</time>
      </trkpt>
      <trkpt lat="41.276242" lon="-6.384447">
        <ele>554.811</ele>
        <time>2017-09-22T14:38:50Z</time>
      </trkpt>
      <trkpt lat="41.275925" lon="-6.384454">
        <ele>556.760</ele>
        <time>2017-09-22T14:39:10Z</time>
      </trkpt>
      <trkpt lat="41.275901" lon="-6.384495">
        <ele>558.154</ele>
        <time>2017-09-22T14:39:27Z</time>
      </trkpt>
      <trkpt lat="41.275884" lon="-6.384483">
        <ele>558.660</ele>
        <time>2017-09-22T14:39:34Z</time>
      </trkpt>
      <trkpt lat="41.275870" lon="-6.384477">
        <ele>558.614</ele>
        <time>2017-09-22T14:39:35Z</time>
      </trkpt>
      <trkpt lat="41.275856" lon="-6.384472">
        <ele>558.687</ele>
        <time>2017-09-22T14:39:36Z</time>
      </trkpt>
      <trkpt lat="41.275842" lon="-6.384468">
        <ele>558.642</ele>
        <time>2017-09-22T14:39:37Z</time>
      </trkpt>
      <trkpt lat="41.275827" lon="-6.384464">
        <ele>558.626</ele>
        <time>2017-09-22T14:39:38Z</time>
      </trkpt>
      <trkpt lat="41.275813" lon="-6.384465">
        <ele>558.608</ele>
        <time>2017-09-22T14:39:39Z</time>
      </trkpt>
      <trkpt lat="41.275799" lon="-6.384459">
        <ele>558.140</ele>
        <time>2017-09-22T14:39:40Z</time>
      </trkpt>
      <trkpt lat="41.275487" lon="-6.384378">
        <ele>558.168</ele>
        <time>2017-09-22T14:40:03Z</time>
      </trkpt>
      <trkpt lat="41.275190" lon="-6.384247">
        <ele>560.129</ele>
        <time>2017-09-22T14:40:25Z</time>
      </trkpt>
      <trkpt lat="41.274979" lon="-6.384313">
        <ele>562.021</ele>
        <time>2017-09-22T14:40:42Z</time>
      </trkpt>
      <trkpt lat="41.274972" lon="-6.384344">
        <ele>562.940</ele>
        <time>2017-09-22T14:40:57Z</time>
      </trkpt>
      <trkpt lat="41.274967" lon="-6.384361">
        <ele>562.994</ele>
        <time>2017-09-22T14:40:58Z</time>
      </trkpt>
      <trkpt lat="41.274965" lon="-6.384382">
        <ele>562.950</ele>
        <time>2017-09-22T14:40:59Z</time>
      </trkpt>
      <trkpt lat="41.274961" lon="-6.384401">
        <ele>562.934</ele>
        <time>2017-09-22T14:41:00Z</time>
      </trkpt>
      <trkpt lat="41.274955" lon="-6.384418">
        <ele>562.917</ele>
        <time>2017-09-22T14:41:01Z</time>
      </trkpt>
      <trkpt lat="41.274946" lon="-6.384432">
        <ele>563.487</ele>
        <time>2017-09-22T14:41:02Z</time>
      </trkpt>
      <trkpt lat="41.274938" lon="-6.384444">
        <ele>563.415</ele>
        <time>2017-09-22T14:41:03Z</time>
      </trkpt>
      <trkpt lat="41.274791" lon="-6.384672">
        <ele>564.408</ele>
        <time>2017-09-22T14:41:23Z</time>
      </trkpt>
      <trkpt lat="41.274725" lon="-6.384759">
        <ele>564.913</ele>
        <time>2017-09-22T14:41:41Z</time>
      </trkpt>
      <trkpt lat="41.274741" lon="-6.384757">
        <ele>567.331</ele>
        <time>2017-09-22T14:42:21Z</time>
      </trkpt>
      <trkpt lat="41.274711" lon="-6.384775">
        <ele>564.952</ele>
        <time>2017-09-22T14:42:44Z</time>
      </trkpt>
      <trkpt lat="41.274693" lon="-6.384793">
        <ele>565.364</ele>
        <time>2017-09-22T14:42:47Z</time>
      </trkpt>
      <trkpt lat="41.274599" lon="-6.384927">
        <ele>565.823</ele>
        <time>2017-09-22T14:42:56Z</time>
      </trkpt>
      <trkpt lat="41.274337" lon="-6.385296">
        <ele>568.247</ele>
        <time>2017-09-22T14:43:18Z</time>
      </trkpt>
      <trkpt lat="41.274136" lon="-6.385580">
        <ele>570.233</ele>
        <time>2017-09-22T14:43:36Z</time>
      </trkpt>
      <trkpt lat="41.273953" lon="-6.385805">
        <ele>573.057</ele>
        <time>2017-09-22T14:43:52Z</time>
      </trkpt>
      <trkpt lat="41.273714" lon="-6.386000">
        <ele>575.459</ele>
        <time>2017-09-22T14:44:12Z</time>
      </trkpt>
      <trkpt lat="41.273481" lon="-6.386168">
        <ele>577.403</ele>
        <time>2017-09-22T14:44:31Z</time>
      </trkpt>
      <trkpt lat="41.273265" lon="-6.386315">
        <ele>578.323</ele>
        <time>2017-09-22T14:44:48Z</time>
      </trkpt>
      <trkpt lat="41.273111" lon="-6.386390">
        <ele>580.708</ele>
        <time>2017-09-22T14:45:00Z</time>
      </trkpt>
      <trkpt lat="41.273080" lon="-6.386401">
        <ele>581.277</ele>
        <time>2017-09-22T14:45:03Z</time>
      </trkpt>
      <trkpt lat="41.273039" lon="-6.386443">
        <ele>581.785</ele>
        <time>2017-09-22T14:45:16Z</time>
      </trkpt>
      <trkpt lat="41.273038" lon="-6.386410">
        <ele>580.726</ele>
        <time>2017-09-22T14:45:39Z</time>
      </trkpt>
      <trkpt lat="41.273026" lon="-6.386438">
        <ele>582.758</ele>
        <time>2017-09-22T14:46:11Z</time>
      </trkpt>
      <trkpt lat="41.273024" lon="-6.386449">
        <ele>584.627</ele>
        <time>2017-09-22T14:46:58Z</time>
      </trkpt>
      <trkpt lat="41.273040" lon="-6.386449">
        <ele>586.531</ele>
        <time>2017-09-22T14:47:41Z</time>
      </trkpt>
      <trkpt lat="41.273034" lon="-6.386433">
        <ele>585.167</ele>
        <time>2017-09-22T14:48:22Z</time>
      </trkpt>
      <trkpt lat="41.273034" lon="-6.386433">
        <ele>584.681</ele>
        <time>2017-09-22T14:49:08Z</time>
      </trkpt>
      <trkpt lat="41.273034" lon="-6.386437">
        <ele>586.552</ele>
        <time>2017-09-22T14:49:55Z</time>
      </trkpt>
      <trkpt lat="41.273024" lon="-6.386468">
        <ele>587.553</ele>
        <time>2017-09-22T14:50:48Z</time>
      </trkpt>
      <trkpt lat="41.273024" lon="-6.386478">
        <ele>587.008</ele>
        <time>2017-09-22T14:50:49Z</time>
      </trkpt>
      <trkpt lat="41.273007" lon="-6.386548">
        <ele>586.008</ele>
        <time>2017-09-22T14:50:54Z</time>
      </trkpt>
      <trkpt lat="41.272986" lon="-6.386561">
        <ele>585.177</ele>
        <time>2017-09-22T14:51:05Z</time>
      </trkpt>
      <trkpt lat="41.272948" lon="-6.386595">
        <ele>584.665</ele>
        <time>2017-09-22T14:51:09Z</time>
      </trkpt>
      <trkpt lat="41.272810" lon="-6.386706">
        <ele>586.036</ele>
        <time>2017-09-22T14:51:20Z</time>
      </trkpt>
      <trkpt lat="41.272783" lon="-6.386731">
        <ele>586.088</ele>
        <time>2017-09-22T14:51:22Z</time>
      </trkpt>
      <trkpt lat="41.272713" lon="-6.386789">
        <ele>586.597</ele>
        <time>2017-09-22T14:51:27Z</time>
      </trkpt>
      <trkpt lat="41.272458" lon="-6.386962">
        <ele>588.991</ele>
        <time>2017-09-22T14:51:46Z</time>
      </trkpt>
      <trkpt lat="41.272256" lon="-6.387063">
        <ele>589.467</ele>
        <time>2017-09-22T14:52:01Z</time>
      </trkpt>
      <trkpt lat="41.272061" lon="-6.387149">
        <ele>589.911</ele>
        <time>2017-09-22T14:52:14Z</time>
      </trkpt>
      <trkpt lat="41.271792" lon="-6.387269">
        <ele>590.324</ele>
        <time>2017-09-22T14:52:32Z</time>
      </trkpt>
      <trkpt lat="41.271576" lon="-6.387367">
        <ele>591.804</ele>
        <time>2017-09-22T14:52:45Z</time>
      </trkpt>
      <trkpt lat="41.271285" lon="-6.387499">
        <ele>593.214</ele>
        <time>2017-09-22T14:53:02Z</time>
      </trkpt>
      <trkpt lat="41.270901" lon="-6.387691">
        <ele>594.708</ele>
        <time>2017-09-22T14:53:20Z</time>
      </trkpt>
      <trkpt lat="41.270580" lon="-6.387831">
        <ele>595.194</ele>
        <time>2017-09-22T14:53:36Z</time>
      </trkpt>
      <trkpt lat="41.270357" lon="-6.387908">
        <ele>595.162</ele>
        <time>2017-09-22T14:53:47Z</time>
      </trkpt>
      <trkpt lat="41.270336" lon="-6.387919">
        <ele>595.143</ele>
        <time>2017-09-22T14:53:48Z</time>
      </trkpt>
      <trkpt lat="41.269920" lon="-6.388047">
        <ele>595.615</ele>
        <time>2017-09-22T14:54:03Z</time>
      </trkpt>
      <trkpt lat="41.269431" lon="-6.388205">
        <ele>597.124</ele>
        <time>2017-09-22T14:54:19Z</time>
      </trkpt>
      <trkpt lat="41.269062" lon="-6.388439">
        <ele>600.098</ele>
        <time>2017-09-22T14:54:38Z</time>
      </trkpt>
      <trkpt lat="41.268879" lon="-6.388618">
        <ele>602.864</ele>
        <time>2017-09-22T14:54:53Z</time>
      </trkpt>
      <trkpt lat="41.268737" lon="-6.388755">
        <ele>604.888</ele>
        <time>2017-09-22T14:55:05Z</time>
      </trkpt>
      <trkpt lat="41.268718" lon="-6.388778">
        <ele>605.222</ele>
        <time>2017-09-22T14:55:07Z</time>
      </trkpt>
      <trkpt lat="41.268703" lon="-6.388788">
        <ele>605.262</ele>
        <time>2017-09-22T14:55:08Z</time>
      </trkpt>
      <trkpt lat="41.268690" lon="-6.388799">
        <ele>605.208</ele>
        <time>2017-09-22T14:55:09Z</time>
      </trkpt>
      <trkpt lat="41.268497" lon="-6.388985">
        <ele>607.208</ele>
        <time>2017-09-22T14:55:25Z</time>
      </trkpt>
      <trkpt lat="41.268315" lon="-6.389077">
        <ele>609.144</ele>
        <time>2017-09-22T14:55:38Z</time>
      </trkpt>
      <trkpt lat="41.268256" lon="-6.389089">
        <ele>609.622</ele>
        <time>2017-09-22T14:55:48Z</time>
      </trkpt>
      <trkpt lat="41.268263" lon="-6.389089">
        <ele>610.073</ele>
        <time>2017-09-22T14:56:05Z</time>
      </trkpt>
      <trkpt lat="41.268235" lon="-6.389089">
        <ele>609.675</ele>
        <time>2017-09-22T14:56:30Z</time>
      </trkpt>
      <trkpt lat="41.267963" lon="-6.389136">
        <ele>612.514</ele>
        <time>2017-09-22T14:56:50Z</time>
      </trkpt>
      <trkpt lat="41.267695" lon="-6.389227">
        <ele>615.368</ele>
        <time>2017-09-22T14:57:11Z</time>
      </trkpt>
      <trkpt lat="41.267445" lon="-6.389327">
        <ele>617.714</ele>
        <time>2017-09-22T14:57:32Z</time>
      </trkpt>
      <trkpt lat="41.267160" lon="-6.389444">
        <ele>619.728</ele>
        <time>2017-09-22T14:57:55Z</time>
      </trkpt>
      <trkpt lat="41.266928" lon="-6.389561">
        <ele>622.586</ele>
        <time>2017-09-22T14:58:16Z</time>
      </trkpt>
      <trkpt lat="41.266710" lon="-6.389690">
        <ele>624.960</ele>
        <time>2017-09-22T14:58:36Z</time>
      </trkpt>
      <trkpt lat="41.266709" lon="-6.389703">
        <ele>626.426</ele>
        <time>2017-09-22T14:58:54Z</time>
      </trkpt>
      <trkpt lat="41.266688" lon="-6.389691">
        <ele>623.508</ele>
        <time>2017-09-22T14:59:20Z</time>
      </trkpt>
      <trkpt lat="41.266690" lon="-6.389733">
        <ele>624.990</ele>
        <time>2017-09-22T14:59:56Z</time>
      </trkpt>
      <trkpt lat="41.266705" lon="-6.389690">
        <ele>625.458</ele>
        <time>2017-09-22T15:00:42Z</time>
      </trkpt>
      <trkpt lat="41.266717" lon="-6.389679">
        <ele>624.019</ele>
        <time>2017-09-22T15:01:31Z</time>
      </trkpt>
      <trkpt lat="41.266717" lon="-6.389710">
        <ele>626.451</ele>
        <time>2017-09-22T15:02:15Z</time>
      </trkpt>
      <trkpt lat="41.266703" lon="-6.389705">
        <ele>624.920</ele>
        <time>2017-09-22T15:02:56Z</time>
      </trkpt>
      <trkpt lat="41.266704" lon="-6.389686">
        <ele>623.024</ele>
        <time>2017-09-22T15:03:26Z</time>
      </trkpt>
      <trkpt lat="41.266721" lon="-6.389697">
        <ele>623.050</ele>
        <time>2017-09-22T15:04:05Z</time>
      </trkpt>
      <trkpt lat="41.266712" lon="-6.389711">
        <ele>623.054</ele>
        <time>2017-09-22T15:04:35Z</time>
      </trkpt>
      <trkpt lat="41.266701" lon="-6.389687">
        <ele>623.565</ele>
        <time>2017-09-22T15:05:21Z</time>
      </trkpt>
      <trkpt lat="41.266723" lon="-6.389693">
        <ele>624.568</ele>
        <time>2017-09-22T15:05:57Z</time>
      </trkpt>
      <trkpt lat="41.266714" lon="-6.389675">
        <ele>624.914</ele>
        <time>2017-09-22T15:06:38Z</time>
      </trkpt>
      <trkpt lat="41.266685" lon="-6.389700">
        <ele>624.908</ele>
        <time>2017-09-22T15:07:15Z</time>
      </trkpt>
      <trkpt lat="41.266693" lon="-6.389703">
        <ele>625.468</ele>
        <time>2017-09-22T15:07:35Z</time>
      </trkpt>
      <trkpt lat="41.266681" lon="-6.389683">
        <ele>627.476</ele>
        <time>2017-09-22T15:08:08Z</time>
      </trkpt>
      <trkpt lat="41.266639" lon="-6.389713">
        <ele>627.877</ele>
        <time>2017-09-22T15:08:12Z</time>
      </trkpt>
      <trkpt lat="41.266580" lon="-6.389753">
        <ele>628.819</ele>
        <time>2017-09-22T15:08:17Z</time>
      </trkpt>
      <trkpt lat="41.266564" lon="-6.389768">
        <ele>627.848</ele>
        <time>2017-09-22T15:08:30Z</time>
      </trkpt>
      <trkpt lat="41.266544" lon="-6.389770">
        <ele>627.812</ele>
        <time>2017-09-22T15:08:32Z</time>
      </trkpt>
      <trkpt lat="41.266529" lon="-6.389777">
        <ele>628.318</ele>
        <time>2017-09-22T15:08:33Z</time>
      </trkpt>
      <trkpt lat="41.266517" lon="-6.389788">
        <ele>628.332</ele>
        <time>2017-09-22T15:08:34Z</time>
      </trkpt>
      <trkpt lat="41.266503" lon="-6.389801">
        <ele>628.329</ele>
        <time>2017-09-22T15:08:35Z</time>
      </trkpt>
      <trkpt lat="41.266490" lon="-6.389808">
        <ele>628.300</ele>
        <time>2017-09-22T15:08:36Z</time>
      </trkpt>
      <trkpt lat="41.266476" lon="-6.389812">
        <ele>628.320</ele>
        <time>2017-09-22T15:08:37Z</time>
      </trkpt>
      <trkpt lat="41.266460" lon="-6.389816">
        <ele>628.308</ele>
        <time>2017-09-22T15:08:38Z</time>
      </trkpt>
      <trkpt lat="41.266445" lon="-6.389821">
        <ele>628.844</ele>
        <time>2017-09-22T15:08:39Z</time>
      </trkpt>
      <trkpt lat="41.266215" lon="-6.389944">
        <ele>630.782</ele>
        <time>2017-09-22T15:08:56Z</time>
      </trkpt>
      <trkpt lat="41.266019" lon="-6.390065">
        <ele>632.283</ele>
        <time>2017-09-22T15:09:11Z</time>
      </trkpt>
      <trkpt lat="41.265844" lon="-6.390211">
        <ele>633.665</ele>
        <time>2017-09-22T15:09:26Z</time>
      </trkpt>
      <trkpt lat="41.265661" lon="-6.390371">
        <ele>635.524</ele>
        <time>2017-09-22T15:09:42Z</time>
      </trkpt>
      <trkpt lat="41.265459" lon="-6.390539">
        <ele>637.488</ele>
        <time>2017-09-22T15:09:59Z</time>
      </trkpt>
      <trkpt lat="41.265262" lon="-6.390697">
        <ele>638.454</ele>
        <time>2017-09-22T15:10:16Z</time>
      </trkpt>
      <trkpt lat="41.265136" lon="-6.390822">
        <ele>639.858</ele>
        <time>2017-09-22T15:10:27Z</time>
      </trkpt>
      <trkpt lat="41.264984" lon="-6.391067">
        <ele>641.822</ele>
        <time>2017-09-22T15:10:44Z</time>
      </trkpt>
      <trkpt lat="41.264867" lon="-6.391303">
        <ele>644.262</ele>
        <time>2017-09-22T15:10:59Z</time>
      </trkpt>
      <trkpt lat="41.264757" lon="-6.391544">
        <ele>645.108</ele>
        <time>2017-09-22T15:11:14Z</time>
      </trkpt>
      <trkpt lat="41.264753" lon="-6.391565">
        <ele>644.708</ele>
        <time>2017-09-22T15:11:15Z</time>
      </trkpt>
      <trkpt lat="41.264748" lon="-6.391586">
        <ele>645.114</ele>
        <time>2017-09-22T15:11:16Z</time>
      </trkpt>
      <trkpt lat="41.264740" lon="-6.391608">
        <ele>645.162</ele>
        <time>2017-09-22T15:11:17Z</time>
      </trkpt>
      <trkpt lat="41.264733" lon="-6.391630">
        <ele>645.183</ele>
        <time>2017-09-22T15:11:18Z</time>
      </trkpt>
      <trkpt lat="41.264730" lon="-6.391653">
        <ele>645.685</ele>
        <time>2017-09-22T15:11:19Z</time>
      </trkpt>
      <trkpt lat="41.264726" lon="-6.391678">
        <ele>645.624</ele>
        <time>2017-09-22T15:11:20Z</time>
      </trkpt>
      <trkpt lat="41.264716" lon="-6.391963">
        <ele>646.698</ele>
        <time>2017-09-22T15:11:33Z</time>
      </trkpt>
      <trkpt lat="41.264659" lon="-6.392277">
        <ele>648.094</ele>
        <time>2017-09-22T15:11:48Z</time>
      </trkpt>
      <trkpt lat="41.264583" lon="-6.392401">
        <ele>649.018</ele>
        <time>2017-09-22T15:11:55Z</time>
      </trkpt>
      <trkpt lat="41.264234" lon="-6.392442">
        <ele>649.983</ele>
        <time>2017-09-22T15:12:10Z</time>
      </trkpt>
      <trkpt lat="41.263879" lon="-6.392331">
        <ele>651.425</ele>
        <time>2017-09-22T15:12:24Z</time>
      </trkpt>
      <trkpt lat="41.263540" lon="-6.392422">
        <ele>654.317</ele>
        <time>2017-09-22T15:12:40Z</time>
      </trkpt>
      <trkpt lat="41.263271" lon="-6.392564">
        <ele>655.708</ele>
        <time>2017-09-22T15:12:55Z</time>
      </trkpt>
      <trkpt lat="41.262910" lon="-6.392738">
        <ele>658.190</ele>
        <time>2017-09-22T15:13:15Z</time>
      </trkpt>
      <trkpt lat="41.262579" lon="-6.392897">
        <ele>659.138</ele>
        <time>2017-09-22T15:13:31Z</time>
      </trkpt>
      <trkpt lat="41.262165" lon="-6.393098">
        <ele>660.019</ele>
        <time>2017-09-22T15:13:50Z</time>
      </trkpt>
      <trkpt lat="41.261756" lon="-6.393285">
        <ele>661.571</ele>
        <time>2017-09-22T15:14:08Z</time>
      </trkpt>
      <trkpt lat="41.261312" lon="-6.393507">
        <ele>662.960</ele>
        <time>2017-09-22T15:14:27Z</time>
      </trkpt>
      <trkpt lat="41.260897" lon="-6.393676">
        <ele>664.454</ele>
        <time>2017-09-22T15:14:43Z</time>
      </trkpt>
      <trkpt lat="41.260450" lon="-6.393779">
        <ele>665.840</ele>
        <time>2017-09-22T15:15:01Z</time>
      </trkpt>
      <trkpt lat="41.260170" lon="-6.393874">
        <ele>666.844</ele>
        <time>2017-09-22T15:15:15Z</time>
      </trkpt>
      <trkpt lat="41.260172" lon="-6.393899">
        <ele>666.865</ele>
        <time>2017-09-22T15:15:16Z</time>
      </trkpt>
      <trkpt lat="41.260183" lon="-6.393919">
        <ele>666.868</ele>
        <time>2017-09-22T15:15:17Z</time>
      </trkpt>
      <trkpt lat="41.260198" lon="-6.393933">
        <ele>666.814</ele>
        <time>2017-09-22T15:15:18Z</time>
      </trkpt>
      <trkpt lat="41.259898" lon="-6.393904">
        <ele>667.208</ele>
        <time>2017-09-22T15:23:25Z</time>
      </trkpt>
      <trkpt lat="41.259513" lon="-6.393993">
        <ele>667.768</ele>
        <time>2017-09-22T15:23:40Z</time>
      </trkpt>
      <trkpt lat="41.258985" lon="-6.394117">
        <ele>669.286</ele>
        <time>2017-09-22T15:24:01Z</time>
      </trkpt>
      <trkpt lat="41.258478" lon="-6.394232">
        <ele>671.127</ele>
        <time>2017-09-22T15:24:21Z</time>
      </trkpt>
      <trkpt lat="41.258060" lon="-6.394303">
        <ele>673.549</ele>
        <time>2017-09-22T15:24:39Z</time>
      </trkpt>
      <trkpt lat="41.257718" lon="-6.394328">
        <ele>676.498</ele>
        <time>2017-09-22T15:24:56Z</time>
      </trkpt>
      <trkpt lat="41.257376" lon="-6.394313">
        <ele>677.842</ele>
        <time>2017-09-22T15:25:13Z</time>
      </trkpt>
      <trkpt lat="41.257122" lon="-6.394296">
        <ele>679.328</ele>
        <time>2017-09-22T15:25:26Z</time>
      </trkpt>
      <trkpt lat="41.256801" lon="-6.394279">
        <ele>681.232</ele>
        <time>2017-09-22T15:25:42Z</time>
      </trkpt>
      <trkpt lat="41.256481" lon="-6.394243">
        <ele>684.172</ele>
        <time>2017-09-22T15:25:59Z</time>
      </trkpt>
      <trkpt lat="41.256233" lon="-6.394175">
        <ele>685.513</ele>
        <time>2017-09-22T15:26:12Z</time>
      </trkpt>
      <trkpt lat="41.256010" lon="-6.394029">
        <ele>686.514</ele>
        <time>2017-09-22T15:26:25Z</time>
      </trkpt>
      <trkpt lat="41.255738" lon="-6.393854">
        <ele>688.408</ele>
        <time>2017-09-22T15:26:41Z</time>
      </trkpt>
      <trkpt lat="41.255590" lon="-6.393731">
        <ele>689.499</ele>
        <time>2017-09-22T15:26:51Z</time>
      </trkpt>
      <trkpt lat="41.255576" lon="-6.393721">
        <ele>689.817</ele>
        <time>2017-09-22T15:26:52Z</time>
      </trkpt>
      <trkpt lat="41.255563" lon="-6.393714">
        <ele>689.818</ele>
        <time>2017-09-22T15:26:53Z</time>
      </trkpt>
      <trkpt lat="41.255354" lon="-6.393489">
        <ele>691.330</ele>
        <time>2017-09-22T15:27:10Z</time>
      </trkpt>
      <trkpt lat="41.255294" lon="-6.393356">
        <ele>691.369</ele>
        <time>2017-09-22T15:27:17Z</time>
      </trkpt>
      <trkpt lat="41.255283" lon="-6.393341">
        <ele>691.373</ele>
        <time>2017-09-22T15:27:18Z</time>
      </trkpt>
      <trkpt lat="41.255125" lon="-6.393067">
        <ele>693.769</ele>
        <time>2017-09-22T15:27:33Z</time>
      </trkpt>
      <trkpt lat="41.254945" lon="-6.392747">
        <ele>694.683</ele>
        <time>2017-09-22T15:27:50Z</time>
      </trkpt>
      <trkpt lat="41.254780" lon="-6.392451">
        <ele>696.121</ele>
        <time>2017-09-22T15:28:05Z</time>
      </trkpt>
      <trkpt lat="41.254600" lon="-6.392140">
        <ele>699.041</ele>
        <time>2017-09-22T15:28:21Z</time>
      </trkpt>
      <trkpt lat="41.254410" lon="-6.391794">
        <ele>701.905</ele>
        <time>2017-09-22T15:28:37Z</time>
      </trkpt>
      <trkpt lat="41.254196" lon="-6.391463">
        <ele>702.808</ele>
        <time>2017-09-22T15:28:54Z</time>
      </trkpt>
      <trkpt lat="41.253966" lon="-6.391352">
        <ele>704.354</ele>
        <time>2017-09-22T15:29:08Z</time>
      </trkpt>
      <trkpt lat="41.253681" lon="-6.391467">
        <ele>705.272</ele>
        <time>2017-09-22T15:29:25Z</time>
      </trkpt>
      <trkpt lat="41.253432" lon="-6.391583">
        <ele>706.773</ele>
        <time>2017-09-22T15:29:40Z</time>
      </trkpt>
      <trkpt lat="41.253191" lon="-6.391760">
        <ele>708.165</ele>
        <time>2017-09-22T15:29:56Z</time>
      </trkpt>
      <trkpt lat="41.253010" lon="-6.391996">
        <ele>709.174</ele>
        <time>2017-09-22T15:30:11Z</time>
      </trkpt>
      <trkpt lat="41.252820" lon="-6.392275">
        <ele>711.078</ele>
        <time>2017-09-22T15:30:25Z</time>
      </trkpt>
      <trkpt lat="41.252638" lon="-6.392552">
        <ele>712.944</ele>
        <time>2017-09-22T15:30:41Z</time>
      </trkpt>
      <trkpt lat="41.252429" lon="-6.392870">
        <ele>715.348</ele>
        <time>2017-09-22T15:30:59Z</time>
      </trkpt>
      <trkpt lat="41.252242" lon="-6.393127">
        <ele>716.842</ele>
        <time>2017-09-22T15:31:14Z</time>
      </trkpt>
      <trkpt lat="41.252185" lon="-6.393179">
        <ele>716.822</ele>
        <time>2017-09-22T15:31:18Z</time>
      </trkpt>
      <trkpt lat="41.251991" lon="-6.393294">
        <ele>717.714</ele>
        <time>2017-09-22T15:31:30Z</time>
      </trkpt>
      <trkpt lat="41.251763" lon="-6.393286">
        <ele>719.208</ele>
        <time>2017-09-22T15:31:43Z</time>
      </trkpt>
      <trkpt lat="41.251358" lon="-6.393226">
        <ele>718.756</ele>
        <time>2017-09-22T15:32:00Z</time>
      </trkpt>
      <trkpt lat="41.250806" lon="-6.393142">
        <ele>719.684</ele>
        <time>2017-09-22T15:32:20Z</time>
      </trkpt>
      <trkpt lat="41.250397" lon="-6.393077">
        <ele>721.665</ele>
        <time>2017-09-22T15:32:35Z</time>
      </trkpt>
      <trkpt lat="41.250159" lon="-6.393039">
        <ele>723.597</ele>
        <time>2017-09-22T15:32:48Z</time>
      </trkpt>
      <trkpt lat="41.249873" lon="-6.393000">
        <ele>725.476</ele>
        <time>2017-09-22T15:33:06Z</time>
      </trkpt>
      <trkpt lat="41.249630" lon="-6.392969">
        <ele>727.330</ele>
        <time>2017-09-22T15:33:22Z</time>
      </trkpt>
      <trkpt lat="41.249374" lon="-6.392919">
        <ele>728.816</ele>
        <time>2017-09-22T15:33:38Z</time>
      </trkpt>
      <trkpt lat="41.249079" lon="-6.392824">
        <ele>730.280</ele>
        <time>2017-09-22T15:33:55Z</time>
      </trkpt>
      <trkpt lat="41.248879" lon="-6.392632">
        <ele>731.733</ele>
        <time>2017-09-22T15:34:10Z</time>
      </trkpt>
      <trkpt lat="41.248732" lon="-6.392406">
        <ele>731.723</ele>
        <time>2017-09-22T15:34:23Z</time>
      </trkpt>
      <trkpt lat="41.248537" lon="-6.392028">
        <ele>732.615</ele>
        <time>2017-09-22T15:34:38Z</time>
      </trkpt>
      <trkpt lat="41.248348" lon="-6.391680">
        <ele>734.108</ele>
        <time>2017-09-22T15:34:55Z</time>
      </trkpt>
      <trkpt lat="41.248245" lon="-6.391498">
        <ele>735.055</ele>
        <time>2017-09-22T15:35:06Z</time>
      </trkpt>
      <trkpt lat="41.248240" lon="-6.391481">
        <ele>735.523</ele>
        <time>2017-09-22T15:35:07Z</time>
      </trkpt>
      <trkpt lat="41.248230" lon="-6.391469">
        <ele>735.564</ele>
        <time>2017-09-22T15:35:08Z</time>
      </trkpt>
      <trkpt lat="41.248018" lon="-6.391252">
        <ele>736.926</ele>
        <time>2017-09-22T15:35:22Z</time>
      </trkpt>
      <trkpt lat="41.247759" lon="-6.391074">
        <ele>737.455</ele>
        <time>2017-09-22T15:35:35Z</time>
      </trkpt>
      <trkpt lat="41.247306" lon="-6.390787">
        <ele>735.539</ele>
        <time>2017-09-22T15:35:50Z</time>
      </trkpt>
      <trkpt lat="41.246601" lon="-6.390345">
        <ele>730.235</ele>
        <time>2017-09-22T15:36:02Z</time>
      </trkpt>
      <trkpt lat="41.245835" lon="-6.389851">
        <ele>730.799</ele>
        <time>2017-09-22T15:36:16Z</time>
      </trkpt>
      <trkpt lat="41.245192" lon="-6.389457">
        <ele>732.112</ele>
        <time>2017-09-22T15:36:33Z</time>
      </trkpt>
      <trkpt lat="41.244656" lon="-6.389108">
        <ele>735.032</ele>
        <time>2017-09-22T15:36:49Z</time>
      </trkpt>
      <trkpt lat="41.244203" lon="-6.388823">
        <ele>736.005</ele>
        <time>2017-09-22T15:37:06Z</time>
      </trkpt>
      <trkpt lat="41.243824" lon="-6.388567">
        <ele>737.408</ele>
        <time>2017-09-22T15:37:23Z</time>
      </trkpt>
      <trkpt lat="41.243378" lon="-6.388286">
        <ele>740.373</ele>
        <time>2017-09-22T15:37:44Z</time>
      </trkpt>
      <trkpt lat="41.243073" lon="-6.388083">
        <ele>742.271</ele>
        <time>2017-09-22T15:37:59Z</time>
      </trkpt>
      <trkpt lat="41.242761" lon="-6.387892">
        <ele>743.262</ele>
        <time>2017-09-22T15:38:15Z</time>
      </trkpt>
      <trkpt lat="41.242400" lon="-6.387656">
        <ele>744.254</ele>
        <time>2017-09-22T15:38:32Z</time>
      </trkpt>
      <trkpt lat="41.242118" lon="-6.387476">
        <ele>745.693</ele>
        <time>2017-09-22T15:38:46Z</time>
      </trkpt>
      <trkpt lat="41.241900" lon="-6.387352">
        <ele>746.617</ele>
        <time>2017-09-22T15:38:57Z</time>
      </trkpt>
      <trkpt lat="41.241882" lon="-6.387352">
        <ele>746.643</ele>
        <time>2017-09-22T15:38:58Z</time>
      </trkpt>
      <trkpt lat="41.241864" lon="-6.387349">
        <ele>746.637</ele>
        <time>2017-09-22T15:38:59Z</time>
      </trkpt>
      <trkpt lat="41.241851" lon="-6.387341">
        <ele>746.639</ele>
        <time>2017-09-22T15:39:00Z</time>
      </trkpt>
      <trkpt lat="41.241840" lon="-6.387331">
        <ele>746.601</ele>
        <time>2017-09-22T15:39:11Z</time>
      </trkpt>
      <trkpt lat="41.241850" lon="-6.387336">
        <ele>746.121</ele>
        <time>2017-09-22T15:39:40Z</time>
      </trkpt>
      <trkpt lat="41.241838" lon="-6.387333">
        <ele>746.108</ele>
        <time>2017-09-22T15:39:55Z</time>
      </trkpt>
      <trkpt lat="41.241828" lon="-6.387341">
        <ele>745.695</ele>
        <time>2017-09-22T15:40:20Z</time>
      </trkpt>
      <trkpt lat="41.241833" lon="-6.387336">
        <ele>744.653</ele>
        <time>2017-09-22T15:40:47Z</time>
      </trkpt>
      <trkpt lat="41.241834" lon="-6.387326">
        <ele>746.114</ele>
        <time>2017-09-22T15:41:26Z</time>
      </trkpt>
      <trkpt lat="41.241845" lon="-6.387326">
        <ele>745.166</ele>
        <time>2017-09-22T15:42:09Z</time>
      </trkpt>
      <trkpt lat="41.241830" lon="-6.387311">
        <ele>746.675</ele>
        <time>2017-09-22T15:42:33Z</time>
      </trkpt>
      <trkpt lat="41.241614" lon="-6.387157">
        <ele>747.019</ele>
        <time>2017-09-22T15:42:44Z</time>
      </trkpt>
      <trkpt lat="41.241222" lon="-6.386916">
        <ele>749.065</ele>
        <time>2017-09-22T15:43:01Z</time>
      </trkpt>
      <trkpt lat="41.240860" lon="-6.386683">
        <ele>750.929</ele>
        <time>2017-09-22T15:43:19Z</time>
      </trkpt>
      <trkpt lat="41.240573" lon="-6.386473">
        <ele>751.896</ele>
        <time>2017-09-22T15:43:34Z</time>
      </trkpt>
      <trkpt lat="41.240248" lon="-6.386196">
        <ele>750.431</ele>
        <time>2017-09-22T15:43:49Z</time>
      </trkpt>
      <trkpt lat="41.239780" lon="-6.385604">
        <ele>746.624</ele>
        <time>2017-09-22T15:44:02Z</time>
      </trkpt>
      <trkpt lat="41.239018" lon="-6.384451">
        <ele>740.808</ele>
        <time>2017-09-22T15:44:19Z</time>
      </trkpt>
      <trkpt lat="41.238454" lon="-6.383604">
        <ele>739.841</ele>
        <time>2017-09-22T15:44:35Z</time>
      </trkpt>
      <trkpt lat="41.238225" lon="-6.383280">
        <ele>739.869</ele>
        <time>2017-09-22T15:44:42Z</time>
      </trkpt>
      <trkpt lat="41.238165" lon="-6.383205">
        <ele>739.350</ele>
        <time>2017-09-22T15:44:44Z</time>
      </trkpt>
      <trkpt lat="41.237933" lon="-6.383028">
        <ele>739.852</ele>
        <time>2017-09-22T15:44:49Z</time>
      </trkpt>
      <trkpt lat="41.237885" lon="-6.383014">
        <ele>740.321</ele>
        <time>2017-09-22T15:44:50Z</time>
      </trkpt>
      <trkpt lat="41.237846" lon="-6.383006">
        <ele>740.365</ele>
        <time>2017-09-22T15:44:51Z</time>
      </trkpt>
      <trkpt lat="41.237799" lon="-6.383001">
        <ele>740.881</ele>
        <time>2017-09-22T15:44:52Z</time>
      </trkpt>
      <trkpt lat="41.237256" lon="-6.383016">
        <ele>742.775</ele>
        <time>2017-09-22T15:45:08Z</time>
      </trkpt>
      <trkpt lat="41.236725" lon="-6.383022">
        <ele>744.235</ele>
        <time>2017-09-22T15:45:27Z</time>
      </trkpt>
      <trkpt lat="41.236284" lon="-6.383030">
        <ele>747.086</ele>
        <time>2017-09-22T15:45:45Z</time>
      </trkpt>
      <trkpt lat="41.236216" lon="-6.383023">
        <ele>747.514</ele>
        <time>2017-09-22T15:45:48Z</time>
      </trkpt>
      <trkpt lat="41.236197" lon="-6.383004">
        <ele>747.508</ele>
        <time>2017-09-22T15:45:49Z</time>
      </trkpt>
      <trkpt lat="41.236183" lon="-6.382985">
        <ele>747.515</ele>
        <time>2017-09-22T15:45:50Z</time>
      </trkpt>
      <trkpt lat="41.236170" lon="-6.382965">
        <ele>747.553</ele>
        <time>2017-09-22T15:45:51Z</time>
      </trkpt>
      <trkpt lat="41.235555" lon="-6.383220">
        <ele>749.454</ele>
        <time>2017-09-22T16:01:06Z</time>
      </trkpt>
      <trkpt lat="41.235640" lon="-6.384043">
        <ele>747.596</ele>
        <time>2017-09-22T16:01:22Z</time>
      </trkpt>
      <trkpt lat="41.235669" lon="-6.384386">
        <ele>747.035</ele>
        <time>2017-09-22T16:01:28Z</time>
      </trkpt>
      <trkpt lat="41.235670" lon="-6.384437">
        <ele>747.059</ele>
        <time>2017-09-22T16:01:29Z</time>
      </trkpt>
      <trkpt lat="41.235667" lon="-6.384499">
        <ele>747.045</ele>
        <time>2017-09-22T16:01:30Z</time>
      </trkpt>
      <trkpt lat="41.235663" lon="-6.385081">
        <ele>745.689</ele>
        <time>2017-09-22T16:01:40Z</time>
      </trkpt>
      <trkpt lat="41.235657" lon="-6.385144">
        <ele>745.119</ele>
        <time>2017-09-22T16:01:41Z</time>
      </trkpt>
      <trkpt lat="41.235629" lon="-6.385338">
        <ele>744.609</ele>
        <time>2017-09-22T16:01:44Z</time>
      </trkpt>
      <trkpt lat="41.235539" lon="-6.386421">
        <ele>740.319</ele>
        <time>2017-09-22T16:01:58Z</time>
      </trkpt>
      <trkpt lat="41.235532" lon="-6.386771">
        <ele>739.308</ele>
        <time>2017-09-22T16:02:02Z</time>
      </trkpt>
      <trkpt lat="41.235621" lon="-6.387427">
        <ele>737.433</ele>
        <time>2017-09-22T16:02:09Z</time>
      </trkpt>
      <trkpt lat="41.235649" lon="-6.387517">
        <ele>737.421</ele>
        <time>2017-09-22T16:02:10Z</time>
      </trkpt>
      <trkpt lat="41.235828" lon="-6.387971">
        <ele>736.022</ele>
        <time>2017-09-22T16:02:15Z</time>
      </trkpt>
      <trkpt lat="41.235877" lon="-6.388055">
        <ele>735.584</ele>
        <time>2017-09-22T16:02:16Z</time>
      </trkpt>
      <trkpt lat="41.236282" lon="-6.388728">
        <ele>734.593</ele>
        <time>2017-09-22T16:02:24Z</time>
      </trkpt>
      <trkpt lat="41.236315" lon="-6.388818">
        <ele>734.557</ele>
        <time>2017-09-22T16:02:25Z</time>
      </trkpt>
      <trkpt lat="41.236650" lon="-6.390020">
        <ele>733.183</ele>
        <time>2017-09-22T16:02:39Z</time>
      </trkpt>
      <trkpt lat="41.237281" lon="-6.391499">
        <ele>730.287</ele>
        <time>2017-09-22T16:02:58Z</time>
      </trkpt>
      <trkpt lat="41.238082" lon="-6.392574">
        <ele>726.825</ele>
        <time>2017-09-22T16:03:14Z</time>
      </trkpt>
      <trkpt lat="41.239020" lon="-6.393822">
        <ele>726.426</ele>
        <time>2017-09-22T16:03:33Z</time>
      </trkpt>
      <trkpt lat="41.239798" lon="-6.395190">
        <ele>728.308</ele>
        <time>2017-09-22T16:03:54Z</time>
      </trkpt>
      <trkpt lat="41.240480" lon="-6.396147">
        <ele>726.408</ele>
        <time>2017-09-22T16:04:12Z</time>
      </trkpt>
      <trkpt lat="41.241282" lon="-6.397107">
        <ele>723.044</ele>
        <time>2017-09-22T16:04:28Z</time>
      </trkpt>
      <trkpt lat="41.241937" lon="-6.398156">
        <ele>723.052</ele>
        <time>2017-09-22T16:04:43Z</time>
      </trkpt>
      <trkpt lat="41.242497" lon="-6.399297">
        <ele>723.563</ele>
        <time>2017-09-22T16:05:01Z</time>
      </trkpt>
      <trkpt lat="41.243064" lon="-6.400444">
        <ele>722.055</ele>
        <time>2017-09-22T16:05:17Z</time>
      </trkpt>
      <trkpt lat="41.243875" lon="-6.401596">
        <ele>721.684</ele>
        <time>2017-09-22T16:05:37Z</time>
      </trkpt>
      <trkpt lat="41.244718" lon="-6.402496">
        <ele>717.238</ele>
        <time>2017-09-22T16:05:54Z</time>
      </trkpt>
      <trkpt lat="41.245641" lon="-6.403635">
        <ele>712.944</ele>
        <time>2017-09-22T16:06:12Z</time>
      </trkpt>
      <trkpt lat="41.246175" lon="-6.404732">
        <ele>710.018</ele>
        <time>2017-09-22T16:06:26Z</time>
      </trkpt>
      <trkpt lat="41.247047" lon="-6.405406">
        <ele>708.174</ele>
        <time>2017-09-22T16:06:41Z</time>
      </trkpt>
      <trkpt lat="41.247771" lon="-6.405933">
        <ele>708.156</ele>
        <time>2017-09-22T16:06:54Z</time>
      </trkpt>
      <trkpt lat="41.248724" lon="-6.406587">
        <ele>708.621</ele>
        <time>2017-09-22T16:07:12Z</time>
      </trkpt>
      <trkpt lat="41.249577" lon="-6.407089">
        <ele>710.508</ele>
        <time>2017-09-22T16:07:29Z</time>
      </trkpt>
      <trkpt lat="41.249709" lon="-6.407222">
        <ele>710.549</ele>
        <time>2017-09-22T16:07:32Z</time>
      </trkpt>
      <trkpt lat="41.250248" lon="-6.408076">
        <ele>712.417</ele>
        <time>2017-09-22T16:07:49Z</time>
      </trkpt>
      <trkpt lat="41.250629" lon="-6.408712">
        <ele>713.938</ele>
        <time>2017-09-22T16:08:06Z</time>
      </trkpt>
      <trkpt lat="41.251066" lon="-6.409301">
        <ele>712.410</ele>
        <time>2017-09-22T16:08:23Z</time>
      </trkpt>
      <trkpt lat="41.251762" lon="-6.409922">
        <ele>709.559</ele>
        <time>2017-09-22T16:08:38Z</time>
      </trkpt>
      <trkpt lat="41.252542" lon="-6.410610">
        <ele>709.193</ele>
        <time>2017-09-22T16:08:54Z</time>
      </trkpt>
      <trkpt lat="41.253425" lon="-6.411615">
        <ele>709.549</ele>
        <time>2017-09-22T16:09:13Z</time>
      </trkpt>
      <trkpt lat="41.253896" lon="-6.412379">
        <ele>712.453</ele>
        <time>2017-09-22T16:09:29Z</time>
      </trkpt>
      <trkpt lat="41.254427" lon="-6.413321">
        <ele>709.592</ele>
        <time>2017-09-22T16:09:46Z</time>
      </trkpt>
      <trkpt lat="41.254966" lon="-6.414162">
        <ele>710.573</ele>
        <time>2017-09-22T16:10:02Z</time>
      </trkpt>
      <trkpt lat="41.255398" lon="-6.415155">
        <ele>708.120</ele>
        <time>2017-09-22T16:10:20Z</time>
      </trkpt>
      <trkpt lat="41.255936" lon="-6.416237">
        <ele>705.708</ele>
        <time>2017-09-22T16:10:36Z</time>
      </trkpt>
      <trkpt lat="41.256700" lon="-6.417324">
        <ele>705.241</ele>
        <time>2017-09-22T16:10:55Z</time>
      </trkpt>
      <trkpt lat="41.257225" lon="-6.418144">
        <ele>704.369</ele>
        <time>2017-09-22T16:11:09Z</time>
      </trkpt>
      <trkpt lat="41.257248" lon="-6.418215">
        <ele>704.330</ele>
        <time>2017-09-22T16:11:10Z</time>
      </trkpt>
      <trkpt lat="41.257265" lon="-6.418283">
        <ele>704.312</ele>
        <time>2017-09-22T16:11:11Z</time>
      </trkpt>
      <trkpt lat="41.257278" lon="-6.418351">
        <ele>704.341</ele>
        <time>2017-09-22T16:11:12Z</time>
      </trkpt>
      <trkpt lat="41.257286" lon="-6.418425">
        <ele>704.345</ele>
        <time>2017-09-22T16:11:13Z</time>
      </trkpt>
      <trkpt lat="41.257294" lon="-6.418494">
        <ele>704.321</ele>
        <time>2017-09-22T16:11:14Z</time>
      </trkpt>
      <trkpt lat="41.257301" lon="-6.418633">
        <ele>704.325</ele>
        <time>2017-09-22T16:11:16Z</time>
      </trkpt>
      <trkpt lat="41.257296" lon="-6.418705">
        <ele>704.369</ele>
        <time>2017-09-22T16:11:17Z</time>
      </trkpt>
      <trkpt lat="41.257036" lon="-6.419656">
        <ele>701.404</ele>
        <time>2017-09-22T16:11:30Z</time>
      </trkpt>
      <trkpt lat="41.256984" lon="-6.419832">
        <ele>700.924</ele>
        <time>2017-09-22T16:11:32Z</time>
      </trkpt>
      <trkpt lat="41.256909" lon="-6.420255">
        <ele>700.908</ele>
        <time>2017-09-22T16:11:37Z</time>
      </trkpt>
      <trkpt lat="41.256907" lon="-6.420322">
        <ele>700.968</ele>
        <time>2017-09-22T16:11:38Z</time>
      </trkpt>
      <trkpt lat="41.257053" lon="-6.421123">
        <ele>704.386</ele>
        <time>2017-09-22T16:11:52Z</time>
      </trkpt>
      <trkpt lat="41.257305" lon="-6.421800">
        <ele>707.697</ele>
        <time>2017-09-22T16:12:09Z</time>
      </trkpt>
      <trkpt lat="41.257486" lon="-6.422282">
        <ele>710.069</ele>
        <time>2017-09-22T16:12:27Z</time>
      </trkpt>
      <trkpt lat="41.257644" lon="-6.422670">
        <ele>711.928</ele>
        <time>2017-09-22T16:12:44Z</time>
      </trkpt>
      <trkpt lat="41.257909" lon="-6.423051">
        <ele>714.422</ele>
        <time>2017-09-22T16:13:03Z</time>
      </trkpt>
      <trkpt lat="41.258178" lon="-6.423294">
        <ele>716.368</ele>
        <time>2017-09-22T16:13:18Z</time>
      </trkpt>
      <trkpt lat="41.258569" lon="-6.423682">
        <ele>717.292</ele>
        <time>2017-09-22T16:13:38Z</time>
      </trkpt>
      <trkpt lat="41.258953" lon="-6.424193">
        <ele>717.759</ele>
        <time>2017-09-22T16:13:55Z</time>
      </trkpt>
      <trkpt lat="41.259256" lon="-6.424640">
        <ele>717.703</ele>
        <time>2017-09-22T16:14:06Z</time>
      </trkpt>
      <trkpt lat="41.259288" lon="-6.424678">
        <ele>718.223</ele>
        <time>2017-09-22T16:14:07Z</time>
      </trkpt>
      <trkpt lat="41.259827" lon="-6.425099">
        <ele>717.708</ele>
        <time>2017-09-22T16:14:21Z</time>
      </trkpt>
      <trkpt lat="41.260388" lon="-6.425351">
        <ele>716.827</ele>
        <time>2017-09-22T16:14:34Z</time>
      </trkpt>
      <trkpt lat="41.261161" lon="-6.425653">
        <ele>717.775</ele>
        <time>2017-09-22T16:14:51Z</time>
      </trkpt>
      <trkpt lat="41.261721" lon="-6.425762">
        <ele>721.636</ele>
        <time>2017-09-22T16:15:08Z</time>
      </trkpt>
      <trkpt lat="41.262152" lon="-6.425860">
        <ele>723.068</ele>
        <time>2017-09-22T16:15:26Z</time>
      </trkpt>
      <trkpt lat="41.262589" lon="-6.426110">
        <ele>724.067</ele>
        <time>2017-09-22T16:15:44Z</time>
      </trkpt>
      <trkpt lat="41.263005" lon="-6.426476">
        <ele>721.191</ele>
        <time>2017-09-22T16:15:56Z</time>
      </trkpt>
      <trkpt lat="41.263131" lon="-6.426661">
        <ele>719.617</ele>
        <time>2017-09-22T16:15:59Z</time>
      </trkpt>
      <trkpt lat="41.263171" lon="-6.426746">
        <ele>719.231</ele>
        <time>2017-09-22T16:16:00Z</time>
      </trkpt>
      <trkpt lat="41.263201" lon="-6.426838">
        <ele>718.244</ele>
        <time>2017-09-22T16:16:01Z</time>
      </trkpt>
      <trkpt lat="41.263221" lon="-6.426942">
        <ele>717.705</ele>
        <time>2017-09-22T16:16:02Z</time>
      </trkpt>
      <trkpt lat="41.263231" lon="-6.427047">
        <ele>717.215</ele>
        <time>2017-09-22T16:16:03Z</time>
      </trkpt>
      <trkpt lat="41.263231" lon="-6.427161">
        <ele>716.808</ele>
        <time>2017-09-22T16:16:04Z</time>
      </trkpt>
      <trkpt lat="41.263221" lon="-6.427272">
        <ele>716.316</ele>
        <time>2017-09-22T16:16:05Z</time>
      </trkpt>
      <trkpt lat="41.263193" lon="-6.427410">
        <ele>715.394</ele>
        <time>2017-09-22T16:16:06Z</time>
      </trkpt>
      <trkpt lat="41.263167" lon="-6.427496">
        <ele>714.815</ele>
        <time>2017-09-22T16:16:07Z</time>
      </trkpt>
      <trkpt lat="41.263124" lon="-6.427615">
        <ele>714.427</ele>
        <time>2017-09-22T16:16:08Z</time>
      </trkpt>
      <trkpt lat="41.262538" lon="-6.428901">
        <ele>707.676</ele>
        <time>2017-09-22T16:16:20Z</time>
      </trkpt>
      <trkpt lat="41.262198" lon="-6.430327">
        <ele>700.990</ele>
        <time>2017-09-22T16:16:31Z</time>
      </trkpt>
      <trkpt lat="41.262037" lon="-6.432550">
        <ele>687.416</ele>
        <time>2017-09-22T16:16:46Z</time>
      </trkpt>
      <trkpt lat="41.262211" lon="-6.433337">
        <ele>680.720</ele>
        <time>2017-09-22T16:16:51Z</time>
      </trkpt>
      <trkpt lat="41.262993" lon="-6.434692">
        <ele>671.663</ele>
        <time>2017-09-22T16:17:01Z</time>
      </trkpt>
      <trkpt lat="41.263470" lon="-6.435782">
        <ele>672.144</ele>
        <time>2017-09-22T16:17:10Z</time>
      </trkpt>
      <trkpt lat="41.263603" lon="-6.436512">
        <ele>674.518</ele>
        <time>2017-09-22T16:17:20Z</time>
      </trkpt>
      <trkpt lat="41.263635" lon="-6.437423">
        <ele>677.808</ele>
        <time>2017-09-22T16:17:38Z</time>
      </trkpt>
      <trkpt lat="41.263626" lon="-6.438224">
        <ele>680.228</ele>
        <time>2017-09-22T16:17:56Z</time>
      </trkpt>
      <trkpt lat="41.263621" lon="-6.438817">
        <ele>682.126</ele>
        <time>2017-09-22T16:18:14Z</time>
      </trkpt>
      <trkpt lat="41.263613" lon="-6.439426">
        <ele>683.667</ele>
        <time>2017-09-22T16:18:34Z</time>
      </trkpt>
      <trkpt lat="41.263603" lon="-6.440031">
        <ele>685.019</ele>
        <time>2017-09-22T16:18:54Z</time>
      </trkpt>
      <trkpt lat="41.263679" lon="-6.440575">
        <ele>687.448</ele>
        <time>2017-09-22T16:19:12Z</time>
      </trkpt>
      <trkpt lat="41.263802" lon="-6.440982">
        <ele>689.472</ele>
        <time>2017-09-22T16:19:27Z</time>
      </trkpt>
      <trkpt lat="41.264035" lon="-6.441546">
        <ele>690.898</ele>
        <time>2017-09-22T16:19:45Z</time>
      </trkpt>
      <trkpt lat="41.264227" lon="-6.442153">
        <ele>689.852</ele>
        <time>2017-09-22T16:19:59Z</time>
      </trkpt>
      <trkpt lat="41.264248" lon="-6.442269">
        <ele>689.451</ele>
        <time>2017-09-22T16:20:01Z</time>
      </trkpt>
      <trkpt lat="41.264259" lon="-6.442330">
        <ele>689.401</ele>
        <time>2017-09-22T16:20:02Z</time>
      </trkpt>
      <trkpt lat="41.264268" lon="-6.442395">
        <ele>688.911</ele>
        <time>2017-09-22T16:20:03Z</time>
      </trkpt>
      <trkpt lat="41.264339" lon="-6.443448">
        <ele>683.108</ele>
        <time>2017-09-22T16:20:14Z</time>
      </trkpt>
      <trkpt lat="41.264352" lon="-6.445094">
        <ele>674.937</ele>
        <time>2017-09-22T16:20:26Z</time>
      </trkpt>
      <trkpt lat="41.264007" lon="-6.447052">
        <ele>667.265</ele>
        <time>2017-09-22T16:20:40Z</time>
      </trkpt>
      <trkpt lat="41.264010" lon="-6.448951">
        <ele>661.096</ele>
        <time>2017-09-22T16:20:54Z</time>
      </trkpt>
      <trkpt lat="41.264103" lon="-6.450499">
        <ele>652.348</ele>
        <time>2017-09-22T16:21:06Z</time>
      </trkpt>
      <trkpt lat="41.264142" lon="-6.450616">
        <ele>651.977</ele>
        <time>2017-09-22T16:21:07Z</time>
      </trkpt>
      <trkpt lat="41.264200" lon="-6.450730">
        <ele>651.471</ele>
        <time>2017-09-22T16:21:08Z</time>
      </trkpt>
      <trkpt lat="41.264269" lon="-6.450824">
        <ele>650.967</ele>
        <time>2017-09-22T16:21:09Z</time>
      </trkpt>
      <trkpt lat="41.264352" lon="-6.450904">
        <ele>650.491</ele>
        <time>2017-09-22T16:21:10Z</time>
      </trkpt>
      <trkpt lat="41.264439" lon="-6.450963">
        <ele>650.422</ele>
        <time>2017-09-22T16:21:11Z</time>
      </trkpt>
      <trkpt lat="41.264529" lon="-6.451006">
        <ele>650.462</ele>
        <time>2017-09-22T16:21:12Z</time>
      </trkpt>
      <trkpt lat="41.264626" lon="-6.451031">
        <ele>650.908</ele>
        <time>2017-09-22T16:21:13Z</time>
      </trkpt>
      <trkpt lat="41.264714" lon="-6.451045">
        <ele>650.908</ele>
        <time>2017-09-22T16:21:14Z</time>
      </trkpt>
      <trkpt lat="41.264802" lon="-6.451056">
        <ele>650.964</ele>
        <time>2017-09-22T16:21:15Z</time>
      </trkpt>
      <trkpt lat="41.265465" lon="-6.451193">
        <ele>653.842</ele>
        <time>2017-09-22T16:21:25Z</time>
      </trkpt>
      <trkpt lat="41.265612" lon="-6.451278">
        <ele>654.873</ele>
        <time>2017-09-22T16:21:28Z</time>
      </trkpt>
      <trkpt lat="41.265656" lon="-6.451312">
        <ele>654.845</ele>
        <time>2017-09-22T16:21:29Z</time>
      </trkpt>
      <trkpt lat="41.265699" lon="-6.451353">
        <ele>655.254</ele>
        <time>2017-09-22T16:21:30Z</time>
      </trkpt>
      <trkpt lat="41.266131" lon="-6.452047">
        <ele>658.138</ele>
        <time>2017-09-22T16:21:45Z</time>
      </trkpt>
      <trkpt lat="41.266408" lon="-6.452832">
        <ele>659.184</ele>
        <time>2017-09-22T16:22:03Z</time>
      </trkpt>
      <trkpt lat="41.266685" lon="-6.453637">
        <ele>658.688</ele>
        <time>2017-09-22T16:22:20Z</time>
      </trkpt>
      <trkpt lat="41.266704" lon="-6.453686">
        <ele>658.633</ele>
        <time>2017-09-22T16:22:21Z</time>
      </trkpt>
      <trkpt lat="41.267049" lon="-6.454758">
        <ele>656.723</ele>
        <time>2017-09-22T16:22:40Z</time>
      </trkpt>
      <trkpt lat="41.267406" lon="-6.456044">
        <ele>654.315</ele>
        <time>2017-09-22T16:22:55Z</time>
      </trkpt>
      <trkpt lat="41.267649" lon="-6.456939">
        <ele>656.708</ele>
        <time>2017-09-22T16:23:08Z</time>
      </trkpt>
      <trkpt lat="41.267704" lon="-6.457139">
        <ele>657.265</ele>
        <time>2017-09-22T16:23:12Z</time>
      </trkpt>
      <trkpt lat="41.267983" lon="-6.458100">
        <ele>656.793</ele>
        <time>2017-09-22T16:23:30Z</time>
      </trkpt>
      <trkpt lat="41.268270" lon="-6.459296">
        <ele>651.954</ele>
        <time>2017-09-22T16:23:46Z</time>
      </trkpt>
      <trkpt lat="41.268484" lon="-6.460740">
        <ele>641.376</ele>
        <time>2017-09-22T16:24:00Z</time>
      </trkpt>
      <trkpt lat="41.268622" lon="-6.462214">
        <ele>634.125</ele>
        <time>2017-09-22T16:24:13Z</time>
      </trkpt>
      <trkpt lat="41.268632" lon="-6.462309">
        <ele>633.639</ele>
        <time>2017-09-22T16:24:14Z</time>
      </trkpt>
      <trkpt lat="41.268808" lon="-6.463889">
        <ele>628.355</ele>
        <time>2017-09-22T16:24:30Z</time>
      </trkpt>
      <trkpt lat="41.268822" lon="-6.464963">
        <ele>626.449</ele>
        <time>2017-09-22T16:24:43Z</time>
      </trkpt>
      <trkpt lat="41.268794" lon="-6.465002">
        <ele>626.445</ele>
        <time>2017-09-22T16:24:44Z</time>
      </trkpt>
      <trkpt lat="41.268759" lon="-6.465021">
        <ele>626.447</ele>
        <time>2017-09-22T16:24:45Z</time>
      </trkpt>
      <trkpt lat="41.268725" lon="-6.465028">
        <ele>626.411</ele>
        <time>2017-09-22T16:24:46Z</time>
      </trkpt>
      <trkpt lat="41.268686" lon="-6.465033">
        <ele>626.408</ele>
        <time>2017-09-22T16:24:47Z</time>
      </trkpt>
      <trkpt lat="41.268478" lon="-6.465093">
        <ele>626.916</ele>
        <time>2017-09-22T16:24:53Z</time>
      </trkpt>
      <trkpt lat="41.268455" lon="-6.465084">
        <ele>626.954</ele>
        <time>2017-09-22T16:24:54Z</time>
      </trkpt>
      <trkpt lat="41.268466" lon="-6.465007">
        <ele>626.995</ele>
        <time>2017-09-22T16:24:58Z</time>
      </trkpt>
      <trkpt lat="41.268491" lon="-6.465010">
        <ele>626.997</ele>
        <time>2017-09-22T16:24:59Z</time>
      </trkpt>
      <trkpt lat="41.268518" lon="-6.465017">
        <ele>626.986</ele>
        <time>2017-09-22T16:25:00Z</time>
      </trkpt>
      <trkpt lat="41.268785" lon="-6.465018">
        <ele>626.980</ele>
        <time>2017-09-22T16:25:08Z</time>
      </trkpt>
      <trkpt lat="41.268801" lon="-6.465045">
        <ele>626.426</ele>
        <time>2017-09-22T16:25:09Z</time>
      </trkpt>
      <trkpt lat="41.268805" lon="-6.465083">
        <ele>626.490</ele>
        <time>2017-09-22T16:25:10Z</time>
      </trkpt>
      <trkpt lat="41.268802" lon="-6.465122">
        <ele>625.986</ele>
        <time>2017-09-22T16:25:11Z</time>
      </trkpt>
      <trkpt lat="41.268795" lon="-6.465168">
        <ele>625.960</ele>
        <time>2017-09-22T16:25:12Z</time>
      </trkpt>
      <trkpt lat="41.268787" lon="-6.465219">
        <ele>625.926</ele>
        <time>2017-09-22T16:25:13Z</time>
      </trkpt>
      <trkpt lat="41.268779" lon="-6.465281">
        <ele>625.408</ele>
        <time>2017-09-22T16:25:14Z</time>
      </trkpt>
      <trkpt lat="41.268730" lon="-6.465607">
        <ele>623.590</ele>
        <time>2017-09-22T16:25:19Z</time>
      </trkpt>
      <trkpt lat="41.268679" lon="-6.465786">
        <ele>622.148</ele>
        <time>2017-09-22T16:25:22Z</time>
      </trkpt>
      <trkpt lat="41.268664" lon="-6.465842">
        <ele>622.119</ele>
        <time>2017-09-22T16:25:23Z</time>
      </trkpt>
      <trkpt lat="41.268654" lon="-6.465900">
        <ele>621.651</ele>
        <time>2017-09-22T16:25:24Z</time>
      </trkpt>
      <trkpt lat="41.268651" lon="-6.465956">
        <ele>621.140</ele>
        <time>2017-09-22T16:25:25Z</time>
      </trkpt>
      <trkpt lat="41.268655" lon="-6.466012">
        <ele>620.684</ele>
        <time>2017-09-22T16:25:26Z</time>
      </trkpt>
      <trkpt lat="41.268668" lon="-6.466065">
        <ele>620.120</ele>
        <time>2017-09-22T16:25:27Z</time>
      </trkpt>
      <trkpt lat="41.268680" lon="-6.466118">
        <ele>619.754</ele>
        <time>2017-09-22T16:25:28Z</time>
      </trkpt>
      <trkpt lat="41.268690" lon="-6.466178">
        <ele>619.223</ele>
        <time>2017-09-22T16:25:29Z</time>
      </trkpt>
      <trkpt lat="41.268697" lon="-6.466233">
        <ele>618.283</ele>
        <time>2017-09-22T16:25:30Z</time>
      </trkpt>
      <trkpt lat="41.268784" lon="-6.466591">
        <ele>617.311</ele>
        <time>2017-09-22T16:25:38Z</time>
      </trkpt>
      <trkpt lat="41.268764" lon="-6.466632">
        <ele>617.308</ele>
        <time>2017-09-22T16:25:39Z</time>
      </trkpt>
      <trkpt lat="41.268737" lon="-6.466662">
        <ele>617.324</ele>
        <time>2017-09-22T16:25:40Z</time>
      </trkpt>
      <trkpt lat="41.268710" lon="-6.466678">
        <ele>616.852</ele>
        <time>2017-09-22T16:25:41Z</time>
      </trkpt>
      <trkpt lat="41.268682" lon="-6.466691">
        <ele>616.843</ele>
        <time>2017-09-22T16:25:42Z</time>
      </trkpt>
      <trkpt lat="41.268650" lon="-6.466699">
        <ele>616.845</ele>
        <time>2017-09-22T16:25:43Z</time>
      </trkpt>
      <trkpt lat="41.268351" lon="-6.466799">
        <ele>619.754</ele>
        <time>2017-09-22T16:25:54Z</time>
      </trkpt>
      <trkpt lat="41.268018" lon="-6.466891">
        <ele>625.498</ele>
        <time>2017-09-22T16:26:09Z</time>
      </trkpt>
      <trkpt lat="41.267735" lon="-6.466861">
        <ele>627.884</ele>
        <time>2017-09-22T16:26:23Z</time>
      </trkpt>
      <trkpt lat="41.267487" lon="-6.466872">
        <ele>628.338</ele>
        <time>2017-09-22T16:26:36Z</time>
      </trkpt>
      <trkpt lat="41.267150" lon="-6.466924">
        <ele>629.316</ele>
        <time>2017-09-22T16:26:52Z</time>
      </trkpt>
      <trkpt lat="41.266853" lon="-6.467095">
        <ele>630.276</ele>
        <time>2017-09-22T16:27:09Z</time>
      </trkpt>
      <trkpt lat="41.266814" lon="-6.467143">
        <ele>630.713</ele>
        <time>2017-09-22T16:27:12Z</time>
      </trkpt>
      <trkpt lat="41.266797" lon="-6.467154">
        <ele>630.708</ele>
        <time>2017-09-22T16:27:13Z</time>
      </trkpt>
      <trkpt lat="41.266542" lon="-6.467360">
        <ele>632.643</ele>
        <time>2017-09-22T16:27:29Z</time>
      </trkpt>
      <trkpt lat="41.266244" lon="-6.467616">
        <ele>634.131</ele>
        <time>2017-09-22T16:27:45Z</time>
      </trkpt>
      <trkpt lat="41.265985" lon="-6.467942">
        <ele>635.522</ele>
        <time>2017-09-22T16:28:01Z</time>
      </trkpt>
      <trkpt lat="41.265679" lon="-6.468234">
        <ele>635.074</ele>
        <time>2017-09-22T16:28:14Z</time>
      </trkpt>
      <trkpt lat="41.265480" lon="-6.468646">
        <ele>636.543</ele>
        <time>2017-09-22T16:28:26Z</time>
      </trkpt>
      <trkpt lat="41.265306" lon="-6.469150">
        <ele>637.417</ele>
        <time>2017-09-22T16:28:41Z</time>
      </trkpt>
      <trkpt lat="41.265111" lon="-6.469640">
        <ele>639.463</ele>
        <time>2017-09-22T16:28:57Z</time>
      </trkpt>
      <trkpt lat="41.264966" lon="-6.470019">
        <ele>640.837</ele>
        <time>2017-09-22T16:29:11Z</time>
      </trkpt>
      <trkpt lat="41.264783" lon="-6.470506">
        <ele>641.376</ele>
        <time>2017-09-22T16:29:26Z</time>
      </trkpt>
      <trkpt lat="41.264593" lon="-6.470976">
        <ele>643.790</ele>
        <time>2017-09-22T16:29:41Z</time>
      </trkpt>
      <trkpt lat="41.264222" lon="-6.471491">
        <ele>639.119</ele>
        <time>2017-10-08T16:14:52Z</time>
      </trkpt>
      <trkpt lat="41.263968" lon="-6.471640">
        <ele>639.808</ele>
        <time>2017-10-08T16:15:12Z</time>
      </trkpt>
      <trkpt lat="41.263778" lon="-6.471713">
        <ele>640.239</ele>
        <time>2017-10-08T16:15:32Z</time>
      </trkpt>
      <trkpt lat="41.263401" lon="-6.471703">
        <ele>641.527</ele>
        <time>2017-10-08T16:15:52Z</time>
      </trkpt>
      <trkpt lat="41.262709" lon="-6.471686">
        <ele>643.388</ele>
        <time>2017-10-08T16:16:12Z</time>
      </trkpt>
      <trkpt lat="41.262268" lon="-6.471753">
        <ele>643.510</ele>
        <time>2017-10-08T16:16:32Z</time>
      </trkpt>
      <trkpt lat="41.261831" lon="-6.471587">
        <ele>645.199</ele>
        <time>2017-10-08T16:16:52Z</time>
      </trkpt>
      <trkpt lat="41.261387" lon="-6.471808">
        <ele>645.863</ele>
        <time>2017-10-08T16:17:12Z</time>
      </trkpt>
      <trkpt lat="41.260884" lon="-6.471796">
        <ele>649.239</ele>
        <time>2017-10-08T16:17:32Z</time>
      </trkpt>
      <trkpt lat="41.260632" lon="-6.471790">
        <ele>651.593</ele>
        <time>2017-10-08T16:17:52Z</time>
      </trkpt>
      <trkpt lat="41.259749" lon="-6.471923">
        <ele>660.353</ele>
        <time>2017-10-08T16:18:12Z</time>
      </trkpt>
      <trkpt lat="41.258855" lon="-6.472753">
        <ele>672.704</ele>
        <time>2017-10-08T16:18:32Z</time>
      </trkpt>
      <trkpt lat="41.258458" lon="-6.473982">
        <ele>680.414</ele>
        <time>2017-10-08T16:18:52Z</time>
      </trkpt>
      <trkpt lat="41.257927" lon="-6.475673">
        <ele>687.308</ele>
        <time>2017-10-08T16:19:12Z</time>
      </trkpt>
      <trkpt lat="41.257521" lon="-6.477445">
        <ele>687.537</ele>
        <time>2017-10-08T16:19:32Z</time>
      </trkpt>
      <trkpt lat="41.256663" lon="-6.479903">
        <ele>696.935</ele>
        <time>2017-10-08T16:19:52Z</time>
      </trkpt>
      <trkpt lat="41.256398" lon="-6.480748">
        <ele>701.496</ele>
        <time>2017-10-08T16:20:12Z</time>
      </trkpt>
      <trkpt lat="41.255366" lon="-6.482272">
        <ele>708.778</ele>
        <time>2017-10-08T16:20:32Z</time>
      </trkpt>
      <trkpt lat="41.254026" lon="-6.487352">
        <ele>729.347</ele>
        <time>2017-10-08T16:20:52Z</time>
      </trkpt>
      <trkpt lat="41.253231" lon="-6.489811">
        <ele>727.391</ele>
        <time>2017-10-08T16:21:12Z</time>
      </trkpt>
      <trkpt lat="41.248241" lon="-6.494955">
        <ele>727.667</ele>
        <time>2017-10-08T16:21:32Z</time>
      </trkpt>
      <trkpt lat="41.247326" lon="-6.497024">
        <ele>728.721</ele>
        <time>2017-10-08T16:21:52Z</time>
      </trkpt>
      <trkpt lat="41.247168" lon="-6.499034">
        <ele>734.696</ele>
        <time>2017-10-08T16:22:12Z</time>
      </trkpt>
      <trkpt lat="41.245093" lon="-6.502856">
        <ele>740.331</ele>
        <time>2017-10-08T16:22:32Z</time>
      </trkpt>
      <trkpt lat="41.243830" lon="-6.507008">
        <ele>729.724</ele>
        <time>2017-10-08T16:22:52Z</time>
      </trkpt>
      <trkpt lat="41.242976" lon="-6.509233">
        <ele>721.108</ele>
        <time>2017-10-08T16:23:12Z</time>
      </trkpt>
      <trkpt lat="41.238348" lon="-6.515316">
        <ele>696.581</ele>
        <time>2017-10-08T16:23:32Z</time>
      </trkpt>
      <trkpt lat="41.237180" lon="-6.517533">
        <ele>686.119</ele>
        <time>2017-10-08T16:23:52Z</time>
      </trkpt>
      <trkpt lat="41.236531" lon="-6.518756">
        <ele>682.650</ele>
        <time>2017-10-08T16:24:12Z</time>
      </trkpt>
      <trkpt lat="41.234419" lon="-6.520951">
        <ele>670.812</ele>
        <time>2017-10-08T16:24:32Z</time>
      </trkpt>
      <trkpt lat="41.235103" lon="-6.521510">
        <ele>669.081</ele>
        <time>2017-10-08T16:24:52Z</time>
      </trkpt>
      <trkpt lat="41.235785" lon="-6.522069">
        <ele>675.595</ele>
        <time>2017-10-08T16:25:12Z</time>
      </trkpt>
      <trkpt lat="41.236343" lon="-6.522547">
        <ele>679.481</ele>
        <time>2017-10-08T16:25:32Z</time>
      </trkpt>
      <trkpt lat="41.236967" lon="-6.522873">
        <ele>681.135</ele>
        <time>2017-10-08T16:25:52Z</time>
      </trkpt>
      <trkpt lat="41.237337" lon="-6.523347">
        <ele>682.311</ele>
        <time>2017-10-08T16:26:12Z</time>
      </trkpt>
      <trkpt lat="41.237710" lon="-6.523588">
        <ele>685.221</ele>
        <time>2017-10-08T16:26:32Z</time>
      </trkpt>
      <trkpt lat="41.238022" lon="-6.523751">
        <ele>687.303</ele>
        <time>2017-10-08T16:26:52Z</time>
      </trkpt>
      <trkpt lat="41.237908" lon="-6.524267">
        <ele>698.508</ele>
        <time>2017-09-23T08:29:34Z</time>
      </trkpt>
      <trkpt lat="41.237896" lon="-6.524473">
        <ele>699.923</ele>
        <time>2017-09-23T08:29:42Z</time>
      </trkpt>
      <trkpt lat="41.237888" lon="-6.524575">
        <ele>699.971</ele>
        <time>2017-09-23T08:29:46Z</time>
      </trkpt>
      <trkpt lat="41.237769" lon="-6.524992">
        <ele>702.872</ele>
        <time>2017-09-23T08:30:04Z</time>
      </trkpt>
      <trkpt lat="41.237731" lon="-6.525212">
        <ele>702.884</ele>
        <time>2017-09-23T08:30:15Z</time>
      </trkpt>
      <trkpt lat="41.237660" lon="-6.525471">
        <ele>703.873</ele>
        <time>2017-09-23T08:30:30Z</time>
      </trkpt>
      <trkpt lat="41.237630" lon="-6.525559">
        <ele>704.397</ele>
        <time>2017-09-23T08:30:34Z</time>
      </trkpt>
      <trkpt lat="41.237567" lon="-6.525794">
        <ele>703.343</ele>
        <time>2017-09-23T08:30:45Z</time>
      </trkpt>
      <trkpt lat="41.237502" lon="-6.526221">
        <ele>703.877</ele>
        <time>2017-09-23T08:31:00Z</time>
      </trkpt>
      <trkpt lat="41.237391" lon="-6.526818">
        <ele>702.396</ele>
        <time>2017-09-23T08:31:18Z</time>
      </trkpt>
      <trkpt lat="41.237032" lon="-6.527538">
        <ele>696.631</ele>
        <time>2017-09-23T08:31:31Z</time>
      </trkpt>
      <trkpt lat="41.236408" lon="-6.528600">
        <ele>690.824</ele>
        <time>2017-09-23T08:31:47Z</time>
      </trkpt>
      <trkpt lat="41.235633" lon="-6.529456">
        <ele>688.408</ele>
        <time>2017-09-23T08:32:04Z</time>
      </trkpt>
      <trkpt lat="41.235328" lon="-6.529725">
        <ele>688.911</ele>
        <time>2017-09-23T08:32:12Z</time>
      </trkpt>
      <trkpt lat="41.235289" lon="-6.529761">
        <ele>688.969</ele>
        <time>2017-09-23T08:32:13Z</time>
      </trkpt>
      <trkpt lat="41.235136" lon="-6.529912">
        <ele>688.410</ele>
        <time>2017-09-23T08:32:17Z</time>
      </trkpt>
      <trkpt lat="41.234893" lon="-6.530212">
        <ele>688.442</ele>
        <time>2017-09-23T08:32:24Z</time>
      </trkpt>
      <trkpt lat="41.234863" lon="-6.530262">
        <ele>688.461</ele>
        <time>2017-09-23T08:32:25Z</time>
      </trkpt>
      <trkpt lat="41.234720" lon="-6.530470">
        <ele>687.445</ele>
        <time>2017-09-23T08:32:29Z</time>
      </trkpt>
      <trkpt lat="41.234262" lon="-6.531008">
        <ele>684.151</ele>
        <time>2017-09-23T08:32:40Z</time>
      </trkpt>
      <trkpt lat="41.234221" lon="-6.531051">
        <ele>683.695</ele>
        <time>2017-09-23T08:32:41Z</time>
      </trkpt>
      <trkpt lat="41.234185" lon="-6.531096">
        <ele>683.616</ele>
        <time>2017-09-23T08:32:42Z</time>
      </trkpt>
      <trkpt lat="41.234070" lon="-6.531273">
        <ele>683.176</ele>
        <time>2017-09-23T08:32:46Z</time>
      </trkpt>
      <trkpt lat="41.233968" lon="-6.531438">
        <ele>683.113</ele>
        <time>2017-09-23T08:32:50Z</time>
      </trkpt>
      <trkpt lat="41.233940" lon="-6.531481">
        <ele>682.608</ele>
        <time>2017-09-23T08:32:51Z</time>
      </trkpt>
      <trkpt lat="41.233912" lon="-6.531522">
        <ele>682.613</ele>
        <time>2017-09-23T08:32:52Z</time>
      </trkpt>
      <trkpt lat="41.233886" lon="-6.531568">
        <ele>682.681</ele>
        <time>2017-09-23T08:32:53Z</time>
      </trkpt>
      <trkpt lat="41.233860" lon="-6.531616">
        <ele>682.672</ele>
        <time>2017-09-23T08:32:54Z</time>
      </trkpt>
      <trkpt lat="41.233560" lon="-6.532093">
        <ele>680.744</ele>
        <time>2017-09-23T08:33:04Z</time>
      </trkpt>
      <trkpt lat="41.233025" lon="-6.532656">
        <ele>676.953</ele>
        <time>2017-09-23T08:33:19Z</time>
      </trkpt>
      <trkpt lat="41.232504" lon="-6.532850">
        <ele>671.657</ele>
        <time>2017-09-23T08:33:33Z</time>
      </trkpt>
      <trkpt lat="41.231907" lon="-6.532788">
        <ele>663.443</ele>
        <time>2017-09-23T08:33:47Z</time>
      </trkpt>
      <trkpt lat="41.231866" lon="-6.532785">
        <ele>662.947</ele>
        <time>2017-09-23T08:33:48Z</time>
      </trkpt>
      <trkpt lat="41.231243" lon="-6.532579">
        <ele>657.291</ele>
        <time>2017-09-23T08:34:01Z</time>
      </trkpt>
      <trkpt lat="41.230954" lon="-6.532481">
        <ele>653.881</ele>
        <time>2017-09-23T08:34:07Z</time>
      </trkpt>
      <trkpt lat="41.230906" lon="-6.532481">
        <ele>653.319</ele>
        <time>2017-09-23T08:34:08Z</time>
      </trkpt>
      <trkpt lat="41.230856" lon="-6.532491">
        <ele>652.308</ele>
        <time>2017-09-23T08:34:09Z</time>
      </trkpt>
      <trkpt lat="41.230810" lon="-6.532506">
        <ele>651.951</ele>
        <time>2017-09-23T08:34:10Z</time>
      </trkpt>
      <trkpt lat="41.230764" lon="-6.532527">
        <ele>651.449</ele>
        <time>2017-09-23T08:34:11Z</time>
      </trkpt>
      <trkpt lat="41.230720" lon="-6.532554">
        <ele>650.990</ele>
        <time>2017-09-23T08:34:12Z</time>
      </trkpt>
      <trkpt lat="41.230679" lon="-6.532582">
        <ele>650.452</ele>
        <time>2017-09-23T08:34:13Z</time>
      </trkpt>
      <trkpt lat="41.230639" lon="-6.532615">
        <ele>649.981</ele>
        <time>2017-09-23T08:34:14Z</time>
      </trkpt>
      <trkpt lat="41.230212" lon="-6.533001">
        <ele>642.735</ele>
        <time>2017-09-23T08:34:26Z</time>
      </trkpt>
      <trkpt lat="41.230173" lon="-6.533023">
        <ele>642.351</ele>
        <time>2017-09-23T08:34:27Z</time>
      </trkpt>
      <trkpt lat="41.229515" lon="-6.533335">
        <ele>633.645</ele>
        <time>2017-09-23T08:34:40Z</time>
      </trkpt>
      <trkpt lat="41.228872" lon="-6.533785">
        <ele>629.315</ele>
        <time>2017-09-23T08:34:53Z</time>
      </trkpt>
      <trkpt lat="41.228589" lon="-6.534116">
        <ele>625.965</ele>
        <time>2017-09-23T08:35:03Z</time>
      </trkpt>
      <trkpt lat="41.228537" lon="-6.534516">
        <ele>623.511</ele>
        <time>2017-09-23T08:35:12Z</time>
      </trkpt>
      <trkpt lat="41.228379" lon="-6.534853">
        <ele>620.608</ele>
        <time>2017-09-23T08:35:21Z</time>
      </trkpt>
      <trkpt lat="41.228185" lon="-6.535189">
        <ele>618.283</ele>
        <time>2017-09-23T08:35:32Z</time>
      </trkpt>
      <trkpt lat="41.228248" lon="-6.535564">
        <ele>614.421</ele>
        <time>2017-09-23T08:35:40Z</time>
      </trkpt>
      <trkpt lat="41.228263" lon="-6.535630">
        <ele>613.962</ele>
        <time>2017-09-23T08:35:41Z</time>
      </trkpt>
      <trkpt lat="41.228274" lon="-6.535702">
        <ele>613.464</ele>
        <time>2017-09-23T08:35:42Z</time>
      </trkpt>
      <trkpt lat="41.228279" lon="-6.535778">
        <ele>613.413</ele>
        <time>2017-09-23T08:35:43Z</time>
      </trkpt>
      <trkpt lat="41.228277" lon="-6.535851">
        <ele>612.977</ele>
        <time>2017-09-23T08:35:44Z</time>
      </trkpt>
      <trkpt lat="41.228271" lon="-6.535918">
        <ele>612.993</ele>
        <time>2017-09-23T08:35:45Z</time>
      </trkpt>
      <trkpt lat="41.228267" lon="-6.535978">
        <ele>612.927</ele>
        <time>2017-09-23T08:35:46Z</time>
      </trkpt>
      <trkpt lat="41.228273" lon="-6.536036">
        <ele>612.958</ele>
        <time>2017-09-23T08:35:47Z</time>
      </trkpt>
      <trkpt lat="41.228280" lon="-6.536089">
        <ele>613.452</ele>
        <time>2017-09-23T08:35:48Z</time>
      </trkpt>
      <trkpt lat="41.228193" lon="-6.536377">
        <ele>614.917</ele>
        <time>2017-09-23T08:35:58Z</time>
      </trkpt>
      <trkpt lat="41.228001" lon="-6.536715">
        <ele>616.808</ele>
        <time>2017-09-23T08:36:10Z</time>
      </trkpt>
      <trkpt lat="41.227891" lon="-6.537156">
        <ele>619.217</ele>
        <time>2017-09-23T08:36:28Z</time>
      </trkpt>
      <trkpt lat="41.227860" lon="-6.537438">
        <ele>621.695</ele>
        <time>2017-09-23T08:36:44Z</time>
      </trkpt>
      <trkpt lat="41.227776" lon="-6.537712">
        <ele>623.576</ele>
        <time>2017-09-23T08:37:01Z</time>
      </trkpt>
      <trkpt lat="41.227775" lon="-6.537729">
        <ele>624.018</ele>
        <time>2017-09-23T08:37:02Z</time>
      </trkpt>
      <trkpt lat="41.227770" lon="-6.537744">
        <ele>624.087</ele>
        <time>2017-09-23T08:37:03Z</time>
      </trkpt>
      <trkpt lat="41.227761" lon="-6.537757">
        <ele>624.021</ele>
        <time>2017-09-23T08:37:04Z</time>
      </trkpt>
      <trkpt lat="41.227751" lon="-6.537768">
        <ele>624.097</ele>
        <time>2017-09-23T08:37:05Z</time>
      </trkpt>
      <trkpt lat="41.227742" lon="-6.537782">
        <ele>624.561</ele>
        <time>2017-09-23T08:37:06Z</time>
      </trkpt>
      <trkpt lat="41.227708" lon="-6.537857">
        <ele>625.492</ele>
        <time>2017-09-23T08:37:11Z</time>
      </trkpt>
      <trkpt lat="41.227569" lon="-6.538099">
        <ele>627.873</ele>
        <time>2017-09-23T08:37:28Z</time>
      </trkpt>
      <trkpt lat="41.227551" lon="-6.538129">
        <ele>627.820</ele>
        <time>2017-09-23T08:37:30Z</time>
      </trkpt>
      <trkpt lat="41.227547" lon="-6.538144">
        <ele>627.808</ele>
        <time>2017-09-23T08:37:31Z</time>
      </trkpt>
      <trkpt lat="41.227541" lon="-6.538160">
        <ele>628.381</ele>
        <time>2017-09-23T08:37:32Z</time>
      </trkpt>
      <trkpt lat="41.227534" lon="-6.538172">
        <ele>628.349</ele>
        <time>2017-09-23T08:37:33Z</time>
      </trkpt>
      <trkpt lat="41.227527" lon="-6.538187">
        <ele>628.350</ele>
        <time>2017-09-23T08:37:34Z</time>
      </trkpt>
      <trkpt lat="41.227414" lon="-6.538372">
        <ele>629.862</ele>
        <time>2017-09-23T08:37:48Z</time>
      </trkpt>
      <trkpt lat="41.227298" lon="-6.538643">
        <ele>632.611</ele>
        <time>2017-09-23T08:38:06Z</time>
      </trkpt>
      <trkpt lat="41.227180" lon="-6.538862">
        <ele>633.195</ele>
        <time>2017-09-23T08:38:20Z</time>
      </trkpt>
      <trkpt lat="41.227119" lon="-6.538979">
        <ele>633.191</ele>
        <time>2017-09-23T08:38:33Z</time>
      </trkpt>
      <trkpt lat="41.227093" lon="-6.539020">
        <ele>633.195</ele>
        <time>2017-09-23T08:38:44Z</time>
      </trkpt>
      <trkpt lat="41.227082" lon="-6.539030">
        <ele>633.171</ele>
        <time>2017-09-23T08:38:45Z</time>
      </trkpt>
      <trkpt lat="41.227075" lon="-6.539047">
        <ele>633.141</ele>
        <time>2017-09-23T08:38:46Z</time>
      </trkpt>
      <trkpt lat="41.227070" lon="-6.539065">
        <ele>633.615</ele>
        <time>2017-09-23T08:38:47Z</time>
      </trkpt>
      <trkpt lat="41.227062" lon="-6.539082">
        <ele>633.608</ele>
        <time>2017-09-23T08:38:48Z</time>
      </trkpt>
      <trkpt lat="41.227053" lon="-6.539096">
        <ele>633.619</ele>
        <time>2017-09-23T08:38:49Z</time>
      </trkpt>
      <trkpt lat="41.227041" lon="-6.539112">
        <ele>634.117</ele>
        <time>2017-09-23T08:38:50Z</time>
      </trkpt>
      <trkpt lat="41.227032" lon="-6.539130">
        <ele>634.188</ele>
        <time>2017-09-23T08:38:51Z</time>
      </trkpt>
      <trkpt lat="41.227022" lon="-6.539149">
        <ele>634.160</ele>
        <time>2017-09-23T08:38:52Z</time>
      </trkpt>
      <trkpt lat="41.227014" lon="-6.539168">
        <ele>634.639</ele>
        <time>2017-09-23T08:38:53Z</time>
      </trkpt>
      <trkpt lat="41.226903" lon="-6.539490">
        <ele>636.553</ele>
        <time>2017-09-23T08:39:10Z</time>
      </trkpt>
      <trkpt lat="41.226799" lon="-6.539861">
        <ele>638.449</ele>
        <time>2017-09-23T08:39:27Z</time>
      </trkpt>
      <trkpt lat="41.226706" lon="-6.540219">
        <ele>640.863</ele>
        <time>2017-09-23T08:39:44Z</time>
      </trkpt>
      <trkpt lat="41.226605" lon="-6.540518">
        <ele>642.356</ele>
        <time>2017-09-23T08:40:01Z</time>
      </trkpt>
      <trkpt lat="41.226523" lon="-6.540717">
        <ele>642.759</ele>
        <time>2017-09-23T08:40:13Z</time>
      </trkpt>
      <trkpt lat="41.226514" lon="-6.540730">
        <ele>643.214</ele>
        <time>2017-09-23T08:40:14Z</time>
      </trkpt>
      <trkpt lat="41.226347" lon="-6.540908">
        <ele>644.208</ele>
        <time>2017-09-23T08:40:30Z</time>
      </trkpt>
      <trkpt lat="41.226325" lon="-6.540952">
        <ele>644.757</ele>
        <time>2017-09-23T08:40:33Z</time>
      </trkpt>
      <trkpt lat="41.226314" lon="-6.540962">
        <ele>644.725</ele>
        <time>2017-09-23T08:40:34Z</time>
      </trkpt>
      <trkpt lat="41.226301" lon="-6.540974">
        <ele>644.756</ele>
        <time>2017-09-23T08:40:35Z</time>
      </trkpt>
      <trkpt lat="41.226293" lon="-6.540985">
        <ele>645.118</ele>
        <time>2017-09-23T08:40:36Z</time>
      </trkpt>
      <trkpt lat="41.226283" lon="-6.540995">
        <ele>645.177</ele>
        <time>2017-09-23T08:40:37Z</time>
      </trkpt>
      <trkpt lat="41.226269" lon="-6.541005">
        <ele>645.121</ele>
        <time>2017-09-23T08:40:38Z</time>
      </trkpt>
      <trkpt lat="41.226072" lon="-6.541197">
        <ele>646.697</ele>
        <time>2017-09-23T08:40:55Z</time>
      </trkpt>
      <trkpt lat="41.225899" lon="-6.541354">
        <ele>649.021</ele>
        <time>2017-09-23T08:41:10Z</time>
      </trkpt>
      <trkpt lat="41.225736" lon="-6.541538">
        <ele>651.496</ele>
        <time>2017-09-23T08:41:26Z</time>
      </trkpt>
      <trkpt lat="41.225576" lon="-6.541773">
        <ele>653.331</ele>
        <time>2017-09-23T08:41:43Z</time>
      </trkpt>
      <trkpt lat="41.225418" lon="-6.542012">
        <ele>654.824</ele>
        <time>2017-09-23T08:42:00Z</time>
      </trkpt>
      <trkpt lat="41.225319" lon="-6.542176">
        <ele>654.808</ele>
        <time>2017-09-23T08:42:11Z</time>
      </trkpt>
      <trkpt lat="41.225310" lon="-6.542192">
        <ele>654.871</ele>
        <time>2017-09-23T08:42:12Z</time>
      </trkpt>
      <trkpt lat="41.225301" lon="-6.542208">
        <ele>654.819</ele>
        <time>2017-09-23T08:42:13Z</time>
      </trkpt>
      <trkpt lat="41.225292" lon="-6.542226">
        <ele>654.850</ele>
        <time>2017-09-23T08:42:14Z</time>
      </trkpt>
      <trkpt lat="41.225283" lon="-6.542243">
        <ele>654.822</ele>
        <time>2017-09-23T08:42:15Z</time>
      </trkpt>
      <trkpt lat="41.225272" lon="-6.542260">
        <ele>654.881</ele>
        <time>2017-09-23T08:42:16Z</time>
      </trkpt>
      <trkpt lat="41.225255" lon="-6.542295">
        <ele>654.835</ele>
        <time>2017-09-23T08:42:18Z</time>
      </trkpt>
      <trkpt lat="41.225244" lon="-6.542311">
        <ele>654.861</ele>
        <time>2017-09-23T08:42:19Z</time>
      </trkpt>
      <trkpt lat="41.225243" lon="-6.542313">
        <ele>655.275</ele>
        <time>2017-09-23T08:42:30Z</time>
      </trkpt>
      <trkpt lat="41.225230" lon="-6.542335">
        <ele>655.228</ele>
        <time>2017-09-23T08:42:44Z</time>
      </trkpt>
      <trkpt lat="41.225157" lon="-6.542524">
        <ele>655.289</ele>
        <time>2017-09-23T08:42:56Z</time>
      </trkpt>
      <trkpt lat="41.225030" lon="-6.542880">
        <ele>657.217</ele>
        <time>2017-09-23T08:43:12Z</time>
      </trkpt>
      <trkpt lat="41.224978" lon="-6.543134">
        <ele>658.108</ele>
        <time>2017-09-23T08:43:25Z</time>
      </trkpt>
      <trkpt lat="41.224981" lon="-6.543154">
        <ele>658.644</ele>
        <time>2017-09-23T08:43:26Z</time>
      </trkpt>
      <trkpt lat="41.224988" lon="-6.543173">
        <ele>658.682</ele>
        <time>2017-09-23T08:43:27Z</time>
      </trkpt>
      <trkpt lat="41.224993" lon="-6.543195">
        <ele>658.623</ele>
        <time>2017-09-23T08:43:28Z</time>
      </trkpt>
      <trkpt lat="41.224997" lon="-6.543215">
        <ele>658.675</ele>
        <time>2017-09-23T08:43:29Z</time>
      </trkpt>
      <trkpt lat="41.224902" lon="-6.543380">
        <ele>660.514</ele>
        <time>2017-09-23T08:43:41Z</time>
      </trkpt>
      <trkpt lat="41.224639" lon="-6.543494">
        <ele>661.038</ele>
        <time>2017-09-23T08:43:55Z</time>
      </trkpt>
      <trkpt lat="41.224424" lon="-6.543629">
        <ele>662.484</ele>
        <time>2017-09-23T08:44:10Z</time>
      </trkpt>
      <trkpt lat="41.224223" lon="-6.543838">
        <ele>664.418</ele>
        <time>2017-09-23T08:44:27Z</time>
      </trkpt>
      <trkpt lat="41.224079" lon="-6.544081">
        <ele>665.821</ele>
        <time>2017-09-23T08:44:42Z</time>
      </trkpt>
      <trkpt lat="41.223868" lon="-6.544377">
        <ele>668.241</ele>
        <time>2017-09-23T08:45:01Z</time>
      </trkpt>
      <trkpt lat="41.223690" lon="-6.544665">
        <ele>670.105</ele>
        <time>2017-09-23T08:45:18Z</time>
      </trkpt>
      <trkpt lat="41.223508" lon="-6.544984">
        <ele>672.108</ele>
        <time>2017-09-23T08:45:36Z</time>
      </trkpt>
      <trkpt lat="41.223332" lon="-6.545222">
        <ele>674.044</ele>
        <time>2017-09-23T08:45:52Z</time>
      </trkpt>
      <trkpt lat="41.223110" lon="-6.545422">
        <ele>675.952</ele>
        <time>2017-09-23T08:46:09Z</time>
      </trkpt>
      <trkpt lat="41.222796" lon="-6.545576">
        <ele>673.553</ele>
        <time>2017-09-23T08:46:23Z</time>
      </trkpt>
      <trkpt lat="41.222716" lon="-6.545621">
        <ele>672.145</ele>
        <time>2017-09-23T08:46:27Z</time>
      </trkpt>
      <trkpt lat="41.222703" lon="-6.545625">
        <ele>672.154</ele>
        <time>2017-09-23T08:46:28Z</time>
      </trkpt>
      <trkpt lat="41.222689" lon="-6.545637">
        <ele>672.518</ele>
        <time>2017-09-23T08:46:38Z</time>
      </trkpt>
      <trkpt lat="41.222564" lon="-6.545765">
        <ele>670.654</ele>
        <time>2017-09-23T08:46:51Z</time>
      </trkpt>
      <trkpt lat="41.222554" lon="-6.545775">
        <ele>670.648</ele>
        <time>2017-09-23T08:46:52Z</time>
      </trkpt>
      <trkpt lat="41.222460" lon="-6.545846">
        <ele>668.764</ele>
        <time>2017-09-23T08:47:09Z</time>
      </trkpt>
      <trkpt lat="41.222444" lon="-6.545867">
        <ele>670.106</ele>
        <time>2017-09-23T08:48:04Z</time>
      </trkpt>
      <trkpt lat="41.222446" lon="-6.545850">
        <ele>668.216</ele>
        <time>2017-09-23T08:49:00Z</time>
      </trkpt>
      <trkpt lat="41.222451" lon="-6.545856">
        <ele>665.808</ele>
        <time>2017-09-23T08:49:49Z</time>
      </trkpt>
      <trkpt lat="41.222446" lon="-6.545855">
        <ele>666.378</ele>
        <time>2017-09-23T08:50:51Z</time>
      </trkpt>
      <trkpt lat="41.222439" lon="-6.545893">
        <ele>666.896</ele>
        <time>2017-09-23T08:51:13Z</time>
      </trkpt>
      <trkpt lat="41.222413" lon="-6.545922">
        <ele>666.857</ele>
        <time>2017-09-23T08:51:15Z</time>
      </trkpt>
      <trkpt lat="41.222397" lon="-6.545943">
        <ele>666.819</ele>
        <time>2017-09-23T08:51:16Z</time>
      </trkpt>
      <trkpt lat="41.222097" lon="-6.546379">
        <ele>661.548</ele>
        <time>2017-09-23T08:51:29Z</time>
      </trkpt>
      <trkpt lat="41.221921" lon="-6.546933">
        <ele>656.732</ele>
        <time>2017-09-23T08:51:41Z</time>
      </trkpt>
      <trkpt lat="41.221597" lon="-6.547816">
        <ele>648.038</ele>
        <time>2017-09-23T08:51:56Z</time>
      </trkpt>
      <trkpt lat="41.221432" lon="-6.548305">
        <ele>645.192</ele>
        <time>2017-09-23T08:52:08Z</time>
      </trkpt>
      <trkpt lat="41.221291" lon="-6.548900">
        <ele>643.724</ele>
        <time>2017-09-23T08:52:23Z</time>
      </trkpt>
      <trkpt lat="41.221029" lon="-6.549722">
        <ele>640.804</ele>
        <time>2017-09-23T08:52:39Z</time>
      </trkpt>
      <trkpt lat="41.221009" lon="-6.549828">
        <ele>640.314</ele>
        <time>2017-09-23T08:52:41Z</time>
      </trkpt>
      <trkpt lat="41.220950" lon="-6.550150">
        <ele>638.408</ele>
        <time>2017-09-23T08:52:47Z</time>
      </trkpt>
      <trkpt lat="41.220723" lon="-6.550578">
        <ele>634.634</ele>
        <time>2017-09-23T08:52:59Z</time>
      </trkpt>
      <trkpt lat="41.220681" lon="-6.550672">
        <ele>633.182</ele>
        <time>2017-09-23T08:53:03Z</time>
      </trkpt>
      <trkpt lat="41.220446" lon="-6.550959">
        <ele>629.833</ele>
        <time>2017-09-23T08:53:13Z</time>
      </trkpt>
      <trkpt lat="41.220411" lon="-6.550995">
        <ele>629.375</ele>
        <time>2017-09-23T08:53:14Z</time>
      </trkpt>
      <trkpt lat="41.220384" lon="-6.551032">
        <ele>629.354</ele>
        <time>2017-09-23T08:53:15Z</time>
      </trkpt>
      <trkpt lat="41.220357" lon="-6.551074">
        <ele>628.838</ele>
        <time>2017-09-23T08:53:16Z</time>
      </trkpt>
      <trkpt lat="41.220333" lon="-6.551118">
        <ele>628.884</ele>
        <time>2017-09-23T08:53:17Z</time>
      </trkpt>
      <trkpt lat="41.220117" lon="-6.551683">
        <ele>625.968</ele>
        <time>2017-09-23T08:53:30Z</time>
      </trkpt>
      <trkpt lat="41.219824" lon="-6.552021">
        <ele>623.546</ele>
        <time>2017-09-23T08:53:42Z</time>
      </trkpt>
      <trkpt lat="41.219411" lon="-6.552261">
        <ele>618.288</ele>
        <time>2017-09-23T08:53:55Z</time>
      </trkpt>
      <trkpt lat="41.219174" lon="-6.552627">
        <ele>611.016</ele>
        <time>2017-09-23T08:54:06Z</time>
      </trkpt>
      <trkpt lat="41.218970" lon="-6.553180">
        <ele>604.808</ele>
        <time>2017-09-23T08:54:20Z</time>
      </trkpt>
      <trkpt lat="41.218781" lon="-6.553525">
        <ele>600.916</ele>
        <time>2017-09-23T08:54:28Z</time>
      </trkpt>
      <trkpt lat="41.218772" lon="-6.553579">
        <ele>600.494</ele>
        <time>2017-09-23T08:54:29Z</time>
      </trkpt>
      <trkpt lat="41.218718" lon="-6.554241">
        <ele>596.625</ele>
        <time>2017-09-23T08:54:42Z</time>
      </trkpt>
      <trkpt lat="41.218611" lon="-6.554519">
        <ele>595.167</ele>
        <time>2017-09-23T08:54:48Z</time>
      </trkpt>
      <trkpt lat="41.218219" lon="-6.555049">
        <ele>591.896</ele>
        <time>2017-09-23T08:55:02Z</time>
      </trkpt>
      <trkpt lat="41.218099" lon="-6.555123">
        <ele>591.830</ele>
        <time>2017-09-23T08:55:05Z</time>
      </trkpt>
      <trkpt lat="41.218062" lon="-6.555140">
        <ele>591.876</ele>
        <time>2017-09-23T08:55:06Z</time>
      </trkpt>
      <trkpt lat="41.217844" lon="-6.555315">
        <ele>593.770</ele>
        <time>2017-09-23T08:55:16Z</time>
      </trkpt>
      <trkpt lat="41.217558" lon="-6.555719">
        <ele>591.845</ele>
        <time>2017-09-23T08:55:29Z</time>
      </trkpt>
      <trkpt lat="41.217463" lon="-6.556195">
        <ele>590.347</ele>
        <time>2017-09-23T08:55:42Z</time>
      </trkpt>
      <trkpt lat="41.217504" lon="-6.556634">
        <ele>591.311</ele>
        <time>2017-09-23T08:55:54Z</time>
      </trkpt>
      <trkpt lat="41.217456" lon="-6.557111">
        <ele>588.908</ele>
        <time>2017-09-23T08:56:05Z</time>
      </trkpt>
      <trkpt lat="41.217203" lon="-6.557525">
        <ele>585.586</ele>
        <time>2017-09-23T08:56:17Z</time>
      </trkpt>
      <trkpt lat="41.216890" lon="-6.557822">
        <ele>582.764</ele>
        <time>2017-09-23T08:56:29Z</time>
      </trkpt>
      <trkpt lat="41.216651" lon="-6.557925">
        <ele>586.095</ele>
        <time>2017-09-23T08:56:44Z</time>
      </trkpt>
      <trkpt lat="41.216638" lon="-6.557932">
        <ele>586.017</ele>
        <time>2017-09-23T08:56:45Z</time>
      </trkpt>
      <trkpt lat="41.216625" lon="-6.557944">
        <ele>586.546</ele>
        <time>2017-09-23T08:56:46Z</time>
      </trkpt>
      <trkpt lat="41.216611" lon="-6.557951">
        <ele>586.510</ele>
        <time>2017-09-23T08:56:47Z</time>
      </trkpt>
      <trkpt lat="41.216437" lon="-6.558043">
        <ele>587.936</ele>
        <time>2017-09-23T08:57:00Z</time>
      </trkpt>
      <trkpt lat="41.216425" lon="-6.558051">
        <ele>588.410</ele>
        <time>2017-09-23T08:57:01Z</time>
      </trkpt>
      <trkpt lat="41.216412" lon="-6.558062">
        <ele>588.448</ele>
        <time>2017-09-23T08:57:02Z</time>
      </trkpt>
      <trkpt lat="41.216400" lon="-6.558073">
        <ele>588.961</ele>
        <time>2017-09-23T08:57:03Z</time>
      </trkpt>
      <trkpt lat="41.216388" lon="-6.558081">
        <ele>588.917</ele>
        <time>2017-09-23T08:57:04Z</time>
      </trkpt>
      <trkpt lat="41.216375" lon="-6.558091">
        <ele>588.408</ele>
        <time>2017-09-23T08:57:05Z</time>
      </trkpt>
      <trkpt lat="41.216366" lon="-6.558100">
        <ele>588.936</ele>
        <time>2017-09-23T08:57:06Z</time>
      </trkpt>
      <trkpt lat="41.216354" lon="-6.558110">
        <ele>588.924</ele>
        <time>2017-09-23T08:57:07Z</time>
      </trkpt>
      <trkpt lat="41.216343" lon="-6.558120">
        <ele>588.935</ele>
        <time>2017-09-23T08:57:08Z</time>
      </trkpt>
      <trkpt lat="41.216331" lon="-6.558128">
        <ele>589.497</ele>
        <time>2017-09-23T08:57:09Z</time>
      </trkpt>
      <trkpt lat="41.216316" lon="-6.558137">
        <ele>589.466</ele>
        <time>2017-09-23T08:57:10Z</time>
      </trkpt>
      <trkpt lat="41.216253" lon="-6.558206">
        <ele>589.990</ele>
        <time>2017-09-23T08:57:23Z</time>
      </trkpt>
      <trkpt lat="41.216222" lon="-6.558236">
        <ele>590.846</ele>
        <time>2017-09-23T08:57:34Z</time>
      </trkpt>
      <trkpt lat="41.216211" lon="-6.558243">
        <ele>591.330</ele>
        <time>2017-09-23T08:57:35Z</time>
      </trkpt>
      <trkpt lat="41.216029" lon="-6.558425">
        <ele>594.279</ele>
        <time>2017-09-23T08:57:56Z</time>
      </trkpt>
      <trkpt lat="41.215972" lon="-6.558497">
        <ele>594.205</ele>
        <time>2017-09-23T08:58:13Z</time>
      </trkpt>
      <trkpt lat="41.215960" lon="-6.558506">
        <ele>594.225</ele>
        <time>2017-09-23T08:58:16Z</time>
      </trkpt>
      <trkpt lat="41.215946" lon="-6.558516">
        <ele>594.208</ele>
        <time>2017-09-23T08:58:17Z</time>
      </trkpt>
      <trkpt lat="41.215931" lon="-6.558521">
        <ele>594.279</ele>
        <time>2017-09-23T08:58:18Z</time>
      </trkpt>
      <trkpt lat="41.215918" lon="-6.558525">
        <ele>594.287</ele>
        <time>2017-09-23T08:58:19Z</time>
      </trkpt>
      <trkpt lat="41.215905" lon="-6.558534">
        <ele>594.738</ele>
        <time>2017-09-23T08:58:20Z</time>
      </trkpt>
      <trkpt lat="41.215895" lon="-6.558546">
        <ele>594.790</ele>
        <time>2017-09-23T08:58:21Z</time>
      </trkpt>
      <trkpt lat="41.215883" lon="-6.558559">
        <ele>594.789</ele>
        <time>2017-09-23T08:58:22Z</time>
      </trkpt>
      <trkpt lat="41.215874" lon="-6.558575">
        <ele>594.783</ele>
        <time>2017-09-23T08:58:23Z</time>
      </trkpt>
      <trkpt lat="41.215850" lon="-6.558594">
        <ele>594.769</ele>
        <time>2017-09-23T08:58:25Z</time>
      </trkpt>
      <trkpt lat="41.215839" lon="-6.558595">
        <ele>594.773</ele>
        <time>2017-09-23T08:58:26Z</time>
      </trkpt>
      <trkpt lat="41.215825" lon="-6.558603">
        <ele>594.793</ele>
        <time>2017-09-23T08:58:27Z</time>
      </trkpt>
      <trkpt lat="41.215816" lon="-6.558615">
        <ele>594.265</ele>
        <time>2017-09-23T08:58:28Z</time>
      </trkpt>
      <trkpt lat="41.215805" lon="-6.558629">
        <ele>594.221</ele>
        <time>2017-09-23T08:58:29Z</time>
      </trkpt>
      <trkpt lat="41.215791" lon="-6.558640">
        <ele>594.708</ele>
        <time>2017-09-23T08:58:30Z</time>
      </trkpt>
      <trkpt lat="41.215776" lon="-6.558650">
        <ele>594.731</ele>
        <time>2017-09-23T08:58:31Z</time>
      </trkpt>
      <trkpt lat="41.215564" lon="-6.558827">
        <ele>595.669</ele>
        <time>2017-09-23T08:58:46Z</time>
      </trkpt>
      <trkpt lat="41.215341" lon="-6.559048">
        <ele>595.690</ele>
        <time>2017-09-23T08:59:00Z</time>
      </trkpt>
      <trkpt lat="41.215292" lon="-6.559468">
        <ele>599.062</ele>
        <time>2017-09-23T08:59:16Z</time>
      </trkpt>
      <trkpt lat="41.215134" lon="-6.559679">
        <ele>600.981</ele>
        <time>2017-09-23T08:59:32Z</time>
      </trkpt>
      <trkpt lat="41.214931" lon="-6.559788">
        <ele>601.925</ele>
        <time>2017-09-23T08:59:48Z</time>
      </trkpt>
      <trkpt lat="41.214819" lon="-6.559814">
        <ele>603.381</ele>
        <time>2017-09-23T09:00:04Z</time>
      </trkpt>
      <trkpt lat="41.214689" lon="-6.559880">
        <ele>605.795</ele>
        <time>2017-09-23T09:00:18Z</time>
      </trkpt>
      <trkpt lat="41.214587" lon="-6.559940">
        <ele>608.114</ele>
        <time>2017-09-23T09:00:37Z</time>
      </trkpt>
      <trkpt lat="41.214478" lon="-6.560028">
        <ele>609.154</ele>
        <time>2017-09-23T09:00:50Z</time>
      </trkpt>
      <trkpt lat="41.214467" lon="-6.560034">
        <ele>609.109</ele>
        <time>2017-09-23T09:00:51Z</time>
      </trkpt>
      <trkpt lat="41.214454" lon="-6.560041">
        <ele>609.608</ele>
        <time>2017-09-23T09:00:52Z</time>
      </trkpt>
      <trkpt lat="41.214313" lon="-6.560135">
        <ele>610.583</ele>
        <time>2017-09-23T09:01:07Z</time>
      </trkpt>
      <trkpt lat="41.214126" lon="-6.560257">
        <ele>612.991</ele>
        <time>2017-09-23T09:01:25Z</time>
      </trkpt>
      <trkpt lat="41.213967" lon="-6.560374">
        <ele>615.832</ele>
        <time>2017-09-23T09:01:42Z</time>
      </trkpt>
      <trkpt lat="41.213823" lon="-6.560570">
        <ele>618.784</ele>
        <time>2017-09-23T09:02:02Z</time>
      </trkpt>
      <trkpt lat="41.213655" lon="-6.560818">
        <ele>622.173</ele>
        <time>2017-09-23T09:02:24Z</time>
      </trkpt>
      <trkpt lat="41.213505" lon="-6.561009">
        <ele>621.657</ele>
        <time>2017-09-23T09:02:42Z</time>
      </trkpt>
      <trkpt lat="41.213311" lon="-6.560836">
        <ele>621.633</ele>
        <time>2017-09-23T09:10:32Z</time>
      </trkpt>
      <trkpt lat="41.213188" lon="-6.560682">
        <ele>620.647</ele>
        <time>2017-09-23T09:12:21Z</time>
      </trkpt>
      <trkpt lat="41.212933" lon="-6.560463">
        <ele>621.647</ele>
        <time>2017-09-23T09:12:40Z</time>
      </trkpt>
      <trkpt lat="41.212803" lon="-6.560409">
        <ele>623.529</ele>
        <time>2017-09-23T09:12:57Z</time>
      </trkpt>
      <trkpt lat="41.212692" lon="-6.560314">
        <ele>624.921</ele>
        <time>2017-09-23T09:13:13Z</time>
      </trkpt>
      <trkpt lat="41.212545" lon="-6.560173">
        <ele>628.808</ele>
        <time>2017-09-23T09:13:32Z</time>
      </trkpt>
      <trkpt lat="41.212495" lon="-6.560092">
        <ele>628.376</ele>
        <time>2017-09-23T09:13:46Z</time>
      </trkpt>
      <trkpt lat="41.212454" lon="-6.560051">
        <ele>629.824</ele>
        <time>2017-09-23T09:14:01Z</time>
      </trkpt>
      <trkpt lat="41.212465" lon="-6.560051">
        <ele>629.325</ele>
        <time>2017-09-23T09:14:42Z</time>
      </trkpt>
      <trkpt lat="41.212448" lon="-6.560013">
        <ele>630.747</ele>
        <time>2017-09-23T09:14:49Z</time>
      </trkpt>
      <trkpt lat="41.212454" lon="-6.559787">
        <ele>635.066</ele>
        <time>2017-09-23T09:15:08Z</time>
      </trkpt>
      <trkpt lat="41.212446" lon="-6.559793">
        <ele>636.030</ele>
        <time>2017-09-23T09:15:29Z</time>
      </trkpt>
      <trkpt lat="41.212485" lon="-6.559618">
        <ele>637.426</ele>
        <time>2017-09-23T09:15:44Z</time>
      </trkpt>
      <trkpt lat="41.212477" lon="-6.559458">
        <ele>639.430</ele>
        <time>2017-09-23T09:15:58Z</time>
      </trkpt>
      <trkpt lat="41.212466" lon="-6.559322">
        <ele>640.817</ele>
        <time>2017-09-23T09:16:14Z</time>
      </trkpt>
      <trkpt lat="41.212450" lon="-6.559197">
        <ele>641.387</ele>
        <time>2017-09-23T09:16:28Z</time>
      </trkpt>
      <trkpt lat="41.212441" lon="-6.559160">
        <ele>642.715</ele>
        <time>2017-09-23T09:16:44Z</time>
      </trkpt>
      <trkpt lat="41.212385" lon="-6.558921">
        <ele>643.208</ele>
        <time>2017-09-23T09:17:05Z</time>
      </trkpt>
      <trkpt lat="41.212369" lon="-6.558815">
        <ele>645.663</ele>
        <time>2017-09-23T09:17:22Z</time>
      </trkpt>
      <trkpt lat="41.212306" lon="-6.558696">
        <ele>648.071</ele>
        <time>2017-09-23T09:17:42Z</time>
      </trkpt>
      <trkpt lat="41.212326" lon="-6.558691">
        <ele>651.422</ele>
        <time>2017-09-23T09:18:02Z</time>
      </trkpt>
      <trkpt lat="41.212336" lon="-6.558693">
        <ele>649.514</ele>
        <time>2017-09-23T09:18:33Z</time>
      </trkpt>
      <trkpt lat="41.212330" lon="-6.558690">
        <ele>647.513</ele>
        <time>2017-09-23T09:18:45Z</time>
      </trkpt>
      <trkpt lat="41.212329" lon="-6.558720">
        <ele>649.517</ele>
        <time>2017-09-23T09:19:00Z</time>
      </trkpt>
      <trkpt lat="41.212320" lon="-6.558741">
        <ele>651.493</ele>
        <time>2017-09-23T09:19:40Z</time>
      </trkpt>
      <trkpt lat="41.212310" lon="-6.558774">
        <ele>649.017</ele>
        <time>2017-09-23T09:20:12Z</time>
      </trkpt>
      <trkpt lat="41.212294" lon="-6.558821">
        <ele>650.474</ele>
        <time>2017-09-23T09:20:28Z</time>
      </trkpt>
      <trkpt lat="41.212292" lon="-6.558906">
        <ele>649.956</ele>
        <time>2017-09-23T09:20:31Z</time>
      </trkpt>
      <trkpt lat="41.212296" lon="-6.558950">
        <ele>649.521</ele>
        <time>2017-09-23T09:20:32Z</time>
      </trkpt>
      <trkpt lat="41.212299" lon="-6.558977">
        <ele>649.508</ele>
        <time>2017-09-23T09:20:33Z</time>
      </trkpt>
      <trkpt lat="41.212300" lon="-6.559024">
        <ele>649.019</ele>
        <time>2017-09-23T09:20:34Z</time>
      </trkpt>
      <trkpt lat="41.212296" lon="-6.559076">
        <ele>648.597</ele>
        <time>2017-09-23T09:20:35Z</time>
      </trkpt>
      <trkpt lat="41.212284" lon="-6.559135">
        <ele>648.028</ele>
        <time>2017-09-23T09:20:36Z</time>
      </trkpt>
      <trkpt lat="41.212270" lon="-6.559196">
        <ele>647.560</ele>
        <time>2017-09-23T09:20:37Z</time>
      </trkpt>
      <trkpt lat="41.212252" lon="-6.559254">
        <ele>647.599</ele>
        <time>2017-09-23T09:20:38Z</time>
      </trkpt>
      <trkpt lat="41.211921" lon="-6.559994">
        <ele>643.213</ele>
        <time>2017-09-23T09:20:49Z</time>
      </trkpt>
      <trkpt lat="41.211631" lon="-6.560421">
        <ele>640.319</ele>
        <time>2017-09-23T09:20:55Z</time>
      </trkpt>
      <trkpt lat="41.211447" lon="-6.560754">
        <ele>639.483</ele>
        <time>2017-09-23T09:21:00Z</time>
      </trkpt>
      <trkpt lat="41.211400" lon="-6.560796">
        <ele>638.916</ele>
        <time>2017-09-23T09:21:01Z</time>
      </trkpt>
      <trkpt lat="41.211343" lon="-6.560825">
        <ele>638.976</ele>
        <time>2017-09-23T09:21:02Z</time>
      </trkpt>
      <trkpt lat="41.211287" lon="-6.560835">
        <ele>638.413</ele>
        <time>2017-09-23T09:21:03Z</time>
      </trkpt>
      <trkpt lat="41.211233" lon="-6.560827">
        <ele>637.908</ele>
        <time>2017-09-23T09:21:04Z</time>
      </trkpt>
      <trkpt lat="41.211177" lon="-6.560813">
        <ele>637.913</ele>
        <time>2017-09-23T09:21:05Z</time>
      </trkpt>
      <trkpt lat="41.211069" lon="-6.560797">
        <ele>637.411</ele>
        <time>2017-09-23T09:21:07Z</time>
      </trkpt>
      <trkpt lat="41.211013" lon="-6.560802">
        <ele>637.082</ele>
        <time>2017-09-23T09:21:08Z</time>
      </trkpt>
      <trkpt lat="41.210961" lon="-6.560816">
        <ele>636.544</ele>
        <time>2017-09-23T09:21:09Z</time>
      </trkpt>
      <trkpt lat="41.210909" lon="-6.560845">
        <ele>636.563</ele>
        <time>2017-09-23T09:21:10Z</time>
      </trkpt>
      <trkpt lat="41.210860" lon="-6.560885">
        <ele>636.067</ele>
        <time>2017-09-23T09:21:11Z</time>
      </trkpt>
      <trkpt lat="41.210810" lon="-6.560936">
        <ele>635.533</ele>
        <time>2017-09-23T09:21:12Z</time>
      </trkpt>
      <trkpt lat="41.210762" lon="-6.560992">
        <ele>635.047</ele>
        <time>2017-09-23T09:21:13Z</time>
      </trkpt>
      <trkpt lat="41.210513" lon="-6.561305">
        <ele>633.692</ele>
        <time>2017-09-23T09:21:18Z</time>
      </trkpt>
      <trkpt lat="41.210485" lon="-6.561386">
        <ele>633.173</ele>
        <time>2017-09-23T09:21:19Z</time>
      </trkpt>
      <trkpt lat="41.210471" lon="-6.561484">
        <ele>632.620</ele>
        <time>2017-09-23T09:21:20Z</time>
      </trkpt>
      <trkpt lat="41.210467" lon="-6.561585">
        <ele>631.708</ele>
        <time>2017-09-23T09:21:21Z</time>
      </trkpt>
      <trkpt lat="41.210463" lon="-6.561688">
        <ele>631.261</ele>
        <time>2017-09-23T09:21:22Z</time>
      </trkpt>
      <trkpt lat="41.210426" lon="-6.562166">
        <ele>626.989</ele>
        <time>2017-09-23T09:21:27Z</time>
      </trkpt>
      <trkpt lat="41.210063" lon="-6.563003">
        <ele>621.140</ele>
        <time>2017-09-23T09:21:37Z</time>
      </trkpt>
      <trkpt lat="41.209326" lon="-6.564145">
        <ele>613.442</ele>
        <time>2017-09-23T09:21:51Z</time>
      </trkpt>
      <trkpt lat="41.209278" lon="-6.564231">
        <ele>612.991</ele>
        <time>2017-09-23T09:21:52Z</time>
      </trkpt>
      <trkpt lat="41.209188" lon="-6.564400">
        <ele>612.075</ele>
        <time>2017-09-23T09:21:54Z</time>
      </trkpt>
      <trkpt lat="41.209135" lon="-6.564472">
        <ele>611.031</ele>
        <time>2017-09-23T09:21:55Z</time>
      </trkpt>
      <trkpt lat="41.209072" lon="-6.564540">
        <ele>610.535</ele>
        <time>2017-09-23T09:21:56Z</time>
      </trkpt>
      <trkpt lat="41.208998" lon="-6.564601">
        <ele>609.622</ele>
        <time>2017-09-23T09:21:57Z</time>
      </trkpt>
      <trkpt lat="41.208926" lon="-6.564651">
        <ele>608.662</ele>
        <time>2017-09-23T09:21:58Z</time>
      </trkpt>
      <trkpt lat="41.208850" lon="-6.564695">
        <ele>608.108</ele>
        <time>2017-09-23T09:21:59Z</time>
      </trkpt>
      <trkpt lat="41.208772" lon="-6.564729">
        <ele>607.208</ele>
        <time>2017-09-23T09:22:00Z</time>
      </trkpt>
      <trkpt lat="41.208698" lon="-6.564751">
        <ele>606.764</ele>
        <time>2017-09-23T09:22:01Z</time>
      </trkpt>
      <trkpt lat="41.208617" lon="-6.564759">
        <ele>606.262</ele>
        <time>2017-09-23T09:22:02Z</time>
      </trkpt>
      <trkpt lat="41.208537" lon="-6.564753">
        <ele>605.793</ele>
        <time>2017-09-23T09:22:03Z</time>
      </trkpt>
      <trkpt lat="41.208462" lon="-6.564736">
        <ele>605.725</ele>
        <time>2017-09-23T09:22:04Z</time>
      </trkpt>
      <trkpt lat="41.208391" lon="-6.564717">
        <ele>605.294</ele>
        <time>2017-09-23T09:22:05Z</time>
      </trkpt>
      <trkpt lat="41.208171" lon="-6.564691">
        <ele>603.878</ele>
        <time>2017-09-23T09:22:08Z</time>
      </trkpt>
      <trkpt lat="41.208101" lon="-6.564698">
        <ele>603.394</ele>
        <time>2017-09-23T09:22:09Z</time>
      </trkpt>
      <trkpt lat="41.208035" lon="-6.564718">
        <ele>602.898</ele>
        <time>2017-09-23T09:22:10Z</time>
      </trkpt>
      <trkpt lat="41.207972" lon="-6.564748">
        <ele>602.415</ele>
        <time>2017-09-23T09:22:11Z</time>
      </trkpt>
      <trkpt lat="41.207907" lon="-6.564779">
        <ele>601.965</ele>
        <time>2017-09-23T09:22:12Z</time>
      </trkpt>
      <trkpt lat="41.207763" lon="-6.564835">
        <ele>600.911</ele>
        <time>2017-09-23T09:22:14Z</time>
      </trkpt>
      <trkpt lat="41.207688" lon="-6.564849">
        <ele>600.408</ele>
        <time>2017-09-23T09:22:15Z</time>
      </trkpt>
      <trkpt lat="41.207611" lon="-6.564853">
        <ele>600.093</ele>
        <time>2017-09-23T09:22:16Z</time>
      </trkpt>
      <trkpt lat="41.207532" lon="-6.564848">
        <ele>599.511</ele>
        <time>2017-09-23T09:22:17Z</time>
      </trkpt>
      <trkpt lat="41.207449" lon="-6.564838">
        <ele>598.562</ele>
        <time>2017-09-23T09:22:18Z</time>
      </trkpt>
      <trkpt lat="41.206547" lon="-6.564538">
        <ele>595.134</ele>
        <time>2017-09-23T09:22:29Z</time>
      </trkpt>
      <trkpt lat="41.205999" lon="-6.564470">
        <ele>592.783</ele>
        <time>2017-09-23T09:22:36Z</time>
      </trkpt>
      <trkpt lat="41.205918" lon="-6.564486">
        <ele>592.357</ele>
        <time>2017-09-23T09:22:37Z</time>
      </trkpt>
      <trkpt lat="41.204871" lon="-6.564812">
        <ele>584.143</ele>
        <time>2017-09-23T09:22:49Z</time>
      </trkpt>
      <trkpt lat="41.204801" lon="-6.564849">
        <ele>583.667</ele>
        <time>2017-09-23T09:22:50Z</time>
      </trkpt>
      <trkpt lat="41.204735" lon="-6.564904">
        <ele>583.158</ele>
        <time>2017-09-23T09:22:51Z</time>
      </trkpt>
      <trkpt lat="41.204680" lon="-6.564970">
        <ele>583.152</ele>
        <time>2017-09-23T09:22:52Z</time>
      </trkpt>
      <trkpt lat="41.204632" lon="-6.565044">
        <ele>582.717</ele>
        <time>2017-09-23T09:22:53Z</time>
      </trkpt>
      <trkpt lat="41.204586" lon="-6.565125">
        <ele>582.708</ele>
        <time>2017-09-23T09:22:54Z</time>
      </trkpt>
      <trkpt lat="41.204342" lon="-6.565543">
        <ele>583.147</ele>
        <time>2017-09-23T09:23:00Z</time>
      </trkpt>
      <trkpt lat="41.204297" lon="-6.565589">
        <ele>583.625</ele>
        <time>2017-09-23T09:23:01Z</time>
      </trkpt>
      <trkpt lat="41.204251" lon="-6.565627">
        <ele>583.616</ele>
        <time>2017-09-23T09:23:02Z</time>
      </trkpt>
      <trkpt lat="41.204152" lon="-6.565690">
        <ele>583.668</ele>
        <time>2017-09-23T09:23:04Z</time>
      </trkpt>
      <trkpt lat="41.204102" lon="-6.565711">
        <ele>583.697</ele>
        <time>2017-09-23T09:23:05Z</time>
      </trkpt>
      <trkpt lat="41.204048" lon="-6.565728">
        <ele>583.161</ele>
        <time>2017-09-23T09:23:06Z</time>
      </trkpt>
      <trkpt lat="41.203774" lon="-6.565803">
        <ele>582.767</ele>
        <time>2017-09-23T09:23:11Z</time>
      </trkpt>
      <trkpt lat="41.203720" lon="-6.565836">
        <ele>582.711</ele>
        <time>2017-09-23T09:23:12Z</time>
      </trkpt>
      <trkpt lat="41.203237" lon="-6.566229">
        <ele>584.152</ele>
        <time>2017-09-23T09:23:25Z</time>
      </trkpt>
      <trkpt lat="41.202859" lon="-6.566538">
        <ele>581.253</ele>
        <time>2017-09-23T09:23:37Z</time>
      </trkpt>
      <trkpt lat="41.202819" lon="-6.566567">
        <ele>581.208</ele>
        <time>2017-09-23T09:23:38Z</time>
      </trkpt>
      <trkpt lat="41.202775" lon="-6.566590">
        <ele>580.708</ele>
        <time>2017-09-23T09:23:39Z</time>
      </trkpt>
      <trkpt lat="41.202726" lon="-6.566602">
        <ele>580.257</ele>
        <time>2017-09-23T09:23:40Z</time>
      </trkpt>
      <trkpt lat="41.202675" lon="-6.566596">
        <ele>579.825</ele>
        <time>2017-09-23T09:23:41Z</time>
      </trkpt>
      <trkpt lat="41.202622" lon="-6.566574">
        <ele>578.836</ele>
        <time>2017-09-23T09:23:42Z</time>
      </trkpt>
      <trkpt lat="41.202566" lon="-6.566544">
        <ele>578.398</ele>
        <time>2017-09-23T09:23:43Z</time>
      </trkpt>
      <trkpt lat="41.202511" lon="-6.566510">
        <ele>577.447</ele>
        <time>2017-09-23T09:23:44Z</time>
      </trkpt>
      <trkpt lat="41.202280" lon="-6.566309">
        <ele>575.091</ele>
        <time>2017-09-23T09:23:48Z</time>
      </trkpt>
      <trkpt lat="41.202225" lon="-6.566240">
        <ele>574.077</ele>
        <time>2017-09-23T09:23:49Z</time>
      </trkpt>
      <trkpt lat="41.202122" lon="-6.566087">
        <ele>572.681</ele>
        <time>2017-09-23T09:23:51Z</time>
      </trkpt>
      <trkpt lat="41.202081" lon="-6.566007">
        <ele>572.174</ele>
        <time>2017-09-23T09:23:52Z</time>
      </trkpt>
      <trkpt lat="41.201555" lon="-6.565052">
        <ele>565.356</ele>
        <time>2017-09-23T09:24:05Z</time>
      </trkpt>
      <trkpt lat="41.201402" lon="-6.564784">
        <ele>562.921</ele>
        <time>2017-09-23T09:24:09Z</time>
      </trkpt>
      <trkpt lat="41.201374" lon="-6.564715">
        <ele>562.508</ele>
        <time>2017-09-23T09:24:10Z</time>
      </trkpt>
      <trkpt lat="41.201352" lon="-6.564644">
        <ele>562.599</ele>
        <time>2017-09-23T09:24:11Z</time>
      </trkpt>
      <trkpt lat="41.201343" lon="-6.564568">
        <ele>562.097</ele>
        <time>2017-09-23T09:24:12Z</time>
      </trkpt>
      <trkpt lat="41.201344" lon="-6.564498">
        <ele>562.068</ele>
        <time>2017-09-23T09:24:13Z</time>
      </trkpt>
      <trkpt lat="41.201348" lon="-6.564431">
        <ele>562.010</ele>
        <time>2017-09-23T09:24:14Z</time>
      </trkpt>
      <trkpt lat="41.201344" lon="-6.564318">
        <ele>561.549</ele>
        <time>2017-09-23T09:24:16Z</time>
      </trkpt>
      <trkpt lat="41.201325" lon="-6.564286">
        <ele>561.593</ele>
        <time>2017-09-23T09:24:17Z</time>
      </trkpt>
      <trkpt lat="41.201295" lon="-6.564268">
        <ele>561.039</ele>
        <time>2017-09-23T09:24:18Z</time>
      </trkpt>
      <trkpt lat="41.201261" lon="-6.564265">
        <ele>560.593</ele>
        <time>2017-09-23T09:24:19Z</time>
      </trkpt>
      <trkpt lat="41.201228" lon="-6.564285">
        <ele>560.168</ele>
        <time>2017-09-23T09:24:20Z</time>
      </trkpt>
      <trkpt lat="41.201208" lon="-6.564329">
        <ele>559.642</ele>
        <time>2017-09-23T09:24:21Z</time>
      </trkpt>
      <trkpt lat="41.201205" lon="-6.564387">
        <ele>559.126</ele>
        <time>2017-09-23T09:24:22Z</time>
      </trkpt>
      <trkpt lat="41.201215" lon="-6.564451">
        <ele>558.608</ele>
        <time>2017-09-23T09:24:23Z</time>
      </trkpt>
      <trkpt lat="41.201231" lon="-6.564519">
        <ele>558.168</ele>
        <time>2017-09-23T09:24:24Z</time>
      </trkpt>
      <trkpt lat="41.201380" lon="-6.565528">
        <ele>550.036</ele>
        <time>2017-09-23T09:24:36Z</time>
      </trkpt>
      <trkpt lat="41.201560" lon="-6.566593">
        <ele>543.287</ele>
        <time>2017-09-23T09:24:49Z</time>
      </trkpt>
      <trkpt lat="41.201566" lon="-6.566672">
        <ele>542.859</ele>
        <time>2017-09-23T09:24:50Z</time>
      </trkpt>
      <trkpt lat="41.201559" lon="-6.566751">
        <ele>542.868</ele>
        <time>2017-09-23T09:24:51Z</time>
      </trkpt>
      <trkpt lat="41.201543" lon="-6.566835">
        <ele>542.362</ele>
        <time>2017-09-23T09:24:52Z</time>
      </trkpt>
      <trkpt lat="41.201520" lon="-6.566912">
        <ele>541.858</ele>
        <time>2017-09-23T09:24:53Z</time>
      </trkpt>
      <trkpt lat="41.201486" lon="-6.566990">
        <ele>541.862</ele>
        <time>2017-09-23T09:24:54Z</time>
      </trkpt>
      <trkpt lat="41.201450" lon="-6.567066">
        <ele>541.897</ele>
        <time>2017-09-23T09:24:55Z</time>
      </trkpt>
      <trkpt lat="41.201265" lon="-6.567487">
        <ele>542.323</ele>
        <time>2017-09-23T09:25:01Z</time>
      </trkpt>
      <trkpt lat="41.201237" lon="-6.567537">
        <ele>542.825</ele>
        <time>2017-09-23T09:25:02Z</time>
      </trkpt>
      <trkpt lat="41.201205" lon="-6.567580">
        <ele>542.808</ele>
        <time>2017-09-23T09:25:03Z</time>
      </trkpt>
      <trkpt lat="41.201164" lon="-6.567622">
        <ele>543.291</ele>
        <time>2017-09-23T09:25:04Z</time>
      </trkpt>
      <trkpt lat="41.201139" lon="-6.567639">
        <ele>543.769</ele>
        <time>2017-09-23T09:25:05Z</time>
      </trkpt>
      <trkpt lat="41.201111" lon="-6.567648">
        <ele>544.250</ele>
        <time>2017-09-23T09:25:06Z</time>
      </trkpt>
      <trkpt lat="41.201086" lon="-6.567649">
        <ele>544.212</ele>
        <time>2017-09-23T09:25:07Z</time>
      </trkpt>
      <trkpt lat="41.201065" lon="-6.567642">
        <ele>544.721</ele>
        <time>2017-09-23T09:25:08Z</time>
      </trkpt>
      <trkpt lat="41.201047" lon="-6.567636">
        <ele>544.755</ele>
        <time>2017-09-23T09:25:09Z</time>
      </trkpt>
      <trkpt lat="41.201028" lon="-6.567632">
        <ele>544.751</ele>
        <time>2017-09-23T09:25:10Z</time>
      </trkpt>
      <trkpt lat="41.200811" lon="-6.567406">
        <ele>544.765</ele>
        <time>2017-09-23T09:25:24Z</time>
      </trkpt>
      <trkpt lat="41.200645" lon="-6.567097">
        <ele>547.141</ele>
        <time>2017-09-23T09:25:39Z</time>
      </trkpt>
      <trkpt lat="41.200601" lon="-6.566681">
        <ele>550.081</ele>
        <time>2017-09-23T09:25:55Z</time>
      </trkpt>
      <trkpt lat="41.200506" lon="-6.566341">
        <ele>552.409</ele>
        <time>2017-09-23T09:26:11Z</time>
      </trkpt>
      <trkpt lat="41.200374" lon="-6.566101">
        <ele>554.808</ele>
        <time>2017-09-23T09:26:25Z</time>
      </trkpt>
      <trkpt lat="41.200260" lon="-6.565901">
        <ele>557.736</ele>
        <time>2017-09-23T09:26:37Z</time>
      </trkpt>
      <trkpt lat="41.200161" lon="-6.565636">
        <ele>559.134</ele>
        <time>2017-09-23T09:26:53Z</time>
      </trkpt>
      <trkpt lat="41.200099" lon="-6.565520">
        <ele>560.185</ele>
        <time>2017-09-23T09:27:01Z</time>
      </trkpt>
      <trkpt lat="41.199893" lon="-6.565387">
        <ele>560.127</ele>
        <time>2017-09-23T09:27:18Z</time>
      </trkpt>
      <trkpt lat="41.199853" lon="-6.565375">
        <ele>560.166</ele>
        <time>2017-09-23T09:27:21Z</time>
      </trkpt>
      <trkpt lat="41.199774" lon="-6.565401">
        <ele>561.580</ele>
        <time>2017-09-23T09:27:27Z</time>
      </trkpt>
      <trkpt lat="41.199764" lon="-6.565413">
        <ele>561.516</ele>
        <time>2017-09-23T09:27:28Z</time>
      </trkpt>
      <trkpt lat="41.199577" lon="-6.565589">
        <ele>563.950</ele>
        <time>2017-09-23T09:27:44Z</time>
      </trkpt>
      <trkpt lat="41.199347" lon="-6.565813">
        <ele>565.887</ele>
        <time>2017-09-23T09:28:04Z</time>
      </trkpt>
      <trkpt lat="41.199301" lon="-6.565869">
        <ele>565.842</ele>
        <time>2017-09-23T09:28:08Z</time>
      </trkpt>
      <trkpt lat="41.199289" lon="-6.565877">
        <ele>565.826</ele>
        <time>2017-09-23T09:28:09Z</time>
      </trkpt>
      <trkpt lat="41.199276" lon="-6.565881">
        <ele>566.308</ele>
        <time>2017-09-23T09:28:10Z</time>
      </trkpt>
      <trkpt lat="41.199265" lon="-6.565889">
        <ele>566.370</ele>
        <time>2017-09-23T09:28:11Z</time>
      </trkpt>
      <trkpt lat="41.199254" lon="-6.565899">
        <ele>566.878</ele>
        <time>2017-09-23T09:28:12Z</time>
      </trkpt>
      <trkpt lat="41.199238" lon="-6.565908">
        <ele>566.849</ele>
        <time>2017-09-23T09:28:13Z</time>
      </trkpt>
      <trkpt lat="41.199221" lon="-6.565913">
        <ele>567.311</ele>
        <time>2017-09-23T09:28:14Z</time>
      </trkpt>
      <trkpt lat="41.198978" lon="-6.565958">
        <ele>568.270</ele>
        <time>2017-09-23T09:28:31Z</time>
      </trkpt>
      <trkpt lat="41.198702" lon="-6.565818">
        <ele>568.234</ele>
        <time>2017-09-23T09:28:50Z</time>
      </trkpt>
      <trkpt lat="41.198459" lon="-6.565779">
        <ele>569.730</ele>
        <time>2017-09-23T09:29:06Z</time>
      </trkpt>
      <trkpt lat="41.198259" lon="-6.565859">
        <ele>572.684</ele>
        <time>2017-09-23T09:29:20Z</time>
      </trkpt>
      <trkpt lat="41.198081" lon="-6.566089">
        <ele>575.058</ele>
        <time>2017-09-23T09:29:36Z</time>
      </trkpt>
      <trkpt lat="41.198002" lon="-6.566442">
        <ele>577.452</ele>
        <time>2017-09-23T09:29:51Z</time>
      </trkpt>
      <trkpt lat="41.198084" lon="-6.566854">
        <ele>576.917</ele>
        <time>2017-09-23T09:30:09Z</time>
      </trkpt>
      <trkpt lat="41.198200" lon="-6.567247">
        <ele>579.308</ele>
        <time>2017-09-23T09:30:27Z</time>
      </trkpt>
      <trkpt lat="41.198302" lon="-6.567540">
        <ele>581.747</ele>
        <time>2017-09-23T09:30:43Z</time>
      </trkpt>
      <trkpt lat="41.198370" lon="-6.567730">
        <ele>583.155</ele>
        <time>2017-09-23T09:30:54Z</time>
      </trkpt>
      <trkpt lat="41.198491" lon="-6.568031">
        <ele>584.646</ele>
        <time>2017-09-23T09:31:12Z</time>
      </trkpt>
      <trkpt lat="41.198603" lon="-6.568309">
        <ele>586.018</ele>
        <time>2017-09-23T09:31:29Z</time>
      </trkpt>
      <trkpt lat="41.198716" lon="-6.568529">
        <ele>587.577</ele>
        <time>2017-09-23T09:31:43Z</time>
      </trkpt>
      <trkpt lat="41.198857" lon="-6.568824">
        <ele>590.311</ele>
        <time>2017-09-23T09:32:01Z</time>
      </trkpt>
      <trkpt lat="41.198966" lon="-6.569108">
        <ele>591.887</ele>
        <time>2017-09-23T09:32:17Z</time>
      </trkpt>
      <trkpt lat="41.198980" lon="-6.569165">
        <ele>591.871</ele>
        <time>2017-09-23T09:32:20Z</time>
      </trkpt>
      <trkpt lat="41.198981" lon="-6.569187">
        <ele>591.884</ele>
        <time>2017-09-23T09:32:21Z</time>
      </trkpt>
      <trkpt lat="41.198980" lon="-6.569207">
        <ele>591.807</ele>
        <time>2017-09-23T09:32:22Z</time>
      </trkpt>
      <trkpt lat="41.198980" lon="-6.569230">
        <ele>591.817</ele>
        <time>2017-09-23T09:32:23Z</time>
      </trkpt>
      <trkpt lat="41.198978" lon="-6.569249">
        <ele>591.808</ele>
        <time>2017-09-23T09:32:24Z</time>
      </trkpt>
      <trkpt lat="41.198976" lon="-6.569268">
        <ele>591.870</ele>
        <time>2017-09-23T09:32:25Z</time>
      </trkpt>
      <trkpt lat="41.198948" lon="-6.569345">
        <ele>592.368</ele>
        <time>2017-09-23T09:32:29Z</time>
      </trkpt>
      <trkpt lat="41.198936" lon="-6.569367">
        <ele>592.329</ele>
        <time>2017-09-23T09:32:30Z</time>
      </trkpt>
      <trkpt lat="41.198932" lon="-6.569388">
        <ele>592.341</ele>
        <time>2017-09-23T09:32:31Z</time>
      </trkpt>
      <trkpt lat="41.198927" lon="-6.569414">
        <ele>592.770</ele>
        <time>2017-09-23T09:32:32Z</time>
      </trkpt>
      <trkpt lat="41.198921" lon="-6.569433">
        <ele>592.784</ele>
        <time>2017-09-23T09:32:33Z</time>
      </trkpt>
      <trkpt lat="41.198913" lon="-6.569453">
        <ele>593.250</ele>
        <time>2017-09-23T09:32:34Z</time>
      </trkpt>
      <trkpt lat="41.198904" lon="-6.569469">
        <ele>593.214</ele>
        <time>2017-09-23T09:32:35Z</time>
      </trkpt>
      <trkpt lat="41.198896" lon="-6.569488">
        <ele>593.233</ele>
        <time>2017-09-23T09:32:36Z</time>
      </trkpt>
      <trkpt lat="41.198889" lon="-6.569503">
        <ele>593.223</ele>
        <time>2017-09-23T09:32:37Z</time>
      </trkpt>
      <trkpt lat="41.198879" lon="-6.569518">
        <ele>593.715</ele>
        <time>2017-09-23T09:32:38Z</time>
      </trkpt>
      <trkpt lat="41.198870" lon="-6.569528">
        <ele>593.708</ele>
        <time>2017-09-23T09:32:39Z</time>
      </trkpt>
      <trkpt lat="41.198854" lon="-6.569539">
        <ele>593.795</ele>
        <time>2017-09-23T09:32:40Z</time>
      </trkpt>
      <trkpt lat="41.198639" lon="-6.569670">
        <ele>596.123</ele>
        <time>2017-09-23T09:32:55Z</time>
      </trkpt>
      <trkpt lat="41.198543" lon="-6.569657">
        <ele>596.154</ele>
        <time>2017-09-23T09:33:01Z</time>
      </trkpt>
      <trkpt lat="41.198527" lon="-6.569653">
        <ele>596.646</ele>
        <time>2017-09-23T09:33:02Z</time>
      </trkpt>
      <trkpt lat="41.198512" lon="-6.569653">
        <ele>596.615</ele>
        <time>2017-09-23T09:33:03Z</time>
      </trkpt>
      <trkpt lat="41.198495" lon="-6.569652">
        <ele>596.649</ele>
        <time>2017-09-23T09:33:04Z</time>
      </trkpt>
      <trkpt lat="41.198481" lon="-6.569651">
        <ele>596.695</ele>
        <time>2017-09-23T09:33:05Z</time>
      </trkpt>
      <trkpt lat="41.198464" lon="-6.569651">
        <ele>596.689</ele>
        <time>2017-09-23T09:33:06Z</time>
      </trkpt>
      <trkpt lat="41.198446" lon="-6.569649">
        <ele>596.689</ele>
        <time>2017-09-23T09:33:07Z</time>
      </trkpt>
      <trkpt lat="41.198102" lon="-6.569706">
        <ele>598.506</ele>
        <time>2017-09-23T09:33:26Z</time>
      </trkpt>
      <trkpt lat="41.197838" lon="-6.569866">
        <ele>600.926</ele>
        <time>2017-09-23T09:33:42Z</time>
      </trkpt>
      <trkpt lat="41.197677" lon="-6.569991">
        <ele>602.408</ele>
        <time>2017-09-23T09:33:53Z</time>
      </trkpt>
      <trkpt lat="41.197657" lon="-6.570001">
        <ele>602.410</ele>
        <time>2017-09-23T09:33:54Z</time>
      </trkpt>
      <trkpt lat="41.197646" lon="-6.570014">
        <ele>602.478</ele>
        <time>2017-09-23T09:33:55Z</time>
      </trkpt>
      <trkpt lat="41.197634" lon="-6.570031">
        <ele>602.449</ele>
        <time>2017-09-23T09:33:56Z</time>
      </trkpt>
      <trkpt lat="41.197621" lon="-6.570045">
        <ele>602.481</ele>
        <time>2017-09-23T09:33:57Z</time>
      </trkpt>
      <trkpt lat="41.197607" lon="-6.570060">
        <ele>602.410</ele>
        <time>2017-09-23T09:33:58Z</time>
      </trkpt>
      <trkpt lat="41.197372" lon="-6.570312">
        <ele>603.894</ele>
        <time>2017-09-23T09:34:16Z</time>
      </trkpt>
      <trkpt lat="41.197193" lon="-6.570528">
        <ele>605.710</ele>
        <time>2017-09-23T09:34:31Z</time>
      </trkpt>
      <trkpt lat="41.197063" lon="-6.570761">
        <ele>606.764</ele>
        <time>2017-09-23T09:34:44Z</time>
      </trkpt>
      <trkpt lat="41.196910" lon="-6.571083">
        <ele>608.184</ele>
        <time>2017-09-23T09:35:02Z</time>
      </trkpt>
      <trkpt lat="41.196813" lon="-6.571349">
        <ele>610.507</ele>
        <time>2017-09-23T09:35:17Z</time>
      </trkpt>
      <trkpt lat="41.196743" lon="-6.571594">
        <ele>612.017</ele>
        <time>2017-09-23T09:35:31Z</time>
      </trkpt>
      <trkpt lat="41.196710" lon="-6.571910">
        <ele>612.508</ele>
        <time>2017-09-23T09:35:48Z</time>
      </trkpt>
      <trkpt lat="41.196700" lon="-6.572187">
        <ele>613.970</ele>
        <time>2017-09-23T09:36:03Z</time>
      </trkpt>
      <trkpt lat="41.196707" lon="-6.572207">
        <ele>613.918</ele>
        <time>2017-09-23T09:36:04Z</time>
      </trkpt>
      <trkpt lat="41.196712" lon="-6.572216">
        <ele>613.939</ele>
        <time>2017-09-23T09:36:05Z</time>
      </trkpt>
      <trkpt lat="41.196716" lon="-6.572230">
        <ele>613.911</ele>
        <time>2017-09-23T09:36:06Z</time>
      </trkpt>
      <trkpt lat="41.196709" lon="-6.572242">
        <ele>614.450</ele>
        <time>2017-09-23T09:36:19Z</time>
      </trkpt>
      <trkpt lat="41.196716" lon="-6.572236">
        <ele>613.424</ele>
        <time>2017-09-23T09:36:34Z</time>
      </trkpt>
      <trkpt lat="41.196716" lon="-6.572260">
        <ele>613.910</ele>
        <time>2017-09-23T09:37:08Z</time>
      </trkpt>
      <trkpt lat="41.196717" lon="-6.572232">
        <ele>612.514</ele>
        <time>2017-09-23T09:37:32Z</time>
      </trkpt>
      <trkpt lat="41.196727" lon="-6.572261">
        <ele>612.982</ele>
        <time>2017-09-23T09:37:40Z</time>
      </trkpt>
      <trkpt lat="41.196732" lon="-6.572272">
        <ele>613.443</ele>
        <time>2017-09-23T09:37:41Z</time>
      </trkpt>
      <trkpt lat="41.196738" lon="-6.572286">
        <ele>613.917</ele>
        <time>2017-09-23T09:37:42Z</time>
      </trkpt>
      <trkpt lat="41.196857" lon="-6.572486">
        <ele>615.808</ele>
        <time>2017-09-23T09:38:03Z</time>
      </trkpt>
      <trkpt lat="41.196857" lon="-6.572486">
        <ele>615.340</ele>
        <time>2017-09-23T09:38:35Z</time>
      </trkpt>
      <trkpt lat="41.196845" lon="-6.572477">
        <ele>616.378</ele>
        <time>2017-09-23T09:39:04Z</time>
      </trkpt>
      <trkpt lat="41.196835" lon="-6.572481">
        <ele>614.489</ele>
        <time>2017-09-23T09:39:38Z</time>
      </trkpt>
      <trkpt lat="41.196850" lon="-6.572477">
        <ele>615.891</ele>
        <time>2017-09-23T09:40:25Z</time>
      </trkpt>
      <trkpt lat="41.196848" lon="-6.572485">
        <ele>614.950</ele>
        <time>2017-09-23T09:40:45Z</time>
      </trkpt>
      <trkpt lat="41.196853" lon="-6.572478">
        <ele>613.944</ele>
        <time>2017-09-23T09:41:14Z</time>
      </trkpt>
      <trkpt lat="41.196867" lon="-6.572486">
        <ele>613.950</ele>
        <time>2017-09-23T09:41:40Z</time>
      </trkpt>
      <trkpt lat="41.196866" lon="-6.572512">
        <ele>614.994</ele>
        <time>2017-09-23T09:41:45Z</time>
      </trkpt>
      <trkpt lat="41.196869" lon="-6.572527">
        <ele>615.338</ele>
        <time>2017-09-23T09:41:46Z</time>
      </trkpt>
      <trkpt lat="41.196899" lon="-6.572587">
        <ele>615.870</ele>
        <time>2017-09-23T09:41:51Z</time>
      </trkpt>
      <trkpt lat="41.196902" lon="-6.572599">
        <ele>615.817</ele>
        <time>2017-09-23T09:41:52Z</time>
      </trkpt>
      <trkpt lat="41.196909" lon="-6.572613">
        <ele>615.808</ele>
        <time>2017-09-23T09:41:53Z</time>
      </trkpt>
      <trkpt lat="41.196917" lon="-6.572624">
        <ele>615.825</ele>
        <time>2017-09-23T09:41:54Z</time>
      </trkpt>
      <trkpt lat="41.196924" lon="-6.572634">
        <ele>616.313</ele>
        <time>2017-09-23T09:41:55Z</time>
      </trkpt>
      <trkpt lat="41.196933" lon="-6.572646">
        <ele>615.874</ele>
        <time>2017-09-23T09:41:56Z</time>
      </trkpt>
      <trkpt lat="41.197112" lon="-6.572889">
        <ele>616.896</ele>
        <time>2017-09-23T09:42:11Z</time>
      </trkpt>
      <trkpt lat="41.197382" lon="-6.573229">
        <ele>619.765</ele>
        <time>2017-09-23T09:42:31Z</time>
      </trkpt>
      <trkpt lat="41.197647" lon="-6.573375">
        <ele>622.189</ele>
        <time>2017-09-23T09:42:49Z</time>
      </trkpt>
      <trkpt lat="41.197929" lon="-6.573359">
        <ele>624.915</ele>
        <time>2017-09-23T09:43:08Z</time>
      </trkpt>
      <trkpt lat="41.198079" lon="-6.573272">
        <ele>626.969</ele>
        <time>2017-09-23T09:43:19Z</time>
      </trkpt>
      <trkpt lat="41.198093" lon="-6.573263">
        <ele>627.481</ele>
        <time>2017-09-23T09:43:20Z</time>
      </trkpt>
      <trkpt lat="41.198107" lon="-6.573252">
        <ele>627.461</ele>
        <time>2017-09-23T09:43:21Z</time>
      </trkpt>
      <trkpt lat="41.198344" lon="-6.573077">
        <ele>628.317</ele>
        <time>2017-09-23T09:43:38Z</time>
      </trkpt>
      <trkpt lat="41.198646" lon="-6.572981">
        <ele>628.808</ele>
        <time>2017-09-23T09:43:57Z</time>
      </trkpt>
      <trkpt lat="41.198897" lon="-6.572960">
        <ele>629.890</ele>
        <time>2017-09-23T09:44:13Z</time>
      </trkpt>
      <trkpt lat="41.198914" lon="-6.572962">
        <ele>630.228</ele>
        <time>2017-09-23T09:44:14Z</time>
      </trkpt>
      <trkpt lat="41.198930" lon="-6.572962">
        <ele>630.279</ele>
        <time>2017-09-23T09:44:15Z</time>
      </trkpt>
      <trkpt lat="41.199215" lon="-6.572961">
        <ele>631.251</ele>
        <time>2017-09-23T09:44:32Z</time>
      </trkpt>
      <trkpt lat="41.199493" lon="-6.573086">
        <ele>632.210</ele>
        <time>2017-09-23T09:44:47Z</time>
      </trkpt>
      <trkpt lat="41.199716" lon="-6.573336">
        <ele>634.174</ele>
        <time>2017-09-23T09:45:03Z</time>
      </trkpt>
      <trkpt lat="41.199892" lon="-6.573575">
        <ele>635.060</ele>
        <time>2017-09-23T09:45:17Z</time>
      </trkpt>
      <trkpt lat="41.200125" lon="-6.573857">
        <ele>635.584</ele>
        <time>2017-09-23T09:45:34Z</time>
      </trkpt>
      <trkpt lat="41.200427" lon="-6.574062">
        <ele>636.038</ele>
        <time>2017-09-23T09:45:52Z</time>
      </trkpt>
      <trkpt lat="41.200701" lon="-6.574216">
        <ele>637.470</ele>
        <time>2017-09-23T09:46:10Z</time>
      </trkpt>
      <trkpt lat="41.200969" lon="-6.574395">
        <ele>640.817</ele>
        <time>2017-09-23T09:46:29Z</time>
      </trkpt>
      <trkpt lat="41.201158" lon="-6.574647">
        <ele>642.708</ele>
        <time>2017-09-23T09:46:46Z</time>
      </trkpt>
      <trkpt lat="41.201267" lon="-6.574973">
        <ele>644.235</ele>
        <time>2017-09-23T09:47:03Z</time>
      </trkpt>
      <trkpt lat="41.201270" lon="-6.574996">
        <ele>644.743</ele>
        <time>2017-09-23T09:47:04Z</time>
      </trkpt>
      <trkpt lat="41.201276" lon="-6.575019">
        <ele>644.744</ele>
        <time>2017-09-23T09:47:05Z</time>
      </trkpt>
      <trkpt lat="41.201280" lon="-6.575038">
        <ele>644.746</ele>
        <time>2017-09-23T09:47:06Z</time>
      </trkpt>
      <trkpt lat="41.201283" lon="-6.575059">
        <ele>645.165</ele>
        <time>2017-09-23T09:47:07Z</time>
      </trkpt>
      <trkpt lat="41.201284" lon="-6.575079">
        <ele>645.149</ele>
        <time>2017-09-23T09:47:08Z</time>
      </trkpt>
      <trkpt lat="41.201262" lon="-6.575406">
        <ele>646.185</ele>
        <time>2017-09-23T09:47:23Z</time>
      </trkpt>
      <trkpt lat="41.201167" lon="-6.575695">
        <ele>647.149</ele>
        <time>2017-09-23T09:47:37Z</time>
      </trkpt>
      <trkpt lat="41.200990" lon="-6.576099">
        <ele>648.576</ele>
        <time>2017-09-23T09:47:53Z</time>
      </trkpt>
      <trkpt lat="41.200738" lon="-6.576690">
        <ele>649.990</ele>
        <time>2017-09-23T09:48:12Z</time>
      </trkpt>
      <trkpt lat="41.200521" lon="-6.577195">
        <ele>654.319</ele>
        <time>2017-09-23T09:48:31Z</time>
      </trkpt>
      <trkpt lat="41.200354" lon="-6.577569">
        <ele>656.208</ele>
        <time>2017-09-23T09:48:48Z</time>
      </trkpt>
      <trkpt lat="41.200179" lon="-6.577980">
        <ele>657.699</ele>
        <time>2017-09-23T09:49:08Z</time>
      </trkpt>
      <trkpt lat="41.200003" lon="-6.578385">
        <ele>658.147</ele>
        <time>2017-09-23T09:49:27Z</time>
      </trkpt>
      <trkpt lat="41.199864" lon="-6.578718">
        <ele>660.028</ele>
        <time>2017-09-23T09:49:43Z</time>
      </trkpt>
      <trkpt lat="41.199744" lon="-6.578992">
        <ele>660.530</ele>
        <time>2017-09-23T09:49:56Z</time>
      </trkpt>
      <trkpt lat="41.199583" lon="-6.579359">
        <ele>662.029</ele>
        <time>2017-09-23T09:50:13Z</time>
      </trkpt>
      <trkpt lat="41.199506" lon="-6.579726">
        <ele>662.093</ele>
        <time>2017-09-23T09:50:29Z</time>
      </trkpt>
      <trkpt lat="41.199571" lon="-6.580180">
        <ele>662.979</ele>
        <time>2017-09-23T09:50:48Z</time>
      </trkpt>
      <trkpt lat="41.199681" lon="-6.580520">
        <ele>664.433</ele>
        <time>2017-09-23T09:51:03Z</time>
      </trkpt>
      <trkpt lat="41.199831" lon="-6.580977">
        <ele>667.256</ele>
        <time>2017-09-23T09:51:23Z</time>
      </trkpt>
      <trkpt lat="41.199987" lon="-6.581432">
        <ele>669.759</ele>
        <time>2017-09-23T09:51:44Z</time>
      </trkpt>
      <trkpt lat="41.200127" lon="-6.581839">
        <ele>670.614</ele>
        <time>2017-09-23T09:52:03Z</time>
      </trkpt>
      <trkpt lat="41.200250" lon="-6.582192">
        <ele>672.108</ele>
        <time>2017-09-23T09:52:19Z</time>
      </trkpt>
      <trkpt lat="41.200394" lon="-6.582534">
        <ele>673.517</ele>
        <time>2017-09-23T09:52:35Z</time>
      </trkpt>
      <trkpt lat="41.200602" lon="-6.582977">
        <ele>673.025</ele>
        <time>2017-09-23T09:52:51Z</time>
      </trkpt>
      <trkpt lat="41.200866" lon="-6.583534">
        <ele>674.026</ele>
        <time>2017-09-23T09:53:08Z</time>
      </trkpt>
      <trkpt lat="41.201133" lon="-6.584105">
        <ele>674.948</ele>
        <time>2017-09-23T09:53:27Z</time>
      </trkpt>
      <trkpt lat="41.201397" lon="-6.584590">
        <ele>677.347</ele>
        <time>2017-09-23T09:53:46Z</time>
      </trkpt>
      <trkpt lat="41.201649" lon="-6.584930">
        <ele>680.251</ele>
        <time>2017-09-23T09:54:06Z</time>
      </trkpt>
      <trkpt lat="41.201873" lon="-6.585209">
        <ele>681.777</ele>
        <time>2017-09-23T09:54:25Z</time>
      </trkpt>
      <trkpt lat="41.202082" lon="-6.585504">
        <ele>684.141</ele>
        <time>2017-09-23T09:54:44Z</time>
      </trkpt>
      <trkpt lat="41.202223" lon="-6.585776">
        <ele>685.027</ele>
        <time>2017-09-23T09:54:59Z</time>
      </trkpt>
      <trkpt lat="41.202232" lon="-6.585792">
        <ele>685.068</ele>
        <time>2017-09-23T09:55:00Z</time>
      </trkpt>
      <trkpt lat="41.202245" lon="-6.585804">
        <ele>685.514</ele>
        <time>2017-09-23T09:55:01Z</time>
      </trkpt>
      <trkpt lat="41.202257" lon="-6.585820">
        <ele>685.508</ele>
        <time>2017-09-23T09:55:02Z</time>
      </trkpt>
      <trkpt lat="41.202268" lon="-6.585841">
        <ele>686.034</ele>
        <time>2017-09-23T09:55:03Z</time>
      </trkpt>
      <trkpt lat="41.202278" lon="-6.585866">
        <ele>686.052</ele>
        <time>2017-09-23T09:55:04Z</time>
      </trkpt>
      <trkpt lat="41.202288" lon="-6.585888">
        <ele>686.013</ele>
        <time>2017-09-23T09:55:05Z</time>
      </trkpt>
      <trkpt lat="41.202299" lon="-6.585906">
        <ele>686.035</ele>
        <time>2017-09-23T09:55:06Z</time>
      </trkpt>
      <trkpt lat="41.202309" lon="-6.585928">
        <ele>686.014</ele>
        <time>2017-09-23T09:55:07Z</time>
      </trkpt>
      <trkpt lat="41.202317" lon="-6.585950">
        <ele>686.068</ele>
        <time>2017-09-23T09:55:08Z</time>
      </trkpt>
      <trkpt lat="41.202522" lon="-6.586418">
        <ele>685.574</ele>
        <time>2017-09-23T09:55:26Z</time>
      </trkpt>
      <trkpt lat="41.202816" lon="-6.587031">
        <ele>685.098</ele>
        <time>2017-09-23T09:55:44Z</time>
      </trkpt>
      <trkpt lat="41.203210" lon="-6.587862">
        <ele>685.092</ele>
        <time>2017-09-23T09:56:02Z</time>
      </trkpt>
      <trkpt lat="41.203482" lon="-6.588533">
        <ele>687.073</ele>
        <time>2017-09-23T09:56:20Z</time>
      </trkpt>
      <trkpt lat="41.203587" lon="-6.588797">
        <ele>687.020</ele>
        <time>2017-09-23T09:56:35Z</time>
      </trkpt>
      <trkpt lat="41.203578" lon="-6.588815">
        <ele>688.908</ele>
        <time>2017-09-23T09:56:54Z</time>
      </trkpt>
      <trkpt lat="41.203571" lon="-6.588842">
        <ele>693.211</ele>
        <time>2017-09-23T09:57:42Z</time>
      </trkpt>
      <trkpt lat="41.203557" lon="-6.588824">
        <ele>692.759</ele>
        <time>2017-09-23T09:58:13Z</time>
      </trkpt>
      <trkpt lat="41.203569" lon="-6.588855">
        <ele>691.860</ele>
        <time>2017-09-23T09:58:37Z</time>
      </trkpt>
      <trkpt lat="41.203570" lon="-6.588846">
        <ele>689.842</ele>
        <time>2017-09-23T09:59:04Z</time>
      </trkpt>
      <trkpt lat="41.203593" lon="-6.588889">
        <ele>689.811</ele>
        <time>2017-09-23T09:59:17Z</time>
      </trkpt>
      <trkpt lat="41.203598" lon="-6.588903">
        <ele>690.325</ele>
        <time>2017-09-23T09:59:18Z</time>
      </trkpt>
      <trkpt lat="41.203607" lon="-6.588915">
        <ele>690.321</ele>
        <time>2017-09-23T09:59:19Z</time>
      </trkpt>
      <trkpt lat="41.203617" lon="-6.588927">
        <ele>690.385</ele>
        <time>2017-09-23T09:59:20Z</time>
      </trkpt>
      <trkpt lat="41.203627" lon="-6.588937">
        <ele>689.873</ele>
        <time>2017-09-23T09:59:21Z</time>
      </trkpt>
      <trkpt lat="41.203635" lon="-6.588947">
        <ele>689.885</ele>
        <time>2017-09-23T09:59:22Z</time>
      </trkpt>
      <trkpt lat="41.203642" lon="-6.588960">
        <ele>689.813</ele>
        <time>2017-09-23T09:59:23Z</time>
      </trkpt>
      <trkpt lat="41.203648" lon="-6.588971">
        <ele>689.808</ele>
        <time>2017-09-23T09:59:24Z</time>
      </trkpt>
      <trkpt lat="41.203653" lon="-6.588989">
        <ele>689.829</ele>
        <time>2017-09-23T09:59:25Z</time>
      </trkpt>
      <trkpt lat="41.203657" lon="-6.589009">
        <ele>689.837</ele>
        <time>2017-09-23T09:59:26Z</time>
      </trkpt>
      <trkpt lat="41.203823" lon="-6.589313">
        <ele>689.418</ele>
        <time>2017-09-23T09:59:38Z</time>
      </trkpt>
      <trkpt lat="41.203934" lon="-6.589345">
        <ele>689.420</ele>
        <time>2017-09-23T09:59:41Z</time>
      </trkpt>
      <trkpt lat="41.204024" lon="-6.589384">
        <ele>689.459</ele>
        <time>2017-09-23T09:59:43Z</time>
      </trkpt>
      <trkpt lat="41.204069" lon="-6.589411">
        <ele>689.463</ele>
        <time>2017-09-23T09:59:44Z</time>
      </trkpt>
      <trkpt lat="41.204112" lon="-6.589441">
        <ele>689.499</ele>
        <time>2017-09-23T09:59:45Z</time>
      </trkpt>
      <trkpt lat="41.204155" lon="-6.589479">
        <ele>689.473</ele>
        <time>2017-09-23T09:59:46Z</time>
      </trkpt>
      <trkpt lat="41.204196" lon="-6.589522">
        <ele>688.925</ele>
        <time>2017-09-23T09:59:47Z</time>
      </trkpt>
      <trkpt lat="41.204234" lon="-6.589570">
        <ele>688.926</ele>
        <time>2017-09-23T09:59:48Z</time>
      </trkpt>
      <trkpt lat="41.204272" lon="-6.589621">
        <ele>688.408</ele>
        <time>2017-09-23T09:59:49Z</time>
      </trkpt>
      <trkpt lat="41.204723" lon="-6.590404">
        <ele>683.608</ele>
        <time>2017-09-23T10:00:02Z</time>
      </trkpt>
      <trkpt lat="41.205160" lon="-6.591632">
        <ele>680.774</ele>
        <time>2017-09-23T10:00:16Z</time>
      </trkpt>
      <trkpt lat="41.205203" lon="-6.591687">
        <ele>680.732</ele>
        <time>2017-09-23T10:00:17Z</time>
      </trkpt>
      <trkpt lat="41.205248" lon="-6.591730">
        <ele>680.793</ele>
        <time>2017-09-23T10:00:18Z</time>
      </trkpt>
      <trkpt lat="41.205291" lon="-6.591758">
        <ele>681.285</ele>
        <time>2017-09-23T10:00:19Z</time>
      </trkpt>
      <trkpt lat="41.205329" lon="-6.591777">
        <ele>681.734</ele>
        <time>2017-09-23T10:00:20Z</time>
      </trkpt>
      <trkpt lat="41.205372" lon="-6.591786">
        <ele>681.798</ele>
        <time>2017-09-23T10:00:21Z</time>
      </trkpt>
      <trkpt lat="41.205399" lon="-6.591790">
        <ele>682.164</ele>
        <time>2017-09-23T10:00:22Z</time>
      </trkpt>
      <trkpt lat="41.205662" lon="-6.591801">
        <ele>684.148</ele>
        <time>2017-09-23T10:00:34Z</time>
      </trkpt>
      <trkpt lat="41.206052" lon="-6.591799">
        <ele>687.085</ele>
        <time>2017-09-23T10:00:52Z</time>
      </trkpt>
      <trkpt lat="41.206399" lon="-6.591801">
        <ele>688.489</ele>
        <time>2017-09-23T10:01:10Z</time>
      </trkpt>
      <trkpt lat="41.206755" lon="-6.591827">
        <ele>689.417</ele>
        <time>2017-09-23T10:01:27Z</time>
      </trkpt>
      <trkpt lat="41.207076" lon="-6.591891">
        <ele>690.308</ele>
        <time>2017-09-23T10:01:42Z</time>
      </trkpt>
      <trkpt lat="41.207483" lon="-6.592074">
        <ele>691.350</ele>
        <time>2017-09-23T10:01:59Z</time>
      </trkpt>
      <trkpt lat="41.207899" lon="-6.592382">
        <ele>692.288</ele>
        <time>2017-09-23T10:02:17Z</time>
      </trkpt>
      <trkpt lat="41.208330" lon="-6.592716">
        <ele>693.259</ele>
        <time>2017-09-23T10:02:36Z</time>
      </trkpt>
      <trkpt lat="41.208829" lon="-6.593101">
        <ele>694.641</ele>
        <time>2017-09-23T10:02:57Z</time>
      </trkpt>
      <trkpt lat="41.209246" lon="-6.593439">
        <ele>696.620</ele>
        <time>2017-09-23T10:03:15Z</time>
      </trkpt>
      <trkpt lat="41.209585" lon="-6.593801">
        <ele>698.594</ele>
        <time>2017-09-23T10:03:32Z</time>
      </trkpt>
      <trkpt lat="41.209892" lon="-6.594221">
        <ele>698.040</ele>
        <time>2017-09-23T10:03:49Z</time>
      </trkpt>
      <trkpt lat="41.210197" lon="-6.594824">
        <ele>697.544</ele>
        <time>2017-09-23T10:04:04Z</time>
      </trkpt>
      <trkpt lat="41.210531" lon="-6.595500">
        <ele>697.021</ele>
        <time>2017-09-23T10:04:21Z</time>
      </trkpt>
      <trkpt lat="41.210881" lon="-6.596209">
        <ele>697.541</ele>
        <time>2017-09-23T10:04:37Z</time>
      </trkpt>
      <trkpt lat="41.211211" lon="-6.596897">
        <ele>698.005</ele>
        <time>2017-09-23T10:04:53Z</time>
      </trkpt>
      <trkpt lat="41.211525" lon="-6.597539">
        <ele>699.008</ele>
        <time>2017-09-23T10:05:08Z</time>
      </trkpt>
      <trkpt lat="41.211854" lon="-6.598212">
        <ele>699.934</ele>
        <time>2017-09-23T10:05:26Z</time>
      </trkpt>
      <trkpt lat="41.212116" lon="-6.598748">
        <ele>699.932</ele>
        <time>2017-09-23T10:05:43Z</time>
      </trkpt>
      <trkpt lat="41.212400" lon="-6.599327">
        <ele>700.423</ele>
        <time>2017-09-23T10:05:59Z</time>
      </trkpt>
      <trkpt lat="41.212669" lon="-6.599880">
        <ele>701.945</ele>
        <time>2017-09-23T10:06:16Z</time>
      </trkpt>
      <trkpt lat="41.212832" lon="-6.600228">
        <ele>704.354</ele>
        <time>2017-09-23T10:06:32Z</time>
      </trkpt>
      <trkpt lat="41.212984" lon="-6.600549">
        <ele>705.728</ele>
        <time>2017-09-23T10:06:48Z</time>
      </trkpt>
      <trkpt lat="41.213169" lon="-6.600919">
        <ele>707.174</ele>
        <time>2017-09-23T10:07:07Z</time>
      </trkpt>
      <trkpt lat="41.213332" lon="-6.601252">
        <ele>707.188</ele>
        <time>2017-09-23T10:07:21Z</time>
      </trkpt>
      <trkpt lat="41.213524" lon="-6.601652">
        <ele>706.225</ele>
        <time>2017-09-23T10:07:32Z</time>
      </trkpt>
      <trkpt lat="41.213826" lon="-6.602268">
        <ele>705.226</ele>
        <time>2017-09-23T10:07:45Z</time>
      </trkpt>
      <trkpt lat="41.213997" lon="-6.602647">
        <ele>706.708</ele>
        <time>2017-09-23T10:07:58Z</time>
      </trkpt>
      <trkpt lat="41.214264" lon="-6.603198">
        <ele>706.208</ele>
        <time>2017-09-23T10:08:16Z</time>
      </trkpt>
      <trkpt lat="41.214528" lon="-6.603707">
        <ele>705.284</ele>
        <time>2017-09-23T10:08:30Z</time>
      </trkpt>
      <trkpt lat="41.214921" lon="-6.604440">
        <ele>702.342</ele>
        <time>2017-09-23T10:08:44Z</time>
      </trkpt>
      <trkpt lat="41.215242" lon="-6.605068">
        <ele>703.893</ele>
        <time>2017-09-23T10:08:55Z</time>
      </trkpt>
      <trkpt lat="41.215419" lon="-6.605447">
        <ele>706.215</ele>
        <time>2017-09-23T10:09:10Z</time>
      </trkpt>
      <trkpt lat="41.215580" lon="-6.605823">
        <ele>708.654</ele>
        <time>2017-09-23T10:09:27Z</time>
      </trkpt>
      <trkpt lat="41.215607" lon="-6.605879">
        <ele>709.148</ele>
        <time>2017-09-23T10:09:30Z</time>
      </trkpt>
      <trkpt lat="41.215778" lon="-6.606148">
        <ele>711.094</ele>
        <time>2017-09-23T10:09:46Z</time>
      </trkpt>
      <trkpt lat="41.215911" lon="-6.606404">
        <ele>712.458</ele>
        <time>2017-09-23T10:10:01Z</time>
      </trkpt>
      <trkpt lat="41.216054" lon="-6.606665">
        <ele>712.959</ele>
        <time>2017-09-23T10:10:17Z</time>
      </trkpt>
      <trkpt lat="41.216173" lon="-6.606924">
        <ele>714.803</ele>
        <time>2017-09-23T10:10:32Z</time>
      </trkpt>
      <trkpt lat="41.216186" lon="-6.606948">
        <ele>714.823</ele>
        <time>2017-09-23T10:10:33Z</time>
      </trkpt>
      <trkpt lat="41.216192" lon="-6.606961">
        <ele>714.808</ele>
        <time>2017-09-23T10:10:34Z</time>
      </trkpt>
      <trkpt lat="41.216202" lon="-6.606983">
        <ele>714.487</ele>
        <time>2017-09-23T10:10:35Z</time>
      </trkpt>
      <trkpt lat="41.216209" lon="-6.607006">
        <ele>714.455</ele>
        <time>2017-09-23T10:10:36Z</time>
      </trkpt>
      <trkpt lat="41.216217" lon="-6.607030">
        <ele>714.486</ele>
        <time>2017-09-23T10:10:37Z</time>
      </trkpt>
      <trkpt lat="41.216225" lon="-6.607054">
        <ele>714.898</ele>
        <time>2017-09-23T10:10:38Z</time>
      </trkpt>
      <trkpt lat="41.216233" lon="-6.607076">
        <ele>714.887</ele>
        <time>2017-09-23T10:10:39Z</time>
      </trkpt>
      <trkpt lat="41.216244" lon="-6.607098">
        <ele>714.861</ele>
        <time>2017-09-23T10:10:40Z</time>
      </trkpt>
      <trkpt lat="41.216252" lon="-6.607119">
        <ele>714.817</ele>
        <time>2017-09-23T10:10:41Z</time>
      </trkpt>
      <trkpt lat="41.216262" lon="-6.607143">
        <ele>714.421</ele>
        <time>2017-09-23T10:10:42Z</time>
      </trkpt>
      <trkpt lat="41.216272" lon="-6.607168">
        <ele>714.485</ele>
        <time>2017-09-23T10:10:43Z</time>
      </trkpt>
      <trkpt lat="41.216300" lon="-6.607247">
        <ele>714.489</ele>
        <time>2017-09-23T10:10:54Z</time>
      </trkpt>
      <trkpt lat="41.216296" lon="-6.607268">
        <ele>714.417</ele>
        <time>2017-09-23T10:10:56Z</time>
      </trkpt>
      <trkpt lat="41.216299" lon="-6.607287">
        <ele>714.408</ele>
        <time>2017-09-23T10:10:57Z</time>
      </trkpt>
      <trkpt lat="41.216307" lon="-6.607304">
        <ele>714.420</ele>
        <time>2017-09-23T10:10:58Z</time>
      </trkpt>
      <trkpt lat="41.216316" lon="-6.607323">
        <ele>714.438</ele>
        <time>2017-09-23T10:10:59Z</time>
      </trkpt>
      <trkpt lat="41.216324" lon="-6.607344">
        <ele>714.439</ele>
        <time>2017-09-23T10:11:00Z</time>
      </trkpt>
      <trkpt lat="41.216368" lon="-6.607445">
        <ele>714.841</ele>
        <time>2017-09-23T10:11:12Z</time>
      </trkpt>
      <trkpt lat="41.216360" lon="-6.607450">
        <ele>712.440</ele>
        <time>2017-09-23T10:11:36Z</time>
      </trkpt>
      <trkpt lat="41.216378" lon="-6.607458">
        <ele>712.964</ele>
        <time>2017-09-23T10:12:16Z</time>
      </trkpt>
      <trkpt lat="41.216384" lon="-6.607460">
        <ele>709.570</ele>
        <time>2017-09-23T10:12:47Z</time>
      </trkpt>
      <trkpt lat="41.216369" lon="-6.607454">
        <ele>711.544</ele>
        <time>2017-09-23T10:13:31Z</time>
      </trkpt>
      <trkpt lat="41.216369" lon="-6.607455">
        <ele>711.579</ele>
        <time>2017-09-23T10:14:04Z</time>
      </trkpt>
      <trkpt lat="41.216374" lon="-6.607451">
        <ele>711.005</ele>
        <time>2017-09-23T10:14:35Z</time>
      </trkpt>
      <trkpt lat="41.216386" lon="-6.607466">
        <ele>708.125</ele>
        <time>2017-09-23T10:15:12Z</time>
      </trkpt>
      <trkpt lat="41.216381" lon="-6.607461">
        <ele>709.508</ele>
        <time>2017-09-23T10:15:44Z</time>
      </trkpt>
      <trkpt lat="41.216374" lon="-6.607458">
        <ele>713.459</ele>
        <time>2017-09-23T10:16:18Z</time>
      </trkpt>
      <trkpt lat="41.216353" lon="-6.607419">
        <ele>714.477</ele>
        <time>2017-09-23T10:17:00Z</time>
      </trkpt>
      <trkpt lat="41.216356" lon="-6.607432">
        <ele>714.488</ele>
        <time>2017-09-23T10:17:45Z</time>
      </trkpt>
      <trkpt lat="41.216369" lon="-6.607422">
        <ele>713.410</ele>
        <time>2017-09-23T10:18:23Z</time>
      </trkpt>
      <trkpt lat="41.216355" lon="-6.607416">
        <ele>711.939</ele>
        <time>2017-09-23T10:18:58Z</time>
      </trkpt>
      <trkpt lat="41.216371" lon="-6.607440">
        <ele>712.453</ele>
        <time>2017-09-23T10:19:39Z</time>
      </trkpt>
      <trkpt lat="41.216373" lon="-6.607456">
        <ele>713.929</ele>
        <time>2017-09-23T10:20:13Z</time>
      </trkpt>
      <trkpt lat="41.216371" lon="-6.607458">
        <ele>712.413</ele>
        <time>2017-09-23T10:20:46Z</time>
      </trkpt>
      <trkpt lat="41.216372" lon="-6.607461">
        <ele>712.462</ele>
        <time>2017-09-23T10:20:56Z</time>
      </trkpt>
      <trkpt lat="41.216368" lon="-6.607476">
        <ele>712.483</ele>
        <time>2017-09-23T10:20:57Z</time>
      </trkpt>
      <trkpt lat="41.216358" lon="-6.607490">
        <ele>712.411</ele>
        <time>2017-09-23T10:20:58Z</time>
      </trkpt>
      <trkpt lat="41.216342" lon="-6.607495">
        <ele>712.408</ele>
        <time>2017-09-23T10:20:59Z</time>
      </trkpt>
      <trkpt lat="41.216327" lon="-6.607487">
        <ele>712.478</ele>
        <time>2017-09-23T10:21:00Z</time>
      </trkpt>
      <trkpt lat="41.216313" lon="-6.607466">
        <ele>712.966</ele>
        <time>2017-09-23T10:21:01Z</time>
      </trkpt>
      <trkpt lat="41.216307" lon="-6.607451">
        <ele>712.967</ele>
        <time>2017-09-23T10:21:02Z</time>
      </trkpt>
      <trkpt lat="41.216300" lon="-6.607429">
        <ele>712.979</ele>
        <time>2017-09-23T10:21:03Z</time>
      </trkpt>
      <trkpt lat="41.216296" lon="-6.607410">
        <ele>713.418</ele>
        <time>2017-09-23T10:21:04Z</time>
      </trkpt>
      <trkpt lat="41.216285" lon="-6.607386">
        <ele>713.452</ele>
        <time>2017-09-23T10:21:05Z</time>
      </trkpt>
      <trkpt lat="41.216274" lon="-6.607370">
        <ele>713.418</ele>
        <time>2017-09-23T10:21:06Z</time>
      </trkpt>
      <trkpt lat="41.216263" lon="-6.607347">
        <ele>713.462</ele>
        <time>2017-09-23T10:21:07Z</time>
      </trkpt>
      <trkpt lat="41.216255" lon="-6.607327">
        <ele>713.434</ele>
        <time>2017-09-23T10:21:08Z</time>
      </trkpt>
      <trkpt lat="41.216245" lon="-6.607307">
        <ele>713.955</ele>
        <time>2017-09-23T10:21:09Z</time>
      </trkpt>
      <trkpt lat="41.216173" lon="-6.607174">
        <ele>714.810</ele>
        <time>2017-09-23T10:21:17Z</time>
      </trkpt>
      <trkpt lat="41.216179" lon="-6.607155">
        <ele>714.808</ele>
        <time>2017-09-23T10:21:18Z</time>
      </trkpt>
      <trkpt lat="41.216189" lon="-6.607140">
        <ele>715.335</ele>
        <time>2017-09-23T10:21:19Z</time>
      </trkpt>
      <trkpt lat="41.216204" lon="-6.607138">
        <ele>715.353</ele>
        <time>2017-09-23T10:21:20Z</time>
      </trkpt>
      <trkpt lat="41.216219" lon="-6.607146">
        <ele>715.374</ele>
        <time>2017-09-23T10:21:21Z</time>
      </trkpt>
      <trkpt lat="41.216234" lon="-6.607163">
        <ele>715.876</ele>
        <time>2017-09-23T10:21:22Z</time>
      </trkpt>
      <trkpt lat="41.216244" lon="-6.607177">
        <ele>715.835</ele>
        <time>2017-09-23T10:21:23Z</time>
      </trkpt>
      <trkpt lat="41.216255" lon="-6.607199">
        <ele>715.829</ele>
        <time>2017-09-23T10:21:24Z</time>
      </trkpt>
      <trkpt lat="41.216266" lon="-6.607222">
        <ele>715.855</ele>
        <time>2017-09-23T10:21:25Z</time>
      </trkpt>
      <trkpt lat="41.216474" lon="-6.607760">
        <ele>714.479</ele>
        <time>2017-09-23T10:21:40Z</time>
      </trkpt>
      <trkpt lat="41.216738" lon="-6.608498">
        <ele>711.557</ele>
        <time>2017-09-23T10:21:53Z</time>
      </trkpt>
      <trkpt lat="41.216836" lon="-6.608767">
        <ele>710.000</ele>
        <time>2017-09-23T10:21:57Z</time>
      </trkpt>
      <trkpt lat="41.217167" lon="-6.609703">
        <ele>707.120</ele>
        <time>2017-09-23T10:22:11Z</time>
      </trkpt>
      <trkpt lat="41.217407" lon="-6.610464">
        <ele>706.208</ele>
        <time>2017-09-23T10:22:24Z</time>
      </trkpt>
      <trkpt lat="41.217441" lon="-6.610623">
        <ele>705.767</ele>
        <time>2017-09-23T10:22:27Z</time>
      </trkpt>
      <trkpt lat="41.217454" lon="-6.610675">
        <ele>705.785</ele>
        <time>2017-09-23T10:22:28Z</time>
      </trkpt>
      <trkpt lat="41.217466" lon="-6.610727">
        <ele>705.746</ele>
        <time>2017-09-23T10:22:29Z</time>
      </trkpt>
      <trkpt lat="41.217631" lon="-6.611498">
        <ele>705.238</ele>
        <time>2017-09-23T10:22:45Z</time>
      </trkpt>
      <trkpt lat="41.217772" lon="-6.612293">
        <ele>706.277</ele>
        <time>2017-09-23T10:23:04Z</time>
      </trkpt>
      <trkpt lat="41.217850" lon="-6.612919">
        <ele>705.271</ele>
        <time>2017-09-23T10:23:18Z</time>
      </trkpt>
      <trkpt lat="41.217839" lon="-6.613638">
        <ele>707.157</ele>
        <time>2017-09-23T10:23:32Z</time>
      </trkpt>
      <trkpt lat="41.217851" lon="-6.613917">
        <ele>707.161</ele>
        <time>2017-09-23T10:23:41Z</time>
      </trkpt>
      <trkpt lat="41.217844" lon="-6.613941">
        <ele>707.131</ele>
        <time>2017-09-23T10:23:42Z</time>
      </trkpt>
      <trkpt lat="41.217828" lon="-6.613987">
        <ele>706.761</ele>
        <time>2017-09-23T10:23:51Z</time>
      </trkpt>
      <trkpt lat="41.217831" lon="-6.614025">
        <ele>706.707</ele>
        <time>2017-09-23T10:24:05Z</time>
      </trkpt>
      <trkpt lat="41.217824" lon="-6.614032">
        <ele>707.608</ele>
        <time>2017-09-23T10:24:27Z</time>
      </trkpt>
      <trkpt lat="41.217829" lon="-6.614035">
        <ele>707.115</ele>
        <time>2017-09-23T10:24:54Z</time>
      </trkpt>
      <trkpt lat="41.217839" lon="-6.614041">
        <ele>709.573</ele>
        <time>2017-09-23T10:25:17Z</time>
      </trkpt>
      <trkpt lat="41.217810" lon="-6.614006">
        <ele>706.754</ele>
        <time>2017-09-23T10:25:50Z</time>
      </trkpt>
      <trkpt lat="41.217834" lon="-6.614031">
        <ele>706.216</ele>
        <time>2017-09-23T10:26:25Z</time>
      </trkpt>
      <trkpt lat="41.217848" lon="-6.614048">
        <ele>708.185</ele>
        <time>2017-09-23T10:27:00Z</time>
      </trkpt>
      <trkpt lat="41.217846" lon="-6.614039">
        <ele>709.159</ele>
        <time>2017-09-23T10:27:28Z</time>
      </trkpt>
      <trkpt lat="41.217811" lon="-6.614018">
        <ele>713.915</ele>
        <time>2017-09-23T10:27:56Z</time>
      </trkpt>
      <trkpt lat="41.217815" lon="-6.614019">
        <ele>713.449</ele>
        <time>2017-09-23T10:28:23Z</time>
      </trkpt>
      <trkpt lat="41.217806" lon="-6.614015">
        <ele>709.532</ele>
        <time>2017-09-23T10:28:51Z</time>
      </trkpt>
      <trkpt lat="41.217790" lon="-6.614009">
        <ele>710.592</ele>
        <time>2017-09-23T10:29:18Z</time>
      </trkpt>
      <trkpt lat="41.217796" lon="-6.614042">
        <ele>706.211</ele>
        <time>2017-09-23T10:29:38Z</time>
      </trkpt>
      <trkpt lat="41.217758" lon="-6.613981">
        <ele>702.808</ele>
        <time>2017-09-23T10:30:31Z</time>
      </trkpt>
      <trkpt lat="41.218099" lon="-6.613760">
        <ele>702.395</ele>
        <time>2017-09-23T10:30:42Z</time>
      </trkpt>
      <trkpt lat="41.218783" lon="-6.613437">
        <ele>699.983</ele>
        <time>2017-09-23T10:30:55Z</time>
      </trkpt>
      <trkpt lat="41.219549" lon="-6.614672">
        <ele>692.264</ele>
        <time>2017-09-23T10:32:51Z</time>
      </trkpt>
      <trkpt lat="41.219506" lon="-6.615258">
        <ele>691.366</ele>
        <time>2017-09-23T10:33:02Z</time>
      </trkpt>
      <trkpt lat="41.219515" lon="-6.615387">
        <ele>690.815</ele>
        <time>2017-09-23T10:33:04Z</time>
      </trkpt>
      <trkpt lat="41.219530" lon="-6.616279">
        <ele>687.089</ele>
        <time>2017-09-23T10:33:17Z</time>
      </trkpt>
      <trkpt lat="41.219512" lon="-6.617193">
        <ele>684.125</ele>
        <time>2017-09-23T10:33:31Z</time>
      </trkpt>
      <trkpt lat="41.219508" lon="-6.617247">
        <ele>684.189</ele>
        <time>2017-09-23T10:33:32Z</time>
      </trkpt>
      <trkpt lat="41.219493" lon="-6.617300">
        <ele>684.128</ele>
        <time>2017-09-23T10:33:33Z</time>
      </trkpt>
      <trkpt lat="41.219253" lon="-6.617997">
        <ele>681.289</ele>
        <time>2017-09-23T10:33:48Z</time>
      </trkpt>
      <trkpt lat="41.219122" lon="-6.618398">
        <ele>677.317</ele>
        <time>2017-09-23T10:34:01Z</time>
      </trkpt>
      <trkpt lat="41.218996" lon="-6.618757">
        <ele>674.908</ele>
        <time>2017-09-23T10:34:12Z</time>
      </trkpt>
      <trkpt lat="41.218813" lon="-6.619222">
        <ele>678.354</ele>
        <time>2017-09-23T10:34:25Z</time>
      </trkpt>
      <trkpt lat="41.218653" lon="-6.619490">
        <ele>683.672</ele>
        <time>2017-09-23T10:34:35Z</time>
      </trkpt>
      <trkpt lat="41.218647" lon="-6.619518">
        <ele>684.123</ele>
        <time>2017-09-23T10:34:36Z</time>
      </trkpt>
      <trkpt lat="41.218621" lon="-6.619592">
        <ele>686.085</ele>
        <time>2017-09-23T10:34:48Z</time>
      </trkpt>
      <trkpt lat="41.218595" lon="-6.619618">
        <ele>687.024</ele>
        <time>2017-09-23T10:34:56Z</time>
      </trkpt>
      <trkpt lat="41.218587" lon="-6.619634">
        <ele>687.048</ele>
        <time>2017-09-23T10:34:57Z</time>
      </trkpt>
      <trkpt lat="41.218577" lon="-6.619650">
        <ele>687.414</ele>
        <time>2017-09-23T10:34:58Z</time>
      </trkpt>
      <trkpt lat="41.218360" lon="-6.619805">
        <ele>689.888</ele>
        <time>2017-09-23T10:35:12Z</time>
      </trkpt>
      <trkpt lat="41.218347" lon="-6.619816">
        <ele>690.364</ele>
        <time>2017-09-23T10:35:13Z</time>
      </trkpt>
      <trkpt lat="41.218331" lon="-6.619824">
        <ele>690.306</ele>
        <time>2017-09-23T10:35:14Z</time>
      </trkpt>
      <trkpt lat="41.218313" lon="-6.619829">
        <ele>690.816</ele>
        <time>2017-09-23T10:35:15Z</time>
      </trkpt>
      <trkpt lat="41.218295" lon="-6.619831">
        <ele>690.808</ele>
        <time>2017-09-23T10:35:16Z</time>
      </trkpt>
      <trkpt lat="41.218279" lon="-6.619829">
        <ele>690.878</ele>
        <time>2017-09-23T10:35:17Z</time>
      </trkpt>
      <trkpt lat="41.218194" lon="-6.619845">
        <ele>689.476</ele>
        <time>2017-09-23T10:35:23Z</time>
      </trkpt>
      <trkpt lat="41.218167" lon="-6.619855">
        <ele>688.987</ele>
        <time>2017-09-23T10:35:25Z</time>
      </trkpt>
      <trkpt lat="41.218151" lon="-6.619855">
        <ele>688.419</ele>
        <time>2017-09-23T10:35:26Z</time>
      </trkpt>
      <trkpt lat="41.218135" lon="-6.619858">
        <ele>688.428</ele>
        <time>2017-09-23T10:35:27Z</time>
      </trkpt>
      <trkpt lat="41.218119" lon="-6.619861">
        <ele>687.982</ele>
        <time>2017-09-23T10:35:28Z</time>
      </trkpt>
      <trkpt lat="41.218104" lon="-6.619865">
        <ele>687.918</ele>
        <time>2017-09-23T10:35:29Z</time>
      </trkpt>
      <trkpt lat="41.218088" lon="-6.619868">
        <ele>687.412</ele>
        <time>2017-09-23T10:35:30Z</time>
      </trkpt>
      <trkpt lat="41.218075" lon="-6.619870">
        <ele>687.428</ele>
        <time>2017-09-23T10:35:31Z</time>
      </trkpt>
      <trkpt lat="41.217885" lon="-6.619888">
        <ele>687.489</ele>
        <time>2017-09-23T10:35:44Z</time>
      </trkpt>
      <trkpt lat="41.217725" lon="-6.619904">
        <ele>689.817</ele>
        <time>2017-09-23T10:35:56Z</time>
      </trkpt>
      <trkpt lat="41.217705" lon="-6.619903">
        <ele>690.308</ele>
        <time>2017-09-23T10:35:57Z</time>
      </trkpt>
      <trkpt lat="41.217473" lon="-6.619999">
        <ele>696.114</ele>
        <time>2017-09-23T10:36:08Z</time>
      </trkpt>
      <trkpt lat="41.216996" lon="-6.620197">
        <ele>699.922</ele>
        <time>2017-09-23T10:36:20Z</time>
      </trkpt>
      <trkpt lat="41.216602" lon="-6.620522">
        <ele>698.573</ele>
        <time>2017-09-23T10:36:33Z</time>
      </trkpt>
      <trkpt lat="41.216219" lon="-6.621066">
        <ele>695.125</ele>
        <time>2017-09-23T10:36:50Z</time>
      </trkpt>
      <trkpt lat="41.216024" lon="-6.621631">
        <ele>696.644</ele>
        <time>2017-09-23T10:37:06Z</time>
      </trkpt>
      <trkpt lat="41.215906" lon="-6.622087">
        <ele>698.038</ele>
        <time>2017-09-23T10:37:21Z</time>
      </trkpt>
      <trkpt lat="41.215823" lon="-6.622465">
        <ele>699.974</ele>
        <time>2017-09-23T10:37:35Z</time>
      </trkpt>
      <trkpt lat="41.215687" lon="-6.622860">
        <ele>700.478</ele>
        <time>2017-09-23T10:37:51Z</time>
      </trkpt>
      <trkpt lat="41.215463" lon="-6.623318">
        <ele>699.956</ele>
        <time>2017-09-23T10:38:09Z</time>
      </trkpt>
      <trkpt lat="41.215398" lon="-6.623729">
        <ele>700.959</ele>
        <time>2017-09-23T10:38:22Z</time>
      </trkpt>
      <trkpt lat="41.215450" lon="-6.624346">
        <ele>702.314</ele>
        <time>2017-09-23T10:38:37Z</time>
      </trkpt>
      <trkpt lat="41.215442" lon="-6.624522">
        <ele>703.808</ele>
        <time>2017-09-23T10:38:43Z</time>
      </trkpt>
      <trkpt lat="41.215431" lon="-6.624529">
        <ele>703.817</ele>
        <time>2017-09-23T10:38:44Z</time>
      </trkpt>
      <trkpt lat="41.215417" lon="-6.624525">
        <ele>703.345</ele>
        <time>2017-09-23T10:38:45Z</time>
      </trkpt>
      <trkpt lat="41.215411" lon="-6.624513">
        <ele>703.396</ele>
        <time>2017-09-23T10:38:46Z</time>
      </trkpt>
      <trkpt lat="41.215410" lon="-6.624497">
        <ele>703.338</ele>
        <time>2017-09-23T10:38:47Z</time>
      </trkpt>
      <trkpt lat="41.215410" lon="-6.624481">
        <ele>702.857</ele>
        <time>2017-09-23T10:38:48Z</time>
      </trkpt>
      <trkpt lat="41.215422" lon="-6.624476">
        <ele>701.421</ele>
        <time>2017-09-23T10:38:59Z</time>
      </trkpt>
      <trkpt lat="41.215425" lon="-6.624466">
        <ele>700.957</ele>
        <time>2017-09-23T10:39:40Z</time>
      </trkpt>
      <trkpt lat="41.215418" lon="-6.624457">
        <ele>700.421</ele>
        <time>2017-09-23T10:40:27Z</time>
      </trkpt>
      <trkpt lat="41.215400" lon="-6.624444">
        <ele>700.992</ele>
        <time>2017-09-23T10:41:24Z</time>
      </trkpt>
      <trkpt lat="41.215402" lon="-6.624428">
        <ele>700.973</ele>
        <time>2017-09-23T10:42:04Z</time>
      </trkpt>
      <trkpt lat="41.215405" lon="-6.624443">
        <ele>699.520</ele>
        <time>2017-09-23T10:42:41Z</time>
      </trkpt>
      <trkpt lat="41.215396" lon="-6.624458">
        <ele>698.508</ele>
        <time>2017-09-23T10:43:28Z</time>
      </trkpt>
      <trkpt lat="41.215401" lon="-6.624444">
        <ele>698.071</ele>
        <time>2017-09-23T10:44:11Z</time>
      </trkpt>
      <trkpt lat="41.215409" lon="-6.624467">
        <ele>700.469</ele>
        <time>2017-09-23T10:44:57Z</time>
      </trkpt>
      <trkpt lat="41.215427" lon="-6.624472">
        <ele>700.420</ele>
        <time>2017-09-23T10:45:09Z</time>
      </trkpt>
      <trkpt lat="41.215431" lon="-6.624482">
        <ele>699.512</ele>
        <time>2017-09-23T10:45:22Z</time>
      </trkpt>
      <trkpt lat="41.215425" lon="-6.624499">
        <ele>699.511</ele>
        <time>2017-09-23T10:45:23Z</time>
      </trkpt>
      <trkpt lat="41.215347" lon="-6.624891">
        <ele>701.415</ele>
        <time>2017-09-23T10:45:39Z</time>
      </trkpt>
      <trkpt lat="41.215226" lon="-6.625342">
        <ele>702.871</ele>
        <time>2017-09-23T10:45:54Z</time>
      </trkpt>
      <trkpt lat="41.215148" lon="-6.625677">
        <ele>704.785</ele>
        <time>2017-09-23T10:46:09Z</time>
      </trkpt>
      <trkpt lat="41.215084" lon="-6.625897">
        <ele>705.247</ele>
        <time>2017-09-23T10:46:20Z</time>
      </trkpt>
      <trkpt lat="41.215003" lon="-6.626284">
        <ele>707.629</ele>
        <time>2017-09-23T10:46:38Z</time>
      </trkpt>
      <trkpt lat="41.214932" lon="-6.626572">
        <ele>710.521</ele>
        <time>2017-09-23T10:46:54Z</time>
      </trkpt>
      <trkpt lat="41.214926" lon="-6.626606">
        <ele>711.008</ele>
        <time>2017-09-23T10:46:56Z</time>
      </trkpt>
      <trkpt lat="41.214920" lon="-6.626622">
        <ele>711.016</ele>
        <time>2017-09-23T10:46:57Z</time>
      </trkpt>
      <trkpt lat="41.214906" lon="-6.626692">
        <ele>711.544</ele>
        <time>2017-09-23T10:47:01Z</time>
      </trkpt>
      <trkpt lat="41.214899" lon="-6.626709">
        <ele>711.595</ele>
        <time>2017-09-23T10:47:02Z</time>
      </trkpt>
      <trkpt lat="41.214894" lon="-6.626727">
        <ele>711.547</ele>
        <time>2017-09-23T10:47:03Z</time>
      </trkpt>
      <trkpt lat="41.214848" lon="-6.626873">
        <ele>711.956</ele>
        <time>2017-09-23T10:47:12Z</time>
      </trkpt>
      <trkpt lat="41.214848" lon="-6.626892">
        <ele>711.930</ele>
        <time>2017-09-23T10:47:13Z</time>
      </trkpt>
      <trkpt lat="41.214796" lon="-6.627233">
        <ele>712.476</ele>
        <time>2017-09-23T10:47:29Z</time>
      </trkpt>
      <trkpt lat="41.214788" lon="-6.627255">
        <ele>712.430</ele>
        <time>2017-09-23T10:47:30Z</time>
      </trkpt>
      <trkpt lat="41.214780" lon="-6.627280">
        <ele>712.477</ele>
        <time>2017-09-23T10:47:31Z</time>
      </trkpt>
      <trkpt lat="41.214714" lon="-6.627650">
        <ele>712.961</ele>
        <time>2017-09-23T10:47:45Z</time>
      </trkpt>
      <trkpt lat="41.214602" lon="-6.628202">
        <ele>711.527</ele>
        <time>2017-09-23T10:48:04Z</time>
      </trkpt>
      <trkpt lat="41.214609" lon="-6.628681">
        <ele>712.408</ele>
        <time>2017-09-23T10:48:19Z</time>
      </trkpt>
      <trkpt lat="41.214688" lon="-6.629110">
        <ele>711.069</ele>
        <time>2017-09-23T10:48:27Z</time>
      </trkpt>
      <trkpt lat="41.214860" lon="-6.630648">
        <ele>707.167</ele>
        <time>2017-09-23T10:48:52Z</time>
      </trkpt>
      <trkpt lat="41.214733" lon="-6.631500">
        <ele>704.388</ele>
        <time>2017-09-23T10:49:08Z</time>
      </trkpt>
      <trkpt lat="41.214483" lon="-6.632129">
        <ele>702.310</ele>
        <time>2017-09-23T10:49:20Z</time>
      </trkpt>
      <trkpt lat="41.214358" lon="-6.632384">
        <ele>701.979</ele>
        <time>2017-09-23T10:49:25Z</time>
      </trkpt>
      <trkpt lat="41.214334" lon="-6.632439">
        <ele>701.443</ele>
        <time>2017-09-23T10:49:26Z</time>
      </trkpt>
      <trkpt lat="41.214313" lon="-6.632506">
        <ele>700.989</ele>
        <time>2017-09-23T10:49:27Z</time>
      </trkpt>
      <trkpt lat="41.214131" lon="-6.633410">
        <ele>700.993</ele>
        <time>2017-09-23T10:49:41Z</time>
      </trkpt>
      <trkpt lat="41.213969" lon="-6.634004">
        <ele>701.934</ele>
        <time>2017-09-23T10:49:57Z</time>
      </trkpt>
      <trkpt lat="41.213644" lon="-6.634633">
        <ele>698.555</ele>
        <time>2017-09-23T10:50:10Z</time>
      </trkpt>
      <trkpt lat="41.213236" lon="-6.635534">
        <ele>698.010</ele>
        <time>2017-09-23T10:50:26Z</time>
      </trkpt>
      <trkpt lat="41.213087" lon="-6.636205">
        <ele>699.908</ele>
        <time>2017-09-23T10:50:44Z</time>
      </trkpt>
      <trkpt lat="41.212943" lon="-6.636797">
        <ele>701.475</ele>
        <time>2017-09-23T10:51:03Z</time>
      </trkpt>
      <trkpt lat="41.212844" lon="-6.637287">
        <ele>702.323</ele>
        <time>2017-09-23T10:51:20Z</time>
      </trkpt>
      <trkpt lat="41.212765" lon="-6.637683">
        <ele>704.384</ele>
        <time>2017-09-23T10:51:36Z</time>
      </trkpt>
      <trkpt lat="41.212737" lon="-6.637802">
        <ele>704.396</ele>
        <time>2017-09-23T10:51:42Z</time>
      </trkpt>
      <trkpt lat="41.212728" lon="-6.637819">
        <ele>704.325</ele>
        <time>2017-09-23T10:51:43Z</time>
      </trkpt>
      <trkpt lat="41.212720" lon="-6.637839">
        <ele>704.789</ele>
        <time>2017-09-23T10:51:44Z</time>
      </trkpt>
      <trkpt lat="41.212593" lon="-6.638137">
        <ele>706.275</ele>
        <time>2017-09-23T10:52:01Z</time>
      </trkpt>
      <trkpt lat="41.212459" lon="-6.638419">
        <ele>707.189</ele>
        <time>2017-09-23T10:52:18Z</time>
      </trkpt>
      <trkpt lat="41.212343" lon="-6.638700">
        <ele>707.152</ele>
        <time>2017-09-23T10:52:33Z</time>
      </trkpt>
      <trkpt lat="41.212146" lon="-6.639118">
        <ele>707.653</ele>
        <time>2017-09-23T10:52:50Z</time>
      </trkpt>
      <trkpt lat="41.211878" lon="-6.639510">
        <ele>706.208</ele>
        <time>2017-09-23T10:53:04Z</time>
      </trkpt>
      <trkpt lat="41.211637" lon="-6.639998">
        <ele>705.708</ele>
        <time>2017-09-23T10:53:20Z</time>
      </trkpt>
      <trkpt lat="41.211361" lon="-6.640620">
        <ele>705.757</ele>
        <time>2017-09-23T10:53:36Z</time>
      </trkpt>
      <trkpt lat="41.211242" lon="-6.641274">
        <ele>707.125</ele>
        <time>2017-09-23T10:53:52Z</time>
      </trkpt>
      <trkpt lat="41.211122" lon="-6.641934">
        <ele>709.186</ele>
        <time>2017-09-23T10:54:10Z</time>
      </trkpt>
      <trkpt lat="41.210966" lon="-6.642594">
        <ele>710.538</ele>
        <time>2017-09-23T10:54:31Z</time>
      </trkpt>
      <trkpt lat="41.210867" lon="-6.643086">
        <ele>711.037</ele>
        <time>2017-09-23T10:54:49Z</time>
      </trkpt>
      <trkpt lat="41.210767" lon="-6.643480">
        <ele>712.971</ele>
        <time>2017-09-23T10:55:06Z</time>
      </trkpt>
      <trkpt lat="41.210682" lon="-6.643845">
        <ele>713.917</ele>
        <time>2017-09-23T10:55:21Z</time>
      </trkpt>
      <trkpt lat="41.210549" lon="-6.644239">
        <ele>715.881</ele>
        <time>2017-09-23T10:55:40Z</time>
      </trkpt>
      <trkpt lat="41.210441" lon="-6.644559">
        <ele>717.762</ele>
        <time>2017-09-23T10:55:56Z</time>
      </trkpt>
      <trkpt lat="41.210356" lon="-6.644865">
        <ele>718.783</ele>
        <time>2017-09-23T10:56:11Z</time>
      </trkpt>
      <trkpt lat="41.210257" lon="-6.645243">
        <ele>719.611</ele>
        <time>2017-09-23T10:56:28Z</time>
      </trkpt>
      <trkpt lat="41.210162" lon="-6.645586">
        <ele>720.108</ele>
        <time>2017-09-23T10:56:43Z</time>
      </trkpt>
      <trkpt lat="41.210057" lon="-6.645914">
        <ele>720.688</ele>
        <time>2017-09-23T10:56:59Z</time>
      </trkpt>
      <trkpt lat="41.209957" lon="-6.646272">
        <ele>721.696</ele>
        <time>2017-09-23T10:57:14Z</time>
      </trkpt>
      <trkpt lat="41.209882" lon="-6.646642">
        <ele>721.637</ele>
        <time>2017-09-23T10:57:29Z</time>
      </trkpt>
      <trkpt lat="41.209836" lon="-6.647096">
        <ele>723.089</ele>
        <time>2017-09-23T10:57:47Z</time>
      </trkpt>
      <trkpt lat="41.209773" lon="-6.647480">
        <ele>724.428</ele>
        <time>2017-09-23T10:58:03Z</time>
      </trkpt>
      <trkpt lat="41.209664" lon="-6.648044">
        <ele>721.162</ele>
        <time>2017-09-23T10:58:16Z</time>
      </trkpt>
      <trkpt lat="41.209478" lon="-6.648761">
        <ele>721.128</ele>
        <time>2017-09-23T10:58:31Z</time>
      </trkpt>
      <trkpt lat="41.209297" lon="-6.649289">
        <ele>722.032</ele>
        <time>2017-09-23T10:58:47Z</time>
      </trkpt>
      <trkpt lat="41.209094" lon="-6.649769">
        <ele>722.519</ele>
        <time>2017-09-23T10:59:03Z</time>
      </trkpt>
      <trkpt lat="41.208898" lon="-6.650269">
        <ele>722.009</ele>
        <time>2017-09-23T10:59:19Z</time>
      </trkpt>
      <trkpt lat="41.208860" lon="-6.650415">
        <ele>721.619</ele>
        <time>2017-09-23T10:59:22Z</time>
      </trkpt>
      <trkpt lat="41.208844" lon="-6.650470">
        <ele>721.608</ele>
        <time>2017-09-23T10:59:23Z</time>
      </trkpt>
      <trkpt lat="41.208832" lon="-6.650522">
        <ele>721.173</ele>
        <time>2017-09-23T10:59:24Z</time>
      </trkpt>
      <trkpt lat="41.208823" lon="-6.650578">
        <ele>721.151</ele>
        <time>2017-09-23T10:59:25Z</time>
      </trkpt>
      <trkpt lat="41.208815" lon="-6.650638">
        <ele>721.142</ele>
        <time>2017-09-23T10:59:26Z</time>
      </trkpt>
      <trkpt lat="41.208810" lon="-6.650691">
        <ele>721.174</ele>
        <time>2017-09-23T10:59:27Z</time>
      </trkpt>
      <trkpt lat="41.208808" lon="-6.650747">
        <ele>721.183</ele>
        <time>2017-09-23T10:59:28Z</time>
      </trkpt>
      <trkpt lat="41.208822" lon="-6.651392">
        <ele>721.117</ele>
        <time>2017-09-23T10:59:42Z</time>
      </trkpt>
      <trkpt lat="41.208816" lon="-6.651745">
        <ele>721.673</ele>
        <time>2017-09-23T10:59:53Z</time>
      </trkpt>
      <trkpt lat="41.208798" lon="-6.651767">
        <ele>721.687</ele>
        <time>2017-09-23T10:59:54Z</time>
      </trkpt>
      <trkpt lat="41.208776" lon="-6.651780">
        <ele>722.061</ele>
        <time>2017-09-23T10:59:55Z</time>
      </trkpt>
      <trkpt lat="41.208752" lon="-6.651788">
        <ele>722.021</ele>
        <time>2017-09-23T10:59:56Z</time>
      </trkpt>
      <trkpt lat="41.208730" lon="-6.651795">
        <ele>722.013</ele>
        <time>2017-09-23T10:59:57Z</time>
      </trkpt>
      <trkpt lat="41.208704" lon="-6.651800">
        <ele>722.508</ele>
        <time>2017-09-23T10:59:58Z</time>
      </trkpt>
      <trkpt lat="41.208682" lon="-6.651802">
        <ele>722.538</ele>
        <time>2017-09-23T10:59:59Z</time>
      </trkpt>
      <trkpt lat="41.208438" lon="-6.651703">
        <ele>723.566</ele>
        <time>2017-09-23T11:00:10Z</time>
      </trkpt>
      <trkpt lat="41.208428" lon="-6.651674">
        <ele>723.067</ele>
        <time>2017-09-23T11:00:11Z</time>
      </trkpt>
      <trkpt lat="41.208421" lon="-6.651625">
        <ele>723.069</ele>
        <time>2017-09-23T11:00:12Z</time>
      </trkpt>
      <trkpt lat="41.208422" lon="-6.651599">
        <ele>722.598</ele>
        <time>2017-09-23T11:00:13Z</time>
      </trkpt>
      <trkpt lat="41.208427" lon="-6.651553">
        <ele>722.552</ele>
        <time>2017-09-23T11:00:14Z</time>
      </trkpt>
      <trkpt lat="41.208436" lon="-6.651514">
        <ele>722.518</ele>
        <time>2017-09-23T11:00:15Z</time>
      </trkpt>
      <trkpt lat="41.208448" lon="-6.651472">
        <ele>722.522</ele>
        <time>2017-09-23T11:00:16Z</time>
      </trkpt>
      <trkpt lat="41.208510" lon="-6.650795">
        <ele>721.683</ele>
        <time>2017-09-23T11:00:32Z</time>
      </trkpt>
      <trkpt lat="41.208433" lon="-6.650461">
        <ele>721.625</ele>
        <time>2017-09-23T11:00:41Z</time>
      </trkpt>
      <trkpt lat="41.208106" lon="-6.650466">
        <ele>718.717</ele>
        <time>2017-09-23T11:00:53Z</time>
      </trkpt>
      <trkpt lat="41.207715" lon="-6.650637">
        <ele>718.208</ele>
        <time>2017-09-23T11:01:06Z</time>
      </trkpt>
      <trkpt lat="41.207379" lon="-6.650855">
        <ele>718.740</ele>
        <time>2017-09-23T11:01:20Z</time>
      </trkpt>
      <trkpt lat="41.207066" lon="-6.651191">
        <ele>719.678</ele>
        <time>2017-09-23T11:01:36Z</time>
      </trkpt>
      <trkpt lat="41.206715" lon="-6.651533">
        <ele>720.159</ele>
        <time>2017-09-23T11:01:56Z</time>
      </trkpt>
      <trkpt lat="41.206459" lon="-6.651709">
        <ele>720.651</ele>
        <time>2017-09-23T11:02:10Z</time>
      </trkpt>
      <trkpt lat="41.206048" lon="-6.651945">
        <ele>720.110</ele>
        <time>2017-09-23T11:02:23Z</time>
      </trkpt>
      <trkpt lat="41.205476" lon="-6.652299">
        <ele>718.744</ele>
        <time>2017-09-23T11:02:40Z</time>
      </trkpt>
      <trkpt lat="41.204997" lon="-6.652612">
        <ele>717.260</ele>
        <time>2017-09-23T11:02:55Z</time>
      </trkpt>
      <trkpt lat="41.204802" lon="-6.652754">
        <ele>716.364</ele>
        <time>2017-09-23T11:03:01Z</time>
      </trkpt>
      <trkpt lat="41.204765" lon="-6.652786">
        <ele>715.871</ele>
        <time>2017-09-23T11:03:02Z</time>
      </trkpt>
      <trkpt lat="41.204152" lon="-6.653294">
        <ele>715.341</ele>
        <time>2017-09-23T11:03:20Z</time>
      </trkpt>
      <trkpt lat="41.204003" lon="-6.653370">
        <ele>715.315</ele>
        <time>2017-09-23T11:03:25Z</time>
      </trkpt>
      <trkpt lat="41.203986" lon="-6.653414">
        <ele>715.308</ele>
        <time>2017-09-23T11:03:26Z</time>
      </trkpt>
      <trkpt lat="41.203970" lon="-6.653455">
        <ele>714.879</ele>
        <time>2017-09-23T11:03:27Z</time>
      </trkpt>
      <trkpt lat="41.203949" lon="-6.653496">
        <ele>714.867</ele>
        <time>2017-09-23T11:03:28Z</time>
      </trkpt>
      <trkpt lat="41.203927" lon="-6.653533">
        <ele>714.878</ele>
        <time>2017-09-23T11:03:29Z</time>
      </trkpt>
      <trkpt lat="41.203645" lon="-6.653966">
        <ele>717.270</ele>
        <time>2017-09-23T11:03:44Z</time>
      </trkpt>
      <trkpt lat="41.203452" lon="-6.654244">
        <ele>716.829</ele>
        <time>2017-09-23T11:03:57Z</time>
      </trkpt>
      <trkpt lat="41.203160" lon="-6.654643">
        <ele>716.873</ele>
        <time>2017-09-23T11:04:14Z</time>
      </trkpt>
      <trkpt lat="41.202885" lon="-6.654984">
        <ele>716.839</ele>
        <time>2017-09-23T11:04:30Z</time>
      </trkpt>
      <trkpt lat="41.202626" lon="-6.655316">
        <ele>719.253</ele>
        <time>2017-09-23T11:04:49Z</time>
      </trkpt>
      <trkpt lat="41.202346" lon="-6.655572">
        <ele>722.567</ele>
        <time>2017-09-23T11:05:09Z</time>
      </trkpt>
      <trkpt lat="41.202251" lon="-6.655626">
        <ele>723.081</ele>
        <time>2017-09-23T11:05:16Z</time>
      </trkpt>
      <trkpt lat="41.202135" lon="-6.655709">
        <ele>723.519</ele>
        <time>2017-09-23T11:05:24Z</time>
      </trkpt>
      <trkpt lat="41.202121" lon="-6.655722">
        <ele>723.508</ele>
        <time>2017-09-23T11:05:25Z</time>
      </trkpt>
      <trkpt lat="41.201853" lon="-6.655988">
        <ele>721.618</ele>
        <time>2017-09-23T11:05:38Z</time>
      </trkpt>
      <trkpt lat="41.201678" lon="-6.656194">
        <ele>719.636</ele>
        <time>2017-09-23T11:05:43Z</time>
      </trkpt>
      <trkpt lat="41.201650" lon="-6.656243">
        <ele>719.687</ele>
        <time>2017-09-23T11:05:44Z</time>
      </trkpt>
      <trkpt lat="41.201592" lon="-6.656347">
        <ele>718.759</ele>
        <time>2017-09-23T11:05:46Z</time>
      </trkpt>
      <trkpt lat="41.201562" lon="-6.656391">
        <ele>718.268</ele>
        <time>2017-09-23T11:05:47Z</time>
      </trkpt>
      <trkpt lat="41.201528" lon="-6.656430">
        <ele>718.252</ele>
        <time>2017-09-23T11:05:48Z</time>
      </trkpt>
      <trkpt lat="41.201047" lon="-6.656867">
        <ele>715.378</ele>
        <time>2017-09-23T11:05:58Z</time>
      </trkpt>
      <trkpt lat="41.201003" lon="-6.656917">
        <ele>715.312</ele>
        <time>2017-09-23T11:05:59Z</time>
      </trkpt>
      <trkpt lat="41.200965" lon="-6.656973">
        <ele>715.356</ele>
        <time>2017-09-23T11:06:00Z</time>
      </trkpt>
      <trkpt lat="41.200936" lon="-6.657031">
        <ele>714.859</ele>
        <time>2017-09-23T11:06:01Z</time>
      </trkpt>
      <trkpt lat="41.200908" lon="-6.657087">
        <ele>714.814</ele>
        <time>2017-09-23T11:06:02Z</time>
      </trkpt>
      <trkpt lat="41.200878" lon="-6.657139">
        <ele>714.808</ele>
        <time>2017-09-23T11:06:03Z</time>
      </trkpt>
      <trkpt lat="41.200542" lon="-6.657533">
        <ele>714.437</ele>
        <time>2017-09-23T11:06:15Z</time>
      </trkpt>
      <trkpt lat="41.199991" lon="-6.658073">
        <ele>715.385</ele>
        <time>2017-09-23T11:06:34Z</time>
      </trkpt>
      <trkpt lat="41.199611" lon="-6.658283">
        <ele>715.826</ele>
        <time>2017-09-23T11:06:47Z</time>
      </trkpt>
      <trkpt lat="41.199143" lon="-6.658250">
        <ele>712.428</ele>
        <time>2017-09-23T11:06:58Z</time>
      </trkpt>
      <trkpt lat="41.198708" lon="-6.658180">
        <ele>709.167</ele>
        <time>2017-09-23T11:07:09Z</time>
      </trkpt>
      <trkpt lat="41.198185" lon="-6.658143">
        <ele>706.261</ele>
        <time>2017-09-23T11:07:21Z</time>
      </trkpt>
      <trkpt lat="41.197665" lon="-6.658217">
        <ele>704.767</ele>
        <time>2017-09-23T11:07:34Z</time>
      </trkpt>
      <trkpt lat="41.197476" lon="-6.658698">
        <ele>703.361</ele>
        <time>2017-09-23T11:07:44Z</time>
      </trkpt>
      <trkpt lat="41.197401" lon="-6.658846">
        <ele>702.326</ele>
        <time>2017-09-23T11:07:47Z</time>
      </trkpt>
      <trkpt lat="41.197368" lon="-6.658886">
        <ele>702.347</ele>
        <time>2017-09-23T11:07:48Z</time>
      </trkpt>
      <trkpt lat="41.197183" lon="-6.659059">
        <ele>701.911</ele>
        <time>2017-09-23T11:07:54Z</time>
      </trkpt>
      <trkpt lat="41.197177" lon="-6.659106">
        <ele>701.408</ele>
        <time>2017-09-23T11:07:55Z</time>
      </trkpt>
      <trkpt lat="41.197182" lon="-6.659148">
        <ele>701.494</ele>
        <time>2017-09-23T11:07:56Z</time>
      </trkpt>
      <trkpt lat="41.197248" lon="-6.659313">
        <ele>700.432</ele>
        <time>2017-09-23T11:08:00Z</time>
      </trkpt>
      <trkpt lat="41.197271" lon="-6.659358">
        <ele>700.413</ele>
        <time>2017-09-23T11:08:01Z</time>
      </trkpt>
      <trkpt lat="41.197288" lon="-6.659408">
        <ele>700.425</ele>
        <time>2017-09-23T11:08:02Z</time>
      </trkpt>
      <trkpt lat="41.197297" lon="-6.659458">
        <ele>700.474</ele>
        <time>2017-09-23T11:08:03Z</time>
      </trkpt>
      <trkpt lat="41.197291" lon="-6.659504">
        <ele>700.458</ele>
        <time>2017-09-23T11:08:04Z</time>
      </trkpt>
      <trkpt lat="41.197273" lon="-6.659540">
        <ele>700.434</ele>
        <time>2017-09-23T11:08:05Z</time>
      </trkpt>
      <trkpt lat="41.197250" lon="-6.659571">
        <ele>700.478</ele>
        <time>2017-09-23T11:08:06Z</time>
      </trkpt>
      <trkpt lat="41.196885" lon="-6.659973">
        <ele>699.085</ele>
        <time>2017-09-23T11:08:20Z</time>
      </trkpt>
      <trkpt lat="41.196406" lon="-6.660501">
        <ele>698.589</ele>
        <time>2017-09-23T11:08:37Z</time>
      </trkpt>
      <trkpt lat="41.196027" lon="-6.661048">
        <ele>697.017</ele>
        <time>2017-09-23T11:08:52Z</time>
      </trkpt>
      <trkpt lat="41.195798" lon="-6.661580">
        <ele>697.008</ele>
        <time>2017-09-23T11:09:06Z</time>
      </trkpt>
      <trkpt lat="41.195664" lon="-6.662275">
        <ele>697.090</ele>
        <time>2017-09-23T11:09:22Z</time>
      </trkpt>
      <trkpt lat="41.195300" lon="-6.662572">
        <ele>697.078</ele>
        <time>2017-09-23T11:09:35Z</time>
      </trkpt>
      <trkpt lat="41.194866" lon="-6.662949">
        <ele>694.229</ele>
        <time>2017-09-23T11:09:50Z</time>
      </trkpt>
      <trkpt lat="41.194788" lon="-6.663517">
        <ele>691.331</ele>
        <time>2017-09-23T11:10:02Z</time>
      </trkpt>
      <trkpt lat="41.194777" lon="-6.663569">
        <ele>690.830</ele>
        <time>2017-09-23T11:10:03Z</time>
      </trkpt>
      <trkpt lat="41.194762" lon="-6.663620">
        <ele>690.894</ele>
        <time>2017-09-23T11:10:04Z</time>
      </trkpt>
      <trkpt lat="41.194725" lon="-6.663715">
        <ele>690.380</ele>
        <time>2017-09-23T11:10:06Z</time>
      </trkpt>
      <trkpt lat="41.194699" lon="-6.663764">
        <ele>689.834</ele>
        <time>2017-09-23T11:10:07Z</time>
      </trkpt>
      <trkpt lat="41.194390" lon="-6.664142">
        <ele>687.989</ele>
        <time>2017-09-23T11:10:16Z</time>
      </trkpt>
      <trkpt lat="41.194231" lon="-6.664347">
        <ele>688.406</ele>
        <time>2017-09-23T11:10:22Z</time>
      </trkpt>
      <trkpt lat="41.194237" lon="-6.664388">
        <ele>688.426</ele>
        <time>2017-09-23T11:10:23Z</time>
      </trkpt>
      <trkpt lat="41.194150" lon="-6.664683">
        <ele>687.408</ele>
        <time>2017-09-23T11:10:32Z</time>
      </trkpt>
      <trkpt lat="41.193881" lon="-6.664983">
        <ele>685.540</ele>
        <time>2017-09-23T11:10:41Z</time>
      </trkpt>
      <trkpt lat="41.193776" lon="-6.665388">
        <ele>682.668</ele>
        <time>2017-09-23T11:10:52Z</time>
      </trkpt>
      <trkpt lat="41.193846" lon="-6.665862">
        <ele>677.849</ele>
        <time>2017-09-23T11:11:03Z</time>
      </trkpt>
      <trkpt lat="41.193890" lon="-6.666210">
        <ele>674.581</ele>
        <time>2017-09-23T11:11:13Z</time>
      </trkpt>
      <trkpt lat="41.193965" lon="-6.666690">
        <ele>670.120</ele>
        <time>2017-09-23T11:11:23Z</time>
      </trkpt>
      <trkpt lat="41.193968" lon="-6.666756">
        <ele>669.774</ele>
        <time>2017-09-23T11:11:24Z</time>
      </trkpt>
      <trkpt lat="41.193960" lon="-6.666827">
        <ele>669.230</ele>
        <time>2017-09-23T11:11:25Z</time>
      </trkpt>
      <trkpt lat="41.193940" lon="-6.666898">
        <ele>668.794</ele>
        <time>2017-09-23T11:11:26Z</time>
      </trkpt>
      <trkpt lat="41.193908" lon="-6.666968">
        <ele>668.773</ele>
        <time>2017-09-23T11:11:27Z</time>
      </trkpt>
      <trkpt lat="41.193871" lon="-6.667037">
        <ele>668.285</ele>
        <time>2017-09-23T11:11:28Z</time>
      </trkpt>
      <trkpt lat="41.193804" lon="-6.667189">
        <ele>667.213</ele>
        <time>2017-09-23T11:11:30Z</time>
      </trkpt>
      <trkpt lat="41.193782" lon="-6.667262">
        <ele>667.208</ele>
        <time>2017-09-23T11:11:31Z</time>
      </trkpt>
      <trkpt lat="41.193765" lon="-6.667336">
        <ele>667.789</ele>
        <time>2017-09-23T11:11:32Z</time>
      </trkpt>
      <trkpt lat="41.193755" lon="-6.667404">
        <ele>667.727</ele>
        <time>2017-09-23T11:11:33Z</time>
      </trkpt>
      <trkpt lat="41.193752" lon="-6.667464">
        <ele>667.798</ele>
        <time>2017-09-23T11:11:34Z</time>
      </trkpt>
      <trkpt lat="41.193754" lon="-6.667511">
        <ele>668.250</ele>
        <time>2017-09-23T11:11:35Z</time>
      </trkpt>
      <trkpt lat="41.193757" lon="-6.667549">
        <ele>668.279</ele>
        <time>2017-09-23T11:11:36Z</time>
      </trkpt>
      <trkpt lat="41.193762" lon="-6.667581">
        <ele>668.733</ele>
        <time>2017-09-23T11:11:37Z</time>
      </trkpt>
      <trkpt lat="41.193768" lon="-6.667612">
        <ele>668.749</ele>
        <time>2017-09-23T11:11:38Z</time>
      </trkpt>
      <trkpt lat="41.193773" lon="-6.667644">
        <ele>669.233</ele>
        <time>2017-09-23T11:11:39Z</time>
      </trkpt>
      <trkpt lat="41.193855" lon="-6.667922">
        <ele>671.187</ele>
        <time>2017-09-23T11:11:52Z</time>
      </trkpt>
      <trkpt lat="41.193943" lon="-6.668231">
        <ele>674.542</ele>
        <time>2017-09-23T11:12:09Z</time>
      </trkpt>
      <trkpt lat="41.193961" lon="-6.668297">
        <ele>674.926</ele>
        <time>2017-09-23T11:12:13Z</time>
      </trkpt>
      <trkpt lat="41.193988" lon="-6.668386">
        <ele>675.908</ele>
        <time>2017-09-23T11:12:18Z</time>
      </trkpt>
      <trkpt lat="41.194017" lon="-6.668607">
        <ele>677.880</ele>
        <time>2017-09-23T11:12:31Z</time>
      </trkpt>
      <trkpt lat="41.194032" lon="-6.668743">
        <ele>679.328</ele>
        <time>2017-09-23T11:12:39Z</time>
      </trkpt>
      <trkpt lat="41.194020" lon="-6.668808">
        <ele>679.399</ele>
        <time>2017-09-23T11:12:43Z</time>
      </trkpt>
      <trkpt lat="41.193756" lon="-6.669197">
        <ele>676.981</ele>
        <time>2017-09-23T11:12:55Z</time>
      </trkpt>
      <trkpt lat="41.193684" lon="-6.669348">
        <ele>675.450</ele>
        <time>2017-09-23T11:12:59Z</time>
      </trkpt>
      <trkpt lat="41.193668" lon="-6.669397">
        <ele>674.974</ele>
        <time>2017-09-23T11:13:00Z</time>
      </trkpt>
      <trkpt lat="41.193565" lon="-6.669951">
        <ele>668.790</ele>
        <time>2017-09-23T11:13:13Z</time>
      </trkpt>
      <trkpt lat="41.193507" lon="-6.670464">
        <ele>662.994</ele>
        <time>2017-09-23T11:13:25Z</time>
      </trkpt>
      <trkpt lat="41.193411" lon="-6.670876">
        <ele>657.659</ele>
        <time>2017-09-23T11:13:36Z</time>
      </trkpt>
      <trkpt lat="41.193333" lon="-6.671056">
        <ele>656.203</ele>
        <time>2017-09-23T11:13:43Z</time>
      </trkpt>
      <trkpt lat="41.193329" lon="-6.671082">
        <ele>656.223</ele>
        <time>2017-09-23T11:13:44Z</time>
      </trkpt>
      <trkpt lat="41.193325" lon="-6.671106">
        <ele>655.708</ele>
        <time>2017-09-23T11:13:45Z</time>
      </trkpt>
      <trkpt lat="41.193319" lon="-6.671134">
        <ele>655.777</ele>
        <time>2017-09-23T11:13:46Z</time>
      </trkpt>
      <trkpt lat="41.193314" lon="-6.671165">
        <ele>655.235</ele>
        <time>2017-09-23T11:13:47Z</time>
      </trkpt>
      <trkpt lat="41.193142" lon="-6.671794">
        <ele>649.046</ele>
        <time>2017-09-23T11:13:59Z</time>
      </trkpt>
      <trkpt lat="41.193036" lon="-6.672211">
        <ele>646.148</ele>
        <time>2017-09-23T11:14:05Z</time>
      </trkpt>
      <trkpt lat="41.192961" lon="-6.672320">
        <ele>645.687</ele>
        <time>2017-09-23T11:14:08Z</time>
      </trkpt>
      <trkpt lat="41.192921" lon="-6.672332">
        <ele>645.121</ele>
        <time>2017-09-23T11:14:09Z</time>
      </trkpt>
      <trkpt lat="41.192875" lon="-6.672336">
        <ele>645.177</ele>
        <time>2017-09-23T11:14:10Z</time>
      </trkpt>
      <trkpt lat="41.192389" lon="-6.672361">
        <ele>641.371</ele>
        <time>2017-09-23T11:14:21Z</time>
      </trkpt>
      <trkpt lat="41.192091" lon="-6.672593">
        <ele>636.598</ele>
        <time>2017-09-23T11:14:31Z</time>
      </trkpt>
      <trkpt lat="41.191835" lon="-6.673152">
        <ele>631.215</ele>
        <time>2017-09-23T11:14:43Z</time>
      </trkpt>
      <trkpt lat="41.191577" lon="-6.673686">
        <ele>626.426</ele>
        <time>2017-09-23T11:14:56Z</time>
      </trkpt>
      <trkpt lat="41.191545" lon="-6.673717">
        <ele>625.908</ele>
        <time>2017-09-23T11:14:57Z</time>
      </trkpt>
      <trkpt lat="41.191189" lon="-6.674119">
        <ele>621.121</ele>
        <time>2017-09-23T11:15:11Z</time>
      </trkpt>
      <trkpt lat="41.191162" lon="-6.674171">
        <ele>620.179</ele>
        <time>2017-09-23T11:15:23Z</time>
      </trkpt>
      <trkpt lat="41.191154" lon="-6.674190">
        <ele>621.670</ele>
        <time>2017-09-23T11:15:48Z</time>
      </trkpt>
      <trkpt lat="41.191157" lon="-6.674201">
        <ele>622.182</ele>
        <time>2017-09-23T11:16:14Z</time>
      </trkpt>
      <trkpt lat="41.191069" lon="-6.674443">
        <ele>619.761</ele>
        <time>2017-09-23T11:16:26Z</time>
      </trkpt>
      <trkpt lat="41.190911" lon="-6.674856">
        <ele>614.495</ele>
        <time>2017-09-23T11:16:35Z</time>
      </trkpt>
      <trkpt lat="41.190824" lon="-6.675043">
        <ele>612.541</ele>
        <time>2017-09-23T11:16:39Z</time>
      </trkpt>
      <trkpt lat="41.190568" lon="-6.675608">
        <ele>605.745</ele>
        <time>2017-09-23T11:16:53Z</time>
      </trkpt>
      <trkpt lat="41.190311" lon="-6.675706">
        <ele>600.046</ele>
        <time>2017-09-23T11:17:04Z</time>
      </trkpt>
      <trkpt lat="41.189962" lon="-6.675597">
        <ele>593.288</ele>
        <time>2017-09-23T11:17:16Z</time>
      </trkpt>
      <trkpt lat="41.189900" lon="-6.675591">
        <ele>592.316</ele>
        <time>2017-09-23T11:17:19Z</time>
      </trkpt>
      <trkpt lat="41.189813" lon="-6.675566">
        <ele>589.908</ele>
        <time>2017-09-23T11:17:23Z</time>
      </trkpt>
      <trkpt lat="41.189802" lon="-6.675584">
        <ele>589.986</ele>
        <time>2017-09-23T11:17:24Z</time>
      </trkpt>
      <trkpt lat="41.189801" lon="-6.675609">
        <ele>589.984</ele>
        <time>2017-09-23T11:17:25Z</time>
      </trkpt>
      <trkpt lat="41.189855" lon="-6.675833">
        <ele>587.025</ele>
        <time>2017-09-23T11:17:37Z</time>
      </trkpt>
      <trkpt lat="41.189856" lon="-6.675872">
        <ele>586.567</ele>
        <time>2017-09-23T11:17:46Z</time>
      </trkpt>
      <trkpt lat="41.189886" lon="-6.675923">
        <ele>585.516</ele>
        <time>2017-09-23T11:17:53Z</time>
      </trkpt>
      <trkpt lat="41.189896" lon="-6.675936">
        <ele>585.130</ele>
        <time>2017-09-23T11:17:54Z</time>
      </trkpt>
      <trkpt lat="41.189905" lon="-6.675943">
        <ele>585.196</ele>
        <time>2017-09-23T11:17:55Z</time>
      </trkpt>
      <trkpt lat="41.189916" lon="-6.675949">
        <ele>585.170</ele>
        <time>2017-09-23T11:17:56Z</time>
      </trkpt>
      <trkpt lat="41.190020" lon="-6.676091">
        <ele>582.739</ele>
        <time>2017-09-23T11:18:09Z</time>
      </trkpt>
      <trkpt lat="41.190137" lon="-6.676261">
        <ele>582.201</ele>
        <time>2017-09-23T11:18:23Z</time>
      </trkpt>
      <trkpt lat="41.190298" lon="-6.676433">
        <ele>579.321</ele>
        <time>2017-09-23T11:18:39Z</time>
      </trkpt>
      <trkpt lat="41.190377" lon="-6.676571">
        <ele>576.408</ele>
        <time>2017-09-23T11:18:55Z</time>
      </trkpt>
      <trkpt lat="41.190356" lon="-6.676577">
        <ele>575.425</ele>
        <time>2017-09-23T11:18:58Z</time>
      </trkpt>
      <trkpt lat="41.190271" lon="-6.676566">
        <ele>575.073</ele>
        <time>2017-09-23T11:19:07Z</time>
      </trkpt>
      <trkpt lat="41.190174" lon="-6.676574">
        <ele>573.054</ele>
        <time>2017-09-23T11:19:18Z</time>
      </trkpt>
      <trkpt lat="41.190161" lon="-6.676604">
        <ele>572.626</ele>
        <time>2017-09-23T11:19:21Z</time>
      </trkpt>
      <trkpt lat="41.190187" lon="-6.676626">
        <ele>572.645</ele>
        <time>2017-09-23T11:19:25Z</time>
      </trkpt>
      <trkpt lat="41.190254" lon="-6.676655">
        <ele>571.679</ele>
        <time>2017-09-23T11:19:33Z</time>
      </trkpt>
      <trkpt lat="41.190281" lon="-6.676682">
        <ele>570.655</ele>
        <time>2017-09-23T11:19:36Z</time>
      </trkpt>
      <trkpt lat="41.190307" lon="-6.676697">
        <ele>570.259</ele>
        <time>2017-09-23T11:19:39Z</time>
      </trkpt>
      <trkpt lat="41.190315" lon="-6.676708">
        <ele>570.219</ele>
        <time>2017-09-23T11:19:40Z</time>
      </trkpt>
      <trkpt lat="41.190364" lon="-6.676848">
        <ele>567.309</ele>
        <time>2017-09-23T11:19:54Z</time>
      </trkpt>
      <trkpt lat="41.190364" lon="-6.676828">
        <ele>569.219</ele>
        <time>2017-09-23T11:20:36Z</time>
      </trkpt>
      <trkpt lat="41.190351" lon="-6.676850">
        <ele>569.708</ele>
        <time>2017-09-23T11:21:01Z</time>
      </trkpt>
      <trkpt lat="41.190360" lon="-6.676847">
        <ele>568.743</ele>
        <time>2017-09-23T11:21:33Z</time>
      </trkpt>
      <trkpt lat="41.190351" lon="-6.676894">
        <ele>567.891</ele>
        <time>2017-09-23T11:21:58Z</time>
      </trkpt>
      <trkpt lat="41.190483" lon="-6.677008">
        <ele>564.492</ele>
        <time>2017-09-23T11:22:12Z</time>
      </trkpt>
      <trkpt lat="41.190649" lon="-6.677119">
        <ele>562.574</ele>
        <time>2017-09-23T11:22:29Z</time>
      </trkpt>
      <trkpt lat="41.190756" lon="-6.677256">
        <ele>559.673</ele>
        <time>2017-09-23T11:22:43Z</time>
      </trkpt>
      <trkpt lat="41.190891" lon="-6.677412">
        <ele>557.267</ele>
        <time>2017-09-23T11:22:59Z</time>
      </trkpt>
      <trkpt lat="41.190944" lon="-6.677518">
        <ele>554.333</ele>
        <time>2017-09-23T11:23:14Z</time>
      </trkpt>
      <trkpt lat="41.190920" lon="-6.677503">
        <ele>553.897</ele>
        <time>2017-09-23T11:23:18Z</time>
      </trkpt>
      <trkpt lat="41.190783" lon="-6.677453">
        <ele>551.476</ele>
        <time>2017-09-23T11:23:32Z</time>
      </trkpt>
      <trkpt lat="41.190716" lon="-6.677442">
        <ele>550.490</ele>
        <time>2017-09-23T11:23:44Z</time>
      </trkpt>
      <trkpt lat="41.190602" lon="-6.677415">
        <ele>549.019</ele>
        <time>2017-09-23T11:23:55Z</time>
      </trkpt>
      <trkpt lat="41.190551" lon="-6.677420">
        <ele>548.008</ele>
        <time>2017-09-23T11:24:09Z</time>
      </trkpt>
      <trkpt lat="41.190526" lon="-6.677460">
        <ele>547.189</ele>
        <time>2017-09-23T11:24:28Z</time>
      </trkpt>
      <trkpt lat="41.190534" lon="-6.677499">
        <ele>546.167</ele>
        <time>2017-09-23T11:24:32Z</time>
      </trkpt>
      <trkpt lat="41.190637" lon="-6.677540">
        <ele>542.818</ele>
        <time>2017-09-23T11:24:45Z</time>
      </trkpt>
      <trkpt lat="41.190709" lon="-6.677647">
        <ele>539.940</ele>
        <time>2017-09-23T11:24:58Z</time>
      </trkpt>
      <trkpt lat="41.190691" lon="-6.677647">
        <ele>539.469</ele>
        <time>2017-09-23T11:25:00Z</time>
      </trkpt>
      <trkpt lat="41.190565" lon="-6.677638">
        <ele>537.553</ele>
        <time>2017-09-23T11:25:11Z</time>
      </trkpt>
      <trkpt lat="41.190557" lon="-6.677647">
        <ele>537.099</ele>
        <time>2017-09-23T11:25:12Z</time>
      </trkpt>
      <trkpt lat="41.190551" lon="-6.677672">
        <ele>536.593</ele>
        <time>2017-09-23T11:25:14Z</time>
      </trkpt>
      <trkpt lat="41.190553" lon="-6.677689">
        <ele>536.549</ele>
        <time>2017-09-23T11:25:15Z</time>
      </trkpt>
      <trkpt lat="41.190577" lon="-6.677704">
        <ele>536.002</ele>
        <time>2017-09-23T11:25:18Z</time>
      </trkpt>
      <trkpt lat="41.190696" lon="-6.677729">
        <ele>534.622</ele>
        <time>2017-09-23T11:25:30Z</time>
      </trkpt>
      <trkpt lat="41.190774" lon="-6.677800">
        <ele>532.208</ele>
        <time>2017-09-23T11:25:44Z</time>
      </trkpt>
      <trkpt lat="41.190726" lon="-6.677803">
        <ele>531.276</ele>
        <time>2017-09-23T11:25:49Z</time>
      </trkpt>
      <trkpt lat="41.190716" lon="-6.677801">
        <ele>530.794</ele>
        <time>2017-09-23T11:25:50Z</time>
      </trkpt>
      <trkpt lat="41.190671" lon="-6.677804">
        <ele>530.375</ele>
        <time>2017-09-23T11:26:03Z</time>
      </trkpt>
      <trkpt lat="41.190670" lon="-6.677819">
        <ele>531.227</ele>
        <time>2017-09-23T11:26:35Z</time>
      </trkpt>
      <trkpt lat="41.190656" lon="-6.677828">
        <ele>531.216</ele>
        <time>2017-09-23T11:27:12Z</time>
      </trkpt>
      <trkpt lat="41.190648" lon="-6.677822">
        <ele>529.810</ele>
        <time>2017-09-23T11:27:47Z</time>
      </trkpt>
      <trkpt lat="41.190676" lon="-6.677845">
        <ele>530.786</ele>
        <time>2017-09-23T11:28:03Z</time>
      </trkpt>
      <trkpt lat="41.190687" lon="-6.677849">
        <ele>530.760</ele>
        <time>2017-09-23T11:28:04Z</time>
      </trkpt>
      <trkpt lat="41.190698" lon="-6.677850">
        <ele>530.777</ele>
        <time>2017-09-23T11:28:05Z</time>
      </trkpt>
      <trkpt lat="41.190711" lon="-6.677850">
        <ele>530.361</ele>
        <time>2017-09-23T11:28:06Z</time>
      </trkpt>
      <trkpt lat="41.190789" lon="-6.677888">
        <ele>529.327</ele>
        <time>2017-09-23T11:28:13Z</time>
      </trkpt>
      <trkpt lat="41.190822" lon="-6.677955">
        <ele>527.408</ele>
        <time>2017-09-23T11:28:18Z</time>
      </trkpt>
      <trkpt lat="41.190909" lon="-6.678112">
        <ele>524.559</ele>
        <time>2017-09-23T11:28:30Z</time>
      </trkpt>
      <trkpt lat="41.191019" lon="-6.678282">
        <ele>521.127</ele>
        <time>2017-09-23T11:28:46Z</time>
      </trkpt>
      <trkpt lat="41.191023" lon="-6.678298">
        <ele>520.688</ele>
        <time>2017-09-23T11:28:47Z</time>
      </trkpt>
      <trkpt lat="41.191060" lon="-6.678490">
        <ele>516.880</ele>
        <time>2017-09-23T11:29:02Z</time>
      </trkpt>
      <trkpt lat="41.191119" lon="-6.678686">
        <ele>513.989</ele>
        <time>2017-09-23T11:29:15Z</time>
      </trkpt>
      <trkpt lat="41.191200" lon="-6.678888">
        <ele>513.433</ele>
        <time>2017-09-23T11:29:28Z</time>
      </trkpt>
      <trkpt lat="41.191296" lon="-6.679047">
        <ele>512.519</ele>
        <time>2017-09-23T11:29:42Z</time>
      </trkpt>
      <trkpt lat="41.191302" lon="-6.679059">
        <ele>512.093</ele>
        <time>2017-09-23T11:29:43Z</time>
      </trkpt>
      <trkpt lat="41.191321" lon="-6.679162">
        <ele>510.126</ele>
        <time>2017-09-23T11:29:56Z</time>
      </trkpt>
      <trkpt lat="41.191295" lon="-6.679131">
        <ele>509.647</ele>
        <time>2017-09-23T11:30:00Z</time>
      </trkpt>
      <trkpt lat="41.191238" lon="-6.679112">
        <ele>508.611</ele>
        <time>2017-09-23T11:30:15Z</time>
      </trkpt>
      <trkpt lat="41.191250" lon="-6.679134">
        <ele>507.708</ele>
        <time>2017-09-23T11:30:19Z</time>
      </trkpt>
      <trkpt lat="41.191285" lon="-6.679213">
        <ele>506.774</ele>
        <time>2017-09-23T11:30:31Z</time>
      </trkpt>
      <trkpt lat="41.191299" lon="-6.679269">
        <ele>505.382</ele>
        <time>2017-09-23T11:30:37Z</time>
      </trkpt>
      <trkpt lat="41.191293" lon="-6.679271">
        <ele>506.293</ele>
        <time>2017-09-23T11:30:52Z</time>
      </trkpt>
      <trkpt lat="41.191208" lon="-6.679199">
        <ele>502.995</ele>
        <time>2017-09-23T11:31:07Z</time>
      </trkpt>
      <trkpt lat="41.191181" lon="-6.679201">
        <ele>501.934</ele>
        <time>2017-09-23T11:31:18Z</time>
      </trkpt>
      <trkpt lat="41.191191" lon="-6.679238">
        <ele>501.488</ele>
        <time>2017-09-23T11:31:22Z</time>
      </trkpt>
      <trkpt lat="41.191191" lon="-6.679432">
        <ele>498.164</ele>
        <time>2017-09-23T11:31:36Z</time>
      </trkpt>
      <trkpt lat="41.191150" lon="-6.679403">
        <ele>497.658</ele>
        <time>2017-09-23T11:31:50Z</time>
      </trkpt>
      <trkpt lat="41.191118" lon="-6.679298">
        <ele>494.264</ele>
        <time>2017-09-23T11:32:03Z</time>
      </trkpt>
      <trkpt lat="41.191109" lon="-6.679345">
        <ele>493.206</ele>
        <time>2017-09-23T11:32:16Z</time>
      </trkpt>
      <trkpt lat="41.191098" lon="-6.679544">
        <ele>493.716</ele>
        <time>2017-09-23T11:32:30Z</time>
      </trkpt>
      <trkpt lat="41.191093" lon="-6.679599">
        <ele>492.808</ele>
        <time>2017-09-23T11:32:34Z</time>
      </trkpt>
      <trkpt lat="41.191089" lon="-6.679615">
        <ele>492.828</ele>
        <time>2017-09-23T11:32:35Z</time>
      </trkpt>
      <trkpt lat="41.191084" lon="-6.679633">
        <ele>492.856</ele>
        <time>2017-09-23T11:32:36Z</time>
      </trkpt>
      <trkpt lat="41.191082" lon="-6.679649">
        <ele>492.897</ele>
        <time>2017-09-23T11:32:37Z</time>
      </trkpt>
      <trkpt lat="41.191083" lon="-6.679667">
        <ele>492.379</ele>
        <time>2017-09-23T11:32:38Z</time>
      </trkpt>
      <trkpt lat="41.191084" lon="-6.679683">
        <ele>492.398</ele>
        <time>2017-09-23T11:32:39Z</time>
      </trkpt>
      <trkpt lat="41.191082" lon="-6.679698">
        <ele>492.332</ele>
        <time>2017-09-23T11:32:40Z</time>
      </trkpt>
      <trkpt lat="41.191082" lon="-6.679712">
        <ele>492.378</ele>
        <time>2017-09-23T11:32:41Z</time>
      </trkpt>
      <trkpt lat="41.191083" lon="-6.679728">
        <ele>492.352</ele>
        <time>2017-09-23T11:32:42Z</time>
      </trkpt>
      <trkpt lat="41.191102" lon="-6.679814">
        <ele>490.887</ele>
        <time>2017-09-23T11:32:50Z</time>
      </trkpt>
      <trkpt lat="41.191227" lon="-6.679888">
        <ele>488.942</ele>
        <time>2017-09-23T11:33:04Z</time>
      </trkpt>
      <trkpt lat="41.191293" lon="-6.679879">
        <ele>487.526</ele>
        <time>2017-09-23T11:33:17Z</time>
      </trkpt>
      <trkpt lat="41.191320" lon="-6.679876">
        <ele>487.508</ele>
        <time>2017-09-23T11:33:20Z</time>
      </trkpt>
      <trkpt lat="41.191330" lon="-6.679872">
        <ele>487.060</ele>
        <time>2017-09-23T11:33:21Z</time>
      </trkpt>
      <trkpt lat="41.191341" lon="-6.679867">
        <ele>486.578</ele>
        <time>2017-09-23T11:33:22Z</time>
      </trkpt>
      <trkpt lat="41.191466" lon="-6.679825">
        <ele>483.679</ele>
        <time>2017-09-23T11:33:36Z</time>
      </trkpt>
      <trkpt lat="41.191571" lon="-6.679839">
        <ele>479.381</ele>
        <time>2017-09-23T11:33:50Z</time>
      </trkpt>
      <trkpt lat="41.191612" lon="-6.679856">
        <ele>479.350</ele>
        <time>2017-09-23T11:33:57Z</time>
      </trkpt>
      <trkpt lat="41.191611" lon="-6.679869">
        <ele>479.384</ele>
        <time>2017-09-23T11:33:58Z</time>
      </trkpt>
      <trkpt lat="41.191578" lon="-6.679899">
        <ele>478.320</ele>
        <time>2017-09-23T11:34:03Z</time>
      </trkpt>
      <trkpt lat="41.191546" lon="-6.679936">
        <ele>477.414</ele>
        <time>2017-09-23T11:34:08Z</time>
      </trkpt>
      <trkpt lat="41.191539" lon="-6.679947">
        <ele>477.469</ele>
        <time>2017-09-23T11:34:09Z</time>
      </trkpt>
      <trkpt lat="41.191532" lon="-6.679961">
        <ele>477.404</ele>
        <time>2017-09-23T11:34:10Z</time>
      </trkpt>
      <trkpt lat="41.191568" lon="-6.679976">
        <ele>477.424</ele>
        <time>2017-09-23T11:34:19Z</time>
      </trkpt>
      <trkpt lat="41.191577" lon="-6.679971">
        <ele>476.908</ele>
        <time>2017-09-23T11:34:20Z</time>
      </trkpt>
      <trkpt lat="41.191725" lon="-6.679929">
        <ele>473.528</ele>
        <time>2017-09-23T11:34:35Z</time>
      </trkpt>
      <trkpt lat="41.191785" lon="-6.679901">
        <ele>471.676</ele>
        <time>2017-09-23T11:34:46Z</time>
      </trkpt>
      <trkpt lat="41.191795" lon="-6.679892">
        <ele>471.187</ele>
        <time>2017-09-23T11:34:47Z</time>
      </trkpt>
      <trkpt lat="41.191870" lon="-6.679861">
        <ele>469.239</ele>
        <time>2017-09-23T11:34:56Z</time>
      </trkpt>
      <trkpt lat="41.191895" lon="-6.679864">
        <ele>469.248</ele>
        <time>2017-09-23T11:34:58Z</time>
      </trkpt>
      <trkpt lat="41.192050" lon="-6.679972">
        <ele>468.772</ele>
        <time>2017-09-23T11:35:13Z</time>
      </trkpt>
      <trkpt lat="41.192048" lon="-6.679972">
        <ele>469.798</ele>
        <time>2017-09-23T11:35:26Z</time>
      </trkpt>
      <trkpt lat="41.192035" lon="-6.679972">
        <ele>470.222</ele>
        <time>2017-09-23T11:35:41Z</time>
      </trkpt>
      <trkpt lat="41.192050" lon="-6.680004">
        <ele>470.715</ele>
        <time>2017-09-23T11:36:07Z</time>
      </trkpt>
      <trkpt lat="41.192077" lon="-6.680046">
        <ele>468.365</ele>
        <time>2017-09-23T11:36:22Z</time>
      </trkpt>
      <trkpt lat="41.192085" lon="-6.680069">
        <ele>466.811</ele>
        <time>2017-09-23T11:36:33Z</time>
      </trkpt>
      <trkpt lat="41.192086" lon="-6.680087">
        <ele>466.808</ele>
        <time>2017-09-23T11:36:34Z</time>
      </trkpt>
      <trkpt lat="41.192091" lon="-6.680102">
        <ele>466.863</ele>
        <time>2017-09-23T11:36:35Z</time>
      </trkpt>
      <trkpt lat="41.192153" lon="-6.680296">
        <ele>463.461</ele>
        <time>2017-09-23T11:36:51Z</time>
      </trkpt>
      <trkpt lat="41.192214" lon="-6.680377">
        <ele>461.022</ele>
        <time>2017-09-23T11:37:03Z</time>
      </trkpt>
      <trkpt lat="41.192223" lon="-6.680387">
        <ele>460.614</ele>
        <time>2017-09-23T11:37:04Z</time>
      </trkpt>
      <trkpt lat="41.192232" lon="-6.680402">
        <ele>460.663</ele>
        <time>2017-09-23T11:37:05Z</time>
      </trkpt>
      <trkpt lat="41.192239" lon="-6.680411">
        <ele>460.117</ele>
        <time>2017-09-23T11:37:06Z</time>
      </trkpt>
      <trkpt lat="41.192287" lon="-6.680484">
        <ele>458.223</ele>
        <time>2017-09-23T11:37:17Z</time>
      </trkpt>
      <trkpt lat="41.192375" lon="-6.680586">
        <ele>457.227</ele>
        <time>2017-09-23T11:37:30Z</time>
      </trkpt>
      <trkpt lat="41.192524" lon="-6.680762">
        <ele>455.381</ele>
        <time>2017-09-23T11:37:45Z</time>
      </trkpt>
      <trkpt lat="41.192545" lon="-6.680810">
        <ele>454.361</ele>
        <time>2017-09-23T11:37:49Z</time>
      </trkpt>
      <trkpt lat="41.192550" lon="-6.680824">
        <ele>454.317</ele>
        <time>2017-09-23T11:37:50Z</time>
      </trkpt>
      <trkpt lat="41.192558" lon="-6.680838">
        <ele>454.308</ele>
        <time>2017-09-23T11:37:51Z</time>
      </trkpt>
      <trkpt lat="41.192565" lon="-6.680850">
        <ele>454.310</ele>
        <time>2017-09-23T11:37:52Z</time>
      </trkpt>
      <trkpt lat="41.192574" lon="-6.680863">
        <ele>454.368</ele>
        <time>2017-09-23T11:37:53Z</time>
      </trkpt>
      <trkpt lat="41.192657" lon="-6.680991">
        <ele>452.489</ele>
        <time>2017-09-23T11:38:07Z</time>
      </trkpt>
      <trkpt lat="41.192688" lon="-6.681055">
        <ele>451.981</ele>
        <time>2017-09-23T11:38:19Z</time>
      </trkpt>
      <trkpt lat="41.192721" lon="-6.681131">
        <ele>454.860</ele>
        <time>2017-09-23T11:38:36Z</time>
      </trkpt>
      <trkpt lat="41.192773" lon="-6.681274">
        <ele>455.394</ele>
        <time>2017-09-23T11:38:50Z</time>
      </trkpt>
      <trkpt lat="41.192843" lon="-6.681430">
        <ele>453.430</ele>
        <time>2017-09-23T11:39:02Z</time>
      </trkpt>
      <trkpt lat="41.192928" lon="-6.681674">
        <ele>449.064</ele>
        <time>2017-09-23T11:39:20Z</time>
      </trkpt>
      <trkpt lat="41.192980" lon="-6.681801">
        <ele>448.119</ele>
        <time>2017-09-23T11:39:32Z</time>
      </trkpt>
      <trkpt lat="41.193012" lon="-6.681948">
        <ele>447.609</ele>
        <time>2017-09-23T11:39:46Z</time>
      </trkpt>
      <trkpt lat="41.192988" lon="-6.682022">
        <ele>450.019</ele>
        <time>2017-09-23T11:40:01Z</time>
      </trkpt>
      <trkpt lat="41.192953" lon="-6.682131">
        <ele>451.008</ele>
        <time>2017-09-23T11:40:17Z</time>
      </trkpt>
      <trkpt lat="41.192915" lon="-6.682230">
        <ele>457.273</ele>
        <time>2017-09-23T11:40:41Z</time>
      </trkpt>
      <trkpt lat="41.192896" lon="-6.682320">
        <ele>458.661</ele>
        <time>2017-09-23T11:40:58Z</time>
      </trkpt>
      <trkpt lat="41.192872" lon="-6.682330">
        <ele>458.642</ele>
        <time>2017-09-23T11:41:29Z</time>
      </trkpt>
      <trkpt lat="41.192903" lon="-6.682350">
        <ele>460.114</ele>
        <time>2017-09-23T11:42:02Z</time>
      </trkpt>
      <trkpt lat="41.192886" lon="-6.682378">
        <ele>458.673</ele>
        <time>2017-09-23T11:42:32Z</time>
      </trkpt>
      <trkpt lat="41.192831" lon="-6.682488">
        <ele>459.117</ele>
        <time>2017-09-23T11:42:46Z</time>
      </trkpt>
      <trkpt lat="41.192746" lon="-6.682597">
        <ele>461.523</ele>
        <time>2017-09-23T11:43:04Z</time>
      </trkpt>
      <trkpt lat="41.192640" lon="-6.682669">
        <ele>463.937</ele>
        <time>2017-09-23T11:43:19Z</time>
      </trkpt>
      <trkpt lat="41.192630" lon="-6.682675">
        <ele>463.995</ele>
        <time>2017-09-23T11:43:20Z</time>
      </trkpt>
      <trkpt lat="41.192619" lon="-6.682684">
        <ele>463.949</ele>
        <time>2017-09-23T11:43:21Z</time>
      </trkpt>
      <trkpt lat="41.192537" lon="-6.682717">
        <ele>464.423</ele>
        <time>2017-09-23T11:43:36Z</time>
      </trkpt>
      <trkpt lat="41.192474" lon="-6.682797">
        <ele>465.408</ele>
        <time>2017-09-23T11:43:53Z</time>
      </trkpt>
      <trkpt lat="41.192462" lon="-6.682839">
        <ele>464.971</ele>
        <time>2017-09-23T11:43:56Z</time>
      </trkpt>
      <trkpt lat="41.192458" lon="-6.682875">
        <ele>464.449</ele>
        <time>2017-09-23T11:43:58Z</time>
      </trkpt>
      <trkpt lat="41.192459" lon="-6.683032">
        <ele>461.050</ele>
        <time>2017-09-23T11:44:09Z</time>
      </trkpt>
      <trkpt lat="41.192434" lon="-6.683052">
        <ele>460.692</ele>
        <time>2017-09-23T11:44:12Z</time>
      </trkpt>
      <trkpt lat="41.192425" lon="-6.683061">
        <ele>460.621</ele>
        <time>2017-09-23T11:44:13Z</time>
      </trkpt>
      <trkpt lat="41.192424" lon="-6.683094">
        <ele>459.615</ele>
        <time>2017-09-23T11:44:16Z</time>
      </trkpt>
      <trkpt lat="41.192453" lon="-6.683114">
        <ele>459.161</ele>
        <time>2017-09-23T11:44:19Z</time>
      </trkpt>
      <trkpt lat="41.192465" lon="-6.683117">
        <ele>459.135</ele>
        <time>2017-09-23T11:44:20Z</time>
      </trkpt>
      <trkpt lat="41.192545" lon="-6.683143">
        <ele>457.745</ele>
        <time>2017-09-23T11:44:28Z</time>
      </trkpt>
      <trkpt lat="41.192539" lon="-6.683171">
        <ele>457.747</ele>
        <time>2017-09-23T11:44:30Z</time>
      </trkpt>
      <trkpt lat="41.192522" lon="-6.683188">
        <ele>457.711</ele>
        <time>2017-09-23T11:44:32Z</time>
      </trkpt>
      <trkpt lat="41.192512" lon="-6.683194">
        <ele>457.208</ele>
        <time>2017-09-23T11:44:33Z</time>
      </trkpt>
      <trkpt lat="41.192500" lon="-6.683200">
        <ele>457.276</ele>
        <time>2017-09-23T11:44:34Z</time>
      </trkpt>
      <trkpt lat="41.192379" lon="-6.683321">
        <ele>453.854</ele>
        <time>2017-09-23T11:44:48Z</time>
      </trkpt>
      <trkpt lat="41.192376" lon="-6.683339">
        <ele>453.815</ele>
        <time>2017-09-23T11:44:49Z</time>
      </trkpt>
      <trkpt lat="41.192374" lon="-6.683355">
        <ele>453.447</ele>
        <time>2017-09-23T11:44:50Z</time>
      </trkpt>
      <trkpt lat="41.192332" lon="-6.683434">
        <ele>451.966</ele>
        <time>2017-09-23T11:44:56Z</time>
      </trkpt>
      <trkpt lat="41.192276" lon="-6.683474">
        <ele>451.040</ele>
        <time>2017-09-23T11:45:01Z</time>
      </trkpt>
      <trkpt lat="41.192268" lon="-6.683487">
        <ele>450.576</ele>
        <time>2017-09-23T11:45:02Z</time>
      </trkpt>
      <trkpt lat="41.192264" lon="-6.683502">
        <ele>450.530</ele>
        <time>2017-09-23T11:45:03Z</time>
      </trkpt>
      <trkpt lat="41.192232" lon="-6.683642">
        <ele>448.555</ele>
        <time>2017-09-23T11:45:14Z</time>
      </trkpt>
      <trkpt lat="41.192214" lon="-6.683657">
        <ele>448.107</ele>
        <time>2017-09-23T11:45:17Z</time>
      </trkpt>
      <trkpt lat="41.192207" lon="-6.683670">
        <ele>448.117</ele>
        <time>2017-09-23T11:45:18Z</time>
      </trkpt>
      <trkpt lat="41.192204" lon="-6.683685">
        <ele>448.108</ele>
        <time>2017-09-23T11:45:19Z</time>
      </trkpt>
      <trkpt lat="41.192168" lon="-6.683987">
        <ele>446.187</ele>
        <time>2017-09-23T11:45:35Z</time>
      </trkpt>
      <trkpt lat="41.192084" lon="-6.684113">
        <ele>443.785</ele>
        <time>2017-09-23T11:45:46Z</time>
      </trkpt>
      <trkpt lat="41.192087" lon="-6.684128">
        <ele>443.336</ele>
        <time>2017-09-23T11:45:47Z</time>
      </trkpt>
      <trkpt lat="41.192084" lon="-6.684144">
        <ele>443.348</ele>
        <time>2017-09-23T11:45:48Z</time>
      </trkpt>
      <trkpt lat="41.192076" lon="-6.684158">
        <ele>442.827</ele>
        <time>2017-09-23T11:45:49Z</time>
      </trkpt>
      <trkpt lat="41.192068" lon="-6.684167">
        <ele>442.891</ele>
        <time>2017-09-23T11:45:50Z</time>
      </trkpt>
      <trkpt lat="41.192059" lon="-6.684176">
        <ele>442.327</ele>
        <time>2017-09-23T11:45:51Z</time>
      </trkpt>
      <trkpt lat="41.192031" lon="-6.684224">
        <ele>442.361</ele>
        <time>2017-09-23T11:45:56Z</time>
      </trkpt>
      <trkpt lat="41.192032" lon="-6.684242">
        <ele>441.849</ele>
        <time>2017-09-23T11:45:57Z</time>
      </trkpt>
      <trkpt lat="41.192036" lon="-6.684275">
        <ele>441.302</ele>
        <time>2017-09-23T11:45:59Z</time>
      </trkpt>
      <trkpt lat="41.192027" lon="-6.684328">
        <ele>441.822</ele>
        <time>2017-09-23T11:46:02Z</time>
      </trkpt>
      <trkpt lat="41.192021" lon="-6.684338">
        <ele>441.308</ele>
        <time>2017-09-23T11:46:03Z</time>
      </trkpt>
      <trkpt lat="41.192014" lon="-6.684347">
        <ele>441.826</ele>
        <time>2017-09-23T11:46:04Z</time>
      </trkpt>
      <trkpt lat="41.192003" lon="-6.684353">
        <ele>441.834</ele>
        <time>2017-09-23T11:46:05Z</time>
      </trkpt>
      <trkpt lat="41.191965" lon="-6.684382">
        <ele>440.435</ele>
        <time>2017-09-23T11:46:14Z</time>
      </trkpt>
      <trkpt lat="41.191987" lon="-6.684424">
        <ele>438.917</ele>
        <time>2017-09-23T11:46:19Z</time>
      </trkpt>
      <trkpt lat="41.192020" lon="-6.684445">
        <ele>438.546</ele>
        <time>2017-09-23T11:46:22Z</time>
      </trkpt>
      <trkpt lat="41.192049" lon="-6.684440">
        <ele>438.010</ele>
        <time>2017-09-23T11:46:25Z</time>
      </trkpt>
      <trkpt lat="41.192059" lon="-6.684449">
        <ele>438.066</ele>
        <time>2017-09-23T11:46:26Z</time>
      </trkpt>
      <trkpt lat="41.192063" lon="-6.684463">
        <ele>438.080</ele>
        <time>2017-09-23T11:46:27Z</time>
      </trkpt>
      <trkpt lat="41.192064" lon="-6.684479">
        <ele>437.558</ele>
        <time>2017-09-23T11:46:28Z</time>
      </trkpt>
      <trkpt lat="41.192053" lon="-6.684503">
        <ele>437.552</ele>
        <time>2017-09-23T11:46:30Z</time>
      </trkpt>
      <trkpt lat="41.192044" lon="-6.684510">
        <ele>437.017</ele>
        <time>2017-09-23T11:46:31Z</time>
      </trkpt>
      <trkpt lat="41.192033" lon="-6.684514">
        <ele>437.008</ele>
        <time>2017-09-23T11:46:32Z</time>
      </trkpt>
      <trkpt lat="41.192022" lon="-6.684520">
        <ele>437.077</ele>
        <time>2017-09-23T11:46:33Z</time>
      </trkpt>
      <trkpt lat="41.191962" lon="-6.684529">
        <ele>435.665</ele>
        <time>2017-09-23T11:46:39Z</time>
      </trkpt>
      <trkpt lat="41.191952" lon="-6.684535">
        <ele>435.126</ele>
        <time>2017-09-23T11:46:40Z</time>
      </trkpt>
      <trkpt lat="41.191944" lon="-6.684543">
        <ele>434.658</ele>
        <time>2017-09-23T11:46:41Z</time>
      </trkpt>
      <trkpt lat="41.191911" lon="-6.684562">
        <ele>433.647</ele>
        <time>2017-09-23T11:46:45Z</time>
      </trkpt>
      <trkpt lat="41.191854" lon="-6.684511">
        <ele>431.761</ele>
        <time>2017-09-23T11:46:53Z</time>
      </trkpt>
      <trkpt lat="41.191793" lon="-6.684493">
        <ele>430.857</ele>
        <time>2017-09-23T11:47:02Z</time>
      </trkpt>
      <trkpt lat="41.191794" lon="-6.684507">
        <ele>430.871</ele>
        <time>2017-09-23T11:47:03Z</time>
      </trkpt>
      <trkpt lat="41.191800" lon="-6.684519">
        <ele>430.883</ele>
        <time>2017-09-23T11:47:04Z</time>
      </trkpt>
      <trkpt lat="41.191864" lon="-6.684674">
        <ele>428.825</ele>
        <time>2017-09-23T11:47:17Z</time>
      </trkpt>
      <trkpt lat="41.191908" lon="-6.684847">
        <ele>426.417</ele>
        <time>2017-09-23T11:47:30Z</time>
      </trkpt>
      <trkpt lat="41.191866" lon="-6.684897">
        <ele>425.508</ele>
        <time>2017-09-23T11:47:38Z</time>
      </trkpt>
      <trkpt lat="41.191785" lon="-6.684913">
        <ele>423.130</ele>
        <time>2017-09-23T11:47:49Z</time>
      </trkpt>
      <trkpt lat="41.191782" lon="-6.684929">
        <ele>422.648</ele>
        <time>2017-09-23T11:47:50Z</time>
      </trkpt>
      <trkpt lat="41.191781" lon="-6.684944">
        <ele>422.649</ele>
        <time>2017-09-23T11:47:51Z</time>
      </trkpt>
      <trkpt lat="41.191784" lon="-6.685028">
        <ele>422.151</ele>
        <time>2017-09-23T11:48:06Z</time>
      </trkpt>
      <trkpt lat="41.191759" lon="-6.685168">
        <ele>420.290</ele>
        <time>2017-09-23T11:48:15Z</time>
      </trkpt>
      <trkpt lat="41.191764" lon="-6.685184">
        <ele>419.764</ele>
        <time>2017-09-23T11:48:16Z</time>
      </trkpt>
      <trkpt lat="41.191797" lon="-6.685296">
        <ele>418.380</ele>
        <time>2017-09-23T11:48:27Z</time>
      </trkpt>
      <trkpt lat="41.191802" lon="-6.685347">
        <ele>417.824</ele>
        <time>2017-09-23T11:48:30Z</time>
      </trkpt>
      <trkpt lat="41.191810" lon="-6.685367">
        <ele>417.832</ele>
        <time>2017-09-23T11:48:31Z</time>
      </trkpt>
      <trkpt lat="41.191838" lon="-6.685463">
        <ele>415.992</ele>
        <time>2017-09-23T11:48:41Z</time>
      </trkpt>
      <trkpt lat="41.191843" lon="-6.685586">
        <ele>413.911</ele>
        <time>2017-09-23T11:48:49Z</time>
      </trkpt>
      <trkpt lat="41.191840" lon="-6.685602">
        <ele>413.508</ele>
        <time>2017-09-23T11:48:50Z</time>
      </trkpt>
      <trkpt lat="41.191835" lon="-6.685616">
        <ele>413.595</ele>
        <time>2017-09-23T11:48:51Z</time>
      </trkpt>
      <trkpt lat="41.191795" lon="-6.685659">
        <ele>413.083</ele>
        <time>2017-09-23T11:48:56Z</time>
      </trkpt>
      <trkpt lat="41.191790" lon="-6.685674">
        <ele>413.074</ele>
        <time>2017-09-23T11:48:57Z</time>
      </trkpt>
      <trkpt lat="41.191787" lon="-6.685691">
        <ele>413.056</ele>
        <time>2017-09-23T11:48:58Z</time>
      </trkpt>
      <trkpt lat="41.191787" lon="-6.685707">
        <ele>412.535</ele>
        <time>2017-09-23T11:48:59Z</time>
      </trkpt>
      <trkpt lat="41.191777" lon="-6.685802">
        <ele>412.589</ele>
        <time>2017-09-23T11:49:15Z</time>
      </trkpt>
      <trkpt lat="41.191771" lon="-6.685830">
        <ele>412.065</ele>
        <time>2017-09-23T11:49:38Z</time>
      </trkpt>
      <trkpt lat="41.191765" lon="-6.685846">
        <ele>412.029</ele>
        <time>2017-09-23T11:49:39Z</time>
      </trkpt>
      <trkpt lat="41.191757" lon="-6.685859">
        <ele>411.538</ele>
        <time>2017-09-23T11:49:40Z</time>
      </trkpt>
      <trkpt lat="41.191670" lon="-6.686076">
        <ele>408.770</ele>
        <time>2017-09-23T11:49:56Z</time>
      </trkpt>
      <trkpt lat="41.191627" lon="-6.686155">
        <ele>407.217</ele>
        <time>2017-09-23T11:50:02Z</time>
      </trkpt>
      <trkpt lat="41.191649" lon="-6.686389">
        <ele>404.808</ele>
        <time>2017-09-23T11:50:17Z</time>
      </trkpt>
      <trkpt lat="41.191667" lon="-6.686504">
        <ele>403.875</ele>
        <time>2017-09-23T11:50:33Z</time>
      </trkpt>
      <trkpt lat="41.191622" lon="-6.686736">
        <ele>400.023</ele>
        <time>2017-09-23T11:50:47Z</time>
      </trkpt>
      <trkpt lat="41.191618" lon="-6.686833">
        <ele>399.024</ele>
        <time>2017-09-23T11:50:57Z</time>
      </trkpt>
      <trkpt lat="41.191615" lon="-6.686851">
        <ele>398.666</ele>
        <time>2017-09-23T11:50:58Z</time>
      </trkpt>
      <trkpt lat="41.191614" lon="-6.686869">
        <ele>398.185</ele>
        <time>2017-09-23T11:50:59Z</time>
      </trkpt>
      <trkpt lat="41.191615" lon="-6.686884">
        <ele>398.199</ele>
        <time>2017-09-23T11:51:00Z</time>
      </trkpt>
      <trkpt lat="41.191615" lon="-6.686900">
        <ele>397.665</ele>
        <time>2017-09-23T11:51:01Z</time>
      </trkpt>
      <trkpt lat="41.191578" lon="-6.687036">
        <ele>396.269</ele>
        <time>2017-09-23T11:51:12Z</time>
      </trkpt>
      <trkpt lat="41.191569" lon="-6.687127">
        <ele>395.714</ele>
        <time>2017-09-23T11:51:19Z</time>
      </trkpt>
      <trkpt lat="41.191532" lon="-6.687082">
        <ele>395.254</ele>
        <time>2017-09-23T11:51:27Z</time>
      </trkpt>
      <trkpt lat="41.191481" lon="-6.686928">
        <ele>392.809</ele>
        <time>2017-09-23T11:51:39Z</time>
      </trkpt>
      <trkpt lat="41.191413" lon="-6.686768">
        <ele>389.908</ele>
        <time>2017-09-23T11:51:52Z</time>
      </trkpt>
      <trkpt lat="41.191410" lon="-6.686754">
        <ele>389.983</ele>
        <time>2017-09-23T11:51:53Z</time>
      </trkpt>
      <trkpt lat="41.191361" lon="-6.686657">
        <ele>389.491</ele>
        <time>2017-09-23T11:52:04Z</time>
      </trkpt>
      <trkpt lat="41.191357" lon="-6.686670">
        <ele>388.942</ele>
        <time>2017-09-23T11:52:05Z</time>
      </trkpt>
      <trkpt lat="41.191355" lon="-6.686687">
        <ele>388.984</ele>
        <time>2017-09-23T11:52:06Z</time>
      </trkpt>
      <trkpt lat="41.191356" lon="-6.686703">
        <ele>388.983</ele>
        <time>2017-09-23T11:52:07Z</time>
      </trkpt>
      <trkpt lat="41.191358" lon="-6.686720">
        <ele>388.547</ele>
        <time>2017-09-23T11:52:08Z</time>
      </trkpt>
      <trkpt lat="41.191386" lon="-6.686989">
        <ele>386.573</ele>
        <time>2017-09-23T11:52:24Z</time>
      </trkpt>
      <trkpt lat="41.191431" lon="-6.687180">
        <ele>384.687</ele>
        <time>2017-09-23T11:52:36Z</time>
      </trkpt>
      <trkpt lat="41.191471" lon="-6.687450">
        <ele>383.719</ele>
        <time>2017-09-23T11:52:51Z</time>
      </trkpt>
      <trkpt lat="41.191578" lon="-6.687639">
        <ele>383.709</ele>
        <time>2017-09-23T11:53:07Z</time>
      </trkpt>
      <trkpt lat="41.191586" lon="-6.687642">
        <ele>383.219</ele>
        <time>2017-09-23T11:53:08Z</time>
      </trkpt>
      <trkpt lat="41.191685" lon="-6.687588">
        <ele>381.308</ele>
        <time>2017-09-23T11:53:21Z</time>
      </trkpt>
      <trkpt lat="41.191738" lon="-6.687562">
        <ele>380.393</ele>
        <time>2017-09-23T11:53:33Z</time>
      </trkpt>
      <trkpt lat="41.191774" lon="-6.687606">
        <ele>377.941</ele>
        <time>2017-09-23T11:53:45Z</time>
      </trkpt>
      <trkpt lat="41.191752" lon="-6.687678">
        <ele>376.022</ele>
        <time>2017-09-23T11:53:55Z</time>
      </trkpt>
      <trkpt lat="41.191725" lon="-6.687740">
        <ele>374.594</ele>
        <time>2017-09-23T11:54:09Z</time>
      </trkpt>
      <trkpt lat="41.191802" lon="-6.687682">
        <ele>373.683</ele>
        <time>2017-09-23T11:54:25Z</time>
      </trkpt>
      <trkpt lat="41.191852" lon="-6.687663">
        <ele>371.657</ele>
        <time>2017-09-23T11:54:39Z</time>
      </trkpt>
      <trkpt lat="41.191885" lon="-6.687628">
        <ele>370.773</ele>
        <time>2017-09-23T11:54:43Z</time>
      </trkpt>
      <trkpt lat="41.191996" lon="-6.687552">
        <ele>367.867</ele>
        <time>2017-09-23T11:54:59Z</time>
      </trkpt>
      <trkpt lat="41.192084" lon="-6.687476">
        <ele>365.991</ele>
        <time>2017-09-23T11:55:11Z</time>
      </trkpt>
      <trkpt lat="41.192187" lon="-6.687370">
        <ele>363.081</ele>
        <time>2017-09-23T11:55:22Z</time>
      </trkpt>
      <trkpt lat="41.192252" lon="-6.687297">
        <ele>362.019</ele>
        <time>2017-09-23T11:55:36Z</time>
      </trkpt>
      <trkpt lat="41.192386" lon="-6.687227">
        <ele>359.108</ele>
        <time>2017-09-23T11:55:50Z</time>
      </trkpt>
      <trkpt lat="41.192352" lon="-6.687359">
        <ele>357.291</ele>
        <time>2017-09-23T11:56:01Z</time>
      </trkpt>
      <trkpt lat="41.192349" lon="-6.687388">
        <ele>357.269</ele>
        <time>2017-09-23T11:56:03Z</time>
      </trkpt>
      <trkpt lat="41.192465" lon="-6.687280">
        <ele>355.810</ele>
        <time>2017-09-23T11:56:16Z</time>
      </trkpt>
      <trkpt lat="41.192572" lon="-6.687131">
        <ele>353.922</ele>
        <time>2017-09-23T11:56:32Z</time>
      </trkpt>
      <trkpt lat="41.192591" lon="-6.687152">
        <ele>353.441</ele>
        <time>2017-09-23T11:56:35Z</time>
      </trkpt>
      <trkpt lat="41.192549" lon="-6.687416">
        <ele>349.585</ele>
        <time>2017-09-23T11:56:51Z</time>
      </trkpt>
      <trkpt lat="41.192467" lon="-6.687635">
        <ele>346.661</ele>
        <time>2017-09-23T11:57:06Z</time>
      </trkpt>
      <trkpt lat="41.192408" lon="-6.687784">
        <ele>346.235</ele>
        <time>2017-09-23T11:57:15Z</time>
      </trkpt>
      <trkpt lat="41.192388" lon="-6.687924">
        <ele>344.277</ele>
        <time>2017-09-23T11:57:25Z</time>
      </trkpt>
      <trkpt lat="41.192435" lon="-6.687945">
        <ele>343.861</ele>
        <time>2017-09-23T11:57:29Z</time>
      </trkpt>
      <trkpt lat="41.192461" lon="-6.687923">
        <ele>342.327</ele>
        <time>2017-09-23T11:57:40Z</time>
      </trkpt>
      <trkpt lat="41.192476" lon="-6.687912">
        <ele>341.808</ele>
        <time>2017-09-23T11:58:26Z</time>
      </trkpt>
      <trkpt lat="41.192460" lon="-6.687919">
        <ele>339.449</ele>
        <time>2017-09-23T11:59:16Z</time>
      </trkpt>
      <trkpt lat="41.192475" lon="-6.687935">
        <ele>339.957</ele>
        <time>2017-09-23T11:59:40Z</time>
      </trkpt>
      <trkpt lat="41.192531" lon="-6.687892">
        <ele>340.448</ele>
        <time>2017-09-23T11:59:51Z</time>
      </trkpt>
      <trkpt lat="41.192724" lon="-6.687598">
        <ele>336.650</ele>
        <time>2017-09-23T12:00:04Z</time>
      </trkpt>
      <trkpt lat="41.192932" lon="-6.687317">
        <ele>333.219</ele>
        <time>2017-09-23T12:00:15Z</time>
      </trkpt>
      <trkpt lat="41.192990" lon="-6.687243">
        <ele>331.773</ele>
        <time>2017-09-23T12:00:19Z</time>
      </trkpt>
      <trkpt lat="41.193102" lon="-6.687165">
        <ele>328.449</ele>
        <time>2017-09-23T12:00:30Z</time>
      </trkpt>
      <trkpt lat="41.193090" lon="-6.687169">
        <ele>330.363</ele>
        <time>2017-09-23T12:00:40Z</time>
      </trkpt>
      <trkpt lat="41.193038" lon="-6.687202">
        <ele>331.378</ele>
        <time>2017-09-23T12:00:45Z</time>
      </trkpt>
      <trkpt lat="41.193004" lon="-6.687219">
        <ele>331.733</ele>
        <time>2017-09-23T12:00:49Z</time>
      </trkpt>
      <trkpt lat="41.192965" lon="-6.687289">
        <ele>332.726</ele>
        <time>2017-09-23T12:00:55Z</time>
      </trkpt>
      <trkpt lat="41.192847" lon="-6.687420">
        <ele>334.608</ele>
        <time>2017-09-23T12:01:10Z</time>
      </trkpt>
      <trkpt lat="41.192789" lon="-6.687548">
        <ele>334.619</ele>
        <time>2017-09-23T12:01:25Z</time>
      </trkpt>
      <trkpt lat="41.192786" lon="-6.687603">
        <ele>334.267</ele>
        <time>2017-09-23T12:01:30Z</time>
      </trkpt>
      <trkpt lat="41.192781" lon="-6.687781">
        <ele>330.868</ele>
        <time>2017-09-23T12:01:47Z</time>
      </trkpt>
      <trkpt lat="41.192784" lon="-6.687837">
        <ele>330.890</ele>
        <time>2017-09-23T12:01:58Z</time>
      </trkpt>
      <trkpt lat="41.192754" lon="-6.687893">
        <ele>328.949</ele>
        <time>2017-09-23T12:02:03Z</time>
      </trkpt>
      <trkpt lat="41.192717" lon="-6.687972">
        <ele>325.023</ele>
        <time>2017-09-23T12:02:19Z</time>
      </trkpt>
      <trkpt lat="41.192718" lon="-6.688020">
        <ele>325.099</ele>
        <time>2017-09-23T12:02:24Z</time>
      </trkpt>
      <trkpt lat="41.192737" lon="-6.688049">
        <ele>325.083</ele>
        <time>2017-09-23T12:02:34Z</time>
      </trkpt>
      <trkpt lat="41.192772" lon="-6.688024">
        <ele>324.597</ele>
        <time>2017-09-23T12:02:37Z</time>
      </trkpt>
      <trkpt lat="41.192799" lon="-6.688004">
        <ele>324.523</ele>
        <time>2017-09-23T12:02:38Z</time>
      </trkpt>
      <trkpt lat="41.192823" lon="-6.687988">
        <ele>324.125</ele>
        <time>2017-09-23T12:02:39Z</time>
      </trkpt>
      <trkpt lat="41.192856" lon="-6.687967">
        <ele>324.108</ele>
        <time>2017-09-23T12:02:40Z</time>
      </trkpt>
      <trkpt lat="41.193349" lon="-6.687579">
        <ele>320.271</ele>
        <time>2017-09-23T12:02:50Z</time>
      </trkpt>
      <trkpt lat="41.193466" lon="-6.687512">
        <ele>319.729</ele>
        <time>2017-09-23T12:02:52Z</time>
      </trkpt>
      <trkpt lat="41.193525" lon="-6.687489">
        <ele>319.320</ele>
        <time>2017-09-23T12:02:53Z</time>
      </trkpt>
      <trkpt lat="41.193586" lon="-6.687476">
        <ele>318.862</ele>
        <time>2017-09-23T12:02:54Z</time>
      </trkpt>
      <trkpt lat="41.193652" lon="-6.687473">
        <ele>318.381</ele>
        <time>2017-09-23T12:02:55Z</time>
      </trkpt>
      <trkpt lat="41.193716" lon="-6.687481">
        <ele>317.875</ele>
        <time>2017-09-23T12:02:56Z</time>
      </trkpt>
      <trkpt lat="41.193779" lon="-6.687499">
        <ele>317.341</ele>
        <time>2017-09-23T12:02:57Z</time>
      </trkpt>
      <trkpt lat="41.193840" lon="-6.687528">
        <ele>316.855</ele>
        <time>2017-09-23T12:02:58Z</time>
      </trkpt>
      <trkpt lat="41.193907" lon="-6.687565">
        <ele>315.938</ele>
        <time>2017-09-23T12:02:59Z</time>
      </trkpt>
      <trkpt lat="41.194451" lon="-6.687845">
        <ele>311.170</ele>
        <time>2017-09-23T12:03:08Z</time>
      </trkpt>
      <trkpt lat="41.194620" lon="-6.687950">
        <ele>310.117</ele>
        <time>2017-09-23T12:03:11Z</time>
      </trkpt>
      <trkpt lat="41.194680" lon="-6.687973">
        <ele>309.608</ele>
        <time>2017-09-23T12:03:12Z</time>
      </trkpt>
      <trkpt lat="41.195291" lon="-6.688042">
        <ele>304.395</ele>
        <time>2017-09-23T12:03:23Z</time>
      </trkpt>
      <trkpt lat="41.195647" lon="-6.687949">
        <ele>301.053</ele>
        <time>2017-09-23T12:03:34Z</time>
      </trkpt>
      <trkpt lat="41.195717" lon="-6.687919">
        <ele>300.024</ele>
        <time>2017-09-23T12:03:45Z</time>
      </trkpt>
      <trkpt lat="41.195560" lon="-6.688055">
        <ele>299.166</ele>
        <time>2017-09-23T12:13:59Z</time>
      </trkpt>
      <trkpt lat="41.195551" lon="-6.688072">
        <ele>299.555</ele>
        <time>2017-09-23T12:14:00Z</time>
      </trkpt>
      <trkpt lat="41.195544" lon="-6.688089">
        <ele>299.529</ele>
        <time>2017-09-23T12:14:01Z</time>
      </trkpt>
      <trkpt lat="41.195538" lon="-6.688103">
        <ele>300.045</ele>
        <time>2017-09-23T12:14:02Z</time>
      </trkpt>
      <trkpt lat="41.195530" lon="-6.688119">
        <ele>300.089</ele>
        <time>2017-09-23T12:14:03Z</time>
      </trkpt>
      <trkpt lat="41.195523" lon="-6.688138">
        <ele>300.531</ele>
        <time>2017-09-23T12:14:04Z</time>
      </trkpt>
      <trkpt lat="41.195503" lon="-6.688167">
        <ele>301.061</ele>
        <time>2017-09-23T12:14:06Z</time>
      </trkpt>
      <trkpt lat="41.195487" lon="-6.688173">
        <ele>301.007</ele>
        <time>2017-09-23T12:14:07Z</time>
      </trkpt>
      <trkpt lat="41.195178" lon="-6.688211">
        <ele>298.608</ele>
        <time>2017-09-23T12:14:18Z</time>
      </trkpt>
      <trkpt lat="41.194719" lon="-6.688307">
        <ele>294.715</ele>
        <time>2017-09-23T12:14:26Z</time>
      </trkpt>
      <trkpt lat="41.194161" lon="-6.688432">
        <ele>289.993</ele>
        <time>2017-09-23T12:14:37Z</time>
      </trkpt>
      <trkpt lat="41.193380" lon="-6.688700">
        <ele>281.314</ele>
        <time>2017-09-23T12:14:50Z</time>
      </trkpt>
      <trkpt lat="41.192901" lon="-6.688947">
        <ele>277.466</ele>
        <time>2017-09-23T12:14:57Z</time>
      </trkpt>
      <trkpt lat="41.192448" lon="-6.689244">
        <ele>273.635</ele>
        <time>2017-09-23T12:15:06Z</time>
      </trkpt>
      <trkpt lat="41.191792" lon="-6.689714">
        <ele>269.369</ele>
        <time>2017-09-23T12:15:17Z</time>
      </trkpt>
      <trkpt lat="41.191179" lon="-6.690357">
        <ele>265.465</ele>
        <time>2017-09-23T12:15:31Z</time>
      </trkpt>
      <trkpt lat="41.191100" lon="-6.690456">
        <ele>264.999</ele>
        <time>2017-09-23T12:15:33Z</time>
      </trkpt>
      <trkpt lat="41.190889" lon="-6.690884">
        <ele>262.528</ele>
        <time>2017-09-23T12:15:41Z</time>
      </trkpt>
      <trkpt lat="41.190874" lon="-6.690935">
        <ele>262.189</ele>
        <time>2017-09-23T12:15:42Z</time>
      </trkpt>
      <trkpt lat="41.190864" lon="-6.690985">
        <ele>261.617</ele>
        <time>2017-09-23T12:15:43Z</time>
      </trkpt>
      <trkpt lat="41.190809" lon="-6.691433">
        <ele>260.108</ele>
        <time>2017-09-23T12:15:54Z</time>
      </trkpt>
      <trkpt lat="41.190699" lon="-6.691840">
        <ele>261.154</ele>
        <time>2017-09-23T12:16:07Z</time>
      </trkpt>
      <trkpt lat="41.190546" lon="-6.692103">
        <ele>260.652</ele>
        <time>2017-09-23T12:16:21Z</time>
      </trkpt>
      <trkpt lat="41.190547" lon="-6.692066">
        <ele>260.193</ele>
        <time>2017-09-23T12:16:31Z</time>
      </trkpt>
      <trkpt lat="41.190685" lon="-6.691862">
        <ele>260.135</ele>
        <time>2017-09-23T12:16:45Z</time>
      </trkpt>
      <trkpt lat="41.190779" lon="-6.691792">
        <ele>260.694</ele>
        <time>2017-09-23T12:16:51Z</time>
      </trkpt>
      <trkpt lat="41.190798" lon="-6.691789">
        <ele>261.188</ele>
        <time>2017-09-23T12:16:52Z</time>
      </trkpt>
      <trkpt lat="41.190858" lon="-6.691821">
        <ele>261.124</ele>
        <time>2017-09-23T12:16:56Z</time>
      </trkpt>
      <trkpt lat="41.190863" lon="-6.691834">
        <ele>261.188</ele>
        <time>2017-09-23T12:16:57Z</time>
      </trkpt>
      <trkpt lat="41.190869" lon="-6.691851">
        <ele>261.651</ele>
        <time>2017-09-23T12:16:58Z</time>
      </trkpt>
      <trkpt lat="41.190876" lon="-6.691887">
        <ele>261.601</ele>
        <time>2017-09-23T12:17:10Z</time>
      </trkpt>
      <trkpt lat="41.190856" lon="-6.691885">
        <ele>261.111</ele>
        <time>2017-09-23T12:17:27Z</time>
      </trkpt>
      <trkpt lat="41.190845" lon="-6.691881">
        <ele>261.108</ele>
        <time>2017-09-23T12:17:28Z</time>
      </trkpt>
      <trkpt lat="41.190778" lon="-6.691809">
        <ele>260.647</ele>
        <time>2017-09-23T12:17:32Z</time>
      </trkpt>
      <trkpt lat="41.190773" lon="-6.691767">
        <ele>260.635</ele>
        <time>2017-09-23T12:17:33Z</time>
      </trkpt>
      <trkpt lat="41.190773" lon="-6.691735">
        <ele>260.616</ele>
        <time>2017-09-23T12:17:34Z</time>
      </trkpt>
      <trkpt lat="41.190753" lon="-6.691401">
        <ele>259.618</ele>
        <time>2017-09-23T12:17:45Z</time>
      </trkpt>
      <trkpt lat="41.190754" lon="-6.691382">
        <ele>259.687</ele>
        <time>2017-09-23T12:17:46Z</time>
      </trkpt>
      <trkpt lat="41.190747" lon="-6.691312">
        <ele>259.681</ele>
        <time>2017-09-23T12:17:50Z</time>
      </trkpt>
      <trkpt lat="41.190752" lon="-6.691293">
        <ele>259.287</ele>
        <time>2017-09-23T12:17:51Z</time>
      </trkpt>
      <trkpt lat="41.190762" lon="-6.691276">
        <ele>259.241</ele>
        <time>2017-09-23T12:17:52Z</time>
      </trkpt>
      <trkpt lat="41.190773" lon="-6.691268">
        <ele>259.674</ele>
        <time>2017-09-23T12:17:53Z</time>
      </trkpt>
      <trkpt lat="41.190795" lon="-6.691269">
        <ele>260.156</ele>
        <time>2017-09-23T12:17:55Z</time>
      </trkpt>
      <trkpt lat="41.190808" lon="-6.691263">
        <ele>260.121</ele>
        <time>2017-09-23T12:17:56Z</time>
      </trkpt>
      <trkpt lat="41.190818" lon="-6.691251">
        <ele>260.108</ele>
        <time>2017-09-23T12:17:57Z</time>
      </trkpt>
      <trkpt lat="41.190826" lon="-6.691238">
        <ele>260.639</ele>
        <time>2017-09-23T12:17:58Z</time>
      </trkpt>
      <trkpt lat="41.190827" lon="-6.691224">
        <ele>260.687</ele>
        <time>2017-09-23T12:17:59Z</time>
      </trkpt>
      <trkpt lat="41.190822" lon="-6.691211">
        <ele>260.648</ele>
        <time>2017-09-23T12:18:00Z</time>
      </trkpt>
      <trkpt lat="41.190796" lon="-6.691206">
        <ele>260.610</ele>
        <time>2017-09-23T12:18:03Z</time>
      </trkpt>
      <trkpt lat="41.190785" lon="-6.691212">
        <ele>260.649</ele>
        <time>2017-09-23T12:18:04Z</time>
      </trkpt>
      <trkpt lat="41.190773" lon="-6.691223">
        <ele>260.653</ele>
        <time>2017-09-23T12:18:05Z</time>
      </trkpt>
      <trkpt lat="41.190752" lon="-6.691260">
        <ele>260.199</ele>
        <time>2017-09-23T12:18:07Z</time>
      </trkpt>
      <trkpt lat="41.190737" lon="-6.691335">
        <ele>260.163</ele>
        <time>2017-09-23T12:18:11Z</time>
      </trkpt>
      <trkpt lat="41.190722" lon="-6.691406">
        <ele>259.669</ele>
        <time>2017-09-23T12:18:28Z</time>
      </trkpt>
      <trkpt lat="41.190732" lon="-6.691444">
        <ele>259.604</ele>
        <time>2017-09-23T12:18:38Z</time>
      </trkpt>
      <trkpt lat="41.190744" lon="-6.691472">
        <ele>259.624</ele>
        <time>2017-09-23T12:18:40Z</time>
      </trkpt>
      <trkpt lat="41.190720" lon="-6.691740">
        <ele>258.208</ele>
        <time>2017-09-23T12:18:58Z</time>
      </trkpt>
      <trkpt lat="41.190710" lon="-6.691731">
        <ele>259.298</ele>
        <time>2017-09-23T12:19:10Z</time>
      </trkpt>
      <trkpt lat="41.190720" lon="-6.691739">
        <ele>261.116</ele>
        <time>2017-09-23T12:19:45Z</time>
      </trkpt>
      <trkpt lat="41.190712" lon="-6.691732">
        <ele>261.167</ele>
        <time>2017-09-23T12:20:25Z</time>
      </trkpt>
      <trkpt lat="41.190684" lon="-6.691760">
        <ele>261.629</ele>
        <time>2017-09-23T12:21:10Z</time>
      </trkpt>
      <trkpt lat="41.190701" lon="-6.691755">
        <ele>261.698</ele>
        <time>2017-09-23T12:21:59Z</time>
      </trkpt>
      <trkpt lat="41.190721" lon="-6.691757">
        <ele>263.072</ele>
        <time>2017-09-23T12:22:53Z</time>
      </trkpt>
      <trkpt lat="41.190730" lon="-6.691775">
        <ele>264.538</ele>
        <time>2017-09-23T12:23:40Z</time>
      </trkpt>
      <trkpt lat="41.190722" lon="-6.691741">
        <ele>262.552</ele>
        <time>2017-09-23T12:24:20Z</time>
      </trkpt>
      <trkpt lat="41.190709" lon="-6.691737">
        <ele>259.644</ele>
        <time>2017-09-23T12:24:55Z</time>
      </trkpt>
      <trkpt lat="41.190701" lon="-6.691751">
        <ele>261.605</ele>
        <time>2017-09-23T12:25:33Z</time>
      </trkpt>
      <trkpt lat="41.190705" lon="-6.691747">
        <ele>260.615</ele>
        <time>2017-09-23T12:26:15Z</time>
      </trkpt>
      <trkpt lat="41.190705" lon="-6.691739">
        <ele>258.708</ele>
        <time>2017-09-23T12:26:56Z</time>
      </trkpt>
      <trkpt lat="41.190709" lon="-6.691751">
        <ele>261.146</ele>
        <time>2017-09-23T12:27:40Z</time>
      </trkpt>
      <trkpt lat="41.190734" lon="-6.691727">
        <ele>259.654</ele>
        <time>2017-09-23T12:28:23Z</time>
      </trkpt>
      <trkpt lat="41.190713" lon="-6.691734">
        <ele>258.245</ele>
        <time>2017-09-23T12:29:01Z</time>
      </trkpt>
      <trkpt lat="41.190715" lon="-6.691722">
        <ele>256.827</ele>
        <time>2017-09-23T12:29:39Z</time>
      </trkpt>
      <trkpt lat="41.190739" lon="-6.691716">
        <ele>257.786</ele>
        <time>2017-09-23T12:30:15Z</time>
      </trkpt>
      <trkpt lat="41.190704" lon="-6.691758">
        <ele>257.220</ele>
        <time>2017-09-23T12:30:53Z</time>
      </trkpt>
      <trkpt lat="41.190715" lon="-6.691727">
        <ele>257.746</ele>
        <time>2017-09-23T12:31:37Z</time>
      </trkpt>
      <trkpt lat="41.190702" lon="-6.691744">
        <ele>256.840</ele>
        <time>2017-09-23T12:32:17Z</time>
      </trkpt>
      <trkpt lat="41.190681" lon="-6.691751">
        <ele>258.773</ele>
        <time>2017-09-23T12:32:52Z</time>
      </trkpt>
      <trkpt lat="41.190703" lon="-6.691757">
        <ele>263.585</ele>
        <time>2017-09-23T12:33:29Z</time>
      </trkpt>
      <trkpt lat="41.190684" lon="-6.691769">
        <ele>262.513</ele>
        <time>2017-09-23T12:34:08Z</time>
      </trkpt>
      <trkpt lat="41.190690" lon="-6.691773">
        <ele>261.608</ele>
        <time>2017-09-23T12:34:47Z</time>
      </trkpt>
      <trkpt lat="41.190715" lon="-6.691756">
        <ele>260.199</ele>
        <time>2017-09-23T12:35:28Z</time>
      </trkpt>
      <trkpt lat="41.190716" lon="-6.691754">
        <ele>260.157</ele>
        <time>2017-09-23T12:36:07Z</time>
      </trkpt>
      <trkpt lat="41.190716" lon="-6.691743">
        <ele>261.168</ele>
        <time>2017-09-23T12:36:35Z</time>
      </trkpt>
      <trkpt lat="41.190699" lon="-6.691740">
        <ele>261.630</ele>
        <time>2017-09-23T12:37:09Z</time>
      </trkpt>
      <trkpt lat="41.190693" lon="-6.691733">
        <ele>259.289</ele>
        <time>2017-09-23T12:37:42Z</time>
      </trkpt>
      <trkpt lat="41.190714" lon="-6.691722">
        <ele>262.513</ele>
        <time>2017-09-23T12:38:23Z</time>
      </trkpt>
      <trkpt lat="41.190672" lon="-6.691755">
        <ele>260.189</ele>
        <time>2017-09-23T12:39:06Z</time>
      </trkpt>
      <trkpt lat="41.190712" lon="-6.691749">
        <ele>260.673</ele>
        <time>2017-09-23T12:39:42Z</time>
      </trkpt>
      <trkpt lat="41.190712" lon="-6.691759">
        <ele>259.296</ele>
        <time>2017-09-23T12:40:16Z</time>
      </trkpt>
      <trkpt lat="41.190694" lon="-6.691722">
        <ele>262.531</ele>
        <time>2017-09-23T12:40:54Z</time>
      </trkpt>
      <trkpt lat="41.190718" lon="-6.691745">
        <ele>262.124</ele>
        <time>2017-09-23T12:41:29Z</time>
      </trkpt>
      <trkpt lat="41.190706" lon="-6.691742">
        <ele>265.408</ele>
        <time>2017-09-23T12:42:08Z</time>
      </trkpt>
      <trkpt lat="41.190699" lon="-6.691719">
        <ele>263.561</ele>
        <time>2017-09-23T12:42:40Z</time>
      </trkpt>
      <trkpt lat="41.190694" lon="-6.691733">
        <ele>263.089</ele>
        <time>2017-09-23T12:43:12Z</time>
      </trkpt>
      <trkpt lat="41.190678" lon="-6.691727">
        <ele>260.690</ele>
        <time>2017-09-23T12:43:51Z</time>
      </trkpt>
      <trkpt lat="41.190676" lon="-6.691722">
        <ele>264.582</ele>
        <time>2017-09-23T12:44:36Z</time>
      </trkpt>
      <trkpt lat="41.190662" lon="-6.691754">
        <ele>267.811</ele>
        <time>2017-09-23T12:45:14Z</time>
      </trkpt>
      <trkpt lat="41.190674" lon="-6.691758">
        <ele>266.965</ele>
        <time>2017-09-23T12:45:54Z</time>
      </trkpt>
      <trkpt lat="41.190699" lon="-6.691762">
        <ele>266.971</ele>
        <time>2017-09-23T12:46:24Z</time>
      </trkpt>
      <trkpt lat="41.190668" lon="-6.691759">
        <ele>265.455</ele>
        <time>2017-09-23T12:46:51Z</time>
      </trkpt>
      <trkpt lat="41.190696" lon="-6.691755">
        <ele>262.121</ele>
        <time>2017-09-23T12:47:21Z</time>
      </trkpt>
      <trkpt lat="41.190715" lon="-6.691764">
        <ele>262.541</ele>
        <time>2017-09-23T12:47:56Z</time>
      </trkpt>
      <trkpt lat="41.190706" lon="-6.691748">
        <ele>262.105</ele>
        <time>2017-09-23T12:48:21Z</time>
      </trkpt>
      <trkpt lat="41.190714" lon="-6.691727">
        <ele>261.608</ele>
        <time>2017-09-23T12:48:44Z</time>
      </trkpt>
      <trkpt lat="41.190716" lon="-6.691748">
        <ele>261.164</ele>
        <time>2017-09-23T12:49:17Z</time>
      </trkpt>
      <trkpt lat="41.190725" lon="-6.691734">
        <ele>264.552</ele>
        <time>2017-09-23T12:49:57Z</time>
      </trkpt>
      <trkpt lat="41.190697" lon="-6.691756">
        <ele>260.163</ele>
        <time>2017-09-23T12:50:32Z</time>
      </trkpt>
      <trkpt lat="41.190721" lon="-6.691739">
        <ele>261.195</ele>
        <time>2017-09-23T12:51:06Z</time>
      </trkpt>
      <trkpt lat="41.190715" lon="-6.691738">
        <ele>260.694</ele>
        <time>2017-09-23T12:51:44Z</time>
      </trkpt>
      <trkpt lat="41.190712" lon="-6.691731">
        <ele>260.658</ele>
        <time>2017-09-23T12:52:17Z</time>
      </trkpt>
      <trkpt lat="41.190710" lon="-6.691751">
        <ele>261.194</ele>
        <time>2017-09-23T12:52:40Z</time>
      </trkpt>
      <trkpt lat="41.190721" lon="-6.691744">
        <ele>260.128</ele>
        <time>2017-09-23T12:53:07Z</time>
      </trkpt>
      <trkpt lat="41.190716" lon="-6.691721">
        <ele>258.754</ele>
        <time>2017-09-23T12:53:37Z</time>
      </trkpt>
      <trkpt lat="41.190710" lon="-6.691723">
        <ele>258.756</ele>
        <time>2017-09-23T12:54:15Z</time>
      </trkpt>
      <trkpt lat="41.190708" lon="-6.691748">
        <ele>260.611</ele>
        <time>2017-09-23T12:54:42Z</time>
      </trkpt>
      <trkpt lat="41.190728" lon="-6.691743">
        <ele>258.708</ele>
        <time>2017-09-23T12:55:23Z</time>
      </trkpt>
      <trkpt lat="41.190692" lon="-6.691757">
        <ele>257.737</ele>
        <time>2017-09-23T12:56:02Z</time>
      </trkpt>
      <trkpt lat="41.190734" lon="-6.691749">
        <ele>256.875</ele>
        <time>2017-09-23T12:56:39Z</time>
      </trkpt>
      <trkpt lat="41.190707" lon="-6.691760">
        <ele>259.256</ele>
        <time>2017-09-23T12:57:14Z</time>
      </trkpt>
      <trkpt lat="41.190729" lon="-6.691764">
        <ele>263.068</ele>
        <time>2017-09-23T12:57:51Z</time>
      </trkpt>
      <trkpt lat="41.190723" lon="-6.691745">
        <ele>262.557</ele>
        <time>2017-09-23T12:58:29Z</time>
      </trkpt>
      <trkpt lat="41.190719" lon="-6.691746">
        <ele>261.681</ele>
        <time>2017-09-23T12:58:42Z</time>
      </trkpt>
      <trkpt lat="41.190728" lon="-6.691719">
        <ele>261.637</ele>
        <time>2017-09-23T12:58:47Z</time>
      </trkpt>
      <trkpt lat="41.190741" lon="-6.691687">
        <ele>261.191</ele>
        <time>2017-09-23T12:58:50Z</time>
      </trkpt>
      <trkpt lat="41.190773" lon="-6.691645">
        <ele>261.134</ele>
        <time>2017-09-23T12:58:54Z</time>
      </trkpt>
      <trkpt lat="41.190787" lon="-6.691298">
        <ele>261.155</ele>
        <time>2017-09-23T12:59:09Z</time>
      </trkpt>
      <trkpt lat="41.190838" lon="-6.691022">
        <ele>261.610</ele>
        <time>2017-09-23T12:59:23Z</time>
      </trkpt>
      <trkpt lat="41.190944" lon="-6.690738">
        <ele>265.408</ele>
        <time>2017-09-23T12:59:39Z</time>
      </trkpt>
      <trkpt lat="41.191038" lon="-6.690524">
        <ele>266.985</ele>
        <time>2017-09-23T12:59:53Z</time>
      </trkpt>
      <trkpt lat="41.191147" lon="-6.690342">
        <ele>267.833</ele>
        <time>2017-09-23T13:00:07Z</time>
      </trkpt>
      <trkpt lat="41.191336" lon="-6.690148">
        <ele>268.344</ele>
        <time>2017-09-23T13:00:24Z</time>
      </trkpt>
      <trkpt lat="41.191396" lon="-6.690105">
        <ele>269.776</ele>
        <time>2017-09-23T13:00:29Z</time>
      </trkpt>
      <trkpt lat="41.191599" lon="-6.689867">
        <ele>272.135</ele>
        <time>2017-09-23T13:00:48Z</time>
      </trkpt>
      <trkpt lat="41.191661" lon="-6.689812">
        <ele>272.139</ele>
        <time>2017-09-23T13:00:53Z</time>
      </trkpt>
      <trkpt lat="41.191907" lon="-6.689601">
        <ele>275.015</ele>
        <time>2017-09-23T13:01:11Z</time>
      </trkpt>
      <trkpt lat="41.192117" lon="-6.689437">
        <ele>278.429</ele>
        <time>2017-09-23T13:01:26Z</time>
      </trkpt>
      <trkpt lat="41.192324" lon="-6.689300">
        <ele>280.875</ele>
        <time>2017-09-23T13:01:41Z</time>
      </trkpt>
      <trkpt lat="41.192556" lon="-6.689172">
        <ele>280.328</ele>
        <time>2017-09-23T13:01:58Z</time>
      </trkpt>
      <trkpt lat="41.192687" lon="-6.689089">
        <ele>280.820</ele>
        <time>2017-09-23T13:02:08Z</time>
      </trkpt>
      <trkpt lat="41.192916" lon="-6.688931">
        <ele>280.308</ele>
        <time>2017-09-23T13:02:25Z</time>
      </trkpt>
      <trkpt lat="41.193046" lon="-6.688853">
        <ele>281.339</ele>
        <time>2017-09-23T13:02:35Z</time>
      </trkpt>
      <trkpt lat="41.193249" lon="-6.688750">
        <ele>282.787</ele>
        <time>2017-09-23T13:02:51Z</time>
      </trkpt>
      <trkpt lat="41.193452" lon="-6.688651">
        <ele>286.188</ele>
        <time>2017-09-23T13:03:08Z</time>
      </trkpt>
      <trkpt lat="41.193485" lon="-6.688643">
        <ele>286.640</ele>
        <time>2017-09-23T13:03:11Z</time>
      </trkpt>
      <trkpt lat="41.193554" lon="-6.688604">
        <ele>287.559</ele>
        <time>2017-09-23T13:03:17Z</time>
      </trkpt>
      <trkpt lat="41.193638" lon="-6.688580">
        <ele>287.563</ele>
        <time>2017-09-23T13:03:24Z</time>
      </trkpt>
      <trkpt lat="41.193845" lon="-6.688507">
        <ele>287.539</ele>
        <time>2017-09-23T13:03:41Z</time>
      </trkpt>
      <trkpt lat="41.193871" lon="-6.688500">
        <ele>287.563</ele>
        <time>2017-09-23T13:03:43Z</time>
      </trkpt>
      <trkpt lat="41.193977" lon="-6.688465">
        <ele>289.965</ele>
        <time>2017-09-23T13:03:52Z</time>
      </trkpt>
      <trkpt lat="41.194174" lon="-6.688417">
        <ele>291.968</ele>
        <time>2017-09-23T13:04:08Z</time>
      </trkpt>
      <trkpt lat="41.194208" lon="-6.688414">
        <ele>291.914</ele>
        <time>2017-09-23T13:04:11Z</time>
      </trkpt>
      <trkpt lat="41.194254" lon="-6.688397">
        <ele>292.308</ele>
        <time>2017-09-23T13:04:15Z</time>
      </trkpt>
      <trkpt lat="41.194349" lon="-6.688358">
        <ele>293.378</ele>
        <time>2017-09-23T13:04:23Z</time>
      </trkpt>
      <trkpt lat="41.194399" lon="-6.688354">
        <ele>293.896</ele>
        <time>2017-09-23T13:04:27Z</time>
      </trkpt>
      <trkpt lat="41.194547" lon="-6.688316">
        <ele>294.367</ele>
        <time>2017-09-23T13:04:39Z</time>
      </trkpt>
      <trkpt lat="41.194629" lon="-6.688295">
        <ele>294.769</ele>
        <time>2017-09-23T13:04:46Z</time>
      </trkpt>
      <trkpt lat="41.194770" lon="-6.688275">
        <ele>296.248</ele>
        <time>2017-09-23T13:04:56Z</time>
      </trkpt>
      <trkpt lat="41.194843" lon="-6.688262">
        <ele>296.722</ele>
        <time>2017-09-23T13:05:01Z</time>
      </trkpt>
      <trkpt lat="41.195082" lon="-6.688210">
        <ele>297.638</ele>
        <time>2017-09-23T13:05:18Z</time>
      </trkpt>
      <trkpt lat="41.195260" lon="-6.688182">
        <ele>298.692</ele>
        <time>2017-09-23T13:05:31Z</time>
      </trkpt>
      <trkpt lat="41.195353" lon="-6.688155">
        <ele>298.169</ele>
        <time>2017-09-23T13:05:45Z</time>
      </trkpt>
      <trkpt lat="41.195435" lon="-6.688147">
        <ele>298.104</ele>
        <time>2017-09-23T13:05:54Z</time>
      </trkpt>
      <trkpt lat="41.195403" lon="-6.688073">
        <ele>299.124</ele>
        <time>2017-09-23T13:06:01Z</time>
      </trkpt>
      <trkpt lat="41.195192" lon="-6.688059">
        <ele>301.008</ele>
        <time>2017-09-23T13:06:16Z</time>
      </trkpt>
      <trkpt lat="41.195153" lon="-6.688052">
        <ele>301.548</ele>
        <time>2017-09-23T13:06:27Z</time>
      </trkpt>
      <trkpt lat="41.194953" lon="-6.688060">
        <ele>302.976</ele>
        <time>2017-09-23T13:06:41Z</time>
      </trkpt>
      <trkpt lat="41.194742" lon="-6.688022">
        <ele>304.837</ele>
        <time>2017-09-23T13:06:56Z</time>
      </trkpt>
      <trkpt lat="41.194635" lon="-6.687979">
        <ele>305.889</ele>
        <time>2017-09-23T13:07:04Z</time>
      </trkpt>
      <trkpt lat="41.194590" lon="-6.687991">
        <ele>306.388</ele>
        <time>2017-09-23T13:07:08Z</time>
      </trkpt>
      <trkpt lat="41.194532" lon="-6.687995">
        <ele>307.222</ele>
        <time>2017-09-23T13:07:23Z</time>
      </trkpt>
      <trkpt lat="41.194463" lon="-6.688031">
        <ele>306.888</ele>
        <time>2017-09-23T13:07:50Z</time>
      </trkpt>
      <trkpt lat="41.194457" lon="-6.688030">
        <ele>306.852</ele>
        <time>2017-09-23T13:07:51Z</time>
      </trkpt>
      <trkpt lat="41.194411" lon="-6.687874">
        <ele>309.629</ele>
        <time>2017-09-23T13:08:01Z</time>
      </trkpt>
      <trkpt lat="41.194287" lon="-6.687818">
        <ele>311.100</ele>
        <time>2017-09-23T13:08:10Z</time>
      </trkpt>
      <trkpt lat="41.194119" lon="-6.687711">
        <ele>312.520</ele>
        <time>2017-09-23T13:08:22Z</time>
      </trkpt>
      <trkpt lat="41.193869" lon="-6.687589">
        <ele>314.008</ele>
        <time>2017-09-23T13:08:40Z</time>
      </trkpt>
      <trkpt lat="41.193686" lon="-6.687538">
        <ele>314.914</ele>
        <time>2017-09-23T13:08:53Z</time>
      </trkpt>
      <trkpt lat="41.193468" lon="-6.687582">
        <ele>317.372</ele>
        <time>2017-09-23T13:09:08Z</time>
      </trkpt>
      <trkpt lat="41.193278" lon="-6.687699">
        <ele>319.353</ele>
        <time>2017-09-23T13:09:22Z</time>
      </trkpt>
      <trkpt lat="41.193226" lon="-6.687736">
        <ele>319.775</ele>
        <time>2017-09-23T13:09:26Z</time>
      </trkpt>
      <trkpt lat="41.193138" lon="-6.687798">
        <ele>321.294</ele>
        <time>2017-09-23T13:09:33Z</time>
      </trkpt>
      <trkpt lat="41.192946" lon="-6.687953">
        <ele>322.638</ele>
        <time>2017-09-23T13:09:49Z</time>
      </trkpt>
      <trkpt lat="41.192733" lon="-6.688112">
        <ele>324.564</ele>
        <time>2017-09-23T13:10:06Z</time>
      </trkpt>
      <trkpt lat="41.192531" lon="-6.688236">
        <ele>326.028</ele>
        <time>2017-09-23T13:10:21Z</time>
      </trkpt>
      <trkpt lat="41.192286" lon="-6.688322">
        <ele>327.478</ele>
        <time>2017-09-23T13:10:39Z</time>
      </trkpt>
      <trkpt lat="41.191981" lon="-6.688443">
        <ele>327.933</ele>
        <time>2017-09-23T13:10:58Z</time>
      </trkpt>
      <trkpt lat="41.191699" lon="-6.688691">
        <ele>327.926</ele>
        <time>2017-09-23T13:11:14Z</time>
      </trkpt>
      <trkpt lat="41.191503" lon="-6.688949">
        <ele>327.908</ele>
        <time>2017-09-23T13:11:26Z</time>
      </trkpt>
      <trkpt lat="41.191212" lon="-6.689267">
        <ele>329.329</ele>
        <time>2017-09-23T13:11:43Z</time>
      </trkpt>
      <trkpt lat="41.190920" lon="-6.689233">
        <ele>331.397</ele>
        <time>2017-09-23T13:11:58Z</time>
      </trkpt>
      <trkpt lat="41.190855" lon="-6.689140">
        <ele>332.218</ele>
        <time>2017-09-23T13:12:03Z</time>
      </trkpt>
      <trkpt lat="41.190848" lon="-6.689114">
        <ele>332.210</ele>
        <time>2017-09-23T13:12:04Z</time>
      </trkpt>
      <trkpt lat="41.190842" lon="-6.689087">
        <ele>332.269</ele>
        <time>2017-09-23T13:12:05Z</time>
      </trkpt>
      <trkpt lat="41.190834" lon="-6.689062">
        <ele>332.233</ele>
        <time>2017-09-23T13:12:06Z</time>
      </trkpt>
      <trkpt lat="41.190828" lon="-6.689039">
        <ele>332.769</ele>
        <time>2017-09-23T13:12:07Z</time>
      </trkpt>
      <trkpt lat="41.190824" lon="-6.689014">
        <ele>332.763</ele>
        <time>2017-09-23T13:12:08Z</time>
      </trkpt>
      <trkpt lat="41.190821" lon="-6.688986">
        <ele>332.792</ele>
        <time>2017-09-23T13:12:09Z</time>
      </trkpt>
      <trkpt lat="41.190819" lon="-6.688956">
        <ele>332.773</ele>
        <time>2017-09-23T13:12:10Z</time>
      </trkpt>
      <trkpt lat="41.190817" lon="-6.688933">
        <ele>333.220</ele>
        <time>2017-09-23T13:12:11Z</time>
      </trkpt>
      <trkpt lat="41.190816" lon="-6.688907">
        <ele>332.708</ele>
        <time>2017-09-23T13:12:12Z</time>
      </trkpt>
      <trkpt lat="41.190815" lon="-6.688879">
        <ele>332.731</ele>
        <time>2017-09-23T13:12:13Z</time>
      </trkpt>
      <trkpt lat="41.190814" lon="-6.688853">
        <ele>333.219</ele>
        <time>2017-09-23T13:12:14Z</time>
      </trkpt>
      <trkpt lat="41.190829" lon="-6.688423">
        <ele>334.650</ele>
        <time>2017-09-23T13:12:31Z</time>
      </trkpt>
      <trkpt lat="41.190852" lon="-6.688053">
        <ele>335.652</ele>
        <time>2017-09-23T13:12:47Z</time>
      </trkpt>
      <trkpt lat="41.190862" lon="-6.687681">
        <ele>337.561</ele>
        <time>2017-09-23T13:13:03Z</time>
      </trkpt>
      <trkpt lat="41.190815" lon="-6.687281">
        <ele>339.015</ele>
        <time>2017-09-23T13:13:20Z</time>
      </trkpt>
      <trkpt lat="41.190770" lon="-6.686953">
        <ele>340.981</ele>
        <time>2017-09-23T13:13:34Z</time>
      </trkpt>
      <trkpt lat="41.190713" lon="-6.686571">
        <ele>342.395</ele>
        <time>2017-09-23T13:13:50Z</time>
      </trkpt>
      <trkpt lat="41.190631" lon="-6.686156">
        <ele>343.865</ele>
        <time>2017-09-23T13:14:08Z</time>
      </trkpt>
      <trkpt lat="41.190581" lon="-6.685845">
        <ele>345.768</ele>
        <time>2017-09-23T13:14:23Z</time>
      </trkpt>
      <trkpt lat="41.190567" lon="-6.685763">
        <ele>346.214</ele>
        <time>2017-09-23T13:14:27Z</time>
      </trkpt>
      <trkpt lat="41.190567" lon="-6.685739">
        <ele>346.608</ele>
        <time>2017-09-23T13:14:28Z</time>
      </trkpt>
      <trkpt lat="41.190565" lon="-6.685717">
        <ele>346.668</ele>
        <time>2017-09-23T13:14:29Z</time>
      </trkpt>
      <trkpt lat="41.190561" lon="-6.685699">
        <ele>347.156</ele>
        <time>2017-09-23T13:14:30Z</time>
      </trkpt>
      <trkpt lat="41.190555" lon="-6.685682">
        <ele>347.147</ele>
        <time>2017-09-23T13:14:31Z</time>
      </trkpt>
      <trkpt lat="41.190538" lon="-6.685352">
        <ele>349.199</ele>
        <time>2017-09-23T13:14:48Z</time>
      </trkpt>
      <trkpt lat="41.190577" lon="-6.685132">
        <ele>349.598</ele>
        <time>2017-09-23T13:15:00Z</time>
      </trkpt>
      <trkpt lat="41.190628" lon="-6.684808">
        <ele>351.592</ele>
        <time>2017-09-23T13:15:17Z</time>
      </trkpt>
      <trkpt lat="41.190651" lon="-6.684706">
        <ele>351.988</ele>
        <time>2017-09-23T13:15:22Z</time>
      </trkpt>
      <trkpt lat="41.190653" lon="-6.684683">
        <ele>352.472</ele>
        <time>2017-09-23T13:15:23Z</time>
      </trkpt>
      <trkpt lat="41.190655" lon="-6.684663">
        <ele>352.485</ele>
        <time>2017-09-23T13:15:24Z</time>
      </trkpt>
      <trkpt lat="41.190660" lon="-6.684640">
        <ele>352.489</ele>
        <time>2017-09-23T13:15:25Z</time>
      </trkpt>
      <trkpt lat="41.190662" lon="-6.684619">
        <ele>352.417</ele>
        <time>2017-09-23T13:15:26Z</time>
      </trkpt>
      <trkpt lat="41.190651" lon="-6.684236">
        <ele>354.308</ele>
        <time>2017-09-23T13:15:45Z</time>
      </trkpt>
      <trkpt lat="41.190616" lon="-6.683911">
        <ele>355.840</ele>
        <time>2017-09-23T13:16:01Z</time>
      </trkpt>
      <trkpt lat="41.190552" lon="-6.683565">
        <ele>357.798</ele>
        <time>2017-09-23T13:16:18Z</time>
      </trkpt>
      <trkpt lat="41.190482" lon="-6.683210">
        <ele>359.699</ele>
        <time>2017-09-23T13:16:36Z</time>
      </trkpt>
      <trkpt lat="41.190425" lon="-6.682839">
        <ele>361.571</ele>
        <time>2017-09-23T13:16:54Z</time>
      </trkpt>
      <trkpt lat="41.190375" lon="-6.682496">
        <ele>364.070</ele>
        <time>2017-09-23T13:17:11Z</time>
      </trkpt>
      <trkpt lat="41.190300" lon="-6.682106">
        <ele>365.914</ele>
        <time>2017-09-23T13:17:30Z</time>
      </trkpt>
      <trkpt lat="41.190183" lon="-6.681823">
        <ele>367.350</ele>
        <time>2017-09-23T13:17:45Z</time>
      </trkpt>
      <trkpt lat="41.190010" lon="-6.681562">
        <ele>368.834</ele>
        <time>2017-09-23T13:18:01Z</time>
      </trkpt>
      <trkpt lat="41.189822" lon="-6.681288">
        <ele>371.223</ele>
        <time>2017-09-23T13:18:19Z</time>
      </trkpt>
      <trkpt lat="41.189812" lon="-6.681275">
        <ele>371.283</ele>
        <time>2017-09-23T13:18:20Z</time>
      </trkpt>
      <trkpt lat="41.189806" lon="-6.681257">
        <ele>371.211</ele>
        <time>2017-09-23T13:18:21Z</time>
      </trkpt>
      <trkpt lat="41.189800" lon="-6.681238">
        <ele>371.208</ele>
        <time>2017-09-23T13:18:22Z</time>
      </trkpt>
      <trkpt lat="41.189793" lon="-6.681221">
        <ele>371.694</ele>
        <time>2017-09-23T13:18:23Z</time>
      </trkpt>
      <trkpt lat="41.189788" lon="-6.681202">
        <ele>371.632</ele>
        <time>2017-09-23T13:18:24Z</time>
      </trkpt>
      <trkpt lat="41.189785" lon="-6.681180">
        <ele>371.673</ele>
        <time>2017-09-23T13:18:25Z</time>
      </trkpt>
      <trkpt lat="41.189780" lon="-6.681161">
        <ele>372.145</ele>
        <time>2017-09-23T13:18:26Z</time>
      </trkpt>
      <trkpt lat="41.189727" lon="-6.680870">
        <ele>374.064</ele>
        <time>2017-09-23T13:18:42Z</time>
      </trkpt>
      <trkpt lat="41.189725" lon="-6.680833">
        <ele>374.088</ele>
        <time>2017-09-23T13:18:44Z</time>
      </trkpt>
      <trkpt lat="41.189637" lon="-6.680512">
        <ele>376.074</ele>
        <time>2017-09-23T13:19:02Z</time>
      </trkpt>
      <trkpt lat="41.189626" lon="-6.680498">
        <ele>376.048</ele>
        <time>2017-09-23T13:19:03Z</time>
      </trkpt>
      <trkpt lat="41.189618" lon="-6.680481">
        <ele>376.017</ele>
        <time>2017-09-23T13:19:04Z</time>
      </trkpt>
      <trkpt lat="41.189494" lon="-6.680257">
        <ele>377.987</ele>
        <time>2017-09-23T13:19:19Z</time>
      </trkpt>
      <trkpt lat="41.189424" lon="-6.680148">
        <ele>377.915</ele>
        <time>2017-09-23T13:19:32Z</time>
      </trkpt>
      <trkpt lat="41.189416" lon="-6.680153">
        <ele>377.408</ele>
        <time>2017-09-23T13:19:52Z</time>
      </trkpt>
      <trkpt lat="41.189403" lon="-6.680130">
        <ele>377.973</ele>
        <time>2017-09-23T13:20:12Z</time>
      </trkpt>
      <trkpt lat="41.189398" lon="-6.680108">
        <ele>377.991</ele>
        <time>2017-09-23T13:20:13Z</time>
      </trkpt>
      <trkpt lat="41.189394" lon="-6.680089">
        <ele>378.412</ele>
        <time>2017-09-23T13:20:14Z</time>
      </trkpt>
      <trkpt lat="41.189376" lon="-6.680033">
        <ele>378.964</ele>
        <time>2017-09-23T13:20:17Z</time>
      </trkpt>
      <trkpt lat="41.189329" lon="-6.679975">
        <ele>379.343</ele>
        <time>2017-09-23T13:20:21Z</time>
      </trkpt>
      <trkpt lat="41.189155" lon="-6.679737">
        <ele>381.327</ele>
        <time>2017-09-23T13:20:37Z</time>
      </trkpt>
      <trkpt lat="41.188918" lon="-6.679623">
        <ele>383.253</ele>
        <time>2017-09-23T13:20:52Z</time>
      </trkpt>
      <trkpt lat="41.188787" lon="-6.679620">
        <ele>383.757</ele>
        <time>2017-09-23T13:21:00Z</time>
      </trkpt>
      <trkpt lat="41.188475" lon="-6.679721">
        <ele>386.195</ele>
        <time>2017-09-23T13:21:20Z</time>
      </trkpt>
      <trkpt lat="41.188221" lon="-6.679786">
        <ele>388.949</ele>
        <time>2017-09-23T13:21:38Z</time>
      </trkpt>
      <trkpt lat="41.188198" lon="-6.679806">
        <ele>388.523</ele>
        <time>2017-09-23T13:21:52Z</time>
      </trkpt>
      <trkpt lat="41.188176" lon="-6.679806">
        <ele>388.508</ele>
        <time>2017-09-23T13:22:00Z</time>
      </trkpt>
      <trkpt lat="41.188161" lon="-6.679801">
        <ele>388.531</ele>
        <time>2017-09-23T13:22:01Z</time>
      </trkpt>
      <trkpt lat="41.188147" lon="-6.679799">
        <ele>388.959</ele>
        <time>2017-09-23T13:22:02Z</time>
      </trkpt>
      <trkpt lat="41.188132" lon="-6.679801">
        <ele>388.920</ele>
        <time>2017-09-23T13:22:03Z</time>
      </trkpt>
      <trkpt lat="41.188119" lon="-6.679805">
        <ele>389.462</ele>
        <time>2017-09-23T13:22:04Z</time>
      </trkpt>
      <trkpt lat="41.188104" lon="-6.679809">
        <ele>389.441</ele>
        <time>2017-09-23T13:22:05Z</time>
      </trkpt>
      <trkpt lat="41.188090" lon="-6.679811">
        <ele>389.485</ele>
        <time>2017-09-23T13:22:06Z</time>
      </trkpt>
      <trkpt lat="41.188076" lon="-6.679810">
        <ele>389.971</ele>
        <time>2017-09-23T13:22:07Z</time>
      </trkpt>
      <trkpt lat="41.188065" lon="-6.679808">
        <ele>389.455</ele>
        <time>2017-09-23T13:22:08Z</time>
      </trkpt>
      <trkpt lat="41.187921" lon="-6.679799">
        <ele>390.936</ele>
        <time>2017-09-23T13:22:20Z</time>
      </trkpt>
      <trkpt lat="41.187818" lon="-6.679742">
        <ele>391.317</ele>
        <time>2017-09-23T13:22:27Z</time>
      </trkpt>
      <trkpt lat="41.187807" lon="-6.679732">
        <ele>391.318</ele>
        <time>2017-09-23T13:22:28Z</time>
      </trkpt>
      <trkpt lat="41.187646" lon="-6.679523">
        <ele>393.308</ele>
        <time>2017-09-23T13:22:41Z</time>
      </trkpt>
      <trkpt lat="41.187555" lon="-6.679199">
        <ele>395.745</ele>
        <time>2017-09-23T13:22:57Z</time>
      </trkpt>
      <trkpt lat="41.187456" lon="-6.678825">
        <ele>398.153</ele>
        <time>2017-09-23T13:23:16Z</time>
      </trkpt>
      <trkpt lat="41.187290" lon="-6.678564">
        <ele>400.064</ele>
        <time>2017-09-23T13:23:34Z</time>
      </trkpt>
      <trkpt lat="41.187173" lon="-6.678409">
        <ele>400.516</ele>
        <time>2017-09-23T13:23:45Z</time>
      </trkpt>
      <trkpt lat="41.187160" lon="-6.678397">
        <ele>401.075</ele>
        <time>2017-09-23T13:23:46Z</time>
      </trkpt>
      <trkpt lat="41.187150" lon="-6.678382">
        <ele>401.019</ele>
        <time>2017-09-23T13:23:47Z</time>
      </trkpt>
      <trkpt lat="41.187141" lon="-6.678369">
        <ele>401.095</ele>
        <time>2017-09-23T13:23:48Z</time>
      </trkpt>
      <trkpt lat="41.187132" lon="-6.678353">
        <ele>401.029</ele>
        <time>2017-09-23T13:23:49Z</time>
      </trkpt>
      <trkpt lat="41.187006" lon="-6.678057">
        <ele>404.315</ele>
        <time>2017-09-23T13:24:07Z</time>
      </trkpt>
      <trkpt lat="41.186928" lon="-6.677787">
        <ele>406.765</ele>
        <time>2017-09-23T13:24:23Z</time>
      </trkpt>
      <trkpt lat="41.186861" lon="-6.677486">
        <ele>408.211</ele>
        <time>2017-09-23T13:24:40Z</time>
      </trkpt>
      <trkpt lat="41.186801" lon="-6.677234">
        <ele>410.608</ele>
        <time>2017-09-23T13:24:58Z</time>
      </trkpt>
      <trkpt lat="41.186817" lon="-6.677216">
        <ele>410.623</ele>
        <time>2017-09-23T13:25:14Z</time>
      </trkpt>
      <trkpt lat="41.186808" lon="-6.677199">
        <ele>411.511</ele>
        <time>2017-09-23T13:25:40Z</time>
      </trkpt>
      <trkpt lat="41.186782" lon="-6.677230">
        <ele>414.942</ele>
        <time>2017-09-23T13:26:06Z</time>
      </trkpt>
      <trkpt lat="41.186808" lon="-6.677220">
        <ele>410.624</ele>
        <time>2017-09-23T13:26:43Z</time>
      </trkpt>
      <trkpt lat="41.186800" lon="-6.677219">
        <ele>410.153</ele>
        <time>2017-09-23T13:27:09Z</time>
      </trkpt>
      <trkpt lat="41.186791" lon="-6.677254">
        <ele>411.567</ele>
        <time>2017-09-23T13:27:47Z</time>
      </trkpt>
      <trkpt lat="41.186790" lon="-6.677231">
        <ele>411.173</ele>
        <time>2017-09-23T13:28:10Z</time>
      </trkpt>
      <trkpt lat="41.186789" lon="-6.677210">
        <ele>411.187</ele>
        <time>2017-09-23T13:28:11Z</time>
      </trkpt>
      <trkpt lat="41.186784" lon="-6.677192">
        <ele>411.164</ele>
        <time>2017-09-23T13:28:12Z</time>
      </trkpt>
      <trkpt lat="41.186779" lon="-6.677174">
        <ele>411.106</ele>
        <time>2017-09-23T13:28:13Z</time>
      </trkpt>
      <trkpt lat="41.186775" lon="-6.677159">
        <ele>411.516</ele>
        <time>2017-09-23T13:28:14Z</time>
      </trkpt>
      <trkpt lat="41.186773" lon="-6.677135">
        <ele>411.508</ele>
        <time>2017-09-23T13:28:15Z</time>
      </trkpt>
      <trkpt lat="41.186752" lon="-6.676967">
        <ele>412.558</ele>
        <time>2017-09-23T13:28:24Z</time>
      </trkpt>
      <trkpt lat="41.186747" lon="-6.676926">
        <ele>412.576</ele>
        <time>2017-09-23T13:28:26Z</time>
      </trkpt>
      <trkpt lat="41.186743" lon="-6.676907">
        <ele>413.077</ele>
        <time>2017-09-23T13:28:27Z</time>
      </trkpt>
      <trkpt lat="41.186738" lon="-6.676885">
        <ele>413.069</ele>
        <time>2017-09-23T13:28:28Z</time>
      </trkpt>
      <trkpt lat="41.186736" lon="-6.676869">
        <ele>413.538</ele>
        <time>2017-09-23T13:28:29Z</time>
      </trkpt>
      <trkpt lat="41.186733" lon="-6.676848">
        <ele>413.042</ele>
        <time>2017-09-23T13:28:30Z</time>
      </trkpt>
      <trkpt lat="41.186729" lon="-6.676830">
        <ele>413.098</ele>
        <time>2017-09-23T13:28:31Z</time>
      </trkpt>
      <trkpt lat="41.186726" lon="-6.676812">
        <ele>413.022</ele>
        <time>2017-09-23T13:28:32Z</time>
      </trkpt>
      <trkpt lat="41.186725" lon="-6.676791">
        <ele>413.548</ele>
        <time>2017-09-23T13:28:33Z</time>
      </trkpt>
      <trkpt lat="41.186724" lon="-6.676470">
        <ele>414.961</ele>
        <time>2017-09-23T13:28:50Z</time>
      </trkpt>
      <trkpt lat="41.186732" lon="-6.676151">
        <ele>415.917</ele>
        <time>2017-09-23T13:29:07Z</time>
      </trkpt>
      <trkpt lat="41.186735" lon="-6.675793">
        <ele>417.308</ele>
        <time>2017-09-23T13:29:27Z</time>
      </trkpt>
      <trkpt lat="41.186735" lon="-6.675521">
        <ele>418.326</ele>
        <time>2017-09-23T13:29:43Z</time>
      </trkpt>
      <trkpt lat="41.186733" lon="-6.675502">
        <ele>418.374</ele>
        <time>2017-09-23T13:29:44Z</time>
      </trkpt>
      <trkpt lat="41.186733" lon="-6.675163">
        <ele>420.795</ele>
        <time>2017-09-23T13:30:03Z</time>
      </trkpt>
      <trkpt lat="41.186729" lon="-6.674864">
        <ele>423.147</ele>
        <time>2017-09-23T13:30:19Z</time>
      </trkpt>
      <trkpt lat="41.186717" lon="-6.674622">
        <ele>426.056</ele>
        <time>2017-09-23T13:30:34Z</time>
      </trkpt>
      <trkpt lat="41.186718" lon="-6.674602">
        <ele>425.050</ele>
        <time>2017-09-23T13:30:53Z</time>
      </trkpt>
      <trkpt lat="41.186708" lon="-6.674610">
        <ele>424.586</ele>
        <time>2017-09-23T13:31:20Z</time>
      </trkpt>
      <trkpt lat="41.186707" lon="-6.674625">
        <ele>426.040</ele>
        <time>2017-09-23T13:31:44Z</time>
      </trkpt>
      <trkpt lat="41.186710" lon="-6.674644">
        <ele>423.163</ele>
        <time>2017-09-23T13:32:09Z</time>
      </trkpt>
      <trkpt lat="41.186720" lon="-6.674636">
        <ele>425.544</ele>
        <time>2017-09-23T13:32:39Z</time>
      </trkpt>
      <trkpt lat="41.186721" lon="-6.674614">
        <ele>426.918</ele>
        <time>2017-09-23T13:33:18Z</time>
      </trkpt>
      <trkpt lat="41.186711" lon="-6.674630">
        <ele>426.008</ele>
        <time>2017-09-23T13:33:53Z</time>
      </trkpt>
      <trkpt lat="41.186698" lon="-6.674606">
        <ele>426.488</ele>
        <time>2017-09-23T13:34:23Z</time>
      </trkpt>
      <trkpt lat="41.186712" lon="-6.674598">
        <ele>424.576</ele>
        <time>2017-09-23T13:34:50Z</time>
      </trkpt>
      <trkpt lat="41.186714" lon="-6.674583">
        <ele>424.517</ele>
        <time>2017-09-23T13:34:51Z</time>
      </trkpt>
      <trkpt lat="41.186721" lon="-6.674539">
        <ele>425.069</ele>
        <time>2017-09-23T13:34:54Z</time>
      </trkpt>
      <trkpt lat="41.186718" lon="-6.674520">
        <ele>425.548</ele>
        <time>2017-09-23T13:34:55Z</time>
      </trkpt>
      <trkpt lat="41.186704" lon="-6.674313">
        <ele>426.992</ele>
        <time>2017-09-23T13:35:06Z</time>
      </trkpt>
      <trkpt lat="41.186706" lon="-6.674208">
        <ele>427.988</ele>
        <time>2017-09-23T13:35:12Z</time>
      </trkpt>
      <trkpt lat="41.186700" lon="-6.674188">
        <ele>428.442</ele>
        <time>2017-09-23T13:35:13Z</time>
      </trkpt>
      <trkpt lat="41.186666" lon="-6.673884">
        <ele>429.325</ele>
        <time>2017-09-23T13:35:30Z</time>
      </trkpt>
      <trkpt lat="41.186547" lon="-6.673652">
        <ele>431.726</ele>
        <time>2017-09-23T13:35:46Z</time>
      </trkpt>
      <trkpt lat="41.186525" lon="-6.673628">
        <ele>432.208</ele>
        <time>2017-09-23T13:35:48Z</time>
      </trkpt>
      <trkpt lat="41.186435" lon="-6.673577">
        <ele>432.208</ele>
        <time>2017-09-23T13:35:55Z</time>
      </trkpt>
      <trkpt lat="41.186216" lon="-6.673549">
        <ele>433.264</ele>
        <time>2017-09-23T13:36:11Z</time>
      </trkpt>
      <trkpt lat="41.185925" lon="-6.673559">
        <ele>435.122</ele>
        <time>2017-09-23T13:36:32Z</time>
      </trkpt>
      <trkpt lat="41.185873" lon="-6.673553">
        <ele>436.123</ele>
        <time>2017-09-23T13:36:36Z</time>
      </trkpt>
      <trkpt lat="41.185860" lon="-6.673548">
        <ele>436.555</ele>
        <time>2017-09-23T13:36:37Z</time>
      </trkpt>
      <trkpt lat="41.185846" lon="-6.673549">
        <ele>436.594</ele>
        <time>2017-09-23T13:36:38Z</time>
      </trkpt>
      <trkpt lat="41.185582" lon="-6.673561">
        <ele>437.028</ele>
        <time>2017-09-23T13:36:57Z</time>
      </trkpt>
      <trkpt lat="41.185384" lon="-6.673635">
        <ele>438.074</ele>
        <time>2017-09-23T13:37:12Z</time>
      </trkpt>
      <trkpt lat="41.185137" lon="-6.673716">
        <ele>439.958</ele>
        <time>2017-09-23T13:37:31Z</time>
      </trkpt>
      <trkpt lat="41.184948" lon="-6.673785">
        <ele>440.432</ele>
        <time>2017-09-23T13:37:46Z</time>
      </trkpt>
      <trkpt lat="41.184934" lon="-6.673787">
        <ele>440.992</ele>
        <time>2017-09-23T13:37:47Z</time>
      </trkpt>
      <trkpt lat="41.184709" lon="-6.673757">
        <ele>444.711</ele>
        <time>2017-09-23T13:38:05Z</time>
      </trkpt>
      <trkpt lat="41.184564" lon="-6.673609">
        <ele>446.108</ele>
        <time>2017-09-23T13:38:19Z</time>
      </trkpt>
      <trkpt lat="41.184504" lon="-6.673365">
        <ele>448.155</ele>
        <time>2017-09-23T13:38:33Z</time>
      </trkpt>
      <trkpt lat="41.184559" lon="-6.673107">
        <ele>450.523</ele>
        <time>2017-09-23T13:38:48Z</time>
      </trkpt>
      <trkpt lat="41.184714" lon="-6.672901">
        <ele>451.054</ele>
        <time>2017-09-23T13:39:04Z</time>
      </trkpt>
      <trkpt lat="41.184812" lon="-6.672793">
        <ele>451.416</ele>
        <time>2017-09-23T13:39:13Z</time>
      </trkpt>
      <trkpt lat="41.184825" lon="-6.672784">
        <ele>451.475</ele>
        <time>2017-09-23T13:39:14Z</time>
      </trkpt>
      <trkpt lat="41.184838" lon="-6.672771">
        <ele>451.979</ele>
        <time>2017-09-23T13:39:15Z</time>
      </trkpt>
      <trkpt lat="41.184848" lon="-6.672757">
        <ele>451.935</ele>
        <time>2017-09-23T13:39:16Z</time>
      </trkpt>
      <trkpt lat="41.184857" lon="-6.672744">
        <ele>451.999</ele>
        <time>2017-09-23T13:39:17Z</time>
      </trkpt>
      <trkpt lat="41.184869" lon="-6.672732">
        <ele>452.434</ele>
        <time>2017-09-23T13:39:18Z</time>
      </trkpt>
      <trkpt lat="41.184880" lon="-6.672724">
        <ele>452.955</ele>
        <time>2017-09-23T13:39:19Z</time>
      </trkpt>
      <trkpt lat="41.185035" lon="-6.672591">
        <ele>455.310</ele>
        <time>2017-09-23T13:39:32Z</time>
      </trkpt>
      <trkpt lat="41.185183" lon="-6.672377">
        <ele>456.208</ele>
        <time>2017-09-23T13:39:48Z</time>
      </trkpt>
      <trkpt lat="41.185304" lon="-6.672062">
        <ele>460.125</ele>
        <time>2017-09-23T13:40:07Z</time>
      </trkpt>
      <trkpt lat="41.185324" lon="-6.671961">
        <ele>460.113</ele>
        <time>2017-09-23T13:40:19Z</time>
      </trkpt>
      <trkpt lat="41.185335" lon="-6.671973">
        <ele>460.694</ele>
        <time>2017-09-23T13:40:36Z</time>
      </trkpt>
      <trkpt lat="41.185336" lon="-6.671976">
        <ele>459.166</ele>
        <time>2017-09-23T13:41:07Z</time>
      </trkpt>
      <trkpt lat="41.185331" lon="-6.671956">
        <ele>460.185</ele>
        <time>2017-09-23T13:41:38Z</time>
      </trkpt>
      <trkpt lat="41.185333" lon="-6.671931">
        <ele>459.169</ele>
        <time>2017-09-23T13:41:56Z</time>
      </trkpt>
      <trkpt lat="41.185347" lon="-6.671873">
        <ele>460.615</ele>
        <time>2017-09-23T13:42:10Z</time>
      </trkpt>
      <trkpt lat="41.185369" lon="-6.671786">
        <ele>461.539</ele>
        <time>2017-09-23T13:42:25Z</time>
      </trkpt>
      <trkpt lat="41.185362" lon="-6.671802">
        <ele>462.082</ele>
        <time>2017-09-23T13:43:01Z</time>
      </trkpt>
      <trkpt lat="41.185381" lon="-6.671772">
        <ele>460.143</ele>
        <time>2017-09-23T13:43:30Z</time>
      </trkpt>
      <trkpt lat="41.185386" lon="-6.671817">
        <ele>463.017</ele>
        <time>2017-09-23T13:44:09Z</time>
      </trkpt>
      <trkpt lat="41.185352" lon="-6.671809">
        <ele>461.008</ele>
        <time>2017-09-23T13:44:30Z</time>
      </trkpt>
      <trkpt lat="41.185350" lon="-6.671791">
        <ele>463.950</ele>
        <time>2017-09-23T13:45:07Z</time>
      </trkpt>
      <trkpt lat="41.185332" lon="-6.671802">
        <ele>458.618</ele>
        <time>2017-09-23T13:45:27Z</time>
      </trkpt>
      <trkpt lat="41.185340" lon="-6.671759">
        <ele>459.139</ele>
        <time>2017-09-23T13:45:56Z</time>
      </trkpt>
      <trkpt lat="41.185367" lon="-6.671780">
        <ele>459.651</ele>
        <time>2017-09-23T13:46:27Z</time>
      </trkpt>
      <trkpt lat="41.185358" lon="-6.671758">
        <ele>460.650</ele>
        <time>2017-09-23T13:46:54Z</time>
      </trkpt>
      <trkpt lat="41.185364" lon="-6.671801">
        <ele>460.114</ele>
        <time>2017-09-23T13:47:25Z</time>
      </trkpt>
      <trkpt lat="41.185368" lon="-6.671795">
        <ele>458.610</ele>
        <time>2017-09-23T13:47:57Z</time>
      </trkpt>
      <trkpt lat="41.185340" lon="-6.671770">
        <ele>459.184</ele>
        <time>2017-09-23T13:48:31Z</time>
      </trkpt>
      <trkpt lat="41.185333" lon="-6.671755">
        <ele>461.093</ele>
        <time>2017-09-23T13:49:09Z</time>
      </trkpt>
      <trkpt lat="41.185359" lon="-6.671805">
        <ele>461.565</ele>
        <time>2017-09-23T13:49:44Z</time>
      </trkpt>
      <trkpt lat="41.185385" lon="-6.671812">
        <ele>461.021</ele>
        <time>2017-09-23T13:50:17Z</time>
      </trkpt>
      <trkpt lat="41.185359" lon="-6.671790">
        <ele>460.608</ele>
        <time>2017-09-23T13:50:46Z</time>
      </trkpt>
      <trkpt lat="41.185358" lon="-6.671769">
        <ele>460.641</ele>
        <time>2017-09-23T13:51:13Z</time>
      </trkpt>
      <trkpt lat="41.185356" lon="-6.671789">
        <ele>459.179</ele>
        <time>2017-09-23T13:51:39Z</time>
      </trkpt>
      <trkpt lat="41.185398" lon="-6.671786">
        <ele>459.650</ele>
        <time>2017-09-23T13:52:05Z</time>
      </trkpt>
      <trkpt lat="41.185392" lon="-6.671806">
        <ele>462.552</ele>
        <time>2017-09-23T13:52:37Z</time>
      </trkpt>
      <trkpt lat="41.185386" lon="-6.671815">
        <ele>463.441</ele>
        <time>2017-09-23T13:53:09Z</time>
      </trkpt>
      <trkpt lat="41.185360" lon="-6.671792">
        <ele>460.615</ele>
        <time>2017-09-23T13:53:45Z</time>
      </trkpt>
      <trkpt lat="41.185390" lon="-6.671803">
        <ele>460.141</ele>
        <time>2017-09-23T13:54:11Z</time>
      </trkpt>
      <trkpt lat="41.185384" lon="-6.671800">
        <ele>461.075</ele>
        <time>2017-09-23T13:54:44Z</time>
      </trkpt>
      <trkpt lat="41.185401" lon="-6.671724">
        <ele>462.047</ele>
        <time>2017-09-23T13:55:10Z</time>
      </trkpt>
      <trkpt lat="41.185476" lon="-6.671413">
        <ele>463.929</ele>
        <time>2017-09-23T13:55:28Z</time>
      </trkpt>
      <trkpt lat="41.185546" lon="-6.671138">
        <ele>466.321</ele>
        <time>2017-09-23T13:55:46Z</time>
      </trkpt>
      <trkpt lat="41.185601" lon="-6.670893">
        <ele>467.808</ele>
        <time>2017-09-23T13:56:07Z</time>
      </trkpt>
      <trkpt lat="41.185616" lon="-6.670897">
        <ele>468.776</ele>
        <time>2017-09-23T13:56:26Z</time>
      </trkpt>
      <trkpt lat="41.185632" lon="-6.670872">
        <ele>468.794</ele>
        <time>2017-09-23T13:56:37Z</time>
      </trkpt>
      <trkpt lat="41.185640" lon="-6.670857">
        <ele>468.725</ele>
        <time>2017-09-23T13:56:38Z</time>
      </trkpt>
      <trkpt lat="41.185641" lon="-6.670833">
        <ele>468.747</ele>
        <time>2017-09-23T13:56:39Z</time>
      </trkpt>
      <trkpt lat="41.185711" lon="-6.670550">
        <ele>469.766</ele>
        <time>2017-09-23T13:56:53Z</time>
      </trkpt>
      <trkpt lat="41.185768" lon="-6.670324">
        <ele>470.250</ele>
        <time>2017-09-23T13:57:06Z</time>
      </trkpt>
      <trkpt lat="41.185776" lon="-6.670308">
        <ele>470.256</ele>
        <time>2017-09-23T13:57:07Z</time>
      </trkpt>
      <trkpt lat="41.185854" lon="-6.670031">
        <ele>471.140</ele>
        <time>2017-09-23T13:57:23Z</time>
      </trkpt>
      <trkpt lat="41.185861" lon="-6.669735">
        <ele>474.534</ele>
        <time>2017-09-23T13:57:39Z</time>
      </trkpt>
      <trkpt lat="41.185797" lon="-6.669437">
        <ele>476.955</ele>
        <time>2017-09-23T13:57:56Z</time>
      </trkpt>
      <trkpt lat="41.185708" lon="-6.669133">
        <ele>479.310</ele>
        <time>2017-09-23T13:58:14Z</time>
      </trkpt>
      <trkpt lat="41.185666" lon="-6.668995">
        <ele>479.808</ele>
        <time>2017-09-23T13:58:22Z</time>
      </trkpt>
      <trkpt lat="41.185656" lon="-6.668977">
        <ele>479.835</ele>
        <time>2017-09-23T13:58:23Z</time>
      </trkpt>
      <trkpt lat="41.185646" lon="-6.668960">
        <ele>480.323</ele>
        <time>2017-09-23T13:58:24Z</time>
      </trkpt>
      <trkpt lat="41.185641" lon="-6.668944">
        <ele>480.314</ele>
        <time>2017-09-23T13:58:25Z</time>
      </trkpt>
      <trkpt lat="41.185635" lon="-6.668926">
        <ele>480.336</ele>
        <time>2017-09-23T13:58:26Z</time>
      </trkpt>
      <trkpt lat="41.185627" lon="-6.668908">
        <ele>480.325</ele>
        <time>2017-09-23T13:58:27Z</time>
      </trkpt>
      <trkpt lat="41.185621" lon="-6.668894">
        <ele>479.849</ele>
        <time>2017-09-23T13:58:28Z</time>
      </trkpt>
      <trkpt lat="41.185580" lon="-6.668760">
        <ele>480.895</ele>
        <time>2017-09-23T13:58:36Z</time>
      </trkpt>
      <trkpt lat="41.185577" lon="-6.668737">
        <ele>480.319</ele>
        <time>2017-09-23T13:58:37Z</time>
      </trkpt>
      <trkpt lat="41.185572" lon="-6.668718">
        <ele>480.854</ele>
        <time>2017-09-23T13:58:38Z</time>
      </trkpt>
      <trkpt lat="41.185547" lon="-6.668630">
        <ele>481.756</ele>
        <time>2017-09-23T13:58:43Z</time>
      </trkpt>
      <trkpt lat="41.185547" lon="-6.668612">
        <ele>481.711</ele>
        <time>2017-09-23T13:58:44Z</time>
      </trkpt>
      <trkpt lat="41.185546" lon="-6.668590">
        <ele>481.708</ele>
        <time>2017-09-23T13:58:45Z</time>
      </trkpt>
      <trkpt lat="41.185544" lon="-6.668567">
        <ele>481.727</ele>
        <time>2017-09-23T13:58:46Z</time>
      </trkpt>
      <trkpt lat="41.185542" lon="-6.668547">
        <ele>481.785</ele>
        <time>2017-09-23T13:58:47Z</time>
      </trkpt>
      <trkpt lat="41.185539" lon="-6.668527">
        <ele>482.236</ele>
        <time>2017-09-23T13:58:48Z</time>
      </trkpt>
      <trkpt lat="41.185536" lon="-6.668508">
        <ele>482.238</ele>
        <time>2017-09-23T13:58:49Z</time>
      </trkpt>
      <trkpt lat="41.185568" lon="-6.668221">
        <ele>484.627</ele>
        <time>2017-09-23T13:59:05Z</time>
      </trkpt>
      <trkpt lat="41.185682" lon="-6.667906">
        <ele>484.681</ele>
        <time>2017-09-23T13:59:22Z</time>
      </trkpt>
      <trkpt lat="41.185709" lon="-6.667583">
        <ele>486.587</ele>
        <time>2017-09-23T13:59:39Z</time>
      </trkpt>
      <trkpt lat="41.185631" lon="-6.667219">
        <ele>489.971</ele>
        <time>2017-09-23T13:59:59Z</time>
      </trkpt>
      <trkpt lat="41.185618" lon="-6.667141">
        <ele>489.937</ele>
        <time>2017-09-23T14:00:03Z</time>
      </trkpt>
      <trkpt lat="41.185611" lon="-6.667126">
        <ele>489.949</ele>
        <time>2017-09-23T14:00:04Z</time>
      </trkpt>
      <trkpt lat="41.185604" lon="-6.667110">
        <ele>489.913</ele>
        <time>2017-09-23T14:00:05Z</time>
      </trkpt>
      <trkpt lat="41.185598" lon="-6.667092">
        <ele>489.908</ele>
        <time>2017-09-23T14:00:06Z</time>
      </trkpt>
      <trkpt lat="41.185596" lon="-6.667074">
        <ele>490.465</ele>
        <time>2017-09-23T14:00:07Z</time>
      </trkpt>
      <trkpt lat="41.185592" lon="-6.667055">
        <ele>490.453</ele>
        <time>2017-09-23T14:00:08Z</time>
      </trkpt>
      <trkpt lat="41.185585" lon="-6.667040">
        <ele>490.414</ele>
        <time>2017-09-23T14:00:09Z</time>
      </trkpt>
      <trkpt lat="41.185578" lon="-6.667025">
        <ele>490.466</ele>
        <time>2017-09-23T14:00:10Z</time>
      </trkpt>
      <trkpt lat="41.185508" lon="-6.666734">
        <ele>492.395</ele>
        <time>2017-09-23T14:00:26Z</time>
      </trkpt>
      <trkpt lat="41.185492" lon="-6.666404">
        <ele>493.239</ele>
        <time>2017-09-23T14:00:42Z</time>
      </trkpt>
      <trkpt lat="41.185478" lon="-6.666061">
        <ele>492.855</ele>
        <time>2017-09-23T14:00:58Z</time>
      </trkpt>
      <trkpt lat="41.185446" lon="-6.665706">
        <ele>494.719</ele>
        <time>2017-09-23T14:01:16Z</time>
      </trkpt>
      <trkpt lat="41.185432" lon="-6.665290">
        <ele>495.725</ele>
        <time>2017-09-23T14:01:37Z</time>
      </trkpt>
      <trkpt lat="41.185408" lon="-6.664936">
        <ele>497.126</ele>
        <time>2017-09-23T14:01:55Z</time>
      </trkpt>
      <trkpt lat="41.185384" lon="-6.664603">
        <ele>499.508</ele>
        <time>2017-09-23T14:02:12Z</time>
      </trkpt>
      <trkpt lat="41.185319" lon="-6.664300">
        <ele>500.008</ele>
        <time>2017-09-23T14:02:27Z</time>
      </trkpt>
      <trkpt lat="41.185149" lon="-6.663973">
        <ele>500.954</ele>
        <time>2017-09-23T14:02:46Z</time>
      </trkpt>
      <trkpt lat="41.185006" lon="-6.663712">
        <ele>502.462</ele>
        <time>2017-09-23T14:03:02Z</time>
      </trkpt>
      <trkpt lat="41.184886" lon="-6.663406">
        <ele>502.963</ele>
        <time>2017-09-23T14:03:19Z</time>
      </trkpt>
      <trkpt lat="41.184878" lon="-6.663372">
        <ele>502.965</ele>
        <time>2017-09-23T14:03:21Z</time>
      </trkpt>
      <trkpt lat="41.184869" lon="-6.663351">
        <ele>502.934</ele>
        <time>2017-09-23T14:03:22Z</time>
      </trkpt>
      <trkpt lat="41.184799" lon="-6.662983">
        <ele>503.888</ele>
        <time>2017-09-23T14:03:39Z</time>
      </trkpt>
      <trkpt lat="41.184785" lon="-6.662611">
        <ele>505.384</ele>
        <time>2017-09-23T14:03:55Z</time>
      </trkpt>
      <trkpt lat="41.184946" lon="-6.662256">
        <ele>505.728</ele>
        <time>2017-09-23T14:04:13Z</time>
      </trkpt>
      <trkpt lat="41.185148" lon="-6.662049">
        <ele>504.878</ele>
        <time>2017-09-23T14:04:27Z</time>
      </trkpt>
      <trkpt lat="41.185351" lon="-6.661806">
        <ele>506.233</ele>
        <time>2017-09-23T14:04:41Z</time>
      </trkpt>
      <trkpt lat="41.185514" lon="-6.661357">
        <ele>508.626</ele>
        <time>2017-09-23T14:04:58Z</time>
      </trkpt>
      <trkpt lat="41.185361" lon="-6.660992">
        <ele>510.108</ele>
        <time>2017-09-23T14:05:14Z</time>
      </trkpt>
      <trkpt lat="41.185268" lon="-6.660923">
        <ele>510.629</ele>
        <time>2017-09-23T14:05:20Z</time>
      </trkpt>
      <trkpt lat="41.185249" lon="-6.660915">
        <ele>510.617</ele>
        <time>2017-09-23T14:05:21Z</time>
      </trkpt>
      <trkpt lat="41.184753" lon="-6.660711">
        <ele>513.438</ele>
        <time>2017-09-23T14:05:42Z</time>
      </trkpt>
      <trkpt lat="41.184470" lon="-6.660364">
        <ele>514.470</ele>
        <time>2017-09-23T14:05:58Z</time>
      </trkpt>
      <trkpt lat="41.184353" lon="-6.659699">
        <ele>516.329</ele>
        <time>2017-09-23T14:06:18Z</time>
      </trkpt>
      <trkpt lat="41.184307" lon="-6.659209">
        <ele>519.233</ele>
        <time>2017-09-23T14:06:34Z</time>
      </trkpt>
      <trkpt lat="41.184361" lon="-6.658671">
        <ele>521.169</ele>
        <time>2017-09-23T14:06:53Z</time>
      </trkpt>
      <trkpt lat="41.184428" lon="-6.658223">
        <ele>523.023</ele>
        <time>2017-09-23T14:07:10Z</time>
      </trkpt>
      <trkpt lat="41.184501" lon="-6.657823">
        <ele>525.585</ele>
        <time>2017-09-23T14:07:28Z</time>
      </trkpt>
      <trkpt lat="41.184588" lon="-6.657507">
        <ele>526.989</ele>
        <time>2017-09-23T14:07:43Z</time>
      </trkpt>
      <trkpt lat="41.184705" lon="-6.657178">
        <ele>526.917</ele>
        <time>2017-09-23T14:07:59Z</time>
      </trkpt>
      <trkpt lat="41.184918" lon="-6.656937">
        <ele>526.908</ele>
        <time>2017-09-23T14:08:14Z</time>
      </trkpt>
      <trkpt lat="41.185225" lon="-6.656745">
        <ele>527.480</ele>
        <time>2017-09-23T14:08:32Z</time>
      </trkpt>
      <trkpt lat="41.185480" lon="-6.656588">
        <ele>528.878</ele>
        <time>2017-09-23T14:08:47Z</time>
      </trkpt>
      <trkpt lat="41.185765" lon="-6.656368">
        <ele>530.749</ele>
        <time>2017-09-23T14:09:05Z</time>
      </trkpt>
      <trkpt lat="41.185864" lon="-6.655985">
        <ele>532.721</ele>
        <time>2017-09-23T14:09:22Z</time>
      </trkpt>
      <trkpt lat="41.185759" lon="-6.655687">
        <ele>533.650</ele>
        <time>2017-09-23T14:09:36Z</time>
      </trkpt>
      <trkpt lat="41.185582" lon="-6.655323">
        <ele>534.614</ele>
        <time>2017-09-23T14:09:54Z</time>
      </trkpt>
      <trkpt lat="41.185426" lon="-6.654989">
        <ele>536.540</ele>
        <time>2017-09-23T14:10:10Z</time>
      </trkpt>
      <trkpt lat="41.185375" lon="-6.654731">
        <ele>538.434</ele>
        <time>2017-09-23T14:10:20Z</time>
      </trkpt>
      <trkpt lat="41.185374" lon="-6.654705">
        <ele>538.438</ele>
        <time>2017-09-23T14:10:21Z</time>
      </trkpt>
      <trkpt lat="41.185408" lon="-6.654251">
        <ele>539.470</ele>
        <time>2017-09-23T14:10:35Z</time>
      </trkpt>
      <trkpt lat="41.185326" lon="-6.653696">
        <ele>541.317</ele>
        <time>2017-09-23T14:10:52Z</time>
      </trkpt>
      <trkpt lat="41.185190" lon="-6.653184">
        <ele>542.308</ele>
        <time>2017-09-23T14:11:08Z</time>
      </trkpt>
      <trkpt lat="41.185281" lon="-6.652687">
        <ele>543.215</ele>
        <time>2017-09-23T14:11:22Z</time>
      </trkpt>
      <trkpt lat="41.185452" lon="-6.652056">
        <ele>545.223</ele>
        <time>2017-09-23T14:11:40Z</time>
      </trkpt>
      <trkpt lat="41.185441" lon="-6.651579">
        <ele>547.124</ele>
        <time>2017-09-23T14:11:56Z</time>
      </trkpt>
      <trkpt lat="41.185375" lon="-6.651112">
        <ele>550.056</ele>
        <time>2017-09-23T14:12:14Z</time>
      </trkpt>
      <trkpt lat="41.185309" lon="-6.650618">
        <ele>550.075</ele>
        <time>2017-09-23T14:12:33Z</time>
      </trkpt>
      <trkpt lat="41.185270" lon="-6.650292">
        <ele>551.489</ele>
        <time>2017-09-23T14:12:47Z</time>
      </trkpt>
      <trkpt lat="41.185310" lon="-6.649902">
        <ele>553.395</ele>
        <time>2017-09-23T14:13:04Z</time>
      </trkpt>
      <trkpt lat="41.185411" lon="-6.649652">
        <ele>554.329</ele>
        <time>2017-09-23T14:13:17Z</time>
      </trkpt>
      <trkpt lat="41.185505" lon="-6.649340">
        <ele>556.283</ele>
        <time>2017-09-23T14:13:33Z</time>
      </trkpt>
      <trkpt lat="41.185441" lon="-6.648912">
        <ele>558.625</ele>
        <time>2017-09-23T14:13:52Z</time>
      </trkpt>
      <trkpt lat="41.185336" lon="-6.648502">
        <ele>557.217</ele>
        <time>2017-09-23T14:14:08Z</time>
      </trkpt>
      <trkpt lat="41.185190" lon="-6.647896">
        <ele>556.208</ele>
        <time>2017-09-23T14:14:23Z</time>
      </trkpt>
      <trkpt lat="41.185325" lon="-6.647374">
        <ele>555.790</ele>
        <time>2017-09-23T14:14:35Z</time>
      </trkpt>
      <trkpt lat="41.185350" lon="-6.647326">
        <ele>555.788</ele>
        <time>2017-09-23T14:14:36Z</time>
      </trkpt>
      <trkpt lat="41.185403" lon="-6.647226">
        <ele>555.379</ele>
        <time>2017-09-23T14:14:38Z</time>
      </trkpt>
      <trkpt lat="41.185424" lon="-6.647174">
        <ele>555.331</ele>
        <time>2017-09-23T14:14:39Z</time>
      </trkpt>
      <trkpt lat="41.185442" lon="-6.647114">
        <ele>555.380</ele>
        <time>2017-09-23T14:14:40Z</time>
      </trkpt>
      <trkpt lat="41.185479" lon="-6.646929">
        <ele>554.864</ele>
        <time>2017-09-23T14:14:43Z</time>
      </trkpt>
      <trkpt lat="41.185491" lon="-6.646808">
        <ele>554.330</ele>
        <time>2017-09-23T14:14:45Z</time>
      </trkpt>
      <trkpt lat="41.185492" lon="-6.646737">
        <ele>554.384</ele>
        <time>2017-09-23T14:14:46Z</time>
      </trkpt>
      <trkpt lat="41.185358" lon="-6.645805">
        <ele>554.357</ele>
        <time>2017-09-23T14:15:01Z</time>
      </trkpt>
      <trkpt lat="41.185053" lon="-6.645073">
        <ele>554.300</ele>
        <time>2017-09-23T14:15:17Z</time>
      </trkpt>
      <trkpt lat="41.185020" lon="-6.644897">
        <ele>555.320</ele>
        <time>2017-09-23T14:15:29Z</time>
      </trkpt>
      <trkpt lat="41.185015" lon="-6.644872">
        <ele>556.708</ele>
        <time>2017-09-23T14:15:41Z</time>
      </trkpt>
      <trkpt lat="41.185011" lon="-6.644892">
        <ele>555.317</ele>
        <time>2017-09-23T14:16:30Z</time>
      </trkpt>
      <trkpt lat="41.185012" lon="-6.644877">
        <ele>555.765</ele>
        <time>2017-09-23T14:16:50Z</time>
      </trkpt>
      <trkpt lat="41.185019" lon="-6.644881">
        <ele>555.746</ele>
        <time>2017-09-23T14:17:23Z</time>
      </trkpt>
      <trkpt lat="41.185017" lon="-6.644906">
        <ele>558.668</ele>
        <time>2017-09-23T14:17:55Z</time>
      </trkpt>
      <trkpt lat="41.185023" lon="-6.644891">
        <ele>557.727</ele>
        <time>2017-09-23T14:18:42Z</time>
      </trkpt>
      <trkpt lat="41.185003" lon="-6.644888">
        <ele>561.541</ele>
        <time>2017-09-23T14:19:20Z</time>
      </trkpt>
      <trkpt lat="41.185028" lon="-6.644906">
        <ele>560.557</ele>
        <time>2017-09-23T14:19:57Z</time>
      </trkpt>
      <trkpt lat="41.185026" lon="-6.644891">
        <ele>561.531</ele>
        <time>2017-09-23T14:20:33Z</time>
      </trkpt>
      <trkpt lat="41.185025" lon="-6.644864">
        <ele>561.032</ele>
        <time>2017-09-23T14:20:54Z</time>
      </trkpt>
      <trkpt lat="41.185005" lon="-6.644935">
        <ele>562.092</ele>
        <time>2017-09-23T14:21:22Z</time>
      </trkpt>
      <trkpt lat="41.185021" lon="-6.644877">
        <ele>554.311</ele>
        <time>2017-09-23T14:22:00Z</time>
      </trkpt>
      <trkpt lat="41.185009" lon="-6.644878">
        <ele>555.308</ele>
        <time>2017-09-23T14:22:23Z</time>
      </trkpt>
      <trkpt lat="41.185046" lon="-6.644852">
        <ele>558.635</ele>
        <time>2017-09-23T14:22:58Z</time>
      </trkpt>
      <trkpt lat="41.185022" lon="-6.644899">
        <ele>561.023</ele>
        <time>2017-09-23T14:23:39Z</time>
      </trkpt>
      <trkpt lat="41.185053" lon="-6.644930">
        <ele>563.934</ele>
        <time>2017-09-23T14:24:18Z</time>
      </trkpt>
      <trkpt lat="41.185050" lon="-6.644868">
        <ele>562.526</ele>
        <time>2017-09-23T14:24:28Z</time>
      </trkpt>
      <trkpt lat="41.185042" lon="-6.644736">
        <ele>562.035</ele>
        <time>2017-09-23T14:24:44Z</time>
      </trkpt>
      <trkpt lat="41.185134" lon="-6.644427">
        <ele>562.529</ele>
        <time>2017-09-23T14:24:56Z</time>
      </trkpt>
      <trkpt lat="41.185199" lon="-6.644073">
        <ele>563.935</ele>
        <time>2017-09-23T14:25:11Z</time>
      </trkpt>
      <trkpt lat="41.185183" lon="-6.643718">
        <ele>563.999</ele>
        <time>2017-09-23T14:25:27Z</time>
      </trkpt>
      <trkpt lat="41.185096" lon="-6.643444">
        <ele>564.969</ele>
        <time>2017-09-23T14:25:42Z</time>
      </trkpt>
      <trkpt lat="41.185011" lon="-6.643305">
        <ele>565.304</ele>
        <time>2017-09-23T14:25:51Z</time>
      </trkpt>
      <trkpt lat="41.184998" lon="-6.643297">
        <ele>565.324</ele>
        <time>2017-09-23T14:25:52Z</time>
      </trkpt>
      <trkpt lat="41.184988" lon="-6.643283">
        <ele>565.308</ele>
        <time>2017-09-23T14:25:53Z</time>
      </trkpt>
      <trkpt lat="41.184977" lon="-6.643265">
        <ele>565.818</ele>
        <time>2017-09-23T14:25:54Z</time>
      </trkpt>
      <trkpt lat="41.184968" lon="-6.643250">
        <ele>565.896</ele>
        <time>2017-09-23T14:25:55Z</time>
      </trkpt>
      <trkpt lat="41.184959" lon="-6.643236">
        <ele>565.837</ele>
        <time>2017-09-23T14:25:56Z</time>
      </trkpt>
      <trkpt lat="41.184949" lon="-6.643222">
        <ele>565.819</ele>
        <time>2017-09-23T14:25:57Z</time>
      </trkpt>
      <trkpt lat="41.184939" lon="-6.643209">
        <ele>566.338</ele>
        <time>2017-09-23T14:25:58Z</time>
      </trkpt>
      <trkpt lat="41.184925" lon="-6.643200">
        <ele>566.392</ele>
        <time>2017-09-23T14:25:59Z</time>
      </trkpt>
      <trkpt lat="41.184913" lon="-6.643190">
        <ele>566.368</ele>
        <time>2017-09-23T14:26:00Z</time>
      </trkpt>
      <trkpt lat="41.184901" lon="-6.643176">
        <ele>566.322</ele>
        <time>2017-09-23T14:26:01Z</time>
      </trkpt>
      <trkpt lat="41.184670" lon="-6.642936">
        <ele>567.829</ele>
        <time>2017-09-23T14:26:21Z</time>
      </trkpt>
      <trkpt lat="41.184477" lon="-6.642772">
        <ele>567.800</ele>
        <time>2017-09-23T14:26:37Z</time>
      </trkpt>
      <trkpt lat="41.184270" lon="-6.642719">
        <ele>569.720</ele>
        <time>2017-09-23T14:26:52Z</time>
      </trkpt>
      <trkpt lat="41.184034" lon="-6.642685">
        <ele>571.108</ele>
        <time>2017-09-23T14:27:09Z</time>
      </trkpt>
      <trkpt lat="41.183823" lon="-6.642650">
        <ele>572.164</ele>
        <time>2017-09-23T14:27:24Z</time>
      </trkpt>
      <trkpt lat="41.183603" lon="-6.642622">
        <ele>574.092</ele>
        <time>2017-09-23T14:27:39Z</time>
      </trkpt>
      <trkpt lat="41.183510" lon="-6.642600">
        <ele>574.513</ele>
        <time>2017-09-23T14:27:46Z</time>
      </trkpt>
      <trkpt lat="41.183497" lon="-6.642593">
        <ele>575.065</ele>
        <time>2017-09-23T14:27:47Z</time>
      </trkpt>
      <trkpt lat="41.183483" lon="-6.642589">
        <ele>575.014</ele>
        <time>2017-09-23T14:27:48Z</time>
      </trkpt>
      <trkpt lat="41.183370" lon="-6.642572">
        <ele>576.438</ele>
        <time>2017-09-23T14:27:56Z</time>
      </trkpt>
      <trkpt lat="41.183284" lon="-6.642549">
        <ele>576.994</ele>
        <time>2017-09-23T14:28:02Z</time>
      </trkpt>
      <trkpt lat="41.183269" lon="-6.642553">
        <ele>576.998</ele>
        <time>2017-09-23T14:28:03Z</time>
      </trkpt>
      <trkpt lat="41.183254" lon="-6.642554">
        <ele>576.985</ele>
        <time>2017-09-23T14:28:04Z</time>
      </trkpt>
      <trkpt lat="41.183142" lon="-6.642539">
        <ele>577.489</ele>
        <time>2017-09-23T14:28:12Z</time>
      </trkpt>
      <trkpt lat="41.183128" lon="-6.642533">
        <ele>577.417</ele>
        <time>2017-09-23T14:28:13Z</time>
      </trkpt>
      <trkpt lat="41.182868" lon="-6.642502">
        <ele>578.308</ele>
        <time>2017-09-23T14:28:31Z</time>
      </trkpt>
      <trkpt lat="41.182638" lon="-6.642453">
        <ele>580.240</ele>
        <time>2017-09-23T14:28:47Z</time>
      </trkpt>
      <trkpt lat="41.182429" lon="-6.642430">
        <ele>581.768</ele>
        <time>2017-09-23T14:29:02Z</time>
      </trkpt>
      <trkpt lat="41.182227" lon="-6.642393">
        <ele>583.679</ele>
        <time>2017-09-23T14:29:16Z</time>
      </trkpt>
      <trkpt lat="41.182199" lon="-6.642388">
        <ele>583.611</ele>
        <time>2017-09-23T14:29:18Z</time>
      </trkpt>
      <trkpt lat="41.182185" lon="-6.642389">
        <ele>583.680</ele>
        <time>2017-09-23T14:29:19Z</time>
      </trkpt>
      <trkpt lat="41.181932" lon="-6.642346">
        <ele>584.634</ele>
        <time>2017-09-23T14:29:37Z</time>
      </trkpt>
      <trkpt lat="41.181734" lon="-6.642309">
        <ele>587.080</ele>
        <time>2017-09-23T14:29:51Z</time>
      </trkpt>
      <trkpt lat="41.181495" lon="-6.642247">
        <ele>587.974</ele>
        <time>2017-09-23T14:30:08Z</time>
      </trkpt>
      <trkpt lat="41.181456" lon="-6.642236">
        <ele>587.978</ele>
        <time>2017-09-23T14:30:11Z</time>
      </trkpt>
      <trkpt lat="41.181440" lon="-6.642239">
        <ele>588.433</ele>
        <time>2017-09-23T14:30:12Z</time>
      </trkpt>
      <trkpt lat="41.181426" lon="-6.642240">
        <ele>588.426</ele>
        <time>2017-09-23T14:30:13Z</time>
      </trkpt>
      <trkpt lat="41.181410" lon="-6.642234">
        <ele>588.408</ele>
        <time>2017-09-23T14:30:14Z</time>
      </trkpt>
      <trkpt lat="41.181396" lon="-6.642224">
        <ele>588.469</ele>
        <time>2017-09-23T14:30:15Z</time>
      </trkpt>
      <trkpt lat="41.181384" lon="-6.642218">
        <ele>588.487</ele>
        <time>2017-09-23T14:30:16Z</time>
      </trkpt>
      <trkpt lat="41.181371" lon="-6.642214">
        <ele>588.488</ele>
        <time>2017-09-23T14:30:17Z</time>
      </trkpt>
      <trkpt lat="41.181128" lon="-6.642172">
        <ele>590.340</ele>
        <time>2017-09-23T14:30:34Z</time>
      </trkpt>
      <trkpt lat="41.180897" lon="-6.642234">
        <ele>591.319</ele>
        <time>2017-09-23T14:30:50Z</time>
      </trkpt>
      <trkpt lat="41.180836" lon="-6.642284">
        <ele>591.893</ele>
        <time>2017-09-23T14:30:55Z</time>
      </trkpt>
      <trkpt lat="41.180822" lon="-6.642291">
        <ele>591.359</ele>
        <time>2017-09-23T14:30:56Z</time>
      </trkpt>
      <trkpt lat="41.180808" lon="-6.642301">
        <ele>591.863</ele>
        <time>2017-09-23T14:30:57Z</time>
      </trkpt>
      <trkpt lat="41.180796" lon="-6.642312">
        <ele>591.386</ele>
        <time>2017-09-23T14:30:58Z</time>
      </trkpt>
      <trkpt lat="41.180784" lon="-6.642325">
        <ele>591.860</ele>
        <time>2017-09-23T14:30:59Z</time>
      </trkpt>
      <trkpt lat="41.180774" lon="-6.642339">
        <ele>591.826</ele>
        <time>2017-09-23T14:31:00Z</time>
      </trkpt>
      <trkpt lat="41.180636" lon="-6.642591">
        <ele>593.208</ele>
        <time>2017-09-23T14:31:16Z</time>
      </trkpt>
      <trkpt lat="41.180526" lon="-6.642813">
        <ele>595.620</ele>
        <time>2017-09-23T14:31:30Z</time>
      </trkpt>
      <trkpt lat="41.180450" lon="-6.642933">
        <ele>596.628</ele>
        <time>2017-09-23T14:31:38Z</time>
      </trkpt>
      <trkpt lat="41.180437" lon="-6.642943">
        <ele>596.619</ele>
        <time>2017-09-23T14:31:39Z</time>
      </trkpt>
      <trkpt lat="41.180423" lon="-6.642958">
        <ele>596.651</ele>
        <time>2017-09-23T14:31:40Z</time>
      </trkpt>
      <trkpt lat="41.180411" lon="-6.642973">
        <ele>596.620</ele>
        <time>2017-09-23T14:31:41Z</time>
      </trkpt>
      <trkpt lat="41.180400" lon="-6.642987">
        <ele>596.684</ele>
        <time>2017-09-23T14:31:42Z</time>
      </trkpt>
      <trkpt lat="41.180390" lon="-6.643004">
        <ele>596.610</ele>
        <time>2017-09-23T14:31:43Z</time>
      </trkpt>
      <trkpt lat="41.180160" lon="-6.643118">
        <ele>597.154</ele>
        <time>2017-09-23T14:31:59Z</time>
      </trkpt>
      <trkpt lat="41.179912" lon="-6.643122">
        <ele>598.552</ele>
        <time>2017-09-23T14:32:14Z</time>
      </trkpt>
      <trkpt lat="41.179684" lon="-6.643117">
        <ele>599.053</ele>
        <time>2017-09-23T14:32:28Z</time>
      </trkpt>
      <trkpt lat="41.179419" lon="-6.643115">
        <ele>599.508</ele>
        <time>2017-09-23T14:32:44Z</time>
      </trkpt>
      <trkpt lat="41.179404" lon="-6.643114">
        <ele>599.508</ele>
        <time>2017-09-23T14:32:45Z</time>
      </trkpt>
      <trkpt lat="41.179388" lon="-6.643111">
        <ele>599.567</ele>
        <time>2017-09-23T14:32:46Z</time>
      </trkpt>
      <trkpt lat="41.179076" lon="-6.643093">
        <ele>600.955</ele>
        <time>2017-09-23T14:33:04Z</time>
      </trkpt>
      <trkpt lat="41.178777" lon="-6.643084">
        <ele>602.466</ele>
        <time>2017-09-23T14:33:21Z</time>
      </trkpt>
      <trkpt lat="41.178441" lon="-6.643036">
        <ele>604.388</ele>
        <time>2017-09-23T14:33:38Z</time>
      </trkpt>
      <trkpt lat="41.178049" lon="-6.642956">
        <ele>605.737</ele>
        <time>2017-09-23T14:33:55Z</time>
      </trkpt>
      <trkpt lat="41.177684" lon="-6.642881">
        <ele>606.791</ele>
        <time>2017-09-23T14:34:13Z</time>
      </trkpt>
      <trkpt lat="41.177412" lon="-6.642887">
        <ele>607.287</ele>
        <time>2017-09-23T14:34:27Z</time>
      </trkpt>
      <trkpt lat="41.177343" lon="-6.642900">
        <ele>608.161</ele>
        <time>2017-09-23T14:34:38Z</time>
      </trkpt>
      <trkpt lat="41.177357" lon="-6.642917">
        <ele>608.694</ele>
        <time>2017-09-23T14:35:06Z</time>
      </trkpt>
      <trkpt lat="41.177361" lon="-6.642908">
        <ele>608.657</ele>
        <time>2017-09-23T14:35:35Z</time>
      </trkpt>
      <trkpt lat="41.177337" lon="-6.642908">
        <ele>608.122</ele>
        <time>2017-09-23T14:35:51Z</time>
      </trkpt>
      <trkpt lat="41.177337" lon="-6.642909">
        <ele>608.108</ele>
        <time>2017-09-23T14:36:23Z</time>
      </trkpt>
      <trkpt lat="41.177338" lon="-6.642921">
        <ele>608.651</ele>
        <time>2017-09-23T14:36:49Z</time>
      </trkpt>
      <trkpt lat="41.177327" lon="-6.642912">
        <ele>607.669</ele>
        <time>2017-09-23T14:37:19Z</time>
      </trkpt>
      <trkpt lat="41.177337" lon="-6.642908">
        <ele>606.250</ele>
        <time>2017-09-23T14:37:55Z</time>
      </trkpt>
      <trkpt lat="41.177349" lon="-6.642904">
        <ele>609.132</ele>
        <time>2017-09-23T14:38:32Z</time>
      </trkpt>
      <trkpt lat="41.177091" lon="-6.642947">
        <ele>609.121</ele>
        <time>2017-09-23T14:38:44Z</time>
      </trkpt>
      <trkpt lat="41.176814" lon="-6.643022">
        <ele>610.025</ele>
        <time>2017-09-23T14:38:58Z</time>
      </trkpt>
      <trkpt lat="41.176579" lon="-6.643113">
        <ele>611.511</ele>
        <time>2017-09-23T14:39:13Z</time>
      </trkpt>
      <trkpt lat="41.176421" lon="-6.643199">
        <ele>612.595</ele>
        <time>2017-09-23T14:39:25Z</time>
      </trkpt>
      <trkpt lat="41.176408" lon="-6.643210">
        <ele>612.582</ele>
        <time>2017-09-23T14:39:26Z</time>
      </trkpt>
      <trkpt lat="41.176397" lon="-6.643221">
        <ele>612.543</ele>
        <time>2017-09-23T14:39:27Z</time>
      </trkpt>
      <trkpt lat="41.176384" lon="-6.643230">
        <ele>612.917</ele>
        <time>2017-09-23T14:39:28Z</time>
      </trkpt>
      <trkpt lat="41.176371" lon="-6.643233">
        <ele>612.908</ele>
        <time>2017-09-23T14:39:29Z</time>
      </trkpt>
      <trkpt lat="41.176356" lon="-6.643239">
        <ele>613.480</ele>
        <time>2017-09-23T14:39:30Z</time>
      </trkpt>
      <trkpt lat="41.176343" lon="-6.643249">
        <ele>613.448</ele>
        <time>2017-09-23T14:39:31Z</time>
      </trkpt>
      <trkpt lat="41.176332" lon="-6.643257">
        <ele>613.439</ele>
        <time>2017-09-23T14:39:32Z</time>
      </trkpt>
      <trkpt lat="41.176319" lon="-6.643267">
        <ele>613.421</ele>
        <time>2017-09-23T14:39:33Z</time>
      </trkpt>
      <trkpt lat="41.176074" lon="-6.643396">
        <ele>615.840</ele>
        <time>2017-09-23T14:39:52Z</time>
      </trkpt>
      <trkpt lat="41.175935" lon="-6.643418">
        <ele>616.844</ele>
        <time>2017-09-23T14:40:02Z</time>
      </trkpt>
      <trkpt lat="41.175920" lon="-6.643417">
        <ele>616.820</ele>
        <time>2017-09-23T14:40:03Z</time>
      </trkpt>
      <trkpt lat="41.175906" lon="-6.643416">
        <ele>617.314</ele>
        <time>2017-09-23T14:40:04Z</time>
      </trkpt>
      <trkpt lat="41.175893" lon="-6.643413">
        <ele>617.357</ele>
        <time>2017-09-23T14:40:05Z</time>
      </trkpt>
      <trkpt lat="41.175881" lon="-6.643408">
        <ele>617.300</ele>
        <time>2017-09-23T14:40:06Z</time>
      </trkpt>
      <trkpt lat="41.175868" lon="-6.643401">
        <ele>617.320</ele>
        <time>2017-09-23T14:40:07Z</time>
      </trkpt>
      <trkpt lat="41.175853" lon="-6.643394">
        <ele>616.808</ele>
        <time>2017-09-23T14:40:08Z</time>
      </trkpt>
      <trkpt lat="41.175829" lon="-6.643381">
        <ele>617.337</ele>
        <time>2017-09-23T14:40:10Z</time>
      </trkpt>
      <trkpt lat="41.175816" lon="-6.643369">
        <ele>617.375</ele>
        <time>2017-09-23T14:40:11Z</time>
      </trkpt>
      <trkpt lat="41.175804" lon="-6.643361">
        <ele>617.356</ele>
        <time>2017-09-23T14:40:12Z</time>
      </trkpt>
      <trkpt lat="41.175790" lon="-6.643355">
        <ele>617.388</ele>
        <time>2017-09-23T14:40:13Z</time>
      </trkpt>
      <trkpt lat="41.175775" lon="-6.643349">
        <ele>617.757</ele>
        <time>2017-09-23T14:40:14Z</time>
      </trkpt>
      <trkpt lat="41.175630" lon="-6.643147">
        <ele>620.131</ele>
        <time>2017-09-23T14:40:30Z</time>
      </trkpt>
      <trkpt lat="41.175584" lon="-6.642870">
        <ele>622.167</ele>
        <time>2017-09-23T14:40:46Z</time>
      </trkpt>
      <trkpt lat="41.175584" lon="-6.642852">
        <ele>622.191</ele>
        <time>2017-09-23T14:40:47Z</time>
      </trkpt>
      <trkpt lat="41.175604" lon="-6.642643">
        <ele>623.092</ele>
        <time>2017-09-23T14:40:58Z</time>
      </trkpt>
      <trkpt lat="41.175605" lon="-6.642621">
        <ele>623.573</ele>
        <time>2017-09-23T14:40:59Z</time>
      </trkpt>
      <trkpt lat="41.175607" lon="-6.642599">
        <ele>623.520</ele>
        <time>2017-09-23T14:41:00Z</time>
      </trkpt>
      <trkpt lat="41.175648" lon="-6.642313">
        <ele>626.408</ele>
        <time>2017-09-23T14:41:15Z</time>
      </trkpt>
      <trkpt lat="41.175760" lon="-6.642021">
        <ele>627.851</ele>
        <time>2017-09-23T14:41:32Z</time>
      </trkpt>
      <trkpt lat="41.175812" lon="-6.641907">
        <ele>627.869</ele>
        <time>2017-09-23T14:41:39Z</time>
      </trkpt>
      <trkpt lat="41.175823" lon="-6.641893">
        <ele>628.310</ele>
        <time>2017-09-23T14:41:40Z</time>
      </trkpt>
      <trkpt lat="41.175956" lon="-6.641646">
        <ele>629.352</ele>
        <time>2017-09-23T14:41:55Z</time>
      </trkpt>
      <trkpt lat="41.176027" lon="-6.641397">
        <ele>629.851</ele>
        <time>2017-09-23T14:42:09Z</time>
      </trkpt>
      <trkpt lat="41.176043" lon="-6.641242">
        <ele>630.715</ele>
        <time>2017-09-23T14:42:17Z</time>
      </trkpt>
      <trkpt lat="41.176010" lon="-6.640910">
        <ele>632.611</ele>
        <time>2017-09-23T14:42:35Z</time>
      </trkpt>
      <trkpt lat="41.175947" lon="-6.640626">
        <ele>635.095</ele>
        <time>2017-09-23T14:42:51Z</time>
      </trkpt>
      <trkpt lat="41.175879" lon="-6.640252">
        <ele>637.414</ele>
        <time>2017-09-23T14:43:11Z</time>
      </trkpt>
      <trkpt lat="41.175826" lon="-6.639992">
        <ele>639.454</ele>
        <time>2017-09-23T14:43:25Z</time>
      </trkpt>
      <trkpt lat="41.175730" lon="-6.639697">
        <ele>641.809</ele>
        <time>2017-09-23T14:43:42Z</time>
      </trkpt>
      <trkpt lat="41.175565" lon="-6.639491">
        <ele>642.708</ele>
        <time>2017-09-23T14:43:58Z</time>
      </trkpt>
      <trkpt lat="41.175552" lon="-6.639481">
        <ele>642.763</ele>
        <time>2017-09-23T14:43:59Z</time>
      </trkpt>
      <trkpt lat="41.175538" lon="-6.639475">
        <ele>642.711</ele>
        <time>2017-09-23T14:44:00Z</time>
      </trkpt>
      <trkpt lat="41.175526" lon="-6.639468">
        <ele>642.742</ele>
        <time>2017-09-23T14:44:01Z</time>
      </trkpt>
      <trkpt lat="41.175514" lon="-6.639459">
        <ele>642.714</ele>
        <time>2017-09-23T14:44:02Z</time>
      </trkpt>
      <trkpt lat="41.175502" lon="-6.639450">
        <ele>642.723</ele>
        <time>2017-09-23T14:44:03Z</time>
      </trkpt>
      <trkpt lat="41.175487" lon="-6.639445">
        <ele>642.777</ele>
        <time>2017-09-23T14:44:04Z</time>
      </trkpt>
      <trkpt lat="41.175473" lon="-6.639438">
        <ele>642.763</ele>
        <time>2017-09-23T14:44:05Z</time>
      </trkpt>
      <trkpt lat="41.175460" lon="-6.639426">
        <ele>642.767</ele>
        <time>2017-09-23T14:44:06Z</time>
      </trkpt>
      <trkpt lat="41.175448" lon="-6.639417">
        <ele>642.742</ele>
        <time>2017-09-23T14:44:07Z</time>
      </trkpt>
      <trkpt lat="41.175436" lon="-6.639407">
        <ele>642.722</ele>
        <time>2017-09-23T14:44:08Z</time>
      </trkpt>
      <trkpt lat="41.175421" lon="-6.639402">
        <ele>642.714</ele>
        <time>2017-09-23T14:44:09Z</time>
      </trkpt>
      <trkpt lat="41.175406" lon="-6.639397">
        <ele>642.708</ele>
        <time>2017-09-23T14:44:10Z</time>
      </trkpt>
      <trkpt lat="41.175390" lon="-6.639388">
        <ele>642.796</ele>
        <time>2017-09-23T14:44:11Z</time>
      </trkpt>
      <trkpt lat="41.175375" lon="-6.639381">
        <ele>642.754</ele>
        <time>2017-09-23T14:44:12Z</time>
      </trkpt>
      <trkpt lat="41.175362" lon="-6.639374">
        <ele>642.765</ele>
        <time>2017-09-23T14:44:13Z</time>
      </trkpt>
      <trkpt lat="41.175350" lon="-6.639365">
        <ele>642.797</ele>
        <time>2017-09-23T14:44:14Z</time>
      </trkpt>
      <trkpt lat="41.175337" lon="-6.639354">
        <ele>642.746</ele>
        <time>2017-09-23T14:44:15Z</time>
      </trkpt>
      <trkpt lat="41.175324" lon="-6.639350">
        <ele>642.760</ele>
        <time>2017-09-23T14:44:16Z</time>
      </trkpt>
      <trkpt lat="41.175311" lon="-6.639345">
        <ele>642.796</ele>
        <time>2017-09-23T14:44:17Z</time>
      </trkpt>
      <trkpt lat="41.175269" lon="-6.639331">
        <ele>643.290</ele>
        <time>2017-09-23T14:44:28Z</time>
      </trkpt>
      <trkpt lat="41.175249" lon="-6.639340">
        <ele>644.798</ele>
        <time>2017-09-23T14:44:56Z</time>
      </trkpt>
      <trkpt lat="41.175274" lon="-6.639346">
        <ele>645.615</ele>
        <time>2017-09-23T14:45:23Z</time>
      </trkpt>
      <trkpt lat="41.175268" lon="-6.639339">
        <ele>642.726</ele>
        <time>2017-09-23T14:45:59Z</time>
      </trkpt>
      <trkpt lat="41.175271" lon="-6.639342">
        <ele>642.308</ele>
        <time>2017-09-23T14:46:36Z</time>
      </trkpt>
      <trkpt lat="41.175264" lon="-6.639330">
        <ele>644.291</ele>
        <time>2017-09-23T14:47:08Z</time>
      </trkpt>
      <trkpt lat="41.175189" lon="-6.639280">
        <ele>645.179</ele>
        <time>2017-09-23T14:47:20Z</time>
      </trkpt>
      <trkpt lat="41.174937" lon="-6.639158">
        <ele>646.660</ele>
        <time>2017-09-23T14:47:41Z</time>
      </trkpt>
      <trkpt lat="41.174631" lon="-6.639136">
        <ele>648.022</ele>
        <time>2017-09-23T14:48:05Z</time>
      </trkpt>
      <trkpt lat="41.174383" lon="-6.639139">
        <ele>649.571</ele>
        <time>2017-09-23T14:48:26Z</time>
      </trkpt>
      <trkpt lat="41.174250" lon="-6.639146">
        <ele>650.445</ele>
        <time>2017-09-23T14:48:43Z</time>
      </trkpt>
      <trkpt lat="41.174020" lon="-6.639191">
        <ele>651.961</ele>
        <time>2017-09-23T14:49:02Z</time>
      </trkpt>
      <trkpt lat="41.173805" lon="-6.639368">
        <ele>654.345</ele>
        <time>2017-09-23T14:49:22Z</time>
      </trkpt>
      <trkpt lat="41.173561" lon="-6.639649">
        <ele>656.789</ele>
        <time>2017-09-23T14:49:48Z</time>
      </trkpt>
      <trkpt lat="41.173353" lon="-6.639878">
        <ele>657.206</ele>
        <time>2017-09-23T14:50:09Z</time>
      </trkpt>
      <trkpt lat="41.173113" lon="-6.640148">
        <ele>659.126</ele>
        <time>2017-09-23T14:50:33Z</time>
      </trkpt>
      <trkpt lat="41.172861" lon="-6.640435">
        <ele>660.008</ele>
        <time>2017-09-23T14:50:57Z</time>
      </trkpt>
      <trkpt lat="41.172621" lon="-6.640701">
        <ele>661.540</ele>
        <time>2017-09-23T14:51:21Z</time>
      </trkpt>
      <trkpt lat="41.172550" lon="-6.640769">
        <ele>662.018</ele>
        <time>2017-09-23T14:51:37Z</time>
      </trkpt>
      <trkpt lat="41.172441" lon="-6.640861">
        <ele>661.039</ele>
        <time>2017-09-23T14:51:54Z</time>
      </trkpt>
      <trkpt lat="41.172121" lon="-6.641111">
        <ele>661.581</ele>
        <time>2017-09-23T14:52:09Z</time>
      </trkpt>
      <trkpt lat="41.171643" lon="-6.641478">
        <ele>662.040</ele>
        <time>2017-09-23T14:52:28Z</time>
      </trkpt>
      <trkpt lat="41.171213" lon="-6.641798">
        <ele>662.424</ele>
        <time>2017-09-23T14:52:46Z</time>
      </trkpt>
      <trkpt lat="41.170825" lon="-6.641826">
        <ele>662.920</ele>
        <time>2017-09-23T14:53:00Z</time>
      </trkpt>
      <trkpt lat="41.170394" lon="-6.641516">
        <ele>663.444</ele>
        <time>2017-09-23T14:53:17Z</time>
      </trkpt>
      <trkpt lat="41.170075" lon="-6.641282">
        <ele>664.418</ele>
        <time>2017-09-23T14:53:29Z</time>
      </trkpt>
      <trkpt lat="41.169626" lon="-6.640963">
        <ele>666.398</ele>
        <time>2017-09-23T14:53:46Z</time>
      </trkpt>
      <trkpt lat="41.169248" lon="-6.640944">
        <ele>665.817</ele>
        <time>2017-09-23T14:54:00Z</time>
      </trkpt>
      <trkpt lat="41.168849" lon="-6.641192">
        <ele>666.308</ele>
        <time>2017-09-23T14:54:16Z</time>
      </trkpt>
      <trkpt lat="41.168425" lon="-6.641463">
        <ele>666.393</ele>
        <time>2017-09-23T14:54:33Z</time>
      </trkpt>
      <trkpt lat="41.167876" lon="-6.641810">
        <ele>666.821</ele>
        <time>2017-09-23T14:54:52Z</time>
      </trkpt>
      <trkpt lat="41.167510" lon="-6.642060">
        <ele>667.772</ele>
        <time>2017-09-23T14:55:06Z</time>
      </trkpt>
      <trkpt lat="41.167098" lon="-6.642354">
        <ele>668.794</ele>
        <time>2017-09-23T14:55:23Z</time>
      </trkpt>
      <trkpt lat="41.166681" lon="-6.642700">
        <ele>669.263</ele>
        <time>2017-09-23T14:55:39Z</time>
      </trkpt>
      <trkpt lat="41.166291" lon="-6.643036">
        <ele>670.647</ele>
        <time>2017-09-23T14:55:54Z</time>
      </trkpt>
      <trkpt lat="41.165873" lon="-6.643474">
        <ele>672.143</ele>
        <time>2017-09-23T14:56:12Z</time>
      </trkpt>
      <trkpt lat="41.165530" lon="-6.643840">
        <ele>672.127</ele>
        <time>2017-09-23T14:56:28Z</time>
      </trkpt>
      <trkpt lat="41.165275" lon="-6.644072">
        <ele>673.025</ele>
        <time>2017-09-23T14:56:42Z</time>
      </trkpt>
      <trkpt lat="41.164310" lon="-6.643754">
        <ele>673.826</ele>
        <time>2017-10-09T03:42:32Z</time>
      </trkpt>
      <trkpt lat="41.163621" lon="-6.643582">
        <ele>675.508</ele>
        <time>2017-10-09T03:42:52Z</time>
      </trkpt>
      <trkpt lat="41.162245" lon="-6.643161">
        <ele>675.008</ele>
        <time>2017-10-09T03:43:12Z</time>
      </trkpt>
      <trkpt lat="41.161615" lon="-6.643222">
        <ele>677.444</ele>
        <time>2017-10-09T03:43:32Z</time>
      </trkpt>
      <trkpt lat="41.160099" lon="-6.643572">
        <ele>679.172</ele>
        <time>2017-10-09T03:43:52Z</time>
      </trkpt>
      <trkpt lat="41.157936" lon="-6.641272">
        <ele>678.953</ele>
        <time>2017-10-09T03:44:12Z</time>
      </trkpt>
      <trkpt lat="41.156735" lon="-6.641630">
        <ele>679.675</ele>
        <time>2017-10-09T03:44:32Z</time>
      </trkpt>
      <trkpt lat="41.156355" lon="-6.641775">
        <ele>679.744</ele>
        <time>2017-10-09T03:44:52Z</time>
      </trkpt>
      <trkpt lat="41.155608" lon="-6.641292">
        <ele>681.888</ele>
        <time>2017-10-09T03:45:12Z</time>
      </trkpt>
      <trkpt lat="41.154870" lon="-6.640266">
        <ele>688.124</ele>
        <time>2017-10-09T03:45:32Z</time>
      </trkpt>
      <trkpt lat="41.153818" lon="-6.639233">
        <ele>694.898</ele>
        <time>2017-10-09T03:45:52Z</time>
      </trkpt>
      <trkpt lat="41.151831" lon="-6.637635">
        <ele>698.045</ele>
        <time>2017-10-09T03:46:12Z</time>
      </trkpt>
      <trkpt lat="41.151106" lon="-6.635835">
        <ele>699.447</ele>
        <time>2017-10-09T03:46:32Z</time>
      </trkpt>
      <trkpt lat="41.150075" lon="-6.633486">
        <ele>705.711</ele>
        <time>2017-10-09T03:46:52Z</time>
      </trkpt>
      <trkpt lat="41.149288" lon="-6.631607">
        <ele>706.208</ele>
        <time>2017-10-09T03:47:12Z</time>
      </trkpt>
      <trkpt lat="41.148686" lon="-6.629965">
        <ele>707.866</ele>
        <time>2017-10-09T03:47:32Z</time>
      </trkpt>
    </trkseg>
  </trk>
</gpx>
